<?xml version="1.0" encoding="UTF-8" standalone="no" ?>
<gpx xmlns="http://www.topografix.com/GPX/1/1" xmlns:xsi="http://www.w3.org/2001/XMLSchema-instance" xsi:schemaLocation="http://www.topografix.com/GPX/1/1 http://www.topografix.com/GPX/1/1/gpx.xsd" version="1.1" creator="VisuGPX - https://www.visugpx.com">
  <metadata>
    <name>FD23 SECTEUR 01</name>
  </metadata>
  <trk>
    <name><![CDATA[FD23 SECTEUR 01_1]]></name>
    <trkseg>
      <trkpt lat="51.08037" lon="2.51824">
        <ele>2.6</ele>
        <time>2023-08-05T07:47:03Z</time>
      </trkpt>
      <trkpt lat="51.08035" lon="2.51824">
        <ele>6.2</ele>
        <time>2023-08-05T07:47:04Z</time>
      </trkpt>
      <trkpt lat="51.08032" lon="2.51812">
        <ele>9.4</ele>
        <time>2023-08-05T08:00:37Z</time>
      </trkpt>
      <trkpt lat="51.08026" lon="2.51817">
        <ele>9.4</ele>
        <time>2023-08-05T08:00:40Z</time>
      </trkpt>
      <trkpt lat="51.08013" lon="2.5183">
        <ele>9.2</ele>
        <time>2023-08-05T08:00:46Z</time>
      </trkpt>
      <trkpt lat="51.0801" lon="2.5183">
        <ele>9.2</ele>
        <time>2023-08-05T08:00:47Z</time>
      </trkpt>
      <trkpt lat="51.08008" lon="2.5183">
        <ele>9.2</ele>
        <time>2023-08-05T08:00:48Z</time>
      </trkpt>
      <trkpt lat="51.08005" lon="2.5183">
        <ele>9.2</ele>
        <time>2023-08-05T08:00:49Z</time>
      </trkpt>
      <trkpt lat="51.08002" lon="2.51831">
        <ele>9.2</ele>
        <time>2023-08-05T08:00:50Z</time>
      </trkpt>
      <trkpt lat="51.07997" lon="2.51835">
        <ele>9.2</ele>
        <time>2023-08-05T08:00:52Z</time>
      </trkpt>
      <trkpt lat="51.07995" lon="2.51836">
        <ele>9.2</ele>
        <time>2023-08-05T08:00:53Z</time>
      </trkpt>
      <trkpt lat="51.07992" lon="2.51839">
        <ele>9.2</ele>
        <time>2023-08-05T08:00:55Z</time>
      </trkpt>
      <trkpt lat="51.0799" lon="2.51839">
        <ele>9.2</ele>
        <time>2023-08-05T08:00:56Z</time>
      </trkpt>
      <trkpt lat="51.07988" lon="2.5184">
        <ele>9.2</ele>
        <time>2023-08-05T08:00:57Z</time>
      </trkpt>
      <trkpt lat="51.07973" lon="2.51846">
        <ele>9.2</ele>
        <time>2023-08-05T08:01:03Z</time>
      </trkpt>
      <trkpt lat="51.07959" lon="2.51849">
        <ele>9.2</ele>
        <time>2023-08-05T08:01:09Z</time>
      </trkpt>
      <trkpt lat="51.07958" lon="2.51847">
        <ele>9.2</ele>
        <time>2023-08-05T08:01:10Z</time>
      </trkpt>
      <trkpt lat="51.07957" lon="2.51843">
        <ele>9.2</ele>
        <time>2023-08-05T08:01:11Z</time>
      </trkpt>
      <trkpt lat="51.07954" lon="2.51835">
        <ele>9.2</ele>
        <time>2023-08-05T08:01:13Z</time>
      </trkpt>
      <trkpt lat="51.07948" lon="2.51803">
        <ele>9.2</ele>
        <time>2023-08-05T08:01:20Z</time>
      </trkpt>
      <trkpt lat="51.07939" lon="2.51768">
        <ele>9.8</ele>
        <time>2023-08-05T08:01:27Z</time>
      </trkpt>
      <trkpt lat="51.07927" lon="2.51713">
        <ele>10</ele>
        <time>2023-08-05T08:01:37Z</time>
      </trkpt>
      <trkpt lat="51.07917" lon="2.51672">
        <ele>10.2</ele>
        <time>2023-08-05T08:01:45Z</time>
      </trkpt>
      <trkpt lat="51.07913" lon="2.51651">
        <ele>10.4</ele>
        <time>2023-08-05T08:01:49Z</time>
      </trkpt>
      <trkpt lat="51.07911" lon="2.51645">
        <ele>10.4</ele>
        <time>2023-08-05T08:01:50Z</time>
      </trkpt>
      <trkpt lat="51.0791" lon="2.51639">
        <ele>10.4</ele>
        <time>2023-08-05T08:01:51Z</time>
      </trkpt>
      <trkpt lat="51.07909" lon="2.51634">
        <ele>10.4</ele>
        <time>2023-08-05T08:01:52Z</time>
      </trkpt>
      <trkpt lat="51.07907" lon="2.51628">
        <ele>10.6</ele>
        <time>2023-08-05T08:01:53Z</time>
      </trkpt>
      <trkpt lat="51.07906" lon="2.51623">
        <ele>10.6</ele>
        <time>2023-08-05T08:01:54Z</time>
      </trkpt>
      <trkpt lat="51.07903" lon="2.51611">
        <ele>10.6</ele>
        <time>2023-08-05T08:01:56Z</time>
      </trkpt>
      <trkpt lat="51.07896" lon="2.51575">
        <ele>10.6</ele>
        <time>2023-08-05T08:02:02Z</time>
      </trkpt>
      <trkpt lat="51.07884" lon="2.51523">
        <ele>10.6</ele>
        <time>2023-08-05T08:02:10Z</time>
      </trkpt>
      <trkpt lat="51.07879" lon="2.51496">
        <ele>10.4</ele>
        <time>2023-08-05T08:02:14Z</time>
      </trkpt>
      <trkpt lat="51.07872" lon="2.51472">
        <ele>10.4</ele>
        <time>2023-08-05T08:02:18Z</time>
      </trkpt>
      <trkpt lat="51.0786" lon="2.51425">
        <ele>10.6</ele>
        <time>2023-08-05T08:02:25Z</time>
      </trkpt>
      <trkpt lat="51.07857" lon="2.51412">
        <ele>10.6</ele>
        <time>2023-08-05T08:02:27Z</time>
      </trkpt>
      <trkpt lat="51.07844" lon="2.51357">
        <ele>10.6</ele>
        <time>2023-08-05T08:02:35Z</time>
      </trkpt>
      <trkpt lat="51.07841" lon="2.51344">
        <ele>10.4</ele>
        <time>2023-08-05T08:02:37Z</time>
      </trkpt>
      <trkpt lat="51.07834" lon="2.51319">
        <ele>10.4</ele>
        <time>2023-08-05T08:02:41Z</time>
      </trkpt>
      <trkpt lat="51.07832" lon="2.51314">
        <ele>10.4</ele>
        <time>2023-08-05T08:02:42Z</time>
      </trkpt>
      <trkpt lat="51.0783" lon="2.5131">
        <ele>10.4</ele>
        <time>2023-08-05T08:02:43Z</time>
      </trkpt>
      <trkpt lat="51.07826" lon="2.51309">
        <ele>10.2</ele>
        <time>2023-08-05T08:02:44Z</time>
      </trkpt>
      <trkpt lat="51.07823" lon="2.51311">
        <ele>10.2</ele>
        <time>2023-08-05T08:02:45Z</time>
      </trkpt>
      <trkpt lat="51.07821" lon="2.51312">
        <ele>10.2</ele>
        <time>2023-08-05T08:02:46Z</time>
      </trkpt>
      <trkpt lat="51.07817" lon="2.51313">
        <ele>10</ele>
        <time>2023-08-05T08:02:47Z</time>
      </trkpt>
      <trkpt lat="51.07802" lon="2.51319">
        <ele>10</ele>
        <time>2023-08-05T08:02:51Z</time>
      </trkpt>
      <trkpt lat="51.07779" lon="2.51326">
        <ele>9.8</ele>
        <time>2023-08-05T08:02:56Z</time>
      </trkpt>
      <trkpt lat="51.07768" lon="2.5133">
        <ele>9.8</ele>
        <time>2023-08-05T08:02:58Z</time>
      </trkpt>
      <trkpt lat="51.07758" lon="2.51334">
        <ele>9.6</ele>
        <time>2023-08-05T08:03:00Z</time>
      </trkpt>
      <trkpt lat="51.07745" lon="2.51339">
        <ele>9.4</ele>
        <time>2023-08-05T08:03:03Z</time>
      </trkpt>
      <trkpt lat="51.07697" lon="2.51358">
        <ele>9</ele>
        <time>2023-08-05T08:03:13Z</time>
      </trkpt>
      <trkpt lat="51.07659" lon="2.51372">
        <ele>8.6</ele>
        <time>2023-08-05T08:03:21Z</time>
      </trkpt>
      <trkpt lat="51.07653" lon="2.51374">
        <ele>8.6</ele>
        <time>2023-08-05T08:03:22Z</time>
      </trkpt>
      <trkpt lat="51.07649" lon="2.51375">
        <ele>8.4</ele>
        <time>2023-08-05T08:03:23Z</time>
      </trkpt>
      <trkpt lat="51.07644" lon="2.51377">
        <ele>8.4</ele>
        <time>2023-08-05T08:03:24Z</time>
      </trkpt>
      <trkpt lat="51.0764" lon="2.51379">
        <ele>8.4</ele>
        <time>2023-08-05T08:03:25Z</time>
      </trkpt>
      <trkpt lat="51.07635" lon="2.51381">
        <ele>8.4</ele>
        <time>2023-08-05T08:03:26Z</time>
      </trkpt>
      <trkpt lat="51.07598" lon="2.51395">
        <ele>8.2</ele>
        <time>2023-08-05T08:03:34Z</time>
      </trkpt>
      <trkpt lat="51.07593" lon="2.51396">
        <ele>8</ele>
        <time>2023-08-05T08:03:35Z</time>
      </trkpt>
      <trkpt lat="51.07583" lon="2.514">
        <ele>8</ele>
        <time>2023-08-05T08:03:37Z</time>
      </trkpt>
      <trkpt lat="51.07579" lon="2.51402">
        <ele>8</ele>
        <time>2023-08-05T08:03:38Z</time>
      </trkpt>
      <trkpt lat="51.0757" lon="2.51405">
        <ele>8</ele>
        <time>2023-08-05T08:03:40Z</time>
      </trkpt>
      <trkpt lat="51.0756" lon="2.51408">
        <ele>7.8</ele>
        <time>2023-08-05T08:03:42Z</time>
      </trkpt>
      <trkpt lat="51.07556" lon="2.5141">
        <ele>7.8</ele>
        <time>2023-08-05T08:03:43Z</time>
      </trkpt>
      <trkpt lat="51.07553" lon="2.51411">
        <ele>7.8</ele>
        <time>2023-08-05T08:03:44Z</time>
      </trkpt>
      <trkpt lat="51.07548" lon="2.51413">
        <ele>7.8</ele>
        <time>2023-08-05T08:03:45Z</time>
      </trkpt>
      <trkpt lat="51.0752" lon="2.51425">
        <ele>8</ele>
        <time>2023-08-05T08:03:51Z</time>
      </trkpt>
      <trkpt lat="51.07515" lon="2.51427">
        <ele>8</ele>
        <time>2023-08-05T08:03:52Z</time>
      </trkpt>
      <trkpt lat="51.07496" lon="2.51434">
        <ele>8.2</ele>
        <time>2023-08-05T08:03:57Z</time>
      </trkpt>
      <trkpt lat="51.07493" lon="2.51434">
        <ele>8.2</ele>
        <time>2023-08-05T08:03:58Z</time>
      </trkpt>
      <trkpt lat="51.0749" lon="2.51435">
        <ele>8.2</ele>
        <time>2023-08-05T08:03:59Z</time>
      </trkpt>
      <trkpt lat="51.07487" lon="2.51435">
        <ele>8.2</ele>
        <time>2023-08-05T08:04:00Z</time>
      </trkpt>
      <trkpt lat="51.07484" lon="2.51436">
        <ele>8.2</ele>
        <time>2023-08-05T08:04:01Z</time>
      </trkpt>
      <trkpt lat="51.07468" lon="2.51442">
        <ele>8.2</ele>
        <time>2023-08-05T08:04:05Z</time>
      </trkpt>
      <trkpt lat="51.07434" lon="2.51454">
        <ele>8.2</ele>
        <time>2023-08-05T08:04:13Z</time>
      </trkpt>
      <trkpt lat="51.07412" lon="2.51462">
        <ele>8.6</ele>
        <time>2023-08-05T08:04:18Z</time>
      </trkpt>
      <trkpt lat="51.07394" lon="2.51469">
        <ele>8.6</ele>
        <time>2023-08-05T08:04:22Z</time>
      </trkpt>
      <trkpt lat="51.07344" lon="2.51488">
        <ele>9</ele>
        <time>2023-08-05T08:04:33Z</time>
      </trkpt>
      <trkpt lat="51.07317" lon="2.51498">
        <ele>9.4</ele>
        <time>2023-08-05T08:04:39Z</time>
      </trkpt>
      <trkpt lat="51.07307" lon="2.51501">
        <ele>9.4</ele>
        <time>2023-08-05T08:04:41Z</time>
      </trkpt>
      <trkpt lat="51.07303" lon="2.51503">
        <ele>9.4</ele>
        <time>2023-08-05T08:04:42Z</time>
      </trkpt>
      <trkpt lat="51.07284" lon="2.5151">
        <ele>9.8</ele>
        <time>2023-08-05T08:04:46Z</time>
      </trkpt>
      <trkpt lat="51.07257" lon="2.5152">
        <ele>10.2</ele>
        <time>2023-08-05T08:04:52Z</time>
      </trkpt>
      <trkpt lat="51.0721" lon="2.51537">
        <ele>10.6</ele>
        <time>2023-08-05T08:05:02Z</time>
      </trkpt>
      <trkpt lat="51.07157" lon="2.51557">
        <ele>10.2</ele>
        <time>2023-08-05T08:05:13Z</time>
      </trkpt>
      <trkpt lat="51.07152" lon="2.51559">
        <ele>10.2</ele>
        <time>2023-08-05T08:05:14Z</time>
      </trkpt>
      <trkpt lat="51.07109" lon="2.51576">
        <ele>9.6</ele>
        <time>2023-08-05T08:05:23Z</time>
      </trkpt>
      <trkpt lat="51.07095" lon="2.51581">
        <ele>9.4</ele>
        <time>2023-08-05T08:05:26Z</time>
      </trkpt>
      <trkpt lat="51.07061" lon="2.51593">
        <ele>8.8</ele>
        <time>2023-08-05T08:05:33Z</time>
      </trkpt>
      <trkpt lat="51.07056" lon="2.51595">
        <ele>8.8</ele>
        <time>2023-08-05T08:05:34Z</time>
      </trkpt>
      <trkpt lat="51.07052" lon="2.51595">
        <ele>8.8</ele>
        <time>2023-08-05T08:05:35Z</time>
      </trkpt>
      <trkpt lat="51.0705" lon="2.51595">
        <ele>8.6</ele>
        <time>2023-08-05T08:05:36Z</time>
      </trkpt>
      <trkpt lat="51.07047" lon="2.51593">
        <ele>8.6</ele>
        <time>2023-08-05T08:05:37Z</time>
      </trkpt>
      <trkpt lat="51.07046" lon="2.51589">
        <ele>8.4</ele>
        <time>2023-08-05T08:05:38Z</time>
      </trkpt>
      <trkpt lat="51.07045" lon="2.51583">
        <ele>8.4</ele>
        <time>2023-08-05T08:05:39Z</time>
      </trkpt>
      <trkpt lat="51.07045" lon="2.51578">
        <ele>8.2</ele>
        <time>2023-08-05T08:05:40Z</time>
      </trkpt>
      <trkpt lat="51.07038" lon="2.51519">
        <ele>8</ele>
        <time>2023-08-05T08:05:49Z</time>
      </trkpt>
      <trkpt lat="51.07033" lon="2.51476">
        <ele>8</ele>
        <time>2023-08-05T08:05:55Z</time>
      </trkpt>
      <trkpt lat="51.07027" lon="2.51424">
        <ele>8</ele>
        <time>2023-08-05T08:06:02Z</time>
      </trkpt>
      <trkpt lat="51.07026" lon="2.51417">
        <ele>8</ele>
        <time>2023-08-05T08:06:03Z</time>
      </trkpt>
      <trkpt lat="51.07025" lon="2.5141">
        <ele>8</ele>
        <time>2023-08-05T08:06:04Z</time>
      </trkpt>
      <trkpt lat="51.07023" lon="2.51395">
        <ele>8.2</ele>
        <time>2023-08-05T08:06:06Z</time>
      </trkpt>
      <trkpt lat="51.07016" lon="2.51328">
        <ele>8.2</ele>
        <time>2023-08-05T08:06:15Z</time>
      </trkpt>
      <trkpt lat="51.07015" lon="2.51321">
        <ele>8.2</ele>
        <time>2023-08-05T08:06:16Z</time>
      </trkpt>
      <trkpt lat="51.07014" lon="2.51314">
        <ele>8.2</ele>
        <time>2023-08-05T08:06:17Z</time>
      </trkpt>
      <trkpt lat="51.07013" lon="2.51307">
        <ele>8.4</ele>
        <time>2023-08-05T08:06:18Z</time>
      </trkpt>
      <trkpt lat="51.07012" lon="2.51299">
        <ele>8.4</ele>
        <time>2023-08-05T08:06:19Z</time>
      </trkpt>
      <trkpt lat="51.07008" lon="2.51285">
        <ele>8.4</ele>
        <time>2023-08-05T08:06:21Z</time>
      </trkpt>
      <trkpt lat="51.07002" lon="2.51266">
        <ele>8.4</ele>
        <time>2023-08-05T08:06:24Z</time>
      </trkpt>
      <trkpt lat="51.07001" lon="2.51261">
        <ele>8.4</ele>
        <time>2023-08-05T08:06:25Z</time>
      </trkpt>
      <trkpt lat="51.06999" lon="2.51255">
        <ele>8.4</ele>
        <time>2023-08-05T08:06:26Z</time>
      </trkpt>
      <trkpt lat="51.06996" lon="2.5125">
        <ele>8.6</ele>
        <time>2023-08-05T08:06:27Z</time>
      </trkpt>
      <trkpt lat="51.06994" lon="2.51244">
        <ele>8.6</ele>
        <time>2023-08-05T08:06:28Z</time>
      </trkpt>
      <trkpt lat="51.06992" lon="2.51237">
        <ele>8.6</ele>
        <time>2023-08-05T08:06:29Z</time>
      </trkpt>
      <trkpt lat="51.06991" lon="2.51231">
        <ele>8.6</ele>
        <time>2023-08-05T08:06:30Z</time>
      </trkpt>
      <trkpt lat="51.06989" lon="2.51225">
        <ele>8.8</ele>
        <time>2023-08-05T08:06:31Z</time>
      </trkpt>
      <trkpt lat="51.06979" lon="2.51181">
        <ele>9.2</ele>
        <time>2023-08-05T08:06:38Z</time>
      </trkpt>
      <trkpt lat="51.06976" lon="2.51176">
        <ele>9.2</ele>
        <time>2023-08-05T08:06:39Z</time>
      </trkpt>
      <trkpt lat="51.06973" lon="2.51172">
        <ele>9.2</ele>
        <time>2023-08-05T08:06:40Z</time>
      </trkpt>
      <trkpt lat="51.0697" lon="2.51168">
        <ele>9.4</ele>
        <time>2023-08-05T08:06:41Z</time>
      </trkpt>
      <trkpt lat="51.06968" lon="2.51164">
        <ele>9.4</ele>
        <time>2023-08-05T08:06:42Z</time>
      </trkpt>
      <trkpt lat="51.06966" lon="2.51159">
        <ele>9.6</ele>
        <time>2023-08-05T08:06:43Z</time>
      </trkpt>
      <trkpt lat="51.06965" lon="2.51154">
        <ele>9.4</ele>
        <time>2023-08-05T08:06:44Z</time>
      </trkpt>
      <trkpt lat="51.06962" lon="2.51141">
        <ele>9.4</ele>
        <time>2023-08-05T08:06:46Z</time>
      </trkpt>
      <trkpt lat="51.06961" lon="2.51135">
        <ele>9.4</ele>
        <time>2023-08-05T08:06:47Z</time>
      </trkpt>
      <trkpt lat="51.06951" lon="2.51086">
        <ele>9.2</ele>
        <time>2023-08-05T08:06:54Z</time>
      </trkpt>
      <trkpt lat="51.06931" lon="2.51014">
        <ele>9</ele>
        <time>2023-08-05T08:07:04Z</time>
      </trkpt>
      <trkpt lat="51.06909" lon="2.5094">
        <ele>9</ele>
        <time>2023-08-05T08:07:14Z</time>
      </trkpt>
      <trkpt lat="51.06892" lon="2.50885">
        <ele>9.2</ele>
        <time>2023-08-05T08:07:21Z</time>
      </trkpt>
      <trkpt lat="51.06869" lon="2.50812">
        <ele>9</ele>
        <time>2023-08-05T08:07:30Z</time>
      </trkpt>
      <trkpt lat="51.06851" lon="2.50755">
        <ele>8.6</ele>
        <time>2023-08-05T08:07:37Z</time>
      </trkpt>
      <trkpt lat="51.06848" lon="2.50746">
        <ele>8.6</ele>
        <time>2023-08-05T08:07:38Z</time>
      </trkpt>
      <trkpt lat="51.06834" lon="2.50705">
        <ele>8.6</ele>
        <time>2023-08-05T08:07:43Z</time>
      </trkpt>
      <trkpt lat="51.06832" lon="2.50698">
        <ele>8.4</ele>
        <time>2023-08-05T08:07:44Z</time>
      </trkpt>
      <trkpt lat="51.06828" lon="2.50689">
        <ele>8.4</ele>
        <time>2023-08-05T08:07:45Z</time>
      </trkpt>
      <trkpt lat="51.06826" lon="2.50683">
        <ele>8.4</ele>
        <time>2023-08-05T08:07:46Z</time>
      </trkpt>
      <trkpt lat="51.06823" lon="2.50675">
        <ele>8.2</ele>
        <time>2023-08-05T08:07:47Z</time>
      </trkpt>
      <trkpt lat="51.06821" lon="2.50667">
        <ele>8.2</ele>
        <time>2023-08-05T08:07:48Z</time>
      </trkpt>
      <trkpt lat="51.06803" lon="2.50602">
        <ele>8</ele>
        <time>2023-08-05T08:07:56Z</time>
      </trkpt>
      <trkpt lat="51.06782" lon="2.50521">
        <ele>7.6</ele>
        <time>2023-08-05T08:08:06Z</time>
      </trkpt>
      <trkpt lat="51.0678" lon="2.50513">
        <ele>7.4</ele>
        <time>2023-08-05T08:08:07Z</time>
      </trkpt>
      <trkpt lat="51.06768" lon="2.50463">
        <ele>7.2</ele>
        <time>2023-08-05T08:08:13Z</time>
      </trkpt>
      <trkpt lat="51.06751" lon="2.50377">
        <ele>7.2</ele>
        <time>2023-08-05T08:08:23Z</time>
      </trkpt>
      <trkpt lat="51.06745" lon="2.50341">
        <ele>7.2</ele>
        <time>2023-08-05T08:08:27Z</time>
      </trkpt>
      <trkpt lat="51.0674" lon="2.50315">
        <ele>7.2</ele>
        <time>2023-08-05T08:08:30Z</time>
      </trkpt>
      <trkpt lat="51.0673" lon="2.50253">
        <ele>7.4</ele>
        <time>2023-08-05T08:08:37Z</time>
      </trkpt>
      <trkpt lat="51.06726" lon="2.50226">
        <ele>7.4</ele>
        <time>2023-08-05T08:08:40Z</time>
      </trkpt>
      <trkpt lat="51.06714" lon="2.50137">
        <ele>7</ele>
        <time>2023-08-05T08:08:50Z</time>
      </trkpt>
      <trkpt lat="51.06712" lon="2.50129">
        <ele>7</ele>
        <time>2023-08-05T08:08:51Z</time>
      </trkpt>
      <trkpt lat="51.06711" lon="2.5012">
        <ele>7</ele>
        <time>2023-08-05T08:08:52Z</time>
      </trkpt>
      <trkpt lat="51.0671" lon="2.50112">
        <ele>7</ele>
        <time>2023-08-05T08:08:53Z</time>
      </trkpt>
      <trkpt lat="51.06709" lon="2.50104">
        <ele>7</ele>
        <time>2023-08-05T08:08:54Z</time>
      </trkpt>
      <trkpt lat="51.06706" lon="2.50087">
        <ele>7</ele>
        <time>2023-08-05T08:08:56Z</time>
      </trkpt>
      <trkpt lat="51.06705" lon="2.50078">
        <ele>6.8</ele>
        <time>2023-08-05T08:08:57Z</time>
      </trkpt>
      <trkpt lat="51.06704" lon="2.5007">
        <ele>6.8</ele>
        <time>2023-08-05T08:08:58Z</time>
      </trkpt>
      <trkpt lat="51.06703" lon="2.50061">
        <ele>6.8</ele>
        <time>2023-08-05T08:08:59Z</time>
      </trkpt>
      <trkpt lat="51.06702" lon="2.50053">
        <ele>6.6</ele>
        <time>2023-08-05T08:09:00Z</time>
      </trkpt>
      <trkpt lat="51.067" lon="2.50044">
        <ele>6.6</ele>
        <time>2023-08-05T08:09:01Z</time>
      </trkpt>
      <trkpt lat="51.06699" lon="2.50036">
        <ele>6.6</ele>
        <time>2023-08-05T08:09:02Z</time>
      </trkpt>
      <trkpt lat="51.06696" lon="2.50019">
        <ele>6.4</ele>
        <time>2023-08-05T08:09:04Z</time>
      </trkpt>
      <trkpt lat="51.06692" lon="2.49994">
        <ele>6.4</ele>
        <time>2023-08-05T08:09:07Z</time>
      </trkpt>
      <trkpt lat="51.06691" lon="2.49986">
        <ele>6.2</ele>
        <time>2023-08-05T08:09:08Z</time>
      </trkpt>
      <trkpt lat="51.06684" lon="2.49951">
        <ele>6</ele>
        <time>2023-08-05T08:09:12Z</time>
      </trkpt>
      <trkpt lat="51.06683" lon="2.49943">
        <ele>6</ele>
        <time>2023-08-05T08:09:13Z</time>
      </trkpt>
      <trkpt lat="51.0668" lon="2.49926">
        <ele>6</ele>
        <time>2023-08-05T08:09:15Z</time>
      </trkpt>
      <trkpt lat="51.06675" lon="2.49894">
        <ele>5.8</ele>
        <time>2023-08-05T08:09:19Z</time>
      </trkpt>
      <trkpt lat="51.06669" lon="2.49852">
        <ele>5.6</ele>
        <time>2023-08-05T08:09:24Z</time>
      </trkpt>
      <trkpt lat="51.06666" lon="2.49828">
        <ele>5.4</ele>
        <time>2023-08-05T08:09:27Z</time>
      </trkpt>
      <trkpt lat="51.06665" lon="2.4982">
        <ele>5.4</ele>
        <time>2023-08-05T08:09:28Z</time>
      </trkpt>
      <trkpt lat="51.06662" lon="2.49796">
        <ele>5.2</ele>
        <time>2023-08-05T08:09:31Z</time>
      </trkpt>
      <trkpt lat="51.0666" lon="2.49788">
        <ele>5.2</ele>
        <time>2023-08-05T08:09:32Z</time>
      </trkpt>
      <trkpt lat="51.06659" lon="2.4978">
        <ele>5</ele>
        <time>2023-08-05T08:09:33Z</time>
      </trkpt>
      <trkpt lat="51.06658" lon="2.49773">
        <ele>5.2</ele>
        <time>2023-08-05T08:09:34Z</time>
      </trkpt>
      <trkpt lat="51.06657" lon="2.49765">
        <ele>5.2</ele>
        <time>2023-08-05T08:09:35Z</time>
      </trkpt>
      <trkpt lat="51.06656" lon="2.49757">
        <ele>5.2</ele>
        <time>2023-08-05T08:09:36Z</time>
      </trkpt>
      <trkpt lat="51.06646" lon="2.49672">
        <ele>5.2</ele>
        <time>2023-08-05T08:09:47Z</time>
      </trkpt>
      <trkpt lat="51.06644" lon="2.49664">
        <ele>5.2</ele>
        <time>2023-08-05T08:09:48Z</time>
      </trkpt>
      <trkpt lat="51.0664" lon="2.49633">
        <ele>5.2</ele>
        <time>2023-08-05T08:09:52Z</time>
      </trkpt>
      <trkpt lat="51.06636" lon="2.49603">
        <ele>5.4</ele>
        <time>2023-08-05T08:09:56Z</time>
      </trkpt>
      <trkpt lat="51.06634" lon="2.49587">
        <ele>5.4</ele>
        <time>2023-08-05T08:09:58Z</time>
      </trkpt>
      <trkpt lat="51.06633" lon="2.4958">
        <ele>5.6</ele>
        <time>2023-08-05T08:09:59Z</time>
      </trkpt>
      <trkpt lat="51.06631" lon="2.49572">
        <ele>5.6</ele>
        <time>2023-08-05T08:10:00Z</time>
      </trkpt>
      <trkpt lat="51.06631" lon="2.49564">
        <ele>5.6</ele>
        <time>2023-08-05T08:10:01Z</time>
      </trkpt>
      <trkpt lat="51.06623" lon="2.49502">
        <ele>6</ele>
        <time>2023-08-05T08:10:09Z</time>
      </trkpt>
      <trkpt lat="51.06616" lon="2.49465">
        <ele>6</ele>
        <time>2023-08-05T08:10:14Z</time>
      </trkpt>
      <trkpt lat="51.06613" lon="2.49443">
        <ele>6.2</ele>
        <time>2023-08-05T08:10:17Z</time>
      </trkpt>
      <trkpt lat="51.06612" lon="2.49435">
        <ele>6.2</ele>
        <time>2023-08-05T08:10:18Z</time>
      </trkpt>
      <trkpt lat="51.06612" lon="2.49428">
        <ele>6.2</ele>
        <time>2023-08-05T08:10:19Z</time>
      </trkpt>
      <trkpt lat="51.06611" lon="2.4942">
        <ele>6.2</ele>
        <time>2023-08-05T08:10:20Z</time>
      </trkpt>
      <trkpt lat="51.0661" lon="2.49413">
        <ele>6</ele>
        <time>2023-08-05T08:10:21Z</time>
      </trkpt>
      <trkpt lat="51.06603" lon="2.49376">
        <ele>6.2</ele>
        <time>2023-08-05T08:10:26Z</time>
      </trkpt>
      <trkpt lat="51.06587" lon="2.49303">
        <ele>6.4</ele>
        <time>2023-08-05T08:10:36Z</time>
      </trkpt>
      <trkpt lat="51.06577" lon="2.49265">
        <ele>6.6</ele>
        <time>2023-08-05T08:10:41Z</time>
      </trkpt>
      <trkpt lat="51.06561" lon="2.4921">
        <ele>7</ele>
        <time>2023-08-05T08:10:49Z</time>
      </trkpt>
      <trkpt lat="51.0655" lon="2.49168">
        <ele>7</ele>
        <time>2023-08-05T08:10:55Z</time>
      </trkpt>
      <trkpt lat="51.06548" lon="2.49161">
        <ele>7.2</ele>
        <time>2023-08-05T08:10:56Z</time>
      </trkpt>
      <trkpt lat="51.06546" lon="2.49154">
        <ele>7.2</ele>
        <time>2023-08-05T08:10:57Z</time>
      </trkpt>
      <trkpt lat="51.06528" lon="2.4909">
        <ele>7.2</ele>
        <time>2023-08-05T08:11:06Z</time>
      </trkpt>
      <trkpt lat="51.06512" lon="2.49032">
        <ele>7.4</ele>
        <time>2023-08-05T08:11:14Z</time>
      </trkpt>
      <trkpt lat="51.06496" lon="2.48973">
        <ele>8</ele>
        <time>2023-08-05T08:11:22Z</time>
      </trkpt>
      <trkpt lat="51.06488" lon="2.48945">
        <ele>8.2</ele>
        <time>2023-08-05T08:11:26Z</time>
      </trkpt>
      <trkpt lat="51.06486" lon="2.48938">
        <ele>8.2</ele>
        <time>2023-08-05T08:11:27Z</time>
      </trkpt>
      <trkpt lat="51.06485" lon="2.48933">
        <ele>8.2</ele>
        <time>2023-08-05T08:11:28Z</time>
      </trkpt>
      <trkpt lat="51.06484" lon="2.48926">
        <ele>8.2</ele>
        <time>2023-08-05T08:11:29Z</time>
      </trkpt>
      <trkpt lat="51.06483" lon="2.48921">
        <ele>8.2</ele>
        <time>2023-08-05T08:11:30Z</time>
      </trkpt>
      <trkpt lat="51.06482" lon="2.48915">
        <ele>8.4</ele>
        <time>2023-08-05T08:11:31Z</time>
      </trkpt>
      <trkpt lat="51.06481" lon="2.4891">
        <ele>8.4</ele>
        <time>2023-08-05T08:11:32Z</time>
      </trkpt>
      <trkpt lat="51.0648" lon="2.48906">
        <ele>8.4</ele>
        <time>2023-08-05T08:11:33Z</time>
      </trkpt>
      <trkpt lat="51.06477" lon="2.48894">
        <ele>8.6</ele>
        <time>2023-08-05T08:11:35Z</time>
      </trkpt>
      <trkpt lat="51.06478" lon="2.48888">
        <ele>8.6</ele>
        <time>2023-08-05T08:11:36Z</time>
      </trkpt>
      <trkpt lat="51.0648" lon="2.48877">
        <ele>8.6</ele>
        <time>2023-08-05T08:11:38Z</time>
      </trkpt>
      <trkpt lat="51.06479" lon="2.48871">
        <ele>8.6</ele>
        <time>2023-08-05T08:11:39Z</time>
      </trkpt>
      <trkpt lat="51.06478" lon="2.48866">
        <ele>8.6</ele>
        <time>2023-08-05T08:11:40Z</time>
      </trkpt>
      <trkpt lat="51.06475" lon="2.48856">
        <ele>8.8</ele>
        <time>2023-08-05T08:11:42Z</time>
      </trkpt>
      <trkpt lat="51.06474" lon="2.48849">
        <ele>8.8</ele>
        <time>2023-08-05T08:11:43Z</time>
      </trkpt>
      <trkpt lat="51.06472" lon="2.48844">
        <ele>8.8</ele>
        <time>2023-08-05T08:11:44Z</time>
      </trkpt>
      <trkpt lat="51.06471" lon="2.48839">
        <ele>9</ele>
        <time>2023-08-05T08:11:45Z</time>
      </trkpt>
      <trkpt lat="51.0647" lon="2.48833">
        <ele>9</ele>
        <time>2023-08-05T08:11:46Z</time>
      </trkpt>
      <trkpt lat="51.06469" lon="2.48829">
        <ele>9</ele>
        <time>2023-08-05T08:11:47Z</time>
      </trkpt>
      <trkpt lat="51.06468" lon="2.48822">
        <ele>9.2</ele>
        <time>2023-08-05T08:11:48Z</time>
      </trkpt>
      <trkpt lat="51.06466" lon="2.48817">
        <ele>9.2</ele>
        <time>2023-08-05T08:11:49Z</time>
      </trkpt>
      <trkpt lat="51.06465" lon="2.48811">
        <ele>9.2</ele>
        <time>2023-08-05T08:11:50Z</time>
      </trkpt>
      <trkpt lat="51.06456" lon="2.48774">
        <ele>10.4</ele>
        <time>2023-08-05T08:11:56Z</time>
      </trkpt>
      <trkpt lat="51.06441" lon="2.48725">
        <ele>11.4</ele>
        <time>2023-08-05T08:12:04Z</time>
      </trkpt>
      <trkpt lat="51.06439" lon="2.48714">
        <ele>11.8</ele>
        <time>2023-08-05T08:12:06Z</time>
      </trkpt>
      <trkpt lat="51.06437" lon="2.48708">
        <ele>12</ele>
        <time>2023-08-05T08:12:07Z</time>
      </trkpt>
      <trkpt lat="51.06436" lon="2.48702">
        <ele>12</ele>
        <time>2023-08-05T08:12:08Z</time>
      </trkpt>
      <trkpt lat="51.06434" lon="2.48696">
        <ele>12</ele>
        <time>2023-08-05T08:12:09Z</time>
      </trkpt>
      <trkpt lat="51.06433" lon="2.48692">
        <ele>12.2</ele>
        <time>2023-08-05T08:12:10Z</time>
      </trkpt>
      <trkpt lat="51.06432" lon="2.48686">
        <ele>12.2</ele>
        <time>2023-08-05T08:12:11Z</time>
      </trkpt>
      <trkpt lat="51.06429" lon="2.48679">
        <ele>12.2</ele>
        <time>2023-08-05T08:12:12Z</time>
      </trkpt>
      <trkpt lat="51.06427" lon="2.48673">
        <ele>12.2</ele>
        <time>2023-08-05T08:12:13Z</time>
      </trkpt>
      <trkpt lat="51.06424" lon="2.48666">
        <ele>12.4</ele>
        <time>2023-08-05T08:12:14Z</time>
      </trkpt>
      <trkpt lat="51.06423" lon="2.48661">
        <ele>12.4</ele>
        <time>2023-08-05T08:12:15Z</time>
      </trkpt>
      <trkpt lat="51.06421" lon="2.48655">
        <ele>12.6</ele>
        <time>2023-08-05T08:12:16Z</time>
      </trkpt>
      <trkpt lat="51.0642" lon="2.48648">
        <ele>12.6</ele>
        <time>2023-08-05T08:12:17Z</time>
      </trkpt>
      <trkpt lat="51.06418" lon="2.48642">
        <ele>12.6</ele>
        <time>2023-08-05T08:12:18Z</time>
      </trkpt>
      <trkpt lat="51.06416" lon="2.48635">
        <ele>12.6</ele>
        <time>2023-08-05T08:12:19Z</time>
      </trkpt>
      <trkpt lat="51.06414" lon="2.4863">
        <ele>12.8</ele>
        <time>2023-08-05T08:12:20Z</time>
      </trkpt>
      <trkpt lat="51.06413" lon="2.48623">
        <ele>12.8</ele>
        <time>2023-08-05T08:12:21Z</time>
      </trkpt>
      <trkpt lat="51.0641" lon="2.48614">
        <ele>12.8</ele>
        <time>2023-08-05T08:12:22Z</time>
      </trkpt>
      <trkpt lat="51.06408" lon="2.48606">
        <ele>12.6</ele>
        <time>2023-08-05T08:12:23Z</time>
      </trkpt>
      <trkpt lat="51.06402" lon="2.48584">
        <ele>12.6</ele>
        <time>2023-08-05T08:12:26Z</time>
      </trkpt>
      <trkpt lat="51.06384" lon="2.48526">
        <ele>11.8</ele>
        <time>2023-08-05T08:12:32Z</time>
      </trkpt>
      <trkpt lat="51.06381" lon="2.48516">
        <ele>11.8</ele>
        <time>2023-08-05T08:12:33Z</time>
      </trkpt>
      <trkpt lat="51.06375" lon="2.48495">
        <ele>11.4</ele>
        <time>2023-08-05T08:12:35Z</time>
      </trkpt>
      <trkpt lat="51.06372" lon="2.48485">
        <ele>11.4</ele>
        <time>2023-08-05T08:12:36Z</time>
      </trkpt>
      <trkpt lat="51.06362" lon="2.48451">
        <ele>10.8</ele>
        <time>2023-08-05T08:12:39Z</time>
      </trkpt>
      <trkpt lat="51.0636" lon="2.48443">
        <ele>10.4</ele>
        <time>2023-08-05T08:12:40Z</time>
      </trkpt>
      <trkpt lat="51.06344" lon="2.48389">
        <ele>9.8</ele>
        <time>2023-08-05T08:12:45Z</time>
      </trkpt>
      <trkpt lat="51.06332" lon="2.48346">
        <ele>9.4</ele>
        <time>2023-08-05T08:12:49Z</time>
      </trkpt>
      <trkpt lat="51.06327" lon="2.48326">
        <ele>9.2</ele>
        <time>2023-08-05T08:12:51Z</time>
      </trkpt>
      <trkpt lat="51.06325" lon="2.48319">
        <ele>9.2</ele>
        <time>2023-08-05T08:12:52Z</time>
      </trkpt>
      <trkpt lat="51.06323" lon="2.48309">
        <ele>9</ele>
        <time>2023-08-05T08:12:53Z</time>
      </trkpt>
      <trkpt lat="51.0632" lon="2.483">
        <ele>9</ele>
        <time>2023-08-05T08:12:54Z</time>
      </trkpt>
      <trkpt lat="51.06318" lon="2.48291">
        <ele>9</ele>
        <time>2023-08-05T08:12:55Z</time>
      </trkpt>
      <trkpt lat="51.06316" lon="2.48281">
        <ele>9</ele>
        <time>2023-08-05T08:12:56Z</time>
      </trkpt>
      <trkpt lat="51.06314" lon="2.48272">
        <ele>9</ele>
        <time>2023-08-05T08:12:57Z</time>
      </trkpt>
      <trkpt lat="51.06313" lon="2.48265">
        <ele>9</ele>
        <time>2023-08-05T08:12:58Z</time>
      </trkpt>
      <trkpt lat="51.0631" lon="2.48257">
        <ele>9</ele>
        <time>2023-08-05T08:12:59Z</time>
      </trkpt>
      <trkpt lat="51.06309" lon="2.4825">
        <ele>9</ele>
        <time>2023-08-05T08:13:00Z</time>
      </trkpt>
      <trkpt lat="51.06307" lon="2.48242">
        <ele>9</ele>
        <time>2023-08-05T08:13:01Z</time>
      </trkpt>
      <trkpt lat="51.06305" lon="2.48237">
        <ele>9</ele>
        <time>2023-08-05T08:13:02Z</time>
      </trkpt>
      <trkpt lat="51.06301" lon="2.48233">
        <ele>9</ele>
        <time>2023-08-05T08:13:03Z</time>
      </trkpt>
      <trkpt lat="51.06292" lon="2.4823">
        <ele>8.8</ele>
        <time>2023-08-05T08:13:05Z</time>
      </trkpt>
      <trkpt lat="51.06285" lon="2.48229">
        <ele>8.6</ele>
        <time>2023-08-05T08:13:07Z</time>
      </trkpt>
      <trkpt lat="51.06281" lon="2.48227">
        <ele>8.8</ele>
        <time>2023-08-05T08:13:08Z</time>
      </trkpt>
      <trkpt lat="51.06278" lon="2.48224">
        <ele>8.6</ele>
        <time>2023-08-05T08:13:09Z</time>
      </trkpt>
      <trkpt lat="51.06275" lon="2.48219">
        <ele>8.6</ele>
        <time>2023-08-05T08:13:10Z</time>
      </trkpt>
      <trkpt lat="51.06272" lon="2.48214">
        <ele>8.6</ele>
        <time>2023-08-05T08:13:11Z</time>
      </trkpt>
      <trkpt lat="51.06269" lon="2.4821">
        <ele>8.4</ele>
        <time>2023-08-05T08:13:12Z</time>
      </trkpt>
      <trkpt lat="51.06267" lon="2.48206">
        <ele>8.4</ele>
        <time>2023-08-05T08:13:13Z</time>
      </trkpt>
      <trkpt lat="51.06264" lon="2.48203">
        <ele>8.4</ele>
        <time>2023-08-05T08:13:14Z</time>
      </trkpt>
      <trkpt lat="51.06262" lon="2.48199">
        <ele>8.4</ele>
        <time>2023-08-05T08:13:15Z</time>
      </trkpt>
      <trkpt lat="51.0626" lon="2.48194">
        <ele>8.4</ele>
        <time>2023-08-05T08:13:16Z</time>
      </trkpt>
      <trkpt lat="51.06258" lon="2.48189">
        <ele>8.4</ele>
        <time>2023-08-05T08:13:17Z</time>
      </trkpt>
      <trkpt lat="51.06255" lon="2.48179">
        <ele>8.4</ele>
        <time>2023-08-05T08:13:19Z</time>
      </trkpt>
      <trkpt lat="51.06253" lon="2.48174">
        <ele>8.4</ele>
        <time>2023-08-05T08:13:20Z</time>
      </trkpt>
      <trkpt lat="51.06252" lon="2.48168">
        <ele>8.4</ele>
        <time>2023-08-05T08:13:21Z</time>
      </trkpt>
      <trkpt lat="51.06251" lon="2.48162">
        <ele>8.4</ele>
        <time>2023-08-05T08:13:22Z</time>
      </trkpt>
      <trkpt lat="51.06241" lon="2.48134">
        <ele>8.4</ele>
        <time>2023-08-05T08:13:26Z</time>
      </trkpt>
      <trkpt lat="51.06232" lon="2.48087">
        <ele>8.6</ele>
        <time>2023-08-05T08:13:31Z</time>
      </trkpt>
      <trkpt lat="51.06229" lon="2.48079">
        <ele>8.6</ele>
        <time>2023-08-05T08:13:32Z</time>
      </trkpt>
      <trkpt lat="51.06208" lon="2.48016">
        <ele>8.6</ele>
        <time>2023-08-05T08:13:40Z</time>
      </trkpt>
      <trkpt lat="51.06186" lon="2.47975">
        <ele>8.4</ele>
        <time>2023-08-05T08:13:46Z</time>
      </trkpt>
      <trkpt lat="51.06185" lon="2.47969">
        <ele>8.4</ele>
        <time>2023-08-05T08:13:47Z</time>
      </trkpt>
      <trkpt lat="51.06178" lon="2.47944">
        <ele>8.2</ele>
        <time>2023-08-05T08:13:50Z</time>
      </trkpt>
      <trkpt lat="51.06176" lon="2.47939">
        <ele>8</ele>
        <time>2023-08-05T08:13:51Z</time>
      </trkpt>
      <trkpt lat="51.06173" lon="2.47932">
        <ele>8</ele>
        <time>2023-08-05T08:13:52Z</time>
      </trkpt>
      <trkpt lat="51.06171" lon="2.47925">
        <ele>8</ele>
        <time>2023-08-05T08:13:53Z</time>
      </trkpt>
      <trkpt lat="51.06167" lon="2.47918">
        <ele>8</ele>
        <time>2023-08-05T08:13:54Z</time>
      </trkpt>
      <trkpt lat="51.06157" lon="2.47872">
        <ele>8</ele>
        <time>2023-08-05T08:14:00Z</time>
      </trkpt>
      <trkpt lat="51.06148" lon="2.47834">
        <ele>8</ele>
        <time>2023-08-05T08:14:05Z</time>
      </trkpt>
      <trkpt lat="51.06147" lon="2.47827">
        <ele>8</ele>
        <time>2023-08-05T08:14:06Z</time>
      </trkpt>
      <trkpt lat="51.06146" lon="2.47818">
        <ele>8</ele>
        <time>2023-08-05T08:14:07Z</time>
      </trkpt>
      <trkpt lat="51.06146" lon="2.47804">
        <ele>8</ele>
        <time>2023-08-05T08:14:09Z</time>
      </trkpt>
      <trkpt lat="51.06147" lon="2.47798">
        <ele>8</ele>
        <time>2023-08-05T08:14:10Z</time>
      </trkpt>
      <trkpt lat="51.0615" lon="2.47792">
        <ele>8</ele>
        <time>2023-08-05T08:14:11Z</time>
      </trkpt>
      <trkpt lat="51.06153" lon="2.47787">
        <ele>8</ele>
        <time>2023-08-05T08:14:12Z</time>
      </trkpt>
      <trkpt lat="51.06161" lon="2.47776">
        <ele>8</ele>
        <time>2023-08-05T08:14:14Z</time>
      </trkpt>
      <trkpt lat="51.06163" lon="2.4777">
        <ele>8</ele>
        <time>2023-08-05T08:14:15Z</time>
      </trkpt>
      <trkpt lat="51.06163" lon="2.47762">
        <ele>8.2</ele>
        <time>2023-08-05T08:14:16Z</time>
      </trkpt>
      <trkpt lat="51.06161" lon="2.47756">
        <ele>8.2</ele>
        <time>2023-08-05T08:14:17Z</time>
      </trkpt>
      <trkpt lat="51.0616" lon="2.4775">
        <ele>8.2</ele>
        <time>2023-08-05T08:14:18Z</time>
      </trkpt>
      <trkpt lat="51.06159" lon="2.47744">
        <ele>8.2</ele>
        <time>2023-08-05T08:14:19Z</time>
      </trkpt>
      <trkpt lat="51.06157" lon="2.47737">
        <ele>8.4</ele>
        <time>2023-08-05T08:14:20Z</time>
      </trkpt>
      <trkpt lat="51.06153" lon="2.47723">
        <ele>8.6</ele>
        <time>2023-08-05T08:14:22Z</time>
      </trkpt>
      <trkpt lat="51.0615" lon="2.47716">
        <ele>8.6</ele>
        <time>2023-08-05T08:14:23Z</time>
      </trkpt>
      <trkpt lat="51.06145" lon="2.47701">
        <ele>8.8</ele>
        <time>2023-08-05T08:14:25Z</time>
      </trkpt>
      <trkpt lat="51.06137" lon="2.47678">
        <ele>8.8</ele>
        <time>2023-08-05T08:14:28Z</time>
      </trkpt>
      <trkpt lat="51.06135" lon="2.47671">
        <ele>9</ele>
        <time>2023-08-05T08:14:29Z</time>
      </trkpt>
      <trkpt lat="51.06126" lon="2.47639">
        <ele>9</ele>
        <time>2023-08-05T08:14:33Z</time>
      </trkpt>
      <trkpt lat="51.0612" lon="2.47618">
        <ele>9</ele>
        <time>2023-08-05T08:14:35Z</time>
      </trkpt>
      <trkpt lat="51.06115" lon="2.47603">
        <ele>9.2</ele>
        <time>2023-08-05T08:14:38Z</time>
      </trkpt>
      <trkpt lat="51.06107" lon="2.47568">
        <ele>9</ele>
        <time>2023-08-05T08:14:42Z</time>
      </trkpt>
      <trkpt lat="51.0609" lon="2.47502">
        <ele>9</ele>
        <time>2023-08-05T08:14:50Z</time>
      </trkpt>
      <trkpt lat="51.06072" lon="2.47442">
        <ele>9</ele>
        <time>2023-08-05T08:14:58Z</time>
      </trkpt>
      <trkpt lat="51.0607" lon="2.47434">
        <ele>9</ele>
        <time>2023-08-05T08:14:59Z</time>
      </trkpt>
      <trkpt lat="51.0605" lon="2.47357">
        <ele>8.6</ele>
        <time>2023-08-05T08:15:09Z</time>
      </trkpt>
      <trkpt lat="51.06025" lon="2.47272">
        <ele>8.2</ele>
        <time>2023-08-05T08:15:20Z</time>
      </trkpt>
      <trkpt lat="51.06023" lon="2.47264">
        <ele>8.2</ele>
        <time>2023-08-05T08:15:21Z</time>
      </trkpt>
      <trkpt lat="51.05995" lon="2.47178">
        <ele>8.2</ele>
        <time>2023-08-05T08:15:31Z</time>
      </trkpt>
      <trkpt lat="51.05987" lon="2.47155">
        <ele>8.2</ele>
        <time>2023-08-05T08:15:35Z</time>
      </trkpt>
      <trkpt lat="51.05982" lon="2.47141">
        <ele>8.4</ele>
        <time>2023-08-05T08:15:36Z</time>
      </trkpt>
      <trkpt lat="51.05977" lon="2.47126">
        <ele>8.6</ele>
        <time>2023-08-05T08:15:39Z</time>
      </trkpt>
      <trkpt lat="51.05972" lon="2.47111">
        <ele>8.6</ele>
        <time>2023-08-05T08:15:40Z</time>
      </trkpt>
      <trkpt lat="51.05972" lon="2.47111">
        <ele>8.6</ele>
        <time>2023-08-05T08:15:41Z</time>
      </trkpt>
      <trkpt lat="51.05969" lon="2.47103">
        <ele>8.6</ele>
        <time>2023-08-05T08:15:42Z</time>
      </trkpt>
      <trkpt lat="51.05963" lon="2.47088">
        <ele>8.6</ele>
        <time>2023-08-05T08:15:43Z</time>
      </trkpt>
      <trkpt lat="51.0596" lon="2.4708">
        <ele>8.8</ele>
        <time>2023-08-05T08:15:44Z</time>
      </trkpt>
      <trkpt lat="51.0596" lon="2.4708">
        <ele>8.8</ele>
        <time>2023-08-05T08:15:45Z</time>
      </trkpt>
      <trkpt lat="51.05946" lon="2.47045">
        <ele>9</ele>
        <time>2023-08-05T08:15:49Z</time>
      </trkpt>
      <trkpt lat="51.05944" lon="2.47037">
        <ele>9</ele>
        <time>2023-08-05T08:15:50Z</time>
      </trkpt>
      <trkpt lat="51.05941" lon="2.4703">
        <ele>9</ele>
        <time>2023-08-05T08:15:51Z</time>
      </trkpt>
      <trkpt lat="51.05935" lon="2.47016">
        <ele>9.2</ele>
        <time>2023-08-05T08:15:53Z</time>
      </trkpt>
      <trkpt lat="51.05932" lon="2.47009">
        <ele>9.2</ele>
        <time>2023-08-05T08:15:54Z</time>
      </trkpt>
      <trkpt lat="51.05919" lon="2.46973">
        <ele>9.4</ele>
        <time>2023-08-05T08:15:59Z</time>
      </trkpt>
      <trkpt lat="51.05911" lon="2.46963">
        <ele>9.4</ele>
        <time>2023-08-05T08:16:01Z</time>
      </trkpt>
      <trkpt lat="51.05906" lon="2.46959">
        <ele>9.4</ele>
        <time>2023-08-05T08:16:03Z</time>
      </trkpt>
      <trkpt lat="51.05897" lon="2.46951">
        <ele>9.4</ele>
        <time>2023-08-05T08:16:04Z</time>
      </trkpt>
      <trkpt lat="51.0589" lon="2.46939">
        <ele>9.4</ele>
        <time>2023-08-05T08:16:06Z</time>
      </trkpt>
      <trkpt lat="51.05885" lon="2.46924">
        <ele>9.2</ele>
        <time>2023-08-05T08:16:08Z</time>
      </trkpt>
      <trkpt lat="51.05883" lon="2.46917">
        <ele>9.2</ele>
        <time>2023-08-05T08:16:09Z</time>
      </trkpt>
      <trkpt lat="51.05879" lon="2.46902">
        <ele>9.2</ele>
        <time>2023-08-05T08:16:11Z</time>
      </trkpt>
      <trkpt lat="51.05879" lon="2.46902">
        <ele>9.2</ele>
        <time>2023-08-05T08:16:12Z</time>
      </trkpt>
      <trkpt lat="51.05876" lon="2.46886">
        <ele>9.2</ele>
        <time>2023-08-05T08:16:13Z</time>
      </trkpt>
      <trkpt lat="51.05876" lon="2.46886">
        <ele>9</ele>
        <time>2023-08-05T08:16:14Z</time>
      </trkpt>
      <trkpt lat="51.05873" lon="2.4687">
        <ele>9</ele>
        <time>2023-08-05T08:16:15Z</time>
      </trkpt>
      <trkpt lat="51.05873" lon="2.46862">
        <ele>9</ele>
        <time>2023-08-05T08:16:16Z</time>
      </trkpt>
      <trkpt lat="51.05873" lon="2.46855">
        <ele>9</ele>
        <time>2023-08-05T08:16:17Z</time>
      </trkpt>
      <trkpt lat="51.05872" lon="2.46847">
        <ele>9</ele>
        <time>2023-08-05T08:16:18Z</time>
      </trkpt>
      <trkpt lat="51.0587" lon="2.4684">
        <ele>9</ele>
        <time>2023-08-05T08:16:19Z</time>
      </trkpt>
      <trkpt lat="51.05865" lon="2.46826">
        <ele>9.2</ele>
        <time>2023-08-05T08:16:21Z</time>
      </trkpt>
      <trkpt lat="51.05862" lon="2.4682">
        <ele>9.2</ele>
        <time>2023-08-05T08:16:22Z</time>
      </trkpt>
      <trkpt lat="51.05859" lon="2.46813">
        <ele>9.2</ele>
        <time>2023-08-05T08:16:23Z</time>
      </trkpt>
      <trkpt lat="51.05857" lon="2.46805">
        <ele>9.2</ele>
        <time>2023-08-05T08:16:24Z</time>
      </trkpt>
      <trkpt lat="51.05854" lon="2.46799">
        <ele>9.2</ele>
        <time>2023-08-05T08:16:25Z</time>
      </trkpt>
      <trkpt lat="51.05852" lon="2.46792">
        <ele>9.4</ele>
        <time>2023-08-05T08:16:26Z</time>
      </trkpt>
      <trkpt lat="51.05849" lon="2.46785">
        <ele>9.4</ele>
        <time>2023-08-05T08:16:27Z</time>
      </trkpt>
      <trkpt lat="51.05846" lon="2.46778">
        <ele>9.4</ele>
        <time>2023-08-05T08:16:28Z</time>
      </trkpt>
      <trkpt lat="51.05841" lon="2.46763">
        <ele>9.6</ele>
        <time>2023-08-05T08:16:30Z</time>
      </trkpt>
      <trkpt lat="51.05837" lon="2.46748">
        <ele>9.8</ele>
        <time>2023-08-05T08:16:32Z</time>
      </trkpt>
      <trkpt lat="51.05831" lon="2.46732">
        <ele>9.8</ele>
        <time>2023-08-05T08:16:34Z</time>
      </trkpt>
      <trkpt lat="51.05825" lon="2.46717">
        <ele>10</ele>
        <time>2023-08-05T08:16:36Z</time>
      </trkpt>
      <trkpt lat="51.05796" lon="2.46637">
        <ele>10</ele>
        <time>2023-08-05T08:16:47Z</time>
      </trkpt>
      <trkpt lat="51.05793" lon="2.46629">
        <ele>10</ele>
        <time>2023-08-05T08:16:48Z</time>
      </trkpt>
      <trkpt lat="51.05767" lon="2.46556">
        <ele>9.8</ele>
        <time>2023-08-05T08:16:58Z</time>
      </trkpt>
      <trkpt lat="51.05754" lon="2.4652">
        <ele>7.8</ele>
        <time>2023-08-05T08:17:04Z</time>
      </trkpt>
      <trkpt lat="51.0575" lon="2.46507">
        <ele>9.8</ele>
        <time>2023-08-05T08:17:05Z</time>
      </trkpt>
      <trkpt lat="51.05748" lon="2.465">
        <ele>9.8</ele>
        <time>2023-08-05T08:17:06Z</time>
      </trkpt>
      <trkpt lat="51.05746" lon="2.46494">
        <ele>9.8</ele>
        <time>2023-08-05T08:17:07Z</time>
      </trkpt>
      <trkpt lat="51.05744" lon="2.46487">
        <ele>9.8</ele>
        <time>2023-08-05T08:17:08Z</time>
      </trkpt>
      <trkpt lat="51.05742" lon="2.4648">
        <ele>10</ele>
        <time>2023-08-05T08:17:09Z</time>
      </trkpt>
      <trkpt lat="51.05739" lon="2.46472">
        <ele>9.8</ele>
        <time>2023-08-05T08:17:11Z</time>
      </trkpt>
      <trkpt lat="51.05718" lon="2.46406">
        <ele>9.6</ele>
        <time>2023-08-05T08:17:18Z</time>
      </trkpt>
      <trkpt lat="51.05697" lon="2.46332">
        <ele>9.6</ele>
        <time>2023-08-05T08:17:27Z</time>
      </trkpt>
      <trkpt lat="51.05677" lon="2.46247">
        <ele>9.6</ele>
        <time>2023-08-05T08:17:37Z</time>
      </trkpt>
      <trkpt lat="51.05673" lon="2.4623">
        <ele>9.6</ele>
        <time>2023-08-05T08:17:40Z</time>
      </trkpt>
      <trkpt lat="51.05669" lon="2.46202">
        <ele>9.6</ele>
        <time>2023-08-05T08:17:42Z</time>
      </trkpt>
      <trkpt lat="51.05667" lon="2.46196">
        <ele>9.6</ele>
        <time>2023-08-05T08:17:43Z</time>
      </trkpt>
      <trkpt lat="51.05666" lon="2.46187">
        <ele>9.6</ele>
        <time>2023-08-05T08:17:44Z</time>
      </trkpt>
      <trkpt lat="51.05664" lon="2.46179">
        <ele>9.6</ele>
        <time>2023-08-05T08:17:46Z</time>
      </trkpt>
      <trkpt lat="51.05662" lon="2.46161">
        <ele>9.6</ele>
        <time>2023-08-05T08:17:47Z</time>
      </trkpt>
      <trkpt lat="51.05658" lon="2.46136">
        <ele>9.8</ele>
        <time>2023-08-05T08:17:50Z</time>
      </trkpt>
      <trkpt lat="51.05653" lon="2.46095">
        <ele>9.8</ele>
        <time>2023-08-05T08:17:55Z</time>
      </trkpt>
      <trkpt lat="51.05653" lon="2.46095">
        <ele>9.8</ele>
        <time>2023-08-05T08:17:56Z</time>
      </trkpt>
      <trkpt lat="51.0565" lon="2.46079">
        <ele>9.8</ele>
        <time>2023-08-05T08:17:57Z</time>
      </trkpt>
      <trkpt lat="51.0565" lon="2.46079">
        <ele>9.8</ele>
        <time>2023-08-05T08:17:58Z</time>
      </trkpt>
      <trkpt lat="51.05649" lon="2.4607">
        <ele>9.8</ele>
        <time>2023-08-05T08:17:59Z</time>
      </trkpt>
      <trkpt lat="51.05644" lon="2.46029">
        <ele>10</ele>
        <time>2023-08-05T08:18:03Z</time>
      </trkpt>
      <trkpt lat="51.05644" lon="2.46021">
        <ele>10</ele>
        <time>2023-08-05T08:18:04Z</time>
      </trkpt>
      <trkpt lat="51.05641" lon="2.45997">
        <ele>10</ele>
        <time>2023-08-05T08:18:07Z</time>
      </trkpt>
      <trkpt lat="51.05632" lon="2.45912">
        <ele>10.2</ele>
        <time>2023-08-05T08:18:17Z</time>
      </trkpt>
      <trkpt lat="51.05622" lon="2.45813">
        <ele>10.2</ele>
        <time>2023-08-05T08:18:28Z</time>
      </trkpt>
      <trkpt lat="51.05621" lon="2.45804">
        <ele>10.2</ele>
        <time>2023-08-05T08:18:29Z</time>
      </trkpt>
      <trkpt lat="51.05613" lon="2.45751">
        <ele>10.2</ele>
        <time>2023-08-05T08:18:36Z</time>
      </trkpt>
      <trkpt lat="51.0561" lon="2.45733">
        <ele>10.2</ele>
        <time>2023-08-05T08:18:38Z</time>
      </trkpt>
      <trkpt lat="51.05608" lon="2.45716">
        <ele>10.2</ele>
        <time>2023-08-05T08:18:39Z</time>
      </trkpt>
      <trkpt lat="51.05607" lon="2.45681">
        <ele>10</ele>
        <time>2023-08-05T08:18:43Z</time>
      </trkpt>
      <trkpt lat="51.05607" lon="2.45672">
        <ele>10</ele>
        <time>2023-08-05T08:18:44Z</time>
      </trkpt>
      <trkpt lat="51.05605" lon="2.45654">
        <ele>9.8</ele>
        <time>2023-08-05T08:18:47Z</time>
      </trkpt>
      <trkpt lat="51.05601" lon="2.4562">
        <ele>9.8</ele>
        <time>2023-08-05T08:18:50Z</time>
      </trkpt>
      <trkpt lat="51.056" lon="2.45611">
        <ele>9.6</ele>
        <time>2023-08-05T08:18:51Z</time>
      </trkpt>
      <trkpt lat="51.05595" lon="2.4557">
        <ele>10</ele>
        <time>2023-08-05T08:18:56Z</time>
      </trkpt>
      <trkpt lat="51.05595" lon="2.4557">
        <ele>10</ele>
        <time>2023-08-05T08:18:57Z</time>
      </trkpt>
      <trkpt lat="51.05591" lon="2.45554">
        <ele>10.2</ele>
        <time>2023-08-05T08:18:58Z</time>
      </trkpt>
      <trkpt lat="51.05589" lon="2.45547">
        <ele>10.2</ele>
        <time>2023-08-05T08:18:59Z</time>
      </trkpt>
      <trkpt lat="51.05587" lon="2.4554">
        <ele>10.2</ele>
        <time>2023-08-05T08:19:00Z</time>
      </trkpt>
      <trkpt lat="51.05583" lon="2.45533">
        <ele>10.4</ele>
        <time>2023-08-05T08:19:01Z</time>
      </trkpt>
      <trkpt lat="51.05576" lon="2.45521">
        <ele>10.6</ele>
        <time>2023-08-05T08:19:03Z</time>
      </trkpt>
      <trkpt lat="51.05568" lon="2.45511">
        <ele>10.4</ele>
        <time>2023-08-05T08:19:05Z</time>
      </trkpt>
      <trkpt lat="51.05566" lon="2.45504">
        <ele>10.4</ele>
        <time>2023-08-05T08:19:06Z</time>
      </trkpt>
      <trkpt lat="51.05565" lon="2.45497">
        <ele>10.4</ele>
        <time>2023-08-05T08:19:07Z</time>
      </trkpt>
      <trkpt lat="51.05565" lon="2.4549">
        <ele>10.4</ele>
        <time>2023-08-05T08:19:08Z</time>
      </trkpt>
      <trkpt lat="51.05564" lon="2.45483">
        <ele>10.4</ele>
        <time>2023-08-05T08:19:09Z</time>
      </trkpt>
      <trkpt lat="51.05563" lon="2.45475">
        <ele>10.4</ele>
        <time>2023-08-05T08:19:10Z</time>
      </trkpt>
      <trkpt lat="51.05563" lon="2.45468">
        <ele>10.2</ele>
        <time>2023-08-05T08:19:11Z</time>
      </trkpt>
      <trkpt lat="51.05559" lon="2.45429">
        <ele>10.2</ele>
        <time>2023-08-05T08:19:16Z</time>
      </trkpt>
      <trkpt lat="51.0555" lon="2.45341">
        <ele>10.4</ele>
        <time>2023-08-05T08:19:27Z</time>
      </trkpt>
      <trkpt lat="51.05549" lon="2.45333">
        <ele>10.4</ele>
        <time>2023-08-05T08:19:28Z</time>
      </trkpt>
      <trkpt lat="51.05544" lon="2.45276">
        <ele>10.6</ele>
        <time>2023-08-05T08:19:35Z</time>
      </trkpt>
      <trkpt lat="51.05544" lon="2.45268">
        <ele>10.6</ele>
        <time>2023-08-05T08:19:36Z</time>
      </trkpt>
      <trkpt lat="51.05544" lon="2.4526">
        <ele>10.6</ele>
        <time>2023-08-05T08:19:37Z</time>
      </trkpt>
      <trkpt lat="51.05544" lon="2.4526">
        <ele>10.6</ele>
        <time>2023-08-05T08:19:38Z</time>
      </trkpt>
      <trkpt lat="51.05544" lon="2.45244">
        <ele>10.8</ele>
        <time>2023-08-05T08:19:39Z</time>
      </trkpt>
      <trkpt lat="51.05544" lon="2.45236">
        <ele>10.8</ele>
        <time>2023-08-05T08:19:40Z</time>
      </trkpt>
      <trkpt lat="51.05543" lon="2.45228">
        <ele>10.8</ele>
        <time>2023-08-05T08:19:41Z</time>
      </trkpt>
      <trkpt lat="51.05542" lon="2.45155">
        <ele>11.2</ele>
        <time>2023-08-05T08:19:50Z</time>
      </trkpt>
      <trkpt lat="51.05539" lon="2.45065">
        <ele>11.2</ele>
        <time>2023-08-05T08:20:01Z</time>
      </trkpt>
      <trkpt lat="51.05538" lon="2.45042">
        <ele>11.4</ele>
        <time>2023-08-05T08:20:04Z</time>
      </trkpt>
      <trkpt lat="51.05537" lon="2.45034">
        <ele>11.4</ele>
        <time>2023-08-05T08:20:05Z</time>
      </trkpt>
      <trkpt lat="51.05536" lon="2.45027">
        <ele>11.6</ele>
        <time>2023-08-05T08:20:06Z</time>
      </trkpt>
      <trkpt lat="51.05535" lon="2.45019">
        <ele>11.6</ele>
        <time>2023-08-05T08:20:07Z</time>
      </trkpt>
      <trkpt lat="51.05534" lon="2.45011">
        <ele>11.6</ele>
        <time>2023-08-05T08:20:08Z</time>
      </trkpt>
      <trkpt lat="51.05533" lon="2.45004">
        <ele>11.6</ele>
        <time>2023-08-05T08:20:09Z</time>
      </trkpt>
      <trkpt lat="51.05532" lon="2.44996">
        <ele>11.6</ele>
        <time>2023-08-05T08:20:10Z</time>
      </trkpt>
      <trkpt lat="51.05531" lon="2.44988">
        <ele>11.8</ele>
        <time>2023-08-05T08:20:11Z</time>
      </trkpt>
      <trkpt lat="51.0553" lon="2.44981">
        <ele>11.8</ele>
        <time>2023-08-05T08:20:12Z</time>
      </trkpt>
      <trkpt lat="51.05529" lon="2.44973">
        <ele>11.8</ele>
        <time>2023-08-05T08:20:13Z</time>
      </trkpt>
      <trkpt lat="51.05525" lon="2.44944">
        <ele>12</ele>
        <time>2023-08-05T08:20:17Z</time>
      </trkpt>
      <trkpt lat="51.05525" lon="2.44936">
        <ele>12.2</ele>
        <time>2023-08-05T08:20:18Z</time>
      </trkpt>
      <trkpt lat="51.05517" lon="2.44881">
        <ele>12.2</ele>
        <time>2023-08-05T08:20:25Z</time>
      </trkpt>
      <trkpt lat="51.05515" lon="2.44873">
        <ele>12.4</ele>
        <time>2023-08-05T08:20:27Z</time>
      </trkpt>
      <trkpt lat="51.05509" lon="2.44842">
        <ele>12.4</ele>
        <time>2023-08-05T08:20:30Z</time>
      </trkpt>
      <trkpt lat="51.05507" lon="2.44811">
        <ele>12.4</ele>
        <time>2023-08-05T08:20:34Z</time>
      </trkpt>
      <trkpt lat="51.05506" lon="2.44804">
        <ele>12.6</ele>
        <time>2023-08-05T08:20:35Z</time>
      </trkpt>
      <trkpt lat="51.05506" lon="2.44796">
        <ele>12.6</ele>
        <time>2023-08-05T08:20:36Z</time>
      </trkpt>
      <trkpt lat="51.05499" lon="2.44748">
        <ele>12.8</ele>
        <time>2023-08-05T08:20:42Z</time>
      </trkpt>
      <trkpt lat="51.05496" lon="2.44732">
        <ele>12.8</ele>
        <time>2023-08-05T08:20:44Z</time>
      </trkpt>
      <trkpt lat="51.05482" lon="2.44667">
        <ele>12.6</ele>
        <time>2023-08-05T08:20:52Z</time>
      </trkpt>
      <trkpt lat="51.05466" lon="2.44601">
        <ele>12.4</ele>
        <time>2023-08-05T08:21:01Z</time>
      </trkpt>
      <trkpt lat="51.05444" lon="2.44513">
        <ele>12</ele>
        <time>2023-08-05T08:21:10Z</time>
      </trkpt>
      <trkpt lat="51.05441" lon="2.44504">
        <ele>11.8</ele>
        <time>2023-08-05T08:21:11Z</time>
      </trkpt>
      <trkpt lat="51.05437" lon="2.4449">
        <ele>11.6</ele>
        <time>2023-08-05T08:21:14Z</time>
      </trkpt>
      <trkpt lat="51.05427" lon="2.44455">
        <ele>11.4</ele>
        <time>2023-08-05T08:21:17Z</time>
      </trkpt>
      <trkpt lat="51.05422" lon="2.44439">
        <ele>11.4</ele>
        <time>2023-08-05T08:21:19Z</time>
      </trkpt>
      <trkpt lat="51.05419" lon="2.44431">
        <ele>11.2</ele>
        <time>2023-08-05T08:21:20Z</time>
      </trkpt>
      <trkpt lat="51.05417" lon="2.44423">
        <ele>11.2</ele>
        <time>2023-08-05T08:21:21Z</time>
      </trkpt>
      <trkpt lat="51.05404" lon="2.44383">
        <ele>10.8</ele>
        <time>2023-08-05T08:21:26Z</time>
      </trkpt>
      <trkpt lat="51.05389" lon="2.44335">
        <ele>10.4</ele>
        <time>2023-08-05T08:21:32Z</time>
      </trkpt>
      <trkpt lat="51.05374" lon="2.44285">
        <ele>9.8</ele>
        <time>2023-08-05T08:21:38Z</time>
      </trkpt>
      <trkpt lat="51.05362" lon="2.44244">
        <ele>9.8</ele>
        <time>2023-08-05T08:21:43Z</time>
      </trkpt>
      <trkpt lat="51.05347" lon="2.44194">
        <ele>9.6</ele>
        <time>2023-08-05T08:21:49Z</time>
      </trkpt>
      <trkpt lat="51.05334" lon="2.44154">
        <ele>9.4</ele>
        <time>2023-08-05T08:21:54Z</time>
      </trkpt>
      <trkpt lat="51.05322" lon="2.44113">
        <ele>9.4</ele>
        <time>2023-08-05T08:21:59Z</time>
      </trkpt>
      <trkpt lat="51.05297" lon="2.4403">
        <ele>9.4</ele>
        <time>2023-08-05T08:22:09Z</time>
      </trkpt>
      <trkpt lat="51.05284" lon="2.4399">
        <ele>9.2</ele>
        <time>2023-08-05T08:22:15Z</time>
      </trkpt>
      <trkpt lat="51.0528" lon="2.43973">
        <ele>9.2</ele>
        <time>2023-08-05T08:22:16Z</time>
      </trkpt>
      <trkpt lat="51.05277" lon="2.43965">
        <ele>9.2</ele>
        <time>2023-08-05T08:22:17Z</time>
      </trkpt>
      <trkpt lat="51.05275" lon="2.43957">
        <ele>9.2</ele>
        <time>2023-08-05T08:22:18Z</time>
      </trkpt>
      <trkpt lat="51.05258" lon="2.439">
        <ele>9.4</ele>
        <time>2023-08-05T08:22:25Z</time>
      </trkpt>
      <trkpt lat="51.05242" lon="2.43844">
        <ele>9.4</ele>
        <time>2023-08-05T08:22:32Z</time>
      </trkpt>
      <trkpt lat="51.05226" lon="2.43787">
        <ele>9.4</ele>
        <time>2023-08-05T08:22:39Z</time>
      </trkpt>
      <trkpt lat="51.05202" lon="2.43706">
        <ele>9.2</ele>
        <time>2023-08-05T08:22:49Z</time>
      </trkpt>
      <trkpt lat="51.05197" lon="2.4369">
        <ele>9.2</ele>
        <time>2023-08-05T08:22:51Z</time>
      </trkpt>
      <trkpt lat="51.05176" lon="2.43617">
        <ele>9.4</ele>
        <time>2023-08-05T08:23:00Z</time>
      </trkpt>
      <trkpt lat="51.05173" lon="2.43609">
        <ele>9.4</ele>
        <time>2023-08-05T08:23:01Z</time>
      </trkpt>
      <trkpt lat="51.05165" lon="2.43578">
        <ele>9.2</ele>
        <time>2023-08-05T08:23:05Z</time>
      </trkpt>
      <trkpt lat="51.05164" lon="2.43561">
        <ele>9.2</ele>
        <time>2023-08-05T08:23:07Z</time>
      </trkpt>
      <trkpt lat="51.05161" lon="2.43544">
        <ele>9.2</ele>
        <time>2023-08-05T08:23:09Z</time>
      </trkpt>
      <trkpt lat="51.05157" lon="2.43528">
        <ele>9.2</ele>
        <time>2023-08-05T08:23:11Z</time>
      </trkpt>
      <trkpt lat="51.05135" lon="2.43455">
        <ele>9.4</ele>
        <time>2023-08-05T08:23:20Z</time>
      </trkpt>
      <trkpt lat="51.05121" lon="2.43408">
        <ele>9.4</ele>
        <time>2023-08-05T08:23:26Z</time>
      </trkpt>
      <trkpt lat="51.05119" lon="2.43399">
        <ele>9.4</ele>
        <time>2023-08-05T08:23:27Z</time>
      </trkpt>
      <trkpt lat="51.05104" lon="2.43352">
        <ele>9.6</ele>
        <time>2023-08-05T08:23:33Z</time>
      </trkpt>
      <trkpt lat="51.05102" lon="2.43344">
        <ele>9.6</ele>
        <time>2023-08-05T08:23:35Z</time>
      </trkpt>
      <trkpt lat="51.05087" lon="2.43297">
        <ele>9.6</ele>
        <time>2023-08-05T08:23:40Z</time>
      </trkpt>
      <trkpt lat="51.05069" lon="2.43235">
        <ele>9.4</ele>
        <time>2023-08-05T08:23:48Z</time>
      </trkpt>
      <trkpt lat="51.05069" lon="2.43235">
        <ele>9.4</ele>
        <time>2023-08-05T08:23:49Z</time>
      </trkpt>
      <trkpt lat="51.05065" lon="2.43223">
        <ele>9.4</ele>
        <time>2023-08-05T08:23:50Z</time>
      </trkpt>
      <trkpt lat="51.05064" lon="2.43218">
        <ele>9.4</ele>
        <time>2023-08-05T08:23:51Z</time>
      </trkpt>
      <trkpt lat="51.05062" lon="2.43215">
        <ele>9.4</ele>
        <time>2023-08-05T08:23:52Z</time>
      </trkpt>
      <trkpt lat="51.0506" lon="2.4321">
        <ele>9.4</ele>
        <time>2023-08-05T08:23:53Z</time>
      </trkpt>
      <trkpt lat="51.05059" lon="2.43206">
        <ele>9.4</ele>
        <time>2023-08-05T08:23:54Z</time>
      </trkpt>
      <trkpt lat="51.05057" lon="2.43203">
        <ele>9.2</ele>
        <time>2023-08-05T08:23:55Z</time>
      </trkpt>
      <trkpt lat="51.05056" lon="2.43201">
        <ele>9.2</ele>
        <time>2023-08-05T08:23:56Z</time>
      </trkpt>
      <trkpt lat="51.05054" lon="2.43197">
        <ele>9.2</ele>
        <time>2023-08-05T08:23:57Z</time>
      </trkpt>
      <trkpt lat="51.05053" lon="2.43194">
        <ele>9.2</ele>
        <time>2023-08-05T08:23:58Z</time>
      </trkpt>
      <trkpt lat="51.05048" lon="2.43177">
        <ele>9</ele>
        <time>2023-08-05T08:24:01Z</time>
      </trkpt>
      <trkpt lat="51.05038" lon="2.43139">
        <ele>9.2</ele>
        <time>2023-08-05T08:24:07Z</time>
      </trkpt>
      <trkpt lat="51.05032" lon="2.43117">
        <ele>9.4</ele>
        <time>2023-08-05T08:24:10Z</time>
      </trkpt>
      <trkpt lat="51.05024" lon="2.43087">
        <ele>9.6</ele>
        <time>2023-08-05T08:24:14Z</time>
      </trkpt>
      <trkpt lat="51.05001" lon="2.43012">
        <ele>9.6</ele>
        <time>2023-08-05T08:24:24Z</time>
      </trkpt>
      <trkpt lat="51.04983" lon="2.42953">
        <ele>9.6</ele>
        <time>2023-08-05T08:24:32Z</time>
      </trkpt>
      <trkpt lat="51.0498" lon="2.42945">
        <ele>9.6</ele>
        <time>2023-08-05T08:24:33Z</time>
      </trkpt>
      <trkpt lat="51.04978" lon="2.42938">
        <ele>9.6</ele>
        <time>2023-08-05T08:24:34Z</time>
      </trkpt>
      <trkpt lat="51.04976" lon="2.4293">
        <ele>9.6</ele>
        <time>2023-08-05T08:24:35Z</time>
      </trkpt>
      <trkpt lat="51.04953" lon="2.42852">
        <ele>9.4</ele>
        <time>2023-08-05T08:24:45Z</time>
      </trkpt>
      <trkpt lat="51.04933" lon="2.42788">
        <ele>9.6</ele>
        <time>2023-08-05T08:24:53Z</time>
      </trkpt>
      <trkpt lat="51.04931" lon="2.42779">
        <ele>9.6</ele>
        <time>2023-08-05T08:24:54Z</time>
      </trkpt>
      <trkpt lat="51.04924" lon="2.42756">
        <ele>9.6</ele>
        <time>2023-08-05T08:24:57Z</time>
      </trkpt>
      <trkpt lat="51.04916" lon="2.42733">
        <ele>9.6</ele>
        <time>2023-08-05T08:25:00Z</time>
      </trkpt>
      <trkpt lat="51.04912" lon="2.42717">
        <ele>9.6</ele>
        <time>2023-08-05T08:25:02Z</time>
      </trkpt>
      <trkpt lat="51.04893" lon="2.42653">
        <ele>9.6</ele>
        <time>2023-08-05T08:25:10Z</time>
      </trkpt>
      <trkpt lat="51.0487" lon="2.42572">
        <ele>9.6</ele>
        <time>2023-08-05T08:25:20Z</time>
      </trkpt>
      <trkpt lat="51.04865" lon="2.42556">
        <ele>9.6</ele>
        <time>2023-08-05T08:25:22Z</time>
      </trkpt>
      <trkpt lat="51.04841" lon="2.42476">
        <ele>9.8</ele>
        <time>2023-08-05T08:25:32Z</time>
      </trkpt>
      <trkpt lat="51.04822" lon="2.42411">
        <ele>9.8</ele>
        <time>2023-08-05T08:25:40Z</time>
      </trkpt>
      <trkpt lat="51.04799" lon="2.42331">
        <ele>9.8</ele>
        <time>2023-08-05T08:25:50Z</time>
      </trkpt>
      <trkpt lat="51.04797" lon="2.42323">
        <ele>9.8</ele>
        <time>2023-08-05T08:25:51Z</time>
      </trkpt>
      <trkpt lat="51.04786" lon="2.42285">
        <ele>9.8</ele>
        <time>2023-08-05T08:25:56Z</time>
      </trkpt>
      <trkpt lat="51.04778" lon="2.42259">
        <ele>9.8</ele>
        <time>2023-08-05T08:25:59Z</time>
      </trkpt>
      <trkpt lat="51.04754" lon="2.42182">
        <ele>9.6</ele>
        <time>2023-08-05T08:26:09Z</time>
      </trkpt>
      <trkpt lat="51.04736" lon="2.42118">
        <ele>9.4</ele>
        <time>2023-08-05T08:26:17Z</time>
      </trkpt>
      <trkpt lat="51.04734" lon="2.4211">
        <ele>9.6</ele>
        <time>2023-08-05T08:26:18Z</time>
      </trkpt>
      <trkpt lat="51.04723" lon="2.42072">
        <ele>9.8</ele>
        <time>2023-08-05T08:26:23Z</time>
      </trkpt>
      <trkpt lat="51.04718" lon="2.42057">
        <ele>9.8</ele>
        <time>2023-08-05T08:26:25Z</time>
      </trkpt>
      <trkpt lat="51.04707" lon="2.42017">
        <ele>9.8</ele>
        <time>2023-08-05T08:26:30Z</time>
      </trkpt>
      <trkpt lat="51.04698" lon="2.41984">
        <ele>9.8</ele>
        <time>2023-08-05T08:26:34Z</time>
      </trkpt>
      <trkpt lat="51.04693" lon="2.41968">
        <ele>9.8</ele>
        <time>2023-08-05T08:26:36Z</time>
      </trkpt>
      <trkpt lat="51.04689" lon="2.41954">
        <ele>10</ele>
        <time>2023-08-05T08:26:38Z</time>
      </trkpt>
      <trkpt lat="51.0467" lon="2.41892">
        <ele>10</ele>
        <time>2023-08-05T08:26:46Z</time>
      </trkpt>
      <trkpt lat="51.04668" lon="2.41887">
        <ele>10.2</ele>
        <time>2023-08-05T08:26:47Z</time>
      </trkpt>
      <trkpt lat="51.04667" lon="2.41882">
        <ele>10.2</ele>
        <time>2023-08-05T08:26:48Z</time>
      </trkpt>
      <trkpt lat="51.04665" lon="2.41879">
        <ele>10</ele>
        <time>2023-08-05T08:26:49Z</time>
      </trkpt>
      <trkpt lat="51.04662" lon="2.41874">
        <ele>10</ele>
        <time>2023-08-05T08:26:50Z</time>
      </trkpt>
      <trkpt lat="51.0466" lon="2.41871">
        <ele>10</ele>
        <time>2023-08-05T08:26:51Z</time>
      </trkpt>
      <trkpt lat="51.04658" lon="2.41868">
        <ele>10</ele>
        <time>2023-08-05T08:26:52Z</time>
      </trkpt>
      <trkpt lat="51.04654" lon="2.41857">
        <ele>10</ele>
        <time>2023-08-05T08:26:55Z</time>
      </trkpt>
      <trkpt lat="51.04653" lon="2.41852">
        <ele>10</ele>
        <time>2023-08-05T08:26:56Z</time>
      </trkpt>
      <trkpt lat="51.04652" lon="2.41847">
        <ele>10</ele>
        <time>2023-08-05T08:26:57Z</time>
      </trkpt>
      <trkpt lat="51.04651" lon="2.41842">
        <ele>10</ele>
        <time>2023-08-05T08:26:58Z</time>
      </trkpt>
      <trkpt lat="51.0465" lon="2.41836">
        <ele>10</ele>
        <time>2023-08-05T08:26:59Z</time>
      </trkpt>
      <trkpt lat="51.04648" lon="2.41823">
        <ele>10</ele>
        <time>2023-08-05T08:27:01Z</time>
      </trkpt>
      <trkpt lat="51.04643" lon="2.41806">
        <ele>9.8</ele>
        <time>2023-08-05T08:27:04Z</time>
      </trkpt>
      <trkpt lat="51.04636" lon="2.4178">
        <ele>9.8</ele>
        <time>2023-08-05T08:27:08Z</time>
      </trkpt>
      <trkpt lat="51.04621" lon="2.41723">
        <ele>10.2</ele>
        <time>2023-08-05T08:27:17Z</time>
      </trkpt>
      <trkpt lat="51.04619" lon="2.41715">
        <ele>10.2</ele>
        <time>2023-08-05T08:27:18Z</time>
      </trkpt>
      <trkpt lat="51.04615" lon="2.41703">
        <ele>10.2</ele>
        <time>2023-08-05T08:27:20Z</time>
      </trkpt>
      <trkpt lat="51.04613" lon="2.41697">
        <ele>10.2</ele>
        <time>2023-08-05T08:27:21Z</time>
      </trkpt>
      <trkpt lat="51.0461" lon="2.41691">
        <ele>10.2</ele>
        <time>2023-08-05T08:27:22Z</time>
      </trkpt>
      <trkpt lat="51.04595" lon="2.41639">
        <ele>10</ele>
        <time>2023-08-05T08:27:30Z</time>
      </trkpt>
      <trkpt lat="51.0458" lon="2.41587">
        <ele>10</ele>
        <time>2023-08-05T08:27:38Z</time>
      </trkpt>
      <trkpt lat="51.04562" lon="2.41528">
        <ele>10.2</ele>
        <time>2023-08-05T08:27:46Z</time>
      </trkpt>
      <trkpt lat="51.04535" lon="2.41457">
        <ele>10</ele>
        <time>2023-08-05T08:27:56Z</time>
      </trkpt>
      <trkpt lat="51.04523" lon="2.41432">
        <ele>10</ele>
        <time>2023-08-05T08:28:00Z</time>
      </trkpt>
      <trkpt lat="51.0452" lon="2.41425">
        <ele>9.8</ele>
        <time>2023-08-05T08:28:01Z</time>
      </trkpt>
      <trkpt lat="51.04518" lon="2.41419">
        <ele>9.8</ele>
        <time>2023-08-05T08:28:02Z</time>
      </trkpt>
      <trkpt lat="51.04514" lon="2.41412">
        <ele>9.8</ele>
        <time>2023-08-05T08:28:03Z</time>
      </trkpt>
      <trkpt lat="51.04511" lon="2.41406">
        <ele>9.8</ele>
        <time>2023-08-05T08:28:04Z</time>
      </trkpt>
      <trkpt lat="51.04494" lon="2.41377">
        <ele>9.4</ele>
        <time>2023-08-05T08:28:09Z</time>
      </trkpt>
      <trkpt lat="51.0449" lon="2.4137">
        <ele>9.4</ele>
        <time>2023-08-05T08:28:10Z</time>
      </trkpt>
      <trkpt lat="51.04486" lon="2.41364">
        <ele>9.4</ele>
        <time>2023-08-05T08:28:11Z</time>
      </trkpt>
      <trkpt lat="51.04482" lon="2.41357">
        <ele>9.4</ele>
        <time>2023-08-05T08:28:12Z</time>
      </trkpt>
      <trkpt lat="51.04479" lon="2.41352">
        <ele>9.4</ele>
        <time>2023-08-05T08:28:13Z</time>
      </trkpt>
      <trkpt lat="51.04444" lon="2.41307">
        <ele>8.8</ele>
        <time>2023-08-05T08:28:21Z</time>
      </trkpt>
      <trkpt lat="51.04431" lon="2.41293">
        <ele>8.6</ele>
        <time>2023-08-05T08:28:24Z</time>
      </trkpt>
      <trkpt lat="51.04406" lon="2.41267">
        <ele>8.4</ele>
        <time>2023-08-05T08:28:29Z</time>
      </trkpt>
      <trkpt lat="51.04396" lon="2.41259">
        <ele>8.4</ele>
        <time>2023-08-05T08:28:31Z</time>
      </trkpt>
      <trkpt lat="51.04392" lon="2.41255">
        <ele>8.4</ele>
        <time>2023-08-05T08:28:32Z</time>
      </trkpt>
      <trkpt lat="51.04388" lon="2.41251">
        <ele>8.2</ele>
        <time>2023-08-05T08:28:33Z</time>
      </trkpt>
      <trkpt lat="51.04383" lon="2.41246">
        <ele>8.2</ele>
        <time>2023-08-05T08:28:34Z</time>
      </trkpt>
      <trkpt lat="51.04379" lon="2.41241">
        <ele>8.2</ele>
        <time>2023-08-05T08:28:35Z</time>
      </trkpt>
      <trkpt lat="51.0436" lon="2.41225">
        <ele>8.2</ele>
        <time>2023-08-05T08:28:39Z</time>
      </trkpt>
      <trkpt lat="51.0435" lon="2.41216">
        <ele>8.2</ele>
        <time>2023-08-05T08:28:41Z</time>
      </trkpt>
      <trkpt lat="51.04345" lon="2.41211">
        <ele>8.2</ele>
        <time>2023-08-05T08:28:42Z</time>
      </trkpt>
      <trkpt lat="51.04314" lon="2.4118">
        <ele>8.2</ele>
        <time>2023-08-05T08:28:48Z</time>
      </trkpt>
      <trkpt lat="51.04302" lon="2.41172">
        <ele>8</ele>
        <time>2023-08-05T08:28:50Z</time>
      </trkpt>
      <trkpt lat="51.04299" lon="2.41169">
        <ele>8</ele>
        <time>2023-08-05T08:28:51Z</time>
      </trkpt>
      <trkpt lat="51.04294" lon="2.41164">
        <ele>8</ele>
        <time>2023-08-05T08:28:52Z</time>
      </trkpt>
      <trkpt lat="51.04291" lon="2.41161">
        <ele>7.8</ele>
        <time>2023-08-05T08:28:53Z</time>
      </trkpt>
      <trkpt lat="51.04287" lon="2.41157">
        <ele>7.8</ele>
        <time>2023-08-05T08:28:54Z</time>
      </trkpt>
      <trkpt lat="51.0427" lon="2.41139">
        <ele>7.6</ele>
        <time>2023-08-05T08:28:58Z</time>
      </trkpt>
      <trkpt lat="51.04266" lon="2.41135">
        <ele>7.6</ele>
        <time>2023-08-05T08:28:59Z</time>
      </trkpt>
      <trkpt lat="51.04257" lon="2.41129">
        <ele>7.6</ele>
        <time>2023-08-05T08:29:01Z</time>
      </trkpt>
      <trkpt lat="51.0423" lon="2.41105">
        <ele>7.6</ele>
        <time>2023-08-05T08:29:07Z</time>
      </trkpt>
      <trkpt lat="51.04203" lon="2.41082">
        <ele>7.6</ele>
        <time>2023-08-05T08:29:13Z</time>
      </trkpt>
      <trkpt lat="51.04199" lon="2.41078">
        <ele>7.6</ele>
        <time>2023-08-05T08:29:14Z</time>
      </trkpt>
      <trkpt lat="51.04191" lon="2.41072">
        <ele>7.8</ele>
        <time>2023-08-05T08:29:16Z</time>
      </trkpt>
      <trkpt lat="51.04187" lon="2.41069">
        <ele>7.8</ele>
        <time>2023-08-05T08:29:17Z</time>
      </trkpt>
      <trkpt lat="51.04184" lon="2.41066">
        <ele>7.8</ele>
        <time>2023-08-05T08:29:18Z</time>
      </trkpt>
      <trkpt lat="51.04181" lon="2.41064">
        <ele>7.8</ele>
        <time>2023-08-05T08:29:19Z</time>
      </trkpt>
      <trkpt lat="51.0418" lon="2.41062">
        <ele>7.8</ele>
        <time>2023-08-05T08:29:20Z</time>
      </trkpt>
      <trkpt lat="51.0418" lon="2.41059">
        <ele>7.8</ele>
        <time>2023-08-05T08:29:21Z</time>
      </trkpt>
      <trkpt lat="51.04181" lon="2.41057">
        <ele>7.8</ele>
        <time>2023-08-05T08:29:22Z</time>
      </trkpt>
      <trkpt lat="51.04182" lon="2.41055">
        <ele>7.8</ele>
        <time>2023-08-05T08:29:23Z</time>
      </trkpt>
      <trkpt lat="51.04182" lon="2.41053">
        <ele>7.8</ele>
        <time>2023-08-05T08:29:24Z</time>
      </trkpt>
      <trkpt lat="51.04182" lon="2.41051">
        <ele>7.8</ele>
        <time>2023-08-05T08:29:26Z</time>
      </trkpt>
      <trkpt lat="51.04178" lon="2.41047">
        <ele>7.8</ele>
        <time>2023-08-05T08:29:27Z</time>
      </trkpt>
      <trkpt lat="51.04176" lon="2.41046">
        <ele>7.8</ele>
        <time>2023-08-05T08:29:28Z</time>
      </trkpt>
      <trkpt lat="51.04167" lon="2.41039">
        <ele>7.8</ele>
        <time>2023-08-05T08:29:31Z</time>
      </trkpt>
      <trkpt lat="51.04144" lon="2.41016">
        <ele>7.6</ele>
        <time>2023-08-05T08:29:37Z</time>
      </trkpt>
      <trkpt lat="51.04126" lon="2.40999">
        <ele>7.6</ele>
        <time>2023-08-05T08:29:41Z</time>
      </trkpt>
      <trkpt lat="51.04117" lon="2.4099">
        <ele>7.4</ele>
        <time>2023-08-05T08:29:43Z</time>
      </trkpt>
      <trkpt lat="51.04113" lon="2.40986">
        <ele>7.4</ele>
        <time>2023-08-05T08:29:44Z</time>
      </trkpt>
      <trkpt lat="51.04081" lon="2.40959">
        <ele>7.4</ele>
        <time>2023-08-05T08:29:52Z</time>
      </trkpt>
      <trkpt lat="51.04062" lon="2.4094">
        <ele>7.4</ele>
        <time>2023-08-05T08:29:56Z</time>
      </trkpt>
      <trkpt lat="51.04059" lon="2.40936">
        <ele>7.4</ele>
        <time>2023-08-05T08:29:57Z</time>
      </trkpt>
      <trkpt lat="51.04057" lon="2.40934">
        <ele>7.4</ele>
        <time>2023-08-05T08:29:58Z</time>
      </trkpt>
      <trkpt lat="51.04055" lon="2.40931">
        <ele>7.4</ele>
        <time>2023-08-05T08:29:59Z</time>
      </trkpt>
      <trkpt lat="51.04053" lon="2.40928">
        <ele>7.4</ele>
        <time>2023-08-05T08:30:00Z</time>
      </trkpt>
      <trkpt lat="51.04048" lon="2.40919">
        <ele>7.4</ele>
        <time>2023-08-05T08:30:02Z</time>
      </trkpt>
      <trkpt lat="51.04023" lon="2.40869">
        <ele>7.4</ele>
        <time>2023-08-05T08:30:11Z</time>
      </trkpt>
      <trkpt lat="51.04004" lon="2.40824">
        <ele>7.2</ele>
        <time>2023-08-05T08:30:18Z</time>
      </trkpt>
      <trkpt lat="51.04001" lon="2.40818">
        <ele>7</ele>
        <time>2023-08-05T08:30:19Z</time>
      </trkpt>
      <trkpt lat="51.03994" lon="2.40813">
        <ele>7</ele>
        <time>2023-08-05T08:30:21Z</time>
      </trkpt>
      <trkpt lat="51.0399" lon="2.40814">
        <ele>7</ele>
        <time>2023-08-05T08:30:22Z</time>
      </trkpt>
      <trkpt lat="51.03987" lon="2.40818">
        <ele>7.2</ele>
        <time>2023-08-05T08:30:23Z</time>
      </trkpt>
      <trkpt lat="51.03982" lon="2.40822">
        <ele>7</ele>
        <time>2023-08-05T08:30:24Z</time>
      </trkpt>
      <trkpt lat="51.03975" lon="2.4083">
        <ele>7</ele>
        <time>2023-08-05T08:30:26Z</time>
      </trkpt>
      <trkpt lat="51.03971" lon="2.40834">
        <ele>7.2</ele>
        <time>2023-08-05T08:30:27Z</time>
      </trkpt>
      <trkpt lat="51.03961" lon="2.4084">
        <ele>7.2</ele>
        <time>2023-08-05T08:30:29Z</time>
      </trkpt>
      <trkpt lat="51.03957" lon="2.40843">
        <ele>7.2</ele>
        <time>2023-08-05T08:30:30Z</time>
      </trkpt>
      <trkpt lat="51.03949" lon="2.40847">
        <ele>7.4</ele>
        <time>2023-08-05T08:30:33Z</time>
      </trkpt>
      <trkpt lat="51.03942" lon="2.40846">
        <ele>7.4</ele>
        <time>2023-08-05T08:30:34Z</time>
      </trkpt>
      <trkpt lat="51.03938" lon="2.40842">
        <ele>7.4</ele>
        <time>2023-08-05T08:30:35Z</time>
      </trkpt>
      <trkpt lat="51.03935" lon="2.40839">
        <ele>7.4</ele>
        <time>2023-08-05T08:30:36Z</time>
      </trkpt>
      <trkpt lat="51.03932" lon="2.40835">
        <ele>7.4</ele>
        <time>2023-08-05T08:30:37Z</time>
      </trkpt>
      <trkpt lat="51.03905" lon="2.40809">
        <ele>7.6</ele>
        <time>2023-08-05T08:30:44Z</time>
      </trkpt>
      <trkpt lat="51.03901" lon="2.40805">
        <ele>7.6</ele>
        <time>2023-08-05T08:30:45Z</time>
      </trkpt>
      <trkpt lat="51.03883" lon="2.40786">
        <ele>7.4</ele>
        <time>2023-08-05T08:30:50Z</time>
      </trkpt>
      <trkpt lat="51.03841" lon="2.40751">
        <ele>7.2</ele>
        <time>2023-08-05T08:31:00Z</time>
      </trkpt>
      <trkpt lat="51.03806" lon="2.40723">
        <ele>7.6</ele>
        <time>2023-08-05T08:31:08Z</time>
      </trkpt>
      <trkpt lat="51.03752" lon="2.40688">
        <ele>7.8</ele>
        <time>2023-08-05T08:31:19Z</time>
      </trkpt>
      <trkpt lat="51.03709" lon="2.40668">
        <ele>8</ele>
        <time>2023-08-05T08:31:27Z</time>
      </trkpt>
      <trkpt lat="51.03703" lon="2.40667">
        <ele>8.2</ele>
        <time>2023-08-05T08:31:28Z</time>
      </trkpt>
      <trkpt lat="51.03688" lon="2.40661">
        <ele>8.2</ele>
        <time>2023-08-05T08:31:31Z</time>
      </trkpt>
      <trkpt lat="51.03683" lon="2.40659">
        <ele>8.2</ele>
        <time>2023-08-05T08:31:33Z</time>
      </trkpt>
      <trkpt lat="51.03654" lon="2.40652">
        <ele>8.6</ele>
        <time>2023-08-05T08:31:37Z</time>
      </trkpt>
      <trkpt lat="51.03649" lon="2.40651">
        <ele>8.6</ele>
        <time>2023-08-05T08:31:38Z</time>
      </trkpt>
      <trkpt lat="51.03644" lon="2.4065">
        <ele>8.6</ele>
        <time>2023-08-05T08:31:39Z</time>
      </trkpt>
      <trkpt lat="51.03638" lon="2.4065">
        <ele>8.8</ele>
        <time>2023-08-05T08:31:40Z</time>
      </trkpt>
      <trkpt lat="51.03628" lon="2.40648">
        <ele>8.8</ele>
        <time>2023-08-05T08:31:42Z</time>
      </trkpt>
      <trkpt lat="51.03618" lon="2.40647">
        <ele>8.6</ele>
        <time>2023-08-05T08:31:44Z</time>
      </trkpt>
      <trkpt lat="51.03614" lon="2.40646">
        <ele>8.6</ele>
        <time>2023-08-05T08:31:45Z</time>
      </trkpt>
      <trkpt lat="51.0361" lon="2.40645">
        <ele>8.6</ele>
        <time>2023-08-05T08:31:46Z</time>
      </trkpt>
      <trkpt lat="51.03606" lon="2.40643">
        <ele>8.6</ele>
        <time>2023-08-05T08:31:47Z</time>
      </trkpt>
      <trkpt lat="51.03604" lon="2.40639">
        <ele>8.6</ele>
        <time>2023-08-05T08:31:48Z</time>
      </trkpt>
      <trkpt lat="51.03601" lon="2.40637">
        <ele>8.6</ele>
        <time>2023-08-05T08:31:49Z</time>
      </trkpt>
      <trkpt lat="51.03598" lon="2.40636">
        <ele>8.6</ele>
        <time>2023-08-05T08:31:50Z</time>
      </trkpt>
      <trkpt lat="51.03595" lon="2.40636">
        <ele>8.6</ele>
        <time>2023-08-05T08:31:51Z</time>
      </trkpt>
      <trkpt lat="51.03591" lon="2.40636">
        <ele>8.6</ele>
        <time>2023-08-05T08:31:52Z</time>
      </trkpt>
      <trkpt lat="51.03591" lon="2.40636">
        <ele>8.8</ele>
        <time>2023-08-05T08:31:53Z</time>
      </trkpt>
      <trkpt lat="51.03583" lon="2.40637">
        <ele>8.6</ele>
        <time>2023-08-05T08:31:54Z</time>
      </trkpt>
      <trkpt lat="51.03579" lon="2.40637">
        <ele>8.6</ele>
        <time>2023-08-05T08:31:55Z</time>
      </trkpt>
      <trkpt lat="51.03562" lon="2.4064">
        <ele>8.8</ele>
        <time>2023-08-05T08:31:59Z</time>
      </trkpt>
      <trkpt lat="51.03558" lon="2.40641">
        <ele>8.8</ele>
        <time>2023-08-05T08:32:00Z</time>
      </trkpt>
      <trkpt lat="51.03528" lon="2.40643">
        <ele>9.4</ele>
        <time>2023-08-05T08:32:07Z</time>
      </trkpt>
      <trkpt lat="51.03521" lon="2.40644">
        <ele>9.6</ele>
        <time>2023-08-05T08:32:09Z</time>
      </trkpt>
      <trkpt lat="51.03519" lon="2.40645">
        <ele>9.8</ele>
        <time>2023-08-05T08:32:10Z</time>
      </trkpt>
      <trkpt lat="51.03517" lon="2.40645">
        <ele>10</ele>
        <time>2023-08-05T08:32:11Z</time>
      </trkpt>
      <trkpt lat="51.03516" lon="2.40645">
        <ele>10.2</ele>
        <time>2023-08-05T08:32:12Z</time>
      </trkpt>
      <trkpt lat="51.03515" lon="2.40644">
        <ele>10.2</ele>
        <time>2023-08-05T08:32:13Z</time>
      </trkpt>
      <trkpt lat="51.03514" lon="2.40644">
        <ele>10.4</ele>
        <time>2023-08-05T08:32:14Z</time>
      </trkpt>
      <trkpt lat="51.03514" lon="2.40645">
        <ele>10.4</ele>
        <time>2023-08-05T08:32:15Z</time>
      </trkpt>
      <trkpt lat="51.03514" lon="2.40645">
        <ele>10.4</ele>
        <time>2023-08-05T08:32:16Z</time>
      </trkpt>
      <trkpt lat="51.03514" lon="2.40645">
        <ele>10.6</ele>
        <time>2023-08-05T08:32:17Z</time>
      </trkpt>
      <trkpt lat="51.03514" lon="2.40645">
        <ele>10.6</ele>
        <time>2023-08-05T08:32:18Z</time>
      </trkpt>
      <trkpt lat="51.03513" lon="2.40645">
        <ele>10.2</ele>
        <time>2023-08-05T08:32:35Z</time>
      </trkpt>
      <trkpt lat="51.03508" lon="2.40648">
        <ele>10.2</ele>
        <time>2023-08-05T08:32:37Z</time>
      </trkpt>
      <trkpt lat="51.0349" lon="2.40654">
        <ele>10</ele>
        <time>2023-08-05T08:32:42Z</time>
      </trkpt>
      <trkpt lat="51.03481" lon="2.40659">
        <ele>10</ele>
        <time>2023-08-05T08:32:44Z</time>
      </trkpt>
      <trkpt lat="51.03471" lon="2.40659">
        <ele>9.8</ele>
        <time>2023-08-05T08:32:46Z</time>
      </trkpt>
      <trkpt lat="51.03451" lon="2.40659">
        <ele>9.6</ele>
        <time>2023-08-05T08:32:50Z</time>
      </trkpt>
      <trkpt lat="51.03441" lon="2.40662">
        <ele>9.4</ele>
        <time>2023-08-05T08:32:52Z</time>
      </trkpt>
      <trkpt lat="51.03398" lon="2.40663">
        <ele>9</ele>
        <time>2023-08-05T08:33:00Z</time>
      </trkpt>
      <trkpt lat="51.03343" lon="2.40671">
        <ele>9</ele>
        <time>2023-08-05T08:33:10Z</time>
      </trkpt>
      <trkpt lat="51.03293" lon="2.40673">
        <ele>8.8</ele>
        <time>2023-08-05T08:33:19Z</time>
      </trkpt>
      <trkpt lat="51.03287" lon="2.40673">
        <ele>8.8</ele>
        <time>2023-08-05T08:33:20Z</time>
      </trkpt>
      <trkpt lat="51.03237" lon="2.4067">
        <ele>8.4</ele>
        <time>2023-08-05T08:33:29Z</time>
      </trkpt>
      <trkpt lat="51.03228" lon="2.40669">
        <ele>8.2</ele>
        <time>2023-08-05T08:33:31Z</time>
      </trkpt>
      <trkpt lat="51.03211" lon="2.40667">
        <ele>8.2</ele>
        <time>2023-08-05T08:33:34Z</time>
      </trkpt>
      <trkpt lat="51.03206" lon="2.40666">
        <ele>8.2</ele>
        <time>2023-08-05T08:33:35Z</time>
      </trkpt>
      <trkpt lat="51.032" lon="2.40664">
        <ele>8.2</ele>
        <time>2023-08-05T08:33:36Z</time>
      </trkpt>
      <trkpt lat="51.0319" lon="2.40662">
        <ele>8.2</ele>
        <time>2023-08-05T08:33:38Z</time>
      </trkpt>
      <trkpt lat="51.03179" lon="2.40659">
        <ele>8.2</ele>
        <time>2023-08-05T08:33:40Z</time>
      </trkpt>
      <trkpt lat="51.0313" lon="2.40645">
        <ele>8.2</ele>
        <time>2023-08-05T08:33:49Z</time>
      </trkpt>
      <trkpt lat="51.03116" lon="2.4064">
        <ele>8.2</ele>
        <time>2023-08-05T08:33:52Z</time>
      </trkpt>
      <trkpt lat="51.03113" lon="2.4064">
        <ele>8.2</ele>
        <time>2023-08-05T08:33:53Z</time>
      </trkpt>
      <trkpt lat="51.0311" lon="2.40638">
        <ele>8.2</ele>
        <time>2023-08-05T08:33:54Z</time>
      </trkpt>
      <trkpt lat="51.03108" lon="2.40637">
        <ele>8.2</ele>
        <time>2023-08-05T08:33:55Z</time>
      </trkpt>
      <trkpt lat="51.03105" lon="2.40634">
        <ele>8.2</ele>
        <time>2023-08-05T08:33:56Z</time>
      </trkpt>
      <trkpt lat="51.03102" lon="2.40632">
        <ele>8.2</ele>
        <time>2023-08-05T08:33:57Z</time>
      </trkpt>
      <trkpt lat="51.03094" lon="2.40627">
        <ele>8.2</ele>
        <time>2023-08-05T08:33:59Z</time>
      </trkpt>
      <trkpt lat="51.0309" lon="2.40625">
        <ele>8.2</ele>
        <time>2023-08-05T08:34:00Z</time>
      </trkpt>
      <trkpt lat="51.03077" lon="2.40621">
        <ele>8.2</ele>
        <time>2023-08-05T08:34:03Z</time>
      </trkpt>
      <trkpt lat="51.03063" lon="2.40617">
        <ele>8.2</ele>
        <time>2023-08-05T08:34:06Z</time>
      </trkpt>
      <trkpt lat="51.0303" lon="2.40603">
        <ele>8.2</ele>
        <time>2023-08-05T08:34:13Z</time>
      </trkpt>
      <trkpt lat="51.02978" lon="2.4058">
        <ele>8.2</ele>
        <time>2023-08-05T08:34:24Z</time>
      </trkpt>
      <trkpt lat="51.02938" lon="2.40562">
        <ele>8</ele>
        <time>2023-08-05T08:34:32Z</time>
      </trkpt>
      <trkpt lat="51.02896" lon="2.40544">
        <ele>8</ele>
        <time>2023-08-05T08:34:40Z</time>
      </trkpt>
      <trkpt lat="51.02854" lon="2.40523">
        <ele>8.2</ele>
        <time>2023-08-05T08:34:48Z</time>
      </trkpt>
      <trkpt lat="51.02805" lon="2.4049">
        <ele>8</ele>
        <time>2023-08-05T08:34:58Z</time>
      </trkpt>
      <trkpt lat="51.02792" lon="2.4048">
        <ele>8</ele>
        <time>2023-08-05T08:35:01Z</time>
      </trkpt>
      <trkpt lat="51.02788" lon="2.40476">
        <ele>8</ele>
        <time>2023-08-05T08:35:02Z</time>
      </trkpt>
      <trkpt lat="51.02784" lon="2.40473">
        <ele>8</ele>
        <time>2023-08-05T08:35:03Z</time>
      </trkpt>
      <trkpt lat="51.0278" lon="2.4047">
        <ele>8</ele>
        <time>2023-08-05T08:35:04Z</time>
      </trkpt>
      <trkpt lat="51.02777" lon="2.40467">
        <ele>8</ele>
        <time>2023-08-05T08:35:05Z</time>
      </trkpt>
      <trkpt lat="51.02774" lon="2.40465">
        <ele>8.2</ele>
        <time>2023-08-05T08:35:06Z</time>
      </trkpt>
      <trkpt lat="51.02772" lon="2.40463">
        <ele>8.2</ele>
        <time>2023-08-05T08:35:07Z</time>
      </trkpt>
      <trkpt lat="51.0277" lon="2.40461">
        <ele>8</ele>
        <time>2023-08-05T08:35:08Z</time>
      </trkpt>
      <trkpt lat="51.02768" lon="2.4046">
        <ele>8</ele>
        <time>2023-08-05T08:35:09Z</time>
      </trkpt>
      <trkpt lat="51.02767" lon="2.40459">
        <ele>8</ele>
        <time>2023-08-05T08:35:10Z</time>
      </trkpt>
      <trkpt lat="51.02766" lon="2.40459">
        <ele>8</ele>
        <time>2023-08-05T08:35:11Z</time>
      </trkpt>
      <trkpt lat="51.02766" lon="2.40459">
        <ele>8</ele>
        <time>2023-08-05T08:35:12Z</time>
      </trkpt>
      <trkpt lat="51.02766" lon="2.40459">
        <ele>8</ele>
        <time>2023-08-05T08:35:13Z</time>
      </trkpt>
      <trkpt lat="51.02766" lon="2.40459">
        <ele>8</ele>
        <time>2023-08-05T08:35:14Z</time>
      </trkpt>
      <trkpt lat="51.02764" lon="2.40459">
        <ele>8.8</ele>
        <time>2023-08-05T08:39:09Z</time>
      </trkpt>
      <trkpt lat="51.02761" lon="2.40452">
        <ele>8.8</ele>
        <time>2023-08-05T08:39:12Z</time>
      </trkpt>
      <trkpt lat="51.02747" lon="2.40435">
        <ele>8.6</ele>
        <time>2023-08-05T08:39:17Z</time>
      </trkpt>
      <trkpt lat="51.02743" lon="2.40432">
        <ele>8.6</ele>
        <time>2023-08-05T08:39:18Z</time>
      </trkpt>
      <trkpt lat="51.0274" lon="2.40429">
        <ele>8.6</ele>
        <time>2023-08-05T08:39:19Z</time>
      </trkpt>
      <trkpt lat="51.0273" lon="2.40418">
        <ele>8.4</ele>
        <time>2023-08-05T08:39:22Z</time>
      </trkpt>
      <trkpt lat="51.02719" lon="2.40406">
        <ele>8.4</ele>
        <time>2023-08-05T08:39:25Z</time>
      </trkpt>
      <trkpt lat="51.02714" lon="2.40401">
        <ele>8.4</ele>
        <time>2023-08-05T08:39:26Z</time>
      </trkpt>
      <trkpt lat="51.02704" lon="2.40388">
        <ele>8.4</ele>
        <time>2023-08-05T08:39:29Z</time>
      </trkpt>
      <trkpt lat="51.02694" lon="2.40372">
        <ele>8.4</ele>
        <time>2023-08-05T08:39:32Z</time>
      </trkpt>
      <trkpt lat="51.02655" lon="2.40314">
        <ele>8.8</ele>
        <time>2023-08-05T08:39:43Z</time>
      </trkpt>
      <trkpt lat="51.02626" lon="2.40256">
        <ele>8.8</ele>
        <time>2023-08-05T08:39:52Z</time>
      </trkpt>
      <trkpt lat="51.02603" lon="2.40196">
        <ele>8.4</ele>
        <time>2023-08-05T08:40:01Z</time>
      </trkpt>
      <trkpt lat="51.026" lon="2.40188">
        <ele>8.4</ele>
        <time>2023-08-05T08:40:02Z</time>
      </trkpt>
      <trkpt lat="51.02598" lon="2.40183">
        <ele>8.4</ele>
        <time>2023-08-05T08:40:03Z</time>
      </trkpt>
      <trkpt lat="51.02595" lon="2.40179">
        <ele>8.2</ele>
        <time>2023-08-05T08:40:04Z</time>
      </trkpt>
      <trkpt lat="51.02593" lon="2.40175">
        <ele>8.2</ele>
        <time>2023-08-05T08:40:05Z</time>
      </trkpt>
      <trkpt lat="51.02591" lon="2.40171">
        <ele>8.2</ele>
        <time>2023-08-05T08:40:06Z</time>
      </trkpt>
      <trkpt lat="51.02589" lon="2.40166">
        <ele>8.2</ele>
        <time>2023-08-05T08:40:07Z</time>
      </trkpt>
      <trkpt lat="51.02587" lon="2.40161">
        <ele>8.2</ele>
        <time>2023-08-05T08:40:08Z</time>
      </trkpt>
      <trkpt lat="51.02573" lon="2.40125">
        <ele>8.2</ele>
        <time>2023-08-05T08:40:14Z</time>
      </trkpt>
      <trkpt lat="51.02568" lon="2.40112">
        <ele>8.4</ele>
        <time>2023-08-05T08:40:16Z</time>
      </trkpt>
      <trkpt lat="51.02557" lon="2.40085">
        <ele>8.4</ele>
        <time>2023-08-05T08:40:20Z</time>
      </trkpt>
      <trkpt lat="51.02532" lon="2.4002">
        <ele>8.4</ele>
        <time>2023-08-05T08:40:29Z</time>
      </trkpt>
      <trkpt lat="51.02522" lon="2.39991">
        <ele>8.4</ele>
        <time>2023-08-05T08:40:33Z</time>
      </trkpt>
      <trkpt lat="51.02507" lon="2.39955">
        <ele>8.6</ele>
        <time>2023-08-05T08:40:38Z</time>
      </trkpt>
      <trkpt lat="51.02483" lon="2.39895">
        <ele>8.2</ele>
        <time>2023-08-05T08:40:46Z</time>
      </trkpt>
      <trkpt lat="51.02474" lon="2.39874">
        <ele>8.4</ele>
        <time>2023-08-05T08:40:49Z</time>
      </trkpt>
      <trkpt lat="51.02458" lon="2.39831">
        <ele>8.2</ele>
        <time>2023-08-05T08:40:55Z</time>
      </trkpt>
      <trkpt lat="51.02455" lon="2.39824">
        <ele>8.2</ele>
        <time>2023-08-05T08:40:56Z</time>
      </trkpt>
      <trkpt lat="51.02434" lon="2.39775">
        <ele>8.6</ele>
        <time>2023-08-05T08:41:03Z</time>
      </trkpt>
      <trkpt lat="51.02431" lon="2.39767">
        <ele>8.6</ele>
        <time>2023-08-05T08:41:04Z</time>
      </trkpt>
      <trkpt lat="51.02429" lon="2.3976">
        <ele>8.6</ele>
        <time>2023-08-05T08:41:05Z</time>
      </trkpt>
      <trkpt lat="51.02426" lon="2.39754">
        <ele>8.6</ele>
        <time>2023-08-05T08:41:06Z</time>
      </trkpt>
      <trkpt lat="51.02423" lon="2.39747">
        <ele>8.8</ele>
        <time>2023-08-05T08:41:07Z</time>
      </trkpt>
      <trkpt lat="51.0242" lon="2.3974">
        <ele>8.8</ele>
        <time>2023-08-05T08:41:08Z</time>
      </trkpt>
      <trkpt lat="51.02416" lon="2.39728">
        <ele>8.8</ele>
        <time>2023-08-05T08:41:10Z</time>
      </trkpt>
      <trkpt lat="51.02413" lon="2.39721">
        <ele>8.8</ele>
        <time>2023-08-05T08:41:11Z</time>
      </trkpt>
      <trkpt lat="51.02411" lon="2.39715">
        <ele>9</ele>
        <time>2023-08-05T08:41:12Z</time>
      </trkpt>
      <trkpt lat="51.02408" lon="2.3971">
        <ele>9</ele>
        <time>2023-08-05T08:41:13Z</time>
      </trkpt>
      <trkpt lat="51.02407" lon="2.39706">
        <ele>9</ele>
        <time>2023-08-05T08:41:14Z</time>
      </trkpt>
      <trkpt lat="51.02407" lon="2.39703">
        <ele>9</ele>
        <time>2023-08-05T08:41:15Z</time>
      </trkpt>
      <trkpt lat="51.02407" lon="2.39701">
        <ele>9</ele>
        <time>2023-08-05T08:41:16Z</time>
      </trkpt>
      <trkpt lat="51.02407" lon="2.397">
        <ele>9</ele>
        <time>2023-08-05T08:41:17Z</time>
      </trkpt>
      <trkpt lat="51.02407" lon="2.397">
        <ele>9</ele>
        <time>2023-08-05T08:41:18Z</time>
      </trkpt>
      <trkpt lat="51.02407" lon="2.397">
        <ele>9</ele>
        <time>2023-08-05T08:41:19Z</time>
      </trkpt>
      <trkpt lat="51.02411" lon="2.39694">
        <ele>8.8</ele>
        <time>2023-08-05T08:41:27Z</time>
      </trkpt>
      <trkpt lat="51.02412" lon="2.39689">
        <ele>8.8</ele>
        <time>2023-08-05T08:41:29Z</time>
      </trkpt>
      <trkpt lat="51.02412" lon="2.39687">
        <ele>8.8</ele>
        <time>2023-08-05T08:41:30Z</time>
      </trkpt>
      <trkpt lat="51.02411" lon="2.39685">
        <ele>8.8</ele>
        <time>2023-08-05T08:41:31Z</time>
      </trkpt>
      <trkpt lat="51.02411" lon="2.39683">
        <ele>9</ele>
        <time>2023-08-05T08:41:32Z</time>
      </trkpt>
      <trkpt lat="51.02411" lon="2.39681">
        <ele>9</ele>
        <time>2023-08-05T08:41:33Z</time>
      </trkpt>
      <trkpt lat="51.0241" lon="2.39681">
        <ele>9</ele>
        <time>2023-08-05T08:41:34Z</time>
      </trkpt>
      <trkpt lat="51.0241" lon="2.39679">
        <ele>9</ele>
        <time>2023-08-05T08:41:35Z</time>
      </trkpt>
      <trkpt lat="51.0241" lon="2.39678">
        <ele>9</ele>
        <time>2023-08-05T08:41:36Z</time>
      </trkpt>
      <trkpt lat="51.02408" lon="2.39674">
        <ele>9</ele>
        <time>2023-08-05T08:41:38Z</time>
      </trkpt>
      <trkpt lat="51.02407" lon="2.39668">
        <ele>9</ele>
        <time>2023-08-05T08:41:40Z</time>
      </trkpt>
      <trkpt lat="51.02399" lon="2.39646">
        <ele>8.8</ele>
        <time>2023-08-05T08:41:46Z</time>
      </trkpt>
      <trkpt lat="51.02394" lon="2.39635">
        <ele>9</ele>
        <time>2023-08-05T08:41:49Z</time>
      </trkpt>
      <trkpt lat="51.02392" lon="2.39632">
        <ele>9</ele>
        <time>2023-08-05T08:41:50Z</time>
      </trkpt>
      <trkpt lat="51.0239" lon="2.39629">
        <ele>9.2</ele>
        <time>2023-08-05T08:41:51Z</time>
      </trkpt>
      <trkpt lat="51.02389" lon="2.39626">
        <ele>9.2</ele>
        <time>2023-08-05T08:41:52Z</time>
      </trkpt>
      <trkpt lat="51.02387" lon="2.39624">
        <ele>9.2</ele>
        <time>2023-08-05T08:41:53Z</time>
      </trkpt>
      <trkpt lat="51.02385" lon="2.39621">
        <ele>9.4</ele>
        <time>2023-08-05T08:41:54Z</time>
      </trkpt>
      <trkpt lat="51.0238" lon="2.39617">
        <ele>9.6</ele>
        <time>2023-08-05T08:41:56Z</time>
      </trkpt>
      <trkpt lat="51.02376" lon="2.39618">
        <ele>9.8</ele>
        <time>2023-08-05T08:41:57Z</time>
      </trkpt>
      <trkpt lat="51.02373" lon="2.39621">
        <ele>9.8</ele>
        <time>2023-08-05T08:41:58Z</time>
      </trkpt>
      <trkpt lat="51.02363" lon="2.39632">
        <ele>9.8</ele>
        <time>2023-08-05T08:42:01Z</time>
      </trkpt>
      <trkpt lat="51.0236" lon="2.39637">
        <ele>9.8</ele>
        <time>2023-08-05T08:42:02Z</time>
      </trkpt>
      <trkpt lat="51.02357" lon="2.39642">
        <ele>9.8</ele>
        <time>2023-08-05T08:42:03Z</time>
      </trkpt>
      <trkpt lat="51.02332" lon="2.39677">
        <ele>10</ele>
        <time>2023-08-05T08:42:10Z</time>
      </trkpt>
      <trkpt lat="51.02296" lon="2.39721">
        <ele>10</ele>
        <time>2023-08-05T08:42:19Z</time>
      </trkpt>
      <trkpt lat="51.02278" lon="2.39734">
        <ele>9.8</ele>
        <time>2023-08-05T08:42:23Z</time>
      </trkpt>
      <trkpt lat="51.02263" lon="2.39738">
        <ele>9.8</ele>
        <time>2023-08-05T08:42:26Z</time>
      </trkpt>
      <trkpt lat="51.02226" lon="2.39734">
        <ele>9.8</ele>
        <time>2023-08-05T08:42:33Z</time>
      </trkpt>
      <trkpt lat="51.02173" lon="2.39723">
        <ele>10</ele>
        <time>2023-08-05T08:42:43Z</time>
      </trkpt>
      <trkpt lat="51.02126" lon="2.39711">
        <ele>10</ele>
        <time>2023-08-05T08:42:52Z</time>
      </trkpt>
      <trkpt lat="51.02101" lon="2.39702">
        <ele>10</ele>
        <time>2023-08-05T08:42:57Z</time>
      </trkpt>
      <trkpt lat="51.02091" lon="2.397">
        <ele>10</ele>
        <time>2023-08-05T08:42:59Z</time>
      </trkpt>
      <trkpt lat="51.02087" lon="2.39698">
        <ele>10.4</ele>
        <time>2023-08-05T08:43:00Z</time>
      </trkpt>
      <trkpt lat="51.02082" lon="2.39696">
        <ele>10.4</ele>
        <time>2023-08-05T08:43:01Z</time>
      </trkpt>
      <trkpt lat="51.02077" lon="2.39694">
        <ele>10.4</ele>
        <time>2023-08-05T08:43:02Z</time>
      </trkpt>
      <trkpt lat="51.02073" lon="2.39692">
        <ele>10.2</ele>
        <time>2023-08-05T08:43:03Z</time>
      </trkpt>
      <trkpt lat="51.02068" lon="2.3969">
        <ele>10</ele>
        <time>2023-08-05T08:43:04Z</time>
      </trkpt>
      <trkpt lat="51.02063" lon="2.39689">
        <ele>10</ele>
        <time>2023-08-05T08:43:05Z</time>
      </trkpt>
      <trkpt lat="51.02058" lon="2.39689">
        <ele>10</ele>
        <time>2023-08-05T08:43:06Z</time>
      </trkpt>
      <trkpt lat="51.02053" lon="2.39689">
        <ele>10.2</ele>
        <time>2023-08-05T08:43:07Z</time>
      </trkpt>
      <trkpt lat="51.02049" lon="2.39691">
        <ele>10.2</ele>
        <time>2023-08-05T08:43:08Z</time>
      </trkpt>
      <trkpt lat="51.02039" lon="2.39697">
        <ele>10.2</ele>
        <time>2023-08-05T08:43:10Z</time>
      </trkpt>
      <trkpt lat="51.0203" lon="2.39706">
        <ele>10.2</ele>
        <time>2023-08-05T08:43:12Z</time>
      </trkpt>
      <trkpt lat="51.02018" lon="2.39723">
        <ele>10.2</ele>
        <time>2023-08-05T08:43:15Z</time>
      </trkpt>
      <trkpt lat="51.02014" lon="2.39729">
        <ele>10.2</ele>
        <time>2023-08-05T08:43:16Z</time>
      </trkpt>
      <trkpt lat="51.0201" lon="2.39741">
        <ele>10.2</ele>
        <time>2023-08-05T08:43:18Z</time>
      </trkpt>
      <trkpt lat="51.02009" lon="2.39745">
        <ele>10.2</ele>
        <time>2023-08-05T08:43:19Z</time>
      </trkpt>
      <trkpt lat="51.02007" lon="2.39749">
        <ele>10.2</ele>
        <time>2023-08-05T08:43:20Z</time>
      </trkpt>
      <trkpt lat="51.02005" lon="2.39751">
        <ele>10.2</ele>
        <time>2023-08-05T08:43:21Z</time>
      </trkpt>
      <trkpt lat="51.02003" lon="2.39754">
        <ele>10.2</ele>
        <time>2023-08-05T08:43:22Z</time>
      </trkpt>
      <trkpt lat="51.02001" lon="2.39756">
        <ele>10</ele>
        <time>2023-08-05T08:43:23Z</time>
      </trkpt>
      <trkpt lat="51.01998" lon="2.39758">
        <ele>10</ele>
        <time>2023-08-05T08:43:24Z</time>
      </trkpt>
      <trkpt lat="51.01992" lon="2.39759">
        <ele>10</ele>
        <time>2023-08-05T08:43:26Z</time>
      </trkpt>
      <trkpt lat="51.01988" lon="2.3976">
        <ele>9.8</ele>
        <time>2023-08-05T08:43:27Z</time>
      </trkpt>
      <trkpt lat="51.01984" lon="2.39762">
        <ele>9.8</ele>
        <time>2023-08-05T08:43:28Z</time>
      </trkpt>
      <trkpt lat="51.01978" lon="2.39768">
        <ele>9.8</ele>
        <time>2023-08-05T08:43:30Z</time>
      </trkpt>
      <trkpt lat="51.01976" lon="2.39773">
        <ele>9.8</ele>
        <time>2023-08-05T08:43:31Z</time>
      </trkpt>
      <trkpt lat="51.01975" lon="2.39777">
        <ele>9.8</ele>
        <time>2023-08-05T08:43:32Z</time>
      </trkpt>
      <trkpt lat="51.01973" lon="2.39782">
        <ele>9.8</ele>
        <time>2023-08-05T08:43:33Z</time>
      </trkpt>
      <trkpt lat="51.01971" lon="2.39786">
        <ele>9.8</ele>
        <time>2023-08-05T08:43:34Z</time>
      </trkpt>
      <trkpt lat="51.01969" lon="2.39791">
        <ele>9.8</ele>
        <time>2023-08-05T08:43:35Z</time>
      </trkpt>
      <trkpt lat="51.01966" lon="2.39795">
        <ele>10</ele>
        <time>2023-08-05T08:43:36Z</time>
      </trkpt>
      <trkpt lat="51.0194" lon="2.39825">
        <ele>10</ele>
        <time>2023-08-05T08:43:43Z</time>
      </trkpt>
      <trkpt lat="51.01897" lon="2.39878">
        <ele>10.2</ele>
        <time>2023-08-05T08:43:54Z</time>
      </trkpt>
      <trkpt lat="51.01861" lon="2.39936">
        <ele>10.4</ele>
        <time>2023-08-05T08:44:04Z</time>
      </trkpt>
      <trkpt lat="51.01843" lon="2.39971">
        <ele>10.6</ele>
        <time>2023-08-05T08:44:10Z</time>
      </trkpt>
      <trkpt lat="51.01841" lon="2.39976">
        <ele>10.6</ele>
        <time>2023-08-05T08:44:11Z</time>
      </trkpt>
      <trkpt lat="51.01839" lon="2.39981">
        <ele>11</ele>
        <time>2023-08-05T08:44:12Z</time>
      </trkpt>
      <trkpt lat="51.01837" lon="2.39985">
        <ele>11</ele>
        <time>2023-08-05T08:44:13Z</time>
      </trkpt>
      <trkpt lat="51.01835" lon="2.39989">
        <ele>11.2</ele>
        <time>2023-08-05T08:44:14Z</time>
      </trkpt>
      <trkpt lat="51.01832" lon="2.39993">
        <ele>11.2</ele>
        <time>2023-08-05T08:44:15Z</time>
      </trkpt>
      <trkpt lat="51.0183" lon="2.39998">
        <ele>11.4</ele>
        <time>2023-08-05T08:44:16Z</time>
      </trkpt>
      <trkpt lat="51.01828" lon="2.40002">
        <ele>11.4</ele>
        <time>2023-08-05T08:44:17Z</time>
      </trkpt>
      <trkpt lat="51.01823" lon="2.40014">
        <ele>11.8</ele>
        <time>2023-08-05T08:44:20Z</time>
      </trkpt>
      <trkpt lat="51.01821" lon="2.40018">
        <ele>11.8</ele>
        <time>2023-08-05T08:44:21Z</time>
      </trkpt>
      <trkpt lat="51.01819" lon="2.40022">
        <ele>12</ele>
        <time>2023-08-05T08:44:22Z</time>
      </trkpt>
      <trkpt lat="51.01817" lon="2.40027">
        <ele>12.2</ele>
        <time>2023-08-05T08:44:23Z</time>
      </trkpt>
      <trkpt lat="51.01806" lon="2.40048">
        <ele>12.8</ele>
        <time>2023-08-05T08:44:28Z</time>
      </trkpt>
      <trkpt lat="51.01804" lon="2.40052">
        <ele>13.2</ele>
        <time>2023-08-05T08:44:29Z</time>
      </trkpt>
      <trkpt lat="51.01803" lon="2.40056">
        <ele>13.6</ele>
        <time>2023-08-05T08:44:30Z</time>
      </trkpt>
      <trkpt lat="51.018" lon="2.40062">
        <ele>13.6</ele>
        <time>2023-08-05T08:44:31Z</time>
      </trkpt>
      <trkpt lat="51.01795" lon="2.40079">
        <ele>14</ele>
        <time>2023-08-05T08:44:34Z</time>
      </trkpt>
      <trkpt lat="51.01792" lon="2.40085">
        <ele>14.2</ele>
        <time>2023-08-05T08:44:35Z</time>
      </trkpt>
      <trkpt lat="51.0179" lon="2.40091">
        <ele>14.4</ele>
        <time>2023-08-05T08:44:36Z</time>
      </trkpt>
      <trkpt lat="51.01787" lon="2.40098">
        <ele>14.6</ele>
        <time>2023-08-05T08:44:37Z</time>
      </trkpt>
      <trkpt lat="51.01785" lon="2.40103">
        <ele>14.8</ele>
        <time>2023-08-05T08:44:38Z</time>
      </trkpt>
      <trkpt lat="51.01783" lon="2.40109">
        <ele>15</ele>
        <time>2023-08-05T08:44:39Z</time>
      </trkpt>
      <trkpt lat="51.01781" lon="2.40114">
        <ele>15</ele>
        <time>2023-08-05T08:44:40Z</time>
      </trkpt>
      <trkpt lat="51.01778" lon="2.4012">
        <ele>15.2</ele>
        <time>2023-08-05T08:44:41Z</time>
      </trkpt>
      <trkpt lat="51.01777" lon="2.40125">
        <ele>15.2</ele>
        <time>2023-08-05T08:44:42Z</time>
      </trkpt>
      <trkpt lat="51.01774" lon="2.40131">
        <ele>15.4</ele>
        <time>2023-08-05T08:44:43Z</time>
      </trkpt>
      <trkpt lat="51.01772" lon="2.40137">
        <ele>15.4</ele>
        <time>2023-08-05T08:44:44Z</time>
      </trkpt>
      <trkpt lat="51.0177" lon="2.40143">
        <ele>15.4</ele>
        <time>2023-08-05T08:44:45Z</time>
      </trkpt>
      <trkpt lat="51.01767" lon="2.40149">
        <ele>15.4</ele>
        <time>2023-08-05T08:44:46Z</time>
      </trkpt>
      <trkpt lat="51.01765" lon="2.40156">
        <ele>15.4</ele>
        <time>2023-08-05T08:44:47Z</time>
      </trkpt>
      <trkpt lat="51.01762" lon="2.40162">
        <ele>15.6</ele>
        <time>2023-08-05T08:44:48Z</time>
      </trkpt>
      <trkpt lat="51.0176" lon="2.40168">
        <ele>15.6</ele>
        <time>2023-08-05T08:44:49Z</time>
      </trkpt>
      <trkpt lat="51.01757" lon="2.40175">
        <ele>15.4</ele>
        <time>2023-08-05T08:44:50Z</time>
      </trkpt>
      <trkpt lat="51.01755" lon="2.40182">
        <ele>15.4</ele>
        <time>2023-08-05T08:44:51Z</time>
      </trkpt>
      <trkpt lat="51.01753" lon="2.4019">
        <ele>15.4</ele>
        <time>2023-08-05T08:44:52Z</time>
      </trkpt>
      <trkpt lat="51.0175" lon="2.40197">
        <ele>15.4</ele>
        <time>2023-08-05T08:44:53Z</time>
      </trkpt>
      <trkpt lat="51.01747" lon="2.40204">
        <ele>15.2</ele>
        <time>2023-08-05T08:44:54Z</time>
      </trkpt>
      <trkpt lat="51.01744" lon="2.4021">
        <ele>15.2</ele>
        <time>2023-08-05T08:44:55Z</time>
      </trkpt>
      <trkpt lat="51.0174" lon="2.40217">
        <ele>15</ele>
        <time>2023-08-05T08:44:56Z</time>
      </trkpt>
      <trkpt lat="51.01737" lon="2.40225">
        <ele>15</ele>
        <time>2023-08-05T08:44:57Z</time>
      </trkpt>
      <trkpt lat="51.01734" lon="2.40233">
        <ele>14.8</ele>
        <time>2023-08-05T08:44:58Z</time>
      </trkpt>
      <trkpt lat="51.01729" lon="2.40241">
        <ele>14.6</ele>
        <time>2023-08-05T08:44:59Z</time>
      </trkpt>
      <trkpt lat="51.01725" lon="2.40248">
        <ele>14.4</ele>
        <time>2023-08-05T08:45:00Z</time>
      </trkpt>
      <trkpt lat="51.01719" lon="2.40256">
        <ele>14.2</ele>
        <time>2023-08-05T08:45:01Z</time>
      </trkpt>
      <trkpt lat="51.01708" lon="2.40271">
        <ele>14</ele>
        <time>2023-08-05T08:45:03Z</time>
      </trkpt>
      <trkpt lat="51.01701" lon="2.40277">
        <ele>13.4</ele>
        <time>2023-08-05T08:45:04Z</time>
      </trkpt>
      <trkpt lat="51.01695" lon="2.40283">
        <ele>13.4</ele>
        <time>2023-08-05T08:45:05Z</time>
      </trkpt>
      <trkpt lat="51.01681" lon="2.4029">
        <ele>12.6</ele>
        <time>2023-08-05T08:45:07Z</time>
      </trkpt>
      <trkpt lat="51.01674" lon="2.40291">
        <ele>12.2</ele>
        <time>2023-08-05T08:45:08Z</time>
      </trkpt>
      <trkpt lat="51.0166" lon="2.4029">
        <ele>11.6</ele>
        <time>2023-08-05T08:45:10Z</time>
      </trkpt>
      <trkpt lat="51.01652" lon="2.40288">
        <ele>11</ele>
        <time>2023-08-05T08:45:11Z</time>
      </trkpt>
      <trkpt lat="51.01646" lon="2.40284">
        <ele>10.8</ele>
        <time>2023-08-05T08:45:12Z</time>
      </trkpt>
      <trkpt lat="51.0164" lon="2.4028">
        <ele>10.6</ele>
        <time>2023-08-05T08:45:13Z</time>
      </trkpt>
      <trkpt lat="51.01635" lon="2.40276">
        <ele>10.6</ele>
        <time>2023-08-05T08:45:14Z</time>
      </trkpt>
      <trkpt lat="51.0163" lon="2.40271">
        <ele>10.2</ele>
        <time>2023-08-05T08:45:15Z</time>
      </trkpt>
      <trkpt lat="51.01626" lon="2.40266">
        <ele>10</ele>
        <time>2023-08-05T08:45:16Z</time>
      </trkpt>
      <trkpt lat="51.01623" lon="2.40261">
        <ele>9.8</ele>
        <time>2023-08-05T08:45:17Z</time>
      </trkpt>
      <trkpt lat="51.01619" lon="2.40255">
        <ele>9.8</ele>
        <time>2023-08-05T08:45:18Z</time>
      </trkpt>
      <trkpt lat="51.01616" lon="2.4025">
        <ele>9.8</ele>
        <time>2023-08-05T08:45:19Z</time>
      </trkpt>
      <trkpt lat="51.01613" lon="2.40244">
        <ele>9.6</ele>
        <time>2023-08-05T08:45:20Z</time>
      </trkpt>
      <trkpt lat="51.01609" lon="2.40239">
        <ele>9.6</ele>
        <time>2023-08-05T08:45:21Z</time>
      </trkpt>
      <trkpt lat="51.01606" lon="2.40233">
        <ele>9.8</ele>
        <time>2023-08-05T08:45:22Z</time>
      </trkpt>
      <trkpt lat="51.016" lon="2.40223">
        <ele>9.8</ele>
        <time>2023-08-05T08:45:24Z</time>
      </trkpt>
      <trkpt lat="51.01597" lon="2.40218">
        <ele>9.8</ele>
        <time>2023-08-05T08:45:25Z</time>
      </trkpt>
      <trkpt lat="51.01593" lon="2.40214">
        <ele>9.8</ele>
        <time>2023-08-05T08:45:26Z</time>
      </trkpt>
      <trkpt lat="51.0159" lon="2.4021">
        <ele>9.8</ele>
        <time>2023-08-05T08:45:27Z</time>
      </trkpt>
      <trkpt lat="51.01586" lon="2.40206">
        <ele>9.8</ele>
        <time>2023-08-05T08:45:28Z</time>
      </trkpt>
      <trkpt lat="51.01582" lon="2.40203">
        <ele>9.8</ele>
        <time>2023-08-05T08:45:29Z</time>
      </trkpt>
      <trkpt lat="51.01544" lon="2.40175">
        <ele>10</ele>
        <time>2023-08-05T08:45:38Z</time>
      </trkpt>
      <trkpt lat="51.01514" lon="2.40155">
        <ele>10.2</ele>
        <time>2023-08-05T08:45:45Z</time>
      </trkpt>
      <trkpt lat="51.01496" lon="2.40143">
        <ele>10.2</ele>
        <time>2023-08-05T08:45:49Z</time>
      </trkpt>
      <trkpt lat="51.01471" lon="2.40125">
        <ele>10</ele>
        <time>2023-08-05T08:45:55Z</time>
      </trkpt>
      <trkpt lat="51.01467" lon="2.40113">
        <ele>10</ele>
        <time>2023-08-05T08:45:57Z</time>
      </trkpt>
      <trkpt lat="51.01468" lon="2.40108">
        <ele>10</ele>
        <time>2023-08-05T08:45:58Z</time>
      </trkpt>
      <trkpt lat="51.01471" lon="2.40104">
        <ele>10</ele>
        <time>2023-08-05T08:45:59Z</time>
      </trkpt>
      <trkpt lat="51.01474" lon="2.40103">
        <ele>9.8</ele>
        <time>2023-08-05T08:46:00Z</time>
      </trkpt>
      <trkpt lat="51.01477" lon="2.40102">
        <ele>9.8</ele>
        <time>2023-08-05T08:46:01Z</time>
      </trkpt>
      <trkpt lat="51.01479" lon="2.40101">
        <ele>9.6</ele>
        <time>2023-08-05T08:46:02Z</time>
      </trkpt>
      <trkpt lat="51.01481" lon="2.40098">
        <ele>9.6</ele>
        <time>2023-08-05T08:46:03Z</time>
      </trkpt>
      <trkpt lat="51.01483" lon="2.40096">
        <ele>9.4</ele>
        <time>2023-08-05T08:46:04Z</time>
      </trkpt>
      <trkpt lat="51.01485" lon="2.40093">
        <ele>9.4</ele>
        <time>2023-08-05T08:46:05Z</time>
      </trkpt>
      <trkpt lat="51.01487" lon="2.40091">
        <ele>9.2</ele>
        <time>2023-08-05T08:46:06Z</time>
      </trkpt>
      <trkpt lat="51.01488" lon="2.40088">
        <ele>9.2</ele>
        <time>2023-08-05T08:46:07Z</time>
      </trkpt>
      <trkpt lat="51.01491" lon="2.40081">
        <ele>9.2</ele>
        <time>2023-08-05T08:46:09Z</time>
      </trkpt>
      <trkpt lat="51.01491" lon="2.40074">
        <ele>9.2</ele>
        <time>2023-08-05T08:46:10Z</time>
      </trkpt>
      <trkpt lat="51.01491" lon="2.40069">
        <ele>9.2</ele>
        <time>2023-08-05T08:46:11Z</time>
      </trkpt>
      <trkpt lat="51.0149" lon="2.40065">
        <ele>9.2</ele>
        <time>2023-08-05T08:46:12Z</time>
      </trkpt>
      <trkpt lat="51.01491" lon="2.40061">
        <ele>9.2</ele>
        <time>2023-08-05T08:46:13Z</time>
      </trkpt>
      <trkpt lat="51.01491" lon="2.40056">
        <ele>9.2</ele>
        <time>2023-08-05T08:46:14Z</time>
      </trkpt>
      <trkpt lat="51.01492" lon="2.40052">
        <ele>9.2</ele>
        <time>2023-08-05T08:46:15Z</time>
      </trkpt>
      <trkpt lat="51.01493" lon="2.40046">
        <ele>9</ele>
        <time>2023-08-05T08:46:16Z</time>
      </trkpt>
      <trkpt lat="51.01494" lon="2.40041">
        <ele>9</ele>
        <time>2023-08-05T08:46:17Z</time>
      </trkpt>
      <trkpt lat="51.01496" lon="2.40024">
        <ele>9</ele>
        <time>2023-08-05T08:46:20Z</time>
      </trkpt>
      <trkpt lat="51.01501" lon="2.39988">
        <ele>8.8</ele>
        <time>2023-08-05T08:46:26Z</time>
      </trkpt>
      <trkpt lat="51.01504" lon="2.39976">
        <ele>8.8</ele>
        <time>2023-08-05T08:46:28Z</time>
      </trkpt>
      <trkpt lat="51.01505" lon="2.39968">
        <ele>8.8</ele>
        <time>2023-08-05T08:46:29Z</time>
      </trkpt>
      <trkpt lat="51.01505" lon="2.39923">
        <ele>8.8</ele>
        <time>2023-08-05T08:46:35Z</time>
      </trkpt>
      <trkpt lat="51.01503" lon="2.39902">
        <ele>9</ele>
        <time>2023-08-05T08:46:38Z</time>
      </trkpt>
      <trkpt lat="51.01504" lon="2.39886">
        <ele>9</ele>
        <time>2023-08-05T08:46:40Z</time>
      </trkpt>
      <trkpt lat="51.01505" lon="2.39879">
        <ele>9</ele>
        <time>2023-08-05T08:46:41Z</time>
      </trkpt>
      <trkpt lat="51.01506" lon="2.39855">
        <ele>9.2</ele>
        <time>2023-08-05T08:46:44Z</time>
      </trkpt>
      <trkpt lat="51.01504" lon="2.39849">
        <ele>9.2</ele>
        <time>2023-08-05T08:46:45Z</time>
      </trkpt>
      <trkpt lat="51.01502" lon="2.39844">
        <ele>9.2</ele>
        <time>2023-08-05T08:46:46Z</time>
      </trkpt>
      <trkpt lat="51.01501" lon="2.3984">
        <ele>9.2</ele>
        <time>2023-08-05T08:46:47Z</time>
      </trkpt>
      <trkpt lat="51.01497" lon="2.39836">
        <ele>9.2</ele>
        <time>2023-08-05T08:46:48Z</time>
      </trkpt>
      <trkpt lat="51.01492" lon="2.39833">
        <ele>9.2</ele>
        <time>2023-08-05T08:46:50Z</time>
      </trkpt>
      <trkpt lat="51.01489" lon="2.39832">
        <ele>9.2</ele>
        <time>2023-08-05T08:46:51Z</time>
      </trkpt>
      <trkpt lat="51.01481" lon="2.39829">
        <ele>9</ele>
        <time>2023-08-05T08:46:53Z</time>
      </trkpt>
      <trkpt lat="51.01477" lon="2.39828">
        <ele>9</ele>
        <time>2023-08-05T08:46:54Z</time>
      </trkpt>
      <trkpt lat="51.01473" lon="2.39827">
        <ele>9</ele>
        <time>2023-08-05T08:46:55Z</time>
      </trkpt>
      <trkpt lat="51.01467" lon="2.39826">
        <ele>9</ele>
        <time>2023-08-05T08:46:56Z</time>
      </trkpt>
      <trkpt lat="51.01459" lon="2.39823">
        <ele>9</ele>
        <time>2023-08-05T08:46:58Z</time>
      </trkpt>
      <trkpt lat="51.01452" lon="2.39822">
        <ele>9</ele>
        <time>2023-08-05T08:47:00Z</time>
      </trkpt>
      <trkpt lat="51.01448" lon="2.39821">
        <ele>9.2</ele>
        <time>2023-08-05T08:47:01Z</time>
      </trkpt>
      <trkpt lat="51.01438" lon="2.39819">
        <ele>9.2</ele>
        <time>2023-08-05T08:47:04Z</time>
      </trkpt>
      <trkpt lat="51.01436" lon="2.39818">
        <ele>9.2</ele>
        <time>2023-08-05T08:47:05Z</time>
      </trkpt>
      <trkpt lat="51.01433" lon="2.39816">
        <ele>9.4</ele>
        <time>2023-08-05T08:47:06Z</time>
      </trkpt>
      <trkpt lat="51.0143" lon="2.39812">
        <ele>9.4</ele>
        <time>2023-08-05T08:47:07Z</time>
      </trkpt>
      <trkpt lat="51.01427" lon="2.39807">
        <ele>9.4</ele>
        <time>2023-08-05T08:47:08Z</time>
      </trkpt>
      <trkpt lat="51.01425" lon="2.39801">
        <ele>9.4</ele>
        <time>2023-08-05T08:47:09Z</time>
      </trkpt>
      <trkpt lat="51.01423" lon="2.39794">
        <ele>9.4</ele>
        <time>2023-08-05T08:47:10Z</time>
      </trkpt>
      <trkpt lat="51.01422" lon="2.3978">
        <ele>9.4</ele>
        <time>2023-08-05T08:47:12Z</time>
      </trkpt>
      <trkpt lat="51.0142" lon="2.39774">
        <ele>9.4</ele>
        <time>2023-08-05T08:47:13Z</time>
      </trkpt>
      <trkpt lat="51.01413" lon="2.39764">
        <ele>9.4</ele>
        <time>2023-08-05T08:47:15Z</time>
      </trkpt>
      <trkpt lat="51.01409" lon="2.39761">
        <ele>9.6</ele>
        <time>2023-08-05T08:47:16Z</time>
      </trkpt>
      <trkpt lat="51.01404" lon="2.39758">
        <ele>9.6</ele>
        <time>2023-08-05T08:47:17Z</time>
      </trkpt>
      <trkpt lat="51.014" lon="2.39756">
        <ele>9.6</ele>
        <time>2023-08-05T08:47:18Z</time>
      </trkpt>
      <trkpt lat="51.01395" lon="2.39754">
        <ele>9.8</ele>
        <time>2023-08-05T08:47:19Z</time>
      </trkpt>
      <trkpt lat="51.01378" lon="2.39745">
        <ele>10</ele>
        <time>2023-08-05T08:47:23Z</time>
      </trkpt>
      <trkpt lat="51.01349" lon="2.39731">
        <ele>10.4</ele>
        <time>2023-08-05T08:47:29Z</time>
      </trkpt>
      <trkpt lat="51.01343" lon="2.39728">
        <ele>10.4</ele>
        <time>2023-08-05T08:47:30Z</time>
      </trkpt>
      <trkpt lat="51.01306" lon="2.39712">
        <ele>11.2</ele>
        <time>2023-08-05T08:47:38Z</time>
      </trkpt>
      <trkpt lat="51.01296" lon="2.39707">
        <ele>11</ele>
        <time>2023-08-05T08:47:40Z</time>
      </trkpt>
      <trkpt lat="51.01283" lon="2.39702">
        <ele>10.6</ele>
        <time>2023-08-05T08:47:43Z</time>
      </trkpt>
      <trkpt lat="51.01278" lon="2.39699">
        <ele>10.6</ele>
        <time>2023-08-05T08:47:44Z</time>
      </trkpt>
      <trkpt lat="51.01272" lon="2.39697">
        <ele>10.6</ele>
        <time>2023-08-05T08:47:45Z</time>
      </trkpt>
      <trkpt lat="51.01264" lon="2.39695">
        <ele>10.4</ele>
        <time>2023-08-05T08:47:47Z</time>
      </trkpt>
      <trkpt lat="51.01261" lon="2.39693">
        <ele>10.4</ele>
        <time>2023-08-05T08:47:48Z</time>
      </trkpt>
      <trkpt lat="51.01221" lon="2.39676">
        <ele>10.2</ele>
        <time>2023-08-05T08:47:57Z</time>
      </trkpt>
      <trkpt lat="51.01171" lon="2.39657">
        <ele>10</ele>
        <time>2023-08-05T08:48:08Z</time>
      </trkpt>
      <trkpt lat="51.01139" lon="2.39646">
        <ele>10.2</ele>
        <time>2023-08-05T08:48:15Z</time>
      </trkpt>
      <trkpt lat="51.01135" lon="2.39645">
        <ele>10.2</ele>
        <time>2023-08-05T08:48:16Z</time>
      </trkpt>
      <trkpt lat="51.0113" lon="2.39643">
        <ele>10.2</ele>
        <time>2023-08-05T08:48:17Z</time>
      </trkpt>
      <trkpt lat="51.0113" lon="2.39643">
        <ele>10.2</ele>
        <time>2023-08-05T08:48:18Z</time>
      </trkpt>
      <trkpt lat="51.01121" lon="2.39641">
        <ele>10.2</ele>
        <time>2023-08-05T08:48:19Z</time>
      </trkpt>
      <trkpt lat="51.01112" lon="2.39639">
        <ele>10.2</ele>
        <time>2023-08-05T08:48:21Z</time>
      </trkpt>
      <trkpt lat="51.01107" lon="2.39638">
        <ele>10.2</ele>
        <time>2023-08-05T08:48:22Z</time>
      </trkpt>
      <trkpt lat="51.01103" lon="2.39637">
        <ele>10.2</ele>
        <time>2023-08-05T08:48:23Z</time>
      </trkpt>
      <trkpt lat="51.01086" lon="2.39631">
        <ele>10.4</ele>
        <time>2023-08-05T08:48:27Z</time>
      </trkpt>
      <trkpt lat="51.01081" lon="2.39629">
        <ele>10.2</ele>
        <time>2023-08-05T08:48:28Z</time>
      </trkpt>
      <trkpt lat="51.01069" lon="2.39623">
        <ele>10.2</ele>
        <time>2023-08-05T08:48:31Z</time>
      </trkpt>
      <trkpt lat="51.01029" lon="2.39607">
        <ele>10.2</ele>
        <time>2023-08-05T08:48:40Z</time>
      </trkpt>
      <trkpt lat="51.01012" lon="2.396">
        <ele>10.2</ele>
        <time>2023-08-05T08:48:44Z</time>
      </trkpt>
      <trkpt lat="51.01008" lon="2.39599">
        <ele>10.4</ele>
        <time>2023-08-05T08:48:45Z</time>
      </trkpt>
      <trkpt lat="51.01003" lon="2.39598">
        <ele>10.4</ele>
        <time>2023-08-05T08:48:46Z</time>
      </trkpt>
      <trkpt lat="51.00999" lon="2.39597">
        <ele>10.4</ele>
        <time>2023-08-05T08:48:47Z</time>
      </trkpt>
      <trkpt lat="51.00995" lon="2.39596">
        <ele>10.4</ele>
        <time>2023-08-05T08:48:48Z</time>
      </trkpt>
      <trkpt lat="51.00991" lon="2.39596">
        <ele>10.4</ele>
        <time>2023-08-05T08:48:49Z</time>
      </trkpt>
      <trkpt lat="51.00986" lon="2.39595">
        <ele>10.4</ele>
        <time>2023-08-05T08:48:50Z</time>
      </trkpt>
      <trkpt lat="51.00982" lon="2.39595">
        <ele>10.4</ele>
        <time>2023-08-05T08:48:51Z</time>
      </trkpt>
      <trkpt lat="51.00978" lon="2.39594">
        <ele>10.4</ele>
        <time>2023-08-05T08:48:52Z</time>
      </trkpt>
      <trkpt lat="51.00974" lon="2.39593">
        <ele>10.4</ele>
        <time>2023-08-05T08:48:53Z</time>
      </trkpt>
      <trkpt lat="51.0097" lon="2.39592">
        <ele>10.6</ele>
        <time>2023-08-05T08:48:54Z</time>
      </trkpt>
      <trkpt lat="51.00949" lon="2.39587">
        <ele>10.6</ele>
        <time>2023-08-05T08:48:59Z</time>
      </trkpt>
      <trkpt lat="51.0094" lon="2.39586">
        <ele>10.6</ele>
        <time>2023-08-05T08:49:01Z</time>
      </trkpt>
      <trkpt lat="51.00909" lon="2.3959">
        <ele>10.6</ele>
        <time>2023-08-05T08:49:08Z</time>
      </trkpt>
      <trkpt lat="51.00905" lon="2.39591">
        <ele>10.6</ele>
        <time>2023-08-05T08:49:09Z</time>
      </trkpt>
      <trkpt lat="51.00884" lon="2.39591">
        <ele>10.6</ele>
        <time>2023-08-05T08:49:14Z</time>
      </trkpt>
      <trkpt lat="51.0088" lon="2.3959">
        <ele>10.6</ele>
        <time>2023-08-05T08:49:15Z</time>
      </trkpt>
      <trkpt lat="51.00876" lon="2.39589">
        <ele>10.6</ele>
        <time>2023-08-05T08:49:16Z</time>
      </trkpt>
      <trkpt lat="51.00873" lon="2.39588">
        <ele>10.6</ele>
        <time>2023-08-05T08:49:17Z</time>
      </trkpt>
      <trkpt lat="51.00868" lon="2.39587">
        <ele>10.6</ele>
        <time>2023-08-05T08:49:18Z</time>
      </trkpt>
      <trkpt lat="51.00864" lon="2.39586">
        <ele>10.6</ele>
        <time>2023-08-05T08:49:19Z</time>
      </trkpt>
      <trkpt lat="51.0086" lon="2.39585">
        <ele>10.6</ele>
        <time>2023-08-05T08:49:20Z</time>
      </trkpt>
      <trkpt lat="51.00852" lon="2.39584">
        <ele>10.6</ele>
        <time>2023-08-05T08:49:22Z</time>
      </trkpt>
      <trkpt lat="51.00834" lon="2.39581">
        <ele>10.8</ele>
        <time>2023-08-05T08:49:26Z</time>
      </trkpt>
      <trkpt lat="51.00809" lon="2.3958">
        <ele>10.8</ele>
        <time>2023-08-05T08:49:32Z</time>
      </trkpt>
      <trkpt lat="51.00804" lon="2.3958">
        <ele>10.8</ele>
        <time>2023-08-05T08:49:33Z</time>
      </trkpt>
      <trkpt lat="51.008" lon="2.3958">
        <ele>10.8</ele>
        <time>2023-08-05T08:49:34Z</time>
      </trkpt>
      <trkpt lat="51.00797" lon="2.39581">
        <ele>10.8</ele>
        <time>2023-08-05T08:49:35Z</time>
      </trkpt>
      <trkpt lat="51.00758" lon="2.39587">
        <ele>10.8</ele>
        <time>2023-08-05T08:49:44Z</time>
      </trkpt>
      <trkpt lat="51.0073" lon="2.39591">
        <ele>10.6</ele>
        <time>2023-08-05T08:49:51Z</time>
      </trkpt>
      <trkpt lat="51.0069" lon="2.3958">
        <ele>10.6</ele>
        <time>2023-08-05T08:50:00Z</time>
      </trkpt>
      <trkpt lat="51.00677" lon="2.39576">
        <ele>10.6</ele>
        <time>2023-08-05T08:50:03Z</time>
      </trkpt>
      <trkpt lat="51.00669" lon="2.39574">
        <ele>10.6</ele>
        <time>2023-08-05T08:50:05Z</time>
      </trkpt>
      <trkpt lat="51.00655" lon="2.39571">
        <ele>10.4</ele>
        <time>2023-08-05T08:50:08Z</time>
      </trkpt>
      <trkpt lat="51.00651" lon="2.3957">
        <ele>10.4</ele>
        <time>2023-08-05T08:50:09Z</time>
      </trkpt>
      <trkpt lat="51.00648" lon="2.3957">
        <ele>10.4</ele>
        <time>2023-08-05T08:50:10Z</time>
      </trkpt>
      <trkpt lat="51.00644" lon="2.39568">
        <ele>10.4</ele>
        <time>2023-08-05T08:50:11Z</time>
      </trkpt>
      <trkpt lat="51.0064" lon="2.39567">
        <ele>10.4</ele>
        <time>2023-08-05T08:50:12Z</time>
      </trkpt>
      <trkpt lat="51.00619" lon="2.39561">
        <ele>10.4</ele>
        <time>2023-08-05T08:50:17Z</time>
      </trkpt>
      <trkpt lat="51.00576" lon="2.39552">
        <ele>9.8</ele>
        <time>2023-08-05T08:50:27Z</time>
      </trkpt>
      <trkpt lat="51.00571" lon="2.39551">
        <ele>10</ele>
        <time>2023-08-05T08:50:28Z</time>
      </trkpt>
      <trkpt lat="51.0056" lon="2.39548">
        <ele>9.8</ele>
        <time>2023-08-05T08:50:31Z</time>
      </trkpt>
      <trkpt lat="51.0053" lon="2.39537">
        <ele>10.4</ele>
        <time>2023-08-05T08:50:38Z</time>
      </trkpt>
      <trkpt lat="51.00523" lon="2.39533">
        <ele>10.4</ele>
        <time>2023-08-05T08:50:40Z</time>
      </trkpt>
      <trkpt lat="51.00519" lon="2.3953">
        <ele>10.6</ele>
        <time>2023-08-05T08:50:41Z</time>
      </trkpt>
      <trkpt lat="51.0051" lon="2.39526">
        <ele>10.6</ele>
        <time>2023-08-05T08:50:43Z</time>
      </trkpt>
      <trkpt lat="51.00488" lon="2.3952">
        <ele>10.6</ele>
        <time>2023-08-05T08:50:48Z</time>
      </trkpt>
      <trkpt lat="51.0046" lon="2.39514">
        <ele>10.6</ele>
        <time>2023-08-05T08:50:55Z</time>
      </trkpt>
      <trkpt lat="51.00447" lon="2.39511">
        <ele>10.6</ele>
        <time>2023-08-05T08:50:58Z</time>
      </trkpt>
      <trkpt lat="51.00442" lon="2.3951">
        <ele>10.6</ele>
        <time>2023-08-05T08:50:59Z</time>
      </trkpt>
      <trkpt lat="51.00421" lon="2.39506">
        <ele>10.4</ele>
        <time>2023-08-05T08:51:04Z</time>
      </trkpt>
      <trkpt lat="51.00386" lon="2.39504">
        <ele>10.4</ele>
        <time>2023-08-05T08:51:12Z</time>
      </trkpt>
      <trkpt lat="51.00382" lon="2.39505">
        <ele>10.2</ele>
        <time>2023-08-05T08:51:13Z</time>
      </trkpt>
      <trkpt lat="51.00376" lon="2.39512">
        <ele>10.2</ele>
        <time>2023-08-05T08:51:15Z</time>
      </trkpt>
      <trkpt lat="51.00374" lon="2.39518">
        <ele>10.2</ele>
        <time>2023-08-05T08:51:16Z</time>
      </trkpt>
      <trkpt lat="51.00372" lon="2.39525">
        <ele>10.2</ele>
        <time>2023-08-05T08:51:17Z</time>
      </trkpt>
      <trkpt lat="51.00369" lon="2.39528">
        <ele>10</ele>
        <time>2023-08-05T08:51:18Z</time>
      </trkpt>
      <trkpt lat="51.00366" lon="2.39529">
        <ele>10</ele>
        <time>2023-08-05T08:51:19Z</time>
      </trkpt>
      <trkpt lat="51.00364" lon="2.39529">
        <ele>9.8</ele>
        <time>2023-08-05T08:51:20Z</time>
      </trkpt>
      <trkpt lat="51.00362" lon="2.39528">
        <ele>9.8</ele>
        <time>2023-08-05T08:51:21Z</time>
      </trkpt>
      <trkpt lat="51.0036" lon="2.39529">
        <ele>9.8</ele>
        <time>2023-08-05T08:51:22Z</time>
      </trkpt>
      <trkpt lat="51.00359" lon="2.3953">
        <ele>9.8</ele>
        <time>2023-08-05T08:51:23Z</time>
      </trkpt>
      <trkpt lat="51.00358" lon="2.3953">
        <ele>9.8</ele>
        <time>2023-08-05T08:51:24Z</time>
      </trkpt>
      <trkpt lat="51.00357" lon="2.39529">
        <ele>9.8</ele>
        <time>2023-08-05T08:51:25Z</time>
      </trkpt>
      <trkpt lat="51.00357" lon="2.39528">
        <ele>9.6</ele>
        <time>2023-08-05T08:51:26Z</time>
      </trkpt>
      <trkpt lat="51.00355" lon="2.39527">
        <ele>9.6</ele>
        <time>2023-08-05T08:51:27Z</time>
      </trkpt>
      <trkpt lat="51.00352" lon="2.39528">
        <ele>9.6</ele>
        <time>2023-08-05T08:51:29Z</time>
      </trkpt>
      <trkpt lat="51.00351" lon="2.39527">
        <ele>9.6</ele>
        <time>2023-08-05T08:51:30Z</time>
      </trkpt>
      <trkpt lat="51.00337" lon="2.39528">
        <ele>9.6</ele>
        <time>2023-08-05T08:51:36Z</time>
      </trkpt>
      <trkpt lat="51.0033" lon="2.39529">
        <ele>9.6</ele>
        <time>2023-08-05T08:51:39Z</time>
      </trkpt>
      <trkpt lat="51.00329" lon="2.39529">
        <ele>9.6</ele>
        <time>2023-08-05T08:51:40Z</time>
      </trkpt>
      <trkpt lat="51.00328" lon="2.39528">
        <ele>9.4</ele>
        <time>2023-08-05T08:51:41Z</time>
      </trkpt>
      <trkpt lat="51.00328" lon="2.39527">
        <ele>9.4</ele>
        <time>2023-08-05T08:51:42Z</time>
      </trkpt>
      <trkpt lat="51.00327" lon="2.39529">
        <ele>9.4</ele>
        <time>2023-08-05T08:51:43Z</time>
      </trkpt>
      <trkpt lat="51.00326" lon="2.3953">
        <ele>9.4</ele>
        <time>2023-08-05T08:51:44Z</time>
      </trkpt>
      <trkpt lat="51.00325" lon="2.39531">
        <ele>9.4</ele>
        <time>2023-08-05T08:51:45Z</time>
      </trkpt>
      <trkpt lat="51.00324" lon="2.39531">
        <ele>9.4</ele>
        <time>2023-08-05T08:51:46Z</time>
      </trkpt>
      <trkpt lat="51.00322" lon="2.39532">
        <ele>9.4</ele>
        <time>2023-08-05T08:51:47Z</time>
      </trkpt>
      <trkpt lat="51.0032" lon="2.39532">
        <ele>9.4</ele>
        <time>2023-08-05T08:51:48Z</time>
      </trkpt>
      <trkpt lat="51.00319" lon="2.39532">
        <ele>9.4</ele>
        <time>2023-08-05T08:51:49Z</time>
      </trkpt>
      <trkpt lat="51.00318" lon="2.39532">
        <ele>9.4</ele>
        <time>2023-08-05T08:51:50Z</time>
      </trkpt>
      <trkpt lat="51.00316" lon="2.39533">
        <ele>9.4</ele>
        <time>2023-08-05T08:51:51Z</time>
      </trkpt>
      <trkpt lat="51.00314" lon="2.39534">
        <ele>9.4</ele>
        <time>2023-08-05T08:51:52Z</time>
      </trkpt>
      <trkpt lat="51.00309" lon="2.39536">
        <ele>9.4</ele>
        <time>2023-08-05T08:51:54Z</time>
      </trkpt>
      <trkpt lat="51.00302" lon="2.39541">
        <ele>9.4</ele>
        <time>2023-08-05T08:51:57Z</time>
      </trkpt>
      <trkpt lat="51.00299" lon="2.39544">
        <ele>9.2</ele>
        <time>2023-08-05T08:51:58Z</time>
      </trkpt>
      <trkpt lat="51.00291" lon="2.39547">
        <ele>9.2</ele>
        <time>2023-08-05T08:52:00Z</time>
      </trkpt>
      <trkpt lat="51.0027" lon="2.39567">
        <ele>9.6</ele>
        <time>2023-08-05T08:52:05Z</time>
      </trkpt>
      <trkpt lat="51.00267" lon="2.39571">
        <ele>9.6</ele>
        <time>2023-08-05T08:52:06Z</time>
      </trkpt>
      <trkpt lat="51.00262" lon="2.39576">
        <ele>9.6</ele>
        <time>2023-08-05T08:52:07Z</time>
      </trkpt>
      <trkpt lat="51.00259" lon="2.3958">
        <ele>9.6</ele>
        <time>2023-08-05T08:52:08Z</time>
      </trkpt>
      <trkpt lat="51.00247" lon="2.39589">
        <ele>9.8</ele>
        <time>2023-08-05T08:52:11Z</time>
      </trkpt>
      <trkpt lat="51.00233" lon="2.39599">
        <ele>10</ele>
        <time>2023-08-05T08:52:15Z</time>
      </trkpt>
      <trkpt lat="51.00229" lon="2.39601">
        <ele>10</ele>
        <time>2023-08-05T08:52:16Z</time>
      </trkpt>
      <trkpt lat="51.00209" lon="2.39612">
        <ele>10.2</ele>
        <time>2023-08-05T08:52:22Z</time>
      </trkpt>
      <trkpt lat="51.002" lon="2.39618">
        <ele>10.2</ele>
        <time>2023-08-05T08:52:25Z</time>
      </trkpt>
      <trkpt lat="51.00197" lon="2.3962">
        <ele>10.2</ele>
        <time>2023-08-05T08:52:26Z</time>
      </trkpt>
      <trkpt lat="51.00193" lon="2.39623">
        <ele>10.2</ele>
        <time>2023-08-05T08:52:27Z</time>
      </trkpt>
      <trkpt lat="51.00184" lon="2.39631">
        <ele>10.2</ele>
        <time>2023-08-05T08:52:29Z</time>
      </trkpt>
      <trkpt lat="51.00176" lon="2.39641">
        <ele>10.4</ele>
        <time>2023-08-05T08:52:31Z</time>
      </trkpt>
      <trkpt lat="51.00172" lon="2.39646">
        <ele>10.4</ele>
        <time>2023-08-05T08:52:32Z</time>
      </trkpt>
      <trkpt lat="51.0016" lon="2.39666">
        <ele>10.4</ele>
        <time>2023-08-05T08:52:35Z</time>
      </trkpt>
      <trkpt lat="51.00157" lon="2.39672">
        <ele>10.4</ele>
        <time>2023-08-05T08:52:36Z</time>
      </trkpt>
      <trkpt lat="51.00154" lon="2.39677">
        <ele>10.2</ele>
        <time>2023-08-05T08:52:37Z</time>
      </trkpt>
      <trkpt lat="51.0014" lon="2.39695">
        <ele>10.2</ele>
        <time>2023-08-05T08:52:41Z</time>
      </trkpt>
      <trkpt lat="51.00133" lon="2.39701">
        <ele>10.2</ele>
        <time>2023-08-05T08:52:43Z</time>
      </trkpt>
      <trkpt lat="51.00113" lon="2.3971">
        <ele>10.4</ele>
        <time>2023-08-05T08:52:47Z</time>
      </trkpt>
      <trkpt lat="51.00085" lon="2.39718">
        <ele>10.4</ele>
        <time>2023-08-05T08:52:53Z</time>
      </trkpt>
      <trkpt lat="51.0007" lon="2.39722">
        <ele>10.4</ele>
        <time>2023-08-05T08:52:56Z</time>
      </trkpt>
      <trkpt lat="51.00062" lon="2.39729">
        <ele>10.4</ele>
        <time>2023-08-05T08:52:58Z</time>
      </trkpt>
      <trkpt lat="51.0006" lon="2.39734">
        <ele>10.4</ele>
        <time>2023-08-05T08:52:59Z</time>
      </trkpt>
      <trkpt lat="51.00061" lon="2.3974">
        <ele>10.4</ele>
        <time>2023-08-05T08:53:00Z</time>
      </trkpt>
      <trkpt lat="51.00061" lon="2.39747">
        <ele>10.4</ele>
        <time>2023-08-05T08:53:01Z</time>
      </trkpt>
      <trkpt lat="51.00061" lon="2.39766">
        <ele>10.4</ele>
        <time>2023-08-05T08:53:04Z</time>
      </trkpt>
      <trkpt lat="51.00058" lon="2.3977">
        <ele>10.4</ele>
        <time>2023-08-05T08:53:05Z</time>
      </trkpt>
      <trkpt lat="51.00055" lon="2.39773">
        <ele>10.4</ele>
        <time>2023-08-05T08:53:06Z</time>
      </trkpt>
      <trkpt lat="51.00052" lon="2.39776">
        <ele>10.4</ele>
        <time>2023-08-05T08:53:07Z</time>
      </trkpt>
      <trkpt lat="51.00049" lon="2.3978">
        <ele>10.4</ele>
        <time>2023-08-05T08:53:08Z</time>
      </trkpt>
      <trkpt lat="51.00045" lon="2.39786">
        <ele>10.4</ele>
        <time>2023-08-05T08:53:09Z</time>
      </trkpt>
      <trkpt lat="51.00042" lon="2.39792">
        <ele>10.4</ele>
        <time>2023-08-05T08:53:10Z</time>
      </trkpt>
      <trkpt lat="51.0004" lon="2.39807">
        <ele>10.4</ele>
        <time>2023-08-05T08:53:12Z</time>
      </trkpt>
      <trkpt lat="51.0004" lon="2.39814">
        <ele>10.4</ele>
        <time>2023-08-05T08:53:13Z</time>
      </trkpt>
      <trkpt lat="51.00042" lon="2.39822">
        <ele>10.4</ele>
        <time>2023-08-05T08:53:14Z</time>
      </trkpt>
      <trkpt lat="51.00044" lon="2.39844">
        <ele>10.4</ele>
        <time>2023-08-05T08:53:17Z</time>
      </trkpt>
      <trkpt lat="51.00045" lon="2.39853">
        <ele>10.4</ele>
        <time>2023-08-05T08:53:18Z</time>
      </trkpt>
      <trkpt lat="51.00047" lon="2.3987">
        <ele>10.4</ele>
        <time>2023-08-05T08:53:20Z</time>
      </trkpt>
      <trkpt lat="51.00049" lon="2.39884">
        <ele>10.6</ele>
        <time>2023-08-05T08:53:22Z</time>
      </trkpt>
      <trkpt lat="51.00052" lon="2.39892">
        <ele>10.6</ele>
        <time>2023-08-05T08:53:23Z</time>
      </trkpt>
      <trkpt lat="51.00061" lon="2.39928">
        <ele>10.6</ele>
        <time>2023-08-05T08:53:28Z</time>
      </trkpt>
      <trkpt lat="51.00063" lon="2.39949">
        <ele>10.6</ele>
        <time>2023-08-05T08:53:31Z</time>
      </trkpt>
      <trkpt lat="51.00065" lon="2.3997">
        <ele>10.8</ele>
        <time>2023-08-05T08:53:34Z</time>
      </trkpt>
      <trkpt lat="51.00066" lon="2.39976">
        <ele>10.8</ele>
        <time>2023-08-05T08:53:35Z</time>
      </trkpt>
      <trkpt lat="51.00067" lon="2.39984">
        <ele>10.8</ele>
        <time>2023-08-05T08:53:36Z</time>
      </trkpt>
      <trkpt lat="51.00068" lon="2.39991">
        <ele>11</ele>
        <time>2023-08-05T08:53:37Z</time>
      </trkpt>
      <trkpt lat="51.00068" lon="2.39998">
        <ele>11</ele>
        <time>2023-08-05T08:53:38Z</time>
      </trkpt>
      <trkpt lat="51.00067" lon="2.40018">
        <ele>11</ele>
        <time>2023-08-05T08:53:41Z</time>
      </trkpt>
      <trkpt lat="51.00067" lon="2.40036">
        <ele>11</ele>
        <time>2023-08-05T08:53:44Z</time>
      </trkpt>
      <trkpt lat="51.00066" lon="2.40041">
        <ele>10.8</ele>
        <time>2023-08-05T08:53:45Z</time>
      </trkpt>
      <trkpt lat="51.00061" lon="2.40051">
        <ele>10.8</ele>
        <time>2023-08-05T08:53:47Z</time>
      </trkpt>
      <trkpt lat="51.00057" lon="2.40055">
        <ele>10.8</ele>
        <time>2023-08-05T08:53:48Z</time>
      </trkpt>
      <trkpt lat="51.00054" lon="2.40058">
        <ele>10.6</ele>
        <time>2023-08-05T08:53:49Z</time>
      </trkpt>
      <trkpt lat="51.00052" lon="2.40062">
        <ele>10.6</ele>
        <time>2023-08-05T08:53:50Z</time>
      </trkpt>
      <trkpt lat="51.00051" lon="2.40068">
        <ele>10.4</ele>
        <time>2023-08-05T08:53:51Z</time>
      </trkpt>
      <trkpt lat="51.00047" lon="2.40072">
        <ele>10.4</ele>
        <time>2023-08-05T08:53:52Z</time>
      </trkpt>
      <trkpt lat="51.00045" lon="2.40077">
        <ele>10.4</ele>
        <time>2023-08-05T08:53:53Z</time>
      </trkpt>
      <trkpt lat="51.00042" lon="2.40082">
        <ele>10.4</ele>
        <time>2023-08-05T08:53:54Z</time>
      </trkpt>
      <trkpt lat="51.00039" lon="2.40085">
        <ele>10.4</ele>
        <time>2023-08-05T08:53:55Z</time>
      </trkpt>
      <trkpt lat="51.00036" lon="2.40092">
        <ele>10.2</ele>
        <time>2023-08-05T08:53:57Z</time>
      </trkpt>
      <trkpt lat="51.00032" lon="2.40096">
        <ele>10.2</ele>
        <time>2023-08-05T08:53:58Z</time>
      </trkpt>
      <trkpt lat="51.00029" lon="2.40098">
        <ele>10.2</ele>
        <time>2023-08-05T08:53:59Z</time>
      </trkpt>
      <trkpt lat="51.00027" lon="2.401">
        <ele>10</ele>
        <time>2023-08-05T08:54:00Z</time>
      </trkpt>
      <trkpt lat="51.00024" lon="2.40102">
        <ele>10</ele>
        <time>2023-08-05T08:54:01Z</time>
      </trkpt>
      <trkpt lat="51.00013" lon="2.40121">
        <ele>10</ele>
        <time>2023-08-05T08:54:05Z</time>
      </trkpt>
      <trkpt lat="51.00012" lon="2.40128">
        <ele>10</ele>
        <time>2023-08-05T08:54:06Z</time>
      </trkpt>
      <trkpt lat="51.00018" lon="2.4016">
        <ele>10.2</ele>
        <time>2023-08-05T08:54:10Z</time>
      </trkpt>
      <trkpt lat="51.0002" lon="2.40192">
        <ele>10.2</ele>
        <time>2023-08-05T08:54:14Z</time>
      </trkpt>
      <trkpt lat="51.00018" lon="2.40217">
        <ele>10.2</ele>
        <time>2023-08-05T08:54:18Z</time>
      </trkpt>
      <trkpt lat="51.00017" lon="2.40226">
        <ele>10.2</ele>
        <time>2023-08-05T08:54:19Z</time>
      </trkpt>
      <trkpt lat="51.00011" lon="2.40243">
        <ele>10</ele>
        <time>2023-08-05T08:54:22Z</time>
      </trkpt>
      <trkpt lat="51.00008" lon="2.4025">
        <ele>10</ele>
        <time>2023-08-05T08:54:23Z</time>
      </trkpt>
      <trkpt lat="50.99986" lon="2.40272">
        <ele>10</ele>
        <time>2023-08-05T08:54:28Z</time>
      </trkpt>
      <trkpt lat="50.99973" lon="2.40287">
        <ele>10.2</ele>
        <time>2023-08-05T08:54:31Z</time>
      </trkpt>
      <trkpt lat="50.99967" lon="2.40297">
        <ele>10.2</ele>
        <time>2023-08-05T08:54:33Z</time>
      </trkpt>
      <trkpt lat="50.99963" lon="2.40301">
        <ele>10.2</ele>
        <time>2023-08-05T08:54:34Z</time>
      </trkpt>
      <trkpt lat="50.9996" lon="2.40308">
        <ele>10.2</ele>
        <time>2023-08-05T08:54:35Z</time>
      </trkpt>
      <trkpt lat="50.99945" lon="2.40334">
        <ele>10.2</ele>
        <time>2023-08-05T08:54:39Z</time>
      </trkpt>
      <trkpt lat="50.99939" lon="2.40344">
        <ele>10.2</ele>
        <time>2023-08-05T08:54:41Z</time>
      </trkpt>
      <trkpt lat="50.99932" lon="2.40353">
        <ele>10.2</ele>
        <time>2023-08-05T08:54:43Z</time>
      </trkpt>
      <trkpt lat="50.99928" lon="2.40357">
        <ele>10.2</ele>
        <time>2023-08-05T08:54:44Z</time>
      </trkpt>
      <trkpt lat="50.99924" lon="2.40362">
        <ele>10.2</ele>
        <time>2023-08-05T08:54:45Z</time>
      </trkpt>
      <trkpt lat="50.99921" lon="2.40367">
        <ele>10</ele>
        <time>2023-08-05T08:54:46Z</time>
      </trkpt>
      <trkpt lat="50.99914" lon="2.40382">
        <ele>10.2</ele>
        <time>2023-08-05T08:54:49Z</time>
      </trkpt>
      <trkpt lat="50.99913" lon="2.40388">
        <ele>10.2</ele>
        <time>2023-08-05T08:54:50Z</time>
      </trkpt>
      <trkpt lat="50.99911" lon="2.40395">
        <ele>10.2</ele>
        <time>2023-08-05T08:54:51Z</time>
      </trkpt>
      <trkpt lat="50.9991" lon="2.40402">
        <ele>10.2</ele>
        <time>2023-08-05T08:54:52Z</time>
      </trkpt>
      <trkpt lat="50.99906" lon="2.40416">
        <ele>10.2</ele>
        <time>2023-08-05T08:54:54Z</time>
      </trkpt>
      <trkpt lat="50.99906" lon="2.40431">
        <ele>10.2</ele>
        <time>2023-08-05T08:54:56Z</time>
      </trkpt>
      <trkpt lat="50.99908" lon="2.40437">
        <ele>10.2</ele>
        <time>2023-08-05T08:54:57Z</time>
      </trkpt>
      <trkpt lat="50.9991" lon="2.40443">
        <ele>10</ele>
        <time>2023-08-05T08:54:58Z</time>
      </trkpt>
      <trkpt lat="50.99924" lon="2.40476">
        <ele>10</ele>
        <time>2023-08-05T08:55:03Z</time>
      </trkpt>
      <trkpt lat="50.99942" lon="2.40522">
        <ele>10</ele>
        <time>2023-08-05T08:55:10Z</time>
      </trkpt>
      <trkpt lat="50.99965" lon="2.40564">
        <ele>10.2</ele>
        <time>2023-08-05T08:55:17Z</time>
      </trkpt>
      <trkpt lat="50.99985" lon="2.40619">
        <ele>10</ele>
        <time>2023-08-05T08:55:25Z</time>
      </trkpt>
      <trkpt lat="50.99991" lon="2.40647">
        <ele>10.2</ele>
        <time>2023-08-05T08:55:29Z</time>
      </trkpt>
      <trkpt lat="50.99991" lon="2.40653">
        <ele>10.2</ele>
        <time>2023-08-05T08:55:30Z</time>
      </trkpt>
      <trkpt lat="50.99989" lon="2.4066">
        <ele>10.2</ele>
        <time>2023-08-05T08:55:31Z</time>
      </trkpt>
      <trkpt lat="50.99986" lon="2.40665">
        <ele>10.2</ele>
        <time>2023-08-05T08:55:32Z</time>
      </trkpt>
      <trkpt lat="50.99983" lon="2.4067">
        <ele>10.2</ele>
        <time>2023-08-05T08:55:33Z</time>
      </trkpt>
      <trkpt lat="50.99979" lon="2.40674">
        <ele>10.2</ele>
        <time>2023-08-05T08:55:34Z</time>
      </trkpt>
      <trkpt lat="50.99975" lon="2.40676">
        <ele>10.2</ele>
        <time>2023-08-05T08:55:35Z</time>
      </trkpt>
      <trkpt lat="50.99971" lon="2.40678">
        <ele>10.2</ele>
        <time>2023-08-05T08:55:36Z</time>
      </trkpt>
      <trkpt lat="50.99967" lon="2.4068">
        <ele>10.2</ele>
        <time>2023-08-05T08:55:37Z</time>
      </trkpt>
      <trkpt lat="50.99963" lon="2.40681">
        <ele>10.2</ele>
        <time>2023-08-05T08:55:38Z</time>
      </trkpt>
      <trkpt lat="50.99942" lon="2.40692">
        <ele>9.8</ele>
        <time>2023-08-05T08:55:43Z</time>
      </trkpt>
      <trkpt lat="50.99938" lon="2.40695">
        <ele>9.8</ele>
        <time>2023-08-05T08:55:44Z</time>
      </trkpt>
      <trkpt lat="50.99915" lon="2.40705">
        <ele>9.8</ele>
        <time>2023-08-05T08:55:49Z</time>
      </trkpt>
      <trkpt lat="50.99902" lon="2.40712">
        <ele>9.8</ele>
        <time>2023-08-05T08:55:52Z</time>
      </trkpt>
      <trkpt lat="50.99896" lon="2.40715">
        <ele>10</ele>
        <time>2023-08-05T08:55:53Z</time>
      </trkpt>
      <trkpt lat="50.99891" lon="2.40718">
        <ele>10.2</ele>
        <time>2023-08-05T08:55:54Z</time>
      </trkpt>
      <trkpt lat="50.99888" lon="2.40722">
        <ele>10.2</ele>
        <time>2023-08-05T08:55:55Z</time>
      </trkpt>
      <trkpt lat="50.99883" lon="2.40723">
        <ele>10.2</ele>
        <time>2023-08-05T08:55:56Z</time>
      </trkpt>
      <trkpt lat="50.99877" lon="2.40727">
        <ele>10.2</ele>
        <time>2023-08-05T08:55:57Z</time>
      </trkpt>
      <trkpt lat="50.99868" lon="2.40735">
        <ele>10</ele>
        <time>2023-08-05T08:56:00Z</time>
      </trkpt>
      <trkpt lat="50.99866" lon="2.40738">
        <ele>10</ele>
        <time>2023-08-05T08:56:01Z</time>
      </trkpt>
      <trkpt lat="50.99866" lon="2.40738">
        <ele>10</ele>
        <time>2023-08-05T08:56:02Z</time>
      </trkpt>
      <trkpt lat="50.99866" lon="2.40738">
        <ele>10.2</ele>
        <time>2023-08-05T08:56:03Z</time>
      </trkpt>
      <trkpt lat="50.99866" lon="2.40738">
        <ele>10.2</ele>
        <time>2023-08-05T08:56:04Z</time>
      </trkpt>
      <trkpt lat="50.99866" lon="2.40738">
        <ele>10</ele>
        <time>2023-08-05T08:56:05Z</time>
      </trkpt>
      <trkpt lat="50.99861" lon="2.40741">
        <ele>9.8</ele>
        <time>2023-08-05T08:56:17Z</time>
      </trkpt>
      <trkpt lat="50.99854" lon="2.40746">
        <ele>9.8</ele>
        <time>2023-08-05T08:56:21Z</time>
      </trkpt>
      <trkpt lat="50.99849" lon="2.4075">
        <ele>9.8</ele>
        <time>2023-08-05T08:56:23Z</time>
      </trkpt>
      <trkpt lat="50.99847" lon="2.40751">
        <ele>9.8</ele>
        <time>2023-08-05T08:56:24Z</time>
      </trkpt>
      <trkpt lat="50.99842" lon="2.40753">
        <ele>9.6</ele>
        <time>2023-08-05T08:56:26Z</time>
      </trkpt>
      <trkpt lat="50.99839" lon="2.40753">
        <ele>9.6</ele>
        <time>2023-08-05T08:56:27Z</time>
      </trkpt>
      <trkpt lat="50.99836" lon="2.40753">
        <ele>9.6</ele>
        <time>2023-08-05T08:56:28Z</time>
      </trkpt>
      <trkpt lat="50.99832" lon="2.40753">
        <ele>9.6</ele>
        <time>2023-08-05T08:56:29Z</time>
      </trkpt>
      <trkpt lat="50.99818" lon="2.4075">
        <ele>9.6</ele>
        <time>2023-08-05T08:56:33Z</time>
      </trkpt>
      <trkpt lat="50.99813" lon="2.4075">
        <ele>9.6</ele>
        <time>2023-08-05T08:56:34Z</time>
      </trkpt>
      <trkpt lat="50.99803" lon="2.40752">
        <ele>9.6</ele>
        <time>2023-08-05T08:56:36Z</time>
      </trkpt>
      <trkpt lat="50.998" lon="2.4075">
        <ele>9.6</ele>
        <time>2023-08-05T08:56:37Z</time>
      </trkpt>
      <trkpt lat="50.99796" lon="2.40749">
        <ele>9.6</ele>
        <time>2023-08-05T08:56:38Z</time>
      </trkpt>
      <trkpt lat="50.99765" lon="2.40744">
        <ele>9.6</ele>
        <time>2023-08-05T08:56:44Z</time>
      </trkpt>
      <trkpt lat="50.99733" lon="2.4073">
        <ele>9.6</ele>
        <time>2023-08-05T08:56:50Z</time>
      </trkpt>
      <trkpt lat="50.99722" lon="2.40726">
        <ele>9.6</ele>
        <time>2023-08-05T08:56:52Z</time>
      </trkpt>
      <trkpt lat="50.99716" lon="2.40726">
        <ele>9.6</ele>
        <time>2023-08-05T08:56:53Z</time>
      </trkpt>
      <trkpt lat="50.99705" lon="2.40723">
        <ele>9.6</ele>
        <time>2023-08-05T08:56:55Z</time>
      </trkpt>
      <trkpt lat="50.99701" lon="2.40723">
        <ele>9.6</ele>
        <time>2023-08-05T08:56:56Z</time>
      </trkpt>
      <trkpt lat="50.99699" lon="2.40722">
        <ele>9.6</ele>
        <time>2023-08-05T08:56:57Z</time>
      </trkpt>
      <trkpt lat="50.99696" lon="2.40723">
        <ele>9.6</ele>
        <time>2023-08-05T08:56:58Z</time>
      </trkpt>
      <trkpt lat="50.99693" lon="2.40722">
        <ele>9.6</ele>
        <time>2023-08-05T08:56:59Z</time>
      </trkpt>
      <trkpt lat="50.99689" lon="2.40721">
        <ele>9.6</ele>
        <time>2023-08-05T08:57:00Z</time>
      </trkpt>
      <trkpt lat="50.99677" lon="2.40721">
        <ele>9.4</ele>
        <time>2023-08-05T08:57:02Z</time>
      </trkpt>
      <trkpt lat="50.99675" lon="2.40725">
        <ele>9.4</ele>
        <time>2023-08-05T08:57:03Z</time>
      </trkpt>
      <trkpt lat="50.99671" lon="2.40734">
        <ele>9.4</ele>
        <time>2023-08-05T08:57:05Z</time>
      </trkpt>
      <trkpt lat="50.99671" lon="2.40738">
        <ele>9.4</ele>
        <time>2023-08-05T08:57:06Z</time>
      </trkpt>
      <trkpt lat="50.99672" lon="2.40744">
        <ele>9.4</ele>
        <time>2023-08-05T08:57:07Z</time>
      </trkpt>
      <trkpt lat="50.99672" lon="2.4075">
        <ele>9.4</ele>
        <time>2023-08-05T08:57:08Z</time>
      </trkpt>
      <trkpt lat="50.99671" lon="2.40754">
        <ele>9.4</ele>
        <time>2023-08-05T08:57:09Z</time>
      </trkpt>
      <trkpt lat="50.99667" lon="2.40755">
        <ele>9.4</ele>
        <time>2023-08-05T08:57:10Z</time>
      </trkpt>
      <trkpt lat="50.99663" lon="2.40755">
        <ele>9.4</ele>
        <time>2023-08-05T08:57:11Z</time>
      </trkpt>
      <trkpt lat="50.99661" lon="2.40757">
        <ele>9.4</ele>
        <time>2023-08-05T08:57:12Z</time>
      </trkpt>
      <trkpt lat="50.99657" lon="2.40761">
        <ele>9.4</ele>
        <time>2023-08-05T08:57:14Z</time>
      </trkpt>
      <trkpt lat="50.99655" lon="2.40763">
        <ele>9.2</ele>
        <time>2023-08-05T08:57:15Z</time>
      </trkpt>
      <trkpt lat="50.99652" lon="2.40764">
        <ele>9.4</ele>
        <time>2023-08-05T08:57:16Z</time>
      </trkpt>
      <trkpt lat="50.9965" lon="2.40764">
        <ele>9.4</ele>
        <time>2023-08-05T08:57:17Z</time>
      </trkpt>
      <trkpt lat="50.99643" lon="2.40765">
        <ele>9.4</ele>
        <time>2023-08-05T08:57:19Z</time>
      </trkpt>
      <trkpt lat="50.9964" lon="2.40765">
        <ele>9.4</ele>
        <time>2023-08-05T08:57:20Z</time>
      </trkpt>
      <trkpt lat="50.99633" lon="2.40765">
        <ele>9.4</ele>
        <time>2023-08-05T08:57:22Z</time>
      </trkpt>
      <trkpt lat="50.9963" lon="2.40765">
        <ele>9.4</ele>
        <time>2023-08-05T08:57:23Z</time>
      </trkpt>
      <trkpt lat="50.99626" lon="2.40765">
        <ele>9.4</ele>
        <time>2023-08-05T08:57:24Z</time>
      </trkpt>
      <trkpt lat="50.99615" lon="2.40766">
        <ele>9.4</ele>
        <time>2023-08-05T08:57:27Z</time>
      </trkpt>
      <trkpt lat="50.996" lon="2.40766">
        <ele>9.4</ele>
        <time>2023-08-05T08:57:31Z</time>
      </trkpt>
      <trkpt lat="50.99596" lon="2.40766">
        <ele>9.4</ele>
        <time>2023-08-05T08:57:32Z</time>
      </trkpt>
      <trkpt lat="50.99588" lon="2.40767">
        <ele>9.2</ele>
        <time>2023-08-05T08:57:34Z</time>
      </trkpt>
      <trkpt lat="50.99573" lon="2.40769">
        <ele>9.2</ele>
        <time>2023-08-05T08:57:37Z</time>
      </trkpt>
      <trkpt lat="50.9956" lon="2.40767">
        <ele>9.2</ele>
        <time>2023-08-05T08:57:40Z</time>
      </trkpt>
      <trkpt lat="50.99554" lon="2.40766">
        <ele>9.2</ele>
        <time>2023-08-05T08:57:41Z</time>
      </trkpt>
      <trkpt lat="50.99548" lon="2.40765">
        <ele>9</ele>
        <time>2023-08-05T08:57:42Z</time>
      </trkpt>
      <trkpt lat="50.99531" lon="2.40763">
        <ele>9</ele>
        <time>2023-08-05T08:57:45Z</time>
      </trkpt>
      <trkpt lat="50.99527" lon="2.40762">
        <ele>9</ele>
        <time>2023-08-05T08:57:46Z</time>
      </trkpt>
      <trkpt lat="50.99522" lon="2.40762">
        <ele>9</ele>
        <time>2023-08-05T08:57:47Z</time>
      </trkpt>
      <trkpt lat="50.99518" lon="2.40761">
        <ele>9</ele>
        <time>2023-08-05T08:57:48Z</time>
      </trkpt>
      <trkpt lat="50.99514" lon="2.40759">
        <ele>9</ele>
        <time>2023-08-05T08:57:49Z</time>
      </trkpt>
      <trkpt lat="50.99509" lon="2.40758">
        <ele>9</ele>
        <time>2023-08-05T08:57:50Z</time>
      </trkpt>
      <trkpt lat="50.99506" lon="2.40756">
        <ele>8.8</ele>
        <time>2023-08-05T08:57:51Z</time>
      </trkpt>
      <trkpt lat="50.99504" lon="2.40756">
        <ele>8.8</ele>
        <time>2023-08-05T08:57:52Z</time>
      </trkpt>
      <trkpt lat="50.99501" lon="2.40754">
        <ele>8.8</ele>
        <time>2023-08-05T08:57:53Z</time>
      </trkpt>
      <trkpt lat="50.99499" lon="2.40753">
        <ele>8.8</ele>
        <time>2023-08-05T08:57:54Z</time>
      </trkpt>
      <trkpt lat="50.99496" lon="2.40751">
        <ele>8.8</ele>
        <time>2023-08-05T08:57:55Z</time>
      </trkpt>
      <trkpt lat="50.99491" lon="2.40749">
        <ele>8.8</ele>
        <time>2023-08-05T08:57:56Z</time>
      </trkpt>
      <trkpt lat="50.99483" lon="2.40747">
        <ele>8.6</ele>
        <time>2023-08-05T08:57:58Z</time>
      </trkpt>
      <trkpt lat="50.99473" lon="2.40745">
        <ele>8.6</ele>
        <time>2023-08-05T08:58:01Z</time>
      </trkpt>
      <trkpt lat="50.99469" lon="2.40744">
        <ele>8.6</ele>
        <time>2023-08-05T08:58:02Z</time>
      </trkpt>
      <trkpt lat="50.99457" lon="2.4074">
        <ele>8.4</ele>
        <time>2023-08-05T08:58:04Z</time>
      </trkpt>
      <trkpt lat="50.99419" lon="2.40743">
        <ele>8.4</ele>
        <time>2023-08-05T08:58:10Z</time>
      </trkpt>
      <trkpt lat="50.99411" lon="2.40746">
        <ele>8.2</ele>
        <time>2023-08-05T08:58:11Z</time>
      </trkpt>
      <trkpt lat="50.99404" lon="2.4075">
        <ele>8.2</ele>
        <time>2023-08-05T08:58:12Z</time>
      </trkpt>
      <trkpt lat="50.99396" lon="2.40753">
        <ele>8.2</ele>
        <time>2023-08-05T08:58:13Z</time>
      </trkpt>
      <trkpt lat="50.99393" lon="2.40762">
        <ele>8.2</ele>
        <time>2023-08-05T08:58:14Z</time>
      </trkpt>
      <trkpt lat="50.99392" lon="2.40773">
        <ele>8.2</ele>
        <time>2023-08-05T08:58:15Z</time>
      </trkpt>
      <trkpt lat="50.9939" lon="2.40778">
        <ele>8.2</ele>
        <time>2023-08-05T08:58:16Z</time>
      </trkpt>
      <trkpt lat="50.99391" lon="2.40785">
        <ele>8.2</ele>
        <time>2023-08-05T08:58:17Z</time>
      </trkpt>
      <trkpt lat="50.99393" lon="2.40795">
        <ele>8.2</ele>
        <time>2023-08-05T08:58:18Z</time>
      </trkpt>
      <trkpt lat="50.99394" lon="2.40803">
        <ele>8.2</ele>
        <time>2023-08-05T08:58:19Z</time>
      </trkpt>
      <trkpt lat="50.99394" lon="2.40809">
        <ele>8.4</ele>
        <time>2023-08-05T08:58:20Z</time>
      </trkpt>
      <trkpt lat="50.99395" lon="2.40815">
        <ele>8.4</ele>
        <time>2023-08-05T08:58:21Z</time>
      </trkpt>
      <trkpt lat="50.99396" lon="2.4082">
        <ele>8.4</ele>
        <time>2023-08-05T08:58:22Z</time>
      </trkpt>
      <trkpt lat="50.99396" lon="2.40826">
        <ele>8.6</ele>
        <time>2023-08-05T08:58:23Z</time>
      </trkpt>
      <trkpt lat="50.99397" lon="2.40836">
        <ele>8.6</ele>
        <time>2023-08-05T08:58:24Z</time>
      </trkpt>
      <trkpt lat="50.99396" lon="2.40843">
        <ele>8.8</ele>
        <time>2023-08-05T08:58:25Z</time>
      </trkpt>
      <trkpt lat="50.99394" lon="2.40859">
        <ele>9</ele>
        <time>2023-08-05T08:58:27Z</time>
      </trkpt>
      <trkpt lat="50.99394" lon="2.40868">
        <ele>9</ele>
        <time>2023-08-05T08:58:28Z</time>
      </trkpt>
      <trkpt lat="50.99391" lon="2.40875">
        <ele>9</ele>
        <time>2023-08-05T08:58:29Z</time>
      </trkpt>
      <trkpt lat="50.99388" lon="2.40881">
        <ele>9</ele>
        <time>2023-08-05T08:58:30Z</time>
      </trkpt>
      <trkpt lat="50.99374" lon="2.40907">
        <ele>9</ele>
        <time>2023-08-05T08:58:34Z</time>
      </trkpt>
      <trkpt lat="50.99375" lon="2.40921">
        <ele>8.8</ele>
        <time>2023-08-05T08:58:36Z</time>
      </trkpt>
      <trkpt lat="50.99374" lon="2.4093">
        <ele>8.8</ele>
        <time>2023-08-05T08:58:37Z</time>
      </trkpt>
      <trkpt lat="50.99375" lon="2.40937">
        <ele>8.8</ele>
        <time>2023-08-05T08:58:38Z</time>
      </trkpt>
      <trkpt lat="50.99375" lon="2.40943">
        <ele>8.8</ele>
        <time>2023-08-05T08:58:39Z</time>
      </trkpt>
      <trkpt lat="50.99374" lon="2.40948">
        <ele>8.8</ele>
        <time>2023-08-05T08:58:40Z</time>
      </trkpt>
      <trkpt lat="50.99371" lon="2.40952">
        <ele>8.8</ele>
        <time>2023-08-05T08:58:41Z</time>
      </trkpt>
      <trkpt lat="50.99368" lon="2.40955">
        <ele>8.8</ele>
        <time>2023-08-05T08:58:42Z</time>
      </trkpt>
      <trkpt lat="50.99366" lon="2.40962">
        <ele>8.8</ele>
        <time>2023-08-05T08:58:43Z</time>
      </trkpt>
      <trkpt lat="50.99364" lon="2.40968">
        <ele>8.8</ele>
        <time>2023-08-05T08:58:44Z</time>
      </trkpt>
      <trkpt lat="50.9936" lon="2.40974">
        <ele>8.8</ele>
        <time>2023-08-05T08:58:45Z</time>
      </trkpt>
      <trkpt lat="50.99357" lon="2.40979">
        <ele>8.8</ele>
        <time>2023-08-05T08:58:46Z</time>
      </trkpt>
      <trkpt lat="50.99352" lon="2.40987">
        <ele>9</ele>
        <time>2023-08-05T08:58:48Z</time>
      </trkpt>
      <trkpt lat="50.9935" lon="2.40989">
        <ele>9</ele>
        <time>2023-08-05T08:58:49Z</time>
      </trkpt>
      <trkpt lat="50.9935" lon="2.40992">
        <ele>9</ele>
        <time>2023-08-05T08:58:51Z</time>
      </trkpt>
      <trkpt lat="50.9935" lon="2.40994">
        <ele>9</ele>
        <time>2023-08-05T08:58:52Z</time>
      </trkpt>
      <trkpt lat="50.99349" lon="2.40995">
        <ele>9</ele>
        <time>2023-08-05T08:58:53Z</time>
      </trkpt>
      <trkpt lat="50.99348" lon="2.40995">
        <ele>9</ele>
        <time>2023-08-05T08:58:54Z</time>
      </trkpt>
      <trkpt lat="50.99348" lon="2.40997">
        <ele>9</ele>
        <time>2023-08-05T08:58:55Z</time>
      </trkpt>
      <trkpt lat="50.99345" lon="2.41">
        <ele>9</ele>
        <time>2023-08-05T08:58:56Z</time>
      </trkpt>
      <trkpt lat="50.99342" lon="2.41002">
        <ele>9</ele>
        <time>2023-08-05T08:58:57Z</time>
      </trkpt>
      <trkpt lat="50.99341" lon="2.41005">
        <ele>9</ele>
        <time>2023-08-05T08:58:58Z</time>
      </trkpt>
      <trkpt lat="50.9934" lon="2.41005">
        <ele>9</ele>
        <time>2023-08-05T08:58:59Z</time>
      </trkpt>
      <trkpt lat="50.9934" lon="2.41005">
        <ele>9</ele>
        <time>2023-08-05T08:59:00Z</time>
      </trkpt>
      <trkpt lat="50.99335" lon="2.4101">
        <ele>9</ele>
        <time>2023-08-05T08:59:01Z</time>
      </trkpt>
      <trkpt lat="50.99332" lon="2.41013">
        <ele>9</ele>
        <time>2023-08-05T08:59:02Z</time>
      </trkpt>
      <trkpt lat="50.99323" lon="2.4102">
        <ele>9</ele>
        <time>2023-08-05T08:59:05Z</time>
      </trkpt>
      <trkpt lat="50.99303" lon="2.41029">
        <ele>9</ele>
        <time>2023-08-05T08:59:09Z</time>
      </trkpt>
      <trkpt lat="50.99299" lon="2.41026">
        <ele>9</ele>
        <time>2023-08-05T08:59:10Z</time>
      </trkpt>
      <trkpt lat="50.99296" lon="2.41021">
        <ele>9</ele>
        <time>2023-08-05T08:59:11Z</time>
      </trkpt>
      <trkpt lat="50.99293" lon="2.41015">
        <ele>9</ele>
        <time>2023-08-05T08:59:12Z</time>
      </trkpt>
      <trkpt lat="50.9929" lon="2.41009">
        <ele>9</ele>
        <time>2023-08-05T08:59:13Z</time>
      </trkpt>
      <trkpt lat="50.99286" lon="2.41004">
        <ele>9</ele>
        <time>2023-08-05T08:59:14Z</time>
      </trkpt>
      <trkpt lat="50.99281" lon="2.41001">
        <ele>9</ele>
        <time>2023-08-05T08:59:15Z</time>
      </trkpt>
      <trkpt lat="50.99277" lon="2.40999">
        <ele>9</ele>
        <time>2023-08-05T08:59:16Z</time>
      </trkpt>
      <trkpt lat="50.99273" lon="2.40999">
        <ele>9</ele>
        <time>2023-08-05T08:59:17Z</time>
      </trkpt>
      <trkpt lat="50.99271" lon="2.40998">
        <ele>8.8</ele>
        <time>2023-08-05T08:59:18Z</time>
      </trkpt>
      <trkpt lat="50.99267" lon="2.40996">
        <ele>8.8</ele>
        <time>2023-08-05T08:59:19Z</time>
      </trkpt>
      <trkpt lat="50.99265" lon="2.40994">
        <ele>8.8</ele>
        <time>2023-08-05T08:59:20Z</time>
      </trkpt>
      <trkpt lat="50.9926" lon="2.40992">
        <ele>8.8</ele>
        <time>2023-08-05T08:59:21Z</time>
      </trkpt>
      <trkpt lat="50.99246" lon="2.40989">
        <ele>8.8</ele>
        <time>2023-08-05T08:59:24Z</time>
      </trkpt>
      <trkpt lat="50.99235" lon="2.40991">
        <ele>8.8</ele>
        <time>2023-08-05T08:59:26Z</time>
      </trkpt>
      <trkpt lat="50.9923" lon="2.40991">
        <ele>8.8</ele>
        <time>2023-08-05T08:59:27Z</time>
      </trkpt>
      <trkpt lat="50.99227" lon="2.40993">
        <ele>8.6</ele>
        <time>2023-08-05T08:59:28Z</time>
      </trkpt>
      <trkpt lat="50.99221" lon="2.40995">
        <ele>8.6</ele>
        <time>2023-08-05T08:59:29Z</time>
      </trkpt>
      <trkpt lat="50.99219" lon="2.41">
        <ele>8.6</ele>
        <time>2023-08-05T08:59:30Z</time>
      </trkpt>
      <trkpt lat="50.99215" lon="2.41005">
        <ele>8.6</ele>
        <time>2023-08-05T08:59:31Z</time>
      </trkpt>
      <trkpt lat="50.99211" lon="2.4101">
        <ele>8.6</ele>
        <time>2023-08-05T08:59:32Z</time>
      </trkpt>
      <trkpt lat="50.99207" lon="2.41015">
        <ele>8.6</ele>
        <time>2023-08-05T08:59:33Z</time>
      </trkpt>
      <trkpt lat="50.99201" lon="2.4102">
        <ele>8.6</ele>
        <time>2023-08-05T08:59:35Z</time>
      </trkpt>
      <trkpt lat="50.99198" lon="2.41022">
        <ele>8.6</ele>
        <time>2023-08-05T08:59:36Z</time>
      </trkpt>
      <trkpt lat="50.99195" lon="2.41023">
        <ele>8.6</ele>
        <time>2023-08-05T08:59:37Z</time>
      </trkpt>
      <trkpt lat="50.9919" lon="2.41025">
        <ele>8.6</ele>
        <time>2023-08-05T08:59:38Z</time>
      </trkpt>
      <trkpt lat="50.99164" lon="2.41039">
        <ele>8.6</ele>
        <time>2023-08-05T08:59:42Z</time>
      </trkpt>
      <trkpt lat="50.9916" lon="2.41047">
        <ele>8.4</ele>
        <time>2023-08-05T08:59:43Z</time>
      </trkpt>
      <trkpt lat="50.99157" lon="2.41054">
        <ele>8.4</ele>
        <time>2023-08-05T08:59:44Z</time>
      </trkpt>
      <trkpt lat="50.99154" lon="2.41061">
        <ele>8.4</ele>
        <time>2023-08-05T08:59:45Z</time>
      </trkpt>
      <trkpt lat="50.99151" lon="2.41068">
        <ele>8.4</ele>
        <time>2023-08-05T08:59:46Z</time>
      </trkpt>
      <trkpt lat="50.99148" lon="2.41075">
        <ele>8.4</ele>
        <time>2023-08-05T08:59:47Z</time>
      </trkpt>
      <trkpt lat="50.99146" lon="2.41082">
        <ele>8.4</ele>
        <time>2023-08-05T08:59:48Z</time>
      </trkpt>
      <trkpt lat="50.99143" lon="2.4109">
        <ele>8.4</ele>
        <time>2023-08-05T08:59:49Z</time>
      </trkpt>
      <trkpt lat="50.9914" lon="2.41108">
        <ele>8.2</ele>
        <time>2023-08-05T08:59:51Z</time>
      </trkpt>
      <trkpt lat="50.9914" lon="2.41115">
        <ele>8.2</ele>
        <time>2023-08-05T08:59:52Z</time>
      </trkpt>
      <trkpt lat="50.99139" lon="2.41125">
        <ele>8.2</ele>
        <time>2023-08-05T08:59:53Z</time>
      </trkpt>
      <trkpt lat="50.99139" lon="2.41134">
        <ele>8.2</ele>
        <time>2023-08-05T08:59:54Z</time>
      </trkpt>
      <trkpt lat="50.99137" lon="2.41142">
        <ele>8.2</ele>
        <time>2023-08-05T08:59:55Z</time>
      </trkpt>
      <trkpt lat="50.99133" lon="2.41148">
        <ele>8.2</ele>
        <time>2023-08-05T08:59:56Z</time>
      </trkpt>
      <trkpt lat="50.9913" lon="2.41154">
        <ele>8.2</ele>
        <time>2023-08-05T08:59:57Z</time>
      </trkpt>
      <trkpt lat="50.99127" lon="2.41159">
        <ele>8.2</ele>
        <time>2023-08-05T08:59:58Z</time>
      </trkpt>
      <trkpt lat="50.99124" lon="2.41164">
        <ele>8.2</ele>
        <time>2023-08-05T08:59:59Z</time>
      </trkpt>
      <trkpt lat="50.99121" lon="2.41168">
        <ele>8.2</ele>
        <time>2023-08-05T09:00:00Z</time>
      </trkpt>
      <trkpt lat="50.99117" lon="2.4117">
        <ele>8.2</ele>
        <time>2023-08-05T09:00:01Z</time>
      </trkpt>
      <trkpt lat="50.99112" lon="2.41172">
        <ele>8.2</ele>
        <time>2023-08-05T09:00:02Z</time>
      </trkpt>
      <trkpt lat="50.99107" lon="2.41173">
        <ele>8.2</ele>
        <time>2023-08-05T09:00:03Z</time>
      </trkpt>
      <trkpt lat="50.99103" lon="2.41174">
        <ele>8.2</ele>
        <time>2023-08-05T09:00:04Z</time>
      </trkpt>
      <trkpt lat="50.99098" lon="2.41175">
        <ele>8.2</ele>
        <time>2023-08-05T09:00:05Z</time>
      </trkpt>
      <trkpt lat="50.99093" lon="2.41177">
        <ele>8.2</ele>
        <time>2023-08-05T09:00:06Z</time>
      </trkpt>
      <trkpt lat="50.99089" lon="2.41179">
        <ele>8.2</ele>
        <time>2023-08-05T09:00:07Z</time>
      </trkpt>
      <trkpt lat="50.99075" lon="2.41189">
        <ele>8.4</ele>
        <time>2023-08-05T09:00:10Z</time>
      </trkpt>
      <trkpt lat="50.99066" lon="2.41193">
        <ele>8.4</ele>
        <time>2023-08-05T09:00:12Z</time>
      </trkpt>
      <trkpt lat="50.99041" lon="2.41208">
        <ele>8.6</ele>
        <time>2023-08-05T09:00:17Z</time>
      </trkpt>
      <trkpt lat="50.99036" lon="2.41211">
        <ele>8.6</ele>
        <time>2023-08-05T09:00:18Z</time>
      </trkpt>
      <trkpt lat="50.99031" lon="2.41213">
        <ele>8.6</ele>
        <time>2023-08-05T09:00:19Z</time>
      </trkpt>
      <trkpt lat="50.99027" lon="2.41216">
        <ele>8.6</ele>
        <time>2023-08-05T09:00:20Z</time>
      </trkpt>
      <trkpt lat="50.99024" lon="2.41217">
        <ele>8.6</ele>
        <time>2023-08-05T09:00:21Z</time>
      </trkpt>
      <trkpt lat="50.99021" lon="2.41216">
        <ele>8.6</ele>
        <time>2023-08-05T09:00:22Z</time>
      </trkpt>
      <trkpt lat="50.99018" lon="2.41215">
        <ele>8.6</ele>
        <time>2023-08-05T09:00:23Z</time>
      </trkpt>
      <trkpt lat="50.99014" lon="2.41212">
        <ele>8.6</ele>
        <time>2023-08-05T09:00:24Z</time>
      </trkpt>
      <trkpt lat="50.9901" lon="2.41209">
        <ele>8.6</ele>
        <time>2023-08-05T09:00:25Z</time>
      </trkpt>
      <trkpt lat="50.99007" lon="2.41206">
        <ele>8.6</ele>
        <time>2023-08-05T09:00:26Z</time>
      </trkpt>
      <trkpt lat="50.99004" lon="2.41203">
        <ele>8.6</ele>
        <time>2023-08-05T09:00:27Z</time>
      </trkpt>
      <trkpt lat="50.9899" lon="2.41179">
        <ele>8.4</ele>
        <time>2023-08-05T09:00:32Z</time>
      </trkpt>
      <trkpt lat="50.98989" lon="2.41173">
        <ele>8.4</ele>
        <time>2023-08-05T09:00:33Z</time>
      </trkpt>
      <trkpt lat="50.98986" lon="2.41163">
        <ele>8.4</ele>
        <time>2023-08-05T09:00:35Z</time>
      </trkpt>
      <trkpt lat="50.98985" lon="2.41159">
        <ele>8.4</ele>
        <time>2023-08-05T09:00:36Z</time>
      </trkpt>
      <trkpt lat="50.98984" lon="2.41154">
        <ele>8.4</ele>
        <time>2023-08-05T09:00:37Z</time>
      </trkpt>
      <trkpt lat="50.98983" lon="2.4115">
        <ele>8.4</ele>
        <time>2023-08-05T09:00:38Z</time>
      </trkpt>
      <trkpt lat="50.98983" lon="2.41146">
        <ele>8.2</ele>
        <time>2023-08-05T09:00:39Z</time>
      </trkpt>
      <trkpt lat="50.98983" lon="2.41141">
        <ele>8.2</ele>
        <time>2023-08-05T09:00:40Z</time>
      </trkpt>
      <trkpt lat="50.98981" lon="2.41136">
        <ele>8.2</ele>
        <time>2023-08-05T09:00:41Z</time>
      </trkpt>
      <trkpt lat="50.98977" lon="2.41128">
        <ele>8.2</ele>
        <time>2023-08-05T09:00:43Z</time>
      </trkpt>
      <trkpt lat="50.98975" lon="2.41125">
        <ele>8.2</ele>
        <time>2023-08-05T09:00:44Z</time>
      </trkpt>
      <trkpt lat="50.98973" lon="2.41123">
        <ele>8.2</ele>
        <time>2023-08-05T09:00:45Z</time>
      </trkpt>
      <trkpt lat="50.98971" lon="2.4112">
        <ele>8.2</ele>
        <time>2023-08-05T09:00:46Z</time>
      </trkpt>
      <trkpt lat="50.98968" lon="2.41117">
        <ele>8.2</ele>
        <time>2023-08-05T09:00:47Z</time>
      </trkpt>
      <trkpt lat="50.98966" lon="2.41115">
        <ele>8</ele>
        <time>2023-08-05T09:00:48Z</time>
      </trkpt>
      <trkpt lat="50.98963" lon="2.41113">
        <ele>8</ele>
        <time>2023-08-05T09:00:49Z</time>
      </trkpt>
      <trkpt lat="50.98959" lon="2.4111">
        <ele>8</ele>
        <time>2023-08-05T09:00:50Z</time>
      </trkpt>
      <trkpt lat="50.98955" lon="2.41107">
        <ele>8</ele>
        <time>2023-08-05T09:00:51Z</time>
      </trkpt>
      <trkpt lat="50.98929" lon="2.41097">
        <ele>7.8</ele>
        <time>2023-08-05T09:00:56Z</time>
      </trkpt>
      <trkpt lat="50.98923" lon="2.41098">
        <ele>7.8</ele>
        <time>2023-08-05T09:00:57Z</time>
      </trkpt>
      <trkpt lat="50.98918" lon="2.41101">
        <ele>7.8</ele>
        <time>2023-08-05T09:00:58Z</time>
      </trkpt>
      <trkpt lat="50.98914" lon="2.41106">
        <ele>7.8</ele>
        <time>2023-08-05T09:00:59Z</time>
      </trkpt>
      <trkpt lat="50.9891" lon="2.41111">
        <ele>7.8</ele>
        <time>2023-08-05T09:01:00Z</time>
      </trkpt>
      <trkpt lat="50.98906" lon="2.41114">
        <ele>7.8</ele>
        <time>2023-08-05T09:01:01Z</time>
      </trkpt>
      <trkpt lat="50.98896" lon="2.41114">
        <ele>7.8</ele>
        <time>2023-08-05T09:01:03Z</time>
      </trkpt>
      <trkpt lat="50.98891" lon="2.41114">
        <ele>7.8</ele>
        <time>2023-08-05T09:01:04Z</time>
      </trkpt>
      <trkpt lat="50.98886" lon="2.41113">
        <ele>7.8</ele>
        <time>2023-08-05T09:01:05Z</time>
      </trkpt>
      <trkpt lat="50.9888" lon="2.41116">
        <ele>7.8</ele>
        <time>2023-08-05T09:01:06Z</time>
      </trkpt>
      <trkpt lat="50.98864" lon="2.41127">
        <ele>7.8</ele>
        <time>2023-08-05T09:01:08Z</time>
      </trkpt>
      <trkpt lat="50.98857" lon="2.4113">
        <ele>7.8</ele>
        <time>2023-08-05T09:01:09Z</time>
      </trkpt>
      <trkpt lat="50.98847" lon="2.41136">
        <ele>7.8</ele>
        <time>2023-08-05T09:01:11Z</time>
      </trkpt>
      <trkpt lat="50.98843" lon="2.41138">
        <ele>7.8</ele>
        <time>2023-08-05T09:01:12Z</time>
      </trkpt>
      <trkpt lat="50.9884" lon="2.41139">
        <ele>7.6</ele>
        <time>2023-08-05T09:01:13Z</time>
      </trkpt>
      <trkpt lat="50.98835" lon="2.41138">
        <ele>7.6</ele>
        <time>2023-08-05T09:01:14Z</time>
      </trkpt>
      <trkpt lat="50.98829" lon="2.41137">
        <ele>7.6</ele>
        <time>2023-08-05T09:01:15Z</time>
      </trkpt>
      <trkpt lat="50.98823" lon="2.41133">
        <ele>7.6</ele>
        <time>2023-08-05T09:01:16Z</time>
      </trkpt>
      <trkpt lat="50.98819" lon="2.41133">
        <ele>7.6</ele>
        <time>2023-08-05T09:01:17Z</time>
      </trkpt>
      <trkpt lat="50.98815" lon="2.41134">
        <ele>7.6</ele>
        <time>2023-08-05T09:01:18Z</time>
      </trkpt>
      <trkpt lat="50.98806" lon="2.41137">
        <ele>7.6</ele>
        <time>2023-08-05T09:01:20Z</time>
      </trkpt>
      <trkpt lat="50.98802" lon="2.41138">
        <ele>7.6</ele>
        <time>2023-08-05T09:01:21Z</time>
      </trkpt>
      <trkpt lat="50.98798" lon="2.41139">
        <ele>7.6</ele>
        <time>2023-08-05T09:01:22Z</time>
      </trkpt>
      <trkpt lat="50.98794" lon="2.4114">
        <ele>7.6</ele>
        <time>2023-08-05T09:01:23Z</time>
      </trkpt>
      <trkpt lat="50.9879" lon="2.41141">
        <ele>7.6</ele>
        <time>2023-08-05T09:01:24Z</time>
      </trkpt>
      <trkpt lat="50.98785" lon="2.41142">
        <ele>7.6</ele>
        <time>2023-08-05T09:01:25Z</time>
      </trkpt>
      <trkpt lat="50.9878" lon="2.41145">
        <ele>7.6</ele>
        <time>2023-08-05T09:01:26Z</time>
      </trkpt>
      <trkpt lat="50.98776" lon="2.41148">
        <ele>7.6</ele>
        <time>2023-08-05T09:01:27Z</time>
      </trkpt>
      <trkpt lat="50.98771" lon="2.41151">
        <ele>7.6</ele>
        <time>2023-08-05T09:01:28Z</time>
      </trkpt>
      <trkpt lat="50.98762" lon="2.41159">
        <ele>7.6</ele>
        <time>2023-08-05T09:01:30Z</time>
      </trkpt>
      <trkpt lat="50.98757" lon="2.41162">
        <ele>7.6</ele>
        <time>2023-08-05T09:01:31Z</time>
      </trkpt>
      <trkpt lat="50.98753" lon="2.41166">
        <ele>7.6</ele>
        <time>2023-08-05T09:01:32Z</time>
      </trkpt>
      <trkpt lat="50.9875" lon="2.41169">
        <ele>7.6</ele>
        <time>2023-08-05T09:01:33Z</time>
      </trkpt>
      <trkpt lat="50.98744" lon="2.41172">
        <ele>7.6</ele>
        <time>2023-08-05T09:01:34Z</time>
      </trkpt>
      <trkpt lat="50.98734" lon="2.41176">
        <ele>7.6</ele>
        <time>2023-08-05T09:01:36Z</time>
      </trkpt>
      <trkpt lat="50.98724" lon="2.41179">
        <ele>7.6</ele>
        <time>2023-08-05T09:01:38Z</time>
      </trkpt>
      <trkpt lat="50.98719" lon="2.4118">
        <ele>7.6</ele>
        <time>2023-08-05T09:01:39Z</time>
      </trkpt>
      <trkpt lat="50.98715" lon="2.41182">
        <ele>7.6</ele>
        <time>2023-08-05T09:01:40Z</time>
      </trkpt>
      <trkpt lat="50.98709" lon="2.41184">
        <ele>7.6</ele>
        <time>2023-08-05T09:01:41Z</time>
      </trkpt>
      <trkpt lat="50.98703" lon="2.41185">
        <ele>7.6</ele>
        <time>2023-08-05T09:01:42Z</time>
      </trkpt>
      <trkpt lat="50.98699" lon="2.41186">
        <ele>7.6</ele>
        <time>2023-08-05T09:01:43Z</time>
      </trkpt>
      <trkpt lat="50.98694" lon="2.41188">
        <ele>7.6</ele>
        <time>2023-08-05T09:01:44Z</time>
      </trkpt>
      <trkpt lat="50.98692" lon="2.41189">
        <ele>7.6</ele>
        <time>2023-08-05T09:01:45Z</time>
      </trkpt>
      <trkpt lat="50.98689" lon="2.4119">
        <ele>7.6</ele>
        <time>2023-08-05T09:01:46Z</time>
      </trkpt>
      <trkpt lat="50.98688" lon="2.41192">
        <ele>7.6</ele>
        <time>2023-08-05T09:01:47Z</time>
      </trkpt>
      <trkpt lat="50.98688" lon="2.41194">
        <ele>7.6</ele>
        <time>2023-08-05T09:01:48Z</time>
      </trkpt>
      <trkpt lat="50.98688" lon="2.41198">
        <ele>7.6</ele>
        <time>2023-08-05T09:01:49Z</time>
      </trkpt>
      <trkpt lat="50.98688" lon="2.41203">
        <ele>7.6</ele>
        <time>2023-08-05T09:01:50Z</time>
      </trkpt>
      <trkpt lat="50.98689" lon="2.41208">
        <ele>7.6</ele>
        <time>2023-08-05T09:01:51Z</time>
      </trkpt>
      <trkpt lat="50.98691" lon="2.41242">
        <ele>7.8</ele>
        <time>2023-08-05T09:01:56Z</time>
      </trkpt>
      <trkpt lat="50.98686" lon="2.41251">
        <ele>8</ele>
        <time>2023-08-05T09:01:58Z</time>
      </trkpt>
      <trkpt lat="50.98685" lon="2.41257">
        <ele>8</ele>
        <time>2023-08-05T09:01:59Z</time>
      </trkpt>
      <trkpt lat="50.98682" lon="2.41261">
        <ele>8</ele>
        <time>2023-08-05T09:02:00Z</time>
      </trkpt>
      <trkpt lat="50.98679" lon="2.41265">
        <ele>8</ele>
        <time>2023-08-05T09:02:01Z</time>
      </trkpt>
      <trkpt lat="50.98676" lon="2.41268">
        <ele>7.8</ele>
        <time>2023-08-05T09:02:02Z</time>
      </trkpt>
      <trkpt lat="50.98673" lon="2.4127">
        <ele>7.8</ele>
        <time>2023-08-05T09:02:03Z</time>
      </trkpt>
      <trkpt lat="50.98671" lon="2.41273">
        <ele>7.8</ele>
        <time>2023-08-05T09:02:04Z</time>
      </trkpt>
      <trkpt lat="50.98669" lon="2.41276">
        <ele>7.8</ele>
        <time>2023-08-05T09:02:05Z</time>
      </trkpt>
      <trkpt lat="50.9866" lon="2.41271">
        <ele>7.8</ele>
        <time>2023-08-05T09:02:08Z</time>
      </trkpt>
      <trkpt lat="50.98657" lon="2.41269">
        <ele>7.8</ele>
        <time>2023-08-05T09:02:09Z</time>
      </trkpt>
      <trkpt lat="50.98653" lon="2.41268">
        <ele>7.8</ele>
        <time>2023-08-05T09:02:10Z</time>
      </trkpt>
      <trkpt lat="50.98637" lon="2.41265">
        <ele>7.8</ele>
        <time>2023-08-05T09:02:14Z</time>
      </trkpt>
      <trkpt lat="50.98625" lon="2.41271">
        <ele>7.8</ele>
        <time>2023-08-05T09:02:17Z</time>
      </trkpt>
      <trkpt lat="50.98623" lon="2.41274">
        <ele>7.8</ele>
        <time>2023-08-05T09:02:18Z</time>
      </trkpt>
      <trkpt lat="50.98622" lon="2.41277">
        <ele>7.8</ele>
        <time>2023-08-05T09:02:19Z</time>
      </trkpt>
      <trkpt lat="50.98621" lon="2.41281">
        <ele>7.8</ele>
        <time>2023-08-05T09:02:20Z</time>
      </trkpt>
      <trkpt lat="50.98622" lon="2.41286">
        <ele>7.8</ele>
        <time>2023-08-05T09:02:21Z</time>
      </trkpt>
      <trkpt lat="50.98618" lon="2.41309">
        <ele>8</ele>
        <time>2023-08-05T09:02:26Z</time>
      </trkpt>
      <trkpt lat="50.98615" lon="2.41312">
        <ele>8.2</ele>
        <time>2023-08-05T09:02:27Z</time>
      </trkpt>
      <trkpt lat="50.98613" lon="2.41315">
        <ele>8.2</ele>
        <time>2023-08-05T09:02:28Z</time>
      </trkpt>
      <trkpt lat="50.98611" lon="2.41316">
        <ele>8.2</ele>
        <time>2023-08-05T09:02:29Z</time>
      </trkpt>
      <trkpt lat="50.98608" lon="2.41317">
        <ele>8.2</ele>
        <time>2023-08-05T09:02:30Z</time>
      </trkpt>
      <trkpt lat="50.98606" lon="2.41317">
        <ele>8.2</ele>
        <time>2023-08-05T09:02:31Z</time>
      </trkpt>
      <trkpt lat="50.98603" lon="2.41318">
        <ele>8.2</ele>
        <time>2023-08-05T09:02:32Z</time>
      </trkpt>
      <trkpt lat="50.98599" lon="2.41319">
        <ele>8.2</ele>
        <time>2023-08-05T09:02:33Z</time>
      </trkpt>
      <trkpt lat="50.98588" lon="2.41328">
        <ele>8</ele>
        <time>2023-08-05T09:02:36Z</time>
      </trkpt>
      <trkpt lat="50.98584" lon="2.41332">
        <ele>8</ele>
        <time>2023-08-05T09:02:37Z</time>
      </trkpt>
      <trkpt lat="50.98576" lon="2.41341">
        <ele>8</ele>
        <time>2023-08-05T09:02:39Z</time>
      </trkpt>
      <trkpt lat="50.9857" lon="2.4135">
        <ele>8</ele>
        <time>2023-08-05T09:02:41Z</time>
      </trkpt>
      <trkpt lat="50.98569" lon="2.41354">
        <ele>8</ele>
        <time>2023-08-05T09:02:42Z</time>
      </trkpt>
      <trkpt lat="50.98567" lon="2.4136">
        <ele>8</ele>
        <time>2023-08-05T09:02:43Z</time>
      </trkpt>
      <trkpt lat="50.98565" lon="2.41367">
        <ele>7.8</ele>
        <time>2023-08-05T09:02:44Z</time>
      </trkpt>
      <trkpt lat="50.98563" lon="2.41372">
        <ele>8</ele>
        <time>2023-08-05T09:02:45Z</time>
      </trkpt>
      <trkpt lat="50.9856" lon="2.41399">
        <ele>8</ele>
        <time>2023-08-05T09:02:48Z</time>
      </trkpt>
      <trkpt lat="50.98559" lon="2.41407">
        <ele>8</ele>
        <time>2023-08-05T09:02:49Z</time>
      </trkpt>
      <trkpt lat="50.98558" lon="2.41428">
        <ele>8</ele>
        <time>2023-08-05T09:02:52Z</time>
      </trkpt>
      <trkpt lat="50.98558" lon="2.41435">
        <ele>7.8</ele>
        <time>2023-08-05T09:02:53Z</time>
      </trkpt>
      <trkpt lat="50.98555" lon="2.41442">
        <ele>7.8</ele>
        <time>2023-08-05T09:02:54Z</time>
      </trkpt>
      <trkpt lat="50.98554" lon="2.41449">
        <ele>7.8</ele>
        <time>2023-08-05T09:02:55Z</time>
      </trkpt>
      <trkpt lat="50.98556" lon="2.41455">
        <ele>7.8</ele>
        <time>2023-08-05T09:02:56Z</time>
      </trkpt>
      <trkpt lat="50.98555" lon="2.4147">
        <ele>7.8</ele>
        <time>2023-08-05T09:02:58Z</time>
      </trkpt>
      <trkpt lat="50.98555" lon="2.41477">
        <ele>7.8</ele>
        <time>2023-08-05T09:02:59Z</time>
      </trkpt>
      <trkpt lat="50.98554" lon="2.41498">
        <ele>7.8</ele>
        <time>2023-08-05T09:03:01Z</time>
      </trkpt>
      <trkpt lat="50.98556" lon="2.41506">
        <ele>7.8</ele>
        <time>2023-08-05T09:03:02Z</time>
      </trkpt>
      <trkpt lat="50.9856" lon="2.41517">
        <ele>7.8</ele>
        <time>2023-08-05T09:03:03Z</time>
      </trkpt>
      <trkpt lat="50.98564" lon="2.41525">
        <ele>7.8</ele>
        <time>2023-08-05T09:03:04Z</time>
      </trkpt>
      <trkpt lat="50.98567" lon="2.41532">
        <ele>7.8</ele>
        <time>2023-08-05T09:03:05Z</time>
      </trkpt>
      <trkpt lat="50.98571" lon="2.41564">
        <ele>7.6</ele>
        <time>2023-08-05T09:03:09Z</time>
      </trkpt>
      <trkpt lat="50.98571" lon="2.41569">
        <ele>7.6</ele>
        <time>2023-08-05T09:03:10Z</time>
      </trkpt>
      <trkpt lat="50.9857" lon="2.41574">
        <ele>7.6</ele>
        <time>2023-08-05T09:03:11Z</time>
      </trkpt>
      <trkpt lat="50.98568" lon="2.41579">
        <ele>7.6</ele>
        <time>2023-08-05T09:03:12Z</time>
      </trkpt>
      <trkpt lat="50.98567" lon="2.41585">
        <ele>7.6</ele>
        <time>2023-08-05T09:03:13Z</time>
      </trkpt>
      <trkpt lat="50.98565" lon="2.41589">
        <ele>7.6</ele>
        <time>2023-08-05T09:03:14Z</time>
      </trkpt>
      <trkpt lat="50.98563" lon="2.41591">
        <ele>7.6</ele>
        <time>2023-08-05T09:03:15Z</time>
      </trkpt>
      <trkpt lat="50.98561" lon="2.41593">
        <ele>7.6</ele>
        <time>2023-08-05T09:03:16Z</time>
      </trkpt>
      <trkpt lat="50.98558" lon="2.41594">
        <ele>7.8</ele>
        <time>2023-08-05T09:03:17Z</time>
      </trkpt>
      <trkpt lat="50.98554" lon="2.41595">
        <ele>7.8</ele>
        <time>2023-08-05T09:03:18Z</time>
      </trkpt>
      <trkpt lat="50.98553" lon="2.41597">
        <ele>7.8</ele>
        <time>2023-08-05T09:03:19Z</time>
      </trkpt>
      <trkpt lat="50.98547" lon="2.41599">
        <ele>7.8</ele>
        <time>2023-08-05T09:03:20Z</time>
      </trkpt>
      <trkpt lat="50.98535" lon="2.41607">
        <ele>8</ele>
        <time>2023-08-05T09:03:23Z</time>
      </trkpt>
      <trkpt lat="50.98532" lon="2.41611">
        <ele>8</ele>
        <time>2023-08-05T09:03:24Z</time>
      </trkpt>
      <trkpt lat="50.9853" lon="2.41615">
        <ele>8</ele>
        <time>2023-08-05T09:03:25Z</time>
      </trkpt>
      <trkpt lat="50.98529" lon="2.41619">
        <ele>8</ele>
        <time>2023-08-05T09:03:26Z</time>
      </trkpt>
      <trkpt lat="50.98529" lon="2.41626">
        <ele>8</ele>
        <time>2023-08-05T09:03:27Z</time>
      </trkpt>
      <trkpt lat="50.9853" lon="2.41632">
        <ele>8</ele>
        <time>2023-08-05T09:03:28Z</time>
      </trkpt>
      <trkpt lat="50.98532" lon="2.41639">
        <ele>8.2</ele>
        <time>2023-08-05T09:03:29Z</time>
      </trkpt>
      <trkpt lat="50.98533" lon="2.41645">
        <ele>8.2</ele>
        <time>2023-08-05T09:03:30Z</time>
      </trkpt>
      <trkpt lat="50.98533" lon="2.41649">
        <ele>8.2</ele>
        <time>2023-08-05T09:03:31Z</time>
      </trkpt>
      <trkpt lat="50.98533" lon="2.41654">
        <ele>8.2</ele>
        <time>2023-08-05T09:03:32Z</time>
      </trkpt>
      <trkpt lat="50.98533" lon="2.41659">
        <ele>8.2</ele>
        <time>2023-08-05T09:03:33Z</time>
      </trkpt>
      <trkpt lat="50.98533" lon="2.41666">
        <ele>8.2</ele>
        <time>2023-08-05T09:03:34Z</time>
      </trkpt>
      <trkpt lat="50.98531" lon="2.41687">
        <ele>8.2</ele>
        <time>2023-08-05T09:03:37Z</time>
      </trkpt>
      <trkpt lat="50.9853" lon="2.41691">
        <ele>8.2</ele>
        <time>2023-08-05T09:03:38Z</time>
      </trkpt>
      <trkpt lat="50.98529" lon="2.41705">
        <ele>8.2</ele>
        <time>2023-08-05T09:03:40Z</time>
      </trkpt>
      <trkpt lat="50.98528" lon="2.41717">
        <ele>8.6</ele>
        <time>2023-08-05T09:03:41Z</time>
      </trkpt>
      <trkpt lat="50.98526" lon="2.41723">
        <ele>8.4</ele>
        <time>2023-08-05T09:03:42Z</time>
      </trkpt>
      <trkpt lat="50.98526" lon="2.41734">
        <ele>8.6</ele>
        <time>2023-08-05T09:03:43Z</time>
      </trkpt>
      <trkpt lat="50.98526" lon="2.41741">
        <ele>8.6</ele>
        <time>2023-08-05T09:03:44Z</time>
      </trkpt>
      <trkpt lat="50.98523" lon="2.41778">
        <ele>8.6</ele>
        <time>2023-08-05T09:03:48Z</time>
      </trkpt>
      <trkpt lat="50.98516" lon="2.418">
        <ele>8.6</ele>
        <time>2023-08-05T09:03:51Z</time>
      </trkpt>
      <trkpt lat="50.98512" lon="2.41805">
        <ele>8.4</ele>
        <time>2023-08-05T09:03:52Z</time>
      </trkpt>
      <trkpt lat="50.98508" lon="2.41811">
        <ele>8.4</ele>
        <time>2023-08-05T09:03:53Z</time>
      </trkpt>
      <trkpt lat="50.98503" lon="2.41818">
        <ele>8.4</ele>
        <time>2023-08-05T09:03:54Z</time>
      </trkpt>
      <trkpt lat="50.98499" lon="2.41826">
        <ele>8.6</ele>
        <time>2023-08-05T09:03:56Z</time>
      </trkpt>
      <trkpt lat="50.98496" lon="2.41827">
        <ele>8.6</ele>
        <time>2023-08-05T09:03:57Z</time>
      </trkpt>
      <trkpt lat="50.98493" lon="2.41827">
        <ele>8.6</ele>
        <time>2023-08-05T09:03:58Z</time>
      </trkpt>
      <trkpt lat="50.98491" lon="2.41826">
        <ele>8.6</ele>
        <time>2023-08-05T09:03:59Z</time>
      </trkpt>
      <trkpt lat="50.98488" lon="2.41826">
        <ele>8.6</ele>
        <time>2023-08-05T09:04:00Z</time>
      </trkpt>
      <trkpt lat="50.98482" lon="2.41829">
        <ele>8.8</ele>
        <time>2023-08-05T09:04:01Z</time>
      </trkpt>
      <trkpt lat="50.98476" lon="2.4183">
        <ele>8.8</ele>
        <time>2023-08-05T09:04:02Z</time>
      </trkpt>
      <trkpt lat="50.98471" lon="2.41833">
        <ele>8.8</ele>
        <time>2023-08-05T09:04:03Z</time>
      </trkpt>
      <trkpt lat="50.9845" lon="2.4185">
        <ele>8.6</ele>
        <time>2023-08-05T09:04:08Z</time>
      </trkpt>
      <trkpt lat="50.98448" lon="2.41852">
        <ele>8.6</ele>
        <time>2023-08-05T09:04:09Z</time>
      </trkpt>
      <trkpt lat="50.98445" lon="2.41854">
        <ele>8.4</ele>
        <time>2023-08-05T09:04:10Z</time>
      </trkpt>
      <trkpt lat="50.98443" lon="2.41858">
        <ele>8.2</ele>
        <time>2023-08-05T09:04:11Z</time>
      </trkpt>
      <trkpt lat="50.9844" lon="2.41861">
        <ele>8.2</ele>
        <time>2023-08-05T09:04:12Z</time>
      </trkpt>
      <trkpt lat="50.98437" lon="2.41866">
        <ele>8.2</ele>
        <time>2023-08-05T09:04:13Z</time>
      </trkpt>
      <trkpt lat="50.98426" lon="2.41891">
        <ele>8.2</ele>
        <time>2023-08-05T09:04:18Z</time>
      </trkpt>
      <trkpt lat="50.98423" lon="2.41898">
        <ele>8.2</ele>
        <time>2023-08-05T09:04:19Z</time>
      </trkpt>
      <trkpt lat="50.9842" lon="2.41902">
        <ele>8.4</ele>
        <time>2023-08-05T09:04:20Z</time>
      </trkpt>
      <trkpt lat="50.98413" lon="2.41911">
        <ele>8.4</ele>
        <time>2023-08-05T09:04:22Z</time>
      </trkpt>
      <trkpt lat="50.98409" lon="2.41915">
        <ele>8.4</ele>
        <time>2023-08-05T09:04:23Z</time>
      </trkpt>
      <trkpt lat="50.98392" lon="2.41926">
        <ele>8.6</ele>
        <time>2023-08-05T09:04:28Z</time>
      </trkpt>
      <trkpt lat="50.98378" lon="2.4193">
        <ele>8.6</ele>
        <time>2023-08-05T09:04:32Z</time>
      </trkpt>
      <trkpt lat="50.98374" lon="2.41932">
        <ele>8.6</ele>
        <time>2023-08-05T09:04:33Z</time>
      </trkpt>
      <trkpt lat="50.98352" lon="2.41936">
        <ele>8.4</ele>
        <time>2023-08-05T09:04:38Z</time>
      </trkpt>
      <trkpt lat="50.98343" lon="2.41939">
        <ele>8.4</ele>
        <time>2023-08-05T09:04:40Z</time>
      </trkpt>
      <trkpt lat="50.98335" lon="2.41941">
        <ele>8.2</ele>
        <time>2023-08-05T09:04:42Z</time>
      </trkpt>
      <trkpt lat="50.98331" lon="2.41944">
        <ele>8.2</ele>
        <time>2023-08-05T09:04:43Z</time>
      </trkpt>
      <trkpt lat="50.98323" lon="2.41951">
        <ele>8.2</ele>
        <time>2023-08-05T09:04:45Z</time>
      </trkpt>
      <trkpt lat="50.98318" lon="2.41954">
        <ele>8.2</ele>
        <time>2023-08-05T09:04:46Z</time>
      </trkpt>
      <trkpt lat="50.98311" lon="2.4196">
        <ele>8.2</ele>
        <time>2023-08-05T09:04:48Z</time>
      </trkpt>
      <trkpt lat="50.98307" lon="2.41964">
        <ele>8.2</ele>
        <time>2023-08-05T09:04:49Z</time>
      </trkpt>
      <trkpt lat="50.98303" lon="2.41968">
        <ele>8.2</ele>
        <time>2023-08-05T09:04:50Z</time>
      </trkpt>
      <trkpt lat="50.98298" lon="2.41974">
        <ele>8.2</ele>
        <time>2023-08-05T09:04:51Z</time>
      </trkpt>
      <trkpt lat="50.98287" lon="2.41988">
        <ele>8.2</ele>
        <time>2023-08-05T09:04:54Z</time>
      </trkpt>
      <trkpt lat="50.9828" lon="2.41994">
        <ele>8.4</ele>
        <time>2023-08-05T09:04:56Z</time>
      </trkpt>
      <trkpt lat="50.98277" lon="2.41997">
        <ele>8.4</ele>
        <time>2023-08-05T09:04:57Z</time>
      </trkpt>
      <trkpt lat="50.98273" lon="2.42">
        <ele>8.4</ele>
        <time>2023-08-05T09:04:58Z</time>
      </trkpt>
      <trkpt lat="50.98269" lon="2.42001">
        <ele>8.4</ele>
        <time>2023-08-05T09:04:59Z</time>
      </trkpt>
      <trkpt lat="50.98265" lon="2.42004">
        <ele>8.6</ele>
        <time>2023-08-05T09:05:00Z</time>
      </trkpt>
      <trkpt lat="50.98256" lon="2.4201">
        <ele>8.6</ele>
        <time>2023-08-05T09:05:02Z</time>
      </trkpt>
      <trkpt lat="50.98252" lon="2.42014">
        <ele>8.6</ele>
        <time>2023-08-05T09:05:03Z</time>
      </trkpt>
      <trkpt lat="50.98246" lon="2.42018">
        <ele>8.6</ele>
        <time>2023-08-05T09:05:05Z</time>
      </trkpt>
      <trkpt lat="50.98242" lon="2.42021">
        <ele>8.6</ele>
        <time>2023-08-05T09:05:06Z</time>
      </trkpt>
      <trkpt lat="50.98238" lon="2.42024">
        <ele>8.6</ele>
        <time>2023-08-05T09:05:07Z</time>
      </trkpt>
      <trkpt lat="50.98229" lon="2.42033">
        <ele>8.6</ele>
        <time>2023-08-05T09:05:09Z</time>
      </trkpt>
      <trkpt lat="50.98225" lon="2.42036">
        <ele>8.4</ele>
        <time>2023-08-05T09:05:10Z</time>
      </trkpt>
      <trkpt lat="50.98222" lon="2.42039">
        <ele>8.4</ele>
        <time>2023-08-05T09:05:11Z</time>
      </trkpt>
      <trkpt lat="50.98217" lon="2.42042">
        <ele>8.2</ele>
        <time>2023-08-05T09:05:12Z</time>
      </trkpt>
      <trkpt lat="50.98214" lon="2.42049">
        <ele>8.2</ele>
        <time>2023-08-05T09:05:13Z</time>
      </trkpt>
      <trkpt lat="50.98211" lon="2.42054">
        <ele>8.2</ele>
        <time>2023-08-05T09:05:14Z</time>
      </trkpt>
      <trkpt lat="50.98208" lon="2.4206">
        <ele>8.2</ele>
        <time>2023-08-05T09:05:15Z</time>
      </trkpt>
      <trkpt lat="50.98205" lon="2.42067">
        <ele>8</ele>
        <time>2023-08-05T09:05:16Z</time>
      </trkpt>
      <trkpt lat="50.98196" lon="2.42079">
        <ele>8</ele>
        <time>2023-08-05T09:05:18Z</time>
      </trkpt>
      <trkpt lat="50.98187" lon="2.4209">
        <ele>8.2</ele>
        <time>2023-08-05T09:05:20Z</time>
      </trkpt>
      <trkpt lat="50.9818" lon="2.42103">
        <ele>8.2</ele>
        <time>2023-08-05T09:05:22Z</time>
      </trkpt>
      <trkpt lat="50.9818" lon="2.42112">
        <ele>8.2</ele>
        <time>2023-08-05T09:05:23Z</time>
      </trkpt>
      <trkpt lat="50.98177" lon="2.42119">
        <ele>8.2</ele>
        <time>2023-08-05T09:05:24Z</time>
      </trkpt>
      <trkpt lat="50.98175" lon="2.42126">
        <ele>8.2</ele>
        <time>2023-08-05T09:05:25Z</time>
      </trkpt>
      <trkpt lat="50.98172" lon="2.42131">
        <ele>8.4</ele>
        <time>2023-08-05T09:05:26Z</time>
      </trkpt>
      <trkpt lat="50.98168" lon="2.42137">
        <ele>8.6</ele>
        <time>2023-08-05T09:05:27Z</time>
      </trkpt>
      <trkpt lat="50.98158" lon="2.42143">
        <ele>8.6</ele>
        <time>2023-08-05T09:05:29Z</time>
      </trkpt>
      <trkpt lat="50.98154" lon="2.42146">
        <ele>8.6</ele>
        <time>2023-08-05T09:05:30Z</time>
      </trkpt>
      <trkpt lat="50.98151" lon="2.42149">
        <ele>8.6</ele>
        <time>2023-08-05T09:05:31Z</time>
      </trkpt>
      <trkpt lat="50.98147" lon="2.42155">
        <ele>8.6</ele>
        <time>2023-08-05T09:05:32Z</time>
      </trkpt>
      <trkpt lat="50.98146" lon="2.4216">
        <ele>8.6</ele>
        <time>2023-08-05T09:05:33Z</time>
      </trkpt>
      <trkpt lat="50.98141" lon="2.42164">
        <ele>8.6</ele>
        <time>2023-08-05T09:05:34Z</time>
      </trkpt>
      <trkpt lat="50.98129" lon="2.42176">
        <ele>8.4</ele>
        <time>2023-08-05T09:05:37Z</time>
      </trkpt>
      <trkpt lat="50.98126" lon="2.4218">
        <ele>8.4</ele>
        <time>2023-08-05T09:05:38Z</time>
      </trkpt>
      <trkpt lat="50.9812" lon="2.42187">
        <ele>8.4</ele>
        <time>2023-08-05T09:05:39Z</time>
      </trkpt>
      <trkpt lat="50.98115" lon="2.42192">
        <ele>8.4</ele>
        <time>2023-08-05T09:05:40Z</time>
      </trkpt>
      <trkpt lat="50.98111" lon="2.42196">
        <ele>8.4</ele>
        <time>2023-08-05T09:05:41Z</time>
      </trkpt>
      <trkpt lat="50.98108" lon="2.42198">
        <ele>8.4</ele>
        <time>2023-08-05T09:05:42Z</time>
      </trkpt>
      <trkpt lat="50.98105" lon="2.422">
        <ele>8.4</ele>
        <time>2023-08-05T09:05:43Z</time>
      </trkpt>
      <trkpt lat="50.98101" lon="2.42205">
        <ele>8.4</ele>
        <time>2023-08-05T09:05:44Z</time>
      </trkpt>
      <trkpt lat="50.98098" lon="2.4221">
        <ele>8.4</ele>
        <time>2023-08-05T09:05:45Z</time>
      </trkpt>
      <trkpt lat="50.98094" lon="2.42214">
        <ele>8.6</ele>
        <time>2023-08-05T09:05:46Z</time>
      </trkpt>
      <trkpt lat="50.9809" lon="2.42216">
        <ele>8.6</ele>
        <time>2023-08-05T09:05:47Z</time>
      </trkpt>
      <trkpt lat="50.98081" lon="2.42219">
        <ele>8.6</ele>
        <time>2023-08-05T09:05:49Z</time>
      </trkpt>
      <trkpt lat="50.98076" lon="2.4222">
        <ele>8.6</ele>
        <time>2023-08-05T09:05:50Z</time>
      </trkpt>
      <trkpt lat="50.98071" lon="2.4222">
        <ele>8.6</ele>
        <time>2023-08-05T09:05:51Z</time>
      </trkpt>
      <trkpt lat="50.98066" lon="2.42218">
        <ele>8.6</ele>
        <time>2023-08-05T09:05:52Z</time>
      </trkpt>
      <trkpt lat="50.98061" lon="2.42218">
        <ele>8.6</ele>
        <time>2023-08-05T09:05:53Z</time>
      </trkpt>
      <trkpt lat="50.98048" lon="2.42212">
        <ele>8.6</ele>
        <time>2023-08-05T09:05:56Z</time>
      </trkpt>
      <trkpt lat="50.98044" lon="2.42213">
        <ele>8.6</ele>
        <time>2023-08-05T09:05:57Z</time>
      </trkpt>
      <trkpt lat="50.9804" lon="2.42214">
        <ele>8.8</ele>
        <time>2023-08-05T09:05:58Z</time>
      </trkpt>
      <trkpt lat="50.98036" lon="2.42215">
        <ele>8.8</ele>
        <time>2023-08-05T09:05:59Z</time>
      </trkpt>
      <trkpt lat="50.98032" lon="2.42217">
        <ele>8.8</ele>
        <time>2023-08-05T09:06:00Z</time>
      </trkpt>
      <trkpt lat="50.98027" lon="2.4222">
        <ele>8.8</ele>
        <time>2023-08-05T09:06:01Z</time>
      </trkpt>
      <trkpt lat="50.98019" lon="2.42223">
        <ele>8.8</ele>
        <time>2023-08-05T09:06:03Z</time>
      </trkpt>
      <trkpt lat="50.98017" lon="2.42225">
        <ele>8.8</ele>
        <time>2023-08-05T09:06:04Z</time>
      </trkpt>
      <trkpt lat="50.98013" lon="2.42227">
        <ele>8.8</ele>
        <time>2023-08-05T09:06:05Z</time>
      </trkpt>
      <trkpt lat="50.98008" lon="2.4223">
        <ele>8.8</ele>
        <time>2023-08-05T09:06:06Z</time>
      </trkpt>
      <trkpt lat="50.98003" lon="2.42234">
        <ele>8.8</ele>
        <time>2023-08-05T09:06:07Z</time>
      </trkpt>
      <trkpt lat="50.97998" lon="2.42237">
        <ele>8.8</ele>
        <time>2023-08-05T09:06:08Z</time>
      </trkpt>
      <trkpt lat="50.97986" lon="2.4224">
        <ele>8.8</ele>
        <time>2023-08-05T09:06:11Z</time>
      </trkpt>
      <trkpt lat="50.9798" lon="2.42242">
        <ele>8.8</ele>
        <time>2023-08-05T09:06:12Z</time>
      </trkpt>
      <trkpt lat="50.97973" lon="2.42243">
        <ele>8.8</ele>
        <time>2023-08-05T09:06:13Z</time>
      </trkpt>
      <trkpt lat="50.97969" lon="2.42244">
        <ele>8.8</ele>
        <time>2023-08-05T09:06:14Z</time>
      </trkpt>
      <trkpt lat="50.97964" lon="2.42244">
        <ele>8.6</ele>
        <time>2023-08-05T09:06:15Z</time>
      </trkpt>
      <trkpt lat="50.97955" lon="2.42245">
        <ele>8.6</ele>
        <time>2023-08-05T09:06:17Z</time>
      </trkpt>
      <trkpt lat="50.97947" lon="2.42242">
        <ele>8.6</ele>
        <time>2023-08-05T09:06:19Z</time>
      </trkpt>
      <trkpt lat="50.97943" lon="2.42242">
        <ele>8.6</ele>
        <time>2023-08-05T09:06:20Z</time>
      </trkpt>
      <trkpt lat="50.97939" lon="2.42241">
        <ele>8.6</ele>
        <time>2023-08-05T09:06:21Z</time>
      </trkpt>
      <trkpt lat="50.97933" lon="2.4224">
        <ele>8.6</ele>
        <time>2023-08-05T09:06:22Z</time>
      </trkpt>
      <trkpt lat="50.97909" lon="2.42245">
        <ele>9</ele>
        <time>2023-08-05T09:06:26Z</time>
      </trkpt>
      <trkpt lat="50.9789" lon="2.42248">
        <ele>8.8</ele>
        <time>2023-08-05T09:06:29Z</time>
      </trkpt>
      <trkpt lat="50.97887" lon="2.4225">
        <ele>8.8</ele>
        <time>2023-08-05T09:06:30Z</time>
      </trkpt>
      <trkpt lat="50.97883" lon="2.42252">
        <ele>8.8</ele>
        <time>2023-08-05T09:06:31Z</time>
      </trkpt>
      <trkpt lat="50.97874" lon="2.42255">
        <ele>8.8</ele>
        <time>2023-08-05T09:06:33Z</time>
      </trkpt>
      <trkpt lat="50.97866" lon="2.42259">
        <ele>8.8</ele>
        <time>2023-08-05T09:06:35Z</time>
      </trkpt>
      <trkpt lat="50.97864" lon="2.4226">
        <ele>8.8</ele>
        <time>2023-08-05T09:06:36Z</time>
      </trkpt>
      <trkpt lat="50.97861" lon="2.4226">
        <ele>8.8</ele>
        <time>2023-08-05T09:06:37Z</time>
      </trkpt>
      <trkpt lat="50.97856" lon="2.4226">
        <ele>9</ele>
        <time>2023-08-05T09:06:38Z</time>
      </trkpt>
      <trkpt lat="50.97852" lon="2.42259">
        <ele>9</ele>
        <time>2023-08-05T09:06:39Z</time>
      </trkpt>
      <trkpt lat="50.97848" lon="2.42259">
        <ele>8.8</ele>
        <time>2023-08-05T09:06:40Z</time>
      </trkpt>
      <trkpt lat="50.97845" lon="2.4226">
        <ele>8.8</ele>
        <time>2023-08-05T09:06:41Z</time>
      </trkpt>
      <trkpt lat="50.97841" lon="2.4226">
        <ele>9</ele>
        <time>2023-08-05T09:06:42Z</time>
      </trkpt>
      <trkpt lat="50.97837" lon="2.4226">
        <ele>9</ele>
        <time>2023-08-05T09:06:43Z</time>
      </trkpt>
      <trkpt lat="50.97833" lon="2.4226">
        <ele>9.2</ele>
        <time>2023-08-05T09:06:44Z</time>
      </trkpt>
      <trkpt lat="50.97829" lon="2.42259">
        <ele>9</ele>
        <time>2023-08-05T09:06:45Z</time>
      </trkpt>
      <trkpt lat="50.97816" lon="2.42255">
        <ele>9.2</ele>
        <time>2023-08-05T09:06:48Z</time>
      </trkpt>
      <trkpt lat="50.978" lon="2.42245">
        <ele>9.2</ele>
        <time>2023-08-05T09:06:51Z</time>
      </trkpt>
      <trkpt lat="50.97787" lon="2.42233">
        <ele>9.2</ele>
        <time>2023-08-05T09:06:54Z</time>
      </trkpt>
      <trkpt lat="50.97783" lon="2.42229">
        <ele>9.2</ele>
        <time>2023-08-05T09:06:55Z</time>
      </trkpt>
      <trkpt lat="50.97777" lon="2.42224">
        <ele>9.2</ele>
        <time>2023-08-05T09:06:56Z</time>
      </trkpt>
      <trkpt lat="50.97773" lon="2.42222">
        <ele>9.2</ele>
        <time>2023-08-05T09:06:57Z</time>
      </trkpt>
      <trkpt lat="50.97764" lon="2.42219">
        <ele>9.2</ele>
        <time>2023-08-05T09:06:59Z</time>
      </trkpt>
      <trkpt lat="50.97759" lon="2.4222">
        <ele>9.2</ele>
        <time>2023-08-05T09:07:00Z</time>
      </trkpt>
      <trkpt lat="50.97754" lon="2.4222">
        <ele>9.2</ele>
        <time>2023-08-05T09:07:01Z</time>
      </trkpt>
      <trkpt lat="50.9775" lon="2.42221">
        <ele>9.2</ele>
        <time>2023-08-05T09:07:02Z</time>
      </trkpt>
      <trkpt lat="50.97747" lon="2.42222">
        <ele>9.2</ele>
        <time>2023-08-05T09:07:03Z</time>
      </trkpt>
      <trkpt lat="50.97743" lon="2.42223">
        <ele>9.2</ele>
        <time>2023-08-05T09:07:04Z</time>
      </trkpt>
      <trkpt lat="50.97737" lon="2.42223">
        <ele>9.2</ele>
        <time>2023-08-05T09:07:05Z</time>
      </trkpt>
      <trkpt lat="50.97731" lon="2.42222">
        <ele>9.2</ele>
        <time>2023-08-05T09:07:06Z</time>
      </trkpt>
      <trkpt lat="50.97726" lon="2.42221">
        <ele>9.2</ele>
        <time>2023-08-05T09:07:07Z</time>
      </trkpt>
      <trkpt lat="50.97721" lon="2.4222">
        <ele>9.2</ele>
        <time>2023-08-05T09:07:08Z</time>
      </trkpt>
      <trkpt lat="50.97718" lon="2.4222">
        <ele>9.2</ele>
        <time>2023-08-05T09:07:09Z</time>
      </trkpt>
      <trkpt lat="50.97713" lon="2.4222">
        <ele>9.2</ele>
        <time>2023-08-05T09:07:10Z</time>
      </trkpt>
      <trkpt lat="50.97707" lon="2.4222">
        <ele>9.2</ele>
        <time>2023-08-05T09:07:11Z</time>
      </trkpt>
      <trkpt lat="50.977" lon="2.42218">
        <ele>9.2</ele>
        <time>2023-08-05T09:07:12Z</time>
      </trkpt>
      <trkpt lat="50.9769" lon="2.42218">
        <ele>9.2</ele>
        <time>2023-08-05T09:07:13Z</time>
      </trkpt>
      <trkpt lat="50.97671" lon="2.4222">
        <ele>9.8</ele>
        <time>2023-08-05T09:07:18Z</time>
      </trkpt>
      <trkpt lat="50.97667" lon="2.42219">
        <ele>9.8</ele>
        <time>2023-08-05T09:07:19Z</time>
      </trkpt>
      <trkpt lat="50.97662" lon="2.42218">
        <ele>10</ele>
        <time>2023-08-05T09:07:20Z</time>
      </trkpt>
      <trkpt lat="50.97657" lon="2.42216">
        <ele>10</ele>
        <time>2023-08-05T09:07:21Z</time>
      </trkpt>
      <trkpt lat="50.97646" lon="2.42214">
        <ele>10.2</ele>
        <time>2023-08-05T09:07:23Z</time>
      </trkpt>
      <trkpt lat="50.9764" lon="2.42215">
        <ele>10.2</ele>
        <time>2023-08-05T09:07:24Z</time>
      </trkpt>
      <trkpt lat="50.97634" lon="2.42218">
        <ele>10.2</ele>
        <time>2023-08-05T09:07:25Z</time>
      </trkpt>
      <trkpt lat="50.97628" lon="2.42224">
        <ele>10.2</ele>
        <time>2023-08-05T09:07:26Z</time>
      </trkpt>
      <trkpt lat="50.97624" lon="2.42228">
        <ele>10.2</ele>
        <time>2023-08-05T09:07:27Z</time>
      </trkpt>
      <trkpt lat="50.97621" lon="2.42232">
        <ele>10.2</ele>
        <time>2023-08-05T09:07:28Z</time>
      </trkpt>
      <trkpt lat="50.97616" lon="2.42234">
        <ele>10.2</ele>
        <time>2023-08-05T09:07:29Z</time>
      </trkpt>
      <trkpt lat="50.97611" lon="2.42235">
        <ele>10</ele>
        <time>2023-08-05T09:07:30Z</time>
      </trkpt>
      <trkpt lat="50.97607" lon="2.42238">
        <ele>10</ele>
        <time>2023-08-05T09:07:31Z</time>
      </trkpt>
      <trkpt lat="50.97602" lon="2.42241">
        <ele>9.8</ele>
        <time>2023-08-05T09:07:32Z</time>
      </trkpt>
      <trkpt lat="50.97596" lon="2.42243">
        <ele>9.8</ele>
        <time>2023-08-05T09:07:33Z</time>
      </trkpt>
      <trkpt lat="50.97592" lon="2.42245">
        <ele>9.8</ele>
        <time>2023-08-05T09:07:34Z</time>
      </trkpt>
      <trkpt lat="50.9757" lon="2.42257">
        <ele>9.4</ele>
        <time>2023-08-05T09:07:39Z</time>
      </trkpt>
      <trkpt lat="50.97562" lon="2.42266">
        <ele>9.4</ele>
        <time>2023-08-05T09:07:41Z</time>
      </trkpt>
      <trkpt lat="50.97559" lon="2.42271">
        <ele>9.4</ele>
        <time>2023-08-05T09:07:42Z</time>
      </trkpt>
      <trkpt lat="50.97554" lon="2.42281">
        <ele>9.4</ele>
        <time>2023-08-05T09:07:43Z</time>
      </trkpt>
      <trkpt lat="50.9755" lon="2.42287">
        <ele>9.2</ele>
        <time>2023-08-05T09:07:44Z</time>
      </trkpt>
      <trkpt lat="50.97546" lon="2.42293">
        <ele>9.2</ele>
        <time>2023-08-05T09:07:45Z</time>
      </trkpt>
      <trkpt lat="50.97537" lon="2.42301">
        <ele>9.2</ele>
        <time>2023-08-05T09:07:47Z</time>
      </trkpt>
      <trkpt lat="50.97531" lon="2.4231">
        <ele>9.2</ele>
        <time>2023-08-05T09:07:49Z</time>
      </trkpt>
      <trkpt lat="50.97529" lon="2.42315">
        <ele>9.2</ele>
        <time>2023-08-05T09:07:50Z</time>
      </trkpt>
      <trkpt lat="50.97526" lon="2.42321">
        <ele>9.2</ele>
        <time>2023-08-05T09:07:51Z</time>
      </trkpt>
      <trkpt lat="50.97523" lon="2.42326">
        <ele>9.2</ele>
        <time>2023-08-05T09:07:52Z</time>
      </trkpt>
      <trkpt lat="50.97519" lon="2.4233">
        <ele>9.2</ele>
        <time>2023-08-05T09:07:53Z</time>
      </trkpt>
      <trkpt lat="50.97513" lon="2.42345">
        <ele>9</ele>
        <time>2023-08-05T09:07:56Z</time>
      </trkpt>
      <trkpt lat="50.9751" lon="2.42354">
        <ele>8.8</ele>
        <time>2023-08-05T09:07:57Z</time>
      </trkpt>
      <trkpt lat="50.97508" lon="2.42359">
        <ele>8.8</ele>
        <time>2023-08-05T09:07:58Z</time>
      </trkpt>
      <trkpt lat="50.97506" lon="2.42363">
        <ele>8.8</ele>
        <time>2023-08-05T09:07:59Z</time>
      </trkpt>
      <trkpt lat="50.97504" lon="2.42369">
        <ele>8.8</ele>
        <time>2023-08-05T09:08:00Z</time>
      </trkpt>
      <trkpt lat="50.97502" lon="2.4237">
        <ele>8.6</ele>
        <time>2023-08-05T09:08:01Z</time>
      </trkpt>
      <trkpt lat="50.97501" lon="2.4237">
        <ele>8.2</ele>
        <time>2023-08-05T09:08:02Z</time>
      </trkpt>
      <trkpt lat="50.975" lon="2.42367">
        <ele>8.4</ele>
        <time>2023-08-05T09:08:03Z</time>
      </trkpt>
      <trkpt lat="50.97501" lon="2.4236">
        <ele>8.2</ele>
        <time>2023-08-05T09:08:05Z</time>
      </trkpt>
      <trkpt lat="50.97503" lon="2.42348">
        <ele>8</ele>
        <time>2023-08-05T09:08:08Z</time>
      </trkpt>
      <trkpt lat="50.97504" lon="2.42344">
        <ele>8</ele>
        <time>2023-08-05T09:08:09Z</time>
      </trkpt>
      <trkpt lat="50.97505" lon="2.42341">
        <ele>7.8</ele>
        <time>2023-08-05T09:08:10Z</time>
      </trkpt>
      <trkpt lat="50.97505" lon="2.42339">
        <ele>7.8</ele>
        <time>2023-08-05T09:08:11Z</time>
      </trkpt>
      <trkpt lat="50.97505" lon="2.42336">
        <ele>7.8</ele>
        <time>2023-08-05T09:08:12Z</time>
      </trkpt>
      <trkpt lat="50.97503" lon="2.42332">
        <ele>7.6</ele>
        <time>2023-08-05T09:08:13Z</time>
      </trkpt>
      <trkpt lat="50.975" lon="2.4233">
        <ele>7.4</ele>
        <time>2023-08-05T09:08:14Z</time>
      </trkpt>
      <trkpt lat="50.97497" lon="2.42331">
        <ele>7.4</ele>
        <time>2023-08-05T09:08:15Z</time>
      </trkpt>
      <trkpt lat="50.97489" lon="2.4234">
        <ele>7.2</ele>
        <time>2023-08-05T09:08:18Z</time>
      </trkpt>
      <trkpt lat="50.97483" lon="2.42349">
        <ele>7</ele>
        <time>2023-08-05T09:08:21Z</time>
      </trkpt>
      <trkpt lat="50.97481" lon="2.42351">
        <ele>7</ele>
        <time>2023-08-05T09:08:22Z</time>
      </trkpt>
      <trkpt lat="50.97479" lon="2.42353">
        <ele>6.8</ele>
        <time>2023-08-05T09:08:23Z</time>
      </trkpt>
      <trkpt lat="50.97476" lon="2.42357">
        <ele>6.6</ele>
        <time>2023-08-05T09:08:24Z</time>
      </trkpt>
      <trkpt lat="50.97474" lon="2.42358">
        <ele>6.6</ele>
        <time>2023-08-05T09:08:25Z</time>
      </trkpt>
      <trkpt lat="50.9747" lon="2.42361">
        <ele>6.6</ele>
        <time>2023-08-05T09:08:26Z</time>
      </trkpt>
      <trkpt lat="50.97457" lon="2.42377">
        <ele>6.6</ele>
        <time>2023-08-05T09:08:30Z</time>
      </trkpt>
      <trkpt lat="50.9745" lon="2.42386">
        <ele>6.6</ele>
        <time>2023-08-05T09:08:32Z</time>
      </trkpt>
      <trkpt lat="50.97444" lon="2.42391">
        <ele>6.6</ele>
        <time>2023-08-05T09:08:34Z</time>
      </trkpt>
      <trkpt lat="50.97441" lon="2.42394">
        <ele>6.4</ele>
        <time>2023-08-05T09:08:35Z</time>
      </trkpt>
      <trkpt lat="50.97438" lon="2.42397">
        <ele>6.4</ele>
        <time>2023-08-05T09:08:36Z</time>
      </trkpt>
      <trkpt lat="50.9743" lon="2.42406">
        <ele>6.2</ele>
        <time>2023-08-05T09:08:38Z</time>
      </trkpt>
      <trkpt lat="50.97417" lon="2.42421">
        <ele>6</ele>
        <time>2023-08-05T09:08:42Z</time>
      </trkpt>
      <trkpt lat="50.97414" lon="2.42425">
        <ele>6</ele>
        <time>2023-08-05T09:08:43Z</time>
      </trkpt>
      <trkpt lat="50.97409" lon="2.42432">
        <ele>5.6</ele>
        <time>2023-08-05T09:08:44Z</time>
      </trkpt>
      <trkpt lat="50.974" lon="2.42446">
        <ele>5.6</ele>
        <time>2023-08-05T09:08:46Z</time>
      </trkpt>
      <trkpt lat="50.97388" lon="2.42459">
        <ele>5.6</ele>
        <time>2023-08-05T09:08:49Z</time>
      </trkpt>
      <trkpt lat="50.97371" lon="2.42477">
        <ele>5.6</ele>
        <time>2023-08-05T09:08:53Z</time>
      </trkpt>
      <trkpt lat="50.97367" lon="2.42482">
        <ele>5.4</ele>
        <time>2023-08-05T09:08:54Z</time>
      </trkpt>
      <trkpt lat="50.97362" lon="2.4249">
        <ele>5.4</ele>
        <time>2023-08-05T09:08:55Z</time>
      </trkpt>
      <trkpt lat="50.97357" lon="2.42498">
        <ele>5.4</ele>
        <time>2023-08-05T09:08:56Z</time>
      </trkpt>
      <trkpt lat="50.97339" lon="2.42517">
        <ele>5.2</ele>
        <time>2023-08-05T09:08:59Z</time>
      </trkpt>
      <trkpt lat="50.97318" lon="2.4254">
        <ele>5.2</ele>
        <time>2023-08-05T09:09:04Z</time>
      </trkpt>
      <trkpt lat="50.97314" lon="2.42545">
        <ele>5.2</ele>
        <time>2023-08-05T09:09:05Z</time>
      </trkpt>
      <trkpt lat="50.97309" lon="2.4255">
        <ele>5.2</ele>
        <time>2023-08-05T09:09:06Z</time>
      </trkpt>
      <trkpt lat="50.97301" lon="2.42557">
        <ele>5</ele>
        <time>2023-08-05T09:09:08Z</time>
      </trkpt>
      <trkpt lat="50.9729" lon="2.42566">
        <ele>4.8</ele>
        <time>2023-08-05T09:09:11Z</time>
      </trkpt>
      <trkpt lat="50.97286" lon="2.42568">
        <ele>4.8</ele>
        <time>2023-08-05T09:09:12Z</time>
      </trkpt>
      <trkpt lat="50.97282" lon="2.42571">
        <ele>4.6</ele>
        <time>2023-08-05T09:09:13Z</time>
      </trkpt>
      <trkpt lat="50.97278" lon="2.42575">
        <ele>4.6</ele>
        <time>2023-08-05T09:09:14Z</time>
      </trkpt>
      <trkpt lat="50.97274" lon="2.42578">
        <ele>4.4</ele>
        <time>2023-08-05T09:09:15Z</time>
      </trkpt>
      <trkpt lat="50.9727" lon="2.42582">
        <ele>4.4</ele>
        <time>2023-08-05T09:09:16Z</time>
      </trkpt>
      <trkpt lat="50.97266" lon="2.42586">
        <ele>4.4</ele>
        <time>2023-08-05T09:09:17Z</time>
      </trkpt>
      <trkpt lat="50.97262" lon="2.4259">
        <ele>4.4</ele>
        <time>2023-08-05T09:09:18Z</time>
      </trkpt>
      <trkpt lat="50.97254" lon="2.42595">
        <ele>4.2</ele>
        <time>2023-08-05T09:09:20Z</time>
      </trkpt>
      <trkpt lat="50.97245" lon="2.42601">
        <ele>4.2</ele>
        <time>2023-08-05T09:09:22Z</time>
      </trkpt>
      <trkpt lat="50.97238" lon="2.42606">
        <ele>4.2</ele>
        <time>2023-08-05T09:09:24Z</time>
      </trkpt>
      <trkpt lat="50.97227" lon="2.42617">
        <ele>4</ele>
        <time>2023-08-05T09:09:27Z</time>
      </trkpt>
      <trkpt lat="50.97222" lon="2.42621">
        <ele>4</ele>
        <time>2023-08-05T09:09:28Z</time>
      </trkpt>
      <trkpt lat="50.97217" lon="2.42626">
        <ele>4</ele>
        <time>2023-08-05T09:09:29Z</time>
      </trkpt>
      <trkpt lat="50.97214" lon="2.42629">
        <ele>4</ele>
        <time>2023-08-05T09:09:30Z</time>
      </trkpt>
      <trkpt lat="50.9721" lon="2.42635">
        <ele>4</ele>
        <time>2023-08-05T09:09:31Z</time>
      </trkpt>
      <trkpt lat="50.97204" lon="2.42642">
        <ele>4.2</ele>
        <time>2023-08-05T09:09:32Z</time>
      </trkpt>
      <trkpt lat="50.97194" lon="2.42652">
        <ele>4.2</ele>
        <time>2023-08-05T09:09:34Z</time>
      </trkpt>
      <trkpt lat="50.97181" lon="2.42663">
        <ele>4.6</ele>
        <time>2023-08-05T09:09:37Z</time>
      </trkpt>
      <trkpt lat="50.97175" lon="2.42668">
        <ele>4.8</ele>
        <time>2023-08-05T09:09:38Z</time>
      </trkpt>
      <trkpt lat="50.97171" lon="2.42672">
        <ele>4.8</ele>
        <time>2023-08-05T09:09:39Z</time>
      </trkpt>
      <trkpt lat="50.97167" lon="2.42676">
        <ele>5</ele>
        <time>2023-08-05T09:09:40Z</time>
      </trkpt>
      <trkpt lat="50.9716" lon="2.4269">
        <ele>5.4</ele>
        <time>2023-08-05T09:09:42Z</time>
      </trkpt>
      <trkpt lat="50.97155" lon="2.42703">
        <ele>5.6</ele>
        <time>2023-08-05T09:09:44Z</time>
      </trkpt>
      <trkpt lat="50.97153" lon="2.4271">
        <ele>5.6</ele>
        <time>2023-08-05T09:09:45Z</time>
      </trkpt>
      <trkpt lat="50.97154" lon="2.42717">
        <ele>5.8</ele>
        <time>2023-08-05T09:09:46Z</time>
      </trkpt>
      <trkpt lat="50.97155" lon="2.42724">
        <ele>5.8</ele>
        <time>2023-08-05T09:09:47Z</time>
      </trkpt>
      <trkpt lat="50.97156" lon="2.42729">
        <ele>5.8</ele>
        <time>2023-08-05T09:09:48Z</time>
      </trkpt>
      <trkpt lat="50.97156" lon="2.42729">
        <ele>6</ele>
        <time>2023-08-05T09:09:49Z</time>
      </trkpt>
      <trkpt lat="50.97159" lon="2.42742">
        <ele>6</ele>
        <time>2023-08-05T09:09:50Z</time>
      </trkpt>
      <trkpt lat="50.9716" lon="2.42746">
        <ele>6.2</ele>
        <time>2023-08-05T09:09:51Z</time>
      </trkpt>
      <trkpt lat="50.97162" lon="2.42753">
        <ele>6.4</ele>
        <time>2023-08-05T09:09:52Z</time>
      </trkpt>
      <trkpt lat="50.97164" lon="2.4276">
        <ele>6.4</ele>
        <time>2023-08-05T09:09:53Z</time>
      </trkpt>
      <trkpt lat="50.97166" lon="2.42769">
        <ele>6.6</ele>
        <time>2023-08-05T09:09:54Z</time>
      </trkpt>
      <trkpt lat="50.97168" lon="2.42776">
        <ele>6.8</ele>
        <time>2023-08-05T09:09:55Z</time>
      </trkpt>
      <trkpt lat="50.97176" lon="2.42813">
        <ele>7.2</ele>
        <time>2023-08-05T09:10:00Z</time>
      </trkpt>
      <trkpt lat="50.97181" lon="2.42828">
        <ele>7.4</ele>
        <time>2023-08-05T09:10:02Z</time>
      </trkpt>
      <trkpt lat="50.97187" lon="2.42853">
        <ele>7.8</ele>
        <time>2023-08-05T09:10:05Z</time>
      </trkpt>
      <trkpt lat="50.97189" lon="2.42861">
        <ele>7.8</ele>
        <time>2023-08-05T09:10:06Z</time>
      </trkpt>
      <trkpt lat="50.97191" lon="2.42868">
        <ele>8</ele>
        <time>2023-08-05T09:10:07Z</time>
      </trkpt>
      <trkpt lat="50.97193" lon="2.42876">
        <ele>8</ele>
        <time>2023-08-05T09:10:08Z</time>
      </trkpt>
      <trkpt lat="50.97195" lon="2.42884">
        <ele>8</ele>
        <time>2023-08-05T09:10:09Z</time>
      </trkpt>
      <trkpt lat="50.97197" lon="2.42892">
        <ele>8.2</ele>
        <time>2023-08-05T09:10:10Z</time>
      </trkpt>
      <trkpt lat="50.97199" lon="2.42901">
        <ele>8.2</ele>
        <time>2023-08-05T09:10:11Z</time>
      </trkpt>
      <trkpt lat="50.972" lon="2.42908">
        <ele>8.2</ele>
        <time>2023-08-05T09:10:12Z</time>
      </trkpt>
      <trkpt lat="50.97202" lon="2.42916">
        <ele>8.2</ele>
        <time>2023-08-05T09:10:13Z</time>
      </trkpt>
      <trkpt lat="50.97203" lon="2.42925">
        <ele>8.4</ele>
        <time>2023-08-05T09:10:14Z</time>
      </trkpt>
      <trkpt lat="50.97205" lon="2.42935">
        <ele>8.4</ele>
        <time>2023-08-05T09:10:15Z</time>
      </trkpt>
      <trkpt lat="50.97206" lon="2.42942">
        <ele>8.6</ele>
        <time>2023-08-05T09:10:16Z</time>
      </trkpt>
      <trkpt lat="50.97211" lon="2.42968">
        <ele>8.8</ele>
        <time>2023-08-05T09:10:19Z</time>
      </trkpt>
      <trkpt lat="50.97214" lon="2.42996">
        <ele>9.2</ele>
        <time>2023-08-05T09:10:22Z</time>
      </trkpt>
      <trkpt lat="50.97214" lon="2.43003">
        <ele>9.2</ele>
        <time>2023-08-05T09:10:23Z</time>
      </trkpt>
      <trkpt lat="50.97213" lon="2.4302">
        <ele>9.4</ele>
        <time>2023-08-05T09:10:25Z</time>
      </trkpt>
      <trkpt lat="50.97209" lon="2.43044">
        <ele>9.6</ele>
        <time>2023-08-05T09:10:28Z</time>
      </trkpt>
      <trkpt lat="50.97208" lon="2.43052">
        <ele>9.8</ele>
        <time>2023-08-05T09:10:29Z</time>
      </trkpt>
      <trkpt lat="50.97206" lon="2.4306">
        <ele>9.8</ele>
        <time>2023-08-05T09:10:30Z</time>
      </trkpt>
      <trkpt lat="50.97204" lon="2.4307">
        <ele>9.8</ele>
        <time>2023-08-05T09:10:31Z</time>
      </trkpt>
      <trkpt lat="50.97201" lon="2.43084">
        <ele>9.8</ele>
        <time>2023-08-05T09:10:33Z</time>
      </trkpt>
      <trkpt lat="50.97198" lon="2.431">
        <ele>10</ele>
        <time>2023-08-05T09:10:35Z</time>
      </trkpt>
      <trkpt lat="50.97196" lon="2.43109">
        <ele>10</ele>
        <time>2023-08-05T09:10:36Z</time>
      </trkpt>
      <trkpt lat="50.97187" lon="2.43146">
        <ele>10</ele>
        <time>2023-08-05T09:10:41Z</time>
      </trkpt>
      <trkpt lat="50.97184" lon="2.43161">
        <ele>10</ele>
        <time>2023-08-05T09:10:43Z</time>
      </trkpt>
      <trkpt lat="50.97182" lon="2.43166">
        <ele>10</ele>
        <time>2023-08-05T09:10:44Z</time>
      </trkpt>
      <trkpt lat="50.97181" lon="2.43173">
        <ele>10</ele>
        <time>2023-08-05T09:10:45Z</time>
      </trkpt>
      <trkpt lat="50.9718" lon="2.4318">
        <ele>9.8</ele>
        <time>2023-08-05T09:10:46Z</time>
      </trkpt>
      <trkpt lat="50.9718" lon="2.4319">
        <ele>9.8</ele>
        <time>2023-08-05T09:10:47Z</time>
      </trkpt>
      <trkpt lat="50.9718" lon="2.43198">
        <ele>9.8</ele>
        <time>2023-08-05T09:10:48Z</time>
      </trkpt>
      <trkpt lat="50.9718" lon="2.43204">
        <ele>9.8</ele>
        <time>2023-08-05T09:10:49Z</time>
      </trkpt>
      <trkpt lat="50.97181" lon="2.43213">
        <ele>9.8</ele>
        <time>2023-08-05T09:10:50Z</time>
      </trkpt>
      <trkpt lat="50.97184" lon="2.43257">
        <ele>9.4</ele>
        <time>2023-08-05T09:10:55Z</time>
      </trkpt>
      <trkpt lat="50.97186" lon="2.43292">
        <ele>9</ele>
        <time>2023-08-05T09:10:59Z</time>
      </trkpt>
      <trkpt lat="50.97187" lon="2.43303">
        <ele>9</ele>
        <time>2023-08-05T09:11:01Z</time>
      </trkpt>
      <trkpt lat="50.97187" lon="2.43308">
        <ele>8.8</ele>
        <time>2023-08-05T09:11:02Z</time>
      </trkpt>
      <trkpt lat="50.97187" lon="2.43311">
        <ele>8.8</ele>
        <time>2023-08-05T09:11:03Z</time>
      </trkpt>
      <trkpt lat="50.97186" lon="2.43313">
        <ele>8.8</ele>
        <time>2023-08-05T09:11:04Z</time>
      </trkpt>
      <trkpt lat="50.97184" lon="2.43315">
        <ele>8.6</ele>
        <time>2023-08-05T09:11:05Z</time>
      </trkpt>
      <trkpt lat="50.97182" lon="2.43316">
        <ele>8.6</ele>
        <time>2023-08-05T09:11:06Z</time>
      </trkpt>
      <trkpt lat="50.97179" lon="2.43316">
        <ele>8.6</ele>
        <time>2023-08-05T09:11:07Z</time>
      </trkpt>
      <trkpt lat="50.97173" lon="2.43316">
        <ele>8.4</ele>
        <time>2023-08-05T09:11:09Z</time>
      </trkpt>
      <trkpt lat="50.9717" lon="2.43317">
        <ele>8.4</ele>
        <time>2023-08-05T09:11:10Z</time>
      </trkpt>
      <trkpt lat="50.97153" lon="2.43316">
        <ele>8.2</ele>
        <time>2023-08-05T09:11:15Z</time>
      </trkpt>
      <trkpt lat="50.97149" lon="2.43315">
        <ele>8</ele>
        <time>2023-08-05T09:11:16Z</time>
      </trkpt>
      <trkpt lat="50.97137" lon="2.43309">
        <ele>7.6</ele>
        <time>2023-08-05T09:11:19Z</time>
      </trkpt>
      <trkpt lat="50.9713" lon="2.43305">
        <ele>7.4</ele>
        <time>2023-08-05T09:11:21Z</time>
      </trkpt>
      <trkpt lat="50.97118" lon="2.43295">
        <ele>7.4</ele>
        <time>2023-08-05T09:11:24Z</time>
      </trkpt>
      <trkpt lat="50.97113" lon="2.43288">
        <ele>7.2</ele>
        <time>2023-08-05T09:11:26Z</time>
      </trkpt>
      <trkpt lat="50.97103" lon="2.43269">
        <ele>7</ele>
        <time>2023-08-05T09:11:30Z</time>
      </trkpt>
      <trkpt lat="50.971" lon="2.43264">
        <ele>7</ele>
        <time>2023-08-05T09:11:31Z</time>
      </trkpt>
      <trkpt lat="50.97098" lon="2.4326">
        <ele>6.8</ele>
        <time>2023-08-05T09:11:32Z</time>
      </trkpt>
      <trkpt lat="50.97096" lon="2.43254">
        <ele>6.8</ele>
        <time>2023-08-05T09:11:33Z</time>
      </trkpt>
      <trkpt lat="50.97093" lon="2.4325">
        <ele>6.8</ele>
        <time>2023-08-05T09:11:34Z</time>
      </trkpt>
      <trkpt lat="50.97092" lon="2.43248">
        <ele>6.6</ele>
        <time>2023-08-05T09:11:35Z</time>
      </trkpt>
      <trkpt lat="50.97089" lon="2.43245">
        <ele>6.6</ele>
        <time>2023-08-05T09:11:36Z</time>
      </trkpt>
      <trkpt lat="50.97086" lon="2.43243">
        <ele>6.6</ele>
        <time>2023-08-05T09:11:37Z</time>
      </trkpt>
      <trkpt lat="50.97082" lon="2.43244">
        <ele>6.4</ele>
        <time>2023-08-05T09:11:38Z</time>
      </trkpt>
      <trkpt lat="50.9708" lon="2.43245">
        <ele>6.2</ele>
        <time>2023-08-05T09:11:39Z</time>
      </trkpt>
      <trkpt lat="50.97072" lon="2.43249">
        <ele>6</ele>
        <time>2023-08-05T09:11:41Z</time>
      </trkpt>
      <trkpt lat="50.97069" lon="2.43251">
        <ele>6</ele>
        <time>2023-08-05T09:11:42Z</time>
      </trkpt>
      <trkpt lat="50.97051" lon="2.43251">
        <ele>5.8</ele>
        <time>2023-08-05T09:11:47Z</time>
      </trkpt>
      <trkpt lat="50.97048" lon="2.43246">
        <ele>5.8</ele>
        <time>2023-08-05T09:11:48Z</time>
      </trkpt>
      <trkpt lat="50.97045" lon="2.43242">
        <ele>5.8</ele>
        <time>2023-08-05T09:11:49Z</time>
      </trkpt>
      <trkpt lat="50.97043" lon="2.43238">
        <ele>5.8</ele>
        <time>2023-08-05T09:11:50Z</time>
      </trkpt>
      <trkpt lat="50.9704" lon="2.43233">
        <ele>5.6</ele>
        <time>2023-08-05T09:11:51Z</time>
      </trkpt>
      <trkpt lat="50.97028" lon="2.43215">
        <ele>5.4</ele>
        <time>2023-08-05T09:11:55Z</time>
      </trkpt>
      <trkpt lat="50.97025" lon="2.43211">
        <ele>5.4</ele>
        <time>2023-08-05T09:11:56Z</time>
      </trkpt>
      <trkpt lat="50.97" lon="2.4317">
        <ele>5.2</ele>
        <time>2023-08-05T09:12:05Z</time>
      </trkpt>
      <trkpt lat="50.96993" lon="2.43158">
        <ele>5.2</ele>
        <time>2023-08-05T09:12:08Z</time>
      </trkpt>
      <trkpt lat="50.96991" lon="2.43155">
        <ele>5</ele>
        <time>2023-08-05T09:12:09Z</time>
      </trkpt>
      <trkpt lat="50.96988" lon="2.43152">
        <ele>5</ele>
        <time>2023-08-05T09:12:10Z</time>
      </trkpt>
      <trkpt lat="50.96986" lon="2.4315">
        <ele>5</ele>
        <time>2023-08-05T09:12:11Z</time>
      </trkpt>
      <trkpt lat="50.96984" lon="2.43148">
        <ele>5</ele>
        <time>2023-08-05T09:12:12Z</time>
      </trkpt>
      <trkpt lat="50.96983" lon="2.43145">
        <ele>5</ele>
        <time>2023-08-05T09:12:13Z</time>
      </trkpt>
      <trkpt lat="50.96981" lon="2.43143">
        <ele>4.8</ele>
        <time>2023-08-05T09:12:14Z</time>
      </trkpt>
      <trkpt lat="50.9698" lon="2.43142">
        <ele>4.8</ele>
        <time>2023-08-05T09:12:15Z</time>
      </trkpt>
      <trkpt lat="50.9698" lon="2.43142">
        <ele>4.8</ele>
        <time>2023-08-05T09:12:16Z</time>
      </trkpt>
      <trkpt lat="50.9698" lon="2.43142">
        <ele>4.8</ele>
        <time>2023-08-05T09:12:17Z</time>
      </trkpt>
      <trkpt lat="50.96971" lon="2.43133">
        <ele>4.2</ele>
        <time>2023-08-05T09:12:26Z</time>
      </trkpt>
      <trkpt lat="50.96967" lon="2.43129">
        <ele>4.2</ele>
        <time>2023-08-05T09:12:28Z</time>
      </trkpt>
      <trkpt lat="50.9695" lon="2.4312">
        <ele>3.8</ele>
        <time>2023-08-05T09:12:33Z</time>
      </trkpt>
      <trkpt lat="50.96938" lon="2.43117">
        <ele>3.6</ele>
        <time>2023-08-05T09:12:35Z</time>
      </trkpt>
      <trkpt lat="50.96931" lon="2.43116">
        <ele>3.6</ele>
        <time>2023-08-05T09:12:36Z</time>
      </trkpt>
      <trkpt lat="50.96926" lon="2.43114">
        <ele>3.4</ele>
        <time>2023-08-05T09:12:37Z</time>
      </trkpt>
      <trkpt lat="50.9692" lon="2.43108">
        <ele>3.2</ele>
        <time>2023-08-05T09:12:39Z</time>
      </trkpt>
      <trkpt lat="50.96918" lon="2.43106">
        <ele>3.2</ele>
        <time>2023-08-05T09:12:40Z</time>
      </trkpt>
      <trkpt lat="50.96916" lon="2.43104">
        <ele>3.2</ele>
        <time>2023-08-05T09:12:41Z</time>
      </trkpt>
      <trkpt lat="50.96914" lon="2.43102">
        <ele>3.2</ele>
        <time>2023-08-05T09:12:42Z</time>
      </trkpt>
      <trkpt lat="50.96912" lon="2.43101">
        <ele>3</ele>
        <time>2023-08-05T09:12:43Z</time>
      </trkpt>
      <trkpt lat="50.96912" lon="2.43101">
        <ele>2.8</ele>
        <time>2023-08-05T09:12:44Z</time>
      </trkpt>
      <trkpt lat="50.96912" lon="2.43101">
        <ele>2.8</ele>
        <time>2023-08-05T09:12:45Z</time>
      </trkpt>
      <trkpt lat="50.96912" lon="2.431">
        <ele>2.8</ele>
        <time>2023-08-05T09:12:46Z</time>
      </trkpt>
      <trkpt lat="50.96912" lon="2.43099">
        <ele>2.8</ele>
        <time>2023-08-05T09:12:47Z</time>
      </trkpt>
      <trkpt lat="50.96912" lon="2.43099">
        <ele>2.8</ele>
        <time>2023-08-05T09:12:48Z</time>
      </trkpt>
      <trkpt lat="50.96912" lon="2.43099">
        <ele>2.8</ele>
        <time>2023-08-05T09:12:49Z</time>
      </trkpt>
      <trkpt lat="50.96912" lon="2.43099">
        <ele>2.8</ele>
        <time>2023-08-05T09:12:50Z</time>
      </trkpt>
      <trkpt lat="50.96912" lon="2.43099">
        <ele>2.6</ele>
        <time>2023-08-05T09:12:52Z</time>
      </trkpt>
      <trkpt lat="50.96901" lon="2.43096">
        <ele>3</ele>
        <time>2023-08-05T09:16:39Z</time>
      </trkpt>
      <trkpt lat="50.96899" lon="2.43097">
        <ele>3</ele>
        <time>2023-08-05T09:16:40Z</time>
      </trkpt>
      <trkpt lat="50.96881" lon="2.43107">
        <ele>2.2</ele>
        <time>2023-08-05T09:16:46Z</time>
      </trkpt>
      <trkpt lat="50.96878" lon="2.43108">
        <ele>2</ele>
        <time>2023-08-05T09:16:47Z</time>
      </trkpt>
      <trkpt lat="50.96875" lon="2.43109">
        <ele>2</ele>
        <time>2023-08-05T09:16:48Z</time>
      </trkpt>
      <trkpt lat="50.96868" lon="2.43114">
        <ele>1.8</ele>
        <time>2023-08-05T09:16:51Z</time>
      </trkpt>
      <trkpt lat="50.96865" lon="2.43115">
        <ele>1.6</ele>
        <time>2023-08-05T09:16:53Z</time>
      </trkpt>
      <trkpt lat="50.96862" lon="2.43117">
        <ele>1.4</ele>
        <time>2023-08-05T09:16:55Z</time>
      </trkpt>
      <trkpt lat="50.96861" lon="2.4312">
        <ele>1.2</ele>
        <time>2023-08-05T09:16:56Z</time>
      </trkpt>
      <trkpt lat="50.96861" lon="2.43122">
        <ele>1.2</ele>
        <time>2023-08-05T09:16:57Z</time>
      </trkpt>
      <trkpt lat="50.96861" lon="2.43125">
        <ele>1</ele>
        <time>2023-08-05T09:16:58Z</time>
      </trkpt>
      <trkpt lat="50.9686" lon="2.4313">
        <ele>1</ele>
        <time>2023-08-05T09:16:59Z</time>
      </trkpt>
      <trkpt lat="50.9686" lon="2.43135">
        <ele>1</ele>
        <time>2023-08-05T09:17:00Z</time>
      </trkpt>
      <trkpt lat="50.96857" lon="2.43154">
        <ele>0.80000000000001</ele>
        <time>2023-08-05T09:17:04Z</time>
      </trkpt>
      <trkpt lat="50.96856" lon="2.43163">
        <ele>0.60000000000002</ele>
        <time>2023-08-05T09:17:06Z</time>
      </trkpt>
      <trkpt lat="50.96853" lon="2.43185">
        <ele>0.19999999999999</ele>
        <time>2023-08-05T09:17:11Z</time>
      </trkpt>
      <trkpt lat="50.96851" lon="2.432">
        <ele>0.19999999999999</ele>
        <time>2023-08-05T09:17:16Z</time>
      </trkpt>
      <trkpt lat="50.9685" lon="2.43203">
        <ele>0.19999999999999</ele>
        <time>2023-08-05T09:17:17Z</time>
      </trkpt>
      <trkpt lat="50.9685" lon="2.43206">
        <ele>-0.19999999999999</ele>
        <time>2023-08-05T09:17:18Z</time>
      </trkpt>
      <trkpt lat="50.9685" lon="2.43209">
        <ele>-0.19999999999999</ele>
        <time>2023-08-05T09:17:19Z</time>
      </trkpt>
      <trkpt lat="50.9685" lon="2.43211">
        <ele>-0.39999999999998</ele>
        <time>2023-08-05T09:17:20Z</time>
      </trkpt>
      <trkpt lat="50.96849" lon="2.43212">
        <ele>-0.39999999999998</ele>
        <time>2023-08-05T09:17:21Z</time>
      </trkpt>
      <trkpt lat="50.96847" lon="2.43213">
        <ele>-0.39999999999998</ele>
        <time>2023-08-05T09:17:22Z</time>
      </trkpt>
      <trkpt lat="50.96846" lon="2.43214">
        <ele>-0.60000000000002</ele>
        <time>2023-08-05T09:17:23Z</time>
      </trkpt>
      <trkpt lat="50.96846" lon="2.43214">
        <ele>-0.60000000000002</ele>
        <time>2023-08-05T09:17:24Z</time>
      </trkpt>
      <trkpt lat="50.96846" lon="2.43214">
        <ele>-0.80000000000001</ele>
        <time>2023-08-05T09:17:25Z</time>
      </trkpt>
      <trkpt lat="50.96846" lon="2.43214">
        <ele>-0.80000000000001</ele>
        <time>2023-08-05T09:17:26Z</time>
      </trkpt>
      <trkpt lat="50.96832" lon="2.43224">
        <ele>-2.2</ele>
        <time>2023-08-05T09:17:39Z</time>
      </trkpt>
      <trkpt lat="50.96831" lon="2.43225">
        <ele>-2.2</ele>
        <time>2023-08-05T09:17:40Z</time>
      </trkpt>
      <trkpt lat="50.9683" lon="2.43225">
        <ele>-2.4</ele>
        <time>2023-08-05T09:17:41Z</time>
      </trkpt>
      <trkpt lat="50.9683" lon="2.43226">
        <ele>-2.6</ele>
        <time>2023-08-05T09:17:42Z</time>
      </trkpt>
      <trkpt lat="50.9683" lon="2.43228">
        <ele>-2.6</ele>
        <time>2023-08-05T09:17:44Z</time>
      </trkpt>
      <trkpt lat="50.96828" lon="2.43231">
        <ele>-3</ele>
        <time>2023-08-05T09:17:45Z</time>
      </trkpt>
      <trkpt lat="50.96825" lon="2.43234">
        <ele>-3</ele>
        <time>2023-08-05T09:17:46Z</time>
      </trkpt>
      <trkpt lat="50.96824" lon="2.43236">
        <ele>-3.2</ele>
        <time>2023-08-05T09:17:47Z</time>
      </trkpt>
      <trkpt lat="50.96822" lon="2.43237">
        <ele>-3.2</ele>
        <time>2023-08-05T09:17:48Z</time>
      </trkpt>
      <trkpt lat="50.96821" lon="2.43237">
        <ele>-3.2</ele>
        <time>2023-08-05T09:17:49Z</time>
      </trkpt>
      <trkpt lat="50.9682" lon="2.43238">
        <ele>-3.4</ele>
        <time>2023-08-05T09:17:50Z</time>
      </trkpt>
      <trkpt lat="50.96818" lon="2.43238">
        <ele>-3.6</ele>
        <time>2023-08-05T09:17:51Z</time>
      </trkpt>
      <trkpt lat="50.96817" lon="2.43239">
        <ele>-3.8</ele>
        <time>2023-08-05T09:17:52Z</time>
      </trkpt>
      <trkpt lat="50.96817" lon="2.43239">
        <ele>-3.8</ele>
        <time>2023-08-05T09:17:53Z</time>
      </trkpt>
      <trkpt lat="50.96814" lon="2.43243">
        <ele>-4.2</ele>
        <time>2023-08-05T09:17:55Z</time>
      </trkpt>
      <trkpt lat="50.96813" lon="2.43244">
        <ele>-4.6</ele>
        <time>2023-08-05T09:17:56Z</time>
      </trkpt>
      <trkpt lat="50.96812" lon="2.43244">
        <ele>-4.8</ele>
        <time>2023-08-05T09:17:57Z</time>
      </trkpt>
      <trkpt lat="50.96811" lon="2.43244">
        <ele>-5</ele>
        <time>2023-08-05T09:17:59Z</time>
      </trkpt>
      <trkpt lat="50.96807" lon="2.43247">
        <ele>-5.4</ele>
        <time>2023-08-05T09:18:01Z</time>
      </trkpt>
      <trkpt lat="50.96806" lon="2.43249">
        <ele>-5.6</ele>
        <time>2023-08-05T09:18:02Z</time>
      </trkpt>
      <trkpt lat="50.96803" lon="2.43254">
        <ele>-5.6</ele>
        <time>2023-08-05T09:18:03Z</time>
      </trkpt>
      <trkpt lat="50.96803" lon="2.43254">
        <ele>-5.6</ele>
        <time>2023-08-05T09:18:04Z</time>
      </trkpt>
      <trkpt lat="50.96801" lon="2.43255">
        <ele>-5.8</ele>
        <time>2023-08-05T09:18:05Z</time>
      </trkpt>
      <trkpt lat="50.96801" lon="2.43255">
        <ele>-5.8</ele>
        <time>2023-08-05T09:18:06Z</time>
      </trkpt>
      <trkpt lat="50.96801" lon="2.43255">
        <ele>-6</ele>
        <time>2023-08-05T09:18:07Z</time>
      </trkpt>
      <trkpt lat="50.96801" lon="2.43255">
        <ele>-6</ele>
        <time>2023-08-05T09:18:08Z</time>
      </trkpt>
      <trkpt lat="50.96801" lon="2.43255">
        <ele>-6.2</ele>
        <time>2023-08-05T09:18:09Z</time>
      </trkpt>
      <trkpt lat="50.96801" lon="2.43255">
        <ele>-6.2</ele>
        <time>2023-08-05T09:18:10Z</time>
      </trkpt>
      <trkpt lat="50.968" lon="2.4325">
        <ele>-6.4</ele>
        <time>2023-08-05T09:18:12Z</time>
      </trkpt>
      <trkpt lat="50.96797" lon="2.4324">
        <ele>-6.4</ele>
        <time>2023-08-05T09:18:14Z</time>
      </trkpt>
      <trkpt lat="50.96796" lon="2.43236">
        <ele>-6.6</ele>
        <time>2023-08-05T09:18:15Z</time>
      </trkpt>
      <trkpt lat="50.96786" lon="2.43219">
        <ele>-7</ele>
        <time>2023-08-05T09:18:19Z</time>
      </trkpt>
      <trkpt lat="50.96783" lon="2.43216">
        <ele>-7</ele>
        <time>2023-08-05T09:18:20Z</time>
      </trkpt>
      <trkpt lat="50.96775" lon="2.43213">
        <ele>-7.4</ele>
        <time>2023-08-05T09:18:23Z</time>
      </trkpt>
      <trkpt lat="50.96772" lon="2.43217">
        <ele>-7.4</ele>
        <time>2023-08-05T09:18:24Z</time>
      </trkpt>
      <trkpt lat="50.9677" lon="2.43221">
        <ele>-7.6</ele>
        <time>2023-08-05T09:18:25Z</time>
      </trkpt>
      <trkpt lat="50.96767" lon="2.43223">
        <ele>-7.6</ele>
        <time>2023-08-05T09:18:26Z</time>
      </trkpt>
      <trkpt lat="50.96765" lon="2.43225">
        <ele>-7.8</ele>
        <time>2023-08-05T09:18:27Z</time>
      </trkpt>
      <trkpt lat="50.96762" lon="2.43231">
        <ele>-8</ele>
        <time>2023-08-05T09:18:29Z</time>
      </trkpt>
      <trkpt lat="50.96757" lon="2.43234">
        <ele>-8.4</ele>
        <time>2023-08-05T09:18:32Z</time>
      </trkpt>
      <trkpt lat="50.96755" lon="2.43233">
        <ele>-8.6</ele>
        <time>2023-08-05T09:18:33Z</time>
      </trkpt>
      <trkpt lat="50.96752" lon="2.43229">
        <ele>-8.6</ele>
        <time>2023-08-05T09:18:35Z</time>
      </trkpt>
      <trkpt lat="50.96751" lon="2.43228">
        <ele>-8.8</ele>
        <time>2023-08-05T09:18:36Z</time>
      </trkpt>
      <trkpt lat="50.9675" lon="2.43226">
        <ele>-9</ele>
        <time>2023-08-05T09:18:37Z</time>
      </trkpt>
      <trkpt lat="50.96748" lon="2.43224">
        <ele>-9.2</ele>
        <time>2023-08-05T09:18:38Z</time>
      </trkpt>
      <trkpt lat="50.96746" lon="2.43221">
        <ele>-9.2</ele>
        <time>2023-08-05T09:18:39Z</time>
      </trkpt>
      <trkpt lat="50.96746" lon="2.43221">
        <ele>-9.4</ele>
        <time>2023-08-05T09:18:40Z</time>
      </trkpt>
      <trkpt lat="50.9674" lon="2.43216">
        <ele>-9.4</ele>
        <time>2023-08-05T09:18:41Z</time>
      </trkpt>
      <trkpt lat="50.96734" lon="2.43212">
        <ele>-9.6</ele>
        <time>2023-08-05T09:18:43Z</time>
      </trkpt>
      <trkpt lat="50.96731" lon="2.43211">
        <ele>-9.6</ele>
        <time>2023-08-05T09:18:44Z</time>
      </trkpt>
      <trkpt lat="50.96727" lon="2.4321">
        <ele>-9.6</ele>
        <time>2023-08-05T09:18:45Z</time>
      </trkpt>
      <trkpt lat="50.96724" lon="2.4321">
        <ele>-9.8</ele>
        <time>2023-08-05T09:18:46Z</time>
      </trkpt>
      <trkpt lat="50.96712" lon="2.43215">
        <ele>-9.8</ele>
        <time>2023-08-05T09:18:49Z</time>
      </trkpt>
      <trkpt lat="50.96701" lon="2.43221">
        <ele>-10.2</ele>
        <time>2023-08-05T09:18:52Z</time>
      </trkpt>
      <trkpt lat="50.9669" lon="2.43226">
        <ele>-10.4</ele>
        <time>2023-08-05T09:18:55Z</time>
      </trkpt>
      <trkpt lat="50.96667" lon="2.43233">
        <ele>-10.8</ele>
        <time>2023-08-05T09:19:01Z</time>
      </trkpt>
      <trkpt lat="50.96652" lon="2.43231">
        <ele>-11</ele>
        <time>2023-08-05T09:19:05Z</time>
      </trkpt>
      <trkpt lat="50.96639" lon="2.43228">
        <ele>-11.2</ele>
        <time>2023-08-05T09:19:08Z</time>
      </trkpt>
      <trkpt lat="50.96603" lon="2.43222">
        <ele>-11.4</ele>
        <time>2023-08-05T09:19:16Z</time>
      </trkpt>
      <trkpt lat="50.96598" lon="2.43221">
        <ele>-11.6</ele>
        <time>2023-08-05T09:19:17Z</time>
      </trkpt>
      <trkpt lat="50.9658" lon="2.43219">
        <ele>-11.6</ele>
        <time>2023-08-05T09:19:21Z</time>
      </trkpt>
      <trkpt lat="50.96576" lon="2.43219">
        <ele>-11.6</ele>
        <time>2023-08-05T09:19:22Z</time>
      </trkpt>
      <trkpt lat="50.96572" lon="2.43218">
        <ele>-11.8</ele>
        <time>2023-08-05T09:19:23Z</time>
      </trkpt>
      <trkpt lat="50.96565" lon="2.43217">
        <ele>-11.8</ele>
        <time>2023-08-05T09:19:25Z</time>
      </trkpt>
      <trkpt lat="50.96562" lon="2.43215">
        <ele>-11.8</ele>
        <time>2023-08-05T09:19:26Z</time>
      </trkpt>
      <trkpt lat="50.96559" lon="2.43213">
        <ele>-11.8</ele>
        <time>2023-08-05T09:19:27Z</time>
      </trkpt>
      <trkpt lat="50.96555" lon="2.43212">
        <ele>-11.8</ele>
        <time>2023-08-05T09:19:28Z</time>
      </trkpt>
      <trkpt lat="50.9655" lon="2.43211">
        <ele>-11.8</ele>
        <time>2023-08-05T09:19:29Z</time>
      </trkpt>
      <trkpt lat="50.96544" lon="2.4321">
        <ele>-11.8</ele>
        <time>2023-08-05T09:19:30Z</time>
      </trkpt>
      <trkpt lat="50.9654" lon="2.43209">
        <ele>-12</ele>
        <time>2023-08-05T09:19:31Z</time>
      </trkpt>
      <trkpt lat="50.96535" lon="2.43208">
        <ele>-12</ele>
        <time>2023-08-05T09:19:32Z</time>
      </trkpt>
      <trkpt lat="50.9653" lon="2.43206">
        <ele>-12</ele>
        <time>2023-08-05T09:19:33Z</time>
      </trkpt>
      <trkpt lat="50.96526" lon="2.43206">
        <ele>-12.4</ele>
        <time>2023-08-05T09:19:34Z</time>
      </trkpt>
      <trkpt lat="50.9652" lon="2.43205">
        <ele>-12.4</ele>
        <time>2023-08-05T09:19:35Z</time>
      </trkpt>
      <trkpt lat="50.96516" lon="2.43205">
        <ele>-12.4</ele>
        <time>2023-08-05T09:19:36Z</time>
      </trkpt>
      <trkpt lat="50.96497" lon="2.43203">
        <ele>-12.6</ele>
        <time>2023-08-05T09:19:40Z</time>
      </trkpt>
      <trkpt lat="50.96492" lon="2.43203">
        <ele>-12.6</ele>
        <time>2023-08-05T09:19:41Z</time>
      </trkpt>
      <trkpt lat="50.96488" lon="2.43203">
        <ele>-12.6</ele>
        <time>2023-08-05T09:19:42Z</time>
      </trkpt>
      <trkpt lat="50.96484" lon="2.43203">
        <ele>-12.6</ele>
        <time>2023-08-05T09:19:43Z</time>
      </trkpt>
      <trkpt lat="50.9648" lon="2.43204">
        <ele>-12.6</ele>
        <time>2023-08-05T09:19:44Z</time>
      </trkpt>
      <trkpt lat="50.96476" lon="2.43205">
        <ele>-12.4</ele>
        <time>2023-08-05T09:19:45Z</time>
      </trkpt>
      <trkpt lat="50.96473" lon="2.43206">
        <ele>-12.4</ele>
        <time>2023-08-05T09:19:46Z</time>
      </trkpt>
      <trkpt lat="50.96469" lon="2.43206">
        <ele>-12.4</ele>
        <time>2023-08-05T09:19:47Z</time>
      </trkpt>
      <trkpt lat="50.96467" lon="2.43206">
        <ele>-12.4</ele>
        <time>2023-08-05T09:19:48Z</time>
      </trkpt>
      <trkpt lat="50.96464" lon="2.43205">
        <ele>-12.4</ele>
        <time>2023-08-05T09:19:49Z</time>
      </trkpt>
      <trkpt lat="50.96461" lon="2.43203">
        <ele>-12.6</ele>
        <time>2023-08-05T09:19:50Z</time>
      </trkpt>
      <trkpt lat="50.96458" lon="2.432">
        <ele>-12.6</ele>
        <time>2023-08-05T09:19:51Z</time>
      </trkpt>
      <trkpt lat="50.96456" lon="2.43198">
        <ele>-12.6</ele>
        <time>2023-08-05T09:19:52Z</time>
      </trkpt>
      <trkpt lat="50.96454" lon="2.43196">
        <ele>-12.6</ele>
        <time>2023-08-05T09:19:53Z</time>
      </trkpt>
      <trkpt lat="50.96452" lon="2.43195">
        <ele>-12.6</ele>
        <time>2023-08-05T09:19:54Z</time>
      </trkpt>
      <trkpt lat="50.9645" lon="2.43195">
        <ele>-12.8</ele>
        <time>2023-08-05T09:19:55Z</time>
      </trkpt>
      <trkpt lat="50.96449" lon="2.43197">
        <ele>-12.8</ele>
        <time>2023-08-05T09:19:56Z</time>
      </trkpt>
      <trkpt lat="50.96448" lon="2.43197">
        <ele>-12.8</ele>
        <time>2023-08-05T09:19:57Z</time>
      </trkpt>
      <trkpt lat="50.96447" lon="2.43198">
        <ele>-12.8</ele>
        <time>2023-08-05T09:19:58Z</time>
      </trkpt>
      <trkpt lat="50.96445" lon="2.432">
        <ele>-12.8</ele>
        <time>2023-08-05T09:19:59Z</time>
      </trkpt>
      <trkpt lat="50.96443" lon="2.43201">
        <ele>-12.8</ele>
        <time>2023-08-05T09:20:00Z</time>
      </trkpt>
      <trkpt lat="50.96441" lon="2.43202">
        <ele>-13</ele>
        <time>2023-08-05T09:20:01Z</time>
      </trkpt>
      <trkpt lat="50.96439" lon="2.43202">
        <ele>-13</ele>
        <time>2023-08-05T09:20:02Z</time>
      </trkpt>
      <trkpt lat="50.96437" lon="2.43201">
        <ele>-13</ele>
        <time>2023-08-05T09:20:03Z</time>
      </trkpt>
      <trkpt lat="50.96434" lon="2.432">
        <ele>-13</ele>
        <time>2023-08-05T09:20:04Z</time>
      </trkpt>
      <trkpt lat="50.96431" lon="2.43199">
        <ele>-13</ele>
        <time>2023-08-05T09:20:05Z</time>
      </trkpt>
      <trkpt lat="50.96427" lon="2.43199">
        <ele>-13</ele>
        <time>2023-08-05T09:20:06Z</time>
      </trkpt>
      <trkpt lat="50.96418" lon="2.43201">
        <ele>-13.2</ele>
        <time>2023-08-05T09:20:08Z</time>
      </trkpt>
      <trkpt lat="50.96414" lon="2.43204">
        <ele>-13.2</ele>
        <time>2023-08-05T09:20:09Z</time>
      </trkpt>
      <trkpt lat="50.9641" lon="2.43207">
        <ele>-13.4</ele>
        <time>2023-08-05T09:20:10Z</time>
      </trkpt>
      <trkpt lat="50.96402" lon="2.43212">
        <ele>-13.8</ele>
        <time>2023-08-05T09:20:12Z</time>
      </trkpt>
      <trkpt lat="50.96386" lon="2.4322">
        <ele>-14.2</ele>
        <time>2023-08-05T09:20:16Z</time>
      </trkpt>
      <trkpt lat="50.96375" lon="2.43226">
        <ele>-14.4</ele>
        <time>2023-08-05T09:20:19Z</time>
      </trkpt>
      <trkpt lat="50.96364" lon="2.43234">
        <ele>-14.4</ele>
        <time>2023-08-05T09:20:22Z</time>
      </trkpt>
      <trkpt lat="50.96361" lon="2.43236">
        <ele>-14.6</ele>
        <time>2023-08-05T09:20:23Z</time>
      </trkpt>
      <trkpt lat="50.96359" lon="2.43237">
        <ele>-14.6</ele>
        <time>2023-08-05T09:20:24Z</time>
      </trkpt>
      <trkpt lat="50.96358" lon="2.43236">
        <ele>-14.6</ele>
        <time>2023-08-05T09:20:25Z</time>
      </trkpt>
      <trkpt lat="50.96357" lon="2.43235">
        <ele>-14.8</ele>
        <time>2023-08-05T09:20:26Z</time>
      </trkpt>
      <trkpt lat="50.96357" lon="2.43234">
        <ele>-14.8</ele>
        <time>2023-08-05T09:20:27Z</time>
      </trkpt>
      <trkpt lat="50.96356" lon="2.43232">
        <ele>-15</ele>
        <time>2023-08-05T09:20:28Z</time>
      </trkpt>
      <trkpt lat="50.96355" lon="2.43229">
        <ele>-15</ele>
        <time>2023-08-05T09:20:29Z</time>
      </trkpt>
      <trkpt lat="50.96352" lon="2.43216">
        <ele>-15.2</ele>
        <time>2023-08-05T09:20:32Z</time>
      </trkpt>
      <trkpt lat="50.96351" lon="2.43209">
        <ele>-15.4</ele>
        <time>2023-08-05T09:20:33Z</time>
      </trkpt>
      <trkpt lat="50.96346" lon="2.43187">
        <ele>-16</ele>
        <time>2023-08-05T09:20:37Z</time>
      </trkpt>
      <trkpt lat="50.96346" lon="2.43181">
        <ele>-16.2</ele>
        <time>2023-08-05T09:20:38Z</time>
      </trkpt>
      <trkpt lat="50.96342" lon="2.43145">
        <ele>-16.4</ele>
        <time>2023-08-05T09:20:44Z</time>
      </trkpt>
      <trkpt lat="50.96342" lon="2.4314">
        <ele>-16.4</ele>
        <time>2023-08-05T09:20:45Z</time>
      </trkpt>
      <trkpt lat="50.96346" lon="2.43103">
        <ele>-17.2</ele>
        <time>2023-08-05T09:20:51Z</time>
      </trkpt>
      <trkpt lat="50.9635" lon="2.43081">
        <ele>-17.4</ele>
        <time>2023-08-05T09:20:55Z</time>
      </trkpt>
      <trkpt lat="50.96349" lon="2.43077">
        <ele>-17.4</ele>
        <time>2023-08-05T09:20:56Z</time>
      </trkpt>
      <trkpt lat="50.96346" lon="2.43072">
        <ele>-17.4</ele>
        <time>2023-08-05T09:20:57Z</time>
      </trkpt>
      <trkpt lat="50.96344" lon="2.43071">
        <ele>-17.6</ele>
        <time>2023-08-05T09:20:58Z</time>
      </trkpt>
      <trkpt lat="50.96341" lon="2.43069">
        <ele>-17.6</ele>
        <time>2023-08-05T09:20:59Z</time>
      </trkpt>
      <trkpt lat="50.96338" lon="2.43068">
        <ele>-17.8</ele>
        <time>2023-08-05T09:21:00Z</time>
      </trkpt>
      <trkpt lat="50.96336" lon="2.43066">
        <ele>-17.8</ele>
        <time>2023-08-05T09:21:01Z</time>
      </trkpt>
      <trkpt lat="50.96334" lon="2.43063">
        <ele>-18</ele>
        <time>2023-08-05T09:21:02Z</time>
      </trkpt>
      <trkpt lat="50.96333" lon="2.43062">
        <ele>-18.2</ele>
        <time>2023-08-05T09:21:03Z</time>
      </trkpt>
      <trkpt lat="50.9633" lon="2.43061">
        <ele>-18.2</ele>
        <time>2023-08-05T09:21:04Z</time>
      </trkpt>
      <trkpt lat="50.96323" lon="2.43061">
        <ele>-18.4</ele>
        <time>2023-08-05T09:21:06Z</time>
      </trkpt>
      <trkpt lat="50.96318" lon="2.43063">
        <ele>-18.6</ele>
        <time>2023-08-05T09:21:07Z</time>
      </trkpt>
      <trkpt lat="50.96314" lon="2.43064">
        <ele>-18.8</ele>
        <time>2023-08-05T09:21:08Z</time>
      </trkpt>
      <trkpt lat="50.96311" lon="2.43065">
        <ele>-18.8</ele>
        <time>2023-08-05T09:21:09Z</time>
      </trkpt>
      <trkpt lat="50.96303" lon="2.43069">
        <ele>-19</ele>
        <time>2023-08-05T09:21:11Z</time>
      </trkpt>
      <trkpt lat="50.96294" lon="2.43073">
        <ele>-19</ele>
        <time>2023-08-05T09:21:13Z</time>
      </trkpt>
      <trkpt lat="50.96291" lon="2.43074">
        <ele>-19.4</ele>
        <time>2023-08-05T09:21:14Z</time>
      </trkpt>
      <trkpt lat="50.96287" lon="2.43076">
        <ele>-19.4</ele>
        <time>2023-08-05T09:21:15Z</time>
      </trkpt>
      <trkpt lat="50.96271" lon="2.43082">
        <ele>-19.6</ele>
        <time>2023-08-05T09:21:19Z</time>
      </trkpt>
      <trkpt lat="50.96262" lon="2.43084">
        <ele>-19.6</ele>
        <time>2023-08-05T09:21:21Z</time>
      </trkpt>
      <trkpt lat="50.96258" lon="2.43085">
        <ele>-19.6</ele>
        <time>2023-08-05T09:21:22Z</time>
      </trkpt>
      <trkpt lat="50.96251" lon="2.43087">
        <ele>-19.6</ele>
        <time>2023-08-05T09:21:24Z</time>
      </trkpt>
      <trkpt lat="50.96238" lon="2.43091">
        <ele>-19.6</ele>
        <time>2023-08-05T09:21:27Z</time>
      </trkpt>
      <trkpt lat="50.96214" lon="2.43096">
        <ele>-19.6</ele>
        <time>2023-08-05T09:21:33Z</time>
      </trkpt>
      <trkpt lat="50.96205" lon="2.43098">
        <ele>-19.8</ele>
        <time>2023-08-05T09:21:35Z</time>
      </trkpt>
      <trkpt lat="50.96196" lon="2.431">
        <ele>-19.8</ele>
        <time>2023-08-05T09:21:37Z</time>
      </trkpt>
      <trkpt lat="50.96192" lon="2.43101">
        <ele>-19.8</ele>
        <time>2023-08-05T09:21:38Z</time>
      </trkpt>
      <trkpt lat="50.96163" lon="2.43104">
        <ele>-20</ele>
        <time>2023-08-05T09:21:45Z</time>
      </trkpt>
      <trkpt lat="50.96159" lon="2.43105">
        <ele>-20.2</ele>
        <time>2023-08-05T09:21:46Z</time>
      </trkpt>
      <trkpt lat="50.96155" lon="2.43105">
        <ele>-20.2</ele>
        <time>2023-08-05T09:21:47Z</time>
      </trkpt>
      <trkpt lat="50.9615" lon="2.43105">
        <ele>-20.2</ele>
        <time>2023-08-05T09:21:48Z</time>
      </trkpt>
      <trkpt lat="50.96146" lon="2.43106">
        <ele>-20</ele>
        <time>2023-08-05T09:21:49Z</time>
      </trkpt>
      <trkpt lat="50.96133" lon="2.43107">
        <ele>-20</ele>
        <time>2023-08-05T09:21:52Z</time>
      </trkpt>
      <trkpt lat="50.96124" lon="2.43106">
        <ele>-20</ele>
        <time>2023-08-05T09:21:54Z</time>
      </trkpt>
      <trkpt lat="50.96112" lon="2.43103">
        <ele>-20</ele>
        <time>2023-08-05T09:21:57Z</time>
      </trkpt>
      <trkpt lat="50.961" lon="2.43104">
        <ele>-20</ele>
        <time>2023-08-05T09:22:00Z</time>
      </trkpt>
      <trkpt lat="50.96096" lon="2.43105">
        <ele>-20</ele>
        <time>2023-08-05T09:22:01Z</time>
      </trkpt>
      <trkpt lat="50.96092" lon="2.43106">
        <ele>-20</ele>
        <time>2023-08-05T09:22:02Z</time>
      </trkpt>
      <trkpt lat="50.96088" lon="2.43108">
        <ele>-19.8</ele>
        <time>2023-08-05T09:22:03Z</time>
      </trkpt>
      <trkpt lat="50.96084" lon="2.43109">
        <ele>-19.8</ele>
        <time>2023-08-05T09:22:04Z</time>
      </trkpt>
      <trkpt lat="50.96081" lon="2.43111">
        <ele>-20</ele>
        <time>2023-08-05T09:22:05Z</time>
      </trkpt>
      <trkpt lat="50.96077" lon="2.43113">
        <ele>-20</ele>
        <time>2023-08-05T09:22:06Z</time>
      </trkpt>
      <trkpt lat="50.96074" lon="2.43116">
        <ele>-20</ele>
        <time>2023-08-05T09:22:07Z</time>
      </trkpt>
      <trkpt lat="50.96071" lon="2.43119">
        <ele>-20</ele>
        <time>2023-08-05T09:22:08Z</time>
      </trkpt>
      <trkpt lat="50.96068" lon="2.43121">
        <ele>-19.8</ele>
        <time>2023-08-05T09:22:09Z</time>
      </trkpt>
      <trkpt lat="50.96064" lon="2.43121">
        <ele>-19.8</ele>
        <time>2023-08-05T09:22:10Z</time>
      </trkpt>
      <trkpt lat="50.9606" lon="2.43119">
        <ele>-19.8</ele>
        <time>2023-08-05T09:22:11Z</time>
      </trkpt>
      <trkpt lat="50.96057" lon="2.43117">
        <ele>-19.8</ele>
        <time>2023-08-05T09:22:12Z</time>
      </trkpt>
      <trkpt lat="50.96055" lon="2.43115">
        <ele>-19.8</ele>
        <time>2023-08-05T09:22:13Z</time>
      </trkpt>
      <trkpt lat="50.96052" lon="2.43115">
        <ele>-19.8</ele>
        <time>2023-08-05T09:22:14Z</time>
      </trkpt>
      <trkpt lat="50.96049" lon="2.43116">
        <ele>-19.8</ele>
        <time>2023-08-05T09:22:15Z</time>
      </trkpt>
      <trkpt lat="50.96045" lon="2.43117">
        <ele>-19.8</ele>
        <time>2023-08-05T09:22:16Z</time>
      </trkpt>
      <trkpt lat="50.96042" lon="2.43118">
        <ele>-19.8</ele>
        <time>2023-08-05T09:22:17Z</time>
      </trkpt>
      <trkpt lat="50.96038" lon="2.4312">
        <ele>-19.8</ele>
        <time>2023-08-05T09:22:18Z</time>
      </trkpt>
      <trkpt lat="50.96024" lon="2.43131">
        <ele>-20</ele>
        <time>2023-08-05T09:22:22Z</time>
      </trkpt>
      <trkpt lat="50.9602" lon="2.43133">
        <ele>-19.8</ele>
        <time>2023-08-05T09:22:23Z</time>
      </trkpt>
      <trkpt lat="50.96016" lon="2.43134">
        <ele>-19.8</ele>
        <time>2023-08-05T09:22:24Z</time>
      </trkpt>
      <trkpt lat="50.96001" lon="2.43132">
        <ele>-20</ele>
        <time>2023-08-05T09:22:28Z</time>
      </trkpt>
      <trkpt lat="50.95999" lon="2.43128">
        <ele>-20</ele>
        <time>2023-08-05T09:22:29Z</time>
      </trkpt>
      <trkpt lat="50.95994" lon="2.43113">
        <ele>-20</ele>
        <time>2023-08-05T09:22:32Z</time>
      </trkpt>
      <trkpt lat="50.95987" lon="2.43098">
        <ele>-19.8</ele>
        <time>2023-08-05T09:22:35Z</time>
      </trkpt>
      <trkpt lat="50.95984" lon="2.43096">
        <ele>-19.8</ele>
        <time>2023-08-05T09:22:36Z</time>
      </trkpt>
      <trkpt lat="50.9598" lon="2.43096">
        <ele>-19.8</ele>
        <time>2023-08-05T09:22:37Z</time>
      </trkpt>
      <trkpt lat="50.95971" lon="2.43095">
        <ele>-19.4</ele>
        <time>2023-08-05T09:22:39Z</time>
      </trkpt>
      <trkpt lat="50.95967" lon="2.43094">
        <ele>-19.4</ele>
        <time>2023-08-05T09:22:40Z</time>
      </trkpt>
      <trkpt lat="50.95959" lon="2.43092">
        <ele>-18.8</ele>
        <time>2023-08-05T09:22:42Z</time>
      </trkpt>
      <trkpt lat="50.95951" lon="2.43091">
        <ele>-18.6</ele>
        <time>2023-08-05T09:22:44Z</time>
      </trkpt>
      <trkpt lat="50.95921" lon="2.43084">
        <ele>-17.8</ele>
        <time>2023-08-05T09:22:51Z</time>
      </trkpt>
      <trkpt lat="50.95913" lon="2.43081">
        <ele>-17.6</ele>
        <time>2023-08-05T09:22:53Z</time>
      </trkpt>
      <trkpt lat="50.95893" lon="2.43074">
        <ele>-17</ele>
        <time>2023-08-05T09:22:58Z</time>
      </trkpt>
      <trkpt lat="50.95888" lon="2.43073">
        <ele>-16.8</ele>
        <time>2023-08-05T09:22:59Z</time>
      </trkpt>
      <trkpt lat="50.95884" lon="2.43071">
        <ele>-16.8</ele>
        <time>2023-08-05T09:23:00Z</time>
      </trkpt>
      <trkpt lat="50.9588" lon="2.43069">
        <ele>-16.8</ele>
        <time>2023-08-05T09:23:01Z</time>
      </trkpt>
      <trkpt lat="50.95876" lon="2.43067">
        <ele>-16.6</ele>
        <time>2023-08-05T09:23:02Z</time>
      </trkpt>
      <trkpt lat="50.95871" lon="2.43064">
        <ele>-16.6</ele>
        <time>2023-08-05T09:23:03Z</time>
      </trkpt>
      <trkpt lat="50.95867" lon="2.43063">
        <ele>-16.4</ele>
        <time>2023-08-05T09:23:04Z</time>
      </trkpt>
      <trkpt lat="50.95863" lon="2.43061">
        <ele>-16.4</ele>
        <time>2023-08-05T09:23:05Z</time>
      </trkpt>
      <trkpt lat="50.95859" lon="2.43059">
        <ele>-16.4</ele>
        <time>2023-08-05T09:23:06Z</time>
      </trkpt>
      <trkpt lat="50.95855" lon="2.43057">
        <ele>-16.2</ele>
        <time>2023-08-05T09:23:07Z</time>
      </trkpt>
      <trkpt lat="50.95851" lon="2.43055">
        <ele>-16.2</ele>
        <time>2023-08-05T09:23:08Z</time>
      </trkpt>
      <trkpt lat="50.95847" lon="2.43053">
        <ele>-16</ele>
        <time>2023-08-05T09:23:09Z</time>
      </trkpt>
      <trkpt lat="50.95843" lon="2.43051">
        <ele>-15.8</ele>
        <time>2023-08-05T09:23:10Z</time>
      </trkpt>
      <trkpt lat="50.95838" lon="2.43049">
        <ele>-15.6</ele>
        <time>2023-08-05T09:23:11Z</time>
      </trkpt>
      <trkpt lat="50.95834" lon="2.43047">
        <ele>-15.6</ele>
        <time>2023-08-05T09:23:12Z</time>
      </trkpt>
      <trkpt lat="50.9583" lon="2.43045">
        <ele>-15.4</ele>
        <time>2023-08-05T09:23:13Z</time>
      </trkpt>
      <trkpt lat="50.95826" lon="2.43043">
        <ele>-15.4</ele>
        <time>2023-08-05T09:23:14Z</time>
      </trkpt>
      <trkpt lat="50.95822" lon="2.4304">
        <ele>-15.4</ele>
        <time>2023-08-05T09:23:15Z</time>
      </trkpt>
      <trkpt lat="50.95818" lon="2.43038">
        <ele>-15.4</ele>
        <time>2023-08-05T09:23:16Z</time>
      </trkpt>
      <trkpt lat="50.95814" lon="2.43036">
        <ele>-15.4</ele>
        <time>2023-08-05T09:23:17Z</time>
      </trkpt>
      <trkpt lat="50.9581" lon="2.43033">
        <ele>-15.2</ele>
        <time>2023-08-05T09:23:18Z</time>
      </trkpt>
      <trkpt lat="50.95806" lon="2.43031">
        <ele>-15.2</ele>
        <time>2023-08-05T09:23:19Z</time>
      </trkpt>
      <trkpt lat="50.95802" lon="2.43028">
        <ele>-15</ele>
        <time>2023-08-05T09:23:20Z</time>
      </trkpt>
      <trkpt lat="50.95798" lon="2.43026">
        <ele>-14.8</ele>
        <time>2023-08-05T09:23:21Z</time>
      </trkpt>
      <trkpt lat="50.95794" lon="2.43023">
        <ele>-14.8</ele>
        <time>2023-08-05T09:23:22Z</time>
      </trkpt>
      <trkpt lat="50.95789" lon="2.43021">
        <ele>-14.6</ele>
        <time>2023-08-05T09:23:23Z</time>
      </trkpt>
      <trkpt lat="50.95785" lon="2.43018">
        <ele>-14.6</ele>
        <time>2023-08-05T09:23:24Z</time>
      </trkpt>
      <trkpt lat="50.95781" lon="2.43016">
        <ele>-14.4</ele>
        <time>2023-08-05T09:23:25Z</time>
      </trkpt>
      <trkpt lat="50.95777" lon="2.43013">
        <ele>-14.4</ele>
        <time>2023-08-05T09:23:26Z</time>
      </trkpt>
      <trkpt lat="50.95773" lon="2.4301">
        <ele>-14.6</ele>
        <time>2023-08-05T09:23:27Z</time>
      </trkpt>
      <trkpt lat="50.95769" lon="2.43008">
        <ele>-14.4</ele>
        <time>2023-08-05T09:23:28Z</time>
      </trkpt>
      <trkpt lat="50.95765" lon="2.43006">
        <ele>-14.4</ele>
        <time>2023-08-05T09:23:29Z</time>
      </trkpt>
      <trkpt lat="50.95761" lon="2.43004">
        <ele>-14.2</ele>
        <time>2023-08-05T09:23:30Z</time>
      </trkpt>
      <trkpt lat="50.95749" lon="2.42996">
        <ele>-14</ele>
        <time>2023-08-05T09:23:33Z</time>
      </trkpt>
      <trkpt lat="50.95714" lon="2.42971">
        <ele>-13.2</ele>
        <time>2023-08-05T09:23:42Z</time>
      </trkpt>
      <trkpt lat="50.95711" lon="2.42968">
        <ele>-13.2</ele>
        <time>2023-08-05T09:23:43Z</time>
      </trkpt>
      <trkpt lat="50.95699" lon="2.4296">
        <ele>-13.2</ele>
        <time>2023-08-05T09:23:46Z</time>
      </trkpt>
      <trkpt lat="50.95671" lon="2.42936">
        <ele>-12.2</ele>
        <time>2023-08-05T09:23:53Z</time>
      </trkpt>
      <trkpt lat="50.95659" lon="2.42925">
        <ele>-12</ele>
        <time>2023-08-05T09:23:56Z</time>
      </trkpt>
      <trkpt lat="50.95638" lon="2.42906">
        <ele>-12</ele>
        <time>2023-08-05T09:24:01Z</time>
      </trkpt>
      <trkpt lat="50.95602" lon="2.42869">
        <ele>-11.2</ele>
        <time>2023-08-05T09:24:10Z</time>
      </trkpt>
      <trkpt lat="50.95594" lon="2.42861">
        <ele>-11.2</ele>
        <time>2023-08-05T09:24:12Z</time>
      </trkpt>
      <trkpt lat="50.95572" lon="2.42834">
        <ele>-10.8</ele>
        <time>2023-08-05T09:24:18Z</time>
      </trkpt>
      <trkpt lat="50.95565" lon="2.42825">
        <ele>-10.6</ele>
        <time>2023-08-05T09:24:20Z</time>
      </trkpt>
      <trkpt lat="50.95562" lon="2.42822">
        <ele>-10.6</ele>
        <time>2023-08-05T09:24:21Z</time>
      </trkpt>
      <trkpt lat="50.95559" lon="2.42818">
        <ele>-10.6</ele>
        <time>2023-08-05T09:24:22Z</time>
      </trkpt>
      <trkpt lat="50.95555" lon="2.42815">
        <ele>-10.4</ele>
        <time>2023-08-05T09:24:23Z</time>
      </trkpt>
      <trkpt lat="50.95547" lon="2.42808">
        <ele>-10.2</ele>
        <time>2023-08-05T09:24:25Z</time>
      </trkpt>
      <trkpt lat="50.95543" lon="2.42804">
        <ele>-10.2</ele>
        <time>2023-08-05T09:24:26Z</time>
      </trkpt>
      <trkpt lat="50.95502" lon="2.4276">
        <ele>-9.6</ele>
        <time>2023-08-05T09:24:37Z</time>
      </trkpt>
      <trkpt lat="50.95499" lon="2.42756">
        <ele>-9.6</ele>
        <time>2023-08-05T09:24:38Z</time>
      </trkpt>
      <trkpt lat="50.95496" lon="2.42753">
        <ele>-9.4</ele>
        <time>2023-08-05T09:24:39Z</time>
      </trkpt>
      <trkpt lat="50.95494" lon="2.4275">
        <ele>-9.4</ele>
        <time>2023-08-05T09:24:40Z</time>
      </trkpt>
      <trkpt lat="50.95492" lon="2.42748">
        <ele>-9.2</ele>
        <time>2023-08-05T09:24:41Z</time>
      </trkpt>
      <trkpt lat="50.9549" lon="2.42746">
        <ele>-9.2</ele>
        <time>2023-08-05T09:24:42Z</time>
      </trkpt>
      <trkpt lat="50.95487" lon="2.42743">
        <ele>-9.2</ele>
        <time>2023-08-05T09:24:43Z</time>
      </trkpt>
      <trkpt lat="50.95484" lon="2.42741">
        <ele>-9</ele>
        <time>2023-08-05T09:24:44Z</time>
      </trkpt>
      <trkpt lat="50.95474" lon="2.4273">
        <ele>-8.8</ele>
        <time>2023-08-05T09:24:47Z</time>
      </trkpt>
      <trkpt lat="50.9546" lon="2.42714">
        <ele>-8.6</ele>
        <time>2023-08-05T09:24:51Z</time>
      </trkpt>
      <trkpt lat="50.95457" lon="2.42711">
        <ele>-8.4</ele>
        <time>2023-08-05T09:24:52Z</time>
      </trkpt>
      <trkpt lat="50.95453" lon="2.42707">
        <ele>-8.4</ele>
        <time>2023-08-05T09:24:53Z</time>
      </trkpt>
      <trkpt lat="50.95446" lon="2.42701">
        <ele>-8.2</ele>
        <time>2023-08-05T09:24:55Z</time>
      </trkpt>
      <trkpt lat="50.95431" lon="2.42692">
        <ele>-8.2</ele>
        <time>2023-08-05T09:24:59Z</time>
      </trkpt>
      <trkpt lat="50.95424" lon="2.42684">
        <ele>-8.2</ele>
        <time>2023-08-05T09:25:01Z</time>
      </trkpt>
      <trkpt lat="50.95421" lon="2.4268">
        <ele>-8.2</ele>
        <time>2023-08-05T09:25:02Z</time>
      </trkpt>
      <trkpt lat="50.95415" lon="2.4267">
        <ele>-8.2</ele>
        <time>2023-08-05T09:25:04Z</time>
      </trkpt>
      <trkpt lat="50.95413" lon="2.42666">
        <ele>-8.4</ele>
        <time>2023-08-05T09:25:05Z</time>
      </trkpt>
      <trkpt lat="50.9541" lon="2.42661">
        <ele>-8.4</ele>
        <time>2023-08-05T09:25:06Z</time>
      </trkpt>
      <trkpt lat="50.95393" lon="2.42642">
        <ele>-8.8</ele>
        <time>2023-08-05T09:25:11Z</time>
      </trkpt>
      <trkpt lat="50.95386" lon="2.42635">
        <ele>-8.8</ele>
        <time>2023-08-05T09:25:13Z</time>
      </trkpt>
      <trkpt lat="50.95381" lon="2.42626">
        <ele>-9</ele>
        <time>2023-08-05T09:25:15Z</time>
      </trkpt>
      <trkpt lat="50.95377" lon="2.42623">
        <ele>-9</ele>
        <time>2023-08-05T09:25:16Z</time>
      </trkpt>
      <trkpt lat="50.95373" lon="2.42621">
        <ele>-9</ele>
        <time>2023-08-05T09:25:17Z</time>
      </trkpt>
      <trkpt lat="50.9537" lon="2.4262">
        <ele>-9</ele>
        <time>2023-08-05T09:25:18Z</time>
      </trkpt>
      <trkpt lat="50.95366" lon="2.42619">
        <ele>-9.2</ele>
        <time>2023-08-05T09:25:19Z</time>
      </trkpt>
      <trkpt lat="50.95362" lon="2.42618">
        <ele>-9.4</ele>
        <time>2023-08-05T09:25:20Z</time>
      </trkpt>
      <trkpt lat="50.95358" lon="2.42618">
        <ele>-9.4</ele>
        <time>2023-08-05T09:25:21Z</time>
      </trkpt>
      <trkpt lat="50.9535" lon="2.42622">
        <ele>-9.8</ele>
        <time>2023-08-05T09:25:23Z</time>
      </trkpt>
      <trkpt lat="50.95343" lon="2.42625">
        <ele>-9.8</ele>
        <time>2023-08-05T09:25:25Z</time>
      </trkpt>
      <trkpt lat="50.95336" lon="2.42628">
        <ele>-10</ele>
        <time>2023-08-05T09:25:27Z</time>
      </trkpt>
      <trkpt lat="50.95318" lon="2.4263">
        <ele>-10.2</ele>
        <time>2023-08-05T09:25:32Z</time>
      </trkpt>
      <trkpt lat="50.95314" lon="2.42629">
        <ele>-10.2</ele>
        <time>2023-08-05T09:25:33Z</time>
      </trkpt>
      <trkpt lat="50.9531" lon="2.42629">
        <ele>-10.4</ele>
        <time>2023-08-05T09:25:34Z</time>
      </trkpt>
      <trkpt lat="50.95307" lon="2.42629">
        <ele>-10.4</ele>
        <time>2023-08-05T09:25:35Z</time>
      </trkpt>
      <trkpt lat="50.95275" lon="2.42628">
        <ele>-10.8</ele>
        <time>2023-08-05T09:25:43Z</time>
      </trkpt>
      <trkpt lat="50.95262" lon="2.42627">
        <ele>-11</ele>
        <time>2023-08-05T09:25:46Z</time>
      </trkpt>
      <trkpt lat="50.95238" lon="2.42622">
        <ele>-11.2</ele>
        <time>2023-08-05T09:25:52Z</time>
      </trkpt>
      <trkpt lat="50.95234" lon="2.42621">
        <ele>-11.2</ele>
        <time>2023-08-05T09:25:53Z</time>
      </trkpt>
      <trkpt lat="50.9523" lon="2.42621">
        <ele>-11.2</ele>
        <time>2023-08-05T09:25:54Z</time>
      </trkpt>
      <trkpt lat="50.95227" lon="2.4262">
        <ele>-11.2</ele>
        <time>2023-08-05T09:25:55Z</time>
      </trkpt>
      <trkpt lat="50.95225" lon="2.42619">
        <ele>-11.4</ele>
        <time>2023-08-05T09:25:56Z</time>
      </trkpt>
      <trkpt lat="50.95223" lon="2.42617">
        <ele>-11.4</ele>
        <time>2023-08-05T09:25:57Z</time>
      </trkpt>
      <trkpt lat="50.95221" lon="2.42616">
        <ele>-11.4</ele>
        <time>2023-08-05T09:25:58Z</time>
      </trkpt>
      <trkpt lat="50.95219" lon="2.42614">
        <ele>-11.6</ele>
        <time>2023-08-05T09:25:59Z</time>
      </trkpt>
      <trkpt lat="50.95216" lon="2.42613">
        <ele>-11.6</ele>
        <time>2023-08-05T09:26:00Z</time>
      </trkpt>
      <trkpt lat="50.95209" lon="2.42608">
        <ele>-12</ele>
        <time>2023-08-05T09:26:02Z</time>
      </trkpt>
      <trkpt lat="50.95201" lon="2.42594">
        <ele>-12</ele>
        <time>2023-08-05T09:26:05Z</time>
      </trkpt>
      <trkpt lat="50.95199" lon="2.42589">
        <ele>-12</ele>
        <time>2023-08-05T09:26:06Z</time>
      </trkpt>
      <trkpt lat="50.95194" lon="2.42579">
        <ele>-12.2</ele>
        <time>2023-08-05T09:26:08Z</time>
      </trkpt>
      <trkpt lat="50.95191" lon="2.42574">
        <ele>-12.2</ele>
        <time>2023-08-05T09:26:09Z</time>
      </trkpt>
      <trkpt lat="50.95171" lon="2.42537">
        <ele>-12.8</ele>
        <time>2023-08-05T09:26:16Z</time>
      </trkpt>
      <trkpt lat="50.95138" lon="2.42475">
        <ele>-13</ele>
        <time>2023-08-05T09:26:27Z</time>
      </trkpt>
      <trkpt lat="50.95116" lon="2.42434">
        <ele>-13.2</ele>
        <time>2023-08-05T09:26:34Z</time>
      </trkpt>
      <trkpt lat="50.95114" lon="2.42427">
        <ele>-13.4</ele>
        <time>2023-08-05T09:26:35Z</time>
      </trkpt>
      <trkpt lat="50.95112" lon="2.42419">
        <ele>-13.4</ele>
        <time>2023-08-05T09:26:36Z</time>
      </trkpt>
      <trkpt lat="50.95112" lon="2.42411">
        <ele>-13.4</ele>
        <time>2023-08-05T09:26:37Z</time>
      </trkpt>
      <trkpt lat="50.95112" lon="2.42403">
        <ele>-13.4</ele>
        <time>2023-08-05T09:26:38Z</time>
      </trkpt>
      <trkpt lat="50.95113" lon="2.42395">
        <ele>-13.4</ele>
        <time>2023-08-05T09:26:39Z</time>
      </trkpt>
      <trkpt lat="50.95115" lon="2.42388">
        <ele>-13.4</ele>
        <time>2023-08-05T09:26:40Z</time>
      </trkpt>
      <trkpt lat="50.95117" lon="2.42381">
        <ele>-13.4</ele>
        <time>2023-08-05T09:26:41Z</time>
      </trkpt>
      <trkpt lat="50.95119" lon="2.42374">
        <ele>-13.4</ele>
        <time>2023-08-05T09:26:42Z</time>
      </trkpt>
      <trkpt lat="50.95121" lon="2.42367">
        <ele>-13.4</ele>
        <time>2023-08-05T09:26:43Z</time>
      </trkpt>
      <trkpt lat="50.95123" lon="2.4236">
        <ele>-13.2</ele>
        <time>2023-08-05T09:26:44Z</time>
      </trkpt>
      <trkpt lat="50.95123" lon="2.42352">
        <ele>-10.4</ele>
        <time>2023-08-05T09:26:45Z</time>
      </trkpt>
      <trkpt lat="50.95123" lon="2.42344">
        <ele>-8.2</ele>
        <time>2023-08-05T09:26:46Z</time>
      </trkpt>
      <trkpt lat="50.95122" lon="2.42337">
        <ele>-6</ele>
        <time>2023-08-05T09:26:47Z</time>
      </trkpt>
      <trkpt lat="50.9512" lon="2.42331">
        <ele>-5.2</ele>
        <time>2023-08-05T09:26:48Z</time>
      </trkpt>
      <trkpt lat="50.95117" lon="2.42325">
        <ele>-5</ele>
        <time>2023-08-05T09:26:49Z</time>
      </trkpt>
      <trkpt lat="50.95114" lon="2.4232">
        <ele>-4.8</ele>
        <time>2023-08-05T09:26:50Z</time>
      </trkpt>
      <trkpt lat="50.9511" lon="2.42316">
        <ele>-4.8</ele>
        <time>2023-08-05T09:26:51Z</time>
      </trkpt>
      <trkpt lat="50.95106" lon="2.42312">
        <ele>-4.6</ele>
        <time>2023-08-05T09:26:52Z</time>
      </trkpt>
      <trkpt lat="50.95103" lon="2.42308">
        <ele>-4.6</ele>
        <time>2023-08-05T09:26:53Z</time>
      </trkpt>
      <trkpt lat="50.951" lon="2.42304">
        <ele>-4.6</ele>
        <time>2023-08-05T09:26:54Z</time>
      </trkpt>
      <trkpt lat="50.95096" lon="2.423">
        <ele>-4.6</ele>
        <time>2023-08-05T09:26:55Z</time>
      </trkpt>
      <trkpt lat="50.95093" lon="2.42296">
        <ele>-4.6</ele>
        <time>2023-08-05T09:26:56Z</time>
      </trkpt>
      <trkpt lat="50.95089" lon="2.42291">
        <ele>-4.6</ele>
        <time>2023-08-05T09:26:57Z</time>
      </trkpt>
      <trkpt lat="50.95085" lon="2.42287">
        <ele>-4.6</ele>
        <time>2023-08-05T09:26:58Z</time>
      </trkpt>
      <trkpt lat="50.95082" lon="2.42284">
        <ele>-4.6</ele>
        <time>2023-08-05T09:26:59Z</time>
      </trkpt>
      <trkpt lat="50.95078" lon="2.42281">
        <ele>-4.6</ele>
        <time>2023-08-05T09:27:00Z</time>
      </trkpt>
      <trkpt lat="50.95074" lon="2.42281">
        <ele>-4.6</ele>
        <time>2023-08-05T09:27:01Z</time>
      </trkpt>
      <trkpt lat="50.95072" lon="2.42283">
        <ele>-4.4</ele>
        <time>2023-08-05T09:27:02Z</time>
      </trkpt>
      <trkpt lat="50.9507" lon="2.42287">
        <ele>-4.4</ele>
        <time>2023-08-05T09:27:03Z</time>
      </trkpt>
      <trkpt lat="50.95068" lon="2.42292">
        <ele>-4.4</ele>
        <time>2023-08-05T09:27:04Z</time>
      </trkpt>
      <trkpt lat="50.95067" lon="2.42297">
        <ele>-4.2</ele>
        <time>2023-08-05T09:27:05Z</time>
      </trkpt>
      <trkpt lat="50.95065" lon="2.42302">
        <ele>-4.2</ele>
        <time>2023-08-05T09:27:06Z</time>
      </trkpt>
      <trkpt lat="50.95064" lon="2.42308">
        <ele>-4</ele>
        <time>2023-08-05T09:27:07Z</time>
      </trkpt>
      <trkpt lat="50.95062" lon="2.42314">
        <ele>-4</ele>
        <time>2023-08-05T09:27:08Z</time>
      </trkpt>
      <trkpt lat="50.9506" lon="2.42319">
        <ele>-4</ele>
        <time>2023-08-05T09:27:09Z</time>
      </trkpt>
      <trkpt lat="50.95058" lon="2.42325">
        <ele>-3.8</ele>
        <time>2023-08-05T09:27:10Z</time>
      </trkpt>
      <trkpt lat="50.95057" lon="2.42328">
        <ele>-3.6</ele>
        <time>2023-08-05T09:27:11Z</time>
      </trkpt>
      <trkpt lat="50.95056" lon="2.42331">
        <ele>-3.6</ele>
        <time>2023-08-05T09:27:12Z</time>
      </trkpt>
      <trkpt lat="50.95056" lon="2.42334">
        <ele>-3.6</ele>
        <time>2023-08-05T09:27:13Z</time>
      </trkpt>
      <trkpt lat="50.95056" lon="2.42337">
        <ele>-3.6</ele>
        <time>2023-08-05T09:27:14Z</time>
      </trkpt>
      <trkpt lat="50.95055" lon="2.42341">
        <ele>-3.6</ele>
        <time>2023-08-05T09:27:15Z</time>
      </trkpt>
      <trkpt lat="50.95054" lon="2.42345">
        <ele>-3.6</ele>
        <time>2023-08-05T09:27:16Z</time>
      </trkpt>
      <trkpt lat="50.95053" lon="2.42348">
        <ele>-3.4</ele>
        <time>2023-08-05T09:27:17Z</time>
      </trkpt>
      <trkpt lat="50.95051" lon="2.42354">
        <ele>-3.4</ele>
        <time>2023-08-05T09:27:18Z</time>
      </trkpt>
      <trkpt lat="50.9505" lon="2.4236">
        <ele>-3.2</ele>
        <time>2023-08-05T09:27:19Z</time>
      </trkpt>
      <trkpt lat="50.95048" lon="2.42365">
        <ele>-3</ele>
        <time>2023-08-05T09:27:20Z</time>
      </trkpt>
      <trkpt lat="50.95047" lon="2.42371">
        <ele>-3</ele>
        <time>2023-08-05T09:27:21Z</time>
      </trkpt>
      <trkpt lat="50.95045" lon="2.42377">
        <ele>-2.8</ele>
        <time>2023-08-05T09:27:22Z</time>
      </trkpt>
      <trkpt lat="50.95043" lon="2.42383">
        <ele>-2.8</ele>
        <time>2023-08-05T09:27:23Z</time>
      </trkpt>
      <trkpt lat="50.95042" lon="2.42389">
        <ele>-2.8</ele>
        <time>2023-08-05T09:27:24Z</time>
      </trkpt>
      <trkpt lat="50.95041" lon="2.42395">
        <ele>-2.6</ele>
        <time>2023-08-05T09:27:25Z</time>
      </trkpt>
      <trkpt lat="50.95039" lon="2.42401">
        <ele>-2.6</ele>
        <time>2023-08-05T09:27:26Z</time>
      </trkpt>
      <trkpt lat="50.95037" lon="2.42407">
        <ele>-2.2</ele>
        <time>2023-08-05T09:27:27Z</time>
      </trkpt>
      <trkpt lat="50.95035" lon="2.42413">
        <ele>-2.4</ele>
        <time>2023-08-05T09:27:28Z</time>
      </trkpt>
      <trkpt lat="50.95034" lon="2.42419">
        <ele>-2</ele>
        <time>2023-08-05T09:27:29Z</time>
      </trkpt>
      <trkpt lat="50.95032" lon="2.42425">
        <ele>-2.2</ele>
        <time>2023-08-05T09:27:30Z</time>
      </trkpt>
      <trkpt lat="50.9503" lon="2.42431">
        <ele>-2.2</ele>
        <time>2023-08-05T09:27:31Z</time>
      </trkpt>
      <trkpt lat="50.95029" lon="2.42437">
        <ele>-2</ele>
        <time>2023-08-05T09:27:32Z</time>
      </trkpt>
      <trkpt lat="50.95027" lon="2.42443">
        <ele>-2</ele>
        <time>2023-08-05T09:27:33Z</time>
      </trkpt>
      <trkpt lat="50.95026" lon="2.42449">
        <ele>-1.8</ele>
        <time>2023-08-05T09:27:34Z</time>
      </trkpt>
      <trkpt lat="50.95024" lon="2.42455">
        <ele>-1.8</ele>
        <time>2023-08-05T09:27:35Z</time>
      </trkpt>
      <trkpt lat="50.95022" lon="2.42461">
        <ele>-1.6</ele>
        <time>2023-08-05T09:27:36Z</time>
      </trkpt>
      <trkpt lat="50.9502" lon="2.42468">
        <ele>-1.6</ele>
        <time>2023-08-05T09:27:37Z</time>
      </trkpt>
      <trkpt lat="50.95019" lon="2.42474">
        <ele>-1.6</ele>
        <time>2023-08-05T09:27:38Z</time>
      </trkpt>
      <trkpt lat="50.95017" lon="2.4248">
        <ele>-1.4</ele>
        <time>2023-08-05T09:27:39Z</time>
      </trkpt>
      <trkpt lat="50.95014" lon="2.42493">
        <ele>-1.2</ele>
        <time>2023-08-05T09:27:41Z</time>
      </trkpt>
      <trkpt lat="50.9501" lon="2.42506">
        <ele>-1</ele>
        <time>2023-08-05T09:27:43Z</time>
      </trkpt>
      <trkpt lat="50.94994" lon="2.4257">
        <ele>-1</ele>
        <time>2023-08-05T09:27:53Z</time>
      </trkpt>
      <trkpt lat="50.94977" lon="2.42634">
        <ele>0.80000000000001</ele>
        <time>2023-08-05T09:28:03Z</time>
      </trkpt>
      <trkpt lat="50.94973" lon="2.42648">
        <ele>1</ele>
        <time>2023-08-05T09:28:05Z</time>
      </trkpt>
      <trkpt lat="50.94965" lon="2.42679">
        <ele>1.4</ele>
        <time>2023-08-05T09:28:10Z</time>
      </trkpt>
      <trkpt lat="50.94959" lon="2.42698">
        <ele>1.8</ele>
        <time>2023-08-05T09:28:13Z</time>
      </trkpt>
      <trkpt lat="50.94958" lon="2.42705">
        <ele>1.8</ele>
        <time>2023-08-05T09:28:14Z</time>
      </trkpt>
      <trkpt lat="50.94956" lon="2.42712">
        <ele>2</ele>
        <time>2023-08-05T09:28:15Z</time>
      </trkpt>
      <trkpt lat="50.94949" lon="2.42732">
        <ele>2.2</ele>
        <time>2023-08-05T09:28:18Z</time>
      </trkpt>
      <trkpt lat="50.94931" lon="2.42782">
        <ele>2.8</ele>
        <time>2023-08-05T09:28:26Z</time>
      </trkpt>
      <trkpt lat="50.94925" lon="2.42794">
        <ele>3</ele>
        <time>2023-08-05T09:28:28Z</time>
      </trkpt>
      <trkpt lat="50.94908" lon="2.42832">
        <ele>3.4</ele>
        <time>2023-08-05T09:28:34Z</time>
      </trkpt>
      <trkpt lat="50.94894" lon="2.42859">
        <ele>3.8</ele>
        <time>2023-08-05T09:28:39Z</time>
      </trkpt>
      <trkpt lat="50.94891" lon="2.42865">
        <ele>4</ele>
        <time>2023-08-05T09:28:40Z</time>
      </trkpt>
      <trkpt lat="50.94888" lon="2.4287">
        <ele>4</ele>
        <time>2023-08-05T09:28:41Z</time>
      </trkpt>
      <trkpt lat="50.94885" lon="2.42875">
        <ele>4.2</ele>
        <time>2023-08-05T09:28:42Z</time>
      </trkpt>
      <trkpt lat="50.94883" lon="2.42881">
        <ele>4.2</ele>
        <time>2023-08-05T09:28:43Z</time>
      </trkpt>
      <trkpt lat="50.9488" lon="2.42886">
        <ele>4.2</ele>
        <time>2023-08-05T09:28:44Z</time>
      </trkpt>
      <trkpt lat="50.94859" lon="2.42925">
        <ele>4.8</ele>
        <time>2023-08-05T09:28:51Z</time>
      </trkpt>
      <trkpt lat="50.94842" lon="2.42956">
        <ele>5.2</ele>
        <time>2023-08-05T09:28:57Z</time>
      </trkpt>
      <trkpt lat="50.94839" lon="2.42961">
        <ele>5.4</ele>
        <time>2023-08-05T09:28:58Z</time>
      </trkpt>
      <trkpt lat="50.94832" lon="2.42964">
        <ele>5.4</ele>
        <time>2023-08-05T09:29:00Z</time>
      </trkpt>
      <trkpt lat="50.9483" lon="2.42962">
        <ele>5.6</ele>
        <time>2023-08-05T09:29:01Z</time>
      </trkpt>
      <trkpt lat="50.94828" lon="2.42959">
        <ele>5.6</ele>
        <time>2023-08-05T09:29:02Z</time>
      </trkpt>
      <trkpt lat="50.94826" lon="2.42957">
        <ele>5.8</ele>
        <time>2023-08-05T09:29:03Z</time>
      </trkpt>
      <trkpt lat="50.94823" lon="2.42956">
        <ele>5.8</ele>
        <time>2023-08-05T09:29:04Z</time>
      </trkpt>
      <trkpt lat="50.9482" lon="2.42955">
        <ele>5.8</ele>
        <time>2023-08-05T09:29:05Z</time>
      </trkpt>
      <trkpt lat="50.94814" lon="2.42951">
        <ele>5.8</ele>
        <time>2023-08-05T09:29:07Z</time>
      </trkpt>
      <trkpt lat="50.94805" lon="2.42943">
        <ele>6</ele>
        <time>2023-08-05T09:29:10Z</time>
      </trkpt>
      <trkpt lat="50.9479" lon="2.42931">
        <ele>5.8</ele>
        <time>2023-08-05T09:29:14Z</time>
      </trkpt>
      <trkpt lat="50.94769" lon="2.42915">
        <ele>6.6</ele>
        <time>2023-08-05T09:29:20Z</time>
      </trkpt>
      <trkpt lat="50.94739" lon="2.42898">
        <ele>7</ele>
        <time>2023-08-05T09:29:28Z</time>
      </trkpt>
      <trkpt lat="50.94732" lon="2.42894">
        <ele>7</ele>
        <time>2023-08-05T09:29:30Z</time>
      </trkpt>
      <trkpt lat="50.94706" lon="2.42875">
        <ele>7.6</ele>
        <time>2023-08-05T09:29:37Z</time>
      </trkpt>
      <trkpt lat="50.947" lon="2.4287">
        <ele>7.8</ele>
        <time>2023-08-05T09:29:39Z</time>
      </trkpt>
      <trkpt lat="50.94685" lon="2.4286">
        <ele>8</ele>
        <time>2023-08-05T09:29:43Z</time>
      </trkpt>
      <trkpt lat="50.94678" lon="2.42854">
        <ele>8.2</ele>
        <time>2023-08-05T09:29:45Z</time>
      </trkpt>
      <trkpt lat="50.94668" lon="2.42847">
        <ele>8.2</ele>
        <time>2023-08-05T09:29:48Z</time>
      </trkpt>
      <trkpt lat="50.94658" lon="2.42841">
        <ele>8.6</ele>
        <time>2023-08-05T09:29:51Z</time>
      </trkpt>
      <trkpt lat="50.94651" lon="2.42837">
        <ele>8.8</ele>
        <time>2023-08-05T09:29:53Z</time>
      </trkpt>
      <trkpt lat="50.9464" lon="2.42831">
        <ele>8.8</ele>
        <time>2023-08-05T09:29:56Z</time>
      </trkpt>
      <trkpt lat="50.94637" lon="2.42829">
        <ele>8.8</ele>
        <time>2023-08-05T09:29:57Z</time>
      </trkpt>
      <trkpt lat="50.9463" lon="2.42825">
        <ele>9</ele>
        <time>2023-08-05T09:29:59Z</time>
      </trkpt>
      <trkpt lat="50.94609" lon="2.42814">
        <ele>9.4</ele>
        <time>2023-08-05T09:30:05Z</time>
      </trkpt>
      <trkpt lat="50.94605" lon="2.42812">
        <ele>9.6</ele>
        <time>2023-08-05T09:30:06Z</time>
      </trkpt>
      <trkpt lat="50.94602" lon="2.4281">
        <ele>9.8</ele>
        <time>2023-08-05T09:30:07Z</time>
      </trkpt>
      <trkpt lat="50.94598" lon="2.42807">
        <ele>10</ele>
        <time>2023-08-05T09:30:08Z</time>
      </trkpt>
      <trkpt lat="50.94563" lon="2.42788">
        <ele>10.6</ele>
        <time>2023-08-05T09:30:18Z</time>
      </trkpt>
      <trkpt lat="50.94541" lon="2.42776">
        <ele>11</ele>
        <time>2023-08-05T09:30:24Z</time>
      </trkpt>
      <trkpt lat="50.9453" lon="2.42771">
        <ele>11</ele>
        <time>2023-08-05T09:30:27Z</time>
      </trkpt>
      <trkpt lat="50.9452" lon="2.42765">
        <ele>11.4</ele>
        <time>2023-08-05T09:30:30Z</time>
      </trkpt>
      <trkpt lat="50.94484" lon="2.42747">
        <ele>11.8</ele>
        <time>2023-08-05T09:30:40Z</time>
      </trkpt>
      <trkpt lat="50.94466" lon="2.42736">
        <ele>12</ele>
        <time>2023-08-05T09:30:45Z</time>
      </trkpt>
      <trkpt lat="50.94452" lon="2.42728">
        <ele>12.4</ele>
        <time>2023-08-05T09:30:49Z</time>
      </trkpt>
      <trkpt lat="50.94449" lon="2.42726">
        <ele>12.4</ele>
        <time>2023-08-05T09:30:50Z</time>
      </trkpt>
      <trkpt lat="50.94446" lon="2.42723">
        <ele>12.6</ele>
        <time>2023-08-05T09:30:51Z</time>
      </trkpt>
      <trkpt lat="50.94421" lon="2.42707">
        <ele>12.8</ele>
        <time>2023-08-05T09:30:58Z</time>
      </trkpt>
      <trkpt lat="50.94407" lon="2.42697">
        <ele>13.2</ele>
        <time>2023-08-05T09:31:02Z</time>
      </trkpt>
      <trkpt lat="50.94386" lon="2.42683">
        <ele>13.6</ele>
        <time>2023-08-05T09:31:08Z</time>
      </trkpt>
      <trkpt lat="50.94379" lon="2.42678">
        <ele>13.8</ele>
        <time>2023-08-05T09:31:10Z</time>
      </trkpt>
      <trkpt lat="50.94357" lon="2.42662">
        <ele>14.2</ele>
        <time>2023-08-05T09:31:16Z</time>
      </trkpt>
      <trkpt lat="50.9435" lon="2.42657">
        <ele>14.2</ele>
        <time>2023-08-05T09:31:18Z</time>
      </trkpt>
      <trkpt lat="50.94336" lon="2.42646">
        <ele>14.4</ele>
        <time>2023-08-05T09:31:22Z</time>
      </trkpt>
      <trkpt lat="50.94314" lon="2.42631">
        <ele>14.4</ele>
        <time>2023-08-05T09:31:28Z</time>
      </trkpt>
      <trkpt lat="50.9428" lon="2.42613">
        <ele>15.2</ele>
        <time>2023-08-05T09:31:37Z</time>
      </trkpt>
      <trkpt lat="50.94276" lon="2.42612">
        <ele>15.2</ele>
        <time>2023-08-05T09:31:38Z</time>
      </trkpt>
      <trkpt lat="50.94266" lon="2.42607">
        <ele>15.4</ele>
        <time>2023-08-05T09:31:41Z</time>
      </trkpt>
      <trkpt lat="50.94262" lon="2.42606">
        <ele>15.4</ele>
        <time>2023-08-05T09:31:42Z</time>
      </trkpt>
      <trkpt lat="50.94259" lon="2.42605">
        <ele>15.4</ele>
        <time>2023-08-05T09:31:43Z</time>
      </trkpt>
      <trkpt lat="50.94255" lon="2.42604">
        <ele>15.6</ele>
        <time>2023-08-05T09:31:44Z</time>
      </trkpt>
      <trkpt lat="50.94251" lon="2.42602">
        <ele>15.6</ele>
        <time>2023-08-05T09:31:45Z</time>
      </trkpt>
      <trkpt lat="50.94248" lon="2.42601">
        <ele>15.6</ele>
        <time>2023-08-05T09:31:46Z</time>
      </trkpt>
      <trkpt lat="50.94244" lon="2.42599">
        <ele>15.6</ele>
        <time>2023-08-05T09:31:47Z</time>
      </trkpt>
      <trkpt lat="50.94241" lon="2.42598">
        <ele>15.8</ele>
        <time>2023-08-05T09:31:48Z</time>
      </trkpt>
      <trkpt lat="50.94237" lon="2.42597">
        <ele>15.8</ele>
        <time>2023-08-05T09:31:49Z</time>
      </trkpt>
      <trkpt lat="50.94234" lon="2.42596">
        <ele>15.8</ele>
        <time>2023-08-05T09:31:50Z</time>
      </trkpt>
      <trkpt lat="50.9423" lon="2.42595">
        <ele>16</ele>
        <time>2023-08-05T09:31:51Z</time>
      </trkpt>
      <trkpt lat="50.94211" lon="2.4259">
        <ele>16.2</ele>
        <time>2023-08-05T09:31:56Z</time>
      </trkpt>
      <trkpt lat="50.94196" lon="2.42587">
        <ele>16.4</ele>
        <time>2023-08-05T09:32:00Z</time>
      </trkpt>
      <trkpt lat="50.94181" lon="2.42583">
        <ele>16.6</ele>
        <time>2023-08-05T09:32:04Z</time>
      </trkpt>
      <trkpt lat="50.94149" lon="2.42568">
        <ele>17</ele>
        <time>2023-08-05T09:32:13Z</time>
      </trkpt>
      <trkpt lat="50.94146" lon="2.42567">
        <ele>17</ele>
        <time>2023-08-05T09:32:14Z</time>
      </trkpt>
      <trkpt lat="50.94143" lon="2.42564">
        <ele>17</ele>
        <time>2023-08-05T09:32:15Z</time>
      </trkpt>
      <trkpt lat="50.9414" lon="2.42562">
        <ele>17</ele>
        <time>2023-08-05T09:32:16Z</time>
      </trkpt>
      <trkpt lat="50.94137" lon="2.4256">
        <ele>17.2</ele>
        <time>2023-08-05T09:32:17Z</time>
      </trkpt>
      <trkpt lat="50.94134" lon="2.42558">
        <ele>17.2</ele>
        <time>2023-08-05T09:32:18Z</time>
      </trkpt>
      <trkpt lat="50.94131" lon="2.42556">
        <ele>17.4</ele>
        <time>2023-08-05T09:32:19Z</time>
      </trkpt>
      <trkpt lat="50.94128" lon="2.42553">
        <ele>17.4</ele>
        <time>2023-08-05T09:32:20Z</time>
      </trkpt>
      <trkpt lat="50.94125" lon="2.42551">
        <ele>17.4</ele>
        <time>2023-08-05T09:32:21Z</time>
      </trkpt>
      <trkpt lat="50.94122" lon="2.42548">
        <ele>17.4</ele>
        <time>2023-08-05T09:32:22Z</time>
      </trkpt>
      <trkpt lat="50.94119" lon="2.42546">
        <ele>17.6</ele>
        <time>2023-08-05T09:32:23Z</time>
      </trkpt>
      <trkpt lat="50.94115" lon="2.42544">
        <ele>17.6</ele>
        <time>2023-08-05T09:32:24Z</time>
      </trkpt>
      <trkpt lat="50.94112" lon="2.42541">
        <ele>17.6</ele>
        <time>2023-08-05T09:32:25Z</time>
      </trkpt>
      <trkpt lat="50.94109" lon="2.42539">
        <ele>17.6</ele>
        <time>2023-08-05T09:32:26Z</time>
      </trkpt>
      <trkpt lat="50.94093" lon="2.42527">
        <ele>17.8</ele>
        <time>2023-08-05T09:32:31Z</time>
      </trkpt>
      <trkpt lat="50.9406" lon="2.42504">
        <ele>18.2</ele>
        <time>2023-08-05T09:32:42Z</time>
      </trkpt>
      <trkpt lat="50.94044" lon="2.42494">
        <ele>18.4</ele>
        <time>2023-08-05T09:32:47Z</time>
      </trkpt>
      <trkpt lat="50.9404" lon="2.42492">
        <ele>18.6</ele>
        <time>2023-08-05T09:32:48Z</time>
      </trkpt>
      <trkpt lat="50.94021" lon="2.42481">
        <ele>18.8</ele>
        <time>2023-08-05T09:32:54Z</time>
      </trkpt>
      <trkpt lat="50.94008" lon="2.42474">
        <ele>19</ele>
        <time>2023-08-05T09:32:58Z</time>
      </trkpt>
      <trkpt lat="50.94005" lon="2.42472">
        <ele>19</ele>
        <time>2023-08-05T09:32:59Z</time>
      </trkpt>
      <trkpt lat="50.94002" lon="2.4247">
        <ele>19</ele>
        <time>2023-08-05T09:33:00Z</time>
      </trkpt>
      <trkpt lat="50.93999" lon="2.42469">
        <ele>19</ele>
        <time>2023-08-05T09:33:01Z</time>
      </trkpt>
      <trkpt lat="50.93993" lon="2.42466">
        <ele>19.2</ele>
        <time>2023-08-05T09:33:03Z</time>
      </trkpt>
      <trkpt lat="50.9399" lon="2.42464">
        <ele>19.2</ele>
        <time>2023-08-05T09:33:04Z</time>
      </trkpt>
      <trkpt lat="50.93987" lon="2.42463">
        <ele>19.4</ele>
        <time>2023-08-05T09:33:05Z</time>
      </trkpt>
      <trkpt lat="50.93983" lon="2.42461">
        <ele>19.4</ele>
        <time>2023-08-05T09:33:06Z</time>
      </trkpt>
      <trkpt lat="50.93981" lon="2.4246">
        <ele>19.4</ele>
        <time>2023-08-05T09:33:07Z</time>
      </trkpt>
      <trkpt lat="50.93978" lon="2.42458">
        <ele>19.6</ele>
        <time>2023-08-05T09:33:08Z</time>
      </trkpt>
      <trkpt lat="50.93965" lon="2.42453">
        <ele>19.6</ele>
        <time>2023-08-05T09:33:12Z</time>
      </trkpt>
      <trkpt lat="50.93942" lon="2.4244">
        <ele>19.6</ele>
        <time>2023-08-05T09:33:19Z</time>
      </trkpt>
      <trkpt lat="50.93921" lon="2.42427">
        <ele>20</ele>
        <time>2023-08-05T09:33:26Z</time>
      </trkpt>
      <trkpt lat="50.93918" lon="2.42424">
        <ele>20</ele>
        <time>2023-08-05T09:33:27Z</time>
      </trkpt>
      <trkpt lat="50.93915" lon="2.42422">
        <ele>20</ele>
        <time>2023-08-05T09:33:28Z</time>
      </trkpt>
      <trkpt lat="50.93912" lon="2.4242">
        <ele>20.2</ele>
        <time>2023-08-05T09:33:29Z</time>
      </trkpt>
      <trkpt lat="50.93909" lon="2.42418">
        <ele>20.2</ele>
        <time>2023-08-05T09:33:30Z</time>
      </trkpt>
      <trkpt lat="50.93906" lon="2.42415">
        <ele>20.2</ele>
        <time>2023-08-05T09:33:31Z</time>
      </trkpt>
      <trkpt lat="50.93904" lon="2.42413">
        <ele>20.2</ele>
        <time>2023-08-05T09:33:32Z</time>
      </trkpt>
      <trkpt lat="50.93901" lon="2.42411">
        <ele>20.4</ele>
        <time>2023-08-05T09:33:33Z</time>
      </trkpt>
      <trkpt lat="50.93888" lon="2.42404">
        <ele>20.6</ele>
        <time>2023-08-05T09:33:37Z</time>
      </trkpt>
      <trkpt lat="50.93886" lon="2.42401">
        <ele>20.6</ele>
        <time>2023-08-05T09:33:38Z</time>
      </trkpt>
      <trkpt lat="50.93864" lon="2.42385">
        <ele>20.8</ele>
        <time>2023-08-05T09:33:45Z</time>
      </trkpt>
      <trkpt lat="50.93835" lon="2.42365">
        <ele>21</ele>
        <time>2023-08-05T09:33:54Z</time>
      </trkpt>
      <trkpt lat="50.9382" lon="2.42353">
        <ele>21</ele>
        <time>2023-08-05T09:33:59Z</time>
      </trkpt>
      <trkpt lat="50.93817" lon="2.42351">
        <ele>21</ele>
        <time>2023-08-05T09:34:00Z</time>
      </trkpt>
      <trkpt lat="50.93814" lon="2.42349">
        <ele>21</ele>
        <time>2023-08-05T09:34:01Z</time>
      </trkpt>
      <trkpt lat="50.93811" lon="2.42348">
        <ele>21</ele>
        <time>2023-08-05T09:34:02Z</time>
      </trkpt>
      <trkpt lat="50.93808" lon="2.42346">
        <ele>21</ele>
        <time>2023-08-05T09:34:03Z</time>
      </trkpt>
      <trkpt lat="50.93805" lon="2.42344">
        <ele>21</ele>
        <time>2023-08-05T09:34:04Z</time>
      </trkpt>
      <trkpt lat="50.93802" lon="2.42341">
        <ele>21.2</ele>
        <time>2023-08-05T09:34:05Z</time>
      </trkpt>
      <trkpt lat="50.93799" lon="2.42339">
        <ele>21.2</ele>
        <time>2023-08-05T09:34:06Z</time>
      </trkpt>
      <trkpt lat="50.93796" lon="2.42337">
        <ele>21.2</ele>
        <time>2023-08-05T09:34:07Z</time>
      </trkpt>
      <trkpt lat="50.93793" lon="2.42335">
        <ele>21.2</ele>
        <time>2023-08-05T09:34:08Z</time>
      </trkpt>
      <trkpt lat="50.93791" lon="2.42333">
        <ele>21.2</ele>
        <time>2023-08-05T09:34:09Z</time>
      </trkpt>
      <trkpt lat="50.93787" lon="2.42331">
        <ele>21.2</ele>
        <time>2023-08-05T09:34:10Z</time>
      </trkpt>
      <trkpt lat="50.93785" lon="2.42329">
        <ele>21.2</ele>
        <time>2023-08-05T09:34:11Z</time>
      </trkpt>
      <trkpt lat="50.93782" lon="2.42327">
        <ele>21.2</ele>
        <time>2023-08-05T09:34:12Z</time>
      </trkpt>
      <trkpt lat="50.93762" lon="2.42312">
        <ele>21</ele>
        <time>2023-08-05T09:34:19Z</time>
      </trkpt>
      <trkpt lat="50.93759" lon="2.4231">
        <ele>20.8</ele>
        <time>2023-08-05T09:34:20Z</time>
      </trkpt>
      <trkpt lat="50.93756" lon="2.42308">
        <ele>20.8</ele>
        <time>2023-08-05T09:34:21Z</time>
      </trkpt>
      <trkpt lat="50.93753" lon="2.42306">
        <ele>20.6</ele>
        <time>2023-08-05T09:34:22Z</time>
      </trkpt>
      <trkpt lat="50.93738" lon="2.42296">
        <ele>20</ele>
        <time>2023-08-05T09:34:27Z</time>
      </trkpt>
      <trkpt lat="50.93719" lon="2.42278">
        <ele>19.6</ele>
        <time>2023-08-05T09:34:34Z</time>
      </trkpt>
      <trkpt lat="50.93714" lon="2.42271">
        <ele>19.4</ele>
        <time>2023-08-05T09:34:36Z</time>
      </trkpt>
      <trkpt lat="50.93712" lon="2.42268">
        <ele>19.4</ele>
        <time>2023-08-05T09:34:37Z</time>
      </trkpt>
      <trkpt lat="50.93709" lon="2.42266">
        <ele>19.2</ele>
        <time>2023-08-05T09:34:38Z</time>
      </trkpt>
      <trkpt lat="50.93705" lon="2.4226">
        <ele>19</ele>
        <time>2023-08-05T09:34:40Z</time>
      </trkpt>
      <trkpt lat="50.93701" lon="2.42253">
        <ele>18.8</ele>
        <time>2023-08-05T09:34:42Z</time>
      </trkpt>
      <trkpt lat="50.93698" lon="2.42249">
        <ele>18.6</ele>
        <time>2023-08-05T09:34:43Z</time>
      </trkpt>
      <trkpt lat="50.93696" lon="2.42246">
        <ele>18.6</ele>
        <time>2023-08-05T09:34:44Z</time>
      </trkpt>
      <trkpt lat="50.93687" lon="2.4224">
        <ele>18.4</ele>
        <time>2023-08-05T09:34:47Z</time>
      </trkpt>
      <trkpt lat="50.93683" lon="2.42239">
        <ele>18.4</ele>
        <time>2023-08-05T09:34:48Z</time>
      </trkpt>
      <trkpt lat="50.93678" lon="2.42236">
        <ele>18.2</ele>
        <time>2023-08-05T09:34:50Z</time>
      </trkpt>
      <trkpt lat="50.93655" lon="2.42235">
        <ele>18</ele>
        <time>2023-08-05T09:34:57Z</time>
      </trkpt>
      <trkpt lat="50.93625" lon="2.42237">
        <ele>17.2</ele>
        <time>2023-08-05T09:35:06Z</time>
      </trkpt>
      <trkpt lat="50.93611" lon="2.42248">
        <ele>16.8</ele>
        <time>2023-08-05T09:35:11Z</time>
      </trkpt>
      <trkpt lat="50.93592" lon="2.42259">
        <ele>16.4</ele>
        <time>2023-08-05T09:35:17Z</time>
      </trkpt>
      <trkpt lat="50.93577" lon="2.4226">
        <ele>16</ele>
        <time>2023-08-05T09:35:22Z</time>
      </trkpt>
      <trkpt lat="50.93574" lon="2.42259">
        <ele>15.8</ele>
        <time>2023-08-05T09:35:23Z</time>
      </trkpt>
      <trkpt lat="50.93557" lon="2.42255">
        <ele>15.4</ele>
        <time>2023-08-05T09:35:28Z</time>
      </trkpt>
      <trkpt lat="50.93552" lon="2.4225">
        <ele>15.4</ele>
        <time>2023-08-05T09:35:30Z</time>
      </trkpt>
      <trkpt lat="50.93549" lon="2.42246">
        <ele>15.2</ele>
        <time>2023-08-05T09:35:31Z</time>
      </trkpt>
      <trkpt lat="50.93547" lon="2.42243">
        <ele>15</ele>
        <time>2023-08-05T09:35:32Z</time>
      </trkpt>
      <trkpt lat="50.93545" lon="2.42238">
        <ele>15</ele>
        <time>2023-08-05T09:35:33Z</time>
      </trkpt>
      <trkpt lat="50.93544" lon="2.42233">
        <ele>15</ele>
        <time>2023-08-05T09:35:34Z</time>
      </trkpt>
      <trkpt lat="50.93541" lon="2.42223">
        <ele>14.8</ele>
        <time>2023-08-05T09:35:36Z</time>
      </trkpt>
      <trkpt lat="50.93535" lon="2.42214">
        <ele>14.6</ele>
        <time>2023-08-05T09:35:38Z</time>
      </trkpt>
      <trkpt lat="50.93524" lon="2.42202">
        <ele>14.2</ele>
        <time>2023-08-05T09:35:41Z</time>
      </trkpt>
      <trkpt lat="50.93514" lon="2.42195">
        <ele>14.2</ele>
        <time>2023-08-05T09:35:43Z</time>
      </trkpt>
      <trkpt lat="50.93488" lon="2.42178">
        <ele>13.6</ele>
        <time>2023-08-05T09:35:48Z</time>
      </trkpt>
      <trkpt lat="50.93484" lon="2.42175">
        <ele>13.6</ele>
        <time>2023-08-05T09:35:49Z</time>
      </trkpt>
      <trkpt lat="50.93481" lon="2.42173">
        <ele>13.4</ele>
        <time>2023-08-05T09:35:50Z</time>
      </trkpt>
      <trkpt lat="50.93479" lon="2.42171">
        <ele>13.2</ele>
        <time>2023-08-05T09:35:51Z</time>
      </trkpt>
      <trkpt lat="50.93477" lon="2.4217">
        <ele>13.2</ele>
        <time>2023-08-05T09:35:52Z</time>
      </trkpt>
      <trkpt lat="50.93475" lon="2.42169">
        <ele>13</ele>
        <time>2023-08-05T09:35:53Z</time>
      </trkpt>
      <trkpt lat="50.93473" lon="2.42167">
        <ele>12.8</ele>
        <time>2023-08-05T09:35:54Z</time>
      </trkpt>
      <trkpt lat="50.93471" lon="2.42166">
        <ele>12.6</ele>
        <time>2023-08-05T09:35:55Z</time>
      </trkpt>
      <trkpt lat="50.93469" lon="2.42164">
        <ele>12.6</ele>
        <time>2023-08-05T09:35:56Z</time>
      </trkpt>
      <trkpt lat="50.93467" lon="2.42164">
        <ele>12.4</ele>
        <time>2023-08-05T09:35:57Z</time>
      </trkpt>
      <trkpt lat="50.93466" lon="2.42166">
        <ele>12.4</ele>
        <time>2023-08-05T09:35:58Z</time>
      </trkpt>
      <trkpt lat="50.93466" lon="2.4217">
        <ele>12.4</ele>
        <time>2023-08-05T09:35:59Z</time>
      </trkpt>
      <trkpt lat="50.93468" lon="2.42172">
        <ele>12.4</ele>
        <time>2023-08-05T09:36:00Z</time>
      </trkpt>
      <trkpt lat="50.93471" lon="2.42173">
        <ele>12.2</ele>
        <time>2023-08-05T09:36:01Z</time>
      </trkpt>
      <trkpt lat="50.93481" lon="2.42179">
        <ele>12.2</ele>
        <time>2023-08-05T09:36:04Z</time>
      </trkpt>
      <trkpt lat="50.93484" lon="2.42181">
        <ele>12.2</ele>
        <time>2023-08-05T09:36:05Z</time>
      </trkpt>
      <trkpt lat="50.93488" lon="2.42184">
        <ele>12.2</ele>
        <time>2023-08-05T09:36:06Z</time>
      </trkpt>
      <trkpt lat="50.93508" lon="2.42197">
        <ele>11.6</ele>
        <time>2023-08-05T09:36:11Z</time>
      </trkpt>
      <trkpt lat="50.9352" lon="2.42204">
        <ele>11.6</ele>
        <time>2023-08-05T09:36:14Z</time>
      </trkpt>
      <trkpt lat="50.93523" lon="2.42207">
        <ele>11.4</ele>
        <time>2023-08-05T09:36:15Z</time>
      </trkpt>
      <trkpt lat="50.9353" lon="2.42213">
        <ele>11.4</ele>
        <time>2023-08-05T09:36:17Z</time>
      </trkpt>
      <trkpt lat="50.93536" lon="2.42222">
        <ele>11.2</ele>
        <time>2023-08-05T09:36:19Z</time>
      </trkpt>
      <trkpt lat="50.93538" lon="2.42227">
        <ele>11.2</ele>
        <time>2023-08-05T09:36:20Z</time>
      </trkpt>
      <trkpt lat="50.93539" lon="2.42232">
        <ele>11.2</ele>
        <time>2023-08-05T09:36:21Z</time>
      </trkpt>
      <trkpt lat="50.9354" lon="2.42236">
        <ele>11</ele>
        <time>2023-08-05T09:36:22Z</time>
      </trkpt>
      <trkpt lat="50.9354" lon="2.42242">
        <ele>11</ele>
        <time>2023-08-05T09:36:23Z</time>
      </trkpt>
      <trkpt lat="50.93539" lon="2.42247">
        <ele>10.8</ele>
        <time>2023-08-05T09:36:24Z</time>
      </trkpt>
      <trkpt lat="50.93538" lon="2.42252">
        <ele>10.6</ele>
        <time>2023-08-05T09:36:25Z</time>
      </trkpt>
      <trkpt lat="50.93534" lon="2.42255">
        <ele>10.6</ele>
        <time>2023-08-05T09:36:26Z</time>
      </trkpt>
      <trkpt lat="50.93517" lon="2.42255">
        <ele>10.4</ele>
        <time>2023-08-05T09:36:30Z</time>
      </trkpt>
      <trkpt lat="50.93513" lon="2.42255">
        <ele>10.2</ele>
        <time>2023-08-05T09:36:31Z</time>
      </trkpt>
      <trkpt lat="50.93508" lon="2.42255">
        <ele>10.2</ele>
        <time>2023-08-05T09:36:32Z</time>
      </trkpt>
      <trkpt lat="50.93478" lon="2.42258">
        <ele>9.6</ele>
        <time>2023-08-05T09:36:38Z</time>
      </trkpt>
      <trkpt lat="50.93472" lon="2.42258">
        <ele>9.6</ele>
        <time>2023-08-05T09:36:39Z</time>
      </trkpt>
      <trkpt lat="50.93445" lon="2.4226">
        <ele>9</ele>
        <time>2023-08-05T09:36:44Z</time>
      </trkpt>
      <trkpt lat="50.93434" lon="2.42261">
        <ele>9</ele>
        <time>2023-08-05T09:36:46Z</time>
      </trkpt>
      <trkpt lat="50.93387" lon="2.42262">
        <ele>8.6</ele>
        <time>2023-08-05T09:36:54Z</time>
      </trkpt>
      <trkpt lat="50.93365" lon="2.42264">
        <ele>8.4</ele>
        <time>2023-08-05T09:36:58Z</time>
      </trkpt>
      <trkpt lat="50.93359" lon="2.42264">
        <ele>8.4</ele>
        <time>2023-08-05T09:36:59Z</time>
      </trkpt>
      <trkpt lat="50.93354" lon="2.42265">
        <ele>8.4</ele>
        <time>2023-08-05T09:37:00Z</time>
      </trkpt>
      <trkpt lat="50.9333" lon="2.42266">
        <ele>8.4</ele>
        <time>2023-08-05T09:37:04Z</time>
      </trkpt>
      <trkpt lat="50.93276" lon="2.42271">
        <ele>8.2</ele>
        <time>2023-08-05T09:37:13Z</time>
      </trkpt>
      <trkpt lat="50.93257" lon="2.42271">
        <ele>8</ele>
        <time>2023-08-05T09:37:16Z</time>
      </trkpt>
      <trkpt lat="50.93222" lon="2.42273">
        <ele>7.8</ele>
        <time>2023-08-05T09:37:22Z</time>
      </trkpt>
      <trkpt lat="50.93216" lon="2.42273">
        <ele>7.8</ele>
        <time>2023-08-05T09:37:23Z</time>
      </trkpt>
      <trkpt lat="50.9321" lon="2.42274">
        <ele>7.8</ele>
        <time>2023-08-05T09:37:24Z</time>
      </trkpt>
      <trkpt lat="50.93204" lon="2.42274">
        <ele>7.8</ele>
        <time>2023-08-05T09:37:25Z</time>
      </trkpt>
      <trkpt lat="50.93199" lon="2.42275">
        <ele>7.8</ele>
        <time>2023-08-05T09:37:26Z</time>
      </trkpt>
      <trkpt lat="50.93193" lon="2.42276">
        <ele>7.8</ele>
        <time>2023-08-05T09:37:27Z</time>
      </trkpt>
      <trkpt lat="50.93187" lon="2.42276">
        <ele>7.8</ele>
        <time>2023-08-05T09:37:28Z</time>
      </trkpt>
      <trkpt lat="50.93164" lon="2.42278">
        <ele>8</ele>
        <time>2023-08-05T09:37:32Z</time>
      </trkpt>
      <trkpt lat="50.9311" lon="2.42282">
        <ele>8</ele>
        <time>2023-08-05T09:37:41Z</time>
      </trkpt>
      <trkpt lat="50.93053" lon="2.42287">
        <ele>8.2</ele>
        <time>2023-08-05T09:37:50Z</time>
      </trkpt>
      <trkpt lat="50.93016" lon="2.42289">
        <ele>8.2</ele>
        <time>2023-08-05T09:37:56Z</time>
      </trkpt>
      <trkpt lat="50.9301" lon="2.4229">
        <ele>8.2</ele>
        <time>2023-08-05T09:37:57Z</time>
      </trkpt>
      <trkpt lat="50.93005" lon="2.4229">
        <ele>8.2</ele>
        <time>2023-08-05T09:37:58Z</time>
      </trkpt>
      <trkpt lat="50.92999" lon="2.4229">
        <ele>8.2</ele>
        <time>2023-08-05T09:37:59Z</time>
      </trkpt>
      <trkpt lat="50.92994" lon="2.4229">
        <ele>8.2</ele>
        <time>2023-08-05T09:38:00Z</time>
      </trkpt>
      <trkpt lat="50.92989" lon="2.42291">
        <ele>8.2</ele>
        <time>2023-08-05T09:38:01Z</time>
      </trkpt>
      <trkpt lat="50.92984" lon="2.42291">
        <ele>8.2</ele>
        <time>2023-08-05T09:38:02Z</time>
      </trkpt>
      <trkpt lat="50.92978" lon="2.42291">
        <ele>8.2</ele>
        <time>2023-08-05T09:38:03Z</time>
      </trkpt>
      <trkpt lat="50.92973" lon="2.4229">
        <ele>8.2</ele>
        <time>2023-08-05T09:38:04Z</time>
      </trkpt>
      <trkpt lat="50.92968" lon="2.4229">
        <ele>8.2</ele>
        <time>2023-08-05T09:38:05Z</time>
      </trkpt>
      <trkpt lat="50.92963" lon="2.4229">
        <ele>8.2</ele>
        <time>2023-08-05T09:38:06Z</time>
      </trkpt>
      <trkpt lat="50.92958" lon="2.4229">
        <ele>8.2</ele>
        <time>2023-08-05T09:38:07Z</time>
      </trkpt>
      <trkpt lat="50.92953" lon="2.42291">
        <ele>8.2</ele>
        <time>2023-08-05T09:38:08Z</time>
      </trkpt>
      <trkpt lat="50.92947" lon="2.42291">
        <ele>8.2</ele>
        <time>2023-08-05T09:38:09Z</time>
      </trkpt>
      <trkpt lat="50.92942" lon="2.42292">
        <ele>8.2</ele>
        <time>2023-08-05T09:38:10Z</time>
      </trkpt>
      <trkpt lat="50.92937" lon="2.42292">
        <ele>8.2</ele>
        <time>2023-08-05T09:38:11Z</time>
      </trkpt>
      <trkpt lat="50.92911" lon="2.42295">
        <ele>8.2</ele>
        <time>2023-08-05T09:38:16Z</time>
      </trkpt>
      <trkpt lat="50.92858" lon="2.42304">
        <ele>8.2</ele>
        <time>2023-08-05T09:38:26Z</time>
      </trkpt>
      <trkpt lat="50.92853" lon="2.42306">
        <ele>8.2</ele>
        <time>2023-08-05T09:38:27Z</time>
      </trkpt>
      <trkpt lat="50.92848" lon="2.42307">
        <ele>8</ele>
        <time>2023-08-05T09:38:28Z</time>
      </trkpt>
      <trkpt lat="50.92843" lon="2.42309">
        <ele>8</ele>
        <time>2023-08-05T09:38:29Z</time>
      </trkpt>
      <trkpt lat="50.92838" lon="2.4231">
        <ele>8</ele>
        <time>2023-08-05T09:38:30Z</time>
      </trkpt>
      <trkpt lat="50.92834" lon="2.42312">
        <ele>8</ele>
        <time>2023-08-05T09:38:31Z</time>
      </trkpt>
      <trkpt lat="50.92829" lon="2.42313">
        <ele>8</ele>
        <time>2023-08-05T09:38:32Z</time>
      </trkpt>
      <trkpt lat="50.92824" lon="2.42315">
        <ele>8</ele>
        <time>2023-08-05T09:38:33Z</time>
      </trkpt>
      <trkpt lat="50.92819" lon="2.42316">
        <ele>8</ele>
        <time>2023-08-05T09:38:34Z</time>
      </trkpt>
      <trkpt lat="50.92815" lon="2.42317">
        <ele>8</ele>
        <time>2023-08-05T09:38:35Z</time>
      </trkpt>
      <trkpt lat="50.9281" lon="2.42319">
        <ele>8</ele>
        <time>2023-08-05T09:38:36Z</time>
      </trkpt>
      <trkpt lat="50.92805" lon="2.4232">
        <ele>8</ele>
        <time>2023-08-05T09:38:37Z</time>
      </trkpt>
      <trkpt lat="50.92801" lon="2.42322">
        <ele>8</ele>
        <time>2023-08-05T09:38:38Z</time>
      </trkpt>
      <trkpt lat="50.92797" lon="2.42323">
        <ele>8</ele>
        <time>2023-08-05T09:38:39Z</time>
      </trkpt>
      <trkpt lat="50.92793" lon="2.42325">
        <ele>8</ele>
        <time>2023-08-05T09:38:40Z</time>
      </trkpt>
      <trkpt lat="50.92788" lon="2.42326">
        <ele>8</ele>
        <time>2023-08-05T09:38:41Z</time>
      </trkpt>
      <trkpt lat="50.92784" lon="2.42327">
        <ele>8</ele>
        <time>2023-08-05T09:38:42Z</time>
      </trkpt>
      <trkpt lat="50.9278" lon="2.42328">
        <ele>8</ele>
        <time>2023-08-05T09:38:43Z</time>
      </trkpt>
      <trkpt lat="50.92776" lon="2.4233">
        <ele>8</ele>
        <time>2023-08-05T09:38:44Z</time>
      </trkpt>
      <trkpt lat="50.92772" lon="2.42331">
        <ele>8</ele>
        <time>2023-08-05T09:38:45Z</time>
      </trkpt>
      <trkpt lat="50.92768" lon="2.42332">
        <ele>8</ele>
        <time>2023-08-05T09:38:46Z</time>
      </trkpt>
      <trkpt lat="50.92764" lon="2.42333">
        <ele>8</ele>
        <time>2023-08-05T09:38:47Z</time>
      </trkpt>
      <trkpt lat="50.9276" lon="2.42335">
        <ele>8</ele>
        <time>2023-08-05T09:38:48Z</time>
      </trkpt>
      <trkpt lat="50.92755" lon="2.42336">
        <ele>8</ele>
        <time>2023-08-05T09:38:49Z</time>
      </trkpt>
      <trkpt lat="50.92751" lon="2.42337">
        <ele>8</ele>
        <time>2023-08-05T09:38:50Z</time>
      </trkpt>
      <trkpt lat="50.92747" lon="2.42338">
        <ele>8</ele>
        <time>2023-08-05T09:38:51Z</time>
      </trkpt>
      <trkpt lat="50.92723" lon="2.42344">
        <ele>7.8</ele>
        <time>2023-08-05T09:38:57Z</time>
      </trkpt>
      <trkpt lat="50.92719" lon="2.42345">
        <ele>7.8</ele>
        <time>2023-08-05T09:38:58Z</time>
      </trkpt>
      <trkpt lat="50.92715" lon="2.42347">
        <ele>7.8</ele>
        <time>2023-08-05T09:38:59Z</time>
      </trkpt>
      <trkpt lat="50.92711" lon="2.42349">
        <ele>7.8</ele>
        <time>2023-08-05T09:39:00Z</time>
      </trkpt>
      <trkpt lat="50.92699" lon="2.42357">
        <ele>7.8</ele>
        <time>2023-08-05T09:39:03Z</time>
      </trkpt>
      <trkpt lat="50.92695" lon="2.4236">
        <ele>7.8</ele>
        <time>2023-08-05T09:39:04Z</time>
      </trkpt>
      <trkpt lat="50.92668" lon="2.42379">
        <ele>7.6</ele>
        <time>2023-08-05T09:39:11Z</time>
      </trkpt>
      <trkpt lat="50.92658" lon="2.4238">
        <ele>7.4</ele>
        <time>2023-08-05T09:39:13Z</time>
      </trkpt>
      <trkpt lat="50.9264" lon="2.42377">
        <ele>7.8</ele>
        <time>2023-08-05T09:39:17Z</time>
      </trkpt>
      <trkpt lat="50.92627" lon="2.42373">
        <ele>8</ele>
        <time>2023-08-05T09:39:20Z</time>
      </trkpt>
      <trkpt lat="50.92589" lon="2.42355">
        <ele>8.6</ele>
        <time>2023-08-05T09:39:28Z</time>
      </trkpt>
      <trkpt lat="50.92562" lon="2.42343">
        <ele>9.2</ele>
        <time>2023-08-05T09:39:34Z</time>
      </trkpt>
      <trkpt lat="50.92553" lon="2.4234">
        <ele>9.4</ele>
        <time>2023-08-05T09:39:36Z</time>
      </trkpt>
      <trkpt lat="50.92539" lon="2.42336">
        <ele>9.8</ele>
        <time>2023-08-05T09:39:39Z</time>
      </trkpt>
      <trkpt lat="50.92512" lon="2.42331">
        <ele>10.4</ele>
        <time>2023-08-05T09:39:45Z</time>
      </trkpt>
      <trkpt lat="50.92507" lon="2.42331">
        <ele>10.6</ele>
        <time>2023-08-05T09:39:46Z</time>
      </trkpt>
      <trkpt lat="50.92503" lon="2.42331">
        <ele>10.6</ele>
        <time>2023-08-05T09:39:47Z</time>
      </trkpt>
      <trkpt lat="50.92495" lon="2.42329">
        <ele>10.8</ele>
        <time>2023-08-05T09:39:49Z</time>
      </trkpt>
      <trkpt lat="50.9249" lon="2.42328">
        <ele>11</ele>
        <time>2023-08-05T09:39:50Z</time>
      </trkpt>
      <trkpt lat="50.92486" lon="2.42328">
        <ele>11</ele>
        <time>2023-08-05T09:39:51Z</time>
      </trkpt>
      <trkpt lat="50.92481" lon="2.42327">
        <ele>11.2</ele>
        <time>2023-08-05T09:39:52Z</time>
      </trkpt>
      <trkpt lat="50.92477" lon="2.42327">
        <ele>11.2</ele>
        <time>2023-08-05T09:39:53Z</time>
      </trkpt>
      <trkpt lat="50.92473" lon="2.42327">
        <ele>11.2</ele>
        <time>2023-08-05T09:39:54Z</time>
      </trkpt>
      <trkpt lat="50.92437" lon="2.42323">
        <ele>12</ele>
        <time>2023-08-05T09:40:02Z</time>
      </trkpt>
      <trkpt lat="50.92432" lon="2.42322">
        <ele>12</ele>
        <time>2023-08-05T09:40:03Z</time>
      </trkpt>
      <trkpt lat="50.92392" lon="2.42317">
        <ele>12.6</ele>
        <time>2023-08-05T09:40:12Z</time>
      </trkpt>
      <trkpt lat="50.92388" lon="2.42316">
        <ele>12.6</ele>
        <time>2023-08-05T09:40:13Z</time>
      </trkpt>
      <trkpt lat="50.92384" lon="2.42315">
        <ele>12.6</ele>
        <time>2023-08-05T09:40:14Z</time>
      </trkpt>
      <trkpt lat="50.92379" lon="2.42314">
        <ele>12.8</ele>
        <time>2023-08-05T09:40:15Z</time>
      </trkpt>
      <trkpt lat="50.92375" lon="2.42313">
        <ele>12.8</ele>
        <time>2023-08-05T09:40:16Z</time>
      </trkpt>
      <trkpt lat="50.92367" lon="2.42312">
        <ele>12.8</ele>
        <time>2023-08-05T09:40:18Z</time>
      </trkpt>
      <trkpt lat="50.92354" lon="2.4231">
        <ele>13</ele>
        <time>2023-08-05T09:40:21Z</time>
      </trkpt>
      <trkpt lat="50.92346" lon="2.42309">
        <ele>13</ele>
        <time>2023-08-05T09:40:23Z</time>
      </trkpt>
      <trkpt lat="50.92341" lon="2.42308">
        <ele>13</ele>
        <time>2023-08-05T09:40:24Z</time>
      </trkpt>
      <trkpt lat="50.92328" lon="2.42306">
        <ele>13.2</ele>
        <time>2023-08-05T09:40:27Z</time>
      </trkpt>
      <trkpt lat="50.9232" lon="2.42304">
        <ele>13.2</ele>
        <time>2023-08-05T09:40:29Z</time>
      </trkpt>
      <trkpt lat="50.92304" lon="2.42298">
        <ele>13.2</ele>
        <time>2023-08-05T09:40:33Z</time>
      </trkpt>
      <trkpt lat="50.92301" lon="2.42296">
        <ele>13.2</ele>
        <time>2023-08-05T09:40:34Z</time>
      </trkpt>
      <trkpt lat="50.92297" lon="2.42293">
        <ele>13.2</ele>
        <time>2023-08-05T09:40:35Z</time>
      </trkpt>
      <trkpt lat="50.92293" lon="2.42291">
        <ele>13.2</ele>
        <time>2023-08-05T09:40:36Z</time>
      </trkpt>
      <trkpt lat="50.9229" lon="2.42288">
        <ele>13.2</ele>
        <time>2023-08-05T09:40:37Z</time>
      </trkpt>
      <trkpt lat="50.92281" lon="2.4228">
        <ele>13.4</ele>
        <time>2023-08-05T09:40:40Z</time>
      </trkpt>
      <trkpt lat="50.92278" lon="2.42277">
        <ele>13.4</ele>
        <time>2023-08-05T09:40:41Z</time>
      </trkpt>
      <trkpt lat="50.92276" lon="2.42274">
        <ele>13.4</ele>
        <time>2023-08-05T09:40:42Z</time>
      </trkpt>
      <trkpt lat="50.92273" lon="2.42271">
        <ele>13.4</ele>
        <time>2023-08-05T09:40:43Z</time>
      </trkpt>
      <trkpt lat="50.9227" lon="2.42267">
        <ele>13.4</ele>
        <time>2023-08-05T09:40:44Z</time>
      </trkpt>
      <trkpt lat="50.92268" lon="2.42263">
        <ele>13.4</ele>
        <time>2023-08-05T09:40:45Z</time>
      </trkpt>
      <trkpt lat="50.92265" lon="2.42259">
        <ele>13.4</ele>
        <time>2023-08-05T09:40:46Z</time>
      </trkpt>
      <trkpt lat="50.92262" lon="2.42255">
        <ele>13.4</ele>
        <time>2023-08-05T09:40:47Z</time>
      </trkpt>
      <trkpt lat="50.9226" lon="2.42252">
        <ele>13.6</ele>
        <time>2023-08-05T09:40:48Z</time>
      </trkpt>
      <trkpt lat="50.92257" lon="2.42248">
        <ele>13.6</ele>
        <time>2023-08-05T09:40:49Z</time>
      </trkpt>
      <trkpt lat="50.92251" lon="2.42242">
        <ele>13.6</ele>
        <time>2023-08-05T09:40:51Z</time>
      </trkpt>
      <trkpt lat="50.92222" lon="2.42216">
        <ele>13.4</ele>
        <time>2023-08-05T09:41:00Z</time>
      </trkpt>
      <trkpt lat="50.92183" lon="2.42188">
        <ele>13.2</ele>
        <time>2023-08-05T09:41:12Z</time>
      </trkpt>
      <trkpt lat="50.92147" lon="2.42158">
        <ele>12.8</ele>
        <time>2023-08-05T09:41:23Z</time>
      </trkpt>
      <trkpt lat="50.92109" lon="2.4213">
        <ele>12.4</ele>
        <time>2023-08-05T09:41:34Z</time>
      </trkpt>
      <trkpt lat="50.92098" lon="2.42124">
        <ele>12.2</ele>
        <time>2023-08-05T09:41:37Z</time>
      </trkpt>
      <trkpt lat="50.9208" lon="2.42114">
        <ele>12</ele>
        <time>2023-08-05T09:41:42Z</time>
      </trkpt>
      <trkpt lat="50.92062" lon="2.42108">
        <ele>11.8</ele>
        <time>2023-08-05T09:41:47Z</time>
      </trkpt>
      <trkpt lat="50.92054" lon="2.42106">
        <ele>11.6</ele>
        <time>2023-08-05T09:41:49Z</time>
      </trkpt>
      <trkpt lat="50.92051" lon="2.42105">
        <ele>11.6</ele>
        <time>2023-08-05T09:41:50Z</time>
      </trkpt>
      <trkpt lat="50.9204" lon="2.42102">
        <ele>11.4</ele>
        <time>2023-08-05T09:41:53Z</time>
      </trkpt>
      <trkpt lat="50.92032" lon="2.421">
        <ele>11.2</ele>
        <time>2023-08-05T09:41:55Z</time>
      </trkpt>
      <trkpt lat="50.92022" lon="2.42098">
        <ele>11</ele>
        <time>2023-08-05T09:41:58Z</time>
      </trkpt>
      <trkpt lat="50.92011" lon="2.42095">
        <ele>11</ele>
        <time>2023-08-05T09:42:01Z</time>
      </trkpt>
      <trkpt lat="50.92008" lon="2.42094">
        <ele>11</ele>
        <time>2023-08-05T09:42:02Z</time>
      </trkpt>
      <trkpt lat="50.92004" lon="2.42093">
        <ele>10.8</ele>
        <time>2023-08-05T09:42:03Z</time>
      </trkpt>
      <trkpt lat="50.92" lon="2.42091">
        <ele>10.8</ele>
        <time>2023-08-05T09:42:04Z</time>
      </trkpt>
      <trkpt lat="50.91975" lon="2.42084">
        <ele>10.6</ele>
        <time>2023-08-05T09:42:11Z</time>
      </trkpt>
      <trkpt lat="50.91952" lon="2.42078">
        <ele>10.4</ele>
        <time>2023-08-05T09:42:17Z</time>
      </trkpt>
      <trkpt lat="50.9194" lon="2.42075">
        <ele>10.2</ele>
        <time>2023-08-05T09:42:20Z</time>
      </trkpt>
      <trkpt lat="50.91906" lon="2.42062">
        <ele>9.8</ele>
        <time>2023-08-05T09:42:29Z</time>
      </trkpt>
      <trkpt lat="50.91889" lon="2.42052">
        <ele>9.6</ele>
        <time>2023-08-05T09:42:34Z</time>
      </trkpt>
      <trkpt lat="50.91882" lon="2.42047">
        <ele>9.4</ele>
        <time>2023-08-05T09:42:36Z</time>
      </trkpt>
      <trkpt lat="50.91878" lon="2.42045">
        <ele>9.4</ele>
        <time>2023-08-05T09:42:37Z</time>
      </trkpt>
      <trkpt lat="50.91875" lon="2.42042">
        <ele>9.4</ele>
        <time>2023-08-05T09:42:38Z</time>
      </trkpt>
      <trkpt lat="50.91872" lon="2.4204">
        <ele>9.2</ele>
        <time>2023-08-05T09:42:39Z</time>
      </trkpt>
      <trkpt lat="50.91868" lon="2.42038">
        <ele>9.2</ele>
        <time>2023-08-05T09:42:40Z</time>
      </trkpt>
      <trkpt lat="50.91865" lon="2.42036">
        <ele>9.2</ele>
        <time>2023-08-05T09:42:41Z</time>
      </trkpt>
      <trkpt lat="50.91861" lon="2.42034">
        <ele>9.2</ele>
        <time>2023-08-05T09:42:42Z</time>
      </trkpt>
      <trkpt lat="50.91855" lon="2.42031">
        <ele>9.2</ele>
        <time>2023-08-05T09:42:44Z</time>
      </trkpt>
      <trkpt lat="50.91852" lon="2.42029">
        <ele>9.2</ele>
        <time>2023-08-05T09:42:45Z</time>
      </trkpt>
      <trkpt lat="50.91837" lon="2.42025">
        <ele>8.6</ele>
        <time>2023-08-05T09:42:49Z</time>
      </trkpt>
      <trkpt lat="50.91819" lon="2.42025">
        <ele>8.6</ele>
        <time>2023-08-05T09:42:54Z</time>
      </trkpt>
      <trkpt lat="50.91815" lon="2.42026">
        <ele>8.6</ele>
        <time>2023-08-05T09:42:55Z</time>
      </trkpt>
      <trkpt lat="50.91808" lon="2.42028">
        <ele>8.6</ele>
        <time>2023-08-05T09:42:57Z</time>
      </trkpt>
      <trkpt lat="50.91805" lon="2.42029">
        <ele>8.6</ele>
        <time>2023-08-05T09:42:58Z</time>
      </trkpt>
      <trkpt lat="50.91802" lon="2.4203">
        <ele>8.6</ele>
        <time>2023-08-05T09:42:59Z</time>
      </trkpt>
      <trkpt lat="50.91795" lon="2.42033">
        <ele>8.6</ele>
        <time>2023-08-05T09:43:01Z</time>
      </trkpt>
      <trkpt lat="50.91791" lon="2.42034">
        <ele>8.6</ele>
        <time>2023-08-05T09:43:02Z</time>
      </trkpt>
      <trkpt lat="50.91788" lon="2.42035">
        <ele>8.6</ele>
        <time>2023-08-05T09:43:03Z</time>
      </trkpt>
      <trkpt lat="50.91785" lon="2.42036">
        <ele>8.4</ele>
        <time>2023-08-05T09:43:04Z</time>
      </trkpt>
      <trkpt lat="50.91781" lon="2.42038">
        <ele>8.4</ele>
        <time>2023-08-05T09:43:05Z</time>
      </trkpt>
      <trkpt lat="50.91778" lon="2.42039">
        <ele>8.4</ele>
        <time>2023-08-05T09:43:06Z</time>
      </trkpt>
      <trkpt lat="50.91775" lon="2.4204">
        <ele>8.4</ele>
        <time>2023-08-05T09:43:07Z</time>
      </trkpt>
      <trkpt lat="50.91768" lon="2.42042">
        <ele>8.6</ele>
        <time>2023-08-05T09:43:09Z</time>
      </trkpt>
      <trkpt lat="50.91765" lon="2.42043">
        <ele>8.6</ele>
        <time>2023-08-05T09:43:10Z</time>
      </trkpt>
      <trkpt lat="50.91762" lon="2.42044">
        <ele>8.6</ele>
        <time>2023-08-05T09:43:11Z</time>
      </trkpt>
      <trkpt lat="50.91749" lon="2.42046">
        <ele>8.4</ele>
        <time>2023-08-05T09:43:15Z</time>
      </trkpt>
      <trkpt lat="50.91745" lon="2.42046">
        <ele>8.4</ele>
        <time>2023-08-05T09:43:16Z</time>
      </trkpt>
      <trkpt lat="50.91742" lon="2.42046">
        <ele>8.4</ele>
        <time>2023-08-05T09:43:17Z</time>
      </trkpt>
      <trkpt lat="50.91739" lon="2.42046">
        <ele>8.4</ele>
        <time>2023-08-05T09:43:18Z</time>
      </trkpt>
      <trkpt lat="50.91736" lon="2.42045">
        <ele>8.2</ele>
        <time>2023-08-05T09:43:19Z</time>
      </trkpt>
      <trkpt lat="50.91726" lon="2.42043">
        <ele>8.2</ele>
        <time>2023-08-05T09:43:22Z</time>
      </trkpt>
      <trkpt lat="50.91722" lon="2.42042">
        <ele>8.2</ele>
        <time>2023-08-05T09:43:23Z</time>
      </trkpt>
      <trkpt lat="50.9171" lon="2.42037">
        <ele>8.2</ele>
        <time>2023-08-05T09:43:27Z</time>
      </trkpt>
      <trkpt lat="50.91701" lon="2.42032">
        <ele>8.2</ele>
        <time>2023-08-05T09:43:30Z</time>
      </trkpt>
      <trkpt lat="50.9169" lon="2.42026">
        <ele>8</ele>
        <time>2023-08-05T09:43:34Z</time>
      </trkpt>
      <trkpt lat="50.91687" lon="2.42025">
        <ele>8</ele>
        <time>2023-08-05T09:43:35Z</time>
      </trkpt>
      <trkpt lat="50.91684" lon="2.42023">
        <ele>8</ele>
        <time>2023-08-05T09:43:36Z</time>
      </trkpt>
      <trkpt lat="50.91672" lon="2.42017">
        <ele>8</ele>
        <time>2023-08-05T09:43:40Z</time>
      </trkpt>
      <trkpt lat="50.91648" lon="2.42004">
        <ele>7.6</ele>
        <time>2023-08-05T09:43:48Z</time>
      </trkpt>
      <trkpt lat="50.91623" lon="2.41991">
        <ele>7.4</ele>
        <time>2023-08-05T09:43:56Z</time>
      </trkpt>
      <trkpt lat="50.91594" lon="2.41979">
        <ele>7</ele>
        <time>2023-08-05T09:44:05Z</time>
      </trkpt>
      <trkpt lat="50.91591" lon="2.41979">
        <ele>6.8</ele>
        <time>2023-08-05T09:44:06Z</time>
      </trkpt>
      <trkpt lat="50.91572" lon="2.41986">
        <ele>7</ele>
        <time>2023-08-05T09:44:12Z</time>
      </trkpt>
      <trkpt lat="50.91569" lon="2.41987">
        <ele>7</ele>
        <time>2023-08-05T09:44:13Z</time>
      </trkpt>
      <trkpt lat="50.91566" lon="2.41989">
        <ele>7</ele>
        <time>2023-08-05T09:44:14Z</time>
      </trkpt>
      <trkpt lat="50.91563" lon="2.41991">
        <ele>7</ele>
        <time>2023-08-05T09:44:15Z</time>
      </trkpt>
      <trkpt lat="50.9156" lon="2.41992">
        <ele>7</ele>
        <time>2023-08-05T09:44:16Z</time>
      </trkpt>
      <trkpt lat="50.91557" lon="2.41993">
        <ele>7</ele>
        <time>2023-08-05T09:44:17Z</time>
      </trkpt>
      <trkpt lat="50.91548" lon="2.41998">
        <ele>7.2</ele>
        <time>2023-08-05T09:44:20Z</time>
      </trkpt>
      <trkpt lat="50.91519" lon="2.42007">
        <ele>6.8</ele>
        <time>2023-08-05T09:44:29Z</time>
      </trkpt>
      <trkpt lat="50.91516" lon="2.42008">
        <ele>6.8</ele>
        <time>2023-08-05T09:44:30Z</time>
      </trkpt>
      <trkpt lat="50.9151" lon="2.4201">
        <ele>6.8</ele>
        <time>2023-08-05T09:44:32Z</time>
      </trkpt>
      <trkpt lat="50.91507" lon="2.42011">
        <ele>6.8</ele>
        <time>2023-08-05T09:44:33Z</time>
      </trkpt>
      <trkpt lat="50.91501" lon="2.42014">
        <ele>7</ele>
        <time>2023-08-05T09:44:35Z</time>
      </trkpt>
      <trkpt lat="50.91497" lon="2.42015">
        <ele>7</ele>
        <time>2023-08-05T09:44:36Z</time>
      </trkpt>
      <trkpt lat="50.91482" lon="2.42021">
        <ele>7.2</ele>
        <time>2023-08-05T09:44:41Z</time>
      </trkpt>
      <trkpt lat="50.91456" lon="2.42028">
        <ele>7.4</ele>
        <time>2023-08-05T09:44:49Z</time>
      </trkpt>
      <trkpt lat="50.9144" lon="2.42024">
        <ele>8.4</ele>
        <time>2023-08-05T09:44:54Z</time>
      </trkpt>
      <trkpt lat="50.91437" lon="2.42023">
        <ele>10.2</ele>
        <time>2023-08-05T09:44:55Z</time>
      </trkpt>
      <trkpt lat="50.91433" lon="2.42022">
        <ele>12.2</ele>
        <time>2023-08-05T09:44:56Z</time>
      </trkpt>
      <trkpt lat="50.9143" lon="2.4202">
        <ele>17.4</ele>
        <time>2023-08-05T09:44:57Z</time>
      </trkpt>
      <trkpt lat="50.91427" lon="2.42019">
        <ele>19</ele>
        <time>2023-08-05T09:44:58Z</time>
      </trkpt>
      <trkpt lat="50.91423" lon="2.42017">
        <ele>20.8</ele>
        <time>2023-08-05T09:44:59Z</time>
      </trkpt>
      <trkpt lat="50.9142" lon="2.42016">
        <ele>21.2</ele>
        <time>2023-08-05T09:45:00Z</time>
      </trkpt>
      <trkpt lat="50.91417" lon="2.42014">
        <ele>21.8</ele>
        <time>2023-08-05T09:45:01Z</time>
      </trkpt>
      <trkpt lat="50.91414" lon="2.42013">
        <ele>22</ele>
        <time>2023-08-05T09:45:02Z</time>
      </trkpt>
      <trkpt lat="50.9141" lon="2.42011">
        <ele>22.2</ele>
        <time>2023-08-05T09:45:03Z</time>
      </trkpt>
      <trkpt lat="50.91407" lon="2.42009">
        <ele>22.2</ele>
        <time>2023-08-05T09:45:04Z</time>
      </trkpt>
      <trkpt lat="50.91403" lon="2.42008">
        <ele>22.2</ele>
        <time>2023-08-05T09:45:05Z</time>
      </trkpt>
      <trkpt lat="50.914" lon="2.42006">
        <ele>22</ele>
        <time>2023-08-05T09:45:06Z</time>
      </trkpt>
      <trkpt lat="50.91396" lon="2.42004">
        <ele>22</ele>
        <time>2023-08-05T09:45:07Z</time>
      </trkpt>
      <trkpt lat="50.91392" lon="2.42003">
        <ele>21.8</ele>
        <time>2023-08-05T09:45:08Z</time>
      </trkpt>
      <trkpt lat="50.91389" lon="2.42001">
        <ele>21.8</ele>
        <time>2023-08-05T09:45:09Z</time>
      </trkpt>
      <trkpt lat="50.91385" lon="2.41999">
        <ele>21.8</ele>
        <time>2023-08-05T09:45:10Z</time>
      </trkpt>
      <trkpt lat="50.91381" lon="2.41998">
        <ele>21.8</ele>
        <time>2023-08-05T09:45:11Z</time>
      </trkpt>
      <trkpt lat="50.91377" lon="2.41997">
        <ele>21.8</ele>
        <time>2023-08-05T09:45:12Z</time>
      </trkpt>
      <trkpt lat="50.91374" lon="2.41995">
        <ele>21.6</ele>
        <time>2023-08-05T09:45:13Z</time>
      </trkpt>
      <trkpt lat="50.9137" lon="2.41993">
        <ele>21.6</ele>
        <time>2023-08-05T09:45:14Z</time>
      </trkpt>
      <trkpt lat="50.91366" lon="2.41991">
        <ele>21.6</ele>
        <time>2023-08-05T09:45:15Z</time>
      </trkpt>
      <trkpt lat="50.91363" lon="2.41989">
        <ele>21.6</ele>
        <time>2023-08-05T09:45:16Z</time>
      </trkpt>
      <trkpt lat="50.9136" lon="2.41987">
        <ele>21.6</ele>
        <time>2023-08-05T09:45:17Z</time>
      </trkpt>
      <trkpt lat="50.91356" lon="2.41986">
        <ele>21.6</ele>
        <time>2023-08-05T09:45:18Z</time>
      </trkpt>
      <trkpt lat="50.91352" lon="2.41984">
        <ele>21.6</ele>
        <time>2023-08-05T09:45:19Z</time>
      </trkpt>
      <trkpt lat="50.91349" lon="2.41983">
        <ele>21.6</ele>
        <time>2023-08-05T09:45:20Z</time>
      </trkpt>
      <trkpt lat="50.91346" lon="2.41981">
        <ele>21.6</ele>
        <time>2023-08-05T09:45:21Z</time>
      </trkpt>
      <trkpt lat="50.91342" lon="2.41979">
        <ele>21.6</ele>
        <time>2023-08-05T09:45:22Z</time>
      </trkpt>
      <trkpt lat="50.91339" lon="2.41978">
        <ele>21.6</ele>
        <time>2023-08-05T09:45:23Z</time>
      </trkpt>
      <trkpt lat="50.91335" lon="2.41977">
        <ele>21.6</ele>
        <time>2023-08-05T09:45:24Z</time>
      </trkpt>
      <trkpt lat="50.91331" lon="2.41976">
        <ele>21.6</ele>
        <time>2023-08-05T09:45:25Z</time>
      </trkpt>
      <trkpt lat="50.91328" lon="2.41975">
        <ele>21.4</ele>
        <time>2023-08-05T09:45:26Z</time>
      </trkpt>
      <trkpt lat="50.91324" lon="2.41975">
        <ele>21.4</ele>
        <time>2023-08-05T09:45:27Z</time>
      </trkpt>
      <trkpt lat="50.9132" lon="2.41975">
        <ele>21.4</ele>
        <time>2023-08-05T09:45:28Z</time>
      </trkpt>
      <trkpt lat="50.91317" lon="2.41976">
        <ele>21.4</ele>
        <time>2023-08-05T09:45:29Z</time>
      </trkpt>
      <trkpt lat="50.91313" lon="2.41976">
        <ele>21.4</ele>
        <time>2023-08-05T09:45:30Z</time>
      </trkpt>
      <trkpt lat="50.91309" lon="2.41977">
        <ele>21.4</ele>
        <time>2023-08-05T09:45:31Z</time>
      </trkpt>
      <trkpt lat="50.91305" lon="2.41978">
        <ele>21.4</ele>
        <time>2023-08-05T09:45:32Z</time>
      </trkpt>
      <trkpt lat="50.91302" lon="2.41979">
        <ele>21.4</ele>
        <time>2023-08-05T09:45:33Z</time>
      </trkpt>
      <trkpt lat="50.91271" lon="2.41983">
        <ele>21</ele>
        <time>2023-08-05T09:45:41Z</time>
      </trkpt>
      <trkpt lat="50.91244" lon="2.41988">
        <ele>21</ele>
        <time>2023-08-05T09:45:48Z</time>
      </trkpt>
      <trkpt lat="50.9124" lon="2.41988">
        <ele>21</ele>
        <time>2023-08-05T09:45:49Z</time>
      </trkpt>
      <trkpt lat="50.91228" lon="2.4199">
        <ele>21</ele>
        <time>2023-08-05T09:45:52Z</time>
      </trkpt>
      <trkpt lat="50.91205" lon="2.41992">
        <ele>21</ele>
        <time>2023-08-05T09:45:58Z</time>
      </trkpt>
      <trkpt lat="50.91202" lon="2.41991">
        <ele>21</ele>
        <time>2023-08-05T09:45:59Z</time>
      </trkpt>
      <trkpt lat="50.91199" lon="2.41991">
        <ele>21</ele>
        <time>2023-08-05T09:46:00Z</time>
      </trkpt>
      <trkpt lat="50.91194" lon="2.41991">
        <ele>21.2</ele>
        <time>2023-08-05T09:46:01Z</time>
      </trkpt>
      <trkpt lat="50.9119" lon="2.41991">
        <ele>21.2</ele>
        <time>2023-08-05T09:46:02Z</time>
      </trkpt>
      <trkpt lat="50.91188" lon="2.41991">
        <ele>21.2</ele>
        <time>2023-08-05T09:46:03Z</time>
      </trkpt>
      <trkpt lat="50.91185" lon="2.4199">
        <ele>21.2</ele>
        <time>2023-08-05T09:46:04Z</time>
      </trkpt>
      <trkpt lat="50.91182" lon="2.41989">
        <ele>21.2</ele>
        <time>2023-08-05T09:46:05Z</time>
      </trkpt>
      <trkpt lat="50.91179" lon="2.41988">
        <ele>21.2</ele>
        <time>2023-08-05T09:46:06Z</time>
      </trkpt>
      <trkpt lat="50.91175" lon="2.41985">
        <ele>21</ele>
        <time>2023-08-05T09:46:07Z</time>
      </trkpt>
      <trkpt lat="50.91172" lon="2.41984">
        <ele>21</ele>
        <time>2023-08-05T09:46:08Z</time>
      </trkpt>
      <trkpt lat="50.91169" lon="2.41981">
        <ele>21</ele>
        <time>2023-08-05T09:46:09Z</time>
      </trkpt>
      <trkpt lat="50.91166" lon="2.41979">
        <ele>21</ele>
        <time>2023-08-05T09:46:10Z</time>
      </trkpt>
      <trkpt lat="50.91163" lon="2.41976">
        <ele>21</ele>
        <time>2023-08-05T09:46:11Z</time>
      </trkpt>
      <trkpt lat="50.91145" lon="2.41954">
        <ele>21</ele>
        <time>2023-08-05T09:46:17Z</time>
      </trkpt>
      <trkpt lat="50.91124" lon="2.41927">
        <ele>20.8</ele>
        <time>2023-08-05T09:46:24Z</time>
      </trkpt>
      <trkpt lat="50.91117" lon="2.41919">
        <ele>20.8</ele>
        <time>2023-08-05T09:46:26Z</time>
      </trkpt>
      <trkpt lat="50.91101" lon="2.41908">
        <ele>20.6</ele>
        <time>2023-08-05T09:46:30Z</time>
      </trkpt>
      <trkpt lat="50.91092" lon="2.41907">
        <ele>20.6</ele>
        <time>2023-08-05T09:46:32Z</time>
      </trkpt>
      <trkpt lat="50.91055" lon="2.41917">
        <ele>20.4</ele>
        <time>2023-08-05T09:46:40Z</time>
      </trkpt>
      <trkpt lat="50.91012" lon="2.41933">
        <ele>20</ele>
        <time>2023-08-05T09:46:49Z</time>
      </trkpt>
      <trkpt lat="50.90973" lon="2.41944">
        <ele>20</ele>
        <time>2023-08-05T09:46:57Z</time>
      </trkpt>
      <trkpt lat="50.90933" lon="2.41939">
        <ele>20</ele>
        <time>2023-08-05T09:47:05Z</time>
      </trkpt>
      <trkpt lat="50.90898" lon="2.41922">
        <ele>19.8</ele>
        <time>2023-08-05T09:47:12Z</time>
      </trkpt>
      <trkpt lat="50.90893" lon="2.4192">
        <ele>19.8</ele>
        <time>2023-08-05T09:47:13Z</time>
      </trkpt>
      <trkpt lat="50.90878" lon="2.41915">
        <ele>19.6</ele>
        <time>2023-08-05T09:47:16Z</time>
      </trkpt>
      <trkpt lat="50.90874" lon="2.41914">
        <ele>19.6</ele>
        <time>2023-08-05T09:47:17Z</time>
      </trkpt>
      <trkpt lat="50.90869" lon="2.41913">
        <ele>19.6</ele>
        <time>2023-08-05T09:47:18Z</time>
      </trkpt>
      <trkpt lat="50.90865" lon="2.41912">
        <ele>19.6</ele>
        <time>2023-08-05T09:47:19Z</time>
      </trkpt>
      <trkpt lat="50.9086" lon="2.41911">
        <ele>19.4</ele>
        <time>2023-08-05T09:47:20Z</time>
      </trkpt>
      <trkpt lat="50.90855" lon="2.4191">
        <ele>19.4</ele>
        <time>2023-08-05T09:47:21Z</time>
      </trkpt>
      <trkpt lat="50.90851" lon="2.41908">
        <ele>19.4</ele>
        <time>2023-08-05T09:47:22Z</time>
      </trkpt>
      <trkpt lat="50.90827" lon="2.41898">
        <ele>19.4</ele>
        <time>2023-08-05T09:47:27Z</time>
      </trkpt>
      <trkpt lat="50.90773" lon="2.41866">
        <ele>19.2</ele>
        <time>2023-08-05T09:47:38Z</time>
      </trkpt>
      <trkpt lat="50.90731" lon="2.41833">
        <ele>19.2</ele>
        <time>2023-08-05T09:47:46Z</time>
      </trkpt>
      <trkpt lat="50.90699" lon="2.41812">
        <ele>19</ele>
        <time>2023-08-05T09:47:52Z</time>
      </trkpt>
      <trkpt lat="50.90694" lon="2.4181">
        <ele>19</ele>
        <time>2023-08-05T09:47:53Z</time>
      </trkpt>
      <trkpt lat="50.90679" lon="2.41806">
        <ele>19</ele>
        <time>2023-08-05T09:47:56Z</time>
      </trkpt>
      <trkpt lat="50.90675" lon="2.41804">
        <ele>18.8</ele>
        <time>2023-08-05T09:47:57Z</time>
      </trkpt>
      <trkpt lat="50.90672" lon="2.41803">
        <ele>18.8</ele>
        <time>2023-08-05T09:47:58Z</time>
      </trkpt>
      <trkpt lat="50.90668" lon="2.41801">
        <ele>18.8</ele>
        <time>2023-08-05T09:47:59Z</time>
      </trkpt>
      <trkpt lat="50.90664" lon="2.418">
        <ele>18.8</ele>
        <time>2023-08-05T09:48:00Z</time>
      </trkpt>
      <trkpt lat="50.9066" lon="2.41799">
        <ele>18.6</ele>
        <time>2023-08-05T09:48:01Z</time>
      </trkpt>
      <trkpt lat="50.90653" lon="2.41796">
        <ele>18.6</ele>
        <time>2023-08-05T09:48:03Z</time>
      </trkpt>
      <trkpt lat="50.90649" lon="2.41794">
        <ele>18.6</ele>
        <time>2023-08-05T09:48:04Z</time>
      </trkpt>
      <trkpt lat="50.90645" lon="2.41793">
        <ele>18.6</ele>
        <time>2023-08-05T09:48:05Z</time>
      </trkpt>
      <trkpt lat="50.90606" lon="2.41782">
        <ele>18.4</ele>
        <time>2023-08-05T09:48:14Z</time>
      </trkpt>
      <trkpt lat="50.90573" lon="2.41769">
        <ele>18</ele>
        <time>2023-08-05T09:48:22Z</time>
      </trkpt>
      <trkpt lat="50.9054" lon="2.41755">
        <ele>17.6</ele>
        <time>2023-08-05T09:48:29Z</time>
      </trkpt>
      <trkpt lat="50.9053" lon="2.4175">
        <ele>17.6</ele>
        <time>2023-08-05T09:48:31Z</time>
      </trkpt>
      <trkpt lat="50.90495" lon="2.41734">
        <ele>17.6</ele>
        <time>2023-08-05T09:48:38Z</time>
      </trkpt>
      <trkpt lat="50.90451" lon="2.41715">
        <ele>17.2</ele>
        <time>2023-08-05T09:48:46Z</time>
      </trkpt>
      <trkpt lat="50.90408" lon="2.41695">
        <ele>17.2</ele>
        <time>2023-08-05T09:48:54Z</time>
      </trkpt>
      <trkpt lat="50.90397" lon="2.4169">
        <ele>17</ele>
        <time>2023-08-05T09:48:56Z</time>
      </trkpt>
      <trkpt lat="50.90392" lon="2.41687">
        <ele>17</ele>
        <time>2023-08-05T09:48:57Z</time>
      </trkpt>
      <trkpt lat="50.90388" lon="2.41685">
        <ele>17</ele>
        <time>2023-08-05T09:48:58Z</time>
      </trkpt>
      <trkpt lat="50.90383" lon="2.41683">
        <ele>16.8</ele>
        <time>2023-08-05T09:48:59Z</time>
      </trkpt>
      <trkpt lat="50.90377" lon="2.4168">
        <ele>16.8</ele>
        <time>2023-08-05T09:49:00Z</time>
      </trkpt>
      <trkpt lat="50.90373" lon="2.41678">
        <ele>16.8</ele>
        <time>2023-08-05T09:49:01Z</time>
      </trkpt>
      <trkpt lat="50.90369" lon="2.41676">
        <ele>16.8</ele>
        <time>2023-08-05T09:49:02Z</time>
      </trkpt>
      <trkpt lat="50.90364" lon="2.41673">
        <ele>16.8</ele>
        <time>2023-08-05T09:49:03Z</time>
      </trkpt>
      <trkpt lat="50.90359" lon="2.41671">
        <ele>16.8</ele>
        <time>2023-08-05T09:49:04Z</time>
      </trkpt>
      <trkpt lat="50.90354" lon="2.41668">
        <ele>16.8</ele>
        <time>2023-08-05T09:49:05Z</time>
      </trkpt>
      <trkpt lat="50.90349" lon="2.41666">
        <ele>16.6</ele>
        <time>2023-08-05T09:49:06Z</time>
      </trkpt>
      <trkpt lat="50.90312" lon="2.41647">
        <ele>16.6</ele>
        <time>2023-08-05T09:49:13Z</time>
      </trkpt>
      <trkpt lat="50.90275" lon="2.41631">
        <ele>16.4</ele>
        <time>2023-08-05T09:49:20Z</time>
      </trkpt>
      <trkpt lat="50.9027" lon="2.41629">
        <ele>16.4</ele>
        <time>2023-08-05T09:49:21Z</time>
      </trkpt>
      <trkpt lat="50.90265" lon="2.41627">
        <ele>16.4</ele>
        <time>2023-08-05T09:49:22Z</time>
      </trkpt>
      <trkpt lat="50.9026" lon="2.41625">
        <ele>16.4</ele>
        <time>2023-08-05T09:49:23Z</time>
      </trkpt>
      <trkpt lat="50.9025" lon="2.41621">
        <ele>16.4</ele>
        <time>2023-08-05T09:49:25Z</time>
      </trkpt>
      <trkpt lat="50.90244" lon="2.41619">
        <ele>16.4</ele>
        <time>2023-08-05T09:49:26Z</time>
      </trkpt>
      <trkpt lat="50.90224" lon="2.41611">
        <ele>16.2</ele>
        <time>2023-08-05T09:49:30Z</time>
      </trkpt>
      <trkpt lat="50.90219" lon="2.4161">
        <ele>16.2</ele>
        <time>2023-08-05T09:49:31Z</time>
      </trkpt>
      <trkpt lat="50.90214" lon="2.41608">
        <ele>16.2</ele>
        <time>2023-08-05T09:49:32Z</time>
      </trkpt>
      <trkpt lat="50.90209" lon="2.41607">
        <ele>16.2</ele>
        <time>2023-08-05T09:49:33Z</time>
      </trkpt>
      <trkpt lat="50.90204" lon="2.41605">
        <ele>16.2</ele>
        <time>2023-08-05T09:49:34Z</time>
      </trkpt>
      <trkpt lat="50.90167" lon="2.41591">
        <ele>16</ele>
        <time>2023-08-05T09:49:41Z</time>
      </trkpt>
      <trkpt lat="50.9012" lon="2.4157">
        <ele>15.8</ele>
        <time>2023-08-05T09:49:50Z</time>
      </trkpt>
      <trkpt lat="50.90067" lon="2.41544">
        <ele>15.6</ele>
        <time>2023-08-05T09:50:00Z</time>
      </trkpt>
      <trkpt lat="50.90037" lon="2.41531">
        <ele>15.6</ele>
        <time>2023-08-05T09:50:06Z</time>
      </trkpt>
      <trkpt lat="50.90031" lon="2.4153">
        <ele>15.6</ele>
        <time>2023-08-05T09:50:07Z</time>
      </trkpt>
      <trkpt lat="50.90021" lon="2.41527">
        <ele>15.4</ele>
        <time>2023-08-05T09:50:09Z</time>
      </trkpt>
      <trkpt lat="50.90016" lon="2.41526">
        <ele>15.4</ele>
        <time>2023-08-05T09:50:10Z</time>
      </trkpt>
      <trkpt lat="50.9001" lon="2.41525">
        <ele>15.4</ele>
        <time>2023-08-05T09:50:11Z</time>
      </trkpt>
      <trkpt lat="50.90005" lon="2.41524">
        <ele>15.4</ele>
        <time>2023-08-05T09:50:12Z</time>
      </trkpt>
      <trkpt lat="50.89996" lon="2.41522">
        <ele>15.2</ele>
        <time>2023-08-05T09:50:14Z</time>
      </trkpt>
      <trkpt lat="50.89991" lon="2.41521">
        <ele>15.2</ele>
        <time>2023-08-05T09:50:15Z</time>
      </trkpt>
      <trkpt lat="50.89987" lon="2.4152">
        <ele>15.2</ele>
        <time>2023-08-05T09:50:16Z</time>
      </trkpt>
      <trkpt lat="50.89982" lon="2.41519">
        <ele>15</ele>
        <time>2023-08-05T09:50:17Z</time>
      </trkpt>
      <trkpt lat="50.89977" lon="2.41518">
        <ele>14.8</ele>
        <time>2023-08-05T09:50:18Z</time>
      </trkpt>
      <trkpt lat="50.89973" lon="2.41517">
        <ele>14.6</ele>
        <time>2023-08-05T09:50:19Z</time>
      </trkpt>
      <trkpt lat="50.89969" lon="2.41516">
        <ele>14.4</ele>
        <time>2023-08-05T09:50:20Z</time>
      </trkpt>
      <trkpt lat="50.89965" lon="2.41515">
        <ele>14.4</ele>
        <time>2023-08-05T09:50:21Z</time>
      </trkpt>
      <trkpt lat="50.89961" lon="2.41514">
        <ele>14</ele>
        <time>2023-08-05T09:50:22Z</time>
      </trkpt>
      <trkpt lat="50.89957" lon="2.41513">
        <ele>14</ele>
        <time>2023-08-05T09:50:23Z</time>
      </trkpt>
      <trkpt lat="50.89953" lon="2.41511">
        <ele>14</ele>
        <time>2023-08-05T09:50:24Z</time>
      </trkpt>
      <trkpt lat="50.89949" lon="2.4151">
        <ele>13.8</ele>
        <time>2023-08-05T09:50:25Z</time>
      </trkpt>
      <trkpt lat="50.89945" lon="2.41509">
        <ele>13.8</ele>
        <time>2023-08-05T09:50:26Z</time>
      </trkpt>
      <trkpt lat="50.89941" lon="2.41509">
        <ele>13.8</ele>
        <time>2023-08-05T09:50:27Z</time>
      </trkpt>
      <trkpt lat="50.89938" lon="2.41508">
        <ele>13.4</ele>
        <time>2023-08-05T09:50:28Z</time>
      </trkpt>
      <trkpt lat="50.89935" lon="2.41507">
        <ele>13.4</ele>
        <time>2023-08-05T09:50:29Z</time>
      </trkpt>
      <trkpt lat="50.89931" lon="2.41506">
        <ele>13.2</ele>
        <time>2023-08-05T09:50:30Z</time>
      </trkpt>
      <trkpt lat="50.89928" lon="2.41505">
        <ele>13</ele>
        <time>2023-08-05T09:50:31Z</time>
      </trkpt>
      <trkpt lat="50.89924" lon="2.41504">
        <ele>13</ele>
        <time>2023-08-05T09:50:32Z</time>
      </trkpt>
      <trkpt lat="50.89921" lon="2.41503">
        <ele>12.8</ele>
        <time>2023-08-05T09:50:33Z</time>
      </trkpt>
      <trkpt lat="50.89917" lon="2.41503">
        <ele>12.6</ele>
        <time>2023-08-05T09:50:34Z</time>
      </trkpt>
      <trkpt lat="50.89914" lon="2.41502">
        <ele>12.4</ele>
        <time>2023-08-05T09:50:35Z</time>
      </trkpt>
      <trkpt lat="50.89899" lon="2.41497">
        <ele>12.2</ele>
        <time>2023-08-05T09:50:39Z</time>
      </trkpt>
      <trkpt lat="50.89895" lon="2.41496">
        <ele>12</ele>
        <time>2023-08-05T09:50:40Z</time>
      </trkpt>
      <trkpt lat="50.89873" lon="2.41496">
        <ele>11.4</ele>
        <time>2023-08-05T09:50:46Z</time>
      </trkpt>
      <trkpt lat="50.8987" lon="2.415">
        <ele>11.2</ele>
        <time>2023-08-05T09:50:47Z</time>
      </trkpt>
      <trkpt lat="50.89866" lon="2.41505">
        <ele>11.2</ele>
        <time>2023-08-05T09:50:48Z</time>
      </trkpt>
      <trkpt lat="50.89862" lon="2.41509">
        <ele>11</ele>
        <time>2023-08-05T09:50:49Z</time>
      </trkpt>
      <trkpt lat="50.89859" lon="2.41513">
        <ele>11</ele>
        <time>2023-08-05T09:50:50Z</time>
      </trkpt>
      <trkpt lat="50.89855" lon="2.41517">
        <ele>11</ele>
        <time>2023-08-05T09:50:51Z</time>
      </trkpt>
      <trkpt lat="50.89848" lon="2.41526">
        <ele>10.8</ele>
        <time>2023-08-05T09:50:53Z</time>
      </trkpt>
      <trkpt lat="50.89845" lon="2.4153">
        <ele>10.6</ele>
        <time>2023-08-05T09:50:54Z</time>
      </trkpt>
      <trkpt lat="50.89829" lon="2.41547">
        <ele>9.8</ele>
        <time>2023-08-05T09:50:59Z</time>
      </trkpt>
      <trkpt lat="50.89825" lon="2.4155">
        <ele>9.6</ele>
        <time>2023-08-05T09:51:00Z</time>
      </trkpt>
      <trkpt lat="50.89822" lon="2.41553">
        <ele>9.2</ele>
        <time>2023-08-05T09:51:01Z</time>
      </trkpt>
      <trkpt lat="50.89819" lon="2.41557">
        <ele>9.2</ele>
        <time>2023-08-05T09:51:02Z</time>
      </trkpt>
      <trkpt lat="50.89816" lon="2.4156">
        <ele>9</ele>
        <time>2023-08-05T09:51:03Z</time>
      </trkpt>
      <trkpt lat="50.89813" lon="2.41563">
        <ele>8.8</ele>
        <time>2023-08-05T09:51:04Z</time>
      </trkpt>
      <trkpt lat="50.8981" lon="2.41566">
        <ele>8.8</ele>
        <time>2023-08-05T09:51:05Z</time>
      </trkpt>
      <trkpt lat="50.89807" lon="2.41568">
        <ele>8.6</ele>
        <time>2023-08-05T09:51:06Z</time>
      </trkpt>
      <trkpt lat="50.89804" lon="2.41571">
        <ele>8.6</ele>
        <time>2023-08-05T09:51:07Z</time>
      </trkpt>
      <trkpt lat="50.898" lon="2.41573">
        <ele>8.4</ele>
        <time>2023-08-05T09:51:08Z</time>
      </trkpt>
      <trkpt lat="50.89797" lon="2.41575">
        <ele>8.4</ele>
        <time>2023-08-05T09:51:09Z</time>
      </trkpt>
      <trkpt lat="50.89794" lon="2.41576">
        <ele>8.2</ele>
        <time>2023-08-05T09:51:10Z</time>
      </trkpt>
      <trkpt lat="50.89772" lon="2.41579">
        <ele>7.8</ele>
        <time>2023-08-05T09:51:16Z</time>
      </trkpt>
      <trkpt lat="50.89758" lon="2.41581">
        <ele>7.4</ele>
        <time>2023-08-05T09:51:20Z</time>
      </trkpt>
      <trkpt lat="50.89744" lon="2.41586">
        <ele>6.8</ele>
        <time>2023-08-05T09:51:24Z</time>
      </trkpt>
      <trkpt lat="50.89731" lon="2.41593">
        <ele>6.2</ele>
        <time>2023-08-05T09:51:28Z</time>
      </trkpt>
      <trkpt lat="50.89717" lon="2.416">
        <ele>6</ele>
        <time>2023-08-05T09:51:32Z</time>
      </trkpt>
      <trkpt lat="50.89691" lon="2.41617">
        <ele>5.2</ele>
        <time>2023-08-05T09:51:40Z</time>
      </trkpt>
      <trkpt lat="50.89687" lon="2.41619">
        <ele>5</ele>
        <time>2023-08-05T09:51:41Z</time>
      </trkpt>
      <trkpt lat="50.89667" lon="2.41631">
        <ele>4.4</ele>
        <time>2023-08-05T09:51:47Z</time>
      </trkpt>
      <trkpt lat="50.89657" lon="2.41637">
        <ele>4</ele>
        <time>2023-08-05T09:51:50Z</time>
      </trkpt>
      <trkpt lat="50.89641" lon="2.41649">
        <ele>3.6</ele>
        <time>2023-08-05T09:51:55Z</time>
      </trkpt>
      <trkpt lat="50.89614" lon="2.41671">
        <ele>2.8</ele>
        <time>2023-08-05T09:52:03Z</time>
      </trkpt>
      <trkpt lat="50.89589" lon="2.41698">
        <ele>2.2</ele>
        <time>2023-08-05T09:52:11Z</time>
      </trkpt>
      <trkpt lat="50.89574" lon="2.41724">
        <ele>2.2</ele>
        <time>2023-08-05T09:52:17Z</time>
      </trkpt>
      <trkpt lat="50.89572" lon="2.41729">
        <ele>2.2</ele>
        <time>2023-08-05T09:52:18Z</time>
      </trkpt>
      <trkpt lat="50.8957" lon="2.41734">
        <ele>2.2</ele>
        <time>2023-08-05T09:52:19Z</time>
      </trkpt>
      <trkpt lat="50.8955" lon="2.41781">
        <ele>2.4</ele>
        <time>2023-08-05T09:52:28Z</time>
      </trkpt>
      <trkpt lat="50.89539" lon="2.41805">
        <ele>2.8</ele>
        <time>2023-08-05T09:52:33Z</time>
      </trkpt>
      <trkpt lat="50.89527" lon="2.41822">
        <ele>3</ele>
        <time>2023-08-05T09:52:37Z</time>
      </trkpt>
      <trkpt lat="50.89499" lon="2.41857">
        <ele>3.4</ele>
        <time>2023-08-05T09:52:46Z</time>
      </trkpt>
      <trkpt lat="50.89472" lon="2.41889">
        <ele>3.2</ele>
        <time>2023-08-05T09:52:54Z</time>
      </trkpt>
      <trkpt lat="50.89434" lon="2.41935">
        <ele>3.4</ele>
        <time>2023-08-05T09:53:05Z</time>
      </trkpt>
      <trkpt lat="50.89431" lon="2.4194">
        <ele>3.4</ele>
        <time>2023-08-05T09:53:06Z</time>
      </trkpt>
      <trkpt lat="50.89401" lon="2.41981">
        <ele>3.6</ele>
        <time>2023-08-05T09:53:15Z</time>
      </trkpt>
      <trkpt lat="50.89376" lon="2.42007">
        <ele>3.6</ele>
        <time>2023-08-05T09:53:22Z</time>
      </trkpt>
      <trkpt lat="50.89373" lon="2.42011">
        <ele>3.6</ele>
        <time>2023-08-05T09:53:23Z</time>
      </trkpt>
      <trkpt lat="50.8937" lon="2.42015">
        <ele>3.6</ele>
        <time>2023-08-05T09:53:24Z</time>
      </trkpt>
      <trkpt lat="50.89366" lon="2.42018">
        <ele>3.4</ele>
        <time>2023-08-05T09:53:25Z</time>
      </trkpt>
      <trkpt lat="50.89363" lon="2.42021">
        <ele>3.2</ele>
        <time>2023-08-05T09:53:26Z</time>
      </trkpt>
      <trkpt lat="50.89359" lon="2.42026">
        <ele>3.2</ele>
        <time>2023-08-05T09:53:27Z</time>
      </trkpt>
      <trkpt lat="50.89357" lon="2.4203">
        <ele>3.2</ele>
        <time>2023-08-05T09:53:28Z</time>
      </trkpt>
      <trkpt lat="50.89354" lon="2.42035">
        <ele>3.2</ele>
        <time>2023-08-05T09:53:29Z</time>
      </trkpt>
      <trkpt lat="50.89352" lon="2.4204">
        <ele>3.4</ele>
        <time>2023-08-05T09:53:30Z</time>
      </trkpt>
      <trkpt lat="50.8935" lon="2.42046">
        <ele>3.6</ele>
        <time>2023-08-05T09:53:31Z</time>
      </trkpt>
      <trkpt lat="50.89349" lon="2.42052">
        <ele>3.6</ele>
        <time>2023-08-05T09:53:32Z</time>
      </trkpt>
      <trkpt lat="50.89348" lon="2.42057">
        <ele>3.4</ele>
        <time>2023-08-05T09:53:33Z</time>
      </trkpt>
      <trkpt lat="50.89348" lon="2.42063">
        <ele>3.4</ele>
        <time>2023-08-05T09:53:34Z</time>
      </trkpt>
      <trkpt lat="50.89346" lon="2.42082">
        <ele>3.6</ele>
        <time>2023-08-05T09:53:37Z</time>
      </trkpt>
      <trkpt lat="50.89346" lon="2.42087">
        <ele>3.6</ele>
        <time>2023-08-05T09:53:38Z</time>
      </trkpt>
      <trkpt lat="50.89345" lon="2.42093">
        <ele>3.6</ele>
        <time>2023-08-05T09:53:39Z</time>
      </trkpt>
      <trkpt lat="50.89344" lon="2.42098">
        <ele>3.6</ele>
        <time>2023-08-05T09:53:40Z</time>
      </trkpt>
      <trkpt lat="50.89343" lon="2.42102">
        <ele>3.6</ele>
        <time>2023-08-05T09:53:41Z</time>
      </trkpt>
      <trkpt lat="50.89342" lon="2.42107">
        <ele>3.8</ele>
        <time>2023-08-05T09:53:42Z</time>
      </trkpt>
      <trkpt lat="50.8934" lon="2.42111">
        <ele>3.8</ele>
        <time>2023-08-05T09:53:43Z</time>
      </trkpt>
      <trkpt lat="50.89339" lon="2.42117">
        <ele>3.8</ele>
        <time>2023-08-05T09:53:44Z</time>
      </trkpt>
      <trkpt lat="50.89331" lon="2.42145">
        <ele>4.2</ele>
        <time>2023-08-05T09:53:49Z</time>
      </trkpt>
      <trkpt lat="50.89327" lon="2.42158">
        <ele>4.2</ele>
        <time>2023-08-05T09:53:51Z</time>
      </trkpt>
      <trkpt lat="50.89318" lon="2.42191">
        <ele>4.2</ele>
        <time>2023-08-05T09:53:56Z</time>
      </trkpt>
      <trkpt lat="50.89316" lon="2.42198">
        <ele>4.2</ele>
        <time>2023-08-05T09:53:57Z</time>
      </trkpt>
      <trkpt lat="50.89301" lon="2.42239">
        <ele>4.4</ele>
        <time>2023-08-05T09:54:04Z</time>
      </trkpt>
      <trkpt lat="50.89274" lon="2.42296">
        <ele>4.6</ele>
        <time>2023-08-05T09:54:14Z</time>
      </trkpt>
      <trkpt lat="50.89271" lon="2.42302">
        <ele>4.6</ele>
        <time>2023-08-05T09:54:15Z</time>
      </trkpt>
      <trkpt lat="50.89268" lon="2.42308">
        <ele>4.6</ele>
        <time>2023-08-05T09:54:16Z</time>
      </trkpt>
      <trkpt lat="50.89266" lon="2.42313">
        <ele>4.6</ele>
        <time>2023-08-05T09:54:17Z</time>
      </trkpt>
      <trkpt lat="50.89254" lon="2.4234">
        <ele>4.4</ele>
        <time>2023-08-05T09:54:22Z</time>
      </trkpt>
      <trkpt lat="50.89249" lon="2.42351">
        <ele>4.2</ele>
        <time>2023-08-05T09:54:24Z</time>
      </trkpt>
      <trkpt lat="50.89244" lon="2.42362">
        <ele>4</ele>
        <time>2023-08-05T09:54:26Z</time>
      </trkpt>
      <trkpt lat="50.89241" lon="2.42368">
        <ele>3.8</ele>
        <time>2023-08-05T09:54:27Z</time>
      </trkpt>
      <trkpt lat="50.89238" lon="2.42374">
        <ele>3.8</ele>
        <time>2023-08-05T09:54:28Z</time>
      </trkpt>
      <trkpt lat="50.89228" lon="2.42386">
        <ele>3.4</ele>
        <time>2023-08-05T09:54:31Z</time>
      </trkpt>
      <trkpt lat="50.8922" lon="2.42391">
        <ele>3.2</ele>
        <time>2023-08-05T09:54:33Z</time>
      </trkpt>
      <trkpt lat="50.89216" lon="2.42393">
        <ele>3.2</ele>
        <time>2023-08-05T09:54:34Z</time>
      </trkpt>
      <trkpt lat="50.89204" lon="2.42398">
        <ele>2.8</ele>
        <time>2023-08-05T09:54:37Z</time>
      </trkpt>
      <trkpt lat="50.89196" lon="2.42401">
        <ele>2.8</ele>
        <time>2023-08-05T09:54:39Z</time>
      </trkpt>
      <trkpt lat="50.8917" lon="2.42408">
        <ele>2.4</ele>
        <time>2023-08-05T09:54:45Z</time>
      </trkpt>
      <trkpt lat="50.89156" lon="2.42411">
        <ele>1.8</ele>
        <time>2023-08-05T09:54:49Z</time>
      </trkpt>
      <trkpt lat="50.8913" lon="2.42419">
        <ele>0.80000000000001</ele>
        <time>2023-08-05T09:54:54Z</time>
      </trkpt>
      <trkpt lat="50.89118" lon="2.42427">
        <ele>0.60000000000002</ele>
        <time>2023-08-05T09:54:57Z</time>
      </trkpt>
      <trkpt lat="50.89107" lon="2.42437">
        <ele>0.39999999999998</ele>
        <time>2023-08-05T09:55:00Z</time>
      </trkpt>
      <trkpt lat="50.8908" lon="2.42474">
        <ele>-0.19999999999999</ele>
        <time>2023-08-05T09:55:08Z</time>
      </trkpt>
      <trkpt lat="50.89073" lon="2.42484">
        <ele>-0.39999999999998</ele>
        <time>2023-08-05T09:55:10Z</time>
      </trkpt>
      <trkpt lat="50.89049" lon="2.4252">
        <ele>-1.2</ele>
        <time>2023-08-05T09:55:17Z</time>
      </trkpt>
      <trkpt lat="50.89036" lon="2.42541">
        <ele>-1.6</ele>
        <time>2023-08-05T09:55:21Z</time>
      </trkpt>
      <trkpt lat="50.89028" lon="2.42555">
        <ele>-1.8</ele>
        <time>2023-08-05T09:55:24Z</time>
      </trkpt>
      <trkpt lat="50.89026" lon="2.42559">
        <ele>-2</ele>
        <time>2023-08-05T09:55:25Z</time>
      </trkpt>
      <trkpt lat="50.89023" lon="2.42563">
        <ele>-2</ele>
        <time>2023-08-05T09:55:26Z</time>
      </trkpt>
      <trkpt lat="50.89021" lon="2.42567">
        <ele>-2.2</ele>
        <time>2023-08-05T09:55:27Z</time>
      </trkpt>
      <trkpt lat="50.89011" lon="2.42586">
        <ele>-2.4</ele>
        <time>2023-08-05T09:55:31Z</time>
      </trkpt>
      <trkpt lat="50.89" lon="2.42609">
        <ele>-2.8</ele>
        <time>2023-08-05T09:55:35Z</time>
      </trkpt>
      <trkpt lat="50.88989" lon="2.42623">
        <ele>-2.8</ele>
        <time>2023-08-05T09:55:38Z</time>
      </trkpt>
      <trkpt lat="50.88981" lon="2.42631">
        <ele>-3</ele>
        <time>2023-08-05T09:55:40Z</time>
      </trkpt>
      <trkpt lat="50.88965" lon="2.42642">
        <ele>-3.6</ele>
        <time>2023-08-05T09:55:44Z</time>
      </trkpt>
      <trkpt lat="50.88953" lon="2.4265">
        <ele>-3.8</ele>
        <time>2023-08-05T09:55:47Z</time>
      </trkpt>
      <trkpt lat="50.88949" lon="2.42653">
        <ele>-3.8</ele>
        <time>2023-08-05T09:55:48Z</time>
      </trkpt>
      <trkpt lat="50.88945" lon="2.42656">
        <ele>-3.8</ele>
        <time>2023-08-05T09:55:49Z</time>
      </trkpt>
      <trkpt lat="50.88942" lon="2.42659">
        <ele>-4.2</ele>
        <time>2023-08-05T09:55:50Z</time>
      </trkpt>
      <trkpt lat="50.88938" lon="2.42663">
        <ele>-4.2</ele>
        <time>2023-08-05T09:55:51Z</time>
      </trkpt>
      <trkpt lat="50.88934" lon="2.42667">
        <ele>-4.4</ele>
        <time>2023-08-05T09:55:52Z</time>
      </trkpt>
      <trkpt lat="50.88919" lon="2.42686">
        <ele>-4.6</ele>
        <time>2023-08-05T09:55:56Z</time>
      </trkpt>
      <trkpt lat="50.88886" lon="2.42723">
        <ele>-5</ele>
        <time>2023-08-05T09:56:05Z</time>
      </trkpt>
      <trkpt lat="50.88877" lon="2.42732">
        <ele>-5</ele>
        <time>2023-08-05T09:56:07Z</time>
      </trkpt>
      <trkpt lat="50.88842" lon="2.42768">
        <ele>-5.6</ele>
        <time>2023-08-05T09:56:15Z</time>
      </trkpt>
      <trkpt lat="50.88814" lon="2.42801">
        <ele>-6.2</ele>
        <time>2023-08-05T09:56:22Z</time>
      </trkpt>
      <trkpt lat="50.8881" lon="2.42805">
        <ele>-6.2</ele>
        <time>2023-08-05T09:56:23Z</time>
      </trkpt>
      <trkpt lat="50.88806" lon="2.4281">
        <ele>-6.2</ele>
        <time>2023-08-05T09:56:24Z</time>
      </trkpt>
      <trkpt lat="50.88802" lon="2.42814">
        <ele>-6.2</ele>
        <time>2023-08-05T09:56:25Z</time>
      </trkpt>
      <trkpt lat="50.88794" lon="2.42823">
        <ele>-6.4</ele>
        <time>2023-08-05T09:56:27Z</time>
      </trkpt>
      <trkpt lat="50.88791" lon="2.42827">
        <ele>-6.4</ele>
        <time>2023-08-05T09:56:28Z</time>
      </trkpt>
      <trkpt lat="50.88787" lon="2.42831">
        <ele>-6.4</ele>
        <time>2023-08-05T09:56:29Z</time>
      </trkpt>
      <trkpt lat="50.88778" lon="2.42842">
        <ele>-6.6</ele>
        <time>2023-08-05T09:56:31Z</time>
      </trkpt>
      <trkpt lat="50.88751" lon="2.42876">
        <ele>-7</ele>
        <time>2023-08-05T09:56:38Z</time>
      </trkpt>
      <trkpt lat="50.88734" lon="2.42895">
        <ele>-7</ele>
        <time>2023-08-05T09:56:42Z</time>
      </trkpt>
      <trkpt lat="50.88721" lon="2.42912">
        <ele>-7</ele>
        <time>2023-08-05T09:56:45Z</time>
      </trkpt>
      <trkpt lat="50.88696" lon="2.42942">
        <ele>-7.2</ele>
        <time>2023-08-05T09:56:51Z</time>
      </trkpt>
      <trkpt lat="50.88678" lon="2.42962">
        <ele>-7.4</ele>
        <time>2023-08-05T09:56:55Z</time>
      </trkpt>
      <trkpt lat="50.88675" lon="2.42966">
        <ele>-7.6</ele>
        <time>2023-08-05T09:56:56Z</time>
      </trkpt>
      <trkpt lat="50.88671" lon="2.42971">
        <ele>-7.6</ele>
        <time>2023-08-05T09:56:57Z</time>
      </trkpt>
      <trkpt lat="50.88668" lon="2.42975">
        <ele>-7.8</ele>
        <time>2023-08-05T09:56:58Z</time>
      </trkpt>
      <trkpt lat="50.88664" lon="2.42981">
        <ele>-7.8</ele>
        <time>2023-08-05T09:56:59Z</time>
      </trkpt>
      <trkpt lat="50.8866" lon="2.42985">
        <ele>-7.8</ele>
        <time>2023-08-05T09:57:00Z</time>
      </trkpt>
      <trkpt lat="50.88657" lon="2.4299">
        <ele>-7.8</ele>
        <time>2023-08-05T09:57:01Z</time>
      </trkpt>
      <trkpt lat="50.88652" lon="2.42996">
        <ele>-7.8</ele>
        <time>2023-08-05T09:57:02Z</time>
      </trkpt>
      <trkpt lat="50.8865" lon="2.42999">
        <ele>-7.8</ele>
        <time>2023-08-05T09:57:03Z</time>
      </trkpt>
      <trkpt lat="50.88647" lon="2.43003">
        <ele>-7.8</ele>
        <time>2023-08-05T09:57:04Z</time>
      </trkpt>
      <trkpt lat="50.88644" lon="2.43007">
        <ele>-7.8</ele>
        <time>2023-08-05T09:57:05Z</time>
      </trkpt>
      <trkpt lat="50.88641" lon="2.4301">
        <ele>-8</ele>
        <time>2023-08-05T09:57:06Z</time>
      </trkpt>
      <trkpt lat="50.88639" lon="2.43013">
        <ele>-8</ele>
        <time>2023-08-05T09:57:07Z</time>
      </trkpt>
      <trkpt lat="50.88637" lon="2.43015">
        <ele>-8</ele>
        <time>2023-08-05T09:57:08Z</time>
      </trkpt>
      <trkpt lat="50.88637" lon="2.43016">
        <ele>-8</ele>
        <time>2023-08-05T09:57:09Z</time>
      </trkpt>
      <trkpt lat="50.88636" lon="2.43018">
        <ele>-8</ele>
        <time>2023-08-05T09:57:10Z</time>
      </trkpt>
      <trkpt lat="50.88634" lon="2.43021">
        <ele>-8</ele>
        <time>2023-08-05T09:57:11Z</time>
      </trkpt>
      <trkpt lat="50.88631" lon="2.43032">
        <ele>-8</ele>
        <time>2023-08-05T09:57:13Z</time>
      </trkpt>
      <trkpt lat="50.88631" lon="2.43038">
        <ele>-8</ele>
        <time>2023-08-05T09:57:14Z</time>
      </trkpt>
      <trkpt lat="50.88632" lon="2.43043">
        <ele>-8.2</ele>
        <time>2023-08-05T09:57:15Z</time>
      </trkpt>
      <trkpt lat="50.88631" lon="2.43048">
        <ele>-8.2</ele>
        <time>2023-08-05T09:57:16Z</time>
      </trkpt>
      <trkpt lat="50.88629" lon="2.43052">
        <ele>-8.4</ele>
        <time>2023-08-05T09:57:17Z</time>
      </trkpt>
      <trkpt lat="50.88627" lon="2.43055">
        <ele>-8.4</ele>
        <time>2023-08-05T09:57:18Z</time>
      </trkpt>
      <trkpt lat="50.88625" lon="2.43059">
        <ele>-8.4</ele>
        <time>2023-08-05T09:57:19Z</time>
      </trkpt>
      <trkpt lat="50.88617" lon="2.43075">
        <ele>-8.8</ele>
        <time>2023-08-05T09:57:23Z</time>
      </trkpt>
      <trkpt lat="50.88616" lon="2.43079">
        <ele>-9</ele>
        <time>2023-08-05T09:57:24Z</time>
      </trkpt>
      <trkpt lat="50.88615" lon="2.43082">
        <ele>-9</ele>
        <time>2023-08-05T09:57:25Z</time>
      </trkpt>
      <trkpt lat="50.88614" lon="2.43084">
        <ele>-9</ele>
        <time>2023-08-05T09:57:26Z</time>
      </trkpt>
      <trkpt lat="50.88613" lon="2.43088">
        <ele>-9.2</ele>
        <time>2023-08-05T09:57:27Z</time>
      </trkpt>
      <trkpt lat="50.88612" lon="2.43091">
        <ele>-9.2</ele>
        <time>2023-08-05T09:57:28Z</time>
      </trkpt>
      <trkpt lat="50.88611" lon="2.43093">
        <ele>-9.4</ele>
        <time>2023-08-05T09:57:29Z</time>
      </trkpt>
      <trkpt lat="50.88609" lon="2.43096">
        <ele>-9.4</ele>
        <time>2023-08-05T09:57:30Z</time>
      </trkpt>
      <trkpt lat="50.88608" lon="2.431">
        <ele>-9.4</ele>
        <time>2023-08-05T09:57:31Z</time>
      </trkpt>
      <trkpt lat="50.88608" lon="2.43104">
        <ele>-9.6</ele>
        <time>2023-08-05T09:57:32Z</time>
      </trkpt>
      <trkpt lat="50.88606" lon="2.43114">
        <ele>-9.6</ele>
        <time>2023-08-05T09:57:34Z</time>
      </trkpt>
      <trkpt lat="50.88605" lon="2.4312">
        <ele>-9.6</ele>
        <time>2023-08-05T09:57:35Z</time>
      </trkpt>
      <trkpt lat="50.886" lon="2.43135">
        <ele>-7.8</ele>
        <time>2023-08-05T09:57:38Z</time>
      </trkpt>
      <trkpt lat="50.88598" lon="2.4314">
        <ele>-5</ele>
        <time>2023-08-05T09:57:39Z</time>
      </trkpt>
      <trkpt lat="50.88597" lon="2.43145">
        <ele>-1</ele>
        <time>2023-08-05T09:57:40Z</time>
      </trkpt>
      <trkpt lat="50.88595" lon="2.43151">
        <ele>0.39999999999998</ele>
        <time>2023-08-05T09:57:41Z</time>
      </trkpt>
      <trkpt lat="50.88594" lon="2.43157">
        <ele>0.80000000000001</ele>
        <time>2023-08-05T09:57:42Z</time>
      </trkpt>
      <trkpt lat="50.88592" lon="2.43163">
        <ele>1.2</ele>
        <time>2023-08-05T09:57:43Z</time>
      </trkpt>
      <trkpt lat="50.88591" lon="2.4317">
        <ele>1.4</ele>
        <time>2023-08-05T09:57:44Z</time>
      </trkpt>
      <trkpt lat="50.88589" lon="2.43175">
        <ele>1.4</ele>
        <time>2023-08-05T09:57:45Z</time>
      </trkpt>
      <trkpt lat="50.88588" lon="2.43181">
        <ele>1.4</ele>
        <time>2023-08-05T09:57:46Z</time>
      </trkpt>
      <trkpt lat="50.88586" lon="2.43185">
        <ele>1.4</ele>
        <time>2023-08-05T09:57:47Z</time>
      </trkpt>
      <trkpt lat="50.88583" lon="2.4319">
        <ele>1.4</ele>
        <time>2023-08-05T09:57:48Z</time>
      </trkpt>
      <trkpt lat="50.8858" lon="2.43193">
        <ele>1.4</ele>
        <time>2023-08-05T09:57:49Z</time>
      </trkpt>
      <trkpt lat="50.88576" lon="2.43198">
        <ele>1.2</ele>
        <time>2023-08-05T09:57:50Z</time>
      </trkpt>
      <trkpt lat="50.88574" lon="2.43201">
        <ele>1</ele>
        <time>2023-08-05T09:57:51Z</time>
      </trkpt>
      <trkpt lat="50.88571" lon="2.43205">
        <ele>1</ele>
        <time>2023-08-05T09:57:52Z</time>
      </trkpt>
      <trkpt lat="50.88567" lon="2.43209">
        <ele>1</ele>
        <time>2023-08-05T09:57:53Z</time>
      </trkpt>
      <trkpt lat="50.88563" lon="2.43213">
        <ele>0.80000000000001</ele>
        <time>2023-08-05T09:57:54Z</time>
      </trkpt>
      <trkpt lat="50.8856" lon="2.43216">
        <ele>0.80000000000001</ele>
        <time>2023-08-05T09:57:55Z</time>
      </trkpt>
      <trkpt lat="50.88556" lon="2.43221">
        <ele>0.80000000000001</ele>
        <time>2023-08-05T09:57:56Z</time>
      </trkpt>
      <trkpt lat="50.88553" lon="2.43224">
        <ele>0.60000000000002</ele>
        <time>2023-08-05T09:57:57Z</time>
      </trkpt>
      <trkpt lat="50.8855" lon="2.43228">
        <ele>0.60000000000002</ele>
        <time>2023-08-05T09:57:58Z</time>
      </trkpt>
      <trkpt lat="50.88547" lon="2.43232">
        <ele>0.60000000000002</ele>
        <time>2023-08-05T09:57:59Z</time>
      </trkpt>
      <trkpt lat="50.88543" lon="2.43235">
        <ele>0.60000000000002</ele>
        <time>2023-08-05T09:58:00Z</time>
      </trkpt>
      <trkpt lat="50.8854" lon="2.43238">
        <ele>0.60000000000002</ele>
        <time>2023-08-05T09:58:01Z</time>
      </trkpt>
      <trkpt lat="50.88536" lon="2.43241">
        <ele>0.60000000000002</ele>
        <time>2023-08-05T09:58:02Z</time>
      </trkpt>
      <trkpt lat="50.88533" lon="2.43244">
        <ele>0.60000000000002</ele>
        <time>2023-08-05T09:58:03Z</time>
      </trkpt>
      <trkpt lat="50.8853" lon="2.43247">
        <ele>0.60000000000002</ele>
        <time>2023-08-05T09:58:04Z</time>
      </trkpt>
      <trkpt lat="50.88526" lon="2.43249">
        <ele>0.60000000000002</ele>
        <time>2023-08-05T09:58:05Z</time>
      </trkpt>
      <trkpt lat="50.88522" lon="2.43251">
        <ele>0.60000000000002</ele>
        <time>2023-08-05T09:58:06Z</time>
      </trkpt>
      <trkpt lat="50.88519" lon="2.43252">
        <ele>0.60000000000002</ele>
        <time>2023-08-05T09:58:07Z</time>
      </trkpt>
      <trkpt lat="50.88515" lon="2.43253">
        <ele>0.60000000000002</ele>
        <time>2023-08-05T09:58:08Z</time>
      </trkpt>
      <trkpt lat="50.88511" lon="2.43254">
        <ele>0.60000000000002</ele>
        <time>2023-08-05T09:58:09Z</time>
      </trkpt>
      <trkpt lat="50.88507" lon="2.43254">
        <ele>0.60000000000002</ele>
        <time>2023-08-05T09:58:10Z</time>
      </trkpt>
      <trkpt lat="50.88503" lon="2.43253">
        <ele>0.60000000000002</ele>
        <time>2023-08-05T09:58:11Z</time>
      </trkpt>
      <trkpt lat="50.88499" lon="2.43252">
        <ele>0.60000000000002</ele>
        <time>2023-08-05T09:58:12Z</time>
      </trkpt>
      <trkpt lat="50.88495" lon="2.43251">
        <ele>0.39999999999998</ele>
        <time>2023-08-05T09:58:13Z</time>
      </trkpt>
      <trkpt lat="50.88481" lon="2.43245">
        <ele>0.19999999999999</ele>
        <time>2023-08-05T09:58:17Z</time>
      </trkpt>
      <trkpt lat="50.8847" lon="2.43239">
        <ele>0.19999999999999</ele>
        <time>2023-08-05T09:58:20Z</time>
      </trkpt>
      <trkpt lat="50.88466" lon="2.43238">
        <ele>0.19999999999999</ele>
        <time>2023-08-05T09:58:21Z</time>
      </trkpt>
      <trkpt lat="50.88462" lon="2.43236">
        <ele>0.19999999999999</ele>
        <time>2023-08-05T09:58:22Z</time>
      </trkpt>
      <trkpt lat="50.88459" lon="2.43233">
        <ele>0.19999999999999</ele>
        <time>2023-08-05T09:58:23Z</time>
      </trkpt>
      <trkpt lat="50.88455" lon="2.4323">
        <ele>0.19999999999999</ele>
        <time>2023-08-05T09:58:24Z</time>
      </trkpt>
      <trkpt lat="50.8844" lon="2.43217">
        <ele>0.19999999999999</ele>
        <time>2023-08-05T09:58:28Z</time>
      </trkpt>
      <trkpt lat="50.88419" lon="2.43194">
        <ele>-0.39999999999998</ele>
        <time>2023-08-05T09:58:34Z</time>
      </trkpt>
      <trkpt lat="50.88415" lon="2.4319">
        <ele>-0.39999999999998</ele>
        <time>2023-08-05T09:58:35Z</time>
      </trkpt>
      <trkpt lat="50.88409" lon="2.43181">
        <ele>-0.60000000000002</ele>
        <time>2023-08-05T09:58:37Z</time>
      </trkpt>
      <trkpt lat="50.88399" lon="2.43168">
        <ele>-0.60000000000002</ele>
        <time>2023-08-05T09:58:40Z</time>
      </trkpt>
      <trkpt lat="50.88396" lon="2.43165">
        <ele>-0.60000000000002</ele>
        <time>2023-08-05T09:58:41Z</time>
      </trkpt>
      <trkpt lat="50.88392" lon="2.43161">
        <ele>-0.60000000000002</ele>
        <time>2023-08-05T09:58:42Z</time>
      </trkpt>
      <trkpt lat="50.88385" lon="2.43155">
        <ele>-0.60000000000002</ele>
        <time>2023-08-05T09:58:44Z</time>
      </trkpt>
      <trkpt lat="50.88376" lon="2.43151">
        <ele>-0.39999999999998</ele>
        <time>2023-08-05T09:58:46Z</time>
      </trkpt>
      <trkpt lat="50.88372" lon="2.4315">
        <ele>-0.19999999999999</ele>
        <time>2023-08-05T09:58:47Z</time>
      </trkpt>
      <trkpt lat="50.88368" lon="2.43148">
        <ele>-0.19999999999999</ele>
        <time>2023-08-05T09:58:48Z</time>
      </trkpt>
      <trkpt lat="50.88364" lon="2.43147">
        <ele>-0.19999999999999</ele>
        <time>2023-08-05T09:58:49Z</time>
      </trkpt>
      <trkpt lat="50.88359" lon="2.43146">
        <ele>-0.19999999999999</ele>
        <time>2023-08-05T09:58:50Z</time>
      </trkpt>
      <trkpt lat="50.88344" lon="2.43141">
        <ele>0.39999999999998</ele>
        <time>2023-08-05T09:58:54Z</time>
      </trkpt>
      <trkpt lat="50.8834" lon="2.4314">
        <ele>0.60000000000002</ele>
        <time>2023-08-05T09:58:55Z</time>
      </trkpt>
      <trkpt lat="50.88337" lon="2.43139">
        <ele>0.60000000000002</ele>
        <time>2023-08-05T09:58:56Z</time>
      </trkpt>
      <trkpt lat="50.88333" lon="2.43137">
        <ele>0.80000000000001</ele>
        <time>2023-08-05T09:58:57Z</time>
      </trkpt>
      <trkpt lat="50.88325" lon="2.43133">
        <ele>1</ele>
        <time>2023-08-05T09:58:59Z</time>
      </trkpt>
      <trkpt lat="50.88322" lon="2.43131">
        <ele>1.2</ele>
        <time>2023-08-05T09:59:00Z</time>
      </trkpt>
      <trkpt lat="50.88318" lon="2.43129">
        <ele>1.4</ele>
        <time>2023-08-05T09:59:01Z</time>
      </trkpt>
      <trkpt lat="50.88313" lon="2.43128">
        <ele>1.4</ele>
        <time>2023-08-05T09:59:02Z</time>
      </trkpt>
      <trkpt lat="50.88279" lon="2.43115">
        <ele>2.4</ele>
        <time>2023-08-05T09:59:11Z</time>
      </trkpt>
      <trkpt lat="50.88275" lon="2.43113">
        <ele>2.4</ele>
        <time>2023-08-05T09:59:12Z</time>
      </trkpt>
      <trkpt lat="50.88268" lon="2.43109">
        <ele>2.4</ele>
        <time>2023-08-05T09:59:14Z</time>
      </trkpt>
      <trkpt lat="50.88264" lon="2.43107">
        <ele>2.4</ele>
        <time>2023-08-05T09:59:15Z</time>
      </trkpt>
      <trkpt lat="50.88244" lon="2.43098">
        <ele>2.4</ele>
        <time>2023-08-05T09:59:20Z</time>
      </trkpt>
      <trkpt lat="50.88206" lon="2.4308">
        <ele>2.2</ele>
        <time>2023-08-05T09:59:30Z</time>
      </trkpt>
      <trkpt lat="50.88198" lon="2.43077">
        <ele>2.2</ele>
        <time>2023-08-05T09:59:32Z</time>
      </trkpt>
      <trkpt lat="50.88178" lon="2.43068">
        <ele>1.8</ele>
        <time>2023-08-05T09:59:37Z</time>
      </trkpt>
      <trkpt lat="50.88154" lon="2.43066">
        <ele>1.8</ele>
        <time>2023-08-05T09:59:43Z</time>
      </trkpt>
      <trkpt lat="50.88151" lon="2.43067">
        <ele>1.8</ele>
        <time>2023-08-05T09:59:44Z</time>
      </trkpt>
      <trkpt lat="50.88147" lon="2.43069">
        <ele>1.8</ele>
        <time>2023-08-05T09:59:45Z</time>
      </trkpt>
      <trkpt lat="50.88144" lon="2.43071">
        <ele>1.6</ele>
        <time>2023-08-05T09:59:46Z</time>
      </trkpt>
      <trkpt lat="50.88141" lon="2.43074">
        <ele>1.6</ele>
        <time>2023-08-05T09:59:47Z</time>
      </trkpt>
      <trkpt lat="50.88138" lon="2.43077">
        <ele>1.6</ele>
        <time>2023-08-05T09:59:48Z</time>
      </trkpt>
      <trkpt lat="50.88134" lon="2.4308">
        <ele>1.6</ele>
        <time>2023-08-05T09:59:49Z</time>
      </trkpt>
      <trkpt lat="50.88132" lon="2.43083">
        <ele>1.6</ele>
        <time>2023-08-05T09:59:50Z</time>
      </trkpt>
      <trkpt lat="50.88129" lon="2.43085">
        <ele>1.4</ele>
        <time>2023-08-05T09:59:51Z</time>
      </trkpt>
      <trkpt lat="50.88126" lon="2.43088">
        <ele>1.4</ele>
        <time>2023-08-05T09:59:52Z</time>
      </trkpt>
      <trkpt lat="50.88123" lon="2.43091">
        <ele>1.4</ele>
        <time>2023-08-05T09:59:53Z</time>
      </trkpt>
      <trkpt lat="50.88116" lon="2.43096">
        <ele>1.2</ele>
        <time>2023-08-05T09:59:55Z</time>
      </trkpt>
      <trkpt lat="50.88097" lon="2.43112">
        <ele>0.80000000000001</ele>
        <time>2023-08-05T10:00:01Z</time>
      </trkpt>
      <trkpt lat="50.88056" lon="2.43138">
        <ele>0.39999999999998</ele>
        <time>2023-08-05T10:00:13Z</time>
      </trkpt>
      <trkpt lat="50.88033" lon="2.43141">
        <ele>0.39999999999998</ele>
        <time>2023-08-05T10:00:19Z</time>
      </trkpt>
      <trkpt lat="50.88024" lon="2.4314">
        <ele>0.39999999999998</ele>
        <time>2023-08-05T10:00:21Z</time>
      </trkpt>
      <trkpt lat="50.87997" lon="2.43138">
        <ele>-0.19999999999999</ele>
        <time>2023-08-05T10:00:28Z</time>
      </trkpt>
      <trkpt lat="50.87994" lon="2.43138">
        <ele>-0.39999999999998</ele>
        <time>2023-08-05T10:00:29Z</time>
      </trkpt>
      <trkpt lat="50.8799" lon="2.43139">
        <ele>-0.39999999999998</ele>
        <time>2023-08-05T10:00:30Z</time>
      </trkpt>
      <trkpt lat="50.87986" lon="2.4314">
        <ele>-0.39999999999998</ele>
        <time>2023-08-05T10:00:31Z</time>
      </trkpt>
      <trkpt lat="50.87965" lon="2.43146">
        <ele>-0.80000000000001</ele>
        <time>2023-08-05T10:00:37Z</time>
      </trkpt>
      <trkpt lat="50.87962" lon="2.43148">
        <ele>-0.80000000000001</ele>
        <time>2023-08-05T10:00:38Z</time>
      </trkpt>
      <trkpt lat="50.87958" lon="2.4315">
        <ele>-0.80000000000001</ele>
        <time>2023-08-05T10:00:39Z</time>
      </trkpt>
      <trkpt lat="50.87955" lon="2.43152">
        <ele>-1</ele>
        <time>2023-08-05T10:00:40Z</time>
      </trkpt>
      <trkpt lat="50.87952" lon="2.43153">
        <ele>-1</ele>
        <time>2023-08-05T10:00:41Z</time>
      </trkpt>
      <trkpt lat="50.87948" lon="2.43155">
        <ele>-1</ele>
        <time>2023-08-05T10:00:42Z</time>
      </trkpt>
      <trkpt lat="50.87938" lon="2.4316">
        <ele>-1</ele>
        <time>2023-08-05T10:00:45Z</time>
      </trkpt>
      <trkpt lat="50.87928" lon="2.43166">
        <ele>-1.2</ele>
        <time>2023-08-05T10:00:48Z</time>
      </trkpt>
      <trkpt lat="50.87922" lon="2.43169">
        <ele>-1.2</ele>
        <time>2023-08-05T10:00:50Z</time>
      </trkpt>
      <trkpt lat="50.87919" lon="2.43171">
        <ele>-1.2</ele>
        <time>2023-08-05T10:00:51Z</time>
      </trkpt>
      <trkpt lat="50.87916" lon="2.43172">
        <ele>-1.4</ele>
        <time>2023-08-05T10:00:52Z</time>
      </trkpt>
      <trkpt lat="50.87913" lon="2.43173">
        <ele>-1.4</ele>
        <time>2023-08-05T10:00:53Z</time>
      </trkpt>
      <trkpt lat="50.8791" lon="2.43175">
        <ele>-1.4</ele>
        <time>2023-08-05T10:00:54Z</time>
      </trkpt>
      <trkpt lat="50.87906" lon="2.43177">
        <ele>-1.4</ele>
        <time>2023-08-05T10:00:55Z</time>
      </trkpt>
      <trkpt lat="50.87903" lon="2.43178">
        <ele>-1.4</ele>
        <time>2023-08-05T10:00:56Z</time>
      </trkpt>
      <trkpt lat="50.879" lon="2.4318">
        <ele>-1.4</ele>
        <time>2023-08-05T10:00:57Z</time>
      </trkpt>
      <trkpt lat="50.87897" lon="2.43182">
        <ele>-1.6</ele>
        <time>2023-08-05T10:00:58Z</time>
      </trkpt>
      <trkpt lat="50.87885" lon="2.4319">
        <ele>-1.6</ele>
        <time>2023-08-05T10:01:02Z</time>
      </trkpt>
      <trkpt lat="50.87853" lon="2.43211">
        <ele>-1.4</ele>
        <time>2023-08-05T10:01:12Z</time>
      </trkpt>
      <trkpt lat="50.87847" lon="2.43211">
        <ele>-1.4</ele>
        <time>2023-08-05T10:01:14Z</time>
      </trkpt>
      <trkpt lat="50.87844" lon="2.43211">
        <ele>-1.4</ele>
        <time>2023-08-05T10:01:15Z</time>
      </trkpt>
      <trkpt lat="50.8784" lon="2.4321">
        <ele>-1.2</ele>
        <time>2023-08-05T10:01:16Z</time>
      </trkpt>
      <trkpt lat="50.87837" lon="2.43209">
        <ele>-1.2</ele>
        <time>2023-08-05T10:01:17Z</time>
      </trkpt>
      <trkpt lat="50.87831" lon="2.43207">
        <ele>-1.2</ele>
        <time>2023-08-05T10:01:19Z</time>
      </trkpt>
      <trkpt lat="50.87828" lon="2.43206">
        <ele>-1.2</ele>
        <time>2023-08-05T10:01:20Z</time>
      </trkpt>
      <trkpt lat="50.87825" lon="2.43206">
        <ele>-1</ele>
        <time>2023-08-05T10:01:21Z</time>
      </trkpt>
      <trkpt lat="50.87822" lon="2.43205">
        <ele>-1</ele>
        <time>2023-08-05T10:01:22Z</time>
      </trkpt>
      <trkpt lat="50.87806" lon="2.43202">
        <ele>-0.39999999999998</ele>
        <time>2023-08-05T10:01:27Z</time>
      </trkpt>
      <trkpt lat="50.87802" lon="2.43201">
        <ele>-0.39999999999998</ele>
        <time>2023-08-05T10:01:28Z</time>
      </trkpt>
      <trkpt lat="50.87778" lon="2.43196">
        <ele>0.60000000000002</ele>
        <time>2023-08-05T10:01:35Z</time>
      </trkpt>
      <trkpt lat="50.87775" lon="2.43195">
        <ele>0.80000000000001</ele>
        <time>2023-08-05T10:01:36Z</time>
      </trkpt>
      <trkpt lat="50.87737" lon="2.43188">
        <ele>1.6</ele>
        <time>2023-08-05T10:01:46Z</time>
      </trkpt>
      <trkpt lat="50.87729" lon="2.43187">
        <ele>1.4</ele>
        <time>2023-08-05T10:01:48Z</time>
      </trkpt>
      <trkpt lat="50.87707" lon="2.43183">
        <ele>2</ele>
        <time>2023-08-05T10:01:54Z</time>
      </trkpt>
      <trkpt lat="50.87704" lon="2.43182">
        <ele>2.2</ele>
        <time>2023-08-05T10:01:55Z</time>
      </trkpt>
      <trkpt lat="50.877" lon="2.43181">
        <ele>2.4</ele>
        <time>2023-08-05T10:01:56Z</time>
      </trkpt>
      <trkpt lat="50.87692" lon="2.43179">
        <ele>2.6</ele>
        <time>2023-08-05T10:01:58Z</time>
      </trkpt>
      <trkpt lat="50.87677" lon="2.43175">
        <ele>3</ele>
        <time>2023-08-05T10:02:02Z</time>
      </trkpt>
      <trkpt lat="50.87642" lon="2.43167">
        <ele>3.6</ele>
        <time>2023-08-05T10:02:11Z</time>
      </trkpt>
      <trkpt lat="50.87631" lon="2.43166">
        <ele>3.8</ele>
        <time>2023-08-05T10:02:14Z</time>
      </trkpt>
      <trkpt lat="50.87583" lon="2.43161">
        <ele>4.4</ele>
        <time>2023-08-05T10:02:26Z</time>
      </trkpt>
      <trkpt lat="50.87555" lon="2.43166">
        <ele>4.4</ele>
        <time>2023-08-05T10:02:33Z</time>
      </trkpt>
      <trkpt lat="50.87547" lon="2.43171">
        <ele>4.4</ele>
        <time>2023-08-05T10:02:35Z</time>
      </trkpt>
      <trkpt lat="50.87544" lon="2.43174">
        <ele>4.4</ele>
        <time>2023-08-05T10:02:36Z</time>
      </trkpt>
      <trkpt lat="50.87526" lon="2.43189">
        <ele>5</ele>
        <time>2023-08-05T10:02:41Z</time>
      </trkpt>
      <trkpt lat="50.87509" lon="2.43204">
        <ele>5.6</ele>
        <time>2023-08-05T10:02:46Z</time>
      </trkpt>
      <trkpt lat="50.87496" lon="2.43214">
        <ele>5.6</ele>
        <time>2023-08-05T10:02:50Z</time>
      </trkpt>
      <trkpt lat="50.87493" lon="2.43217">
        <ele>5.6</ele>
        <time>2023-08-05T10:02:51Z</time>
      </trkpt>
      <trkpt lat="50.87489" lon="2.43219">
        <ele>5.6</ele>
        <time>2023-08-05T10:02:52Z</time>
      </trkpt>
      <trkpt lat="50.87486" lon="2.4322">
        <ele>5.6</ele>
        <time>2023-08-05T10:02:53Z</time>
      </trkpt>
      <trkpt lat="50.87483" lon="2.43222">
        <ele>5.6</ele>
        <time>2023-08-05T10:02:54Z</time>
      </trkpt>
      <trkpt lat="50.8748" lon="2.43224">
        <ele>5.6</ele>
        <time>2023-08-05T10:02:55Z</time>
      </trkpt>
      <trkpt lat="50.87476" lon="2.43226">
        <ele>5.6</ele>
        <time>2023-08-05T10:02:56Z</time>
      </trkpt>
      <trkpt lat="50.87473" lon="2.43228">
        <ele>5.6</ele>
        <time>2023-08-05T10:02:57Z</time>
      </trkpt>
      <trkpt lat="50.8747" lon="2.43231">
        <ele>5.6</ele>
        <time>2023-08-05T10:02:58Z</time>
      </trkpt>
      <trkpt lat="50.8746" lon="2.43237">
        <ele>5.6</ele>
        <time>2023-08-05T10:03:01Z</time>
      </trkpt>
      <trkpt lat="50.87457" lon="2.43239">
        <ele>5.8</ele>
        <time>2023-08-05T10:03:02Z</time>
      </trkpt>
      <trkpt lat="50.87448" lon="2.43246">
        <ele>6</ele>
        <time>2023-08-05T10:03:05Z</time>
      </trkpt>
      <trkpt lat="50.87444" lon="2.43249">
        <ele>6</ele>
        <time>2023-08-05T10:03:06Z</time>
      </trkpt>
      <trkpt lat="50.87441" lon="2.43251">
        <ele>6</ele>
        <time>2023-08-05T10:03:07Z</time>
      </trkpt>
      <trkpt lat="50.87429" lon="2.43261">
        <ele>6.2</ele>
        <time>2023-08-05T10:03:11Z</time>
      </trkpt>
      <trkpt lat="50.87426" lon="2.43263">
        <ele>6.2</ele>
        <time>2023-08-05T10:03:12Z</time>
      </trkpt>
      <trkpt lat="50.87423" lon="2.43266">
        <ele>6.4</ele>
        <time>2023-08-05T10:03:13Z</time>
      </trkpt>
      <trkpt lat="50.87413" lon="2.43273">
        <ele>6.6</ele>
        <time>2023-08-05T10:03:16Z</time>
      </trkpt>
      <trkpt lat="50.87404" lon="2.4328">
        <ele>6.8</ele>
        <time>2023-08-05T10:03:19Z</time>
      </trkpt>
      <trkpt lat="50.87381" lon="2.43297">
        <ele>7.2</ele>
        <time>2023-08-05T10:03:27Z</time>
      </trkpt>
      <trkpt lat="50.87375" lon="2.43302">
        <ele>7.2</ele>
        <time>2023-08-05T10:03:29Z</time>
      </trkpt>
      <trkpt lat="50.87372" lon="2.43305">
        <ele>7.2</ele>
        <time>2023-08-05T10:03:30Z</time>
      </trkpt>
      <trkpt lat="50.87363" lon="2.43312">
        <ele>7.4</ele>
        <time>2023-08-05T10:03:33Z</time>
      </trkpt>
      <trkpt lat="50.8736" lon="2.43314">
        <ele>7.4</ele>
        <time>2023-08-05T10:03:34Z</time>
      </trkpt>
      <trkpt lat="50.87348" lon="2.43323">
        <ele>7.6</ele>
        <time>2023-08-05T10:03:38Z</time>
      </trkpt>
      <trkpt lat="50.87339" lon="2.4333">
        <ele>7.6</ele>
        <time>2023-08-05T10:03:41Z</time>
      </trkpt>
      <trkpt lat="50.8732" lon="2.43349">
        <ele>7.8</ele>
        <time>2023-08-05T10:03:48Z</time>
      </trkpt>
      <trkpt lat="50.87288" lon="2.4338">
        <ele>8</ele>
        <time>2023-08-05T10:03:59Z</time>
      </trkpt>
      <trkpt lat="50.8728" lon="2.43389">
        <ele>8.2</ele>
        <time>2023-08-05T10:04:02Z</time>
      </trkpt>
      <trkpt lat="50.87277" lon="2.43392">
        <ele>8.2</ele>
        <time>2023-08-05T10:04:03Z</time>
      </trkpt>
      <trkpt lat="50.87274" lon="2.43395">
        <ele>8.4</ele>
        <time>2023-08-05T10:04:04Z</time>
      </trkpt>
      <trkpt lat="50.87257" lon="2.43412">
        <ele>8.6</ele>
        <time>2023-08-05T10:04:10Z</time>
      </trkpt>
      <trkpt lat="50.87252" lon="2.43418">
        <ele>8.4</ele>
        <time>2023-08-05T10:04:12Z</time>
      </trkpt>
      <trkpt lat="50.87246" lon="2.43424">
        <ele>8.4</ele>
        <time>2023-08-05T10:04:14Z</time>
      </trkpt>
      <trkpt lat="50.87232" lon="2.43438">
        <ele>8.4</ele>
        <time>2023-08-05T10:04:19Z</time>
      </trkpt>
      <trkpt lat="50.87227" lon="2.43443">
        <ele>8.6</ele>
        <time>2023-08-05T10:04:21Z</time>
      </trkpt>
      <trkpt lat="50.87221" lon="2.43449">
        <ele>8.4</ele>
        <time>2023-08-05T10:04:23Z</time>
      </trkpt>
      <trkpt lat="50.8719" lon="2.43481">
        <ele>8.4</ele>
        <time>2023-08-05T10:04:34Z</time>
      </trkpt>
      <trkpt lat="50.87167" lon="2.43504">
        <ele>7.6</ele>
        <time>2023-08-05T10:04:42Z</time>
      </trkpt>
      <trkpt lat="50.87165" lon="2.43507">
        <ele>7.4</ele>
        <time>2023-08-05T10:04:43Z</time>
      </trkpt>
      <trkpt lat="50.87162" lon="2.43509">
        <ele>7.2</ele>
        <time>2023-08-05T10:04:44Z</time>
      </trkpt>
      <trkpt lat="50.87159" lon="2.43511">
        <ele>7.2</ele>
        <time>2023-08-05T10:04:45Z</time>
      </trkpt>
      <trkpt lat="50.87144" lon="2.4352">
        <ele>6.6</ele>
        <time>2023-08-05T10:04:50Z</time>
      </trkpt>
      <trkpt lat="50.87138" lon="2.43524">
        <ele>6.2</ele>
        <time>2023-08-05T10:04:52Z</time>
      </trkpt>
      <trkpt lat="50.87135" lon="2.43525">
        <ele>6.2</ele>
        <time>2023-08-05T10:04:53Z</time>
      </trkpt>
      <trkpt lat="50.87127" lon="2.4353">
        <ele>5.6</ele>
        <time>2023-08-05T10:04:56Z</time>
      </trkpt>
      <trkpt lat="50.87117" lon="2.43536">
        <ele>5.2</ele>
        <time>2023-08-05T10:04:59Z</time>
      </trkpt>
      <trkpt lat="50.87115" lon="2.43537">
        <ele>5</ele>
        <time>2023-08-05T10:05:00Z</time>
      </trkpt>
      <trkpt lat="50.87111" lon="2.43538">
        <ele>5</ele>
        <time>2023-08-05T10:05:01Z</time>
      </trkpt>
      <trkpt lat="50.87108" lon="2.4354">
        <ele>5.2</ele>
        <time>2023-08-05T10:05:02Z</time>
      </trkpt>
      <trkpt lat="50.87092" lon="2.43547">
        <ele>4.6</ele>
        <time>2023-08-05T10:05:07Z</time>
      </trkpt>
      <trkpt lat="50.8709" lon="2.43548">
        <ele>4.4</ele>
        <time>2023-08-05T10:05:08Z</time>
      </trkpt>
      <trkpt lat="50.87087" lon="2.4355">
        <ele>4.4</ele>
        <time>2023-08-05T10:05:09Z</time>
      </trkpt>
      <trkpt lat="50.8708" lon="2.43553">
        <ele>4.2</ele>
        <time>2023-08-05T10:05:12Z</time>
      </trkpt>
      <trkpt lat="50.87077" lon="2.43554">
        <ele>4.2</ele>
        <time>2023-08-05T10:05:13Z</time>
      </trkpt>
      <trkpt lat="50.87075" lon="2.43556">
        <ele>4.2</ele>
        <time>2023-08-05T10:05:14Z</time>
      </trkpt>
      <trkpt lat="50.87072" lon="2.43558">
        <ele>4</ele>
        <time>2023-08-05T10:05:15Z</time>
      </trkpt>
      <trkpt lat="50.8707" lon="2.43559">
        <ele>4</ele>
        <time>2023-08-05T10:05:16Z</time>
      </trkpt>
      <trkpt lat="50.87066" lon="2.43562">
        <ele>4</ele>
        <time>2023-08-05T10:05:17Z</time>
      </trkpt>
      <trkpt lat="50.87061" lon="2.43566">
        <ele>3.8</ele>
        <time>2023-08-05T10:05:19Z</time>
      </trkpt>
      <trkpt lat="50.87032" lon="2.43587">
        <ele>3.2</ele>
        <time>2023-08-05T10:05:28Z</time>
      </trkpt>
      <trkpt lat="50.87023" lon="2.43594">
        <ele>3</ele>
        <time>2023-08-05T10:05:31Z</time>
      </trkpt>
      <trkpt lat="50.87003" lon="2.43609">
        <ele>2.8</ele>
        <time>2023-08-05T10:05:37Z</time>
      </trkpt>
      <trkpt lat="50.86969" lon="2.43632">
        <ele>2.2</ele>
        <time>2023-08-05T10:05:47Z</time>
      </trkpt>
      <trkpt lat="50.86943" lon="2.43645">
        <ele>1.8</ele>
        <time>2023-08-05T10:05:55Z</time>
      </trkpt>
      <trkpt lat="50.86939" lon="2.43643">
        <ele>1.8</ele>
        <time>2023-08-05T10:05:56Z</time>
      </trkpt>
      <trkpt lat="50.86936" lon="2.4364">
        <ele>1.8</ele>
        <time>2023-08-05T10:05:57Z</time>
      </trkpt>
      <trkpt lat="50.86934" lon="2.43637">
        <ele>1.8</ele>
        <time>2023-08-05T10:05:58Z</time>
      </trkpt>
      <trkpt lat="50.86931" lon="2.43633">
        <ele>1.6</ele>
        <time>2023-08-05T10:05:59Z</time>
      </trkpt>
      <trkpt lat="50.86927" lon="2.4363">
        <ele>1.6</ele>
        <time>2023-08-05T10:06:00Z</time>
      </trkpt>
      <trkpt lat="50.86924" lon="2.43628">
        <ele>1.6</ele>
        <time>2023-08-05T10:06:01Z</time>
      </trkpt>
      <trkpt lat="50.86916" lon="2.43628">
        <ele>1.4</ele>
        <time>2023-08-05T10:06:03Z</time>
      </trkpt>
      <trkpt lat="50.86913" lon="2.43629">
        <ele>1.4</ele>
        <time>2023-08-05T10:06:04Z</time>
      </trkpt>
      <trkpt lat="50.86909" lon="2.43631">
        <ele>1.4</ele>
        <time>2023-08-05T10:06:05Z</time>
      </trkpt>
      <trkpt lat="50.86905" lon="2.43633">
        <ele>1.4</ele>
        <time>2023-08-05T10:06:06Z</time>
      </trkpt>
      <trkpt lat="50.86886" lon="2.43645">
        <ele>1.2</ele>
        <time>2023-08-05T10:06:11Z</time>
      </trkpt>
      <trkpt lat="50.86867" lon="2.43659">
        <ele>0.80000000000001</ele>
        <time>2023-08-05T10:06:16Z</time>
      </trkpt>
      <trkpt lat="50.86859" lon="2.43664">
        <ele>0.80000000000001</ele>
        <time>2023-08-05T10:06:18Z</time>
      </trkpt>
      <trkpt lat="50.86852" lon="2.43669">
        <ele>0.80000000000001</ele>
        <time>2023-08-05T10:06:20Z</time>
      </trkpt>
      <trkpt lat="50.86848" lon="2.43671">
        <ele>2.6</ele>
        <time>2023-08-05T10:06:21Z</time>
      </trkpt>
      <trkpt lat="50.86844" lon="2.43673">
        <ele>7.2</ele>
        <time>2023-08-05T10:06:22Z</time>
      </trkpt>
      <trkpt lat="50.8684" lon="2.43676">
        <ele>8.8</ele>
        <time>2023-08-05T10:06:23Z</time>
      </trkpt>
      <trkpt lat="50.86837" lon="2.43678">
        <ele>10.6</ele>
        <time>2023-08-05T10:06:24Z</time>
      </trkpt>
      <trkpt lat="50.86829" lon="2.43683">
        <ele>11.4</ele>
        <time>2023-08-05T10:06:26Z</time>
      </trkpt>
      <trkpt lat="50.86826" lon="2.43685">
        <ele>11.6</ele>
        <time>2023-08-05T10:06:27Z</time>
      </trkpt>
      <trkpt lat="50.86822" lon="2.43687">
        <ele>11.6</ele>
        <time>2023-08-05T10:06:28Z</time>
      </trkpt>
      <trkpt lat="50.86818" lon="2.43688">
        <ele>11.6</ele>
        <time>2023-08-05T10:06:29Z</time>
      </trkpt>
      <trkpt lat="50.86814" lon="2.43688">
        <ele>11.6</ele>
        <time>2023-08-05T10:06:30Z</time>
      </trkpt>
      <trkpt lat="50.86809" lon="2.43688">
        <ele>11.8</ele>
        <time>2023-08-05T10:06:31Z</time>
      </trkpt>
      <trkpt lat="50.86805" lon="2.43687">
        <ele>11.8</ele>
        <time>2023-08-05T10:06:32Z</time>
      </trkpt>
      <trkpt lat="50.86801" lon="2.43686">
        <ele>11.8</ele>
        <time>2023-08-05T10:06:33Z</time>
      </trkpt>
      <trkpt lat="50.86797" lon="2.43686">
        <ele>11.8</ele>
        <time>2023-08-05T10:06:34Z</time>
      </trkpt>
      <trkpt lat="50.86793" lon="2.43686">
        <ele>11.8</ele>
        <time>2023-08-05T10:06:35Z</time>
      </trkpt>
      <trkpt lat="50.86789" lon="2.43686">
        <ele>12</ele>
        <time>2023-08-05T10:06:36Z</time>
      </trkpt>
      <trkpt lat="50.86785" lon="2.43687">
        <ele>12</ele>
        <time>2023-08-05T10:06:37Z</time>
      </trkpt>
      <trkpt lat="50.86781" lon="2.43688">
        <ele>12</ele>
        <time>2023-08-05T10:06:38Z</time>
      </trkpt>
      <trkpt lat="50.86777" lon="2.4369">
        <ele>12</ele>
        <time>2023-08-05T10:06:39Z</time>
      </trkpt>
      <trkpt lat="50.86772" lon="2.43693">
        <ele>12.2</ele>
        <time>2023-08-05T10:06:40Z</time>
      </trkpt>
      <trkpt lat="50.86768" lon="2.43695">
        <ele>12.2</ele>
        <time>2023-08-05T10:06:41Z</time>
      </trkpt>
      <trkpt lat="50.86764" lon="2.43698">
        <ele>12.2</ele>
        <time>2023-08-05T10:06:42Z</time>
      </trkpt>
      <trkpt lat="50.8676" lon="2.43701">
        <ele>12.4</ele>
        <time>2023-08-05T10:06:43Z</time>
      </trkpt>
      <trkpt lat="50.86757" lon="2.43704">
        <ele>12.4</ele>
        <time>2023-08-05T10:06:44Z</time>
      </trkpt>
      <trkpt lat="50.86753" lon="2.43707">
        <ele>12.6</ele>
        <time>2023-08-05T10:06:45Z</time>
      </trkpt>
      <trkpt lat="50.86749" lon="2.4371">
        <ele>12.6</ele>
        <time>2023-08-05T10:06:46Z</time>
      </trkpt>
      <trkpt lat="50.86745" lon="2.43713">
        <ele>12.8</ele>
        <time>2023-08-05T10:06:47Z</time>
      </trkpt>
      <trkpt lat="50.86741" lon="2.43715">
        <ele>12.8</ele>
        <time>2023-08-05T10:06:48Z</time>
      </trkpt>
      <trkpt lat="50.86737" lon="2.43718">
        <ele>13</ele>
        <time>2023-08-05T10:06:49Z</time>
      </trkpt>
      <trkpt lat="50.86733" lon="2.43721">
        <ele>13.2</ele>
        <time>2023-08-05T10:06:50Z</time>
      </trkpt>
      <trkpt lat="50.8673" lon="2.43723">
        <ele>13.2</ele>
        <time>2023-08-05T10:06:51Z</time>
      </trkpt>
      <trkpt lat="50.86726" lon="2.43726">
        <ele>13.2</ele>
        <time>2023-08-05T10:06:52Z</time>
      </trkpt>
      <trkpt lat="50.86722" lon="2.43729">
        <ele>13.4</ele>
        <time>2023-08-05T10:06:53Z</time>
      </trkpt>
      <trkpt lat="50.86718" lon="2.43731">
        <ele>13.4</ele>
        <time>2023-08-05T10:06:54Z</time>
      </trkpt>
      <trkpt lat="50.86714" lon="2.43734">
        <ele>13.6</ele>
        <time>2023-08-05T10:06:55Z</time>
      </trkpt>
      <trkpt lat="50.8671" lon="2.43738">
        <ele>13.6</ele>
        <time>2023-08-05T10:06:56Z</time>
      </trkpt>
      <trkpt lat="50.86706" lon="2.43741">
        <ele>13.8</ele>
        <time>2023-08-05T10:06:57Z</time>
      </trkpt>
      <trkpt lat="50.86702" lon="2.43743">
        <ele>13.8</ele>
        <time>2023-08-05T10:06:58Z</time>
      </trkpt>
      <trkpt lat="50.86698" lon="2.43746">
        <ele>13.8</ele>
        <time>2023-08-05T10:06:59Z</time>
      </trkpt>
      <trkpt lat="50.86694" lon="2.43748">
        <ele>14</ele>
        <time>2023-08-05T10:07:00Z</time>
      </trkpt>
      <trkpt lat="50.8669" lon="2.43752">
        <ele>14</ele>
        <time>2023-08-05T10:07:01Z</time>
      </trkpt>
      <trkpt lat="50.86686" lon="2.43755">
        <ele>14</ele>
        <time>2023-08-05T10:07:02Z</time>
      </trkpt>
      <trkpt lat="50.86682" lon="2.43758">
        <ele>14.2</ele>
        <time>2023-08-05T10:07:03Z</time>
      </trkpt>
      <trkpt lat="50.86677" lon="2.43761">
        <ele>14.2</ele>
        <time>2023-08-05T10:07:04Z</time>
      </trkpt>
      <trkpt lat="50.86673" lon="2.43763">
        <ele>14.2</ele>
        <time>2023-08-05T10:07:05Z</time>
      </trkpt>
      <trkpt lat="50.86669" lon="2.43766">
        <ele>14.4</ele>
        <time>2023-08-05T10:07:06Z</time>
      </trkpt>
      <trkpt lat="50.86665" lon="2.43769">
        <ele>14.4</ele>
        <time>2023-08-05T10:07:07Z</time>
      </trkpt>
      <trkpt lat="50.86661" lon="2.43771">
        <ele>14.4</ele>
        <time>2023-08-05T10:07:08Z</time>
      </trkpt>
      <trkpt lat="50.86657" lon="2.43773">
        <ele>14.6</ele>
        <time>2023-08-05T10:07:09Z</time>
      </trkpt>
      <trkpt lat="50.86653" lon="2.43774">
        <ele>14.6</ele>
        <time>2023-08-05T10:07:10Z</time>
      </trkpt>
      <trkpt lat="50.86649" lon="2.43776">
        <ele>14.8</ele>
        <time>2023-08-05T10:07:11Z</time>
      </trkpt>
      <trkpt lat="50.8664" lon="2.43777">
        <ele>14.8</ele>
        <time>2023-08-05T10:07:13Z</time>
      </trkpt>
      <trkpt lat="50.86636" lon="2.43777">
        <ele>14.8</ele>
        <time>2023-08-05T10:07:14Z</time>
      </trkpt>
      <trkpt lat="50.86632" lon="2.43778">
        <ele>15</ele>
        <time>2023-08-05T10:07:15Z</time>
      </trkpt>
      <trkpt lat="50.86628" lon="2.4378">
        <ele>15</ele>
        <time>2023-08-05T10:07:16Z</time>
      </trkpt>
      <trkpt lat="50.86616" lon="2.43787">
        <ele>15.2</ele>
        <time>2023-08-05T10:07:19Z</time>
      </trkpt>
      <trkpt lat="50.86588" lon="2.43816">
        <ele>15.6</ele>
        <time>2023-08-05T10:07:27Z</time>
      </trkpt>
      <trkpt lat="50.86574" lon="2.43831">
        <ele>15.8</ele>
        <time>2023-08-05T10:07:31Z</time>
      </trkpt>
      <trkpt lat="50.86557" lon="2.4385">
        <ele>16.2</ele>
        <time>2023-08-05T10:07:36Z</time>
      </trkpt>
      <trkpt lat="50.86549" lon="2.43856">
        <ele>16.2</ele>
        <time>2023-08-05T10:07:38Z</time>
      </trkpt>
      <trkpt lat="50.86537" lon="2.4386">
        <ele>16.4</ele>
        <time>2023-08-05T10:07:41Z</time>
      </trkpt>
      <trkpt lat="50.86526" lon="2.43862">
        <ele>16.6</ele>
        <time>2023-08-05T10:07:44Z</time>
      </trkpt>
      <trkpt lat="50.86521" lon="2.43863">
        <ele>16.6</ele>
        <time>2023-08-05T10:07:45Z</time>
      </trkpt>
      <trkpt lat="50.86517" lon="2.43864">
        <ele>16.6</ele>
        <time>2023-08-05T10:07:46Z</time>
      </trkpt>
      <trkpt lat="50.86497" lon="2.43877">
        <ele>16.8</ele>
        <time>2023-08-05T10:07:51Z</time>
      </trkpt>
      <trkpt lat="50.86452" lon="2.43914">
        <ele>17.8</ele>
        <time>2023-08-05T10:08:03Z</time>
      </trkpt>
      <trkpt lat="50.86427" lon="2.43935">
        <ele>18</ele>
        <time>2023-08-05T10:08:10Z</time>
      </trkpt>
      <trkpt lat="50.8642" lon="2.43941">
        <ele>18</ele>
        <time>2023-08-05T10:08:12Z</time>
      </trkpt>
      <trkpt lat="50.86416" lon="2.43944">
        <ele>18</ele>
        <time>2023-08-05T10:08:13Z</time>
      </trkpt>
      <trkpt lat="50.86412" lon="2.43946">
        <ele>18.2</ele>
        <time>2023-08-05T10:08:14Z</time>
      </trkpt>
      <trkpt lat="50.86392" lon="2.43953">
        <ele>18.4</ele>
        <time>2023-08-05T10:08:19Z</time>
      </trkpt>
      <trkpt lat="50.86375" lon="2.43956">
        <ele>18.4</ele>
        <time>2023-08-05T10:08:23Z</time>
      </trkpt>
      <trkpt lat="50.86362" lon="2.43958">
        <ele>18.4</ele>
        <time>2023-08-05T10:08:26Z</time>
      </trkpt>
      <trkpt lat="50.86337" lon="2.43962">
        <ele>18.6</ele>
        <time>2023-08-05T10:08:32Z</time>
      </trkpt>
      <trkpt lat="50.86333" lon="2.43962">
        <ele>18.6</ele>
        <time>2023-08-05T10:08:33Z</time>
      </trkpt>
      <trkpt lat="50.86324" lon="2.43961">
        <ele>18.6</ele>
        <time>2023-08-05T10:08:35Z</time>
      </trkpt>
      <trkpt lat="50.8632" lon="2.43961">
        <ele>18.8</ele>
        <time>2023-08-05T10:08:36Z</time>
      </trkpt>
      <trkpt lat="50.86316" lon="2.43961">
        <ele>18.8</ele>
        <time>2023-08-05T10:08:37Z</time>
      </trkpt>
      <trkpt lat="50.86312" lon="2.43961">
        <ele>18.8</ele>
        <time>2023-08-05T10:08:38Z</time>
      </trkpt>
      <trkpt lat="50.86295" lon="2.43964">
        <ele>19</ele>
        <time>2023-08-05T10:08:42Z</time>
      </trkpt>
      <trkpt lat="50.86291" lon="2.43964">
        <ele>19</ele>
        <time>2023-08-05T10:08:43Z</time>
      </trkpt>
      <trkpt lat="50.86278" lon="2.43963">
        <ele>19</ele>
        <time>2023-08-05T10:08:46Z</time>
      </trkpt>
      <trkpt lat="50.86274" lon="2.43963">
        <ele>19.2</ele>
        <time>2023-08-05T10:08:47Z</time>
      </trkpt>
      <trkpt lat="50.86261" lon="2.43963">
        <ele>19.2</ele>
        <time>2023-08-05T10:08:50Z</time>
      </trkpt>
      <trkpt lat="50.86253" lon="2.43967">
        <ele>19.2</ele>
        <time>2023-08-05T10:08:52Z</time>
      </trkpt>
      <trkpt lat="50.86245" lon="2.43972">
        <ele>19.2</ele>
        <time>2023-08-05T10:08:54Z</time>
      </trkpt>
      <trkpt lat="50.86237" lon="2.43979">
        <ele>19.2</ele>
        <time>2023-08-05T10:08:56Z</time>
      </trkpt>
      <trkpt lat="50.86201" lon="2.44016">
        <ele>19.4</ele>
        <time>2023-08-05T10:09:05Z</time>
      </trkpt>
      <trkpt lat="50.86156" lon="2.44065">
        <ele>19.8</ele>
        <time>2023-08-05T10:09:16Z</time>
      </trkpt>
      <trkpt lat="50.86152" lon="2.44069">
        <ele>19.8</ele>
        <time>2023-08-05T10:09:17Z</time>
      </trkpt>
      <trkpt lat="50.86104" lon="2.44122">
        <ele>20</ele>
        <time>2023-08-05T10:09:28Z</time>
      </trkpt>
      <trkpt lat="50.861" lon="2.44126">
        <ele>20</ele>
        <time>2023-08-05T10:09:29Z</time>
      </trkpt>
      <trkpt lat="50.86054" lon="2.44176">
        <ele>19.4</ele>
        <time>2023-08-05T10:09:39Z</time>
      </trkpt>
      <trkpt lat="50.8605" lon="2.44182">
        <ele>19.2</ele>
        <time>2023-08-05T10:09:40Z</time>
      </trkpt>
      <trkpt lat="50.86014" lon="2.4422">
        <ele>18.2</ele>
        <time>2023-08-05T10:09:48Z</time>
      </trkpt>
      <trkpt lat="50.86005" lon="2.4423">
        <ele>18</ele>
        <time>2023-08-05T10:09:50Z</time>
      </trkpt>
      <trkpt lat="50.85985" lon="2.44254">
        <ele>17.4</ele>
        <time>2023-08-05T10:09:55Z</time>
      </trkpt>
      <trkpt lat="50.85981" lon="2.44257">
        <ele>17.2</ele>
        <time>2023-08-05T10:09:56Z</time>
      </trkpt>
      <trkpt lat="50.85977" lon="2.44257">
        <ele>17.2</ele>
        <time>2023-08-05T10:09:57Z</time>
      </trkpt>
      <trkpt lat="50.85974" lon="2.44255">
        <ele>17</ele>
        <time>2023-08-05T10:09:58Z</time>
      </trkpt>
      <trkpt lat="50.8597" lon="2.44252">
        <ele>17</ele>
        <time>2023-08-05T10:09:59Z</time>
      </trkpt>
      <trkpt lat="50.85967" lon="2.44247">
        <ele>16.8</ele>
        <time>2023-08-05T10:10:00Z</time>
      </trkpt>
      <trkpt lat="50.85965" lon="2.44242">
        <ele>16.8</ele>
        <time>2023-08-05T10:10:01Z</time>
      </trkpt>
      <trkpt lat="50.85962" lon="2.44236">
        <ele>16.6</ele>
        <time>2023-08-05T10:10:02Z</time>
      </trkpt>
      <trkpt lat="50.8596" lon="2.4423">
        <ele>16.4</ele>
        <time>2023-08-05T10:10:03Z</time>
      </trkpt>
      <trkpt lat="50.85957" lon="2.44224">
        <ele>16.4</ele>
        <time>2023-08-05T10:10:04Z</time>
      </trkpt>
      <trkpt lat="50.85955" lon="2.44218">
        <ele>16.2</ele>
        <time>2023-08-05T10:10:05Z</time>
      </trkpt>
      <trkpt lat="50.85929" lon="2.44167">
        <ele>15.2</ele>
        <time>2023-08-05T10:10:14Z</time>
      </trkpt>
      <trkpt lat="50.85926" lon="2.4416">
        <ele>15.2</ele>
        <time>2023-08-05T10:10:15Z</time>
      </trkpt>
      <trkpt lat="50.85906" lon="2.44123">
        <ele>14.6</ele>
        <time>2023-08-05T10:10:21Z</time>
      </trkpt>
      <trkpt lat="50.85894" lon="2.44098">
        <ele>14.2</ele>
        <time>2023-08-05T10:10:25Z</time>
      </trkpt>
      <trkpt lat="50.85878" lon="2.44068">
        <ele>13.8</ele>
        <time>2023-08-05T10:10:30Z</time>
      </trkpt>
      <trkpt lat="50.85874" lon="2.44063">
        <ele>13.8</ele>
        <time>2023-08-05T10:10:31Z</time>
      </trkpt>
      <trkpt lat="50.85848" lon="2.44024">
        <ele>13.2</ele>
        <time>2023-08-05T10:10:38Z</time>
      </trkpt>
      <trkpt lat="50.85841" lon="2.44012">
        <ele>13</ele>
        <time>2023-08-05T10:10:40Z</time>
      </trkpt>
      <trkpt lat="50.85824" lon="2.43985">
        <ele>12.8</ele>
        <time>2023-08-05T10:10:45Z</time>
      </trkpt>
      <trkpt lat="50.8582" lon="2.4398">
        <ele>12.6</ele>
        <time>2023-08-05T10:10:46Z</time>
      </trkpt>
      <trkpt lat="50.85817" lon="2.43975">
        <ele>12.6</ele>
        <time>2023-08-05T10:10:47Z</time>
      </trkpt>
      <trkpt lat="50.85806" lon="2.43958">
        <ele>12.4</ele>
        <time>2023-08-05T10:10:50Z</time>
      </trkpt>
      <trkpt lat="50.85803" lon="2.43953">
        <ele>12.2</ele>
        <time>2023-08-05T10:10:51Z</time>
      </trkpt>
      <trkpt lat="50.85776" lon="2.43917">
        <ele>11.8</ele>
        <time>2023-08-05T10:10:58Z</time>
      </trkpt>
      <trkpt lat="50.85768" lon="2.43912">
        <ele>11.6</ele>
        <time>2023-08-05T10:11:00Z</time>
      </trkpt>
      <trkpt lat="50.85759" lon="2.43907">
        <ele>11.6</ele>
        <time>2023-08-05T10:11:02Z</time>
      </trkpt>
      <trkpt lat="50.85756" lon="2.43904">
        <ele>11.6</ele>
        <time>2023-08-05T10:11:03Z</time>
      </trkpt>
      <trkpt lat="50.85752" lon="2.43901">
        <ele>11.4</ele>
        <time>2023-08-05T10:11:04Z</time>
      </trkpt>
      <trkpt lat="50.85748" lon="2.43896">
        <ele>11.4</ele>
        <time>2023-08-05T10:11:05Z</time>
      </trkpt>
      <trkpt lat="50.85745" lon="2.4389">
        <ele>11.4</ele>
        <time>2023-08-05T10:11:06Z</time>
      </trkpt>
      <trkpt lat="50.85742" lon="2.43884">
        <ele>11.2</ele>
        <time>2023-08-05T10:11:07Z</time>
      </trkpt>
      <trkpt lat="50.85739" lon="2.43879">
        <ele>11.2</ele>
        <time>2023-08-05T10:11:08Z</time>
      </trkpt>
      <trkpt lat="50.85736" lon="2.43873">
        <ele>11</ele>
        <time>2023-08-05T10:11:09Z</time>
      </trkpt>
      <trkpt lat="50.85733" lon="2.43867">
        <ele>11</ele>
        <time>2023-08-05T10:11:10Z</time>
      </trkpt>
      <trkpt lat="50.8572" lon="2.43835">
        <ele>10.6</ele>
        <time>2023-08-05T10:11:15Z</time>
      </trkpt>
      <trkpt lat="50.85703" lon="2.43799">
        <ele>10.2</ele>
        <time>2023-08-05T10:11:21Z</time>
      </trkpt>
      <trkpt lat="50.857" lon="2.43793">
        <ele>10</ele>
        <time>2023-08-05T10:11:22Z</time>
      </trkpt>
      <trkpt lat="50.85697" lon="2.43788">
        <ele>10</ele>
        <time>2023-08-05T10:11:23Z</time>
      </trkpt>
      <trkpt lat="50.85694" lon="2.43783">
        <ele>10</ele>
        <time>2023-08-05T10:11:24Z</time>
      </trkpt>
      <trkpt lat="50.8569" lon="2.43779">
        <ele>10</ele>
        <time>2023-08-05T10:11:25Z</time>
      </trkpt>
      <trkpt lat="50.85682" lon="2.43775">
        <ele>10</ele>
        <time>2023-08-05T10:11:27Z</time>
      </trkpt>
      <trkpt lat="50.85679" lon="2.43776">
        <ele>10</ele>
        <time>2023-08-05T10:11:28Z</time>
      </trkpt>
      <trkpt lat="50.85675" lon="2.43779">
        <ele>9.8</ele>
        <time>2023-08-05T10:11:29Z</time>
      </trkpt>
      <trkpt lat="50.85671" lon="2.43782">
        <ele>9.8</ele>
        <time>2023-08-05T10:11:30Z</time>
      </trkpt>
      <trkpt lat="50.85668" lon="2.43786">
        <ele>9.8</ele>
        <time>2023-08-05T10:11:31Z</time>
      </trkpt>
      <trkpt lat="50.85665" lon="2.43791">
        <ele>9.8</ele>
        <time>2023-08-05T10:11:32Z</time>
      </trkpt>
      <trkpt lat="50.85632" lon="2.4383">
        <ele>9.8</ele>
        <time>2023-08-05T10:11:41Z</time>
      </trkpt>
      <trkpt lat="50.85592" lon="2.43879">
        <ele>10.4</ele>
        <time>2023-08-05T10:11:52Z</time>
      </trkpt>
      <trkpt lat="50.85588" lon="2.43883">
        <ele>10.4</ele>
        <time>2023-08-05T10:11:53Z</time>
      </trkpt>
      <trkpt lat="50.85585" lon="2.43887">
        <ele>10.4</ele>
        <time>2023-08-05T10:11:54Z</time>
      </trkpt>
      <trkpt lat="50.85582" lon="2.43892">
        <ele>10.4</ele>
        <time>2023-08-05T10:11:55Z</time>
      </trkpt>
      <trkpt lat="50.85579" lon="2.43896">
        <ele>10.4</ele>
        <time>2023-08-05T10:11:56Z</time>
      </trkpt>
      <trkpt lat="50.85575" lon="2.439">
        <ele>10.4</ele>
        <time>2023-08-05T10:11:57Z</time>
      </trkpt>
      <trkpt lat="50.85572" lon="2.43905">
        <ele>10.4</ele>
        <time>2023-08-05T10:11:58Z</time>
      </trkpt>
      <trkpt lat="50.85569" lon="2.43909">
        <ele>10.4</ele>
        <time>2023-08-05T10:11:59Z</time>
      </trkpt>
      <trkpt lat="50.85565" lon="2.43913">
        <ele>10.4</ele>
        <time>2023-08-05T10:12:00Z</time>
      </trkpt>
      <trkpt lat="50.85562" lon="2.43917">
        <ele>10.2</ele>
        <time>2023-08-05T10:12:01Z</time>
      </trkpt>
      <trkpt lat="50.85559" lon="2.4392">
        <ele>10.2</ele>
        <time>2023-08-05T10:12:02Z</time>
      </trkpt>
      <trkpt lat="50.85556" lon="2.43924">
        <ele>10.2</ele>
        <time>2023-08-05T10:12:03Z</time>
      </trkpt>
      <trkpt lat="50.85552" lon="2.43928">
        <ele>10.2</ele>
        <time>2023-08-05T10:12:04Z</time>
      </trkpt>
      <trkpt lat="50.85539" lon="2.43944">
        <ele>10</ele>
        <time>2023-08-05T10:12:08Z</time>
      </trkpt>
      <trkpt lat="50.85525" lon="2.43961">
        <ele>9.8</ele>
        <time>2023-08-05T10:12:12Z</time>
      </trkpt>
      <trkpt lat="50.85518" lon="2.43968">
        <ele>9.6</ele>
        <time>2023-08-05T10:12:14Z</time>
      </trkpt>
      <trkpt lat="50.85505" lon="2.43982">
        <ele>9.2</ele>
        <time>2023-08-05T10:12:18Z</time>
      </trkpt>
      <trkpt lat="50.85502" lon="2.43984">
        <ele>9.2</ele>
        <time>2023-08-05T10:12:19Z</time>
      </trkpt>
      <trkpt lat="50.855" lon="2.43987">
        <ele>9</ele>
        <time>2023-08-05T10:12:20Z</time>
      </trkpt>
      <trkpt lat="50.85497" lon="2.4399">
        <ele>9</ele>
        <time>2023-08-05T10:12:21Z</time>
      </trkpt>
      <trkpt lat="50.85495" lon="2.43994">
        <ele>9</ele>
        <time>2023-08-05T10:12:22Z</time>
      </trkpt>
      <trkpt lat="50.85494" lon="2.43997">
        <ele>9</ele>
        <time>2023-08-05T10:12:23Z</time>
      </trkpt>
      <trkpt lat="50.85493" lon="2.44001">
        <ele>9</ele>
        <time>2023-08-05T10:12:24Z</time>
      </trkpt>
      <trkpt lat="50.85493" lon="2.44005">
        <ele>8.8</ele>
        <time>2023-08-05T10:12:25Z</time>
      </trkpt>
      <trkpt lat="50.85493" lon="2.44009">
        <ele>8.8</ele>
        <time>2023-08-05T10:12:26Z</time>
      </trkpt>
      <trkpt lat="50.85493" lon="2.44012">
        <ele>8.6</ele>
        <time>2023-08-05T10:12:27Z</time>
      </trkpt>
      <trkpt lat="50.85493" lon="2.44016">
        <ele>8.6</ele>
        <time>2023-08-05T10:12:28Z</time>
      </trkpt>
      <trkpt lat="50.85493" lon="2.44024">
        <ele>8.2</ele>
        <time>2023-08-05T10:12:31Z</time>
      </trkpt>
      <trkpt lat="50.85493" lon="2.44024">
        <ele>8.2</ele>
        <time>2023-08-05T10:12:32Z</time>
      </trkpt>
      <trkpt lat="50.85494" lon="2.44024">
        <ele>8.2</ele>
        <time>2023-08-05T10:12:33Z</time>
      </trkpt>
      <trkpt lat="50.85495" lon="2.44024">
        <ele>8.2</ele>
        <time>2023-08-05T10:12:34Z</time>
      </trkpt>
      <trkpt lat="50.85497" lon="2.4402">
        <ele>8</ele>
        <time>2023-08-05T10:12:36Z</time>
      </trkpt>
      <trkpt lat="50.85497" lon="2.44018">
        <ele>8</ele>
        <time>2023-08-05T10:12:37Z</time>
      </trkpt>
      <trkpt lat="50.85495" lon="2.44017">
        <ele>8</ele>
        <time>2023-08-05T10:12:38Z</time>
      </trkpt>
      <trkpt lat="50.85494" lon="2.44017">
        <ele>8</ele>
        <time>2023-08-05T10:12:39Z</time>
      </trkpt>
      <trkpt lat="50.85493" lon="2.44019">
        <ele>7.8</ele>
        <time>2023-08-05T10:12:40Z</time>
      </trkpt>
      <trkpt lat="50.85493" lon="2.44024">
        <ele>7.4</ele>
        <time>2023-08-05T10:12:43Z</time>
      </trkpt>
      <trkpt lat="50.85493" lon="2.44024">
        <ele>7.4</ele>
        <time>2023-08-05T10:12:44Z</time>
      </trkpt>
      <trkpt lat="50.85495" lon="2.44023">
        <ele>7.2</ele>
        <time>2023-08-05T10:12:46Z</time>
      </trkpt>
      <trkpt lat="50.85497" lon="2.44017">
        <ele>7</ele>
        <time>2023-08-05T10:12:48Z</time>
      </trkpt>
      <trkpt lat="50.85496" lon="2.44013">
        <ele>7</ele>
        <time>2023-08-05T10:12:49Z</time>
      </trkpt>
      <trkpt lat="50.85495" lon="2.44009">
        <ele>6.8</ele>
        <time>2023-08-05T10:12:50Z</time>
      </trkpt>
      <trkpt lat="50.85487" lon="2.43982">
        <ele>6</ele>
        <time>2023-08-05T10:12:56Z</time>
      </trkpt>
      <trkpt lat="50.85486" lon="2.43977">
        <ele>5.8</ele>
        <time>2023-08-05T10:12:57Z</time>
      </trkpt>
      <trkpt lat="50.85482" lon="2.4397">
        <ele>5.6</ele>
        <time>2023-08-05T10:12:59Z</time>
      </trkpt>
      <trkpt lat="50.8548" lon="2.4397">
        <ele>5.6</ele>
        <time>2023-08-05T10:13:00Z</time>
      </trkpt>
      <trkpt lat="50.85479" lon="2.43972">
        <ele>5.4</ele>
        <time>2023-08-05T10:13:01Z</time>
      </trkpt>
      <trkpt lat="50.85479" lon="2.43976">
        <ele>5.4</ele>
        <time>2023-08-05T10:13:02Z</time>
      </trkpt>
      <trkpt lat="50.8548" lon="2.4398">
        <ele>5.4</ele>
        <time>2023-08-05T10:13:03Z</time>
      </trkpt>
      <trkpt lat="50.85487" lon="2.44001">
        <ele>4.6</ele>
        <time>2023-08-05T10:13:08Z</time>
      </trkpt>
      <trkpt lat="50.85488" lon="2.44005">
        <ele>4.6</ele>
        <time>2023-08-05T10:13:09Z</time>
      </trkpt>
      <trkpt lat="50.85489" lon="2.44009">
        <ele>4.6</ele>
        <time>2023-08-05T10:13:10Z</time>
      </trkpt>
      <trkpt lat="50.8549" lon="2.44012">
        <ele>4.4</ele>
        <time>2023-08-05T10:13:11Z</time>
      </trkpt>
      <trkpt lat="50.85491" lon="2.44015">
        <ele>4.4</ele>
        <time>2023-08-05T10:13:12Z</time>
      </trkpt>
      <trkpt lat="50.85492" lon="2.44018">
        <ele>4.2</ele>
        <time>2023-08-05T10:13:13Z</time>
      </trkpt>
      <trkpt lat="50.85492" lon="2.4402">
        <ele>4.2</ele>
        <time>2023-08-05T10:13:14Z</time>
      </trkpt>
      <trkpt lat="50.85493" lon="2.44021">
        <ele>4</ele>
        <time>2023-08-05T10:13:15Z</time>
      </trkpt>
      <trkpt lat="50.85493" lon="2.44022">
        <ele>4</ele>
        <time>2023-08-05T10:13:16Z</time>
      </trkpt>
      <trkpt lat="50.85494" lon="2.44023">
        <ele>3.8</ele>
        <time>2023-08-05T10:13:17Z</time>
      </trkpt>
      <trkpt lat="50.85494" lon="2.44024">
        <ele>3.8</ele>
        <time>2023-08-05T10:13:18Z</time>
      </trkpt>
      <trkpt lat="50.85494" lon="2.44024">
        <ele>3.8</ele>
        <time>2023-08-05T10:13:19Z</time>
      </trkpt>
      <trkpt lat="50.85494" lon="2.44024">
        <ele>3.6</ele>
        <time>2023-08-05T10:13:20Z</time>
      </trkpt>
      <trkpt lat="50.85494" lon="2.44024">
        <ele>3.6</ele>
        <time>2023-08-05T10:13:21Z</time>
      </trkpt>
      <trkpt lat="50.85493" lon="2.44019">
        <ele>10.6</ele>
        <time>2023-08-05T10:19:08Z</time>
      </trkpt>
      <trkpt lat="50.85493" lon="2.44015">
        <ele>10.6</ele>
        <time>2023-08-05T10:19:09Z</time>
      </trkpt>
      <trkpt lat="50.8549" lon="2.43993">
        <ele>10</ele>
        <time>2023-08-05T10:19:15Z</time>
      </trkpt>
      <trkpt lat="50.85489" lon="2.43989">
        <ele>10</ele>
        <time>2023-08-05T10:19:16Z</time>
      </trkpt>
      <trkpt lat="50.85481" lon="2.43961">
        <ele>9.2</ele>
        <time>2023-08-05T10:19:23Z</time>
      </trkpt>
      <trkpt lat="50.8548" lon="2.43957">
        <ele>9</ele>
        <time>2023-08-05T10:19:24Z</time>
      </trkpt>
      <trkpt lat="50.85469" lon="2.43931">
        <ele>8.4</ele>
        <time>2023-08-05T10:19:31Z</time>
      </trkpt>
      <trkpt lat="50.85464" lon="2.43919">
        <ele>8.2</ele>
        <time>2023-08-05T10:19:34Z</time>
      </trkpt>
      <trkpt lat="50.85456" lon="2.43906">
        <ele>8</ele>
        <time>2023-08-05T10:19:38Z</time>
      </trkpt>
      <trkpt lat="50.85449" lon="2.439">
        <ele>7.8</ele>
        <time>2023-08-05T10:19:41Z</time>
      </trkpt>
      <trkpt lat="50.85446" lon="2.43899">
        <ele>7.6</ele>
        <time>2023-08-05T10:19:42Z</time>
      </trkpt>
      <trkpt lat="50.85444" lon="2.439">
        <ele>7.6</ele>
        <time>2023-08-05T10:19:43Z</time>
      </trkpt>
      <trkpt lat="50.85441" lon="2.43901">
        <ele>7.6</ele>
        <time>2023-08-05T10:19:44Z</time>
      </trkpt>
      <trkpt lat="50.85438" lon="2.43902">
        <ele>7.4</ele>
        <time>2023-08-05T10:19:45Z</time>
      </trkpt>
      <trkpt lat="50.85436" lon="2.43903">
        <ele>7.4</ele>
        <time>2023-08-05T10:19:46Z</time>
      </trkpt>
      <trkpt lat="50.85428" lon="2.43909">
        <ele>7.2</ele>
        <time>2023-08-05T10:19:49Z</time>
      </trkpt>
      <trkpt lat="50.85422" lon="2.43915">
        <ele>7.2</ele>
        <time>2023-08-05T10:19:51Z</time>
      </trkpt>
      <trkpt lat="50.85405" lon="2.43935">
        <ele>6.8</ele>
        <time>2023-08-05T10:19:58Z</time>
      </trkpt>
      <trkpt lat="50.85396" lon="2.43946">
        <ele>6.6</ele>
        <time>2023-08-05T10:20:02Z</time>
      </trkpt>
      <trkpt lat="50.8539" lon="2.43953">
        <ele>6.6</ele>
        <time>2023-08-05T10:20:05Z</time>
      </trkpt>
      <trkpt lat="50.85388" lon="2.43956">
        <ele>6.6</ele>
        <time>2023-08-05T10:20:06Z</time>
      </trkpt>
      <trkpt lat="50.85386" lon="2.43958">
        <ele>6.6</ele>
        <time>2023-08-05T10:20:07Z</time>
      </trkpt>
      <trkpt lat="50.85384" lon="2.4396">
        <ele>6.6</ele>
        <time>2023-08-05T10:20:08Z</time>
      </trkpt>
      <trkpt lat="50.85382" lon="2.43962">
        <ele>6.6</ele>
        <time>2023-08-05T10:20:09Z</time>
      </trkpt>
      <trkpt lat="50.8538" lon="2.43964">
        <ele>6.6</ele>
        <time>2023-08-05T10:20:10Z</time>
      </trkpt>
      <trkpt lat="50.85379" lon="2.43966">
        <ele>6.6</ele>
        <time>2023-08-05T10:20:11Z</time>
      </trkpt>
      <trkpt lat="50.85378" lon="2.43969">
        <ele>6.6</ele>
        <time>2023-08-05T10:20:12Z</time>
      </trkpt>
      <trkpt lat="50.85377" lon="2.43973">
        <ele>6.6</ele>
        <time>2023-08-05T10:20:13Z</time>
      </trkpt>
      <trkpt lat="50.85377" lon="2.43977">
        <ele>6.6</ele>
        <time>2023-08-05T10:20:14Z</time>
      </trkpt>
      <trkpt lat="50.85378" lon="2.4398">
        <ele>6.6</ele>
        <time>2023-08-05T10:20:15Z</time>
      </trkpt>
      <trkpt lat="50.8538" lon="2.43981">
        <ele>6.6</ele>
        <time>2023-08-05T10:20:16Z</time>
      </trkpt>
      <trkpt lat="50.85382" lon="2.4398">
        <ele>6.6</ele>
        <time>2023-08-05T10:20:17Z</time>
      </trkpt>
      <trkpt lat="50.85383" lon="2.43977">
        <ele>6.6</ele>
        <time>2023-08-05T10:20:18Z</time>
      </trkpt>
      <trkpt lat="50.85383" lon="2.43973">
        <ele>6.6</ele>
        <time>2023-08-05T10:20:19Z</time>
      </trkpt>
      <trkpt lat="50.85385" lon="2.43961">
        <ele>6.6</ele>
        <time>2023-08-05T10:20:23Z</time>
      </trkpt>
      <trkpt lat="50.85387" lon="2.4396">
        <ele>6.6</ele>
        <time>2023-08-05T10:20:24Z</time>
      </trkpt>
      <trkpt lat="50.85405" lon="2.43942">
        <ele>6.4</ele>
        <time>2023-08-05T10:20:31Z</time>
      </trkpt>
      <trkpt lat="50.8542" lon="2.43926">
        <ele>6.2</ele>
        <time>2023-08-05T10:20:36Z</time>
      </trkpt>
      <trkpt lat="50.85432" lon="2.43915">
        <ele>6</ele>
        <time>2023-08-05T10:20:40Z</time>
      </trkpt>
      <trkpt lat="50.85442" lon="2.43909">
        <ele>6</ele>
        <time>2023-08-05T10:20:43Z</time>
      </trkpt>
      <trkpt lat="50.85446" lon="2.43909">
        <ele>6</ele>
        <time>2023-08-05T10:20:44Z</time>
      </trkpt>
      <trkpt lat="50.8545" lon="2.43911">
        <ele>6</ele>
        <time>2023-08-05T10:20:45Z</time>
      </trkpt>
      <trkpt lat="50.85453" lon="2.43914">
        <ele>6</ele>
        <time>2023-08-05T10:20:46Z</time>
      </trkpt>
      <trkpt lat="50.85457" lon="2.43918">
        <ele>6</ele>
        <time>2023-08-05T10:20:47Z</time>
      </trkpt>
      <trkpt lat="50.85459" lon="2.43923">
        <ele>6</ele>
        <time>2023-08-05T10:20:48Z</time>
      </trkpt>
      <trkpt lat="50.85462" lon="2.43928">
        <ele>6</ele>
        <time>2023-08-05T10:20:49Z</time>
      </trkpt>
      <trkpt lat="50.85464" lon="2.43933">
        <ele>6</ele>
        <time>2023-08-05T10:20:50Z</time>
      </trkpt>
      <trkpt lat="50.85474" lon="2.43959">
        <ele>5.6</ele>
        <time>2023-08-05T10:20:55Z</time>
      </trkpt>
      <trkpt lat="50.85476" lon="2.43967">
        <ele>5.6</ele>
        <time>2023-08-05T10:20:57Z</time>
      </trkpt>
      <trkpt lat="50.85478" lon="2.43969">
        <ele>5.6</ele>
        <time>2023-08-05T10:20:58Z</time>
      </trkpt>
      <trkpt lat="50.8548" lon="2.43969">
        <ele>5.6</ele>
        <time>2023-08-05T10:20:59Z</time>
      </trkpt>
      <trkpt lat="50.85481" lon="2.43967">
        <ele>5.6</ele>
        <time>2023-08-05T10:21:00Z</time>
      </trkpt>
      <trkpt lat="50.85481" lon="2.43963">
        <ele>5.6</ele>
        <time>2023-08-05T10:21:01Z</time>
      </trkpt>
      <trkpt lat="50.8548" lon="2.43959">
        <ele>5.4</ele>
        <time>2023-08-05T10:21:02Z</time>
      </trkpt>
      <trkpt lat="50.85468" lon="2.4393">
        <ele>5.4</ele>
        <time>2023-08-05T10:21:08Z</time>
      </trkpt>
      <trkpt lat="50.85466" lon="2.43925">
        <ele>5.4</ele>
        <time>2023-08-05T10:21:09Z</time>
      </trkpt>
      <trkpt lat="50.85449" lon="2.43903">
        <ele>5.6</ele>
        <time>2023-08-05T10:21:15Z</time>
      </trkpt>
      <trkpt lat="50.85445" lon="2.43902">
        <ele>5.8</ele>
        <time>2023-08-05T10:21:16Z</time>
      </trkpt>
      <trkpt lat="50.85441" lon="2.43903">
        <ele>5.8</ele>
        <time>2023-08-05T10:21:17Z</time>
      </trkpt>
      <trkpt lat="50.85437" lon="2.43905">
        <ele>6</ele>
        <time>2023-08-05T10:21:18Z</time>
      </trkpt>
      <trkpt lat="50.85434" lon="2.43907">
        <ele>6</ele>
        <time>2023-08-05T10:21:19Z</time>
      </trkpt>
      <trkpt lat="50.8543" lon="2.4391">
        <ele>6.4</ele>
        <time>2023-08-05T10:21:20Z</time>
      </trkpt>
      <trkpt lat="50.85427" lon="2.43913">
        <ele>6.4</ele>
        <time>2023-08-05T10:21:21Z</time>
      </trkpt>
      <trkpt lat="50.85411" lon="2.4393">
        <ele>7</ele>
        <time>2023-08-05T10:21:26Z</time>
      </trkpt>
      <trkpt lat="50.85408" lon="2.43933">
        <ele>7.2</ele>
        <time>2023-08-05T10:21:27Z</time>
      </trkpt>
      <trkpt lat="50.85382" lon="2.43958">
        <ele>8</ele>
        <time>2023-08-05T10:21:35Z</time>
      </trkpt>
      <trkpt lat="50.85372" lon="2.43966">
        <ele>8.2</ele>
        <time>2023-08-05T10:21:38Z</time>
      </trkpt>
      <trkpt lat="50.85345" lon="2.43976">
        <ele>8.2</ele>
        <time>2023-08-05T10:21:45Z</time>
      </trkpt>
      <trkpt lat="50.85309" lon="2.43979">
        <ele>8.4</ele>
        <time>2023-08-05T10:21:54Z</time>
      </trkpt>
      <trkpt lat="50.8528" lon="2.4398">
        <ele>8.4</ele>
        <time>2023-08-05T10:22:01Z</time>
      </trkpt>
      <trkpt lat="50.85275" lon="2.4398">
        <ele>8.6</ele>
        <time>2023-08-05T10:22:02Z</time>
      </trkpt>
      <trkpt lat="50.85228" lon="2.4398">
        <ele>8.8</ele>
        <time>2023-08-05T10:22:12Z</time>
      </trkpt>
      <trkpt lat="50.85192" lon="2.43983">
        <ele>9</ele>
        <time>2023-08-05T10:22:19Z</time>
      </trkpt>
      <trkpt lat="50.85182" lon="2.43982">
        <ele>9.2</ele>
        <time>2023-08-05T10:22:21Z</time>
      </trkpt>
      <trkpt lat="50.85171" lon="2.4398">
        <ele>9.2</ele>
        <time>2023-08-05T10:22:23Z</time>
      </trkpt>
      <trkpt lat="50.85156" lon="2.43972">
        <ele>9.4</ele>
        <time>2023-08-05T10:22:26Z</time>
      </trkpt>
      <trkpt lat="50.8513" lon="2.43945">
        <ele>9.8</ele>
        <time>2023-08-05T10:22:32Z</time>
      </trkpt>
      <trkpt lat="50.85122" lon="2.43935">
        <ele>10</ele>
        <time>2023-08-05T10:22:34Z</time>
      </trkpt>
      <trkpt lat="50.85109" lon="2.43921">
        <ele>10.2</ele>
        <time>2023-08-05T10:22:37Z</time>
      </trkpt>
      <trkpt lat="50.85105" lon="2.43916">
        <ele>10.2</ele>
        <time>2023-08-05T10:22:38Z</time>
      </trkpt>
      <trkpt lat="50.851" lon="2.43912">
        <ele>10.4</ele>
        <time>2023-08-05T10:22:39Z</time>
      </trkpt>
      <trkpt lat="50.85064" lon="2.43891">
        <ele>10.6</ele>
        <time>2023-08-05T10:22:46Z</time>
      </trkpt>
      <trkpt lat="50.85054" lon="2.4389">
        <ele>10.8</ele>
        <time>2023-08-05T10:22:48Z</time>
      </trkpt>
      <trkpt lat="50.85037" lon="2.43889">
        <ele>11</ele>
        <time>2023-08-05T10:22:51Z</time>
      </trkpt>
      <trkpt lat="50.85027" lon="2.43883">
        <ele>11</ele>
        <time>2023-08-05T10:22:53Z</time>
      </trkpt>
      <trkpt lat="50.85022" lon="2.43878">
        <ele>11.2</ele>
        <time>2023-08-05T10:22:54Z</time>
      </trkpt>
      <trkpt lat="50.85018" lon="2.43872">
        <ele>11.2</ele>
        <time>2023-08-05T10:22:55Z</time>
      </trkpt>
      <trkpt lat="50.85014" lon="2.43865">
        <ele>11.2</ele>
        <time>2023-08-05T10:22:56Z</time>
      </trkpt>
      <trkpt lat="50.8501" lon="2.43858">
        <ele>11.2</ele>
        <time>2023-08-05T10:22:57Z</time>
      </trkpt>
      <trkpt lat="50.85007" lon="2.4385">
        <ele>11.2</ele>
        <time>2023-08-05T10:22:58Z</time>
      </trkpt>
      <trkpt lat="50.84998" lon="2.43828">
        <ele>11.6</ele>
        <time>2023-08-05T10:23:01Z</time>
      </trkpt>
      <trkpt lat="50.8498" lon="2.43782">
        <ele>11.8</ele>
        <time>2023-08-05T10:23:07Z</time>
      </trkpt>
      <trkpt lat="50.84967" lon="2.43749">
        <ele>11.8</ele>
        <time>2023-08-05T10:23:11Z</time>
      </trkpt>
      <trkpt lat="50.84946" lon="2.4369">
        <ele>12.2</ele>
        <time>2023-08-05T10:23:18Z</time>
      </trkpt>
      <trkpt lat="50.84941" lon="2.43673">
        <ele>12.6</ele>
        <time>2023-08-05T10:23:20Z</time>
      </trkpt>
      <trkpt lat="50.84917" lon="2.43593">
        <ele>13.2</ele>
        <time>2023-08-05T10:23:29Z</time>
      </trkpt>
      <trkpt lat="50.84897" lon="2.43533">
        <ele>13.4</ele>
        <time>2023-08-05T10:23:36Z</time>
      </trkpt>
      <trkpt lat="50.84884" lon="2.43513">
        <ele>13.4</ele>
        <time>2023-08-05T10:23:39Z</time>
      </trkpt>
      <trkpt lat="50.84875" lon="2.43502">
        <ele>13.6</ele>
        <time>2023-08-05T10:23:41Z</time>
      </trkpt>
      <trkpt lat="50.8487" lon="2.43496">
        <ele>13.6</ele>
        <time>2023-08-05T10:23:42Z</time>
      </trkpt>
      <trkpt lat="50.84866" lon="2.4349">
        <ele>13.6</ele>
        <time>2023-08-05T10:23:43Z</time>
      </trkpt>
      <trkpt lat="50.84861" lon="2.43483">
        <ele>13.6</ele>
        <time>2023-08-05T10:23:44Z</time>
      </trkpt>
      <trkpt lat="50.84851" lon="2.4346">
        <ele>13.8</ele>
        <time>2023-08-05T10:23:47Z</time>
      </trkpt>
      <trkpt lat="50.84832" lon="2.43393">
        <ele>14.2</ele>
        <time>2023-08-05T10:23:55Z</time>
      </trkpt>
      <trkpt lat="50.84831" lon="2.43387">
        <ele>14.2</ele>
        <time>2023-08-05T10:23:56Z</time>
      </trkpt>
      <trkpt lat="50.84829" lon="2.43383">
        <ele>14.2</ele>
        <time>2023-08-05T10:23:57Z</time>
      </trkpt>
      <trkpt lat="50.84827" lon="2.4338">
        <ele>14.2</ele>
        <time>2023-08-05T10:23:58Z</time>
      </trkpt>
      <trkpt lat="50.84826" lon="2.43379">
        <ele>14.2</ele>
        <time>2023-08-05T10:23:59Z</time>
      </trkpt>
      <trkpt lat="50.84825" lon="2.43378">
        <ele>14.4</ele>
        <time>2023-08-05T10:24:00Z</time>
      </trkpt>
      <trkpt lat="50.84824" lon="2.43376">
        <ele>14.6</ele>
        <time>2023-08-05T10:24:01Z</time>
      </trkpt>
      <trkpt lat="50.84823" lon="2.43376">
        <ele>14.6</ele>
        <time>2023-08-05T10:24:02Z</time>
      </trkpt>
      <trkpt lat="50.84822" lon="2.43376">
        <ele>14.8</ele>
        <time>2023-08-05T10:24:03Z</time>
      </trkpt>
      <trkpt lat="50.8482" lon="2.43377">
        <ele>15</ele>
        <time>2023-08-05T10:24:04Z</time>
      </trkpt>
      <trkpt lat="50.84816" lon="2.4338">
        <ele>15.2</ele>
        <time>2023-08-05T10:24:06Z</time>
      </trkpt>
      <trkpt lat="50.84813" lon="2.43381">
        <ele>15.4</ele>
        <time>2023-08-05T10:24:07Z</time>
      </trkpt>
      <trkpt lat="50.84806" lon="2.4338">
        <ele>15.8</ele>
        <time>2023-08-05T10:24:09Z</time>
      </trkpt>
      <trkpt lat="50.84802" lon="2.43381">
        <ele>16</ele>
        <time>2023-08-05T10:24:10Z</time>
      </trkpt>
      <trkpt lat="50.84798" lon="2.43382">
        <ele>16</ele>
        <time>2023-08-05T10:24:11Z</time>
      </trkpt>
      <trkpt lat="50.84794" lon="2.43385">
        <ele>16.2</ele>
        <time>2023-08-05T10:24:12Z</time>
      </trkpt>
      <trkpt lat="50.84776" lon="2.43395">
        <ele>16.8</ele>
        <time>2023-08-05T10:24:16Z</time>
      </trkpt>
      <trkpt lat="50.84768" lon="2.43401">
        <ele>17</ele>
        <time>2023-08-05T10:24:18Z</time>
      </trkpt>
      <trkpt lat="50.84763" lon="2.43405">
        <ele>17.2</ele>
        <time>2023-08-05T10:24:19Z</time>
      </trkpt>
      <trkpt lat="50.84758" lon="2.43408">
        <ele>17.2</ele>
        <time>2023-08-05T10:24:20Z</time>
      </trkpt>
      <trkpt lat="50.84753" lon="2.4341">
        <ele>17.4</ele>
        <time>2023-08-05T10:24:21Z</time>
      </trkpt>
      <trkpt lat="50.8475" lon="2.43413">
        <ele>17.6</ele>
        <time>2023-08-05T10:24:22Z</time>
      </trkpt>
      <trkpt lat="50.84745" lon="2.43416">
        <ele>17.8</ele>
        <time>2023-08-05T10:24:23Z</time>
      </trkpt>
      <trkpt lat="50.84738" lon="2.4342">
        <ele>17.8</ele>
        <time>2023-08-05T10:24:24Z</time>
      </trkpt>
      <trkpt lat="50.84733" lon="2.43424">
        <ele>18</ele>
        <time>2023-08-05T10:24:25Z</time>
      </trkpt>
      <trkpt lat="50.84728" lon="2.43427">
        <ele>18.2</ele>
        <time>2023-08-05T10:24:26Z</time>
      </trkpt>
      <trkpt lat="50.84723" lon="2.4343">
        <ele>18.2</ele>
        <time>2023-08-05T10:24:27Z</time>
      </trkpt>
      <trkpt lat="50.84719" lon="2.43432">
        <ele>18.4</ele>
        <time>2023-08-05T10:24:28Z</time>
      </trkpt>
      <trkpt lat="50.84712" lon="2.43436">
        <ele>18.4</ele>
        <time>2023-08-05T10:24:29Z</time>
      </trkpt>
      <trkpt lat="50.84707" lon="2.43439">
        <ele>18.6</ele>
        <time>2023-08-05T10:24:30Z</time>
      </trkpt>
      <trkpt lat="50.84703" lon="2.43442">
        <ele>19</ele>
        <time>2023-08-05T10:24:31Z</time>
      </trkpt>
      <trkpt lat="50.84696" lon="2.43446">
        <ele>19</ele>
        <time>2023-08-05T10:24:32Z</time>
      </trkpt>
      <trkpt lat="50.84691" lon="2.4345">
        <ele>19.2</ele>
        <time>2023-08-05T10:24:33Z</time>
      </trkpt>
      <trkpt lat="50.84686" lon="2.43453">
        <ele>19.4</ele>
        <time>2023-08-05T10:24:34Z</time>
      </trkpt>
      <trkpt lat="50.84681" lon="2.43456">
        <ele>19.8</ele>
        <time>2023-08-05T10:24:35Z</time>
      </trkpt>
      <trkpt lat="50.84675" lon="2.43459">
        <ele>19.8</ele>
        <time>2023-08-05T10:24:36Z</time>
      </trkpt>
      <trkpt lat="50.8467" lon="2.43463">
        <ele>20</ele>
        <time>2023-08-05T10:24:37Z</time>
      </trkpt>
      <trkpt lat="50.84665" lon="2.43467">
        <ele>20</ele>
        <time>2023-08-05T10:24:38Z</time>
      </trkpt>
      <trkpt lat="50.84659" lon="2.4347">
        <ele>20</ele>
        <time>2023-08-05T10:24:39Z</time>
      </trkpt>
      <trkpt lat="50.84654" lon="2.43474">
        <ele>20.2</ele>
        <time>2023-08-05T10:24:40Z</time>
      </trkpt>
      <trkpt lat="50.84648" lon="2.43478">
        <ele>20.2</ele>
        <time>2023-08-05T10:24:41Z</time>
      </trkpt>
      <trkpt lat="50.84643" lon="2.43481">
        <ele>20.2</ele>
        <time>2023-08-05T10:24:42Z</time>
      </trkpt>
      <trkpt lat="50.84638" lon="2.43485">
        <ele>20.2</ele>
        <time>2023-08-05T10:24:43Z</time>
      </trkpt>
      <trkpt lat="50.84632" lon="2.43488">
        <ele>20.4</ele>
        <time>2023-08-05T10:24:44Z</time>
      </trkpt>
      <trkpt lat="50.84627" lon="2.43492">
        <ele>20.6</ele>
        <time>2023-08-05T10:24:45Z</time>
      </trkpt>
      <trkpt lat="50.84621" lon="2.43495">
        <ele>20.8</ele>
        <time>2023-08-05T10:24:46Z</time>
      </trkpt>
      <trkpt lat="50.84616" lon="2.43499">
        <ele>20.8</ele>
        <time>2023-08-05T10:24:47Z</time>
      </trkpt>
      <trkpt lat="50.8461" lon="2.43503">
        <ele>21.2</ele>
        <time>2023-08-05T10:24:48Z</time>
      </trkpt>
      <trkpt lat="50.84604" lon="2.43506">
        <ele>21.2</ele>
        <time>2023-08-05T10:24:49Z</time>
      </trkpt>
      <trkpt lat="50.84598" lon="2.4351">
        <ele>21.4</ele>
        <time>2023-08-05T10:24:50Z</time>
      </trkpt>
      <trkpt lat="50.84593" lon="2.43513">
        <ele>21.4</ele>
        <time>2023-08-05T10:24:51Z</time>
      </trkpt>
      <trkpt lat="50.84587" lon="2.43517">
        <ele>21.4</ele>
        <time>2023-08-05T10:24:52Z</time>
      </trkpt>
      <trkpt lat="50.84582" lon="2.43521">
        <ele>21.6</ele>
        <time>2023-08-05T10:24:53Z</time>
      </trkpt>
      <trkpt lat="50.84576" lon="2.43525">
        <ele>21.8</ele>
        <time>2023-08-05T10:24:54Z</time>
      </trkpt>
      <trkpt lat="50.8457" lon="2.43528">
        <ele>22</ele>
        <time>2023-08-05T10:24:55Z</time>
      </trkpt>
      <trkpt lat="50.84565" lon="2.43532">
        <ele>22.2</ele>
        <time>2023-08-05T10:24:56Z</time>
      </trkpt>
      <trkpt lat="50.8456" lon="2.43535">
        <ele>22.2</ele>
        <time>2023-08-05T10:24:57Z</time>
      </trkpt>
      <trkpt lat="50.84554" lon="2.43538">
        <ele>22.4</ele>
        <time>2023-08-05T10:24:58Z</time>
      </trkpt>
      <trkpt lat="50.84549" lon="2.43542">
        <ele>22.6</ele>
        <time>2023-08-05T10:24:59Z</time>
      </trkpt>
      <trkpt lat="50.84543" lon="2.43545">
        <ele>22.8</ele>
        <time>2023-08-05T10:25:00Z</time>
      </trkpt>
      <trkpt lat="50.84538" lon="2.43548">
        <ele>23</ele>
        <time>2023-08-05T10:25:01Z</time>
      </trkpt>
      <trkpt lat="50.84533" lon="2.43552">
        <ele>23</ele>
        <time>2023-08-05T10:25:02Z</time>
      </trkpt>
      <trkpt lat="50.84528" lon="2.43555">
        <ele>23.2</ele>
        <time>2023-08-05T10:25:03Z</time>
      </trkpt>
      <trkpt lat="50.84523" lon="2.43557">
        <ele>23.2</ele>
        <time>2023-08-05T10:25:04Z</time>
      </trkpt>
      <trkpt lat="50.84518" lon="2.43561">
        <ele>23.4</ele>
        <time>2023-08-05T10:25:05Z</time>
      </trkpt>
      <trkpt lat="50.84513" lon="2.43564">
        <ele>23.4</ele>
        <time>2023-08-05T10:25:06Z</time>
      </trkpt>
      <trkpt lat="50.84508" lon="2.43567">
        <ele>23.6</ele>
        <time>2023-08-05T10:25:07Z</time>
      </trkpt>
      <trkpt lat="50.84504" lon="2.4357">
        <ele>23.6</ele>
        <time>2023-08-05T10:25:08Z</time>
      </trkpt>
      <trkpt lat="50.84499" lon="2.43573">
        <ele>23.8</ele>
        <time>2023-08-05T10:25:09Z</time>
      </trkpt>
      <trkpt lat="50.84494" lon="2.43576">
        <ele>23.8</ele>
        <time>2023-08-05T10:25:10Z</time>
      </trkpt>
      <trkpt lat="50.8449" lon="2.43579">
        <ele>24.2</ele>
        <time>2023-08-05T10:25:11Z</time>
      </trkpt>
      <trkpt lat="50.84485" lon="2.43582">
        <ele>24.2</ele>
        <time>2023-08-05T10:25:12Z</time>
      </trkpt>
      <trkpt lat="50.8448" lon="2.43584">
        <ele>24.4</ele>
        <time>2023-08-05T10:25:13Z</time>
      </trkpt>
      <trkpt lat="50.84476" lon="2.43587">
        <ele>24.4</ele>
        <time>2023-08-05T10:25:14Z</time>
      </trkpt>
      <trkpt lat="50.84471" lon="2.4359">
        <ele>24.4</ele>
        <time>2023-08-05T10:25:15Z</time>
      </trkpt>
      <trkpt lat="50.84467" lon="2.43592">
        <ele>24.6</ele>
        <time>2023-08-05T10:25:16Z</time>
      </trkpt>
      <trkpt lat="50.84462" lon="2.43595">
        <ele>24.6</ele>
        <time>2023-08-05T10:25:17Z</time>
      </trkpt>
      <trkpt lat="50.84458" lon="2.43598">
        <ele>24.8</ele>
        <time>2023-08-05T10:25:18Z</time>
      </trkpt>
      <trkpt lat="50.84453" lon="2.43601">
        <ele>25</ele>
        <time>2023-08-05T10:25:19Z</time>
      </trkpt>
      <trkpt lat="50.84448" lon="2.43604">
        <ele>25</ele>
        <time>2023-08-05T10:25:20Z</time>
      </trkpt>
      <trkpt lat="50.84444" lon="2.43608">
        <ele>25.2</ele>
        <time>2023-08-05T10:25:21Z</time>
      </trkpt>
      <trkpt lat="50.84439" lon="2.43611">
        <ele>25.2</ele>
        <time>2023-08-05T10:25:22Z</time>
      </trkpt>
      <trkpt lat="50.84435" lon="2.43613">
        <ele>25.4</ele>
        <time>2023-08-05T10:25:23Z</time>
      </trkpt>
      <trkpt lat="50.8443" lon="2.43617">
        <ele>25.4</ele>
        <time>2023-08-05T10:25:24Z</time>
      </trkpt>
      <trkpt lat="50.84425" lon="2.4362">
        <ele>25.6</ele>
        <time>2023-08-05T10:25:25Z</time>
      </trkpt>
      <trkpt lat="50.84421" lon="2.43622">
        <ele>25.6</ele>
        <time>2023-08-05T10:25:26Z</time>
      </trkpt>
      <trkpt lat="50.84416" lon="2.43625">
        <ele>25.6</ele>
        <time>2023-08-05T10:25:27Z</time>
      </trkpt>
      <trkpt lat="50.84411" lon="2.43628">
        <ele>26</ele>
        <time>2023-08-05T10:25:28Z</time>
      </trkpt>
      <trkpt lat="50.84406" lon="2.43631">
        <ele>26</ele>
        <time>2023-08-05T10:25:29Z</time>
      </trkpt>
      <trkpt lat="50.84401" lon="2.43634">
        <ele>26.2</ele>
        <time>2023-08-05T10:25:30Z</time>
      </trkpt>
      <trkpt lat="50.84396" lon="2.43637">
        <ele>26.2</ele>
        <time>2023-08-05T10:25:31Z</time>
      </trkpt>
      <trkpt lat="50.84391" lon="2.4364">
        <ele>26.4</ele>
        <time>2023-08-05T10:25:32Z</time>
      </trkpt>
      <trkpt lat="50.84386" lon="2.43643">
        <ele>26.6</ele>
        <time>2023-08-05T10:25:33Z</time>
      </trkpt>
      <trkpt lat="50.84381" lon="2.43645">
        <ele>26.6</ele>
        <time>2023-08-05T10:25:34Z</time>
      </trkpt>
      <trkpt lat="50.84375" lon="2.43648">
        <ele>26.6</ele>
        <time>2023-08-05T10:25:35Z</time>
      </trkpt>
      <trkpt lat="50.8437" lon="2.43651">
        <ele>26.8</ele>
        <time>2023-08-05T10:25:36Z</time>
      </trkpt>
      <trkpt lat="50.84365" lon="2.43654">
        <ele>26.8</ele>
        <time>2023-08-05T10:25:37Z</time>
      </trkpt>
      <trkpt lat="50.8436" lon="2.43657">
        <ele>26.8</ele>
        <time>2023-08-05T10:25:38Z</time>
      </trkpt>
      <trkpt lat="50.84355" lon="2.4366">
        <ele>27</ele>
        <time>2023-08-05T10:25:39Z</time>
      </trkpt>
      <trkpt lat="50.8435" lon="2.43663">
        <ele>27</ele>
        <time>2023-08-05T10:25:40Z</time>
      </trkpt>
      <trkpt lat="50.84334" lon="2.43671">
        <ele>27.4</ele>
        <time>2023-08-05T10:25:43Z</time>
      </trkpt>
      <trkpt lat="50.84296" lon="2.43692">
        <ele>28.2</ele>
        <time>2023-08-05T10:25:51Z</time>
      </trkpt>
      <trkpt lat="50.8429" lon="2.43696">
        <ele>28.2</ele>
        <time>2023-08-05T10:25:52Z</time>
      </trkpt>
      <trkpt lat="50.84286" lon="2.437">
        <ele>28.4</ele>
        <time>2023-08-05T10:25:53Z</time>
      </trkpt>
      <trkpt lat="50.84282" lon="2.43703">
        <ele>28.4</ele>
        <time>2023-08-05T10:25:54Z</time>
      </trkpt>
      <trkpt lat="50.84278" lon="2.43706">
        <ele>28.4</ele>
        <time>2023-08-05T10:25:55Z</time>
      </trkpt>
      <trkpt lat="50.84273" lon="2.4371">
        <ele>28.4</ele>
        <time>2023-08-05T10:25:56Z</time>
      </trkpt>
      <trkpt lat="50.84268" lon="2.43714">
        <ele>28.4</ele>
        <time>2023-08-05T10:25:57Z</time>
      </trkpt>
      <trkpt lat="50.8425" lon="2.43726">
        <ele>28.8</ele>
        <time>2023-08-05T10:26:01Z</time>
      </trkpt>
      <trkpt lat="50.84217" lon="2.43751">
        <ele>29.2</ele>
        <time>2023-08-05T10:26:08Z</time>
      </trkpt>
      <trkpt lat="50.84203" lon="2.43761">
        <ele>29.6</ele>
        <time>2023-08-05T10:26:11Z</time>
      </trkpt>
      <trkpt lat="50.84158" lon="2.43796">
        <ele>30.4</ele>
        <time>2023-08-05T10:26:21Z</time>
      </trkpt>
      <trkpt lat="50.84146" lon="2.43806">
        <ele>30.8</ele>
        <time>2023-08-05T10:26:24Z</time>
      </trkpt>
      <trkpt lat="50.84137" lon="2.43812">
        <ele>31</ele>
        <time>2023-08-05T10:26:26Z</time>
      </trkpt>
      <trkpt lat="50.84133" lon="2.43815">
        <ele>31</ele>
        <time>2023-08-05T10:26:27Z</time>
      </trkpt>
      <trkpt lat="50.84129" lon="2.43817">
        <ele>31.2</ele>
        <time>2023-08-05T10:26:28Z</time>
      </trkpt>
      <trkpt lat="50.84125" lon="2.4382">
        <ele>31.2</ele>
        <time>2023-08-05T10:26:29Z</time>
      </trkpt>
      <trkpt lat="50.84121" lon="2.43823">
        <ele>31.2</ele>
        <time>2023-08-05T10:26:30Z</time>
      </trkpt>
      <trkpt lat="50.84117" lon="2.43826">
        <ele>31.2</ele>
        <time>2023-08-05T10:26:31Z</time>
      </trkpt>
      <trkpt lat="50.84113" lon="2.43828">
        <ele>31.4</ele>
        <time>2023-08-05T10:26:32Z</time>
      </trkpt>
      <trkpt lat="50.8411" lon="2.43831">
        <ele>31.4</ele>
        <time>2023-08-05T10:26:33Z</time>
      </trkpt>
      <trkpt lat="50.84106" lon="2.43834">
        <ele>31.6</ele>
        <time>2023-08-05T10:26:34Z</time>
      </trkpt>
      <trkpt lat="50.84102" lon="2.43836">
        <ele>31.6</ele>
        <time>2023-08-05T10:26:35Z</time>
      </trkpt>
      <trkpt lat="50.84099" lon="2.43839">
        <ele>31.8</ele>
        <time>2023-08-05T10:26:36Z</time>
      </trkpt>
      <trkpt lat="50.84095" lon="2.43842">
        <ele>32</ele>
        <time>2023-08-05T10:26:37Z</time>
      </trkpt>
      <trkpt lat="50.84091" lon="2.43844">
        <ele>32</ele>
        <time>2023-08-05T10:26:38Z</time>
      </trkpt>
      <trkpt lat="50.84053" lon="2.43871">
        <ele>32.8</ele>
        <time>2023-08-05T10:26:48Z</time>
      </trkpt>
      <trkpt lat="50.84041" lon="2.43879">
        <ele>33</ele>
        <time>2023-08-05T10:26:51Z</time>
      </trkpt>
      <trkpt lat="50.84019" lon="2.43894">
        <ele>33.2</ele>
        <time>2023-08-05T10:26:57Z</time>
      </trkpt>
      <trkpt lat="50.84015" lon="2.43896">
        <ele>33.2</ele>
        <time>2023-08-05T10:26:58Z</time>
      </trkpt>
      <trkpt lat="50.84009" lon="2.439">
        <ele>33.6</ele>
        <time>2023-08-05T10:27:00Z</time>
      </trkpt>
      <trkpt lat="50.84005" lon="2.43902">
        <ele>33.6</ele>
        <time>2023-08-05T10:27:01Z</time>
      </trkpt>
      <trkpt lat="50.84002" lon="2.43904">
        <ele>33.8</ele>
        <time>2023-08-05T10:27:02Z</time>
      </trkpt>
      <trkpt lat="50.83998" lon="2.43907">
        <ele>33.8</ele>
        <time>2023-08-05T10:27:03Z</time>
      </trkpt>
      <trkpt lat="50.83995" lon="2.43909">
        <ele>33.8</ele>
        <time>2023-08-05T10:27:04Z</time>
      </trkpt>
      <trkpt lat="50.83987" lon="2.43914">
        <ele>34</ele>
        <time>2023-08-05T10:27:06Z</time>
      </trkpt>
      <trkpt lat="50.83967" lon="2.4393">
        <ele>34.2</ele>
        <time>2023-08-05T10:27:11Z</time>
      </trkpt>
      <trkpt lat="50.83952" lon="2.4394">
        <ele>34.4</ele>
        <time>2023-08-05T10:27:15Z</time>
      </trkpt>
      <trkpt lat="50.83941" lon="2.43947">
        <ele>34.6</ele>
        <time>2023-08-05T10:27:18Z</time>
      </trkpt>
      <trkpt lat="50.83933" lon="2.43952">
        <ele>34.8</ele>
        <time>2023-08-05T10:27:20Z</time>
      </trkpt>
      <trkpt lat="50.83922" lon="2.4396">
        <ele>34.8</ele>
        <time>2023-08-05T10:27:23Z</time>
      </trkpt>
      <trkpt lat="50.83918" lon="2.43962">
        <ele>35</ele>
        <time>2023-08-05T10:27:24Z</time>
      </trkpt>
      <trkpt lat="50.83914" lon="2.43964">
        <ele>35</ele>
        <time>2023-08-05T10:27:25Z</time>
      </trkpt>
      <trkpt lat="50.83891" lon="2.4398">
        <ele>35.2</ele>
        <time>2023-08-05T10:27:31Z</time>
      </trkpt>
      <trkpt lat="50.83865" lon="2.43997">
        <ele>35.4</ele>
        <time>2023-08-05T10:27:38Z</time>
      </trkpt>
      <trkpt lat="50.83854" lon="2.44005">
        <ele>35.6</ele>
        <time>2023-08-05T10:27:41Z</time>
      </trkpt>
      <trkpt lat="50.8385" lon="2.44007">
        <ele>35.6</ele>
        <time>2023-08-05T10:27:42Z</time>
      </trkpt>
      <trkpt lat="50.83846" lon="2.4401">
        <ele>35.8</ele>
        <time>2023-08-05T10:27:43Z</time>
      </trkpt>
      <trkpt lat="50.83836" lon="2.44017">
        <ele>35.8</ele>
        <time>2023-08-05T10:27:46Z</time>
      </trkpt>
      <trkpt lat="50.83832" lon="2.44019">
        <ele>35.8</ele>
        <time>2023-08-05T10:27:47Z</time>
      </trkpt>
      <trkpt lat="50.83829" lon="2.44022">
        <ele>36</ele>
        <time>2023-08-05T10:27:48Z</time>
      </trkpt>
      <trkpt lat="50.83826" lon="2.44024">
        <ele>36</ele>
        <time>2023-08-05T10:27:49Z</time>
      </trkpt>
      <trkpt lat="50.83822" lon="2.44026">
        <ele>36</ele>
        <time>2023-08-05T10:27:50Z</time>
      </trkpt>
      <trkpt lat="50.83819" lon="2.44028">
        <ele>36</ele>
        <time>2023-08-05T10:27:51Z</time>
      </trkpt>
      <trkpt lat="50.83816" lon="2.44031">
        <ele>36</ele>
        <time>2023-08-05T10:27:52Z</time>
      </trkpt>
      <trkpt lat="50.83813" lon="2.44033">
        <ele>36</ele>
        <time>2023-08-05T10:27:53Z</time>
      </trkpt>
      <trkpt lat="50.83809" lon="2.44035">
        <ele>36.2</ele>
        <time>2023-08-05T10:27:54Z</time>
      </trkpt>
      <trkpt lat="50.83806" lon="2.44037">
        <ele>36.2</ele>
        <time>2023-08-05T10:27:55Z</time>
      </trkpt>
      <trkpt lat="50.83803" lon="2.44039">
        <ele>36.2</ele>
        <time>2023-08-05T10:27:56Z</time>
      </trkpt>
      <trkpt lat="50.83799" lon="2.44041">
        <ele>36.4</ele>
        <time>2023-08-05T10:27:57Z</time>
      </trkpt>
      <trkpt lat="50.83796" lon="2.44043">
        <ele>36.4</ele>
        <time>2023-08-05T10:27:58Z</time>
      </trkpt>
      <trkpt lat="50.83793" lon="2.44045">
        <ele>36.4</ele>
        <time>2023-08-05T10:27:59Z</time>
      </trkpt>
      <trkpt lat="50.83789" lon="2.44047">
        <ele>36.4</ele>
        <time>2023-08-05T10:28:00Z</time>
      </trkpt>
      <trkpt lat="50.83786" lon="2.44049">
        <ele>36.6</ele>
        <time>2023-08-05T10:28:01Z</time>
      </trkpt>
      <trkpt lat="50.8378" lon="2.44054">
        <ele>36.6</ele>
        <time>2023-08-05T10:28:03Z</time>
      </trkpt>
      <trkpt lat="50.83777" lon="2.44057">
        <ele>36.6</ele>
        <time>2023-08-05T10:28:04Z</time>
      </trkpt>
      <trkpt lat="50.8375" lon="2.44073">
        <ele>36.6</ele>
        <time>2023-08-05T10:28:12Z</time>
      </trkpt>
      <trkpt lat="50.83739" lon="2.44079">
        <ele>37.2</ele>
        <time>2023-08-05T10:28:15Z</time>
      </trkpt>
      <trkpt lat="50.83729" lon="2.44086">
        <ele>37.2</ele>
        <time>2023-08-05T10:28:18Z</time>
      </trkpt>
      <trkpt lat="50.83706" lon="2.44101">
        <ele>37.4</ele>
        <time>2023-08-05T10:28:25Z</time>
      </trkpt>
      <trkpt lat="50.83693" lon="2.44109">
        <ele>37.4</ele>
        <time>2023-08-05T10:28:29Z</time>
      </trkpt>
      <trkpt lat="50.83663" lon="2.44129">
        <ele>37.6</ele>
        <time>2023-08-05T10:28:38Z</time>
      </trkpt>
      <trkpt lat="50.83657" lon="2.44133">
        <ele>37.6</ele>
        <time>2023-08-05T10:28:40Z</time>
      </trkpt>
      <trkpt lat="50.83654" lon="2.44135">
        <ele>37.8</ele>
        <time>2023-08-05T10:28:41Z</time>
      </trkpt>
      <trkpt lat="50.8365" lon="2.44137">
        <ele>37.8</ele>
        <time>2023-08-05T10:28:42Z</time>
      </trkpt>
      <trkpt lat="50.83647" lon="2.44139">
        <ele>37.8</ele>
        <time>2023-08-05T10:28:43Z</time>
      </trkpt>
      <trkpt lat="50.83631" lon="2.44151">
        <ele>38</ele>
        <time>2023-08-05T10:28:48Z</time>
      </trkpt>
      <trkpt lat="50.83619" lon="2.44159">
        <ele>38</ele>
        <time>2023-08-05T10:28:52Z</time>
      </trkpt>
      <trkpt lat="50.83616" lon="2.44161">
        <ele>38</ele>
        <time>2023-08-05T10:28:53Z</time>
      </trkpt>
      <trkpt lat="50.83613" lon="2.44163">
        <ele>38</ele>
        <time>2023-08-05T10:28:54Z</time>
      </trkpt>
      <trkpt lat="50.8361" lon="2.44165">
        <ele>38</ele>
        <time>2023-08-05T10:28:55Z</time>
      </trkpt>
      <trkpt lat="50.83607" lon="2.44167">
        <ele>38</ele>
        <time>2023-08-05T10:28:56Z</time>
      </trkpt>
      <trkpt lat="50.83604" lon="2.44169">
        <ele>38</ele>
        <time>2023-08-05T10:28:57Z</time>
      </trkpt>
      <trkpt lat="50.83601" lon="2.44171">
        <ele>38</ele>
        <time>2023-08-05T10:28:58Z</time>
      </trkpt>
      <trkpt lat="50.83598" lon="2.44173">
        <ele>38</ele>
        <time>2023-08-05T10:28:59Z</time>
      </trkpt>
      <trkpt lat="50.83595" lon="2.44175">
        <ele>38</ele>
        <time>2023-08-05T10:29:00Z</time>
      </trkpt>
      <trkpt lat="50.83592" lon="2.44177">
        <ele>38</ele>
        <time>2023-08-05T10:29:01Z</time>
      </trkpt>
      <trkpt lat="50.8359" lon="2.44179">
        <ele>38.2</ele>
        <time>2023-08-05T10:29:02Z</time>
      </trkpt>
      <trkpt lat="50.83584" lon="2.44182">
        <ele>38.2</ele>
        <time>2023-08-05T10:29:04Z</time>
      </trkpt>
      <trkpt lat="50.83578" lon="2.44185">
        <ele>38</ele>
        <time>2023-08-05T10:29:06Z</time>
      </trkpt>
      <trkpt lat="50.83575" lon="2.44187">
        <ele>38.2</ele>
        <time>2023-08-05T10:29:07Z</time>
      </trkpt>
      <trkpt lat="50.83572" lon="2.44189">
        <ele>38.2</ele>
        <time>2023-08-05T10:29:08Z</time>
      </trkpt>
      <trkpt lat="50.83569" lon="2.44191">
        <ele>38.2</ele>
        <time>2023-08-05T10:29:09Z</time>
      </trkpt>
      <trkpt lat="50.83561" lon="2.44197">
        <ele>38.2</ele>
        <time>2023-08-05T10:29:12Z</time>
      </trkpt>
      <trkpt lat="50.83558" lon="2.44199">
        <ele>38.2</ele>
        <time>2023-08-05T10:29:13Z</time>
      </trkpt>
      <trkpt lat="50.8354" lon="2.4421">
        <ele>38.4</ele>
        <time>2023-08-05T10:29:19Z</time>
      </trkpt>
      <trkpt lat="50.83523" lon="2.44222">
        <ele>38.4</ele>
        <time>2023-08-05T10:29:25Z</time>
      </trkpt>
      <trkpt lat="50.83493" lon="2.4424">
        <ele>38.2</ele>
        <time>2023-08-05T10:29:35Z</time>
      </trkpt>
      <trkpt lat="50.83491" lon="2.44241">
        <ele>38.2</ele>
        <time>2023-08-05T10:29:36Z</time>
      </trkpt>
      <trkpt lat="50.83471" lon="2.44254">
        <ele>38.2</ele>
        <time>2023-08-05T10:29:43Z</time>
      </trkpt>
      <trkpt lat="50.83468" lon="2.44256">
        <ele>38.2</ele>
        <time>2023-08-05T10:29:44Z</time>
      </trkpt>
      <trkpt lat="50.83462" lon="2.4426">
        <ele>38.2</ele>
        <time>2023-08-05T10:29:46Z</time>
      </trkpt>
      <trkpt lat="50.83431" lon="2.44281">
        <ele>38.4</ele>
        <time>2023-08-05T10:29:57Z</time>
      </trkpt>
      <trkpt lat="50.83408" lon="2.44297">
        <ele>38.4</ele>
        <time>2023-08-05T10:30:05Z</time>
      </trkpt>
      <trkpt lat="50.83405" lon="2.44298">
        <ele>38.4</ele>
        <time>2023-08-05T10:30:06Z</time>
      </trkpt>
      <trkpt lat="50.83403" lon="2.443">
        <ele>38.4</ele>
        <time>2023-08-05T10:30:07Z</time>
      </trkpt>
      <trkpt lat="50.83385" lon="2.44313">
        <ele>38.4</ele>
        <time>2023-08-05T10:30:13Z</time>
      </trkpt>
      <trkpt lat="50.83356" lon="2.44331">
        <ele>38.4</ele>
        <time>2023-08-05T10:30:23Z</time>
      </trkpt>
      <trkpt lat="50.8333" lon="2.44348">
        <ele>38.2</ele>
        <time>2023-08-05T10:30:32Z</time>
      </trkpt>
      <trkpt lat="50.83303" lon="2.44366">
        <ele>38.2</ele>
        <time>2023-08-05T10:30:41Z</time>
      </trkpt>
      <trkpt lat="50.83288" lon="2.44376">
        <ele>38</ele>
        <time>2023-08-05T10:30:46Z</time>
      </trkpt>
      <trkpt lat="50.83271" lon="2.44388">
        <ele>38</ele>
        <time>2023-08-05T10:30:52Z</time>
      </trkpt>
      <trkpt lat="50.83268" lon="2.4439">
        <ele>38</ele>
        <time>2023-08-05T10:30:53Z</time>
      </trkpt>
      <trkpt lat="50.83265" lon="2.44391">
        <ele>38</ele>
        <time>2023-08-05T10:30:54Z</time>
      </trkpt>
      <trkpt lat="50.83245" lon="2.44405">
        <ele>38</ele>
        <time>2023-08-05T10:31:01Z</time>
      </trkpt>
      <trkpt lat="50.8321" lon="2.44426">
        <ele>37.8</ele>
        <time>2023-08-05T10:31:12Z</time>
      </trkpt>
      <trkpt lat="50.8319" lon="2.44439">
        <ele>37.8</ele>
        <time>2023-08-05T10:31:18Z</time>
      </trkpt>
      <trkpt lat="50.83179" lon="2.44446">
        <ele>37.8</ele>
        <time>2023-08-05T10:31:21Z</time>
      </trkpt>
      <trkpt lat="50.8314" lon="2.44471">
        <ele>37.6</ele>
        <time>2023-08-05T10:31:31Z</time>
      </trkpt>
      <trkpt lat="50.83111" lon="2.4449">
        <ele>37.4</ele>
        <time>2023-08-05T10:31:38Z</time>
      </trkpt>
      <trkpt lat="50.83069" lon="2.44518">
        <ele>37.2</ele>
        <time>2023-08-05T10:31:48Z</time>
      </trkpt>
      <trkpt lat="50.83018" lon="2.44551">
        <ele>37</ele>
        <time>2023-08-05T10:31:58Z</time>
      </trkpt>
      <trkpt lat="50.82966" lon="2.44586">
        <ele>36.8</ele>
        <time>2023-08-05T10:32:09Z</time>
      </trkpt>
      <trkpt lat="50.82951" lon="2.44595">
        <ele>36.6</ele>
        <time>2023-08-05T10:32:12Z</time>
      </trkpt>
      <trkpt lat="50.82941" lon="2.44601">
        <ele>36.8</ele>
        <time>2023-08-05T10:32:14Z</time>
      </trkpt>
      <trkpt lat="50.82894" lon="2.44633">
        <ele>36.6</ele>
        <time>2023-08-05T10:32:23Z</time>
      </trkpt>
      <trkpt lat="50.82856" lon="2.44658">
        <ele>36.4</ele>
        <time>2023-08-05T10:32:30Z</time>
      </trkpt>
      <trkpt lat="50.82801" lon="2.44696">
        <ele>36.2</ele>
        <time>2023-08-05T10:32:40Z</time>
      </trkpt>
      <trkpt lat="50.82749" lon="2.4473">
        <ele>36</ele>
        <time>2023-08-05T10:32:49Z</time>
      </trkpt>
      <trkpt lat="50.82743" lon="2.44733">
        <ele>36</ele>
        <time>2023-08-05T10:32:50Z</time>
      </trkpt>
      <trkpt lat="50.82732" lon="2.44741">
        <ele>36</ele>
        <time>2023-08-05T10:32:52Z</time>
      </trkpt>
      <trkpt lat="50.82727" lon="2.44744">
        <ele>36</ele>
        <time>2023-08-05T10:32:53Z</time>
      </trkpt>
      <trkpt lat="50.82721" lon="2.44748">
        <ele>36</ele>
        <time>2023-08-05T10:32:54Z</time>
      </trkpt>
      <trkpt lat="50.82716" lon="2.44751">
        <ele>36</ele>
        <time>2023-08-05T10:32:55Z</time>
      </trkpt>
      <trkpt lat="50.8271" lon="2.44754">
        <ele>36</ele>
        <time>2023-08-05T10:32:56Z</time>
      </trkpt>
      <trkpt lat="50.82705" lon="2.44758">
        <ele>36</ele>
        <time>2023-08-05T10:32:57Z</time>
      </trkpt>
      <trkpt lat="50.82705" lon="2.44758">
        <ele>36</ele>
        <time>2023-08-05T10:32:58Z</time>
      </trkpt>
      <trkpt lat="50.82694" lon="2.44766">
        <ele>35.8</ele>
        <time>2023-08-05T10:32:59Z</time>
      </trkpt>
      <trkpt lat="50.82688" lon="2.44769">
        <ele>35.8</ele>
        <time>2023-08-05T10:33:00Z</time>
      </trkpt>
      <trkpt lat="50.82683" lon="2.44773">
        <ele>35.8</ele>
        <time>2023-08-05T10:33:01Z</time>
      </trkpt>
      <trkpt lat="50.82643" lon="2.44798">
        <ele>35.6</ele>
        <time>2023-08-05T10:33:09Z</time>
      </trkpt>
      <trkpt lat="50.82591" lon="2.44833">
        <ele>35.4</ele>
        <time>2023-08-05T10:33:17Z</time>
      </trkpt>
      <trkpt lat="50.82573" lon="2.44844">
        <ele>35.2</ele>
        <time>2023-08-05T10:33:20Z</time>
      </trkpt>
      <trkpt lat="50.82525" lon="2.44872">
        <ele>35</ele>
        <time>2023-08-05T10:33:28Z</time>
      </trkpt>
      <trkpt lat="50.82519" lon="2.44875">
        <ele>35</ele>
        <time>2023-08-05T10:33:29Z</time>
      </trkpt>
      <trkpt lat="50.82513" lon="2.44878">
        <ele>35</ele>
        <time>2023-08-05T10:33:30Z</time>
      </trkpt>
      <trkpt lat="50.82507" lon="2.4488">
        <ele>35</ele>
        <time>2023-08-05T10:33:31Z</time>
      </trkpt>
      <trkpt lat="50.82501" lon="2.44883">
        <ele>35</ele>
        <time>2023-08-05T10:33:32Z</time>
      </trkpt>
      <trkpt lat="50.82495" lon="2.44886">
        <ele>34.8</ele>
        <time>2023-08-05T10:33:33Z</time>
      </trkpt>
      <trkpt lat="50.82489" lon="2.44889">
        <ele>34.8</ele>
        <time>2023-08-05T10:33:34Z</time>
      </trkpt>
      <trkpt lat="50.82484" lon="2.44892">
        <ele>34.8</ele>
        <time>2023-08-05T10:33:35Z</time>
      </trkpt>
      <trkpt lat="50.82479" lon="2.44895">
        <ele>34.8</ele>
        <time>2023-08-05T10:33:36Z</time>
      </trkpt>
      <trkpt lat="50.82474" lon="2.44898">
        <ele>34.8</ele>
        <time>2023-08-05T10:33:37Z</time>
      </trkpt>
      <trkpt lat="50.82469" lon="2.44901">
        <ele>34.8</ele>
        <time>2023-08-05T10:33:38Z</time>
      </trkpt>
      <trkpt lat="50.82464" lon="2.44905">
        <ele>34.8</ele>
        <time>2023-08-05T10:33:39Z</time>
      </trkpt>
      <trkpt lat="50.82459" lon="2.44908">
        <ele>34.8</ele>
        <time>2023-08-05T10:33:40Z</time>
      </trkpt>
      <trkpt lat="50.82455" lon="2.44912">
        <ele>34.8</ele>
        <time>2023-08-05T10:33:41Z</time>
      </trkpt>
      <trkpt lat="50.8245" lon="2.44916">
        <ele>34.8</ele>
        <time>2023-08-05T10:33:42Z</time>
      </trkpt>
      <trkpt lat="50.82445" lon="2.4492">
        <ele>34.8</ele>
        <time>2023-08-05T10:33:43Z</time>
      </trkpt>
      <trkpt lat="50.82441" lon="2.44924">
        <ele>34.8</ele>
        <time>2023-08-05T10:33:44Z</time>
      </trkpt>
      <trkpt lat="50.82436" lon="2.44927">
        <ele>34.8</ele>
        <time>2023-08-05T10:33:45Z</time>
      </trkpt>
      <trkpt lat="50.82432" lon="2.44931">
        <ele>34.8</ele>
        <time>2023-08-05T10:33:46Z</time>
      </trkpt>
      <trkpt lat="50.82427" lon="2.44935">
        <ele>34.6</ele>
        <time>2023-08-05T10:33:47Z</time>
      </trkpt>
      <trkpt lat="50.82423" lon="2.44939">
        <ele>34.6</ele>
        <time>2023-08-05T10:33:48Z</time>
      </trkpt>
      <trkpt lat="50.82419" lon="2.44942">
        <ele>34.6</ele>
        <time>2023-08-05T10:33:49Z</time>
      </trkpt>
      <trkpt lat="50.82415" lon="2.44945">
        <ele>34.6</ele>
        <time>2023-08-05T10:33:50Z</time>
      </trkpt>
      <trkpt lat="50.82415" lon="2.44945">
        <ele>34.6</ele>
        <time>2023-08-05T10:33:51Z</time>
      </trkpt>
      <trkpt lat="50.82407" lon="2.44951">
        <ele>34.6</ele>
        <time>2023-08-05T10:33:52Z</time>
      </trkpt>
      <trkpt lat="50.82403" lon="2.44954">
        <ele>34.6</ele>
        <time>2023-08-05T10:33:53Z</time>
      </trkpt>
      <trkpt lat="50.82391" lon="2.4496">
        <ele>34.6</ele>
        <time>2023-08-05T10:33:56Z</time>
      </trkpt>
      <trkpt lat="50.82387" lon="2.44962">
        <ele>34.6</ele>
        <time>2023-08-05T10:33:57Z</time>
      </trkpt>
      <trkpt lat="50.82383" lon="2.44965">
        <ele>34.4</ele>
        <time>2023-08-05T10:33:58Z</time>
      </trkpt>
      <trkpt lat="50.82379" lon="2.44967">
        <ele>34.4</ele>
        <time>2023-08-05T10:33:59Z</time>
      </trkpt>
      <trkpt lat="50.82379" lon="2.44967">
        <ele>34.4</ele>
        <time>2023-08-05T10:34:00Z</time>
      </trkpt>
      <trkpt lat="50.82371" lon="2.44971">
        <ele>34.6</ele>
        <time>2023-08-05T10:34:01Z</time>
      </trkpt>
      <trkpt lat="50.82368" lon="2.44973">
        <ele>34.6</ele>
        <time>2023-08-05T10:34:02Z</time>
      </trkpt>
      <trkpt lat="50.82364" lon="2.44976">
        <ele>34.6</ele>
        <time>2023-08-05T10:34:03Z</time>
      </trkpt>
      <trkpt lat="50.82348" lon="2.44985">
        <ele>34.4</ele>
        <time>2023-08-05T10:34:07Z</time>
      </trkpt>
      <trkpt lat="50.82344" lon="2.44987">
        <ele>34.4</ele>
        <time>2023-08-05T10:34:08Z</time>
      </trkpt>
      <trkpt lat="50.8234" lon="2.44989">
        <ele>34.4</ele>
        <time>2023-08-05T10:34:09Z</time>
      </trkpt>
      <trkpt lat="50.82337" lon="2.44991">
        <ele>34.4</ele>
        <time>2023-08-05T10:34:10Z</time>
      </trkpt>
      <trkpt lat="50.8232" lon="2.45002">
        <ele>34.4</ele>
        <time>2023-08-05T10:34:15Z</time>
      </trkpt>
      <trkpt lat="50.82316" lon="2.45004">
        <ele>34.2</ele>
        <time>2023-08-05T10:34:16Z</time>
      </trkpt>
      <trkpt lat="50.82313" lon="2.45006">
        <ele>34.2</ele>
        <time>2023-08-05T10:34:17Z</time>
      </trkpt>
      <trkpt lat="50.8231" lon="2.45008">
        <ele>34.2</ele>
        <time>2023-08-05T10:34:18Z</time>
      </trkpt>
      <trkpt lat="50.82306" lon="2.4501">
        <ele>34.2</ele>
        <time>2023-08-05T10:34:19Z</time>
      </trkpt>
      <trkpt lat="50.82303" lon="2.45012">
        <ele>34.2</ele>
        <time>2023-08-05T10:34:20Z</time>
      </trkpt>
      <trkpt lat="50.823" lon="2.45014">
        <ele>34.2</ele>
        <time>2023-08-05T10:34:21Z</time>
      </trkpt>
      <trkpt lat="50.82297" lon="2.45016">
        <ele>34.2</ele>
        <time>2023-08-05T10:34:22Z</time>
      </trkpt>
      <trkpt lat="50.82293" lon="2.45019">
        <ele>34.2</ele>
        <time>2023-08-05T10:34:23Z</time>
      </trkpt>
      <trkpt lat="50.8229" lon="2.45021">
        <ele>34.2</ele>
        <time>2023-08-05T10:34:24Z</time>
      </trkpt>
      <trkpt lat="50.82287" lon="2.45023">
        <ele>34.2</ele>
        <time>2023-08-05T10:34:25Z</time>
      </trkpt>
      <trkpt lat="50.82277" lon="2.45029">
        <ele>34.2</ele>
        <time>2023-08-05T10:34:28Z</time>
      </trkpt>
      <trkpt lat="50.82271" lon="2.45034">
        <ele>34</ele>
        <time>2023-08-05T10:34:30Z</time>
      </trkpt>
      <trkpt lat="50.82249" lon="2.45049">
        <ele>34</ele>
        <time>2023-08-05T10:34:37Z</time>
      </trkpt>
      <trkpt lat="50.82243" lon="2.45054">
        <ele>33.8</ele>
        <time>2023-08-05T10:34:39Z</time>
      </trkpt>
      <trkpt lat="50.82219" lon="2.4507">
        <ele>33.6</ele>
        <time>2023-08-05T10:34:47Z</time>
      </trkpt>
      <trkpt lat="50.82189" lon="2.45091">
        <ele>33.2</ele>
        <time>2023-08-05T10:34:54Z</time>
      </trkpt>
      <trkpt lat="50.82168" lon="2.45105">
        <ele>33.2</ele>
        <time>2023-08-05T10:34:59Z</time>
      </trkpt>
      <trkpt lat="50.82145" lon="2.4512">
        <ele>33</ele>
        <time>2023-08-05T10:35:04Z</time>
      </trkpt>
      <trkpt lat="50.82099" lon="2.45153">
        <ele>32.4</ele>
        <time>2023-08-05T10:35:15Z</time>
      </trkpt>
      <trkpt lat="50.82086" lon="2.45161">
        <ele>32.6</ele>
        <time>2023-08-05T10:35:17Z</time>
      </trkpt>
      <trkpt lat="50.82081" lon="2.45164">
        <ele>32.4</ele>
        <time>2023-08-05T10:35:18Z</time>
      </trkpt>
      <trkpt lat="50.82077" lon="2.45167">
        <ele>32.4</ele>
        <time>2023-08-05T10:35:19Z</time>
      </trkpt>
      <trkpt lat="50.82073" lon="2.45169">
        <ele>32.2</ele>
        <time>2023-08-05T10:35:20Z</time>
      </trkpt>
      <trkpt lat="50.82068" lon="2.45172">
        <ele>32.2</ele>
        <time>2023-08-05T10:35:21Z</time>
      </trkpt>
      <trkpt lat="50.82064" lon="2.45175">
        <ele>32.2</ele>
        <time>2023-08-05T10:35:22Z</time>
      </trkpt>
      <trkpt lat="50.8206" lon="2.45177">
        <ele>32.2</ele>
        <time>2023-08-05T10:35:23Z</time>
      </trkpt>
      <trkpt lat="50.8206" lon="2.45177">
        <ele>32.2</ele>
        <time>2023-08-05T10:35:24Z</time>
      </trkpt>
      <trkpt lat="50.82051" lon="2.45183">
        <ele>32.2</ele>
        <time>2023-08-05T10:35:25Z</time>
      </trkpt>
      <trkpt lat="50.82047" lon="2.45185">
        <ele>32.2</ele>
        <time>2023-08-05T10:35:26Z</time>
      </trkpt>
      <trkpt lat="50.82043" lon="2.45188">
        <ele>32.2</ele>
        <time>2023-08-05T10:35:27Z</time>
      </trkpt>
      <trkpt lat="50.82038" lon="2.4519">
        <ele>32.2</ele>
        <time>2023-08-05T10:35:28Z</time>
      </trkpt>
      <trkpt lat="50.82034" lon="2.45193">
        <ele>32.2</ele>
        <time>2023-08-05T10:35:29Z</time>
      </trkpt>
      <trkpt lat="50.8203" lon="2.45196">
        <ele>32</ele>
        <time>2023-08-05T10:35:30Z</time>
      </trkpt>
      <trkpt lat="50.82027" lon="2.45198">
        <ele>32</ele>
        <time>2023-08-05T10:35:31Z</time>
      </trkpt>
      <trkpt lat="50.82023" lon="2.452">
        <ele>31.8</ele>
        <time>2023-08-05T10:35:32Z</time>
      </trkpt>
      <trkpt lat="50.82019" lon="2.45202">
        <ele>31.8</ele>
        <time>2023-08-05T10:35:33Z</time>
      </trkpt>
      <trkpt lat="50.82015" lon="2.45205">
        <ele>31.8</ele>
        <time>2023-08-05T10:35:34Z</time>
      </trkpt>
      <trkpt lat="50.82011" lon="2.45207">
        <ele>31.8</ele>
        <time>2023-08-05T10:35:35Z</time>
      </trkpt>
      <trkpt lat="50.82007" lon="2.4521">
        <ele>31.8</ele>
        <time>2023-08-05T10:35:36Z</time>
      </trkpt>
      <trkpt lat="50.82003" lon="2.45212">
        <ele>31.8</ele>
        <time>2023-08-05T10:35:37Z</time>
      </trkpt>
      <trkpt lat="50.82003" lon="2.45212">
        <ele>31.8</ele>
        <time>2023-08-05T10:35:38Z</time>
      </trkpt>
      <trkpt lat="50.81996" lon="2.45217">
        <ele>31.8</ele>
        <time>2023-08-05T10:35:39Z</time>
      </trkpt>
      <trkpt lat="50.81984" lon="2.45225">
        <ele>31.6</ele>
        <time>2023-08-05T10:35:42Z</time>
      </trkpt>
      <trkpt lat="50.8198" lon="2.45228">
        <ele>31.6</ele>
        <time>2023-08-05T10:35:43Z</time>
      </trkpt>
      <trkpt lat="50.81977" lon="2.4523">
        <ele>31.6</ele>
        <time>2023-08-05T10:35:44Z</time>
      </trkpt>
      <trkpt lat="50.81973" lon="2.45233">
        <ele>31.6</ele>
        <time>2023-08-05T10:35:45Z</time>
      </trkpt>
      <trkpt lat="50.81969" lon="2.45235">
        <ele>31.6</ele>
        <time>2023-08-05T10:35:46Z</time>
      </trkpt>
      <trkpt lat="50.81966" lon="2.45238">
        <ele>31.6</ele>
        <time>2023-08-05T10:35:47Z</time>
      </trkpt>
      <trkpt lat="50.81962" lon="2.45241">
        <ele>31.4</ele>
        <time>2023-08-05T10:35:48Z</time>
      </trkpt>
      <trkpt lat="50.81959" lon="2.45243">
        <ele>31.4</ele>
        <time>2023-08-05T10:35:49Z</time>
      </trkpt>
      <trkpt lat="50.81955" lon="2.45246">
        <ele>31.4</ele>
        <time>2023-08-05T10:35:50Z</time>
      </trkpt>
      <trkpt lat="50.81952" lon="2.45248">
        <ele>31.4</ele>
        <time>2023-08-05T10:35:51Z</time>
      </trkpt>
      <trkpt lat="50.81952" lon="2.45248">
        <ele>31.4</ele>
        <time>2023-08-05T10:35:52Z</time>
      </trkpt>
      <trkpt lat="50.81945" lon="2.45254">
        <ele>31.4</ele>
        <time>2023-08-05T10:35:53Z</time>
      </trkpt>
      <trkpt lat="50.81942" lon="2.45257">
        <ele>31.4</ele>
        <time>2023-08-05T10:35:54Z</time>
      </trkpt>
      <trkpt lat="50.81938" lon="2.45259">
        <ele>31.4</ele>
        <time>2023-08-05T10:35:55Z</time>
      </trkpt>
      <trkpt lat="50.81935" lon="2.45261">
        <ele>31.4</ele>
        <time>2023-08-05T10:35:56Z</time>
      </trkpt>
      <trkpt lat="50.81931" lon="2.45264">
        <ele>31.4</ele>
        <time>2023-08-05T10:35:57Z</time>
      </trkpt>
      <trkpt lat="50.81928" lon="2.45266">
        <ele>31.4</ele>
        <time>2023-08-05T10:35:58Z</time>
      </trkpt>
      <trkpt lat="50.81921" lon="2.45271">
        <ele>31.4</ele>
        <time>2023-08-05T10:36:00Z</time>
      </trkpt>
      <trkpt lat="50.81918" lon="2.45274">
        <ele>31.4</ele>
        <time>2023-08-05T10:36:01Z</time>
      </trkpt>
      <trkpt lat="50.81911" lon="2.45279">
        <ele>31.4</ele>
        <time>2023-08-05T10:36:03Z</time>
      </trkpt>
      <trkpt lat="50.81907" lon="2.45281">
        <ele>31.4</ele>
        <time>2023-08-05T10:36:04Z</time>
      </trkpt>
      <trkpt lat="50.81904" lon="2.45283">
        <ele>31.4</ele>
        <time>2023-08-05T10:36:05Z</time>
      </trkpt>
      <trkpt lat="50.81904" lon="2.45283">
        <ele>31.2</ele>
        <time>2023-08-05T10:36:06Z</time>
      </trkpt>
      <trkpt lat="50.81894" lon="2.4529">
        <ele>31.2</ele>
        <time>2023-08-05T10:36:08Z</time>
      </trkpt>
      <trkpt lat="50.81891" lon="2.45293">
        <ele>31.2</ele>
        <time>2023-08-05T10:36:09Z</time>
      </trkpt>
      <trkpt lat="50.81888" lon="2.45295">
        <ele>31.2</ele>
        <time>2023-08-05T10:36:10Z</time>
      </trkpt>
      <trkpt lat="50.81884" lon="2.45298">
        <ele>31.2</ele>
        <time>2023-08-05T10:36:11Z</time>
      </trkpt>
      <trkpt lat="50.81881" lon="2.453">
        <ele>31.2</ele>
        <time>2023-08-05T10:36:12Z</time>
      </trkpt>
      <trkpt lat="50.81878" lon="2.45302">
        <ele>31.2</ele>
        <time>2023-08-05T10:36:13Z</time>
      </trkpt>
      <trkpt lat="50.81874" lon="2.45304">
        <ele>31.2</ele>
        <time>2023-08-05T10:36:14Z</time>
      </trkpt>
      <trkpt lat="50.81871" lon="2.45307">
        <ele>31.2</ele>
        <time>2023-08-05T10:36:15Z</time>
      </trkpt>
      <trkpt lat="50.81868" lon="2.45309">
        <ele>31.2</ele>
        <time>2023-08-05T10:36:16Z</time>
      </trkpt>
      <trkpt lat="50.81858" lon="2.45316">
        <ele>31.2</ele>
        <time>2023-08-05T10:36:19Z</time>
      </trkpt>
      <trkpt lat="50.81838" lon="2.45329">
        <ele>31</ele>
        <time>2023-08-05T10:36:25Z</time>
      </trkpt>
      <trkpt lat="50.81822" lon="2.4534">
        <ele>31</ele>
        <time>2023-08-05T10:36:30Z</time>
      </trkpt>
      <trkpt lat="50.81796" lon="2.45357">
        <ele>31</ele>
        <time>2023-08-05T10:36:38Z</time>
      </trkpt>
      <trkpt lat="50.81796" lon="2.45357">
        <ele>31</ele>
        <time>2023-08-05T10:36:39Z</time>
      </trkpt>
      <trkpt lat="50.81789" lon="2.45361">
        <ele>31</ele>
        <time>2023-08-05T10:36:40Z</time>
      </trkpt>
      <trkpt lat="50.81786" lon="2.45363">
        <ele>31</ele>
        <time>2023-08-05T10:36:41Z</time>
      </trkpt>
      <trkpt lat="50.81761" lon="2.45382">
        <ele>30.6</ele>
        <time>2023-08-05T10:36:49Z</time>
      </trkpt>
      <trkpt lat="50.81733" lon="2.45397">
        <ele>30.4</ele>
        <time>2023-08-05T10:36:57Z</time>
      </trkpt>
      <trkpt lat="50.81711" lon="2.45411">
        <ele>30.2</ele>
        <time>2023-08-05T10:37:04Z</time>
      </trkpt>
      <trkpt lat="50.81708" lon="2.45413">
        <ele>30.2</ele>
        <time>2023-08-05T10:37:05Z</time>
      </trkpt>
      <trkpt lat="50.81704" lon="2.45415">
        <ele>30.2</ele>
        <time>2023-08-05T10:37:06Z</time>
      </trkpt>
      <trkpt lat="50.81704" lon="2.45415">
        <ele>30.2</ele>
        <time>2023-08-05T10:37:07Z</time>
      </trkpt>
      <trkpt lat="50.81698" lon="2.45419">
        <ele>30.2</ele>
        <time>2023-08-05T10:37:08Z</time>
      </trkpt>
      <trkpt lat="50.81695" lon="2.4542">
        <ele>30.2</ele>
        <time>2023-08-05T10:37:09Z</time>
      </trkpt>
      <trkpt lat="50.81695" lon="2.4542">
        <ele>30.2</ele>
        <time>2023-08-05T10:37:10Z</time>
      </trkpt>
      <trkpt lat="50.81689" lon="2.45424">
        <ele>30.2</ele>
        <time>2023-08-05T10:37:11Z</time>
      </trkpt>
      <trkpt lat="50.81686" lon="2.45426">
        <ele>30.2</ele>
        <time>2023-08-05T10:37:12Z</time>
      </trkpt>
      <trkpt lat="50.81684" lon="2.45429">
        <ele>30.2</ele>
        <time>2023-08-05T10:37:13Z</time>
      </trkpt>
      <trkpt lat="50.81681" lon="2.4543">
        <ele>30.2</ele>
        <time>2023-08-05T10:37:14Z</time>
      </trkpt>
      <trkpt lat="50.81678" lon="2.45432">
        <ele>30.2</ele>
        <time>2023-08-05T10:37:15Z</time>
      </trkpt>
      <trkpt lat="50.81676" lon="2.45433">
        <ele>30.2</ele>
        <time>2023-08-05T10:37:16Z</time>
      </trkpt>
      <trkpt lat="50.81673" lon="2.45434">
        <ele>30.2</ele>
        <time>2023-08-05T10:37:17Z</time>
      </trkpt>
      <trkpt lat="50.8167" lon="2.45436">
        <ele>30.2</ele>
        <time>2023-08-05T10:37:18Z</time>
      </trkpt>
      <trkpt lat="50.81668" lon="2.45437">
        <ele>30.2</ele>
        <time>2023-08-05T10:37:19Z</time>
      </trkpt>
      <trkpt lat="50.81665" lon="2.45439">
        <ele>30.2</ele>
        <time>2023-08-05T10:37:20Z</time>
      </trkpt>
      <trkpt lat="50.81662" lon="2.4544">
        <ele>30.2</ele>
        <time>2023-08-05T10:37:21Z</time>
      </trkpt>
      <trkpt lat="50.8166" lon="2.45442">
        <ele>30.2</ele>
        <time>2023-08-05T10:37:22Z</time>
      </trkpt>
      <trkpt lat="50.81657" lon="2.45444">
        <ele>33.8</ele>
        <time>2023-08-05T10:37:23Z</time>
      </trkpt>
      <trkpt lat="50.81654" lon="2.45445">
        <ele>36.8</ele>
        <time>2023-08-05T10:37:24Z</time>
      </trkpt>
      <trkpt lat="50.81652" lon="2.45447">
        <ele>43</ele>
        <time>2023-08-05T10:37:25Z</time>
      </trkpt>
      <trkpt lat="50.81649" lon="2.45449">
        <ele>45.8</ele>
        <time>2023-08-05T10:37:26Z</time>
      </trkpt>
      <trkpt lat="50.81647" lon="2.45451">
        <ele>50.2</ele>
        <time>2023-08-05T10:37:27Z</time>
      </trkpt>
      <trkpt lat="50.81644" lon="2.45453">
        <ele>52.2</ele>
        <time>2023-08-05T10:37:28Z</time>
      </trkpt>
      <trkpt lat="50.81642" lon="2.45454">
        <ele>55.2</ele>
        <time>2023-08-05T10:37:29Z</time>
      </trkpt>
      <trkpt lat="50.81639" lon="2.45456">
        <ele>57.4</ele>
        <time>2023-08-05T10:37:30Z</time>
      </trkpt>
      <trkpt lat="50.81636" lon="2.45458">
        <ele>58.2</ele>
        <time>2023-08-05T10:37:31Z</time>
      </trkpt>
      <trkpt lat="50.81633" lon="2.45459">
        <ele>59.4</ele>
        <time>2023-08-05T10:37:32Z</time>
      </trkpt>
      <trkpt lat="50.8163" lon="2.45461">
        <ele>60</ele>
        <time>2023-08-05T10:37:33Z</time>
      </trkpt>
      <trkpt lat="50.81628" lon="2.45463">
        <ele>61</ele>
        <time>2023-08-05T10:37:34Z</time>
      </trkpt>
      <trkpt lat="50.81628" lon="2.45463">
        <ele>61.4</ele>
        <time>2023-08-05T10:37:35Z</time>
      </trkpt>
      <trkpt lat="50.8162" lon="2.45468">
        <ele>62.2</ele>
        <time>2023-08-05T10:37:37Z</time>
      </trkpt>
      <trkpt lat="50.81608" lon="2.45475">
        <ele>63.2</ele>
        <time>2023-08-05T10:37:41Z</time>
      </trkpt>
      <trkpt lat="50.81605" lon="2.45477">
        <ele>63.4</ele>
        <time>2023-08-05T10:37:42Z</time>
      </trkpt>
      <trkpt lat="50.81589" lon="2.4549">
        <ele>64.2</ele>
        <time>2023-08-05T10:37:49Z</time>
      </trkpt>
      <trkpt lat="50.81583" lon="2.45494">
        <ele>64.4</ele>
        <time>2023-08-05T10:37:50Z</time>
      </trkpt>
      <trkpt lat="50.8158" lon="2.45497">
        <ele>64.4</ele>
        <time>2023-08-05T10:37:51Z</time>
      </trkpt>
      <trkpt lat="50.8158" lon="2.45497">
        <ele>64.4</ele>
        <time>2023-08-05T10:37:52Z</time>
      </trkpt>
      <trkpt lat="50.81574" lon="2.45501">
        <ele>64.4</ele>
        <time>2023-08-05T10:37:53Z</time>
      </trkpt>
      <trkpt lat="50.81571" lon="2.45503">
        <ele>64.6</ele>
        <time>2023-08-05T10:37:54Z</time>
      </trkpt>
      <trkpt lat="50.81571" lon="2.45503">
        <ele>64.6</ele>
        <time>2023-08-05T10:37:55Z</time>
      </trkpt>
      <trkpt lat="50.81565" lon="2.45507">
        <ele>64.6</ele>
        <time>2023-08-05T10:37:56Z</time>
      </trkpt>
      <trkpt lat="50.81562" lon="2.45509">
        <ele>64.8</ele>
        <time>2023-08-05T10:37:57Z</time>
      </trkpt>
      <trkpt lat="50.81559" lon="2.45512">
        <ele>64.8</ele>
        <time>2023-08-05T10:37:58Z</time>
      </trkpt>
      <trkpt lat="50.81556" lon="2.45514">
        <ele>64.8</ele>
        <time>2023-08-05T10:37:59Z</time>
      </trkpt>
      <trkpt lat="50.81553" lon="2.45516">
        <ele>65</ele>
        <time>2023-08-05T10:38:00Z</time>
      </trkpt>
      <trkpt lat="50.8155" lon="2.45518">
        <ele>65.2</ele>
        <time>2023-08-05T10:38:01Z</time>
      </trkpt>
      <trkpt lat="50.81547" lon="2.45521">
        <ele>65.2</ele>
        <time>2023-08-05T10:38:02Z</time>
      </trkpt>
      <trkpt lat="50.81544" lon="2.45523">
        <ele>65.2</ele>
        <time>2023-08-05T10:38:03Z</time>
      </trkpt>
      <trkpt lat="50.81541" lon="2.45526">
        <ele>65.4</ele>
        <time>2023-08-05T10:38:04Z</time>
      </trkpt>
      <trkpt lat="50.81538" lon="2.45528">
        <ele>65.4</ele>
        <time>2023-08-05T10:38:05Z</time>
      </trkpt>
      <trkpt lat="50.81535" lon="2.4553">
        <ele>65.4</ele>
        <time>2023-08-05T10:38:06Z</time>
      </trkpt>
      <trkpt lat="50.81532" lon="2.45533">
        <ele>65.4</ele>
        <time>2023-08-05T10:38:07Z</time>
      </trkpt>
      <trkpt lat="50.81529" lon="2.45535">
        <ele>65.4</ele>
        <time>2023-08-05T10:38:08Z</time>
      </trkpt>
      <trkpt lat="50.81526" lon="2.45537">
        <ele>65.4</ele>
        <time>2023-08-05T10:38:09Z</time>
      </trkpt>
      <trkpt lat="50.81523" lon="2.45539">
        <ele>65.6</ele>
        <time>2023-08-05T10:38:10Z</time>
      </trkpt>
      <trkpt lat="50.8152" lon="2.4554">
        <ele>65.6</ele>
        <time>2023-08-05T10:38:11Z</time>
      </trkpt>
      <trkpt lat="50.8152" lon="2.4554">
        <ele>65.6</ele>
        <time>2023-08-05T10:38:12Z</time>
      </trkpt>
      <trkpt lat="50.81514" lon="2.45545">
        <ele>65.8</ele>
        <time>2023-08-05T10:38:13Z</time>
      </trkpt>
      <trkpt lat="50.81511" lon="2.45547">
        <ele>66</ele>
        <time>2023-08-05T10:38:14Z</time>
      </trkpt>
      <trkpt lat="50.81508" lon="2.45549">
        <ele>66</ele>
        <time>2023-08-05T10:38:15Z</time>
      </trkpt>
      <trkpt lat="50.81505" lon="2.45551">
        <ele>66.2</ele>
        <time>2023-08-05T10:38:16Z</time>
      </trkpt>
      <trkpt lat="50.81502" lon="2.45553">
        <ele>66.2</ele>
        <time>2023-08-05T10:38:17Z</time>
      </trkpt>
      <trkpt lat="50.815" lon="2.45554">
        <ele>66.4</ele>
        <time>2023-08-05T10:38:18Z</time>
      </trkpt>
      <trkpt lat="50.81498" lon="2.45556">
        <ele>66.4</ele>
        <time>2023-08-05T10:38:19Z</time>
      </trkpt>
      <trkpt lat="50.81496" lon="2.45557">
        <ele>66.4</ele>
        <time>2023-08-05T10:38:20Z</time>
      </trkpt>
      <trkpt lat="50.81495" lon="2.45557">
        <ele>66.4</ele>
        <time>2023-08-05T10:38:21Z</time>
      </trkpt>
      <trkpt lat="50.81494" lon="2.45558">
        <ele>66.6</ele>
        <time>2023-08-05T10:38:22Z</time>
      </trkpt>
      <trkpt lat="50.81493" lon="2.45559">
        <ele>66.8</ele>
        <time>2023-08-05T10:38:23Z</time>
      </trkpt>
      <trkpt lat="50.81492" lon="2.4556">
        <ele>66.8</ele>
        <time>2023-08-05T10:38:24Z</time>
      </trkpt>
      <trkpt lat="50.8149" lon="2.4556">
        <ele>67</ele>
        <time>2023-08-05T10:38:25Z</time>
      </trkpt>
      <trkpt lat="50.81485" lon="2.45563">
        <ele>67.2</ele>
        <time>2023-08-05T10:38:27Z</time>
      </trkpt>
      <trkpt lat="50.81483" lon="2.45564">
        <ele>67.2</ele>
        <time>2023-08-05T10:38:28Z</time>
      </trkpt>
      <trkpt lat="50.81464" lon="2.45576">
        <ele>67.4</ele>
        <time>2023-08-05T10:38:34Z</time>
      </trkpt>
      <trkpt lat="50.81464" lon="2.45576">
        <ele>67.4</ele>
        <time>2023-08-05T10:38:35Z</time>
      </trkpt>
      <trkpt lat="50.8144" lon="2.45592">
        <ele>67.8</ele>
        <time>2023-08-05T10:38:42Z</time>
      </trkpt>
      <trkpt lat="50.81436" lon="2.45594">
        <ele>67.8</ele>
        <time>2023-08-05T10:38:43Z</time>
      </trkpt>
      <trkpt lat="50.81405" lon="2.45617">
        <ele>68.2</ele>
        <time>2023-08-05T10:38:53Z</time>
      </trkpt>
      <trkpt lat="50.81391" lon="2.45631">
        <ele>68.6</ele>
        <time>2023-08-05T10:38:58Z</time>
      </trkpt>
      <trkpt lat="50.81379" lon="2.45644">
        <ele>68.8</ele>
        <time>2023-08-05T10:39:03Z</time>
      </trkpt>
      <trkpt lat="50.81374" lon="2.45649">
        <ele>69</ele>
        <time>2023-08-05T10:39:04Z</time>
      </trkpt>
      <trkpt lat="50.81371" lon="2.45653">
        <ele>69</ele>
        <time>2023-08-05T10:39:05Z</time>
      </trkpt>
      <trkpt lat="50.81348" lon="2.45686">
        <ele>69.8</ele>
        <time>2023-08-05T10:39:14Z</time>
      </trkpt>
      <trkpt lat="50.81346" lon="2.4569">
        <ele>69.8</ele>
        <time>2023-08-05T10:39:15Z</time>
      </trkpt>
      <trkpt lat="50.81321" lon="2.45737">
        <ele>70.4</ele>
        <time>2023-08-05T10:39:26Z</time>
      </trkpt>
      <trkpt lat="50.8131" lon="2.4576">
        <ele>71.2</ele>
        <time>2023-08-05T10:39:31Z</time>
      </trkpt>
      <trkpt lat="50.81299" lon="2.45782">
        <ele>71.4</ele>
        <time>2023-08-05T10:39:36Z</time>
      </trkpt>
      <trkpt lat="50.81283" lon="2.45814">
        <ele>72</ele>
        <time>2023-08-05T10:39:43Z</time>
      </trkpt>
      <trkpt lat="50.81277" lon="2.45828">
        <ele>72.2</ele>
        <time>2023-08-05T10:39:46Z</time>
      </trkpt>
      <trkpt lat="50.81273" lon="2.45837">
        <ele>72.4</ele>
        <time>2023-08-05T10:39:48Z</time>
      </trkpt>
      <trkpt lat="50.81254" lon="2.45873">
        <ele>72.8</ele>
        <time>2023-08-05T10:39:56Z</time>
      </trkpt>
      <trkpt lat="50.81239" lon="2.45905">
        <ele>73</ele>
        <time>2023-08-05T10:40:03Z</time>
      </trkpt>
      <trkpt lat="50.81236" lon="2.45909">
        <ele>73.2</ele>
        <time>2023-08-05T10:40:04Z</time>
      </trkpt>
      <trkpt lat="50.81232" lon="2.45918">
        <ele>73.4</ele>
        <time>2023-08-05T10:40:06Z</time>
      </trkpt>
      <trkpt lat="50.81219" lon="2.45945">
        <ele>73.6</ele>
        <time>2023-08-05T10:40:12Z</time>
      </trkpt>
      <trkpt lat="50.81219" lon="2.45945">
        <ele>73.6</ele>
        <time>2023-08-05T10:40:13Z</time>
      </trkpt>
      <trkpt lat="50.81204" lon="2.45976">
        <ele>74</ele>
        <time>2023-08-05T10:40:19Z</time>
      </trkpt>
      <trkpt lat="50.81184" lon="2.46017">
        <ele>74.8</ele>
        <time>2023-08-05T10:40:28Z</time>
      </trkpt>
      <trkpt lat="50.8118" lon="2.46026">
        <ele>74.8</ele>
        <time>2023-08-05T10:40:30Z</time>
      </trkpt>
      <trkpt lat="50.81164" lon="2.46058">
        <ele>75.2</ele>
        <time>2023-08-05T10:40:37Z</time>
      </trkpt>
      <trkpt lat="50.81141" lon="2.46103">
        <ele>76</ele>
        <time>2023-08-05T10:40:47Z</time>
      </trkpt>
      <trkpt lat="50.81139" lon="2.46108">
        <ele>76.2</ele>
        <time>2023-08-05T10:40:48Z</time>
      </trkpt>
      <trkpt lat="50.81113" lon="2.4616">
        <ele>77</ele>
        <time>2023-08-05T10:41:00Z</time>
      </trkpt>
      <trkpt lat="50.81111" lon="2.46164">
        <ele>77.2</ele>
        <time>2023-08-05T10:41:01Z</time>
      </trkpt>
      <trkpt lat="50.81109" lon="2.46168">
        <ele>77.2</ele>
        <time>2023-08-05T10:41:02Z</time>
      </trkpt>
      <trkpt lat="50.81107" lon="2.46172">
        <ele>77.2</ele>
        <time>2023-08-05T10:41:03Z</time>
      </trkpt>
      <trkpt lat="50.81105" lon="2.46176">
        <ele>77.2</ele>
        <time>2023-08-05T10:41:04Z</time>
      </trkpt>
      <trkpt lat="50.81104" lon="2.4618">
        <ele>77.2</ele>
        <time>2023-08-05T10:41:05Z</time>
      </trkpt>
      <trkpt lat="50.81102" lon="2.46184">
        <ele>77.4</ele>
        <time>2023-08-05T10:41:06Z</time>
      </trkpt>
      <trkpt lat="50.811" lon="2.46188">
        <ele>77.6</ele>
        <time>2023-08-05T10:41:07Z</time>
      </trkpt>
      <trkpt lat="50.81098" lon="2.46193">
        <ele>77.6</ele>
        <time>2023-08-05T10:41:08Z</time>
      </trkpt>
      <trkpt lat="50.81094" lon="2.46201">
        <ele>77.8</ele>
        <time>2023-08-05T10:41:10Z</time>
      </trkpt>
      <trkpt lat="50.81076" lon="2.46236">
        <ele>78.6</ele>
        <time>2023-08-05T10:41:19Z</time>
      </trkpt>
      <trkpt lat="50.81069" lon="2.46249">
        <ele>79</ele>
        <time>2023-08-05T10:41:23Z</time>
      </trkpt>
      <trkpt lat="50.81068" lon="2.46252">
        <ele>79.2</ele>
        <time>2023-08-05T10:41:24Z</time>
      </trkpt>
      <trkpt lat="50.81066" lon="2.46255">
        <ele>79.2</ele>
        <time>2023-08-05T10:41:25Z</time>
      </trkpt>
      <trkpt lat="50.81064" lon="2.46259">
        <ele>79.4</ele>
        <time>2023-08-05T10:41:26Z</time>
      </trkpt>
      <trkpt lat="50.81063" lon="2.46262">
        <ele>79.4</ele>
        <time>2023-08-05T10:41:27Z</time>
      </trkpt>
      <trkpt lat="50.81061" lon="2.46265">
        <ele>79.6</ele>
        <time>2023-08-05T10:41:28Z</time>
      </trkpt>
      <trkpt lat="50.81061" lon="2.46265">
        <ele>79.6</ele>
        <time>2023-08-05T10:41:29Z</time>
      </trkpt>
      <trkpt lat="50.81047" lon="2.46288">
        <ele>80.4</ele>
        <time>2023-08-05T10:41:36Z</time>
      </trkpt>
      <trkpt lat="50.81047" lon="2.46288">
        <ele>80.6</ele>
        <time>2023-08-05T10:41:37Z</time>
      </trkpt>
      <trkpt lat="50.81044" lon="2.46294">
        <ele>80.8</ele>
        <time>2023-08-05T10:41:38Z</time>
      </trkpt>
      <trkpt lat="50.81042" lon="2.46297">
        <ele>80.8</ele>
        <time>2023-08-05T10:41:39Z</time>
      </trkpt>
      <trkpt lat="50.81042" lon="2.46297">
        <ele>81</ele>
        <time>2023-08-05T10:41:40Z</time>
      </trkpt>
      <trkpt lat="50.81039" lon="2.46302">
        <ele>81.2</ele>
        <time>2023-08-05T10:41:41Z</time>
      </trkpt>
      <trkpt lat="50.81038" lon="2.46305">
        <ele>81.4</ele>
        <time>2023-08-05T10:41:42Z</time>
      </trkpt>
      <trkpt lat="50.81036" lon="2.46308">
        <ele>81.6</ele>
        <time>2023-08-05T10:41:43Z</time>
      </trkpt>
      <trkpt lat="50.81034" lon="2.4631">
        <ele>81.6</ele>
        <time>2023-08-05T10:41:44Z</time>
      </trkpt>
      <trkpt lat="50.81033" lon="2.46313">
        <ele>82</ele>
        <time>2023-08-05T10:41:45Z</time>
      </trkpt>
      <trkpt lat="50.81031" lon="2.46316">
        <ele>81.8</ele>
        <time>2023-08-05T10:41:46Z</time>
      </trkpt>
      <trkpt lat="50.81029" lon="2.46318">
        <ele>82.2</ele>
        <time>2023-08-05T10:41:47Z</time>
      </trkpt>
      <trkpt lat="50.81028" lon="2.46321">
        <ele>82.4</ele>
        <time>2023-08-05T10:41:48Z</time>
      </trkpt>
      <trkpt lat="50.81027" lon="2.46323">
        <ele>82.6</ele>
        <time>2023-08-05T10:41:49Z</time>
      </trkpt>
      <trkpt lat="50.81025" lon="2.46326">
        <ele>82.6</ele>
        <time>2023-08-05T10:41:50Z</time>
      </trkpt>
      <trkpt lat="50.81024" lon="2.46329">
        <ele>82.6</ele>
        <time>2023-08-05T10:41:51Z</time>
      </trkpt>
      <trkpt lat="50.81022" lon="2.46331">
        <ele>82.8</ele>
        <time>2023-08-05T10:41:52Z</time>
      </trkpt>
      <trkpt lat="50.8102" lon="2.46333">
        <ele>82.8</ele>
        <time>2023-08-05T10:41:53Z</time>
      </trkpt>
      <trkpt lat="50.81019" lon="2.46336">
        <ele>83</ele>
        <time>2023-08-05T10:41:54Z</time>
      </trkpt>
      <trkpt lat="50.81017" lon="2.46339">
        <ele>83.2</ele>
        <time>2023-08-05T10:41:55Z</time>
      </trkpt>
      <trkpt lat="50.81016" lon="2.46341">
        <ele>83.2</ele>
        <time>2023-08-05T10:41:56Z</time>
      </trkpt>
      <trkpt lat="50.81015" lon="2.46344">
        <ele>83.4</ele>
        <time>2023-08-05T10:41:57Z</time>
      </trkpt>
      <trkpt lat="50.81013" lon="2.46346">
        <ele>83.6</ele>
        <time>2023-08-05T10:41:58Z</time>
      </trkpt>
      <trkpt lat="50.81012" lon="2.46349">
        <ele>83.6</ele>
        <time>2023-08-05T10:41:59Z</time>
      </trkpt>
      <trkpt lat="50.8101" lon="2.46351">
        <ele>83.8</ele>
        <time>2023-08-05T10:42:00Z</time>
      </trkpt>
      <trkpt lat="50.81008" lon="2.46354">
        <ele>83.8</ele>
        <time>2023-08-05T10:42:01Z</time>
      </trkpt>
      <trkpt lat="50.81007" lon="2.46357">
        <ele>84.2</ele>
        <time>2023-08-05T10:42:02Z</time>
      </trkpt>
      <trkpt lat="50.81005" lon="2.46359">
        <ele>84.2</ele>
        <time>2023-08-05T10:42:03Z</time>
      </trkpt>
      <trkpt lat="50.81004" lon="2.46362">
        <ele>84.4</ele>
        <time>2023-08-05T10:42:04Z</time>
      </trkpt>
      <trkpt lat="50.81002" lon="2.46365">
        <ele>84.4</ele>
        <time>2023-08-05T10:42:05Z</time>
      </trkpt>
      <trkpt lat="50.81001" lon="2.46367">
        <ele>84.4</ele>
        <time>2023-08-05T10:42:06Z</time>
      </trkpt>
      <trkpt lat="50.80999" lon="2.46369">
        <ele>84.6</ele>
        <time>2023-08-05T10:42:07Z</time>
      </trkpt>
      <trkpt lat="50.80998" lon="2.46372">
        <ele>85</ele>
        <time>2023-08-05T10:42:08Z</time>
      </trkpt>
      <trkpt lat="50.80996" lon="2.46375">
        <ele>85</ele>
        <time>2023-08-05T10:42:09Z</time>
      </trkpt>
      <trkpt lat="50.80995" lon="2.46377">
        <ele>85.6</ele>
        <time>2023-08-05T10:42:10Z</time>
      </trkpt>
      <trkpt lat="50.80993" lon="2.4638">
        <ele>85.6</ele>
        <time>2023-08-05T10:42:11Z</time>
      </trkpt>
      <trkpt lat="50.80992" lon="2.46382">
        <ele>85.8</ele>
        <time>2023-08-05T10:42:12Z</time>
      </trkpt>
      <trkpt lat="50.8099" lon="2.46385">
        <ele>85.8</ele>
        <time>2023-08-05T10:42:13Z</time>
      </trkpt>
      <trkpt lat="50.80989" lon="2.46388">
        <ele>86.2</ele>
        <time>2023-08-05T10:42:14Z</time>
      </trkpt>
      <trkpt lat="50.80987" lon="2.4639">
        <ele>86.4</ele>
        <time>2023-08-05T10:42:15Z</time>
      </trkpt>
      <trkpt lat="50.80986" lon="2.46393">
        <ele>86.6</ele>
        <time>2023-08-05T10:42:16Z</time>
      </trkpt>
      <trkpt lat="50.80984" lon="2.46395">
        <ele>86.8</ele>
        <time>2023-08-05T10:42:17Z</time>
      </trkpt>
      <trkpt lat="50.80982" lon="2.46398">
        <ele>86.8</ele>
        <time>2023-08-05T10:42:18Z</time>
      </trkpt>
      <trkpt lat="50.80981" lon="2.464">
        <ele>87</ele>
        <time>2023-08-05T10:42:19Z</time>
      </trkpt>
      <trkpt lat="50.80979" lon="2.46403">
        <ele>87</ele>
        <time>2023-08-05T10:42:20Z</time>
      </trkpt>
      <trkpt lat="50.80977" lon="2.46405">
        <ele>87.2</ele>
        <time>2023-08-05T10:42:21Z</time>
      </trkpt>
      <trkpt lat="50.80977" lon="2.46405">
        <ele>87.4</ele>
        <time>2023-08-05T10:42:22Z</time>
      </trkpt>
      <trkpt lat="50.80974" lon="2.4641">
        <ele>87.4</ele>
        <time>2023-08-05T10:42:23Z</time>
      </trkpt>
      <trkpt lat="50.80972" lon="2.46413">
        <ele>87.6</ele>
        <time>2023-08-05T10:42:24Z</time>
      </trkpt>
      <trkpt lat="50.80971" lon="2.46416">
        <ele>88</ele>
        <time>2023-08-05T10:42:25Z</time>
      </trkpt>
      <trkpt lat="50.80969" lon="2.46418">
        <ele>88.2</ele>
        <time>2023-08-05T10:42:26Z</time>
      </trkpt>
      <trkpt lat="50.80968" lon="2.4642">
        <ele>88.2</ele>
        <time>2023-08-05T10:42:27Z</time>
      </trkpt>
      <trkpt lat="50.80968" lon="2.4642">
        <ele>88.4</ele>
        <time>2023-08-05T10:42:28Z</time>
      </trkpt>
      <trkpt lat="50.80964" lon="2.46425">
        <ele>88.6</ele>
        <time>2023-08-05T10:42:29Z</time>
      </trkpt>
      <trkpt lat="50.80963" lon="2.46428">
        <ele>88.6</ele>
        <time>2023-08-05T10:42:30Z</time>
      </trkpt>
      <trkpt lat="50.80961" lon="2.4643">
        <ele>88.8</ele>
        <time>2023-08-05T10:42:31Z</time>
      </trkpt>
      <trkpt lat="50.8096" lon="2.46433">
        <ele>89</ele>
        <time>2023-08-05T10:42:32Z</time>
      </trkpt>
      <trkpt lat="50.80958" lon="2.46435">
        <ele>89.2</ele>
        <time>2023-08-05T10:42:33Z</time>
      </trkpt>
      <trkpt lat="50.80956" lon="2.46437">
        <ele>89.4</ele>
        <time>2023-08-05T10:42:34Z</time>
      </trkpt>
      <trkpt lat="50.80955" lon="2.4644">
        <ele>89.6</ele>
        <time>2023-08-05T10:42:35Z</time>
      </trkpt>
      <trkpt lat="50.80953" lon="2.46442">
        <ele>89.8</ele>
        <time>2023-08-05T10:42:36Z</time>
      </trkpt>
      <trkpt lat="50.80951" lon="2.46443">
        <ele>90</ele>
        <time>2023-08-05T10:42:37Z</time>
      </trkpt>
      <trkpt lat="50.8095" lon="2.46446">
        <ele>90</ele>
        <time>2023-08-05T10:42:38Z</time>
      </trkpt>
      <trkpt lat="50.80948" lon="2.46447">
        <ele>90.2</ele>
        <time>2023-08-05T10:42:39Z</time>
      </trkpt>
      <trkpt lat="50.80947" lon="2.46449">
        <ele>90.6</ele>
        <time>2023-08-05T10:42:40Z</time>
      </trkpt>
      <trkpt lat="50.80945" lon="2.46451">
        <ele>90.6</ele>
        <time>2023-08-05T10:42:41Z</time>
      </trkpt>
      <trkpt lat="50.80943" lon="2.46453">
        <ele>90.8</ele>
        <time>2023-08-05T10:42:42Z</time>
      </trkpt>
      <trkpt lat="50.80942" lon="2.46455">
        <ele>90.8</ele>
        <time>2023-08-05T10:42:43Z</time>
      </trkpt>
      <trkpt lat="50.8094" lon="2.46458">
        <ele>91</ele>
        <time>2023-08-05T10:42:44Z</time>
      </trkpt>
      <trkpt lat="50.80939" lon="2.46459">
        <ele>91</ele>
        <time>2023-08-05T10:42:45Z</time>
      </trkpt>
      <trkpt lat="50.80937" lon="2.46461">
        <ele>91.2</ele>
        <time>2023-08-05T10:42:46Z</time>
      </trkpt>
      <trkpt lat="50.80936" lon="2.46463">
        <ele>91.4</ele>
        <time>2023-08-05T10:42:47Z</time>
      </trkpt>
      <trkpt lat="50.80934" lon="2.46464">
        <ele>91.4</ele>
        <time>2023-08-05T10:42:48Z</time>
      </trkpt>
      <trkpt lat="50.80932" lon="2.46466">
        <ele>91.4</ele>
        <time>2023-08-05T10:42:49Z</time>
      </trkpt>
      <trkpt lat="50.80931" lon="2.46467">
        <ele>91.6</ele>
        <time>2023-08-05T10:42:50Z</time>
      </trkpt>
      <trkpt lat="50.80929" lon="2.46469">
        <ele>91.6</ele>
        <time>2023-08-05T10:42:51Z</time>
      </trkpt>
      <trkpt lat="50.80927" lon="2.46471">
        <ele>91.8</ele>
        <time>2023-08-05T10:42:52Z</time>
      </trkpt>
      <trkpt lat="50.80926" lon="2.46473">
        <ele>92</ele>
        <time>2023-08-05T10:42:53Z</time>
      </trkpt>
      <trkpt lat="50.80924" lon="2.46475">
        <ele>92.2</ele>
        <time>2023-08-05T10:42:54Z</time>
      </trkpt>
      <trkpt lat="50.80923" lon="2.46477">
        <ele>92.4</ele>
        <time>2023-08-05T10:42:55Z</time>
      </trkpt>
      <trkpt lat="50.80921" lon="2.46478">
        <ele>92.6</ele>
        <time>2023-08-05T10:42:56Z</time>
      </trkpt>
      <trkpt lat="50.8092" lon="2.4648">
        <ele>92.6</ele>
        <time>2023-08-05T10:42:57Z</time>
      </trkpt>
      <trkpt lat="50.80918" lon="2.46481">
        <ele>92.8</ele>
        <time>2023-08-05T10:42:58Z</time>
      </trkpt>
      <trkpt lat="50.80916" lon="2.46483">
        <ele>92.8</ele>
        <time>2023-08-05T10:42:59Z</time>
      </trkpt>
      <trkpt lat="50.80914" lon="2.46484">
        <ele>93</ele>
        <time>2023-08-05T10:43:00Z</time>
      </trkpt>
      <trkpt lat="50.80913" lon="2.46486">
        <ele>93.2</ele>
        <time>2023-08-05T10:43:01Z</time>
      </trkpt>
      <trkpt lat="50.80911" lon="2.46488">
        <ele>93.4</ele>
        <time>2023-08-05T10:43:02Z</time>
      </trkpt>
      <trkpt lat="50.80909" lon="2.46489">
        <ele>93.6</ele>
        <time>2023-08-05T10:43:03Z</time>
      </trkpt>
      <trkpt lat="50.80907" lon="2.4649">
        <ele>93.6</ele>
        <time>2023-08-05T10:43:04Z</time>
      </trkpt>
      <trkpt lat="50.80905" lon="2.46492">
        <ele>93.8</ele>
        <time>2023-08-05T10:43:05Z</time>
      </trkpt>
      <trkpt lat="50.80904" lon="2.46493">
        <ele>93.8</ele>
        <time>2023-08-05T10:43:06Z</time>
      </trkpt>
      <trkpt lat="50.80902" lon="2.46494">
        <ele>94</ele>
        <time>2023-08-05T10:43:07Z</time>
      </trkpt>
      <trkpt lat="50.809" lon="2.46496">
        <ele>94.2</ele>
        <time>2023-08-05T10:43:08Z</time>
      </trkpt>
      <trkpt lat="50.80898" lon="2.46497">
        <ele>94.4</ele>
        <time>2023-08-05T10:43:09Z</time>
      </trkpt>
      <trkpt lat="50.80896" lon="2.46499">
        <ele>94.4</ele>
        <time>2023-08-05T10:43:10Z</time>
      </trkpt>
      <trkpt lat="50.80894" lon="2.465">
        <ele>94.6</ele>
        <time>2023-08-05T10:43:11Z</time>
      </trkpt>
      <trkpt lat="50.80892" lon="2.46501">
        <ele>94.8</ele>
        <time>2023-08-05T10:43:12Z</time>
      </trkpt>
      <trkpt lat="50.80891" lon="2.46503">
        <ele>95</ele>
        <time>2023-08-05T10:43:13Z</time>
      </trkpt>
      <trkpt lat="50.80889" lon="2.46504">
        <ele>95.2</ele>
        <time>2023-08-05T10:43:14Z</time>
      </trkpt>
      <trkpt lat="50.80887" lon="2.46505">
        <ele>95.4</ele>
        <time>2023-08-05T10:43:15Z</time>
      </trkpt>
      <trkpt lat="50.80885" lon="2.46507">
        <ele>95.4</ele>
        <time>2023-08-05T10:43:16Z</time>
      </trkpt>
      <trkpt lat="50.80883" lon="2.46508">
        <ele>95.6</ele>
        <time>2023-08-05T10:43:17Z</time>
      </trkpt>
      <trkpt lat="50.80881" lon="2.46508">
        <ele>95.6</ele>
        <time>2023-08-05T10:43:18Z</time>
      </trkpt>
      <trkpt lat="50.80879" lon="2.4651">
        <ele>95.8</ele>
        <time>2023-08-05T10:43:19Z</time>
      </trkpt>
      <trkpt lat="50.80877" lon="2.46511">
        <ele>96</ele>
        <time>2023-08-05T10:43:20Z</time>
      </trkpt>
      <trkpt lat="50.80875" lon="2.46512">
        <ele>96.2</ele>
        <time>2023-08-05T10:43:21Z</time>
      </trkpt>
      <trkpt lat="50.80874" lon="2.46513">
        <ele>96.4</ele>
        <time>2023-08-05T10:43:22Z</time>
      </trkpt>
      <trkpt lat="50.80872" lon="2.46514">
        <ele>96.6</ele>
        <time>2023-08-05T10:43:23Z</time>
      </trkpt>
      <trkpt lat="50.8087" lon="2.46515">
        <ele>96.6</ele>
        <time>2023-08-05T10:43:24Z</time>
      </trkpt>
      <trkpt lat="50.80868" lon="2.46516">
        <ele>96.6</ele>
        <time>2023-08-05T10:43:25Z</time>
      </trkpt>
      <trkpt lat="50.80866" lon="2.46517">
        <ele>96.8</ele>
        <time>2023-08-05T10:43:26Z</time>
      </trkpt>
      <trkpt lat="50.80864" lon="2.46518">
        <ele>97</ele>
        <time>2023-08-05T10:43:27Z</time>
      </trkpt>
      <trkpt lat="50.80862" lon="2.46519">
        <ele>97</ele>
        <time>2023-08-05T10:43:28Z</time>
      </trkpt>
      <trkpt lat="50.8086" lon="2.4652">
        <ele>97.2</ele>
        <time>2023-08-05T10:43:29Z</time>
      </trkpt>
      <trkpt lat="50.80858" lon="2.46522">
        <ele>97.4</ele>
        <time>2023-08-05T10:43:30Z</time>
      </trkpt>
      <trkpt lat="50.80856" lon="2.46522">
        <ele>97.6</ele>
        <time>2023-08-05T10:43:31Z</time>
      </trkpt>
      <trkpt lat="50.80854" lon="2.46523">
        <ele>97.6</ele>
        <time>2023-08-05T10:43:32Z</time>
      </trkpt>
      <trkpt lat="50.80852" lon="2.46524">
        <ele>97.8</ele>
        <time>2023-08-05T10:43:33Z</time>
      </trkpt>
      <trkpt lat="50.8085" lon="2.46525">
        <ele>97.8</ele>
        <time>2023-08-05T10:43:34Z</time>
      </trkpt>
      <trkpt lat="50.80848" lon="2.46527">
        <ele>98</ele>
        <time>2023-08-05T10:43:35Z</time>
      </trkpt>
      <trkpt lat="50.80846" lon="2.46528">
        <ele>98.2</ele>
        <time>2023-08-05T10:43:36Z</time>
      </trkpt>
      <trkpt lat="50.80844" lon="2.46529">
        <ele>98.2</ele>
        <time>2023-08-05T10:43:37Z</time>
      </trkpt>
      <trkpt lat="50.80842" lon="2.46529">
        <ele>98.4</ele>
        <time>2023-08-05T10:43:38Z</time>
      </trkpt>
      <trkpt lat="50.8084" lon="2.4653">
        <ele>98.6</ele>
        <time>2023-08-05T10:43:39Z</time>
      </trkpt>
      <trkpt lat="50.80837" lon="2.4653">
        <ele>98.8</ele>
        <time>2023-08-05T10:43:40Z</time>
      </trkpt>
      <trkpt lat="50.80836" lon="2.46531">
        <ele>98.8</ele>
        <time>2023-08-05T10:43:41Z</time>
      </trkpt>
      <trkpt lat="50.80833" lon="2.46532">
        <ele>99</ele>
        <time>2023-08-05T10:43:42Z</time>
      </trkpt>
      <trkpt lat="50.80831" lon="2.46533">
        <ele>99.4</ele>
        <time>2023-08-05T10:43:43Z</time>
      </trkpt>
      <trkpt lat="50.80829" lon="2.46533">
        <ele>99.6</ele>
        <time>2023-08-05T10:43:44Z</time>
      </trkpt>
      <trkpt lat="50.80827" lon="2.46534">
        <ele>99.6</ele>
        <time>2023-08-05T10:43:45Z</time>
      </trkpt>
      <trkpt lat="50.80824" lon="2.46535">
        <ele>99.8</ele>
        <time>2023-08-05T10:43:46Z</time>
      </trkpt>
      <trkpt lat="50.80822" lon="2.46535">
        <ele>99.8</ele>
        <time>2023-08-05T10:43:47Z</time>
      </trkpt>
      <trkpt lat="50.8082" lon="2.46536">
        <ele>100</ele>
        <time>2023-08-05T10:43:48Z</time>
      </trkpt>
      <trkpt lat="50.80818" lon="2.46537">
        <ele>100</ele>
        <time>2023-08-05T10:43:49Z</time>
      </trkpt>
      <trkpt lat="50.80815" lon="2.46538">
        <ele>100</ele>
        <time>2023-08-05T10:43:50Z</time>
      </trkpt>
      <trkpt lat="50.80813" lon="2.46539">
        <ele>100.2</ele>
        <time>2023-08-05T10:43:51Z</time>
      </trkpt>
      <trkpt lat="50.80811" lon="2.46539">
        <ele>100.2</ele>
        <time>2023-08-05T10:43:52Z</time>
      </trkpt>
      <trkpt lat="50.80809" lon="2.4654">
        <ele>100.4</ele>
        <time>2023-08-05T10:43:53Z</time>
      </trkpt>
      <trkpt lat="50.80806" lon="2.4654">
        <ele>100.6</ele>
        <time>2023-08-05T10:43:54Z</time>
      </trkpt>
      <trkpt lat="50.80804" lon="2.46541">
        <ele>100.6</ele>
        <time>2023-08-05T10:43:55Z</time>
      </trkpt>
      <trkpt lat="50.80802" lon="2.46542">
        <ele>100.6</ele>
        <time>2023-08-05T10:43:56Z</time>
      </trkpt>
      <trkpt lat="50.80799" lon="2.46543">
        <ele>100.6</ele>
        <time>2023-08-05T10:43:57Z</time>
      </trkpt>
      <trkpt lat="50.80797" lon="2.46544">
        <ele>101</ele>
        <time>2023-08-05T10:43:58Z</time>
      </trkpt>
      <trkpt lat="50.80795" lon="2.46545">
        <ele>101</ele>
        <time>2023-08-05T10:43:59Z</time>
      </trkpt>
      <trkpt lat="50.80793" lon="2.46546">
        <ele>101.2</ele>
        <time>2023-08-05T10:44:00Z</time>
      </trkpt>
      <trkpt lat="50.8079" lon="2.46547">
        <ele>101.4</ele>
        <time>2023-08-05T10:44:01Z</time>
      </trkpt>
      <trkpt lat="50.80788" lon="2.46548">
        <ele>101.4</ele>
        <time>2023-08-05T10:44:02Z</time>
      </trkpt>
      <trkpt lat="50.80786" lon="2.46549">
        <ele>101.6</ele>
        <time>2023-08-05T10:44:03Z</time>
      </trkpt>
      <trkpt lat="50.80784" lon="2.4655">
        <ele>101.6</ele>
        <time>2023-08-05T10:44:04Z</time>
      </trkpt>
      <trkpt lat="50.80782" lon="2.46551">
        <ele>101.8</ele>
        <time>2023-08-05T10:44:05Z</time>
      </trkpt>
      <trkpt lat="50.8078" lon="2.46553">
        <ele>101.8</ele>
        <time>2023-08-05T10:44:06Z</time>
      </trkpt>
      <trkpt lat="50.80778" lon="2.46554">
        <ele>101.8</ele>
        <time>2023-08-05T10:44:07Z</time>
      </trkpt>
      <trkpt lat="50.80776" lon="2.46555">
        <ele>102</ele>
        <time>2023-08-05T10:44:08Z</time>
      </trkpt>
      <trkpt lat="50.80774" lon="2.46556">
        <ele>102</ele>
        <time>2023-08-05T10:44:09Z</time>
      </trkpt>
      <trkpt lat="50.80772" lon="2.46557">
        <ele>102.2</ele>
        <time>2023-08-05T10:44:10Z</time>
      </trkpt>
      <trkpt lat="50.8077" lon="2.46558">
        <ele>102.2</ele>
        <time>2023-08-05T10:44:11Z</time>
      </trkpt>
      <trkpt lat="50.80768" lon="2.46559">
        <ele>102.4</ele>
        <time>2023-08-05T10:44:12Z</time>
      </trkpt>
      <trkpt lat="50.80765" lon="2.4656">
        <ele>102.4</ele>
        <time>2023-08-05T10:44:13Z</time>
      </trkpt>
      <trkpt lat="50.80763" lon="2.46562">
        <ele>102.8</ele>
        <time>2023-08-05T10:44:14Z</time>
      </trkpt>
      <trkpt lat="50.80757" lon="2.46567">
        <ele>103</ele>
        <time>2023-08-05T10:44:17Z</time>
      </trkpt>
      <trkpt lat="50.80751" lon="2.46572">
        <ele>103.2</ele>
        <time>2023-08-05T10:44:20Z</time>
      </trkpt>
      <trkpt lat="50.80747" lon="2.46575">
        <ele>103.6</ele>
        <time>2023-08-05T10:44:22Z</time>
      </trkpt>
      <trkpt lat="50.80731" lon="2.46588">
        <ele>104.2</ele>
        <time>2023-08-05T10:44:30Z</time>
      </trkpt>
      <trkpt lat="50.80725" lon="2.46594">
        <ele>104.6</ele>
        <time>2023-08-05T10:44:33Z</time>
      </trkpt>
      <trkpt lat="50.80717" lon="2.46603">
        <ele>105.2</ele>
        <time>2023-08-05T10:44:37Z</time>
      </trkpt>
      <trkpt lat="50.80716" lon="2.46604">
        <ele>105.4</ele>
        <time>2023-08-05T10:44:38Z</time>
      </trkpt>
      <trkpt lat="50.80714" lon="2.46607">
        <ele>105.4</ele>
        <time>2023-08-05T10:44:39Z</time>
      </trkpt>
      <trkpt lat="50.80708" lon="2.46614">
        <ele>105.8</ele>
        <time>2023-08-05T10:44:42Z</time>
      </trkpt>
      <trkpt lat="50.80707" lon="2.46616">
        <ele>105.8</ele>
        <time>2023-08-05T10:44:43Z</time>
      </trkpt>
      <trkpt lat="50.80703" lon="2.4662">
        <ele>106</ele>
        <time>2023-08-05T10:44:45Z</time>
      </trkpt>
      <trkpt lat="50.80701" lon="2.46622">
        <ele>106.2</ele>
        <time>2023-08-05T10:44:46Z</time>
      </trkpt>
      <trkpt lat="50.80699" lon="2.46624">
        <ele>106.4</ele>
        <time>2023-08-05T10:44:47Z</time>
      </trkpt>
      <trkpt lat="50.80697" lon="2.46627">
        <ele>106.4</ele>
        <time>2023-08-05T10:44:48Z</time>
      </trkpt>
      <trkpt lat="50.80695" lon="2.46629">
        <ele>106.6</ele>
        <time>2023-08-05T10:44:49Z</time>
      </trkpt>
      <trkpt lat="50.80693" lon="2.46632">
        <ele>106.8</ele>
        <time>2023-08-05T10:44:50Z</time>
      </trkpt>
      <trkpt lat="50.80691" lon="2.46634">
        <ele>106.8</ele>
        <time>2023-08-05T10:44:51Z</time>
      </trkpt>
      <trkpt lat="50.8069" lon="2.46637">
        <ele>106.6</ele>
        <time>2023-08-05T10:44:52Z</time>
      </trkpt>
      <trkpt lat="50.80688" lon="2.46639">
        <ele>107</ele>
        <time>2023-08-05T10:44:53Z</time>
      </trkpt>
      <trkpt lat="50.80686" lon="2.46642">
        <ele>107</ele>
        <time>2023-08-05T10:44:54Z</time>
      </trkpt>
      <trkpt lat="50.80685" lon="2.46644">
        <ele>107.2</ele>
        <time>2023-08-05T10:44:55Z</time>
      </trkpt>
      <trkpt lat="50.80683" lon="2.46647">
        <ele>107.2</ele>
        <time>2023-08-05T10:44:56Z</time>
      </trkpt>
      <trkpt lat="50.80681" lon="2.46649">
        <ele>107.4</ele>
        <time>2023-08-05T10:44:57Z</time>
      </trkpt>
      <trkpt lat="50.80666" lon="2.46675">
        <ele>108.2</ele>
        <time>2023-08-05T10:45:07Z</time>
      </trkpt>
      <trkpt lat="50.80665" lon="2.46678">
        <ele>108.2</ele>
        <time>2023-08-05T10:45:08Z</time>
      </trkpt>
      <trkpt lat="50.80653" lon="2.467">
        <ele>109.4</ele>
        <time>2023-08-05T10:45:16Z</time>
      </trkpt>
      <trkpt lat="50.80652" lon="2.46703">
        <ele>109.6</ele>
        <time>2023-08-05T10:45:18Z</time>
      </trkpt>
      <trkpt lat="50.8065" lon="2.46708">
        <ele>109.8</ele>
        <time>2023-08-05T10:45:19Z</time>
      </trkpt>
      <trkpt lat="50.80648" lon="2.4671">
        <ele>109.8</ele>
        <time>2023-08-05T10:45:20Z</time>
      </trkpt>
      <trkpt lat="50.80647" lon="2.46713">
        <ele>110</ele>
        <time>2023-08-05T10:45:21Z</time>
      </trkpt>
      <trkpt lat="50.80644" lon="2.46719">
        <ele>110.2</ele>
        <time>2023-08-05T10:45:23Z</time>
      </trkpt>
      <trkpt lat="50.80642" lon="2.46722">
        <ele>110.2</ele>
        <time>2023-08-05T10:45:24Z</time>
      </trkpt>
      <trkpt lat="50.80641" lon="2.46724">
        <ele>110.4</ele>
        <time>2023-08-05T10:45:25Z</time>
      </trkpt>
      <trkpt lat="50.8064" lon="2.46727">
        <ele>110.6</ele>
        <time>2023-08-05T10:45:26Z</time>
      </trkpt>
      <trkpt lat="50.80638" lon="2.4673">
        <ele>110.6</ele>
        <time>2023-08-05T10:45:27Z</time>
      </trkpt>
      <trkpt lat="50.80637" lon="2.46733">
        <ele>110.8</ele>
        <time>2023-08-05T10:45:28Z</time>
      </trkpt>
      <trkpt lat="50.80636" lon="2.46735">
        <ele>110.8</ele>
        <time>2023-08-05T10:45:29Z</time>
      </trkpt>
      <trkpt lat="50.80634" lon="2.46738">
        <ele>111</ele>
        <time>2023-08-05T10:45:30Z</time>
      </trkpt>
      <trkpt lat="50.80633" lon="2.4674">
        <ele>111</ele>
        <time>2023-08-05T10:45:31Z</time>
      </trkpt>
      <trkpt lat="50.80631" lon="2.46744">
        <ele>111.2</ele>
        <time>2023-08-05T10:45:32Z</time>
      </trkpt>
      <trkpt lat="50.80629" lon="2.46746">
        <ele>111.2</ele>
        <time>2023-08-05T10:45:33Z</time>
      </trkpt>
      <trkpt lat="50.80628" lon="2.46749">
        <ele>111.4</ele>
        <time>2023-08-05T10:45:34Z</time>
      </trkpt>
      <trkpt lat="50.80627" lon="2.46752">
        <ele>111.4</ele>
        <time>2023-08-05T10:45:35Z</time>
      </trkpt>
      <trkpt lat="50.80625" lon="2.46755">
        <ele>111.4</ele>
        <time>2023-08-05T10:45:36Z</time>
      </trkpt>
      <trkpt lat="50.80624" lon="2.46758">
        <ele>111.6</ele>
        <time>2023-08-05T10:45:37Z</time>
      </trkpt>
      <trkpt lat="50.80622" lon="2.46761">
        <ele>111.6</ele>
        <time>2023-08-05T10:45:38Z</time>
      </trkpt>
      <trkpt lat="50.80621" lon="2.46763">
        <ele>111.8</ele>
        <time>2023-08-05T10:45:39Z</time>
      </trkpt>
      <trkpt lat="50.80613" lon="2.46777">
        <ele>112.6</ele>
        <time>2023-08-05T10:45:44Z</time>
      </trkpt>
      <trkpt lat="50.80611" lon="2.46782">
        <ele>112.8</ele>
        <time>2023-08-05T10:45:46Z</time>
      </trkpt>
      <trkpt lat="50.80608" lon="2.46788">
        <ele>112.8</ele>
        <time>2023-08-05T10:45:48Z</time>
      </trkpt>
      <trkpt lat="50.80606" lon="2.4679">
        <ele>113.4</ele>
        <time>2023-08-05T10:45:49Z</time>
      </trkpt>
      <trkpt lat="50.80605" lon="2.46793">
        <ele>113.6</ele>
        <time>2023-08-05T10:45:50Z</time>
      </trkpt>
      <trkpt lat="50.80603" lon="2.46795">
        <ele>113.6</ele>
        <time>2023-08-05T10:45:51Z</time>
      </trkpt>
      <trkpt lat="50.80601" lon="2.46798">
        <ele>114</ele>
        <time>2023-08-05T10:45:52Z</time>
      </trkpt>
      <trkpt lat="50.806" lon="2.46801">
        <ele>114</ele>
        <time>2023-08-05T10:45:53Z</time>
      </trkpt>
      <trkpt lat="50.80598" lon="2.46804">
        <ele>114</ele>
        <time>2023-08-05T10:45:54Z</time>
      </trkpt>
      <trkpt lat="50.80597" lon="2.46807">
        <ele>114.6</ele>
        <time>2023-08-05T10:45:55Z</time>
      </trkpt>
      <trkpt lat="50.80595" lon="2.46809">
        <ele>114.6</ele>
        <time>2023-08-05T10:45:56Z</time>
      </trkpt>
      <trkpt lat="50.80593" lon="2.46812">
        <ele>114.8</ele>
        <time>2023-08-05T10:45:57Z</time>
      </trkpt>
      <trkpt lat="50.80593" lon="2.46812">
        <ele>115</ele>
        <time>2023-08-05T10:45:58Z</time>
      </trkpt>
      <trkpt lat="50.8059" lon="2.46817">
        <ele>115</ele>
        <time>2023-08-05T10:45:59Z</time>
      </trkpt>
      <trkpt lat="50.80589" lon="2.46819">
        <ele>115.2</ele>
        <time>2023-08-05T10:46:00Z</time>
      </trkpt>
      <trkpt lat="50.80587" lon="2.46822">
        <ele>115.2</ele>
        <time>2023-08-05T10:46:01Z</time>
      </trkpt>
      <trkpt lat="50.80585" lon="2.46825">
        <ele>115.4</ele>
        <time>2023-08-05T10:46:02Z</time>
      </trkpt>
      <trkpt lat="50.80584" lon="2.46827">
        <ele>115.6</ele>
        <time>2023-08-05T10:46:03Z</time>
      </trkpt>
      <trkpt lat="50.80582" lon="2.46829">
        <ele>115.6</ele>
        <time>2023-08-05T10:46:04Z</time>
      </trkpt>
      <trkpt lat="50.8058" lon="2.46832">
        <ele>115.6</ele>
        <time>2023-08-05T10:46:05Z</time>
      </trkpt>
      <trkpt lat="50.80579" lon="2.46835">
        <ele>115.8</ele>
        <time>2023-08-05T10:46:06Z</time>
      </trkpt>
      <trkpt lat="50.80577" lon="2.46837">
        <ele>115.8</ele>
        <time>2023-08-05T10:46:07Z</time>
      </trkpt>
      <trkpt lat="50.80576" lon="2.4684">
        <ele>115.8</ele>
        <time>2023-08-05T10:46:08Z</time>
      </trkpt>
      <trkpt lat="50.80574" lon="2.46842">
        <ele>116</ele>
        <time>2023-08-05T10:46:09Z</time>
      </trkpt>
      <trkpt lat="50.80573" lon="2.46845">
        <ele>116</ele>
        <time>2023-08-05T10:46:10Z</time>
      </trkpt>
      <trkpt lat="50.80571" lon="2.46848">
        <ele>116</ele>
        <time>2023-08-05T10:46:11Z</time>
      </trkpt>
      <trkpt lat="50.80569" lon="2.4685">
        <ele>116</ele>
        <time>2023-08-05T10:46:12Z</time>
      </trkpt>
      <trkpt lat="50.80568" lon="2.46853">
        <ele>116.2</ele>
        <time>2023-08-05T10:46:13Z</time>
      </trkpt>
      <trkpt lat="50.80566" lon="2.46856">
        <ele>116.4</ele>
        <time>2023-08-05T10:46:14Z</time>
      </trkpt>
      <trkpt lat="50.80564" lon="2.46859">
        <ele>116.4</ele>
        <time>2023-08-05T10:46:15Z</time>
      </trkpt>
      <trkpt lat="50.80563" lon="2.46862">
        <ele>116.6</ele>
        <time>2023-08-05T10:46:16Z</time>
      </trkpt>
      <trkpt lat="50.80561" lon="2.46864">
        <ele>116.8</ele>
        <time>2023-08-05T10:46:17Z</time>
      </trkpt>
      <trkpt lat="50.8056" lon="2.46867">
        <ele>116.8</ele>
        <time>2023-08-05T10:46:18Z</time>
      </trkpt>
      <trkpt lat="50.80559" lon="2.46869">
        <ele>117</ele>
        <time>2023-08-05T10:46:19Z</time>
      </trkpt>
      <trkpt lat="50.80557" lon="2.46872">
        <ele>117</ele>
        <time>2023-08-05T10:46:20Z</time>
      </trkpt>
      <trkpt lat="50.80556" lon="2.46874">
        <ele>117.2</ele>
        <time>2023-08-05T10:46:21Z</time>
      </trkpt>
      <trkpt lat="50.80554" lon="2.46877">
        <ele>117.2</ele>
        <time>2023-08-05T10:46:22Z</time>
      </trkpt>
      <trkpt lat="50.80553" lon="2.46879">
        <ele>117.4</ele>
        <time>2023-08-05T10:46:23Z</time>
      </trkpt>
      <trkpt lat="50.80551" lon="2.46882">
        <ele>117.6</ele>
        <time>2023-08-05T10:46:24Z</time>
      </trkpt>
      <trkpt lat="50.8055" lon="2.46884">
        <ele>117.6</ele>
        <time>2023-08-05T10:46:25Z</time>
      </trkpt>
      <trkpt lat="50.80547" lon="2.46889">
        <ele>118</ele>
        <time>2023-08-05T10:46:27Z</time>
      </trkpt>
      <trkpt lat="50.80545" lon="2.46892">
        <ele>118.2</ele>
        <time>2023-08-05T10:46:28Z</time>
      </trkpt>
      <trkpt lat="50.80543" lon="2.46894">
        <ele>118.2</ele>
        <time>2023-08-05T10:46:29Z</time>
      </trkpt>
      <trkpt lat="50.80541" lon="2.46897">
        <ele>118.6</ele>
        <time>2023-08-05T10:46:30Z</time>
      </trkpt>
      <trkpt lat="50.8054" lon="2.46898">
        <ele>118.6</ele>
        <time>2023-08-05T10:46:31Z</time>
      </trkpt>
      <trkpt lat="50.80538" lon="2.469">
        <ele>118.6</ele>
        <time>2023-08-05T10:46:32Z</time>
      </trkpt>
      <trkpt lat="50.80536" lon="2.46901">
        <ele>118.6</ele>
        <time>2023-08-05T10:46:33Z</time>
      </trkpt>
      <trkpt lat="50.80533" lon="2.46902">
        <ele>118.8</ele>
        <time>2023-08-05T10:46:34Z</time>
      </trkpt>
      <trkpt lat="50.80531" lon="2.46903">
        <ele>118.8</ele>
        <time>2023-08-05T10:46:35Z</time>
      </trkpt>
      <trkpt lat="50.80529" lon="2.46903">
        <ele>119</ele>
        <time>2023-08-05T10:46:36Z</time>
      </trkpt>
      <trkpt lat="50.80526" lon="2.46903">
        <ele>119</ele>
        <time>2023-08-05T10:46:37Z</time>
      </trkpt>
      <trkpt lat="50.80524" lon="2.46902">
        <ele>119.2</ele>
        <time>2023-08-05T10:46:38Z</time>
      </trkpt>
      <trkpt lat="50.80522" lon="2.46901">
        <ele>119.2</ele>
        <time>2023-08-05T10:46:39Z</time>
      </trkpt>
      <trkpt lat="50.8052" lon="2.46899">
        <ele>119.2</ele>
        <time>2023-08-05T10:46:40Z</time>
      </trkpt>
      <trkpt lat="50.80518" lon="2.46898">
        <ele>119.2</ele>
        <time>2023-08-05T10:46:41Z</time>
      </trkpt>
      <trkpt lat="50.80508" lon="2.46899">
        <ele>119.4</ele>
        <time>2023-08-05T10:46:45Z</time>
      </trkpt>
      <trkpt lat="50.80505" lon="2.46901">
        <ele>119.6</ele>
        <time>2023-08-05T10:46:46Z</time>
      </trkpt>
      <trkpt lat="50.80503" lon="2.46903">
        <ele>119.6</ele>
        <time>2023-08-05T10:46:47Z</time>
      </trkpt>
      <trkpt lat="50.80502" lon="2.46907">
        <ele>119.6</ele>
        <time>2023-08-05T10:46:48Z</time>
      </trkpt>
      <trkpt lat="50.805" lon="2.4691">
        <ele>119.6</ele>
        <time>2023-08-05T10:46:49Z</time>
      </trkpt>
      <trkpt lat="50.80499" lon="2.46914">
        <ele>119.6</ele>
        <time>2023-08-05T10:46:50Z</time>
      </trkpt>
      <trkpt lat="50.80497" lon="2.46918">
        <ele>119.6</ele>
        <time>2023-08-05T10:46:51Z</time>
      </trkpt>
      <trkpt lat="50.80496" lon="2.46921">
        <ele>119.6</ele>
        <time>2023-08-05T10:46:52Z</time>
      </trkpt>
      <trkpt lat="50.8049" lon="2.46939">
        <ele>120</ele>
        <time>2023-08-05T10:46:57Z</time>
      </trkpt>
      <trkpt lat="50.8049" lon="2.46939">
        <ele>120</ele>
        <time>2023-08-05T10:46:58Z</time>
      </trkpt>
      <trkpt lat="50.80485" lon="2.46952">
        <ele>120.6</ele>
        <time>2023-08-05T10:47:01Z</time>
      </trkpt>
      <trkpt lat="50.80483" lon="2.46956">
        <ele>120.6</ele>
        <time>2023-08-05T10:47:02Z</time>
      </trkpt>
      <trkpt lat="50.80481" lon="2.46963">
        <ele>120.8</ele>
        <time>2023-08-05T10:47:04Z</time>
      </trkpt>
      <trkpt lat="50.80476" lon="2.46976">
        <ele>121</ele>
        <time>2023-08-05T10:47:08Z</time>
      </trkpt>
      <trkpt lat="50.80474" lon="2.46982">
        <ele>121.2</ele>
        <time>2023-08-05T10:47:10Z</time>
      </trkpt>
      <trkpt lat="50.80473" lon="2.46986">
        <ele>121.2</ele>
        <time>2023-08-05T10:47:11Z</time>
      </trkpt>
      <trkpt lat="50.80472" lon="2.46989">
        <ele>121.4</ele>
        <time>2023-08-05T10:47:12Z</time>
      </trkpt>
      <trkpt lat="50.80471" lon="2.46991">
        <ele>121.4</ele>
        <time>2023-08-05T10:47:13Z</time>
      </trkpt>
      <trkpt lat="50.8047" lon="2.46994">
        <ele>121.4</ele>
        <time>2023-08-05T10:47:14Z</time>
      </trkpt>
      <trkpt lat="50.80469" lon="2.46998">
        <ele>121.6</ele>
        <time>2023-08-05T10:47:15Z</time>
      </trkpt>
      <trkpt lat="50.80468" lon="2.47">
        <ele>121.8</ele>
        <time>2023-08-05T10:47:16Z</time>
      </trkpt>
      <trkpt lat="50.80466" lon="2.47003">
        <ele>121.8</ele>
        <time>2023-08-05T10:47:17Z</time>
      </trkpt>
      <trkpt lat="50.80464" lon="2.47009">
        <ele>122.2</ele>
        <time>2023-08-05T10:47:19Z</time>
      </trkpt>
      <trkpt lat="50.80463" lon="2.47012">
        <ele>122.4</ele>
        <time>2023-08-05T10:47:20Z</time>
      </trkpt>
      <trkpt lat="50.8046" lon="2.47024">
        <ele>123</ele>
        <time>2023-08-05T10:47:24Z</time>
      </trkpt>
      <trkpt lat="50.80459" lon="2.47027">
        <ele>123.4</ele>
        <time>2023-08-05T10:47:25Z</time>
      </trkpt>
      <trkpt lat="50.80457" lon="2.47029">
        <ele>123.6</ele>
        <time>2023-08-05T10:47:26Z</time>
      </trkpt>
      <trkpt lat="50.80456" lon="2.47032">
        <ele>123.8</ele>
        <time>2023-08-05T10:47:27Z</time>
      </trkpt>
      <trkpt lat="50.80454" lon="2.47037">
        <ele>124.2</ele>
        <time>2023-08-05T10:47:29Z</time>
      </trkpt>
      <trkpt lat="50.80453" lon="2.4704">
        <ele>124.4</ele>
        <time>2023-08-05T10:47:30Z</time>
      </trkpt>
      <trkpt lat="50.80452" lon="2.47043">
        <ele>124.4</ele>
        <time>2023-08-05T10:47:31Z</time>
      </trkpt>
      <trkpt lat="50.8045" lon="2.47045">
        <ele>124.6</ele>
        <time>2023-08-05T10:47:32Z</time>
      </trkpt>
      <trkpt lat="50.80449" lon="2.47048">
        <ele>124.6</ele>
        <time>2023-08-05T10:47:33Z</time>
      </trkpt>
      <trkpt lat="50.80448" lon="2.4705">
        <ele>125</ele>
        <time>2023-08-05T10:47:34Z</time>
      </trkpt>
      <trkpt lat="50.80447" lon="2.47053">
        <ele>124.8</ele>
        <time>2023-08-05T10:47:35Z</time>
      </trkpt>
      <trkpt lat="50.80446" lon="2.47056">
        <ele>125.2</ele>
        <time>2023-08-05T10:47:36Z</time>
      </trkpt>
      <trkpt lat="50.80445" lon="2.47058">
        <ele>125.4</ele>
        <time>2023-08-05T10:47:37Z</time>
      </trkpt>
      <trkpt lat="50.80444" lon="2.47061">
        <ele>125.6</ele>
        <time>2023-08-05T10:47:38Z</time>
      </trkpt>
      <trkpt lat="50.80443" lon="2.47063">
        <ele>125.6</ele>
        <time>2023-08-05T10:47:39Z</time>
      </trkpt>
      <trkpt lat="50.80442" lon="2.47065">
        <ele>125.8</ele>
        <time>2023-08-05T10:47:40Z</time>
      </trkpt>
      <trkpt lat="50.80441" lon="2.47068">
        <ele>126</ele>
        <time>2023-08-05T10:47:41Z</time>
      </trkpt>
      <trkpt lat="50.8044" lon="2.4707">
        <ele>126</ele>
        <time>2023-08-05T10:47:42Z</time>
      </trkpt>
      <trkpt lat="50.80439" lon="2.47072">
        <ele>126.2</ele>
        <time>2023-08-05T10:47:43Z</time>
      </trkpt>
      <trkpt lat="50.80437" lon="2.47074">
        <ele>126.2</ele>
        <time>2023-08-05T10:47:44Z</time>
      </trkpt>
      <trkpt lat="50.80436" lon="2.47077">
        <ele>126.2</ele>
        <time>2023-08-05T10:47:45Z</time>
      </trkpt>
      <trkpt lat="50.80435" lon="2.47079">
        <ele>126.4</ele>
        <time>2023-08-05T10:47:46Z</time>
      </trkpt>
      <trkpt lat="50.80434" lon="2.47082">
        <ele>126.4</ele>
        <time>2023-08-05T10:47:47Z</time>
      </trkpt>
      <trkpt lat="50.80433" lon="2.47085">
        <ele>126.6</ele>
        <time>2023-08-05T10:47:48Z</time>
      </trkpt>
      <trkpt lat="50.80432" lon="2.47088">
        <ele>126.8</ele>
        <time>2023-08-05T10:47:49Z</time>
      </trkpt>
      <trkpt lat="50.80431" lon="2.4709">
        <ele>127</ele>
        <time>2023-08-05T10:47:50Z</time>
      </trkpt>
      <trkpt lat="50.8043" lon="2.47093">
        <ele>127</ele>
        <time>2023-08-05T10:47:51Z</time>
      </trkpt>
      <trkpt lat="50.80428" lon="2.47095">
        <ele>127.2</ele>
        <time>2023-08-05T10:47:52Z</time>
      </trkpt>
      <trkpt lat="50.80427" lon="2.47097">
        <ele>127.2</ele>
        <time>2023-08-05T10:47:53Z</time>
      </trkpt>
      <trkpt lat="50.80426" lon="2.471">
        <ele>127.6</ele>
        <time>2023-08-05T10:47:54Z</time>
      </trkpt>
      <trkpt lat="50.80425" lon="2.47102">
        <ele>127.8</ele>
        <time>2023-08-05T10:47:55Z</time>
      </trkpt>
      <trkpt lat="50.80424" lon="2.47105">
        <ele>127.8</ele>
        <time>2023-08-05T10:47:56Z</time>
      </trkpt>
      <trkpt lat="50.80422" lon="2.47107">
        <ele>128</ele>
        <time>2023-08-05T10:47:57Z</time>
      </trkpt>
      <trkpt lat="50.80421" lon="2.4711">
        <ele>128</ele>
        <time>2023-08-05T10:47:58Z</time>
      </trkpt>
      <trkpt lat="50.8042" lon="2.47113">
        <ele>128</ele>
        <time>2023-08-05T10:47:59Z</time>
      </trkpt>
      <trkpt lat="50.80419" lon="2.47115">
        <ele>128.2</ele>
        <time>2023-08-05T10:48:00Z</time>
      </trkpt>
      <trkpt lat="50.80418" lon="2.47118">
        <ele>128.4</ele>
        <time>2023-08-05T10:48:01Z</time>
      </trkpt>
      <trkpt lat="50.80417" lon="2.47121">
        <ele>128.6</ele>
        <time>2023-08-05T10:48:02Z</time>
      </trkpt>
      <trkpt lat="50.80415" lon="2.47124">
        <ele>128.6</ele>
        <time>2023-08-05T10:48:03Z</time>
      </trkpt>
      <trkpt lat="50.80414" lon="2.47127">
        <ele>128.8</ele>
        <time>2023-08-05T10:48:04Z</time>
      </trkpt>
      <trkpt lat="50.80412" lon="2.47129">
        <ele>129</ele>
        <time>2023-08-05T10:48:05Z</time>
      </trkpt>
      <trkpt lat="50.80411" lon="2.47132">
        <ele>129.2</ele>
        <time>2023-08-05T10:48:06Z</time>
      </trkpt>
      <trkpt lat="50.8041" lon="2.47134">
        <ele>129.4</ele>
        <time>2023-08-05T10:48:07Z</time>
      </trkpt>
      <trkpt lat="50.80409" lon="2.47136">
        <ele>129.6</ele>
        <time>2023-08-05T10:48:08Z</time>
      </trkpt>
      <trkpt lat="50.80408" lon="2.47139">
        <ele>129.8</ele>
        <time>2023-08-05T10:48:09Z</time>
      </trkpt>
      <trkpt lat="50.80407" lon="2.47141">
        <ele>130</ele>
        <time>2023-08-05T10:48:10Z</time>
      </trkpt>
      <trkpt lat="50.80406" lon="2.47143">
        <ele>130.2</ele>
        <time>2023-08-05T10:48:11Z</time>
      </trkpt>
      <trkpt lat="50.80405" lon="2.47146">
        <ele>130.2</ele>
        <time>2023-08-05T10:48:12Z</time>
      </trkpt>
      <trkpt lat="50.80404" lon="2.47148">
        <ele>130.4</ele>
        <time>2023-08-05T10:48:13Z</time>
      </trkpt>
      <trkpt lat="50.80403" lon="2.4715">
        <ele>130.6</ele>
        <time>2023-08-05T10:48:14Z</time>
      </trkpt>
      <trkpt lat="50.80402" lon="2.47152">
        <ele>130.6</ele>
        <time>2023-08-05T10:48:15Z</time>
      </trkpt>
      <trkpt lat="50.80401" lon="2.47155">
        <ele>130.8</ele>
        <time>2023-08-05T10:48:16Z</time>
      </trkpt>
      <trkpt lat="50.804" lon="2.47157">
        <ele>130.8</ele>
        <time>2023-08-05T10:48:17Z</time>
      </trkpt>
      <trkpt lat="50.80399" lon="2.47159">
        <ele>131.2</ele>
        <time>2023-08-05T10:48:18Z</time>
      </trkpt>
      <trkpt lat="50.80398" lon="2.47161">
        <ele>131.2</ele>
        <time>2023-08-05T10:48:19Z</time>
      </trkpt>
      <trkpt lat="50.80397" lon="2.47164">
        <ele>131.4</ele>
        <time>2023-08-05T10:48:20Z</time>
      </trkpt>
      <trkpt lat="50.80396" lon="2.47166">
        <ele>131.6</ele>
        <time>2023-08-05T10:48:21Z</time>
      </trkpt>
      <trkpt lat="50.80395" lon="2.47168">
        <ele>131.8</ele>
        <time>2023-08-05T10:48:22Z</time>
      </trkpt>
      <trkpt lat="50.80395" lon="2.47171">
        <ele>131.8</ele>
        <time>2023-08-05T10:48:23Z</time>
      </trkpt>
      <trkpt lat="50.80394" lon="2.47173">
        <ele>131.8</ele>
        <time>2023-08-05T10:48:24Z</time>
      </trkpt>
      <trkpt lat="50.80394" lon="2.47176">
        <ele>132</ele>
        <time>2023-08-05T10:48:25Z</time>
      </trkpt>
      <trkpt lat="50.80393" lon="2.47179">
        <ele>132</ele>
        <time>2023-08-05T10:48:26Z</time>
      </trkpt>
      <trkpt lat="50.80392" lon="2.47181">
        <ele>132.2</ele>
        <time>2023-08-05T10:48:27Z</time>
      </trkpt>
      <trkpt lat="50.80391" lon="2.47183">
        <ele>132.2</ele>
        <time>2023-08-05T10:48:28Z</time>
      </trkpt>
      <trkpt lat="50.80391" lon="2.47185">
        <ele>132.6</ele>
        <time>2023-08-05T10:48:29Z</time>
      </trkpt>
      <trkpt lat="50.80391" lon="2.47188">
        <ele>132.6</ele>
        <time>2023-08-05T10:48:30Z</time>
      </trkpt>
      <trkpt lat="50.8039" lon="2.47191">
        <ele>132.8</ele>
        <time>2023-08-05T10:48:31Z</time>
      </trkpt>
      <trkpt lat="50.8039" lon="2.47193">
        <ele>133</ele>
        <time>2023-08-05T10:48:32Z</time>
      </trkpt>
      <trkpt lat="50.8039" lon="2.47196">
        <ele>133</ele>
        <time>2023-08-05T10:48:33Z</time>
      </trkpt>
      <trkpt lat="50.8039" lon="2.47198">
        <ele>133.2</ele>
        <time>2023-08-05T10:48:34Z</time>
      </trkpt>
      <trkpt lat="50.8039" lon="2.47201">
        <ele>133.4</ele>
        <time>2023-08-05T10:48:35Z</time>
      </trkpt>
      <trkpt lat="50.8039" lon="2.47203">
        <ele>133.6</ele>
        <time>2023-08-05T10:48:36Z</time>
      </trkpt>
      <trkpt lat="50.8039" lon="2.47206">
        <ele>133.8</ele>
        <time>2023-08-05T10:48:37Z</time>
      </trkpt>
      <trkpt lat="50.8039" lon="2.47209">
        <ele>134</ele>
        <time>2023-08-05T10:48:38Z</time>
      </trkpt>
      <trkpt lat="50.8039" lon="2.47211">
        <ele>134.2</ele>
        <time>2023-08-05T10:48:39Z</time>
      </trkpt>
      <trkpt lat="50.80391" lon="2.47214">
        <ele>134.4</ele>
        <time>2023-08-05T10:48:40Z</time>
      </trkpt>
      <trkpt lat="50.80391" lon="2.47217">
        <ele>134.8</ele>
        <time>2023-08-05T10:48:41Z</time>
      </trkpt>
      <trkpt lat="50.80391" lon="2.4722">
        <ele>134.8</ele>
        <time>2023-08-05T10:48:42Z</time>
      </trkpt>
      <trkpt lat="50.80391" lon="2.47222">
        <ele>135</ele>
        <time>2023-08-05T10:48:43Z</time>
      </trkpt>
      <trkpt lat="50.80392" lon="2.47225">
        <ele>135.2</ele>
        <time>2023-08-05T10:48:44Z</time>
      </trkpt>
      <trkpt lat="50.80392" lon="2.47227">
        <ele>135.4</ele>
        <time>2023-08-05T10:48:45Z</time>
      </trkpt>
      <trkpt lat="50.80393" lon="2.4723">
        <ele>135.4</ele>
        <time>2023-08-05T10:48:46Z</time>
      </trkpt>
      <trkpt lat="50.80394" lon="2.47232">
        <ele>135.6</ele>
        <time>2023-08-05T10:48:47Z</time>
      </trkpt>
      <trkpt lat="50.80394" lon="2.47235">
        <ele>135.8</ele>
        <time>2023-08-05T10:48:48Z</time>
      </trkpt>
      <trkpt lat="50.80395" lon="2.47238">
        <ele>136</ele>
        <time>2023-08-05T10:48:49Z</time>
      </trkpt>
      <trkpt lat="50.80395" lon="2.47241">
        <ele>136.2</ele>
        <time>2023-08-05T10:48:50Z</time>
      </trkpt>
      <trkpt lat="50.80395" lon="2.47243">
        <ele>136.4</ele>
        <time>2023-08-05T10:48:51Z</time>
      </trkpt>
      <trkpt lat="50.80396" lon="2.47246">
        <ele>136.6</ele>
        <time>2023-08-05T10:48:52Z</time>
      </trkpt>
      <trkpt lat="50.80396" lon="2.47249">
        <ele>136.8</ele>
        <time>2023-08-05T10:48:53Z</time>
      </trkpt>
      <trkpt lat="50.80396" lon="2.47251">
        <ele>137</ele>
        <time>2023-08-05T10:48:54Z</time>
      </trkpt>
      <trkpt lat="50.80396" lon="2.47254">
        <ele>137.2</ele>
        <time>2023-08-05T10:48:55Z</time>
      </trkpt>
      <trkpt lat="50.80397" lon="2.47256">
        <ele>137.6</ele>
        <time>2023-08-05T10:48:56Z</time>
      </trkpt>
      <trkpt lat="50.80397" lon="2.47259">
        <ele>137.8</ele>
        <time>2023-08-05T10:48:57Z</time>
      </trkpt>
      <trkpt lat="50.80397" lon="2.47262">
        <ele>138</ele>
        <time>2023-08-05T10:48:58Z</time>
      </trkpt>
      <trkpt lat="50.80397" lon="2.47264">
        <ele>138</ele>
        <time>2023-08-05T10:48:59Z</time>
      </trkpt>
      <trkpt lat="50.80397" lon="2.47267">
        <ele>138.2</ele>
        <time>2023-08-05T10:49:00Z</time>
      </trkpt>
      <trkpt lat="50.80397" lon="2.47269">
        <ele>138.4</ele>
        <time>2023-08-05T10:49:01Z</time>
      </trkpt>
      <trkpt lat="50.80397" lon="2.47271">
        <ele>138.6</ele>
        <time>2023-08-05T10:49:02Z</time>
      </trkpt>
      <trkpt lat="50.80397" lon="2.47273">
        <ele>138.8</ele>
        <time>2023-08-05T10:49:03Z</time>
      </trkpt>
      <trkpt lat="50.80397" lon="2.47276">
        <ele>139</ele>
        <time>2023-08-05T10:49:04Z</time>
      </trkpt>
      <trkpt lat="50.80397" lon="2.47278">
        <ele>139.2</ele>
        <time>2023-08-05T10:49:05Z</time>
      </trkpt>
      <trkpt lat="50.80397" lon="2.47281">
        <ele>139.4</ele>
        <time>2023-08-05T10:49:06Z</time>
      </trkpt>
      <trkpt lat="50.80397" lon="2.47283">
        <ele>139.6</ele>
        <time>2023-08-05T10:49:07Z</time>
      </trkpt>
      <trkpt lat="50.80396" lon="2.47286">
        <ele>139.8</ele>
        <time>2023-08-05T10:49:08Z</time>
      </trkpt>
      <trkpt lat="50.80396" lon="2.47289">
        <ele>139.8</ele>
        <time>2023-08-05T10:49:09Z</time>
      </trkpt>
      <trkpt lat="50.80396" lon="2.47291">
        <ele>140</ele>
        <time>2023-08-05T10:49:10Z</time>
      </trkpt>
      <trkpt lat="50.80395" lon="2.47294">
        <ele>140</ele>
        <time>2023-08-05T10:49:11Z</time>
      </trkpt>
      <trkpt lat="50.80395" lon="2.47296">
        <ele>140.2</ele>
        <time>2023-08-05T10:49:12Z</time>
      </trkpt>
      <trkpt lat="50.80395" lon="2.47299">
        <ele>140.4</ele>
        <time>2023-08-05T10:49:13Z</time>
      </trkpt>
      <trkpt lat="50.80394" lon="2.47301">
        <ele>140.4</ele>
        <time>2023-08-05T10:49:14Z</time>
      </trkpt>
      <trkpt lat="50.80395" lon="2.47304">
        <ele>140.6</ele>
        <time>2023-08-05T10:49:15Z</time>
      </trkpt>
      <trkpt lat="50.80395" lon="2.47307">
        <ele>140.8</ele>
        <time>2023-08-05T10:49:16Z</time>
      </trkpt>
      <trkpt lat="50.80395" lon="2.4731">
        <ele>141.4</ele>
        <time>2023-08-05T10:49:17Z</time>
      </trkpt>
      <trkpt lat="50.80394" lon="2.47312">
        <ele>141.4</ele>
        <time>2023-08-05T10:49:18Z</time>
      </trkpt>
      <trkpt lat="50.80394" lon="2.47315">
        <ele>141.6</ele>
        <time>2023-08-05T10:49:19Z</time>
      </trkpt>
      <trkpt lat="50.80394" lon="2.47318">
        <ele>141.8</ele>
        <time>2023-08-05T10:49:20Z</time>
      </trkpt>
      <trkpt lat="50.80394" lon="2.47321">
        <ele>141.8</ele>
        <time>2023-08-05T10:49:21Z</time>
      </trkpt>
      <trkpt lat="50.80394" lon="2.47324">
        <ele>142</ele>
        <time>2023-08-05T10:49:22Z</time>
      </trkpt>
      <trkpt lat="50.80394" lon="2.47326">
        <ele>142</ele>
        <time>2023-08-05T10:49:23Z</time>
      </trkpt>
      <trkpt lat="50.80394" lon="2.47329">
        <ele>142.4</ele>
        <time>2023-08-05T10:49:24Z</time>
      </trkpt>
      <trkpt lat="50.80394" lon="2.47331">
        <ele>142.4</ele>
        <time>2023-08-05T10:49:25Z</time>
      </trkpt>
      <trkpt lat="50.80394" lon="2.47335">
        <ele>142.6</ele>
        <time>2023-08-05T10:49:26Z</time>
      </trkpt>
      <trkpt lat="50.80394" lon="2.47337">
        <ele>142.8</ele>
        <time>2023-08-05T10:49:27Z</time>
      </trkpt>
      <trkpt lat="50.80395" lon="2.4734">
        <ele>143</ele>
        <time>2023-08-05T10:49:28Z</time>
      </trkpt>
      <trkpt lat="50.80395" lon="2.47343">
        <ele>143.2</ele>
        <time>2023-08-05T10:49:29Z</time>
      </trkpt>
      <trkpt lat="50.80396" lon="2.47347">
        <ele>143.2</ele>
        <time>2023-08-05T10:49:30Z</time>
      </trkpt>
      <trkpt lat="50.80397" lon="2.47349">
        <ele>143.6</ele>
        <time>2023-08-05T10:49:31Z</time>
      </trkpt>
      <trkpt lat="50.80398" lon="2.47352">
        <ele>143.8</ele>
        <time>2023-08-05T10:49:32Z</time>
      </trkpt>
      <trkpt lat="50.80398" lon="2.47354">
        <ele>144</ele>
        <time>2023-08-05T10:49:33Z</time>
      </trkpt>
      <trkpt lat="50.80398" lon="2.47357">
        <ele>144</ele>
        <time>2023-08-05T10:49:34Z</time>
      </trkpt>
      <trkpt lat="50.80399" lon="2.47359">
        <ele>144.2</ele>
        <time>2023-08-05T10:49:35Z</time>
      </trkpt>
      <trkpt lat="50.80399" lon="2.47362">
        <ele>144.4</ele>
        <time>2023-08-05T10:49:36Z</time>
      </trkpt>
      <trkpt lat="50.80399" lon="2.47365">
        <ele>144.6</ele>
        <time>2023-08-05T10:49:37Z</time>
      </trkpt>
      <trkpt lat="50.804" lon="2.47367">
        <ele>144.8</ele>
        <time>2023-08-05T10:49:38Z</time>
      </trkpt>
      <trkpt lat="50.80401" lon="2.4737">
        <ele>145</ele>
        <time>2023-08-05T10:49:39Z</time>
      </trkpt>
      <trkpt lat="50.80401" lon="2.47373">
        <ele>145.4</ele>
        <time>2023-08-05T10:49:40Z</time>
      </trkpt>
      <trkpt lat="50.80401" lon="2.47375">
        <ele>145.4</ele>
        <time>2023-08-05T10:49:41Z</time>
      </trkpt>
      <trkpt lat="50.80402" lon="2.47378">
        <ele>145.6</ele>
        <time>2023-08-05T10:49:42Z</time>
      </trkpt>
      <trkpt lat="50.80402" lon="2.47381">
        <ele>145.8</ele>
        <time>2023-08-05T10:49:43Z</time>
      </trkpt>
      <trkpt lat="50.80403" lon="2.47383">
        <ele>145.8</ele>
        <time>2023-08-05T10:49:44Z</time>
      </trkpt>
      <trkpt lat="50.80403" lon="2.47386">
        <ele>146.2</ele>
        <time>2023-08-05T10:49:45Z</time>
      </trkpt>
      <trkpt lat="50.80403" lon="2.47389">
        <ele>146.2</ele>
        <time>2023-08-05T10:49:46Z</time>
      </trkpt>
      <trkpt lat="50.80403" lon="2.47391">
        <ele>146.4</ele>
        <time>2023-08-05T10:49:47Z</time>
      </trkpt>
      <trkpt lat="50.80403" lon="2.47394">
        <ele>146.6</ele>
        <time>2023-08-05T10:49:48Z</time>
      </trkpt>
      <trkpt lat="50.80402" lon="2.47396">
        <ele>146.6</ele>
        <time>2023-08-05T10:49:49Z</time>
      </trkpt>
      <trkpt lat="50.80402" lon="2.47399">
        <ele>146.8</ele>
        <time>2023-08-05T10:49:50Z</time>
      </trkpt>
      <trkpt lat="50.80401" lon="2.47401">
        <ele>146.8</ele>
        <time>2023-08-05T10:49:51Z</time>
      </trkpt>
      <trkpt lat="50.804" lon="2.47403">
        <ele>147</ele>
        <time>2023-08-05T10:49:52Z</time>
      </trkpt>
      <trkpt lat="50.80399" lon="2.47405">
        <ele>147.2</ele>
        <time>2023-08-05T10:49:53Z</time>
      </trkpt>
      <trkpt lat="50.80397" lon="2.47406">
        <ele>147.4</ele>
        <time>2023-08-05T10:49:54Z</time>
      </trkpt>
      <trkpt lat="50.80396" lon="2.47407">
        <ele>147.6</ele>
        <time>2023-08-05T10:49:55Z</time>
      </trkpt>
      <trkpt lat="50.80394" lon="2.47408">
        <ele>147.8</ele>
        <time>2023-08-05T10:49:56Z</time>
      </trkpt>
      <trkpt lat="50.80393" lon="2.47409">
        <ele>148</ele>
        <time>2023-08-05T10:49:57Z</time>
      </trkpt>
      <trkpt lat="50.80392" lon="2.4741">
        <ele>148.2</ele>
        <time>2023-08-05T10:49:58Z</time>
      </trkpt>
      <trkpt lat="50.8039" lon="2.4741">
        <ele>148.4</ele>
        <time>2023-08-05T10:49:59Z</time>
      </trkpt>
      <trkpt lat="50.80389" lon="2.4741">
        <ele>148.6</ele>
        <time>2023-08-05T10:50:00Z</time>
      </trkpt>
      <trkpt lat="50.80387" lon="2.4741">
        <ele>148.8</ele>
        <time>2023-08-05T10:50:01Z</time>
      </trkpt>
      <trkpt lat="50.80385" lon="2.47409">
        <ele>148.8</ele>
        <time>2023-08-05T10:50:02Z</time>
      </trkpt>
      <trkpt lat="50.80384" lon="2.47409">
        <ele>149</ele>
        <time>2023-08-05T10:50:03Z</time>
      </trkpt>
      <trkpt lat="50.80382" lon="2.47408">
        <ele>149.4</ele>
        <time>2023-08-05T10:50:04Z</time>
      </trkpt>
      <trkpt lat="50.8038" lon="2.47407">
        <ele>149.4</ele>
        <time>2023-08-05T10:50:05Z</time>
      </trkpt>
      <trkpt lat="50.80379" lon="2.47406">
        <ele>149.6</ele>
        <time>2023-08-05T10:50:06Z</time>
      </trkpt>
      <trkpt lat="50.80377" lon="2.47405">
        <ele>149.6</ele>
        <time>2023-08-05T10:50:07Z</time>
      </trkpt>
      <trkpt lat="50.80376" lon="2.47403">
        <ele>150</ele>
        <time>2023-08-05T10:50:08Z</time>
      </trkpt>
      <trkpt lat="50.80375" lon="2.47402">
        <ele>150</ele>
        <time>2023-08-05T10:50:09Z</time>
      </trkpt>
      <trkpt lat="50.80374" lon="2.474">
        <ele>150.2</ele>
        <time>2023-08-05T10:50:10Z</time>
      </trkpt>
      <trkpt lat="50.80373" lon="2.47399">
        <ele>150.4</ele>
        <time>2023-08-05T10:50:11Z</time>
      </trkpt>
      <trkpt lat="50.80372" lon="2.47398">
        <ele>151</ele>
        <time>2023-08-05T10:50:12Z</time>
      </trkpt>
      <trkpt lat="50.80371" lon="2.47396">
        <ele>151</ele>
        <time>2023-08-05T10:50:13Z</time>
      </trkpt>
      <trkpt lat="50.80369" lon="2.47393">
        <ele>151.2</ele>
        <time>2023-08-05T10:50:14Z</time>
      </trkpt>
      <trkpt lat="50.80368" lon="2.47391">
        <ele>151.6</ele>
        <time>2023-08-05T10:50:15Z</time>
      </trkpt>
      <trkpt lat="50.80367" lon="2.47389">
        <ele>151.6</ele>
        <time>2023-08-05T10:50:16Z</time>
      </trkpt>
      <trkpt lat="50.80367" lon="2.47387">
        <ele>151.8</ele>
        <time>2023-08-05T10:50:17Z</time>
      </trkpt>
      <trkpt lat="50.80366" lon="2.47384">
        <ele>152</ele>
        <time>2023-08-05T10:50:18Z</time>
      </trkpt>
      <trkpt lat="50.80365" lon="2.47383">
        <ele>152.2</ele>
        <time>2023-08-05T10:50:19Z</time>
      </trkpt>
      <trkpt lat="50.80364" lon="2.47381">
        <ele>152.2</ele>
        <time>2023-08-05T10:50:20Z</time>
      </trkpt>
      <trkpt lat="50.80364" lon="2.47378">
        <ele>152.6</ele>
        <time>2023-08-05T10:50:21Z</time>
      </trkpt>
      <trkpt lat="50.80363" lon="2.47376">
        <ele>152.8</ele>
        <time>2023-08-05T10:50:22Z</time>
      </trkpt>
      <trkpt lat="50.80362" lon="2.47373">
        <ele>153</ele>
        <time>2023-08-05T10:50:23Z</time>
      </trkpt>
      <trkpt lat="50.80362" lon="2.4737">
        <ele>153.2</ele>
        <time>2023-08-05T10:50:24Z</time>
      </trkpt>
      <trkpt lat="50.80362" lon="2.47368">
        <ele>153.4</ele>
        <time>2023-08-05T10:50:25Z</time>
      </trkpt>
      <trkpt lat="50.80362" lon="2.47366">
        <ele>153.6</ele>
        <time>2023-08-05T10:50:26Z</time>
      </trkpt>
      <trkpt lat="50.80361" lon="2.47364">
        <ele>153.8</ele>
        <time>2023-08-05T10:50:27Z</time>
      </trkpt>
      <trkpt lat="50.80361" lon="2.47363">
        <ele>153.8</ele>
        <time>2023-08-05T10:50:28Z</time>
      </trkpt>
      <trkpt lat="50.8036" lon="2.47362">
        <ele>154</ele>
        <time>2023-08-05T10:50:29Z</time>
      </trkpt>
      <trkpt lat="50.8036" lon="2.4736">
        <ele>154</ele>
        <time>2023-08-05T10:50:30Z</time>
      </trkpt>
      <trkpt lat="50.8036" lon="2.47358">
        <ele>154.2</ele>
        <time>2023-08-05T10:50:31Z</time>
      </trkpt>
      <trkpt lat="50.80359" lon="2.47357">
        <ele>154.2</ele>
        <time>2023-08-05T10:50:32Z</time>
      </trkpt>
      <trkpt lat="50.80358" lon="2.47355">
        <ele>154.4</ele>
        <time>2023-08-05T10:50:33Z</time>
      </trkpt>
      <trkpt lat="50.80358" lon="2.47353">
        <ele>154.6</ele>
        <time>2023-08-05T10:50:34Z</time>
      </trkpt>
      <trkpt lat="50.80357" lon="2.47351">
        <ele>154.8</ele>
        <time>2023-08-05T10:50:35Z</time>
      </trkpt>
      <trkpt lat="50.80357" lon="2.4735">
        <ele>155</ele>
        <time>2023-08-05T10:50:36Z</time>
      </trkpt>
      <trkpt lat="50.80356" lon="2.47348">
        <ele>155</ele>
        <time>2023-08-05T10:50:37Z</time>
      </trkpt>
      <trkpt lat="50.80355" lon="2.47346">
        <ele>155</ele>
        <time>2023-08-05T10:50:38Z</time>
      </trkpt>
      <trkpt lat="50.80355" lon="2.47344">
        <ele>155.2</ele>
        <time>2023-08-05T10:50:39Z</time>
      </trkpt>
      <trkpt lat="50.80354" lon="2.47342">
        <ele>155.2</ele>
        <time>2023-08-05T10:50:40Z</time>
      </trkpt>
      <trkpt lat="50.80354" lon="2.47341">
        <ele>155.4</ele>
        <time>2023-08-05T10:50:41Z</time>
      </trkpt>
      <trkpt lat="50.80353" lon="2.4734">
        <ele>155.6</ele>
        <time>2023-08-05T10:50:42Z</time>
      </trkpt>
      <trkpt lat="50.80352" lon="2.47338">
        <ele>155.6</ele>
        <time>2023-08-05T10:50:43Z</time>
      </trkpt>
      <trkpt lat="50.80351" lon="2.47337">
        <ele>155.8</ele>
        <time>2023-08-05T10:50:44Z</time>
      </trkpt>
      <trkpt lat="50.8035" lon="2.47335">
        <ele>156</ele>
        <time>2023-08-05T10:50:45Z</time>
      </trkpt>
      <trkpt lat="50.8035" lon="2.47334">
        <ele>156</ele>
        <time>2023-08-05T10:50:46Z</time>
      </trkpt>
      <trkpt lat="50.80349" lon="2.47333">
        <ele>156.2</ele>
        <time>2023-08-05T10:50:47Z</time>
      </trkpt>
      <trkpt lat="50.80348" lon="2.47333">
        <ele>156.4</ele>
        <time>2023-08-05T10:50:48Z</time>
      </trkpt>
      <trkpt lat="50.80347" lon="2.47331">
        <ele>156.6</ele>
        <time>2023-08-05T10:50:49Z</time>
      </trkpt>
      <trkpt lat="50.80346" lon="2.4733">
        <ele>156.6</ele>
        <time>2023-08-05T10:50:50Z</time>
      </trkpt>
      <trkpt lat="50.80344" lon="2.47328">
        <ele>156.8</ele>
        <time>2023-08-05T10:50:51Z</time>
      </trkpt>
      <trkpt lat="50.80342" lon="2.47327">
        <ele>156.8</ele>
        <time>2023-08-05T10:50:52Z</time>
      </trkpt>
      <trkpt lat="50.80341" lon="2.47326">
        <ele>157.2</ele>
        <time>2023-08-05T10:50:53Z</time>
      </trkpt>
      <trkpt lat="50.80339" lon="2.47324">
        <ele>157.4</ele>
        <time>2023-08-05T10:50:54Z</time>
      </trkpt>
      <trkpt lat="50.80337" lon="2.47323">
        <ele>157.4</ele>
        <time>2023-08-05T10:50:55Z</time>
      </trkpt>
      <trkpt lat="50.80335" lon="2.47324">
        <ele>157.6</ele>
        <time>2023-08-05T10:50:56Z</time>
      </trkpt>
      <trkpt lat="50.80334" lon="2.47325">
        <ele>157.6</ele>
        <time>2023-08-05T10:50:57Z</time>
      </trkpt>
      <trkpt lat="50.80332" lon="2.47326">
        <ele>157.8</ele>
        <time>2023-08-05T10:50:58Z</time>
      </trkpt>
      <trkpt lat="50.80331" lon="2.47327">
        <ele>157.8</ele>
        <time>2023-08-05T10:50:59Z</time>
      </trkpt>
      <trkpt lat="50.8033" lon="2.47328">
        <ele>158</ele>
        <time>2023-08-05T10:51:00Z</time>
      </trkpt>
      <trkpt lat="50.80328" lon="2.4733">
        <ele>158.2</ele>
        <time>2023-08-05T10:51:01Z</time>
      </trkpt>
      <trkpt lat="50.80328" lon="2.47331">
        <ele>158.2</ele>
        <time>2023-08-05T10:51:02Z</time>
      </trkpt>
      <trkpt lat="50.80327" lon="2.47332">
        <ele>158.4</ele>
        <time>2023-08-05T10:51:03Z</time>
      </trkpt>
      <trkpt lat="50.80326" lon="2.47334">
        <ele>158.4</ele>
        <time>2023-08-05T10:51:04Z</time>
      </trkpt>
      <trkpt lat="50.80325" lon="2.47336">
        <ele>158.6</ele>
        <time>2023-08-05T10:51:05Z</time>
      </trkpt>
      <trkpt lat="50.80323" lon="2.47337">
        <ele>158.6</ele>
        <time>2023-08-05T10:51:06Z</time>
      </trkpt>
      <trkpt lat="50.80322" lon="2.47339">
        <ele>158.8</ele>
        <time>2023-08-05T10:51:07Z</time>
      </trkpt>
      <trkpt lat="50.80321" lon="2.4734">
        <ele>159</ele>
        <time>2023-08-05T10:51:08Z</time>
      </trkpt>
      <trkpt lat="50.8032" lon="2.47342">
        <ele>159.2</ele>
        <time>2023-08-05T10:51:09Z</time>
      </trkpt>
      <trkpt lat="50.8032" lon="2.47345">
        <ele>159.2</ele>
        <time>2023-08-05T10:51:10Z</time>
      </trkpt>
      <trkpt lat="50.80319" lon="2.47346">
        <ele>159.2</ele>
        <time>2023-08-05T10:51:11Z</time>
      </trkpt>
      <trkpt lat="50.80318" lon="2.47348">
        <ele>159.4</ele>
        <time>2023-08-05T10:51:12Z</time>
      </trkpt>
      <trkpt lat="50.80318" lon="2.4735">
        <ele>159.6</ele>
        <time>2023-08-05T10:51:13Z</time>
      </trkpt>
      <trkpt lat="50.80317" lon="2.47352">
        <ele>159.6</ele>
        <time>2023-08-05T10:51:14Z</time>
      </trkpt>
      <trkpt lat="50.80316" lon="2.47354">
        <ele>159.6</ele>
        <time>2023-08-05T10:51:15Z</time>
      </trkpt>
      <trkpt lat="50.80316" lon="2.47356">
        <ele>159.8</ele>
        <time>2023-08-05T10:51:16Z</time>
      </trkpt>
      <trkpt lat="50.80315" lon="2.47358">
        <ele>160</ele>
        <time>2023-08-05T10:51:17Z</time>
      </trkpt>
      <trkpt lat="50.80315" lon="2.4736">
        <ele>160</ele>
        <time>2023-08-05T10:51:18Z</time>
      </trkpt>
      <trkpt lat="50.80314" lon="2.47362">
        <ele>160.2</ele>
        <time>2023-08-05T10:51:19Z</time>
      </trkpt>
      <trkpt lat="50.80314" lon="2.47364">
        <ele>160.2</ele>
        <time>2023-08-05T10:51:20Z</time>
      </trkpt>
      <trkpt lat="50.80313" lon="2.47366">
        <ele>160.6</ele>
        <time>2023-08-05T10:51:21Z</time>
      </trkpt>
      <trkpt lat="50.80312" lon="2.47368">
        <ele>160.6</ele>
        <time>2023-08-05T10:51:22Z</time>
      </trkpt>
      <trkpt lat="50.80312" lon="2.4737">
        <ele>160.8</ele>
        <time>2023-08-05T10:51:23Z</time>
      </trkpt>
      <trkpt lat="50.80311" lon="2.47372">
        <ele>160.8</ele>
        <time>2023-08-05T10:51:24Z</time>
      </trkpt>
      <trkpt lat="50.80311" lon="2.47373">
        <ele>160.8</ele>
        <time>2023-08-05T10:51:25Z</time>
      </trkpt>
      <trkpt lat="50.8031" lon="2.47375">
        <ele>161</ele>
        <time>2023-08-05T10:51:26Z</time>
      </trkpt>
      <trkpt lat="50.8031" lon="2.47377">
        <ele>161</ele>
        <time>2023-08-05T10:51:27Z</time>
      </trkpt>
      <trkpt lat="50.80309" lon="2.47379">
        <ele>161.2</ele>
        <time>2023-08-05T10:51:28Z</time>
      </trkpt>
      <trkpt lat="50.80309" lon="2.47381">
        <ele>161.2</ele>
        <time>2023-08-05T10:51:29Z</time>
      </trkpt>
      <trkpt lat="50.80309" lon="2.47384">
        <ele>161.4</ele>
        <time>2023-08-05T10:51:30Z</time>
      </trkpt>
      <trkpt lat="50.80309" lon="2.47386">
        <ele>161.6</ele>
        <time>2023-08-05T10:51:31Z</time>
      </trkpt>
      <trkpt lat="50.80308" lon="2.47388">
        <ele>161.6</ele>
        <time>2023-08-05T10:51:32Z</time>
      </trkpt>
      <trkpt lat="50.80308" lon="2.4739">
        <ele>161.8</ele>
        <time>2023-08-05T10:51:33Z</time>
      </trkpt>
      <trkpt lat="50.80307" lon="2.47392">
        <ele>161.8</ele>
        <time>2023-08-05T10:51:34Z</time>
      </trkpt>
      <trkpt lat="50.80306" lon="2.47394">
        <ele>162</ele>
        <time>2023-08-05T10:51:35Z</time>
      </trkpt>
      <trkpt lat="50.80306" lon="2.47396">
        <ele>162.2</ele>
        <time>2023-08-05T10:51:36Z</time>
      </trkpt>
      <trkpt lat="50.80305" lon="2.47398">
        <ele>162.4</ele>
        <time>2023-08-05T10:51:37Z</time>
      </trkpt>
      <trkpt lat="50.80305" lon="2.474">
        <ele>162.4</ele>
        <time>2023-08-05T10:51:38Z</time>
      </trkpt>
      <trkpt lat="50.80304" lon="2.47402">
        <ele>162.6</ele>
        <time>2023-08-05T10:51:39Z</time>
      </trkpt>
      <trkpt lat="50.80303" lon="2.47404">
        <ele>162.8</ele>
        <time>2023-08-05T10:51:40Z</time>
      </trkpt>
      <trkpt lat="50.80303" lon="2.47406">
        <ele>162.8</ele>
        <time>2023-08-05T10:51:41Z</time>
      </trkpt>
      <trkpt lat="50.80302" lon="2.47408">
        <ele>163.2</ele>
        <time>2023-08-05T10:51:42Z</time>
      </trkpt>
      <trkpt lat="50.80301" lon="2.4741">
        <ele>163.2</ele>
        <time>2023-08-05T10:51:43Z</time>
      </trkpt>
      <trkpt lat="50.80301" lon="2.47412">
        <ele>163.4</ele>
        <time>2023-08-05T10:51:44Z</time>
      </trkpt>
      <trkpt lat="50.803" lon="2.47414">
        <ele>163.6</ele>
        <time>2023-08-05T10:51:45Z</time>
      </trkpt>
      <trkpt lat="50.803" lon="2.47417">
        <ele>163.6</ele>
        <time>2023-08-05T10:51:46Z</time>
      </trkpt>
      <trkpt lat="50.80299" lon="2.47418">
        <ele>163.8</ele>
        <time>2023-08-05T10:51:47Z</time>
      </trkpt>
      <trkpt lat="50.80298" lon="2.4742">
        <ele>163.8</ele>
        <time>2023-08-05T10:51:48Z</time>
      </trkpt>
      <trkpt lat="50.80298" lon="2.47422">
        <ele>164</ele>
        <time>2023-08-05T10:51:49Z</time>
      </trkpt>
      <trkpt lat="50.80298" lon="2.47424">
        <ele>164</ele>
        <time>2023-08-05T10:51:50Z</time>
      </trkpt>
      <trkpt lat="50.80297" lon="2.47426">
        <ele>164</ele>
        <time>2023-08-05T10:51:51Z</time>
      </trkpt>
      <trkpt lat="50.80297" lon="2.47428">
        <ele>164.2</ele>
        <time>2023-08-05T10:51:52Z</time>
      </trkpt>
      <trkpt lat="50.80296" lon="2.4743">
        <ele>164.4</ele>
        <time>2023-08-05T10:51:53Z</time>
      </trkpt>
      <trkpt lat="50.80296" lon="2.47432">
        <ele>164.4</ele>
        <time>2023-08-05T10:51:54Z</time>
      </trkpt>
      <trkpt lat="50.80295" lon="2.47434">
        <ele>164.6</ele>
        <time>2023-08-05T10:51:55Z</time>
      </trkpt>
      <trkpt lat="50.80295" lon="2.47436">
        <ele>164.8</ele>
        <time>2023-08-05T10:51:56Z</time>
      </trkpt>
      <trkpt lat="50.80294" lon="2.47438">
        <ele>164.8</ele>
        <time>2023-08-05T10:51:57Z</time>
      </trkpt>
      <trkpt lat="50.80293" lon="2.4744">
        <ele>165</ele>
        <time>2023-08-05T10:51:58Z</time>
      </trkpt>
      <trkpt lat="50.80293" lon="2.47442">
        <ele>165</ele>
        <time>2023-08-05T10:51:59Z</time>
      </trkpt>
      <trkpt lat="50.80292" lon="2.47444">
        <ele>165</ele>
        <time>2023-08-05T10:52:00Z</time>
      </trkpt>
      <trkpt lat="50.80292" lon="2.47446">
        <ele>165</ele>
        <time>2023-08-05T10:52:01Z</time>
      </trkpt>
      <trkpt lat="50.80291" lon="2.47448">
        <ele>165.2</ele>
        <time>2023-08-05T10:52:02Z</time>
      </trkpt>
      <trkpt lat="50.80291" lon="2.4745">
        <ele>165.4</ele>
        <time>2023-08-05T10:52:03Z</time>
      </trkpt>
      <trkpt lat="50.8029" lon="2.47452">
        <ele>165.4</ele>
        <time>2023-08-05T10:52:04Z</time>
      </trkpt>
      <trkpt lat="50.8029" lon="2.47454">
        <ele>165.6</ele>
        <time>2023-08-05T10:52:05Z</time>
      </trkpt>
      <trkpt lat="50.80289" lon="2.47456">
        <ele>165.8</ele>
        <time>2023-08-05T10:52:06Z</time>
      </trkpt>
      <trkpt lat="50.80288" lon="2.47458">
        <ele>166</ele>
        <time>2023-08-05T10:52:07Z</time>
      </trkpt>
      <trkpt lat="50.80288" lon="2.4746">
        <ele>166</ele>
        <time>2023-08-05T10:52:08Z</time>
      </trkpt>
      <trkpt lat="50.80287" lon="2.47462">
        <ele>166.2</ele>
        <time>2023-08-05T10:52:09Z</time>
      </trkpt>
      <trkpt lat="50.80286" lon="2.47464">
        <ele>166.2</ele>
        <time>2023-08-05T10:52:10Z</time>
      </trkpt>
      <trkpt lat="50.80285" lon="2.47466">
        <ele>166.4</ele>
        <time>2023-08-05T10:52:11Z</time>
      </trkpt>
      <trkpt lat="50.80285" lon="2.47468">
        <ele>166.6</ele>
        <time>2023-08-05T10:52:12Z</time>
      </trkpt>
      <trkpt lat="50.80284" lon="2.4747">
        <ele>166.6</ele>
        <time>2023-08-05T10:52:13Z</time>
      </trkpt>
      <trkpt lat="50.80283" lon="2.47472">
        <ele>166.8</ele>
        <time>2023-08-05T10:52:14Z</time>
      </trkpt>
      <trkpt lat="50.80283" lon="2.47474">
        <ele>166.8</ele>
        <time>2023-08-05T10:52:15Z</time>
      </trkpt>
      <trkpt lat="50.80282" lon="2.47476">
        <ele>167.2</ele>
        <time>2023-08-05T10:52:16Z</time>
      </trkpt>
      <trkpt lat="50.80282" lon="2.47478">
        <ele>167.4</ele>
        <time>2023-08-05T10:52:17Z</time>
      </trkpt>
      <trkpt lat="50.80281" lon="2.4748">
        <ele>167.4</ele>
        <time>2023-08-05T10:52:18Z</time>
      </trkpt>
      <trkpt lat="50.8028" lon="2.47482">
        <ele>167.6</ele>
        <time>2023-08-05T10:52:19Z</time>
      </trkpt>
      <trkpt lat="50.8028" lon="2.47484">
        <ele>167.6</ele>
        <time>2023-08-05T10:52:20Z</time>
      </trkpt>
      <trkpt lat="50.80279" lon="2.47485">
        <ele>167.8</ele>
        <time>2023-08-05T10:52:21Z</time>
      </trkpt>
      <trkpt lat="50.80278" lon="2.47487">
        <ele>168</ele>
        <time>2023-08-05T10:52:22Z</time>
      </trkpt>
      <trkpt lat="50.80278" lon="2.47489">
        <ele>168.2</ele>
        <time>2023-08-05T10:52:23Z</time>
      </trkpt>
      <trkpt lat="50.80277" lon="2.47491">
        <ele>168.2</ele>
        <time>2023-08-05T10:52:24Z</time>
      </trkpt>
      <trkpt lat="50.80276" lon="2.47493">
        <ele>168.6</ele>
        <time>2023-08-05T10:52:25Z</time>
      </trkpt>
      <trkpt lat="50.80276" lon="2.47495">
        <ele>168.8</ele>
        <time>2023-08-05T10:52:26Z</time>
      </trkpt>
      <trkpt lat="50.80275" lon="2.47496">
        <ele>169</ele>
        <time>2023-08-05T10:52:27Z</time>
      </trkpt>
      <trkpt lat="50.80274" lon="2.47498">
        <ele>169.2</ele>
        <time>2023-08-05T10:52:28Z</time>
      </trkpt>
      <trkpt lat="50.80273" lon="2.475">
        <ele>169.4</ele>
        <time>2023-08-05T10:52:29Z</time>
      </trkpt>
      <trkpt lat="50.80273" lon="2.47502">
        <ele>169.6</ele>
        <time>2023-08-05T10:52:30Z</time>
      </trkpt>
      <trkpt lat="50.80272" lon="2.47504">
        <ele>169.6</ele>
        <time>2023-08-05T10:52:31Z</time>
      </trkpt>
      <trkpt lat="50.80271" lon="2.47506">
        <ele>169.8</ele>
        <time>2023-08-05T10:52:32Z</time>
      </trkpt>
      <trkpt lat="50.8027" lon="2.47508">
        <ele>169.8</ele>
        <time>2023-08-05T10:52:33Z</time>
      </trkpt>
      <trkpt lat="50.80269" lon="2.4751">
        <ele>170</ele>
        <time>2023-08-05T10:52:34Z</time>
      </trkpt>
      <trkpt lat="50.80268" lon="2.47512">
        <ele>170</ele>
        <time>2023-08-05T10:52:35Z</time>
      </trkpt>
      <trkpt lat="50.80268" lon="2.47513">
        <ele>170.2</ele>
        <time>2023-08-05T10:52:36Z</time>
      </trkpt>
      <trkpt lat="50.80267" lon="2.47516">
        <ele>170.4</ele>
        <time>2023-08-05T10:52:37Z</time>
      </trkpt>
      <trkpt lat="50.80266" lon="2.47517">
        <ele>170.4</ele>
        <time>2023-08-05T10:52:38Z</time>
      </trkpt>
      <trkpt lat="50.80266" lon="2.47519">
        <ele>170.6</ele>
        <time>2023-08-05T10:52:39Z</time>
      </trkpt>
      <trkpt lat="50.80265" lon="2.47521">
        <ele>170.6</ele>
        <time>2023-08-05T10:52:40Z</time>
      </trkpt>
      <trkpt lat="50.80264" lon="2.47523">
        <ele>170.6</ele>
        <time>2023-08-05T10:52:41Z</time>
      </trkpt>
      <trkpt lat="50.80264" lon="2.47525">
        <ele>170.8</ele>
        <time>2023-08-05T10:52:42Z</time>
      </trkpt>
      <trkpt lat="50.80263" lon="2.47527">
        <ele>171</ele>
        <time>2023-08-05T10:52:43Z</time>
      </trkpt>
      <trkpt lat="50.80263" lon="2.47529">
        <ele>171</ele>
        <time>2023-08-05T10:52:44Z</time>
      </trkpt>
      <trkpt lat="50.80262" lon="2.47531">
        <ele>171.2</ele>
        <time>2023-08-05T10:52:45Z</time>
      </trkpt>
      <trkpt lat="50.80261" lon="2.47533">
        <ele>171.2</ele>
        <time>2023-08-05T10:52:46Z</time>
      </trkpt>
      <trkpt lat="50.80261" lon="2.47535">
        <ele>171.2</ele>
        <time>2023-08-05T10:52:47Z</time>
      </trkpt>
      <trkpt lat="50.8026" lon="2.47536">
        <ele>171.2</ele>
        <time>2023-08-05T10:52:48Z</time>
      </trkpt>
      <trkpt lat="50.80259" lon="2.47539">
        <ele>171.4</ele>
        <time>2023-08-05T10:52:49Z</time>
      </trkpt>
      <trkpt lat="50.80258" lon="2.47541">
        <ele>171.4</ele>
        <time>2023-08-05T10:52:50Z</time>
      </trkpt>
      <trkpt lat="50.80257" lon="2.47543">
        <ele>171.6</ele>
        <time>2023-08-05T10:52:51Z</time>
      </trkpt>
      <trkpt lat="50.80257" lon="2.47545">
        <ele>171.6</ele>
        <time>2023-08-05T10:52:52Z</time>
      </trkpt>
      <trkpt lat="50.80256" lon="2.47547">
        <ele>171.8</ele>
        <time>2023-08-05T10:52:53Z</time>
      </trkpt>
      <trkpt lat="50.80256" lon="2.47549">
        <ele>172</ele>
        <time>2023-08-05T10:52:54Z</time>
      </trkpt>
      <trkpt lat="50.80255" lon="2.47551">
        <ele>172</ele>
        <time>2023-08-05T10:52:55Z</time>
      </trkpt>
      <trkpt lat="50.80254" lon="2.47553">
        <ele>172.4</ele>
        <time>2023-08-05T10:52:56Z</time>
      </trkpt>
      <trkpt lat="50.80254" lon="2.47555">
        <ele>172.4</ele>
        <time>2023-08-05T10:52:57Z</time>
      </trkpt>
      <trkpt lat="50.80253" lon="2.47557">
        <ele>172.6</ele>
        <time>2023-08-05T10:52:58Z</time>
      </trkpt>
      <trkpt lat="50.80253" lon="2.47559">
        <ele>172.6</ele>
        <time>2023-08-05T10:52:59Z</time>
      </trkpt>
      <trkpt lat="50.80252" lon="2.47562">
        <ele>172.8</ele>
        <time>2023-08-05T10:53:00Z</time>
      </trkpt>
      <trkpt lat="50.8025" lon="2.47564">
        <ele>172.8</ele>
        <time>2023-08-05T10:53:01Z</time>
      </trkpt>
      <trkpt lat="50.8025" lon="2.47566">
        <ele>173</ele>
        <time>2023-08-05T10:53:02Z</time>
      </trkpt>
      <trkpt lat="50.80249" lon="2.47568">
        <ele>173</ele>
        <time>2023-08-05T10:53:03Z</time>
      </trkpt>
      <trkpt lat="50.80248" lon="2.47571">
        <ele>173.2</ele>
        <time>2023-08-05T10:53:04Z</time>
      </trkpt>
      <trkpt lat="50.80248" lon="2.47573">
        <ele>173.4</ele>
        <time>2023-08-05T10:53:05Z</time>
      </trkpt>
      <trkpt lat="50.80247" lon="2.47575">
        <ele>173.4</ele>
        <time>2023-08-05T10:53:06Z</time>
      </trkpt>
      <trkpt lat="50.80246" lon="2.47577">
        <ele>173.6</ele>
        <time>2023-08-05T10:53:07Z</time>
      </trkpt>
      <trkpt lat="50.80246" lon="2.4758">
        <ele>173.6</ele>
        <time>2023-08-05T10:53:08Z</time>
      </trkpt>
      <trkpt lat="50.80246" lon="2.47582">
        <ele>173.6</ele>
        <time>2023-08-05T10:53:09Z</time>
      </trkpt>
      <trkpt lat="50.80245" lon="2.47585">
        <ele>173.6</ele>
        <time>2023-08-05T10:53:10Z</time>
      </trkpt>
      <trkpt lat="50.80245" lon="2.47587">
        <ele>173.8</ele>
        <time>2023-08-05T10:53:11Z</time>
      </trkpt>
      <trkpt lat="50.80245" lon="2.4759">
        <ele>173.8</ele>
        <time>2023-08-05T10:53:12Z</time>
      </trkpt>
      <trkpt lat="50.80244" lon="2.47592">
        <ele>174</ele>
        <time>2023-08-05T10:53:13Z</time>
      </trkpt>
      <trkpt lat="50.80244" lon="2.47595">
        <ele>174.2</ele>
        <time>2023-08-05T10:53:14Z</time>
      </trkpt>
      <trkpt lat="50.80243" lon="2.47598">
        <ele>174.2</ele>
        <time>2023-08-05T10:53:15Z</time>
      </trkpt>
      <trkpt lat="50.80243" lon="2.47601">
        <ele>174.4</ele>
        <time>2023-08-05T10:53:16Z</time>
      </trkpt>
      <trkpt lat="50.80242" lon="2.47604">
        <ele>174.4</ele>
        <time>2023-08-05T10:53:17Z</time>
      </trkpt>
      <trkpt lat="50.80242" lon="2.47606">
        <ele>174.6</ele>
        <time>2023-08-05T10:53:18Z</time>
      </trkpt>
      <trkpt lat="50.80241" lon="2.47609">
        <ele>174.6</ele>
        <time>2023-08-05T10:53:19Z</time>
      </trkpt>
      <trkpt lat="50.80241" lon="2.47611">
        <ele>174.8</ele>
        <time>2023-08-05T10:53:20Z</time>
      </trkpt>
      <trkpt lat="50.8024" lon="2.47614">
        <ele>175</ele>
        <time>2023-08-05T10:53:21Z</time>
      </trkpt>
      <trkpt lat="50.8024" lon="2.47617">
        <ele>175.2</ele>
        <time>2023-08-05T10:53:22Z</time>
      </trkpt>
      <trkpt lat="50.8024" lon="2.4762">
        <ele>175.2</ele>
        <time>2023-08-05T10:53:23Z</time>
      </trkpt>
      <trkpt lat="50.8024" lon="2.47623">
        <ele>175.4</ele>
        <time>2023-08-05T10:53:24Z</time>
      </trkpt>
      <trkpt lat="50.80239" lon="2.47626">
        <ele>175.4</ele>
        <time>2023-08-05T10:53:25Z</time>
      </trkpt>
      <trkpt lat="50.80238" lon="2.47629">
        <ele>175.6</ele>
        <time>2023-08-05T10:53:26Z</time>
      </trkpt>
      <trkpt lat="50.80238" lon="2.47631">
        <ele>175.6</ele>
        <time>2023-08-05T10:53:27Z</time>
      </trkpt>
      <trkpt lat="50.80237" lon="2.47634">
        <ele>175.8</ele>
        <time>2023-08-05T10:53:28Z</time>
      </trkpt>
      <trkpt lat="50.80236" lon="2.47638">
        <ele>175.8</ele>
        <time>2023-08-05T10:53:29Z</time>
      </trkpt>
      <trkpt lat="50.80236" lon="2.4764">
        <ele>176</ele>
        <time>2023-08-05T10:53:30Z</time>
      </trkpt>
      <trkpt lat="50.80235" lon="2.47644">
        <ele>176</ele>
        <time>2023-08-05T10:53:31Z</time>
      </trkpt>
      <trkpt lat="50.80232" lon="2.47662">
        <ele>176.4</ele>
        <time>2023-08-05T10:53:37Z</time>
      </trkpt>
      <trkpt lat="50.80232" lon="2.47666">
        <ele>176.6</ele>
        <time>2023-08-05T10:53:38Z</time>
      </trkpt>
      <trkpt lat="50.80226" lon="2.47694">
        <ele>177.2</ele>
        <time>2023-08-05T10:53:46Z</time>
      </trkpt>
      <trkpt lat="50.8022" lon="2.47731">
        <ele>177.4</ele>
        <time>2023-08-05T10:53:55Z</time>
      </trkpt>
      <trkpt lat="50.80219" lon="2.47756">
        <ele>177.6</ele>
        <time>2023-08-05T10:54:01Z</time>
      </trkpt>
      <trkpt lat="50.80219" lon="2.4776">
        <ele>177.6</ele>
        <time>2023-08-05T10:54:02Z</time>
      </trkpt>
      <trkpt lat="50.80219" lon="2.47763">
        <ele>177.6</ele>
        <time>2023-08-05T10:54:03Z</time>
      </trkpt>
      <trkpt lat="50.80219" lon="2.47767">
        <ele>177.8</ele>
        <time>2023-08-05T10:54:04Z</time>
      </trkpt>
      <trkpt lat="50.80219" lon="2.47771">
        <ele>177.8</ele>
        <time>2023-08-05T10:54:05Z</time>
      </trkpt>
      <trkpt lat="50.80219" lon="2.47775">
        <ele>177.8</ele>
        <time>2023-08-05T10:54:06Z</time>
      </trkpt>
      <trkpt lat="50.80216" lon="2.47799">
        <ele>177.8</ele>
        <time>2023-08-05T10:54:12Z</time>
      </trkpt>
      <trkpt lat="50.80216" lon="2.47819">
        <ele>177.8</ele>
        <time>2023-08-05T10:54:17Z</time>
      </trkpt>
      <trkpt lat="50.80216" lon="2.47823">
        <ele>177.8</ele>
        <time>2023-08-05T10:54:18Z</time>
      </trkpt>
      <trkpt lat="50.80216" lon="2.47827">
        <ele>178</ele>
        <time>2023-08-05T10:54:19Z</time>
      </trkpt>
      <trkpt lat="50.80216" lon="2.47831">
        <ele>178</ele>
        <time>2023-08-05T10:54:20Z</time>
      </trkpt>
      <trkpt lat="50.80216" lon="2.47834">
        <ele>178</ele>
        <time>2023-08-05T10:54:21Z</time>
      </trkpt>
      <trkpt lat="50.80216" lon="2.47851">
        <ele>178</ele>
        <time>2023-08-05T10:54:25Z</time>
      </trkpt>
      <trkpt lat="50.80215" lon="2.47854">
        <ele>178.2</ele>
        <time>2023-08-05T10:54:26Z</time>
      </trkpt>
      <trkpt lat="50.80214" lon="2.47879">
        <ele>178.8</ele>
        <time>2023-08-05T10:54:32Z</time>
      </trkpt>
      <trkpt lat="50.80213" lon="2.47885">
        <ele>179</ele>
        <time>2023-08-05T10:54:34Z</time>
      </trkpt>
      <trkpt lat="50.80213" lon="2.47889">
        <ele>179</ele>
        <time>2023-08-05T10:54:35Z</time>
      </trkpt>
      <trkpt lat="50.80212" lon="2.47897">
        <ele>179.2</ele>
        <time>2023-08-05T10:54:37Z</time>
      </trkpt>
      <trkpt lat="50.80212" lon="2.47901">
        <ele>179.2</ele>
        <time>2023-08-05T10:54:38Z</time>
      </trkpt>
      <trkpt lat="50.80212" lon="2.47905">
        <ele>179.4</ele>
        <time>2023-08-05T10:54:39Z</time>
      </trkpt>
      <trkpt lat="50.8021" lon="2.47921">
        <ele>180</ele>
        <time>2023-08-05T10:54:43Z</time>
      </trkpt>
      <trkpt lat="50.8021" lon="2.47924">
        <ele>180</ele>
        <time>2023-08-05T10:54:44Z</time>
      </trkpt>
      <trkpt lat="50.8021" lon="2.47928">
        <ele>180.2</ele>
        <time>2023-08-05T10:54:45Z</time>
      </trkpt>
      <trkpt lat="50.80209" lon="2.47936">
        <ele>180.4</ele>
        <time>2023-08-05T10:54:47Z</time>
      </trkpt>
      <trkpt lat="50.80209" lon="2.4794">
        <ele>180.4</ele>
        <time>2023-08-05T10:54:48Z</time>
      </trkpt>
      <trkpt lat="50.80208" lon="2.47964">
        <ele>180.8</ele>
        <time>2023-08-05T10:54:54Z</time>
      </trkpt>
      <trkpt lat="50.80206" lon="2.47984">
        <ele>181.2</ele>
        <time>2023-08-05T10:54:59Z</time>
      </trkpt>
      <trkpt lat="50.80205" lon="2.47992">
        <ele>181.2</ele>
        <time>2023-08-05T10:55:01Z</time>
      </trkpt>
      <trkpt lat="50.80204" lon="2.48004">
        <ele>181.6</ele>
        <time>2023-08-05T10:55:04Z</time>
      </trkpt>
      <trkpt lat="50.80204" lon="2.48007">
        <ele>181.8</ele>
        <time>2023-08-05T10:55:05Z</time>
      </trkpt>
      <trkpt lat="50.80204" lon="2.48012">
        <ele>181.8</ele>
        <time>2023-08-05T10:55:06Z</time>
      </trkpt>
      <trkpt lat="50.80204" lon="2.48016">
        <ele>182</ele>
        <time>2023-08-05T10:55:07Z</time>
      </trkpt>
      <trkpt lat="50.80202" lon="2.48037">
        <ele>182.4</ele>
        <time>2023-08-05T10:55:13Z</time>
      </trkpt>
      <trkpt lat="50.80202" lon="2.48041">
        <ele>182.6</ele>
        <time>2023-08-05T10:55:14Z</time>
      </trkpt>
      <trkpt lat="50.80202" lon="2.48044">
        <ele>182.6</ele>
        <time>2023-08-05T10:55:15Z</time>
      </trkpt>
      <trkpt lat="50.802" lon="2.48061">
        <ele>183</ele>
        <time>2023-08-05T10:55:19Z</time>
      </trkpt>
      <trkpt lat="50.802" lon="2.48069">
        <ele>183.2</ele>
        <time>2023-08-05T10:55:21Z</time>
      </trkpt>
      <trkpt lat="50.80198" lon="2.48073">
        <ele>183.2</ele>
        <time>2023-08-05T10:55:22Z</time>
      </trkpt>
      <trkpt lat="50.80198" lon="2.48082">
        <ele>183.2</ele>
        <time>2023-08-05T10:55:24Z</time>
      </trkpt>
      <trkpt lat="50.80196" lon="2.4811">
        <ele>184</ele>
        <time>2023-08-05T10:55:30Z</time>
      </trkpt>
      <trkpt lat="50.80194" lon="2.48145">
        <ele>184.2</ele>
        <time>2023-08-05T10:55:36Z</time>
      </trkpt>
      <trkpt lat="50.80192" lon="2.48157">
        <ele>184.2</ele>
        <time>2023-08-05T10:55:38Z</time>
      </trkpt>
      <trkpt lat="50.8019" lon="2.48163">
        <ele>184.2</ele>
        <time>2023-08-05T10:55:39Z</time>
      </trkpt>
      <trkpt lat="50.80189" lon="2.48169">
        <ele>184.2</ele>
        <time>2023-08-05T10:55:40Z</time>
      </trkpt>
      <trkpt lat="50.80188" lon="2.48173">
        <ele>184.2</ele>
        <time>2023-08-05T10:55:41Z</time>
      </trkpt>
      <trkpt lat="50.80182" lon="2.48185">
        <ele>184.2</ele>
        <time>2023-08-05T10:55:44Z</time>
      </trkpt>
      <trkpt lat="50.80178" lon="2.48189">
        <ele>184.2</ele>
        <time>2023-08-05T10:55:45Z</time>
      </trkpt>
      <trkpt lat="50.80174" lon="2.48194">
        <ele>184.2</ele>
        <time>2023-08-05T10:55:46Z</time>
      </trkpt>
      <trkpt lat="50.80168" lon="2.48198">
        <ele>184.2</ele>
        <time>2023-08-05T10:55:47Z</time>
      </trkpt>
      <trkpt lat="50.80164" lon="2.48203">
        <ele>184.2</ele>
        <time>2023-08-05T10:55:48Z</time>
      </trkpt>
      <trkpt lat="50.80142" lon="2.48228">
        <ele>183.4</ele>
        <time>2023-08-05T10:55:53Z</time>
      </trkpt>
      <trkpt lat="50.80132" lon="2.48236">
        <ele>182.8</ele>
        <time>2023-08-05T10:55:55Z</time>
      </trkpt>
      <trkpt lat="50.80127" lon="2.48241">
        <ele>182.4</ele>
        <time>2023-08-05T10:55:56Z</time>
      </trkpt>
      <trkpt lat="50.80111" lon="2.48253">
        <ele>181.2</ele>
        <time>2023-08-05T10:55:59Z</time>
      </trkpt>
      <trkpt lat="50.801" lon="2.4826">
        <ele>180.6</ele>
        <time>2023-08-05T10:56:01Z</time>
      </trkpt>
      <trkpt lat="50.80093" lon="2.48265">
        <ele>180.4</ele>
        <time>2023-08-05T10:56:02Z</time>
      </trkpt>
      <trkpt lat="50.80087" lon="2.48271">
        <ele>180</ele>
        <time>2023-08-05T10:56:03Z</time>
      </trkpt>
      <trkpt lat="50.80071" lon="2.4829">
        <ele>178.4</ele>
        <time>2023-08-05T10:56:06Z</time>
      </trkpt>
      <trkpt lat="50.80066" lon="2.48298">
        <ele>178</ele>
        <time>2023-08-05T10:56:07Z</time>
      </trkpt>
      <trkpt lat="50.80062" lon="2.48307">
        <ele>177.8</ele>
        <time>2023-08-05T10:56:08Z</time>
      </trkpt>
      <trkpt lat="50.80055" lon="2.48325">
        <ele>177.2</ele>
        <time>2023-08-05T10:56:10Z</time>
      </trkpt>
      <trkpt lat="50.80052" lon="2.48334">
        <ele>177.2</ele>
        <time>2023-08-05T10:56:11Z</time>
      </trkpt>
      <trkpt lat="50.80045" lon="2.48362">
        <ele>176.2</ele>
        <time>2023-08-05T10:56:14Z</time>
      </trkpt>
      <trkpt lat="50.80043" lon="2.48371">
        <ele>175.8</ele>
        <time>2023-08-05T10:56:15Z</time>
      </trkpt>
      <trkpt lat="50.80042" lon="2.4838">
        <ele>175.6</ele>
        <time>2023-08-05T10:56:16Z</time>
      </trkpt>
      <trkpt lat="50.80041" lon="2.48387">
        <ele>175.4</ele>
        <time>2023-08-05T10:56:17Z</time>
      </trkpt>
      <trkpt lat="50.80041" lon="2.48394">
        <ele>175.2</ele>
        <time>2023-08-05T10:56:18Z</time>
      </trkpt>
      <trkpt lat="50.8004" lon="2.484">
        <ele>175</ele>
        <time>2023-08-05T10:56:19Z</time>
      </trkpt>
      <trkpt lat="50.80039" lon="2.48405">
        <ele>174.8</ele>
        <time>2023-08-05T10:56:20Z</time>
      </trkpt>
      <trkpt lat="50.80039" lon="2.4841">
        <ele>175</ele>
        <time>2023-08-05T10:56:21Z</time>
      </trkpt>
      <trkpt lat="50.80038" lon="2.48415">
        <ele>175</ele>
        <time>2023-08-05T10:56:22Z</time>
      </trkpt>
      <trkpt lat="50.80037" lon="2.48419">
        <ele>174.8</ele>
        <time>2023-08-05T10:56:23Z</time>
      </trkpt>
      <trkpt lat="50.80036" lon="2.48425">
        <ele>174.8</ele>
        <time>2023-08-05T10:56:24Z</time>
      </trkpt>
      <trkpt lat="50.80034" lon="2.48432">
        <ele>174.8</ele>
        <time>2023-08-05T10:56:25Z</time>
      </trkpt>
      <trkpt lat="50.80032" lon="2.4845">
        <ele>175</ele>
        <time>2023-08-05T10:56:28Z</time>
      </trkpt>
      <trkpt lat="50.80019" lon="2.48495">
        <ele>175.2</ele>
        <time>2023-08-05T10:56:35Z</time>
      </trkpt>
      <trkpt lat="50.80004" lon="2.48554">
        <ele>174.6</ele>
        <time>2023-08-05T10:56:43Z</time>
      </trkpt>
      <trkpt lat="50.8" lon="2.48567">
        <ele>174.4</ele>
        <time>2023-08-05T10:56:45Z</time>
      </trkpt>
      <trkpt lat="50.79984" lon="2.4862">
        <ele>173.4</ele>
        <time>2023-08-05T10:56:52Z</time>
      </trkpt>
      <trkpt lat="50.79982" lon="2.48627">
        <ele>173.4</ele>
        <time>2023-08-05T10:56:53Z</time>
      </trkpt>
      <trkpt lat="50.79981" lon="2.48633">
        <ele>173</ele>
        <time>2023-08-05T10:56:54Z</time>
      </trkpt>
      <trkpt lat="50.79979" lon="2.48637">
        <ele>172.8</ele>
        <time>2023-08-05T10:56:55Z</time>
      </trkpt>
      <trkpt lat="50.79977" lon="2.48641">
        <ele>172.6</ele>
        <time>2023-08-05T10:56:56Z</time>
      </trkpt>
      <trkpt lat="50.79975" lon="2.48647">
        <ele>172.6</ele>
        <time>2023-08-05T10:56:57Z</time>
      </trkpt>
      <trkpt lat="50.79974" lon="2.48651">
        <ele>172.6</ele>
        <time>2023-08-05T10:56:58Z</time>
      </trkpt>
      <trkpt lat="50.79972" lon="2.48655">
        <ele>172.4</ele>
        <time>2023-08-05T10:56:59Z</time>
      </trkpt>
      <trkpt lat="50.79971" lon="2.48659">
        <ele>172.4</ele>
        <time>2023-08-05T10:57:00Z</time>
      </trkpt>
      <trkpt lat="50.79969" lon="2.48662">
        <ele>172.4</ele>
        <time>2023-08-05T10:57:01Z</time>
      </trkpt>
      <trkpt lat="50.79968" lon="2.48665">
        <ele>172.4</ele>
        <time>2023-08-05T10:57:02Z</time>
      </trkpt>
      <trkpt lat="50.79966" lon="2.48668">
        <ele>172.4</ele>
        <time>2023-08-05T10:57:03Z</time>
      </trkpt>
      <trkpt lat="50.79964" lon="2.48671">
        <ele>172.4</ele>
        <time>2023-08-05T10:57:04Z</time>
      </trkpt>
      <trkpt lat="50.7995" lon="2.48692">
        <ele>172.4</ele>
        <time>2023-08-05T10:57:09Z</time>
      </trkpt>
      <trkpt lat="50.79936" lon="2.48709">
        <ele>172</ele>
        <time>2023-08-05T10:57:13Z</time>
      </trkpt>
      <trkpt lat="50.79933" lon="2.48714">
        <ele>172</ele>
        <time>2023-08-05T10:57:14Z</time>
      </trkpt>
      <trkpt lat="50.79931" lon="2.48718">
        <ele>172</ele>
        <time>2023-08-05T10:57:15Z</time>
      </trkpt>
      <trkpt lat="50.79926" lon="2.48726">
        <ele>172</ele>
        <time>2023-08-05T10:57:17Z</time>
      </trkpt>
      <trkpt lat="50.79922" lon="2.48731">
        <ele>172.2</ele>
        <time>2023-08-05T10:57:18Z</time>
      </trkpt>
      <trkpt lat="50.79919" lon="2.48736">
        <ele>172.4</ele>
        <time>2023-08-05T10:57:19Z</time>
      </trkpt>
      <trkpt lat="50.79916" lon="2.48741">
        <ele>172.4</ele>
        <time>2023-08-05T10:57:20Z</time>
      </trkpt>
      <trkpt lat="50.79908" lon="2.48757">
        <ele>172.4</ele>
        <time>2023-08-05T10:57:23Z</time>
      </trkpt>
      <trkpt lat="50.79904" lon="2.48764">
        <ele>172.4</ele>
        <time>2023-08-05T10:57:24Z</time>
      </trkpt>
      <trkpt lat="50.799" lon="2.48775">
        <ele>172.4</ele>
        <time>2023-08-05T10:57:26Z</time>
      </trkpt>
      <trkpt lat="50.79896" lon="2.48781">
        <ele>172.4</ele>
        <time>2023-08-05T10:57:27Z</time>
      </trkpt>
      <trkpt lat="50.79893" lon="2.48787">
        <ele>172.2</ele>
        <time>2023-08-05T10:57:28Z</time>
      </trkpt>
      <trkpt lat="50.79883" lon="2.48806">
        <ele>172</ele>
        <time>2023-08-05T10:57:31Z</time>
      </trkpt>
      <trkpt lat="50.79881" lon="2.48812">
        <ele>172</ele>
        <time>2023-08-05T10:57:32Z</time>
      </trkpt>
      <trkpt lat="50.79878" lon="2.48818">
        <ele>172</ele>
        <time>2023-08-05T10:57:33Z</time>
      </trkpt>
      <trkpt lat="50.79865" lon="2.4884">
        <ele>171.8</ele>
        <time>2023-08-05T10:57:37Z</time>
      </trkpt>
      <trkpt lat="50.79862" lon="2.48846">
        <ele>171.6</ele>
        <time>2023-08-05T10:57:38Z</time>
      </trkpt>
      <trkpt lat="50.79842" lon="2.48888">
        <ele>170.8</ele>
        <time>2023-08-05T10:57:44Z</time>
      </trkpt>
      <trkpt lat="50.79836" lon="2.48902">
        <ele>170.6</ele>
        <time>2023-08-05T10:57:46Z</time>
      </trkpt>
      <trkpt lat="50.79816" lon="2.48949">
        <ele>170</ele>
        <time>2023-08-05T10:57:53Z</time>
      </trkpt>
      <trkpt lat="50.79814" lon="2.48956">
        <ele>169.8</ele>
        <time>2023-08-05T10:57:54Z</time>
      </trkpt>
      <trkpt lat="50.79812" lon="2.48962">
        <ele>169.8</ele>
        <time>2023-08-05T10:57:55Z</time>
      </trkpt>
      <trkpt lat="50.7981" lon="2.48968">
        <ele>169.6</ele>
        <time>2023-08-05T10:57:56Z</time>
      </trkpt>
      <trkpt lat="50.79809" lon="2.48972">
        <ele>169.6</ele>
        <time>2023-08-05T10:57:57Z</time>
      </trkpt>
      <trkpt lat="50.79808" lon="2.48979">
        <ele>169.6</ele>
        <time>2023-08-05T10:57:58Z</time>
      </trkpt>
      <trkpt lat="50.79808" lon="2.48985">
        <ele>169.6</ele>
        <time>2023-08-05T10:57:59Z</time>
      </trkpt>
      <trkpt lat="50.79809" lon="2.48992">
        <ele>169.4</ele>
        <time>2023-08-05T10:58:00Z</time>
      </trkpt>
      <trkpt lat="50.7981" lon="2.48998">
        <ele>169.4</ele>
        <time>2023-08-05T10:58:01Z</time>
      </trkpt>
      <trkpt lat="50.79811" lon="2.49004">
        <ele>169.2</ele>
        <time>2023-08-05T10:58:02Z</time>
      </trkpt>
      <trkpt lat="50.79813" lon="2.49009">
        <ele>169.4</ele>
        <time>2023-08-05T10:58:03Z</time>
      </trkpt>
      <trkpt lat="50.79815" lon="2.49017">
        <ele>169.4</ele>
        <time>2023-08-05T10:58:04Z</time>
      </trkpt>
      <trkpt lat="50.79818" lon="2.49023">
        <ele>169.2</ele>
        <time>2023-08-05T10:58:05Z</time>
      </trkpt>
      <trkpt lat="50.7982" lon="2.49029">
        <ele>169.2</ele>
        <time>2023-08-05T10:58:06Z</time>
      </trkpt>
      <trkpt lat="50.79822" lon="2.49034">
        <ele>169</ele>
        <time>2023-08-05T10:58:07Z</time>
      </trkpt>
      <trkpt lat="50.79827" lon="2.4905">
        <ele>168.8</ele>
        <time>2023-08-05T10:58:09Z</time>
      </trkpt>
      <trkpt lat="50.7983" lon="2.49056">
        <ele>168</ele>
        <time>2023-08-05T10:58:10Z</time>
      </trkpt>
      <trkpt lat="50.79838" lon="2.49075">
        <ele>167</ele>
        <time>2023-08-05T10:58:13Z</time>
      </trkpt>
      <trkpt lat="50.79843" lon="2.4908">
        <ele>166.8</ele>
        <time>2023-08-05T10:58:14Z</time>
      </trkpt>
      <trkpt lat="50.79847" lon="2.49084">
        <ele>166.8</ele>
        <time>2023-08-05T10:58:15Z</time>
      </trkpt>
      <trkpt lat="50.79852" lon="2.49087">
        <ele>166.6</ele>
        <time>2023-08-05T10:58:16Z</time>
      </trkpt>
      <trkpt lat="50.79856" lon="2.49089">
        <ele>166.4</ele>
        <time>2023-08-05T10:58:17Z</time>
      </trkpt>
      <trkpt lat="50.79861" lon="2.49092">
        <ele>166.2</ele>
        <time>2023-08-05T10:58:18Z</time>
      </trkpt>
      <trkpt lat="50.79867" lon="2.49094">
        <ele>165.8</ele>
        <time>2023-08-05T10:58:19Z</time>
      </trkpt>
      <trkpt lat="50.79885" lon="2.49102">
        <ele>165.6</ele>
        <time>2023-08-05T10:58:22Z</time>
      </trkpt>
      <trkpt lat="50.79901" lon="2.49114">
        <ele>165</ele>
        <time>2023-08-05T10:58:25Z</time>
      </trkpt>
      <trkpt lat="50.7991" lon="2.49123">
        <ele>164.4</ele>
        <time>2023-08-05T10:58:27Z</time>
      </trkpt>
      <trkpt lat="50.79918" lon="2.49136">
        <ele>164.2</ele>
        <time>2023-08-05T10:58:29Z</time>
      </trkpt>
      <trkpt lat="50.79919" lon="2.49146">
        <ele>163.6</ele>
        <time>2023-08-05T10:58:30Z</time>
      </trkpt>
      <trkpt lat="50.79918" lon="2.49154">
        <ele>163.4</ele>
        <time>2023-08-05T10:58:31Z</time>
      </trkpt>
      <trkpt lat="50.79916" lon="2.49162">
        <ele>163</ele>
        <time>2023-08-05T10:58:32Z</time>
      </trkpt>
      <trkpt lat="50.79913" lon="2.49167">
        <ele>162.8</ele>
        <time>2023-08-05T10:58:33Z</time>
      </trkpt>
      <trkpt lat="50.7991" lon="2.49173">
        <ele>162.8</ele>
        <time>2023-08-05T10:58:34Z</time>
      </trkpt>
      <trkpt lat="50.79904" lon="2.4918">
        <ele>162.6</ele>
        <time>2023-08-05T10:58:35Z</time>
      </trkpt>
      <trkpt lat="50.799" lon="2.49186">
        <ele>162.4</ele>
        <time>2023-08-05T10:58:36Z</time>
      </trkpt>
      <trkpt lat="50.79895" lon="2.49191">
        <ele>161.6</ele>
        <time>2023-08-05T10:58:37Z</time>
      </trkpt>
      <trkpt lat="50.79877" lon="2.49213">
        <ele>160.6</ele>
        <time>2023-08-05T10:58:41Z</time>
      </trkpt>
      <trkpt lat="50.79858" lon="2.49236">
        <ele>159.4</ele>
        <time>2023-08-05T10:58:45Z</time>
      </trkpt>
      <trkpt lat="50.79848" lon="2.49247">
        <ele>158.6</ele>
        <time>2023-08-05T10:58:47Z</time>
      </trkpt>
      <trkpt lat="50.79844" lon="2.49251">
        <ele>158.4</ele>
        <time>2023-08-05T10:58:48Z</time>
      </trkpt>
      <trkpt lat="50.79839" lon="2.49256">
        <ele>158</ele>
        <time>2023-08-05T10:58:49Z</time>
      </trkpt>
      <trkpt lat="50.79823" lon="2.49274">
        <ele>157.2</ele>
        <time>2023-08-05T10:58:52Z</time>
      </trkpt>
      <trkpt lat="50.79797" lon="2.49301">
        <ele>156.2</ele>
        <time>2023-08-05T10:58:57Z</time>
      </trkpt>
      <trkpt lat="50.79794" lon="2.49304">
        <ele>156</ele>
        <time>2023-08-05T10:58:58Z</time>
      </trkpt>
      <trkpt lat="50.7979" lon="2.49308">
        <ele>155.8</ele>
        <time>2023-08-05T10:58:59Z</time>
      </trkpt>
      <trkpt lat="50.79786" lon="2.49313">
        <ele>155.2</ele>
        <time>2023-08-05T10:59:00Z</time>
      </trkpt>
      <trkpt lat="50.79783" lon="2.49318">
        <ele>155.2</ele>
        <time>2023-08-05T10:59:01Z</time>
      </trkpt>
      <trkpt lat="50.79773" lon="2.49332">
        <ele>154.2</ele>
        <time>2023-08-05T10:59:04Z</time>
      </trkpt>
      <trkpt lat="50.79769" lon="2.49337">
        <ele>154</ele>
        <time>2023-08-05T10:59:05Z</time>
      </trkpt>
      <trkpt lat="50.79765" lon="2.49345">
        <ele>154</ele>
        <time>2023-08-05T10:59:06Z</time>
      </trkpt>
      <trkpt lat="50.79758" lon="2.49364">
        <ele>153</ele>
        <time>2023-08-05T10:59:09Z</time>
      </trkpt>
      <trkpt lat="50.79751" lon="2.49391">
        <ele>152</ele>
        <time>2023-08-05T10:59:12Z</time>
      </trkpt>
      <trkpt lat="50.79748" lon="2.494">
        <ele>152</ele>
        <time>2023-08-05T10:59:13Z</time>
      </trkpt>
      <trkpt lat="50.79744" lon="2.49417">
        <ele>151.8</ele>
        <time>2023-08-05T10:59:15Z</time>
      </trkpt>
      <trkpt lat="50.79736" lon="2.49459">
        <ele>151.2</ele>
        <time>2023-08-05T10:59:19Z</time>
      </trkpt>
      <trkpt lat="50.79735" lon="2.49468">
        <ele>151.2</ele>
        <time>2023-08-05T10:59:20Z</time>
      </trkpt>
      <trkpt lat="50.79734" lon="2.4948">
        <ele>150.6</ele>
        <time>2023-08-05T10:59:21Z</time>
      </trkpt>
      <trkpt lat="50.79736" lon="2.49502">
        <ele>149.6</ele>
        <time>2023-08-05T10:59:23Z</time>
      </trkpt>
      <trkpt lat="50.79739" lon="2.49536">
        <ele>148.6</ele>
        <time>2023-08-05T10:59:26Z</time>
      </trkpt>
      <trkpt lat="50.79741" lon="2.49547">
        <ele>148.4</ele>
        <time>2023-08-05T10:59:27Z</time>
      </trkpt>
      <trkpt lat="50.79746" lon="2.49568">
        <ele>148</ele>
        <time>2023-08-05T10:59:29Z</time>
      </trkpt>
      <trkpt lat="50.79753" lon="2.49593">
        <ele>147.2</ele>
        <time>2023-08-05T10:59:31Z</time>
      </trkpt>
      <trkpt lat="50.79757" lon="2.49604">
        <ele>147</ele>
        <time>2023-08-05T10:59:32Z</time>
      </trkpt>
      <trkpt lat="50.79765" lon="2.49624">
        <ele>146.4</ele>
        <time>2023-08-05T10:59:34Z</time>
      </trkpt>
      <trkpt lat="50.79782" lon="2.49654">
        <ele>145.4</ele>
        <time>2023-08-05T10:59:37Z</time>
      </trkpt>
      <trkpt lat="50.79787" lon="2.49662">
        <ele>145.2</ele>
        <time>2023-08-05T10:59:38Z</time>
      </trkpt>
      <trkpt lat="50.79792" lon="2.49667">
        <ele>144.8</ele>
        <time>2023-08-05T10:59:39Z</time>
      </trkpt>
      <trkpt lat="50.79797" lon="2.49672">
        <ele>144.4</ele>
        <time>2023-08-05T10:59:40Z</time>
      </trkpt>
      <trkpt lat="50.79804" lon="2.49676">
        <ele>143.6</ele>
        <time>2023-08-05T10:59:41Z</time>
      </trkpt>
      <trkpt lat="50.79811" lon="2.4968">
        <ele>142.8</ele>
        <time>2023-08-05T10:59:42Z</time>
      </trkpt>
      <trkpt lat="50.79817" lon="2.49684">
        <ele>142.6</ele>
        <time>2023-08-05T10:59:43Z</time>
      </trkpt>
      <trkpt lat="50.79822" lon="2.49688">
        <ele>142.2</ele>
        <time>2023-08-05T10:59:44Z</time>
      </trkpt>
      <trkpt lat="50.79832" lon="2.49693">
        <ele>141.6</ele>
        <time>2023-08-05T10:59:46Z</time>
      </trkpt>
      <trkpt lat="50.79839" lon="2.49696">
        <ele>141.4</ele>
        <time>2023-08-05T10:59:47Z</time>
      </trkpt>
      <trkpt lat="50.79844" lon="2.49696">
        <ele>141</ele>
        <time>2023-08-05T10:59:48Z</time>
      </trkpt>
      <trkpt lat="50.79848" lon="2.49695">
        <ele>140.6</ele>
        <time>2023-08-05T10:59:49Z</time>
      </trkpt>
      <trkpt lat="50.79853" lon="2.49693">
        <ele>140.4</ele>
        <time>2023-08-05T10:59:50Z</time>
      </trkpt>
      <trkpt lat="50.79859" lon="2.4969">
        <ele>140.2</ele>
        <time>2023-08-05T10:59:51Z</time>
      </trkpt>
      <trkpt lat="50.79865" lon="2.49687">
        <ele>140</ele>
        <time>2023-08-05T10:59:52Z</time>
      </trkpt>
      <trkpt lat="50.79869" lon="2.49685">
        <ele>139.6</ele>
        <time>2023-08-05T10:59:53Z</time>
      </trkpt>
      <trkpt lat="50.79873" lon="2.49684">
        <ele>139.4</ele>
        <time>2023-08-05T10:59:54Z</time>
      </trkpt>
      <trkpt lat="50.79877" lon="2.49684">
        <ele>139.2</ele>
        <time>2023-08-05T10:59:55Z</time>
      </trkpt>
      <trkpt lat="50.79881" lon="2.49685">
        <ele>138.8</ele>
        <time>2023-08-05T10:59:56Z</time>
      </trkpt>
      <trkpt lat="50.79886" lon="2.49687">
        <ele>138.6</ele>
        <time>2023-08-05T10:59:57Z</time>
      </trkpt>
      <trkpt lat="50.7989" lon="2.4969">
        <ele>138.2</ele>
        <time>2023-08-05T10:59:58Z</time>
      </trkpt>
      <trkpt lat="50.79893" lon="2.49693">
        <ele>138.2</ele>
        <time>2023-08-05T10:59:59Z</time>
      </trkpt>
      <trkpt lat="50.79896" lon="2.49696">
        <ele>137.8</ele>
        <time>2023-08-05T11:00:00Z</time>
      </trkpt>
      <trkpt lat="50.799" lon="2.49699">
        <ele>137.8</ele>
        <time>2023-08-05T11:00:01Z</time>
      </trkpt>
      <trkpt lat="50.79908" lon="2.49706">
        <ele>137.4</ele>
        <time>2023-08-05T11:00:03Z</time>
      </trkpt>
      <trkpt lat="50.79911" lon="2.49709">
        <ele>137.2</ele>
        <time>2023-08-05T11:00:04Z</time>
      </trkpt>
      <trkpt lat="50.79916" lon="2.49713">
        <ele>137</ele>
        <time>2023-08-05T11:00:06Z</time>
      </trkpt>
      <trkpt lat="50.79919" lon="2.49715">
        <ele>136.8</ele>
        <time>2023-08-05T11:00:07Z</time>
      </trkpt>
      <trkpt lat="50.79922" lon="2.49717">
        <ele>136.6</ele>
        <time>2023-08-05T11:00:08Z</time>
      </trkpt>
      <trkpt lat="50.79923" lon="2.49719">
        <ele>136.2</ele>
        <time>2023-08-05T11:00:09Z</time>
      </trkpt>
      <trkpt lat="50.79925" lon="2.49721">
        <ele>136</ele>
        <time>2023-08-05T11:00:10Z</time>
      </trkpt>
      <trkpt lat="50.79927" lon="2.49722">
        <ele>135.8</ele>
        <time>2023-08-05T11:00:11Z</time>
      </trkpt>
      <trkpt lat="50.79935" lon="2.49726">
        <ele>135.4</ele>
        <time>2023-08-05T11:00:15Z</time>
      </trkpt>
      <trkpt lat="50.79936" lon="2.49727">
        <ele>135</ele>
        <time>2023-08-05T11:00:16Z</time>
      </trkpt>
      <trkpt lat="50.79938" lon="2.49727">
        <ele>135</ele>
        <time>2023-08-05T11:00:17Z</time>
      </trkpt>
      <trkpt lat="50.79939" lon="2.49727">
        <ele>134.8</ele>
        <time>2023-08-05T11:00:18Z</time>
      </trkpt>
      <trkpt lat="50.7994" lon="2.49726">
        <ele>134.8</ele>
        <time>2023-08-05T11:00:19Z</time>
      </trkpt>
      <trkpt lat="50.7994" lon="2.49723">
        <ele>134.8</ele>
        <time>2023-08-05T11:00:20Z</time>
      </trkpt>
      <trkpt lat="50.79936" lon="2.49718">
        <ele>134.4</ele>
        <time>2023-08-05T11:00:23Z</time>
      </trkpt>
      <trkpt lat="50.79931" lon="2.49715">
        <ele>134.4</ele>
        <time>2023-08-05T11:00:25Z</time>
      </trkpt>
      <trkpt lat="50.7992" lon="2.49706">
        <ele>134.4</ele>
        <time>2023-08-05T11:00:29Z</time>
      </trkpt>
      <trkpt lat="50.79914" lon="2.49699">
        <ele>134.6</ele>
        <time>2023-08-05T11:00:32Z</time>
      </trkpt>
      <trkpt lat="50.79897" lon="2.49687">
        <ele>135.4</ele>
        <time>2023-08-05T11:00:39Z</time>
      </trkpt>
      <trkpt lat="50.79894" lon="2.49687">
        <ele>135.4</ele>
        <time>2023-08-05T11:00:40Z</time>
      </trkpt>
      <trkpt lat="50.79892" lon="2.49687">
        <ele>135.8</ele>
        <time>2023-08-05T11:00:41Z</time>
      </trkpt>
      <trkpt lat="50.7989" lon="2.49687">
        <ele>135.8</ele>
        <time>2023-08-05T11:00:42Z</time>
      </trkpt>
      <trkpt lat="50.79887" lon="2.49689">
        <ele>135.8</ele>
        <time>2023-08-05T11:00:43Z</time>
      </trkpt>
      <trkpt lat="50.79885" lon="2.4969">
        <ele>135.8</ele>
        <time>2023-08-05T11:00:44Z</time>
      </trkpt>
      <trkpt lat="50.79882" lon="2.49692">
        <ele>135.8</ele>
        <time>2023-08-05T11:00:45Z</time>
      </trkpt>
      <trkpt lat="50.79866" lon="2.49706">
        <ele>135.6</ele>
        <time>2023-08-05T11:00:50Z</time>
      </trkpt>
      <trkpt lat="50.79862" lon="2.49709">
        <ele>135.6</ele>
        <time>2023-08-05T11:00:51Z</time>
      </trkpt>
      <trkpt lat="50.79851" lon="2.49723">
        <ele>134.4</ele>
        <time>2023-08-05T11:00:53Z</time>
      </trkpt>
      <trkpt lat="50.79843" lon="2.49738">
        <ele>133.2</ele>
        <time>2023-08-05T11:00:55Z</time>
      </trkpt>
      <trkpt lat="50.79838" lon="2.49751">
        <ele>132</ele>
        <time>2023-08-05T11:00:57Z</time>
      </trkpt>
      <trkpt lat="50.79834" lon="2.49758">
        <ele>131</ele>
        <time>2023-08-05T11:00:58Z</time>
      </trkpt>
      <trkpt lat="50.79831" lon="2.4976">
        <ele>130.4</ele>
        <time>2023-08-05T11:00:59Z</time>
      </trkpt>
      <trkpt lat="50.79829" lon="2.49762">
        <ele>129.4</ele>
        <time>2023-08-05T11:01:00Z</time>
      </trkpt>
      <trkpt lat="50.79828" lon="2.49763">
        <ele>129</ele>
        <time>2023-08-05T11:01:01Z</time>
      </trkpt>
      <trkpt lat="50.79828" lon="2.49765">
        <ele>128</ele>
        <time>2023-08-05T11:01:02Z</time>
      </trkpt>
      <trkpt lat="50.79828" lon="2.49766">
        <ele>127.6</ele>
        <time>2023-08-05T11:01:03Z</time>
      </trkpt>
      <trkpt lat="50.79829" lon="2.49766">
        <ele>126.6</ele>
        <time>2023-08-05T11:01:04Z</time>
      </trkpt>
      <trkpt lat="50.7983" lon="2.49765">
        <ele>126</ele>
        <time>2023-08-05T11:01:05Z</time>
      </trkpt>
      <trkpt lat="50.79831" lon="2.49764">
        <ele>125.8</ele>
        <time>2023-08-05T11:01:06Z</time>
      </trkpt>
      <trkpt lat="50.79832" lon="2.49763">
        <ele>125.6</ele>
        <time>2023-08-05T11:01:07Z</time>
      </trkpt>
      <trkpt lat="50.79836" lon="2.49759">
        <ele>124.8</ele>
        <time>2023-08-05T11:01:11Z</time>
      </trkpt>
      <trkpt lat="50.79836" lon="2.49759">
        <ele>124.8</ele>
        <time>2023-08-05T11:01:12Z</time>
      </trkpt>
      <trkpt lat="50.79837" lon="2.49763">
        <ele>124.6</ele>
        <time>2023-08-05T11:01:18Z</time>
      </trkpt>
      <trkpt lat="50.79839" lon="2.49785">
        <ele>124</ele>
        <time>2023-08-05T11:01:23Z</time>
      </trkpt>
      <trkpt lat="50.79839" lon="2.4979">
        <ele>124</ele>
        <time>2023-08-05T11:01:24Z</time>
      </trkpt>
      <trkpt lat="50.7984" lon="2.49803">
        <ele>123.6</ele>
        <time>2023-08-05T11:01:27Z</time>
      </trkpt>
      <trkpt lat="50.79842" lon="2.49814">
        <ele>122.6</ele>
        <time>2023-08-05T11:01:30Z</time>
      </trkpt>
      <trkpt lat="50.79842" lon="2.49818">
        <ele>122.4</ele>
        <time>2023-08-05T11:01:31Z</time>
      </trkpt>
      <trkpt lat="50.79842" lon="2.49822">
        <ele>122.2</ele>
        <time>2023-08-05T11:01:32Z</time>
      </trkpt>
      <trkpt lat="50.79842" lon="2.49827">
        <ele>121.8</ele>
        <time>2023-08-05T11:01:34Z</time>
      </trkpt>
      <trkpt lat="50.79841" lon="2.49833">
        <ele>121.2</ele>
        <time>2023-08-05T11:01:36Z</time>
      </trkpt>
      <trkpt lat="50.79842" lon="2.49835">
        <ele>120.8</ele>
        <time>2023-08-05T11:01:37Z</time>
      </trkpt>
      <trkpt lat="50.79842" lon="2.49837">
        <ele>120.6</ele>
        <time>2023-08-05T11:01:38Z</time>
      </trkpt>
      <trkpt lat="50.79843" lon="2.49841">
        <ele>120</ele>
        <time>2023-08-05T11:01:39Z</time>
      </trkpt>
      <trkpt lat="50.79843" lon="2.49843">
        <ele>120</ele>
        <time>2023-08-05T11:01:40Z</time>
      </trkpt>
      <trkpt lat="50.79843" lon="2.49845">
        <ele>119.6</ele>
        <time>2023-08-05T11:01:41Z</time>
      </trkpt>
      <trkpt lat="50.79843" lon="2.49847">
        <ele>119.4</ele>
        <time>2023-08-05T11:01:42Z</time>
      </trkpt>
      <trkpt lat="50.79843" lon="2.4985">
        <ele>119</ele>
        <time>2023-08-05T11:01:43Z</time>
      </trkpt>
      <trkpt lat="50.79842" lon="2.49853">
        <ele>118.6</ele>
        <time>2023-08-05T11:01:44Z</time>
      </trkpt>
      <trkpt lat="50.79843" lon="2.49856">
        <ele>118.6</ele>
        <time>2023-08-05T11:01:45Z</time>
      </trkpt>
      <trkpt lat="50.79843" lon="2.49859">
        <ele>118.6</ele>
        <time>2023-08-05T11:01:46Z</time>
      </trkpt>
      <trkpt lat="50.79843" lon="2.49863">
        <ele>118.4</ele>
        <time>2023-08-05T11:01:47Z</time>
      </trkpt>
      <trkpt lat="50.79843" lon="2.4987">
        <ele>117.8</ele>
        <time>2023-08-05T11:01:50Z</time>
      </trkpt>
      <trkpt lat="50.79843" lon="2.49873">
        <ele>117.4</ele>
        <time>2023-08-05T11:01:51Z</time>
      </trkpt>
      <trkpt lat="50.79843" lon="2.49876">
        <ele>116.8</ele>
        <time>2023-08-05T11:01:52Z</time>
      </trkpt>
      <trkpt lat="50.79843" lon="2.49878">
        <ele>116.6</ele>
        <time>2023-08-05T11:01:53Z</time>
      </trkpt>
      <trkpt lat="50.79843" lon="2.4988">
        <ele>116.4</ele>
        <time>2023-08-05T11:01:54Z</time>
      </trkpt>
      <trkpt lat="50.79843" lon="2.49883">
        <ele>116.2</ele>
        <time>2023-08-05T11:01:55Z</time>
      </trkpt>
      <trkpt lat="50.79842" lon="2.49886">
        <ele>116</ele>
        <time>2023-08-05T11:01:56Z</time>
      </trkpt>
      <trkpt lat="50.79841" lon="2.49891">
        <ele>115.8</ele>
        <time>2023-08-05T11:01:57Z</time>
      </trkpt>
      <trkpt lat="50.79841" lon="2.49895">
        <ele>115.4</ele>
        <time>2023-08-05T11:01:58Z</time>
      </trkpt>
      <trkpt lat="50.7984" lon="2.49898">
        <ele>114.8</ele>
        <time>2023-08-05T11:01:59Z</time>
      </trkpt>
      <trkpt lat="50.79838" lon="2.499">
        <ele>114.4</ele>
        <time>2023-08-05T11:02:00Z</time>
      </trkpt>
      <trkpt lat="50.79837" lon="2.49901">
        <ele>114</ele>
        <time>2023-08-05T11:02:01Z</time>
      </trkpt>
      <trkpt lat="50.79835" lon="2.49902">
        <ele>113.2</ele>
        <time>2023-08-05T11:02:02Z</time>
      </trkpt>
      <trkpt lat="50.79833" lon="2.49903">
        <ele>113</ele>
        <time>2023-08-05T11:02:03Z</time>
      </trkpt>
      <trkpt lat="50.79831" lon="2.49904">
        <ele>112.6</ele>
        <time>2023-08-05T11:02:04Z</time>
      </trkpt>
      <trkpt lat="50.79829" lon="2.49905">
        <ele>112.4</ele>
        <time>2023-08-05T11:02:05Z</time>
      </trkpt>
      <trkpt lat="50.79828" lon="2.49906">
        <ele>111.8</ele>
        <time>2023-08-05T11:02:06Z</time>
      </trkpt>
      <trkpt lat="50.79816" lon="2.49911">
        <ele>110.8</ele>
        <time>2023-08-05T11:02:10Z</time>
      </trkpt>
      <trkpt lat="50.79814" lon="2.49912">
        <ele>110.6</ele>
        <time>2023-08-05T11:02:11Z</time>
      </trkpt>
      <trkpt lat="50.79802" lon="2.49916">
        <ele>109.8</ele>
        <time>2023-08-05T11:02:15Z</time>
      </trkpt>
      <trkpt lat="50.798" lon="2.4992">
        <ele>109.4</ele>
        <time>2023-08-05T11:02:16Z</time>
      </trkpt>
      <trkpt lat="50.79795" lon="2.49929">
        <ele>109.2</ele>
        <time>2023-08-05T11:02:18Z</time>
      </trkpt>
      <trkpt lat="50.79793" lon="2.49934">
        <ele>109</ele>
        <time>2023-08-05T11:02:19Z</time>
      </trkpt>
      <trkpt lat="50.79792" lon="2.49939">
        <ele>108.4</ele>
        <time>2023-08-05T11:02:20Z</time>
      </trkpt>
      <trkpt lat="50.79792" lon="2.49946">
        <ele>108.2</ele>
        <time>2023-08-05T11:02:21Z</time>
      </trkpt>
      <trkpt lat="50.79792" lon="2.49953">
        <ele>108</ele>
        <time>2023-08-05T11:02:22Z</time>
      </trkpt>
      <trkpt lat="50.79792" lon="2.49959">
        <ele>107.6</ele>
        <time>2023-08-05T11:02:23Z</time>
      </trkpt>
      <trkpt lat="50.79793" lon="2.49966">
        <ele>107.4</ele>
        <time>2023-08-05T11:02:24Z</time>
      </trkpt>
      <trkpt lat="50.79794" lon="2.49972">
        <ele>106.8</ele>
        <time>2023-08-05T11:02:25Z</time>
      </trkpt>
      <trkpt lat="50.79794" lon="2.49984">
        <ele>106.2</ele>
        <time>2023-08-05T11:02:27Z</time>
      </trkpt>
      <trkpt lat="50.79793" lon="2.50006">
        <ele>105.8</ele>
        <time>2023-08-05T11:02:31Z</time>
      </trkpt>
      <trkpt lat="50.79792" lon="2.50011">
        <ele>105.6</ele>
        <time>2023-08-05T11:02:32Z</time>
      </trkpt>
      <trkpt lat="50.7979" lon="2.50036">
        <ele>105.2</ele>
        <time>2023-08-05T11:02:36Z</time>
      </trkpt>
      <trkpt lat="50.79788" lon="2.50058">
        <ele>104.4</ele>
        <time>2023-08-05T11:02:39Z</time>
      </trkpt>
      <trkpt lat="50.79787" lon="2.50072">
        <ele>104.2</ele>
        <time>2023-08-05T11:02:41Z</time>
      </trkpt>
      <trkpt lat="50.79782" lon="2.50111">
        <ele>103.2</ele>
        <time>2023-08-05T11:02:47Z</time>
      </trkpt>
      <trkpt lat="50.79781" lon="2.50122">
        <ele>103</ele>
        <time>2023-08-05T11:02:49Z</time>
      </trkpt>
      <trkpt lat="50.7978" lon="2.50126">
        <ele>102.6</ele>
        <time>2023-08-05T11:02:50Z</time>
      </trkpt>
      <trkpt lat="50.79779" lon="2.50132">
        <ele>102.6</ele>
        <time>2023-08-05T11:02:51Z</time>
      </trkpt>
      <trkpt lat="50.79778" lon="2.50137">
        <ele>102.4</ele>
        <time>2023-08-05T11:02:52Z</time>
      </trkpt>
      <trkpt lat="50.79777" lon="2.50142">
        <ele>102.2</ele>
        <time>2023-08-05T11:02:53Z</time>
      </trkpt>
      <trkpt lat="50.79776" lon="2.50147">
        <ele>102.2</ele>
        <time>2023-08-05T11:02:54Z</time>
      </trkpt>
      <trkpt lat="50.79775" lon="2.50152">
        <ele>102.2</ele>
        <time>2023-08-05T11:02:55Z</time>
      </trkpt>
      <trkpt lat="50.79774" lon="2.50157">
        <ele>102</ele>
        <time>2023-08-05T11:02:56Z</time>
      </trkpt>
      <trkpt lat="50.79773" lon="2.50162">
        <ele>102</ele>
        <time>2023-08-05T11:02:57Z</time>
      </trkpt>
      <trkpt lat="50.79771" lon="2.50167">
        <ele>102</ele>
        <time>2023-08-05T11:02:58Z</time>
      </trkpt>
      <trkpt lat="50.79764" lon="2.50186">
        <ele>101.8</ele>
        <time>2023-08-05T11:03:02Z</time>
      </trkpt>
      <trkpt lat="50.7975" lon="2.50217">
        <ele>101.6</ele>
        <time>2023-08-05T11:03:10Z</time>
      </trkpt>
      <trkpt lat="50.79749" lon="2.50221">
        <ele>101.4</ele>
        <time>2023-08-05T11:03:11Z</time>
      </trkpt>
      <trkpt lat="50.79747" lon="2.50226">
        <ele>101.4</ele>
        <time>2023-08-05T11:03:12Z</time>
      </trkpt>
      <trkpt lat="50.79745" lon="2.5023">
        <ele>101.4</ele>
        <time>2023-08-05T11:03:13Z</time>
      </trkpt>
      <trkpt lat="50.79744" lon="2.50233">
        <ele>101.2</ele>
        <time>2023-08-05T11:03:14Z</time>
      </trkpt>
      <trkpt lat="50.79742" lon="2.50237">
        <ele>101.2</ele>
        <time>2023-08-05T11:03:15Z</time>
      </trkpt>
      <trkpt lat="50.79741" lon="2.50241">
        <ele>101.2</ele>
        <time>2023-08-05T11:03:16Z</time>
      </trkpt>
      <trkpt lat="50.79739" lon="2.50246">
        <ele>101.2</ele>
        <time>2023-08-05T11:03:17Z</time>
      </trkpt>
      <trkpt lat="50.79738" lon="2.50251">
        <ele>101</ele>
        <time>2023-08-05T11:03:18Z</time>
      </trkpt>
      <trkpt lat="50.79733" lon="2.50268">
        <ele>101</ele>
        <time>2023-08-05T11:03:22Z</time>
      </trkpt>
      <trkpt lat="50.79729" lon="2.50296">
        <ele>101.2</ele>
        <time>2023-08-05T11:03:28Z</time>
      </trkpt>
      <trkpt lat="50.7973" lon="2.50308">
        <ele>101.6</ele>
        <time>2023-08-05T11:03:31Z</time>
      </trkpt>
      <trkpt lat="50.79731" lon="2.50312">
        <ele>101.8</ele>
        <time>2023-08-05T11:03:32Z</time>
      </trkpt>
      <trkpt lat="50.79732" lon="2.50316">
        <ele>102</ele>
        <time>2023-08-05T11:03:33Z</time>
      </trkpt>
      <trkpt lat="50.79732" lon="2.50318">
        <ele>102.2</ele>
        <time>2023-08-05T11:03:34Z</time>
      </trkpt>
      <trkpt lat="50.79732" lon="2.50322">
        <ele>102.2</ele>
        <time>2023-08-05T11:03:35Z</time>
      </trkpt>
      <trkpt lat="50.79731" lon="2.50325">
        <ele>102.4</ele>
        <time>2023-08-05T11:03:36Z</time>
      </trkpt>
      <trkpt lat="50.7973" lon="2.50328">
        <ele>102.4</ele>
        <time>2023-08-05T11:03:37Z</time>
      </trkpt>
      <trkpt lat="50.79728" lon="2.50331">
        <ele>102.6</ele>
        <time>2023-08-05T11:03:38Z</time>
      </trkpt>
      <trkpt lat="50.79726" lon="2.50334">
        <ele>102.8</ele>
        <time>2023-08-05T11:03:39Z</time>
      </trkpt>
      <trkpt lat="50.79723" lon="2.50337">
        <ele>102.8</ele>
        <time>2023-08-05T11:03:40Z</time>
      </trkpt>
      <trkpt lat="50.79721" lon="2.50339">
        <ele>103</ele>
        <time>2023-08-05T11:03:41Z</time>
      </trkpt>
      <trkpt lat="50.79717" lon="2.50342">
        <ele>103.2</ele>
        <time>2023-08-05T11:03:42Z</time>
      </trkpt>
      <trkpt lat="50.79708" lon="2.50351">
        <ele>103.4</ele>
        <time>2023-08-05T11:03:45Z</time>
      </trkpt>
      <trkpt lat="50.79703" lon="2.50356">
        <ele>103.4</ele>
        <time>2023-08-05T11:03:47Z</time>
      </trkpt>
      <trkpt lat="50.79702" lon="2.50357">
        <ele>103.4</ele>
        <time>2023-08-05T11:03:48Z</time>
      </trkpt>
      <trkpt lat="50.79701" lon="2.50359">
        <ele>103.4</ele>
        <time>2023-08-05T11:03:49Z</time>
      </trkpt>
      <trkpt lat="50.797" lon="2.5036">
        <ele>103.4</ele>
        <time>2023-08-05T11:03:50Z</time>
      </trkpt>
      <trkpt lat="50.79699" lon="2.50361">
        <ele>103.4</ele>
        <time>2023-08-05T11:03:51Z</time>
      </trkpt>
      <trkpt lat="50.79697" lon="2.50363">
        <ele>103.4</ele>
        <time>2023-08-05T11:03:52Z</time>
      </trkpt>
      <trkpt lat="50.79696" lon="2.50365">
        <ele>103.2</ele>
        <time>2023-08-05T11:03:53Z</time>
      </trkpt>
      <trkpt lat="50.79694" lon="2.50367">
        <ele>103.2</ele>
        <time>2023-08-05T11:03:54Z</time>
      </trkpt>
      <trkpt lat="50.79694" lon="2.50368">
        <ele>103.2</ele>
        <time>2023-08-05T11:03:55Z</time>
      </trkpt>
      <trkpt lat="50.79694" lon="2.5037">
        <ele>103.2</ele>
        <time>2023-08-05T11:03:56Z</time>
      </trkpt>
      <trkpt lat="50.79695" lon="2.50372">
        <ele>103.2</ele>
        <time>2023-08-05T11:03:57Z</time>
      </trkpt>
      <trkpt lat="50.79697" lon="2.50372">
        <ele>103.2</ele>
        <time>2023-08-05T11:03:58Z</time>
      </trkpt>
      <trkpt lat="50.79699" lon="2.50371">
        <ele>103</ele>
        <time>2023-08-05T11:03:59Z</time>
      </trkpt>
      <trkpt lat="50.7971" lon="2.50361">
        <ele>103</ele>
        <time>2023-08-05T11:04:04Z</time>
      </trkpt>
      <trkpt lat="50.79713" lon="2.50362">
        <ele>103</ele>
        <time>2023-08-05T11:04:05Z</time>
      </trkpt>
      <trkpt lat="50.79715" lon="2.50365">
        <ele>102.8</ele>
        <time>2023-08-05T11:04:06Z</time>
      </trkpt>
      <trkpt lat="50.79717" lon="2.50369">
        <ele>102.8</ele>
        <time>2023-08-05T11:04:07Z</time>
      </trkpt>
      <trkpt lat="50.7972" lon="2.50373">
        <ele>102.8</ele>
        <time>2023-08-05T11:04:09Z</time>
      </trkpt>
      <trkpt lat="50.79721" lon="2.50376">
        <ele>103</ele>
        <time>2023-08-05T11:04:10Z</time>
      </trkpt>
      <trkpt lat="50.79722" lon="2.5038">
        <ele>103</ele>
        <time>2023-08-05T11:04:11Z</time>
      </trkpt>
      <trkpt lat="50.79724" lon="2.50384">
        <ele>103</ele>
        <time>2023-08-05T11:04:12Z</time>
      </trkpt>
      <trkpt lat="50.79726" lon="2.50386">
        <ele>103</ele>
        <time>2023-08-05T11:04:13Z</time>
      </trkpt>
      <trkpt lat="50.79727" lon="2.50388">
        <ele>103.2</ele>
        <time>2023-08-05T11:04:14Z</time>
      </trkpt>
      <trkpt lat="50.79728" lon="2.50391">
        <ele>103.2</ele>
        <time>2023-08-05T11:04:15Z</time>
      </trkpt>
      <trkpt lat="50.79728" lon="2.50395">
        <ele>103.4</ele>
        <time>2023-08-05T11:04:16Z</time>
      </trkpt>
      <trkpt lat="50.79728" lon="2.50399">
        <ele>103.6</ele>
        <time>2023-08-05T11:04:17Z</time>
      </trkpt>
      <trkpt lat="50.79727" lon="2.50402">
        <ele>103.6</ele>
        <time>2023-08-05T11:04:18Z</time>
      </trkpt>
      <trkpt lat="50.79726" lon="2.50405">
        <ele>103.6</ele>
        <time>2023-08-05T11:04:19Z</time>
      </trkpt>
      <trkpt lat="50.79725" lon="2.50408">
        <ele>103.8</ele>
        <time>2023-08-05T11:04:20Z</time>
      </trkpt>
      <trkpt lat="50.79724" lon="2.50412">
        <ele>103.8</ele>
        <time>2023-08-05T11:04:21Z</time>
      </trkpt>
      <trkpt lat="50.79723" lon="2.50415">
        <ele>103.8</ele>
        <time>2023-08-05T11:04:22Z</time>
      </trkpt>
      <trkpt lat="50.7972" lon="2.50423">
        <ele>104</ele>
        <time>2023-08-05T11:04:24Z</time>
      </trkpt>
      <trkpt lat="50.79719" lon="2.50425">
        <ele>104</ele>
        <time>2023-08-05T11:04:25Z</time>
      </trkpt>
      <trkpt lat="50.7971" lon="2.50453">
        <ele>104.4</ele>
        <time>2023-08-05T11:04:33Z</time>
      </trkpt>
      <trkpt lat="50.79706" lon="2.5047">
        <ele>104.6</ele>
        <time>2023-08-05T11:04:38Z</time>
      </trkpt>
      <trkpt lat="50.79705" lon="2.50473">
        <ele>104.6</ele>
        <time>2023-08-05T11:04:39Z</time>
      </trkpt>
      <trkpt lat="50.79704" lon="2.50475">
        <ele>104.6</ele>
        <time>2023-08-05T11:04:40Z</time>
      </trkpt>
      <trkpt lat="50.79703" lon="2.50478">
        <ele>104.8</ele>
        <time>2023-08-05T11:04:41Z</time>
      </trkpt>
      <trkpt lat="50.79702" lon="2.50482">
        <ele>105</ele>
        <time>2023-08-05T11:04:42Z</time>
      </trkpt>
      <trkpt lat="50.79701" lon="2.50485">
        <ele>105.2</ele>
        <time>2023-08-05T11:04:43Z</time>
      </trkpt>
      <trkpt lat="50.79701" lon="2.50488">
        <ele>105.2</ele>
        <time>2023-08-05T11:04:44Z</time>
      </trkpt>
      <trkpt lat="50.79701" lon="2.5049">
        <ele>105.4</ele>
        <time>2023-08-05T11:04:45Z</time>
      </trkpt>
      <trkpt lat="50.79702" lon="2.50492">
        <ele>105.4</ele>
        <time>2023-08-05T11:04:46Z</time>
      </trkpt>
      <trkpt lat="50.79703" lon="2.50494">
        <ele>105.4</ele>
        <time>2023-08-05T11:04:47Z</time>
      </trkpt>
      <trkpt lat="50.79705" lon="2.50496">
        <ele>105.6</ele>
        <time>2023-08-05T11:04:48Z</time>
      </trkpt>
      <trkpt lat="50.79707" lon="2.50497">
        <ele>105.6</ele>
        <time>2023-08-05T11:04:49Z</time>
      </trkpt>
      <trkpt lat="50.79708" lon="2.50498">
        <ele>105.6</ele>
        <time>2023-08-05T11:04:50Z</time>
      </trkpt>
      <trkpt lat="50.7971" lon="2.50499">
        <ele>105.6</ele>
        <time>2023-08-05T11:04:51Z</time>
      </trkpt>
      <trkpt lat="50.79712" lon="2.50501">
        <ele>105.8</ele>
        <time>2023-08-05T11:04:52Z</time>
      </trkpt>
      <trkpt lat="50.79713" lon="2.50502">
        <ele>105.8</ele>
        <time>2023-08-05T11:04:53Z</time>
      </trkpt>
      <trkpt lat="50.79715" lon="2.50503">
        <ele>106</ele>
        <time>2023-08-05T11:04:54Z</time>
      </trkpt>
      <trkpt lat="50.79716" lon="2.50504">
        <ele>106</ele>
        <time>2023-08-05T11:04:55Z</time>
      </trkpt>
      <trkpt lat="50.79717" lon="2.50506">
        <ele>106</ele>
        <time>2023-08-05T11:04:56Z</time>
      </trkpt>
      <trkpt lat="50.79722" lon="2.50512">
        <ele>106.2</ele>
        <time>2023-08-05T11:05:00Z</time>
      </trkpt>
      <trkpt lat="50.79723" lon="2.50513">
        <ele>106.2</ele>
        <time>2023-08-05T11:05:01Z</time>
      </trkpt>
      <trkpt lat="50.79724" lon="2.50514">
        <ele>106.4</ele>
        <time>2023-08-05T11:05:02Z</time>
      </trkpt>
      <trkpt lat="50.79725" lon="2.50516">
        <ele>106.8</ele>
        <time>2023-08-05T11:05:03Z</time>
      </trkpt>
      <trkpt lat="50.79727" lon="2.50517">
        <ele>106.8</ele>
        <time>2023-08-05T11:05:04Z</time>
      </trkpt>
      <trkpt lat="50.79728" lon="2.50518">
        <ele>106.8</ele>
        <time>2023-08-05T11:05:05Z</time>
      </trkpt>
      <trkpt lat="50.79729" lon="2.50518">
        <ele>107.2</ele>
        <time>2023-08-05T11:05:06Z</time>
      </trkpt>
      <trkpt lat="50.79731" lon="2.50519">
        <ele>107.4</ele>
        <time>2023-08-05T11:05:07Z</time>
      </trkpt>
      <trkpt lat="50.79732" lon="2.5052">
        <ele>107.6</ele>
        <time>2023-08-05T11:05:08Z</time>
      </trkpt>
      <trkpt lat="50.79734" lon="2.5052">
        <ele>107.8</ele>
        <time>2023-08-05T11:05:09Z</time>
      </trkpt>
      <trkpt lat="50.79734" lon="2.5052">
        <ele>108</ele>
        <time>2023-08-05T11:05:10Z</time>
      </trkpt>
      <trkpt lat="50.79735" lon="2.50521">
        <ele>108</ele>
        <time>2023-08-05T11:05:11Z</time>
      </trkpt>
      <trkpt lat="50.79736" lon="2.50522">
        <ele>108.2</ele>
        <time>2023-08-05T11:05:12Z</time>
      </trkpt>
      <trkpt lat="50.79738" lon="2.50522">
        <ele>108.4</ele>
        <time>2023-08-05T11:05:13Z</time>
      </trkpt>
      <trkpt lat="50.79738" lon="2.50522">
        <ele>108.4</ele>
        <time>2023-08-05T11:05:14Z</time>
      </trkpt>
      <trkpt lat="50.79738" lon="2.50523">
        <ele>108.6</ele>
        <time>2023-08-05T11:05:15Z</time>
      </trkpt>
      <trkpt lat="50.79739" lon="2.50524">
        <ele>108.8</ele>
        <time>2023-08-05T11:05:16Z</time>
      </trkpt>
      <trkpt lat="50.7974" lon="2.50524">
        <ele>109.2</ele>
        <time>2023-08-05T11:05:17Z</time>
      </trkpt>
      <trkpt lat="50.79741" lon="2.50526">
        <ele>109.2</ele>
        <time>2023-08-05T11:05:18Z</time>
      </trkpt>
      <trkpt lat="50.79741" lon="2.50527">
        <ele>109.4</ele>
        <time>2023-08-05T11:05:19Z</time>
      </trkpt>
      <trkpt lat="50.79742" lon="2.50527">
        <ele>109.6</ele>
        <time>2023-08-05T11:05:20Z</time>
      </trkpt>
      <trkpt lat="50.79742" lon="2.50527">
        <ele>109.6</ele>
        <time>2023-08-05T11:05:21Z</time>
      </trkpt>
      <trkpt lat="50.79742" lon="2.50527">
        <ele>109.8</ele>
        <time>2023-08-05T11:05:22Z</time>
      </trkpt>
      <trkpt lat="50.79743" lon="2.50528">
        <ele>110</ele>
        <time>2023-08-05T11:05:23Z</time>
      </trkpt>
      <trkpt lat="50.79745" lon="2.50531">
        <ele>110.2</ele>
        <time>2023-08-05T11:05:24Z</time>
      </trkpt>
      <trkpt lat="50.79747" lon="2.50534">
        <ele>110.4</ele>
        <time>2023-08-05T11:05:25Z</time>
      </trkpt>
      <trkpt lat="50.79748" lon="2.50536">
        <ele>110.8</ele>
        <time>2023-08-05T11:05:26Z</time>
      </trkpt>
      <trkpt lat="50.79749" lon="2.50537">
        <ele>110.8</ele>
        <time>2023-08-05T11:05:27Z</time>
      </trkpt>
      <trkpt lat="50.79751" lon="2.50539">
        <ele>111.2</ele>
        <time>2023-08-05T11:05:28Z</time>
      </trkpt>
      <trkpt lat="50.79751" lon="2.50541">
        <ele>111.6</ele>
        <time>2023-08-05T11:05:29Z</time>
      </trkpt>
      <trkpt lat="50.79752" lon="2.50543">
        <ele>111.6</ele>
        <time>2023-08-05T11:05:30Z</time>
      </trkpt>
      <trkpt lat="50.79753" lon="2.50545">
        <ele>111.8</ele>
        <time>2023-08-05T11:05:31Z</time>
      </trkpt>
      <trkpt lat="50.79754" lon="2.50548">
        <ele>111.8</ele>
        <time>2023-08-05T11:05:32Z</time>
      </trkpt>
      <trkpt lat="50.79754" lon="2.5055">
        <ele>112.2</ele>
        <time>2023-08-05T11:05:33Z</time>
      </trkpt>
      <trkpt lat="50.79754" lon="2.50552">
        <ele>112.4</ele>
        <time>2023-08-05T11:05:34Z</time>
      </trkpt>
      <trkpt lat="50.79755" lon="2.50556">
        <ele>113</ele>
        <time>2023-08-05T11:05:35Z</time>
      </trkpt>
      <trkpt lat="50.79756" lon="2.50557">
        <ele>113.4</ele>
        <time>2023-08-05T11:05:36Z</time>
      </trkpt>
      <trkpt lat="50.79756" lon="2.5056">
        <ele>113.6</ele>
        <time>2023-08-05T11:05:37Z</time>
      </trkpt>
      <trkpt lat="50.79756" lon="2.50563">
        <ele>114</ele>
        <time>2023-08-05T11:05:38Z</time>
      </trkpt>
      <trkpt lat="50.79756" lon="2.50565">
        <ele>114</ele>
        <time>2023-08-05T11:05:39Z</time>
      </trkpt>
      <trkpt lat="50.79757" lon="2.5057">
        <ele>114.2</ele>
        <time>2023-08-05T11:05:40Z</time>
      </trkpt>
      <trkpt lat="50.79758" lon="2.50573">
        <ele>114.2</ele>
        <time>2023-08-05T11:05:41Z</time>
      </trkpt>
      <trkpt lat="50.79758" lon="2.50575">
        <ele>114.6</ele>
        <time>2023-08-05T11:05:42Z</time>
      </trkpt>
      <trkpt lat="50.79758" lon="2.50577">
        <ele>114.8</ele>
        <time>2023-08-05T11:05:43Z</time>
      </trkpt>
      <trkpt lat="50.79757" lon="2.50579">
        <ele>115</ele>
        <time>2023-08-05T11:05:44Z</time>
      </trkpt>
      <trkpt lat="50.79757" lon="2.5058">
        <ele>115.2</ele>
        <time>2023-08-05T11:05:45Z</time>
      </trkpt>
      <trkpt lat="50.79758" lon="2.50582">
        <ele>115.2</ele>
        <time>2023-08-05T11:05:46Z</time>
      </trkpt>
      <trkpt lat="50.79759" lon="2.50584">
        <ele>115.4</ele>
        <time>2023-08-05T11:05:47Z</time>
      </trkpt>
      <trkpt lat="50.7976" lon="2.50586">
        <ele>115.6</ele>
        <time>2023-08-05T11:05:48Z</time>
      </trkpt>
      <trkpt lat="50.7976" lon="2.50588">
        <ele>115.6</ele>
        <time>2023-08-05T11:05:49Z</time>
      </trkpt>
      <trkpt lat="50.79761" lon="2.5059">
        <ele>115.8</ele>
        <time>2023-08-05T11:05:50Z</time>
      </trkpt>
      <trkpt lat="50.79762" lon="2.50592">
        <ele>115.8</ele>
        <time>2023-08-05T11:05:51Z</time>
      </trkpt>
      <trkpt lat="50.79763" lon="2.50594">
        <ele>116</ele>
        <time>2023-08-05T11:05:52Z</time>
      </trkpt>
      <trkpt lat="50.79763" lon="2.50597">
        <ele>116</ele>
        <time>2023-08-05T11:05:53Z</time>
      </trkpt>
      <trkpt lat="50.79764" lon="2.50599">
        <ele>116.2</ele>
        <time>2023-08-05T11:05:54Z</time>
      </trkpt>
      <trkpt lat="50.79764" lon="2.506">
        <ele>116.2</ele>
        <time>2023-08-05T11:05:55Z</time>
      </trkpt>
      <trkpt lat="50.79764" lon="2.50602">
        <ele>116.2</ele>
        <time>2023-08-05T11:05:56Z</time>
      </trkpt>
      <trkpt lat="50.79764" lon="2.50604">
        <ele>116.4</ele>
        <time>2023-08-05T11:05:57Z</time>
      </trkpt>
      <trkpt lat="50.79764" lon="2.50607">
        <ele>116.4</ele>
        <time>2023-08-05T11:05:58Z</time>
      </trkpt>
      <trkpt lat="50.79765" lon="2.50609">
        <ele>116.6</ele>
        <time>2023-08-05T11:05:59Z</time>
      </trkpt>
      <trkpt lat="50.79766" lon="2.50611">
        <ele>116.6</ele>
        <time>2023-08-05T11:06:00Z</time>
      </trkpt>
      <trkpt lat="50.79766" lon="2.50613">
        <ele>116.8</ele>
        <time>2023-08-05T11:06:01Z</time>
      </trkpt>
      <trkpt lat="50.79766" lon="2.50616">
        <ele>116.8</ele>
        <time>2023-08-05T11:06:02Z</time>
      </trkpt>
      <trkpt lat="50.79767" lon="2.50619">
        <ele>117</ele>
        <time>2023-08-05T11:06:03Z</time>
      </trkpt>
      <trkpt lat="50.79768" lon="2.50624">
        <ele>117</ele>
        <time>2023-08-05T11:06:04Z</time>
      </trkpt>
      <trkpt lat="50.7977" lon="2.50627">
        <ele>117.2</ele>
        <time>2023-08-05T11:06:05Z</time>
      </trkpt>
      <trkpt lat="50.7977" lon="2.5063">
        <ele>117.4</ele>
        <time>2023-08-05T11:06:06Z</time>
      </trkpt>
      <trkpt lat="50.79771" lon="2.50634">
        <ele>117.6</ele>
        <time>2023-08-05T11:06:07Z</time>
      </trkpt>
      <trkpt lat="50.79772" lon="2.50638">
        <ele>117.6</ele>
        <time>2023-08-05T11:06:08Z</time>
      </trkpt>
      <trkpt lat="50.79773" lon="2.50642">
        <ele>117.6</ele>
        <time>2023-08-05T11:06:09Z</time>
      </trkpt>
      <trkpt lat="50.79774" lon="2.50646">
        <ele>117.6</ele>
        <time>2023-08-05T11:06:10Z</time>
      </trkpt>
      <trkpt lat="50.79776" lon="2.50649">
        <ele>117.8</ele>
        <time>2023-08-05T11:06:11Z</time>
      </trkpt>
      <trkpt lat="50.79778" lon="2.50652">
        <ele>117.8</ele>
        <time>2023-08-05T11:06:12Z</time>
      </trkpt>
      <trkpt lat="50.79779" lon="2.50655">
        <ele>117.8</ele>
        <time>2023-08-05T11:06:13Z</time>
      </trkpt>
      <trkpt lat="50.79781" lon="2.50658">
        <ele>117.8</ele>
        <time>2023-08-05T11:06:14Z</time>
      </trkpt>
      <trkpt lat="50.79782" lon="2.50661">
        <ele>117.8</ele>
        <time>2023-08-05T11:06:15Z</time>
      </trkpt>
      <trkpt lat="50.79783" lon="2.50664">
        <ele>117.8</ele>
        <time>2023-08-05T11:06:16Z</time>
      </trkpt>
      <trkpt lat="50.79783" lon="2.50669">
        <ele>117.8</ele>
        <time>2023-08-05T11:06:17Z</time>
      </trkpt>
      <trkpt lat="50.79783" lon="2.50676">
        <ele>117.8</ele>
        <time>2023-08-05T11:06:18Z</time>
      </trkpt>
      <trkpt lat="50.79784" lon="2.5068">
        <ele>117.8</ele>
        <time>2023-08-05T11:06:19Z</time>
      </trkpt>
      <trkpt lat="50.79786" lon="2.50682">
        <ele>117.8</ele>
        <time>2023-08-05T11:06:20Z</time>
      </trkpt>
      <trkpt lat="50.79787" lon="2.50686">
        <ele>117.8</ele>
        <time>2023-08-05T11:06:21Z</time>
      </trkpt>
      <trkpt lat="50.79789" lon="2.5069">
        <ele>117.6</ele>
        <time>2023-08-05T11:06:22Z</time>
      </trkpt>
      <trkpt lat="50.79791" lon="2.50695">
        <ele>117.6</ele>
        <time>2023-08-05T11:06:23Z</time>
      </trkpt>
      <trkpt lat="50.79792" lon="2.50698">
        <ele>117.6</ele>
        <time>2023-08-05T11:06:24Z</time>
      </trkpt>
      <trkpt lat="50.79794" lon="2.50702">
        <ele>117.6</ele>
        <time>2023-08-05T11:06:25Z</time>
      </trkpt>
      <trkpt lat="50.79794" lon="2.50705">
        <ele>117.6</ele>
        <time>2023-08-05T11:06:26Z</time>
      </trkpt>
      <trkpt lat="50.79796" lon="2.50709">
        <ele>117.4</ele>
        <time>2023-08-05T11:06:28Z</time>
      </trkpt>
      <trkpt lat="50.79796" lon="2.50718">
        <ele>117.4</ele>
        <time>2023-08-05T11:06:30Z</time>
      </trkpt>
      <trkpt lat="50.79798" lon="2.50723">
        <ele>117.4</ele>
        <time>2023-08-05T11:06:31Z</time>
      </trkpt>
      <trkpt lat="50.79805" lon="2.50736">
        <ele>117.2</ele>
        <time>2023-08-05T11:06:34Z</time>
      </trkpt>
      <trkpt lat="50.79808" lon="2.50741">
        <ele>117</ele>
        <time>2023-08-05T11:06:35Z</time>
      </trkpt>
      <trkpt lat="50.7981" lon="2.50746">
        <ele>117.2</ele>
        <time>2023-08-05T11:06:36Z</time>
      </trkpt>
      <trkpt lat="50.79814" lon="2.50755">
        <ele>116.6</ele>
        <time>2023-08-05T11:06:38Z</time>
      </trkpt>
      <trkpt lat="50.79816" lon="2.5076">
        <ele>116.6</ele>
        <time>2023-08-05T11:06:39Z</time>
      </trkpt>
      <trkpt lat="50.79819" lon="2.50764">
        <ele>116.4</ele>
        <time>2023-08-05T11:06:40Z</time>
      </trkpt>
      <trkpt lat="50.79821" lon="2.50768">
        <ele>116.4</ele>
        <time>2023-08-05T11:06:41Z</time>
      </trkpt>
      <trkpt lat="50.79836" lon="2.50791">
        <ele>116</ele>
        <time>2023-08-05T11:06:47Z</time>
      </trkpt>
      <trkpt lat="50.79837" lon="2.50794">
        <ele>115.8</ele>
        <time>2023-08-05T11:06:48Z</time>
      </trkpt>
      <trkpt lat="50.79839" lon="2.50797">
        <ele>115.8</ele>
        <time>2023-08-05T11:06:49Z</time>
      </trkpt>
      <trkpt lat="50.7984" lon="2.50798">
        <ele>115.8</ele>
        <time>2023-08-05T11:06:50Z</time>
      </trkpt>
      <trkpt lat="50.79843" lon="2.508">
        <ele>115.8</ele>
        <time>2023-08-05T11:06:51Z</time>
      </trkpt>
      <trkpt lat="50.79845" lon="2.50803">
        <ele>115.8</ele>
        <time>2023-08-05T11:06:52Z</time>
      </trkpt>
      <trkpt lat="50.7985" lon="2.50808">
        <ele>115.8</ele>
        <time>2023-08-05T11:06:54Z</time>
      </trkpt>
      <trkpt lat="50.79853" lon="2.50811">
        <ele>115.8</ele>
        <time>2023-08-05T11:06:55Z</time>
      </trkpt>
      <trkpt lat="50.79857" lon="2.50821">
        <ele>116</ele>
        <time>2023-08-05T11:06:57Z</time>
      </trkpt>
      <trkpt lat="50.79858" lon="2.50824">
        <ele>116.2</ele>
        <time>2023-08-05T11:06:58Z</time>
      </trkpt>
      <trkpt lat="50.7986" lon="2.50827">
        <ele>116.4</ele>
        <time>2023-08-05T11:06:59Z</time>
      </trkpt>
      <trkpt lat="50.79862" lon="2.5083">
        <ele>116.4</ele>
        <time>2023-08-05T11:07:00Z</time>
      </trkpt>
      <trkpt lat="50.79866" lon="2.50836">
        <ele>116.4</ele>
        <time>2023-08-05T11:07:02Z</time>
      </trkpt>
      <trkpt lat="50.79868" lon="2.50838">
        <ele>116.6</ele>
        <time>2023-08-05T11:07:03Z</time>
      </trkpt>
      <trkpt lat="50.79879" lon="2.50857">
        <ele>117</ele>
        <time>2023-08-05T11:07:08Z</time>
      </trkpt>
      <trkpt lat="50.79882" lon="2.50859">
        <ele>117</ele>
        <time>2023-08-05T11:07:09Z</time>
      </trkpt>
      <trkpt lat="50.79889" lon="2.50868">
        <ele>117.4</ele>
        <time>2023-08-05T11:07:12Z</time>
      </trkpt>
      <trkpt lat="50.79892" lon="2.5087">
        <ele>117.4</ele>
        <time>2023-08-05T11:07:13Z</time>
      </trkpt>
      <trkpt lat="50.79896" lon="2.50866">
        <ele>117.6</ele>
        <time>2023-08-05T11:07:15Z</time>
      </trkpt>
      <trkpt lat="50.799" lon="2.50871">
        <ele>118.2</ele>
        <time>2023-08-05T11:07:19Z</time>
      </trkpt>
      <trkpt lat="50.79902" lon="2.50874">
        <ele>118.2</ele>
        <time>2023-08-05T11:07:20Z</time>
      </trkpt>
      <trkpt lat="50.79903" lon="2.50876">
        <ele>118.4</ele>
        <time>2023-08-05T11:07:21Z</time>
      </trkpt>
      <trkpt lat="50.79913" lon="2.50893">
        <ele>118.6</ele>
        <time>2023-08-05T11:07:26Z</time>
      </trkpt>
      <trkpt lat="50.79918" lon="2.509">
        <ele>118.6</ele>
        <time>2023-08-05T11:07:28Z</time>
      </trkpt>
      <trkpt lat="50.79923" lon="2.50911">
        <ele>118.6</ele>
        <time>2023-08-05T11:07:30Z</time>
      </trkpt>
      <trkpt lat="50.79926" lon="2.50915">
        <ele>118.6</ele>
        <time>2023-08-05T11:07:31Z</time>
      </trkpt>
      <trkpt lat="50.79937" lon="2.50926">
        <ele>118</ele>
        <time>2023-08-05T11:07:34Z</time>
      </trkpt>
      <trkpt lat="50.79942" lon="2.50929">
        <ele>117.8</ele>
        <time>2023-08-05T11:07:35Z</time>
      </trkpt>
      <trkpt lat="50.79947" lon="2.50934">
        <ele>117.8</ele>
        <time>2023-08-05T11:07:36Z</time>
      </trkpt>
      <trkpt lat="50.79954" lon="2.50944">
        <ele>117.4</ele>
        <time>2023-08-05T11:07:38Z</time>
      </trkpt>
      <trkpt lat="50.79957" lon="2.50948">
        <ele>117.2</ele>
        <time>2023-08-05T11:07:39Z</time>
      </trkpt>
      <trkpt lat="50.7996" lon="2.50952">
        <ele>117.2</ele>
        <time>2023-08-05T11:07:40Z</time>
      </trkpt>
      <trkpt lat="50.79962" lon="2.50957">
        <ele>117.2</ele>
        <time>2023-08-05T11:07:41Z</time>
      </trkpt>
      <trkpt lat="50.79964" lon="2.50964">
        <ele>117.2</ele>
        <time>2023-08-05T11:07:42Z</time>
      </trkpt>
      <trkpt lat="50.79965" lon="2.50968">
        <ele>117.2</ele>
        <time>2023-08-05T11:07:43Z</time>
      </trkpt>
      <trkpt lat="50.79969" lon="2.50972">
        <ele>117.4</ele>
        <time>2023-08-05T11:07:44Z</time>
      </trkpt>
      <trkpt lat="50.79971" lon="2.50976">
        <ele>117.4</ele>
        <time>2023-08-05T11:07:45Z</time>
      </trkpt>
      <trkpt lat="50.79972" lon="2.50981">
        <ele>117.4</ele>
        <time>2023-08-05T11:07:46Z</time>
      </trkpt>
      <trkpt lat="50.79973" lon="2.50987">
        <ele>117.6</ele>
        <time>2023-08-05T11:07:47Z</time>
      </trkpt>
      <trkpt lat="50.79974" lon="2.50991">
        <ele>117.6</ele>
        <time>2023-08-05T11:07:48Z</time>
      </trkpt>
      <trkpt lat="50.79976" lon="2.50995">
        <ele>117.6</ele>
        <time>2023-08-05T11:07:49Z</time>
      </trkpt>
      <trkpt lat="50.79979" lon="2.50999">
        <ele>117.6</ele>
        <time>2023-08-05T11:07:50Z</time>
      </trkpt>
      <trkpt lat="50.79982" lon="2.50999">
        <ele>117.8</ele>
        <time>2023-08-05T11:07:51Z</time>
      </trkpt>
      <trkpt lat="50.79986" lon="2.51003">
        <ele>117.8</ele>
        <time>2023-08-05T11:07:52Z</time>
      </trkpt>
      <trkpt lat="50.79989" lon="2.51005">
        <ele>118</ele>
        <time>2023-08-05T11:07:53Z</time>
      </trkpt>
      <trkpt lat="50.79991" lon="2.51007">
        <ele>118</ele>
        <time>2023-08-05T11:07:54Z</time>
      </trkpt>
      <trkpt lat="50.79994" lon="2.51004">
        <ele>118</ele>
        <time>2023-08-05T11:07:55Z</time>
      </trkpt>
      <trkpt lat="50.79997" lon="2.51004">
        <ele>118</ele>
        <time>2023-08-05T11:07:56Z</time>
      </trkpt>
      <trkpt lat="50.8" lon="2.51006">
        <ele>118</ele>
        <time>2023-08-05T11:07:57Z</time>
      </trkpt>
      <trkpt lat="50.80014" lon="2.5102">
        <ele>118.4</ele>
        <time>2023-08-05T11:08:01Z</time>
      </trkpt>
      <trkpt lat="50.80025" lon="2.51028">
        <ele>119</ele>
        <time>2023-08-05T11:08:05Z</time>
      </trkpt>
      <trkpt lat="50.80029" lon="2.51029">
        <ele>119</ele>
        <time>2023-08-05T11:08:06Z</time>
      </trkpt>
      <trkpt lat="50.80032" lon="2.5103">
        <ele>119.2</ele>
        <time>2023-08-05T11:08:07Z</time>
      </trkpt>
      <trkpt lat="50.8004" lon="2.51029">
        <ele>119.4</ele>
        <time>2023-08-05T11:08:09Z</time>
      </trkpt>
      <trkpt lat="50.80043" lon="2.51028">
        <ele>119.4</ele>
        <time>2023-08-05T11:08:10Z</time>
      </trkpt>
      <trkpt lat="50.80045" lon="2.51027">
        <ele>119.6</ele>
        <time>2023-08-05T11:08:11Z</time>
      </trkpt>
      <trkpt lat="50.80047" lon="2.51024">
        <ele>119.6</ele>
        <time>2023-08-05T11:08:12Z</time>
      </trkpt>
      <trkpt lat="50.80051" lon="2.51022">
        <ele>119.8</ele>
        <time>2023-08-05T11:08:13Z</time>
      </trkpt>
      <trkpt lat="50.80053" lon="2.51021">
        <ele>120</ele>
        <time>2023-08-05T11:08:14Z</time>
      </trkpt>
      <trkpt lat="50.8006" lon="2.51017">
        <ele>120</ele>
        <time>2023-08-05T11:08:17Z</time>
      </trkpt>
      <trkpt lat="50.80066" lon="2.51014">
        <ele>120.4</ele>
        <time>2023-08-05T11:08:19Z</time>
      </trkpt>
      <trkpt lat="50.8008" lon="2.51017">
        <ele>120.6</ele>
        <time>2023-08-05T11:08:23Z</time>
      </trkpt>
      <trkpt lat="50.80084" lon="2.51019">
        <ele>120.6</ele>
        <time>2023-08-05T11:08:24Z</time>
      </trkpt>
      <trkpt lat="50.80088" lon="2.51023">
        <ele>120.6</ele>
        <time>2023-08-05T11:08:25Z</time>
      </trkpt>
      <trkpt lat="50.80091" lon="2.51026">
        <ele>120.6</ele>
        <time>2023-08-05T11:08:26Z</time>
      </trkpt>
      <trkpt lat="50.80098" lon="2.51035">
        <ele>120.4</ele>
        <time>2023-08-05T11:08:28Z</time>
      </trkpt>
      <trkpt lat="50.80114" lon="2.51052">
        <ele>119.4</ele>
        <time>2023-08-05T11:08:32Z</time>
      </trkpt>
      <trkpt lat="50.80122" lon="2.51063">
        <ele>119.2</ele>
        <time>2023-08-05T11:08:34Z</time>
      </trkpt>
      <trkpt lat="50.80126" lon="2.51068">
        <ele>119.2</ele>
        <time>2023-08-05T11:08:35Z</time>
      </trkpt>
      <trkpt lat="50.80136" lon="2.51084">
        <ele>118.4</ele>
        <time>2023-08-05T11:08:38Z</time>
      </trkpt>
      <trkpt lat="50.80139" lon="2.51091">
        <ele>118</ele>
        <time>2023-08-05T11:08:39Z</time>
      </trkpt>
      <trkpt lat="50.80142" lon="2.51097">
        <ele>117.8</ele>
        <time>2023-08-05T11:08:40Z</time>
      </trkpt>
      <trkpt lat="50.80145" lon="2.51104">
        <ele>117.4</ele>
        <time>2023-08-05T11:08:41Z</time>
      </trkpt>
      <trkpt lat="50.80148" lon="2.5111">
        <ele>117.2</ele>
        <time>2023-08-05T11:08:42Z</time>
      </trkpt>
      <trkpt lat="50.80161" lon="2.51129">
        <ele>117</ele>
        <time>2023-08-05T11:08:46Z</time>
      </trkpt>
      <trkpt lat="50.80164" lon="2.51133">
        <ele>116.8</ele>
        <time>2023-08-05T11:08:47Z</time>
      </trkpt>
      <trkpt lat="50.8017" lon="2.51141">
        <ele>116.8</ele>
        <time>2023-08-05T11:08:49Z</time>
      </trkpt>
      <trkpt lat="50.80173" lon="2.51144">
        <ele>116.8</ele>
        <time>2023-08-05T11:08:50Z</time>
      </trkpt>
      <trkpt lat="50.80176" lon="2.51147">
        <ele>116.6</ele>
        <time>2023-08-05T11:08:51Z</time>
      </trkpt>
      <trkpt lat="50.80179" lon="2.51149">
        <ele>116.6</ele>
        <time>2023-08-05T11:08:52Z</time>
      </trkpt>
      <trkpt lat="50.80182" lon="2.51151">
        <ele>116.8</ele>
        <time>2023-08-05T11:08:53Z</time>
      </trkpt>
      <trkpt lat="50.80189" lon="2.51154">
        <ele>116.8</ele>
        <time>2023-08-05T11:08:55Z</time>
      </trkpt>
      <trkpt lat="50.80192" lon="2.51155">
        <ele>116.8</ele>
        <time>2023-08-05T11:08:56Z</time>
      </trkpt>
      <trkpt lat="50.80195" lon="2.51157">
        <ele>116.8</ele>
        <time>2023-08-05T11:08:57Z</time>
      </trkpt>
      <trkpt lat="50.80198" lon="2.51159">
        <ele>116.8</ele>
        <time>2023-08-05T11:08:58Z</time>
      </trkpt>
      <trkpt lat="50.802" lon="2.51161">
        <ele>116.8</ele>
        <time>2023-08-05T11:08:59Z</time>
      </trkpt>
      <trkpt lat="50.80203" lon="2.51162">
        <ele>116.8</ele>
        <time>2023-08-05T11:09:00Z</time>
      </trkpt>
      <trkpt lat="50.80205" lon="2.51163">
        <ele>116.8</ele>
        <time>2023-08-05T11:09:01Z</time>
      </trkpt>
      <trkpt lat="50.80208" lon="2.51164">
        <ele>116.8</ele>
        <time>2023-08-05T11:09:02Z</time>
      </trkpt>
      <trkpt lat="50.80211" lon="2.51165">
        <ele>117</ele>
        <time>2023-08-05T11:09:03Z</time>
      </trkpt>
      <trkpt lat="50.80214" lon="2.51167">
        <ele>117</ele>
        <time>2023-08-05T11:09:04Z</time>
      </trkpt>
      <trkpt lat="50.80228" lon="2.51178">
        <ele>117.2</ele>
        <time>2023-08-05T11:09:08Z</time>
      </trkpt>
      <trkpt lat="50.80235" lon="2.51189">
        <ele>117</ele>
        <time>2023-08-05T11:09:10Z</time>
      </trkpt>
      <trkpt lat="50.80237" lon="2.51193">
        <ele>117</ele>
        <time>2023-08-05T11:09:11Z</time>
      </trkpt>
      <trkpt lat="50.8024" lon="2.51198">
        <ele>117</ele>
        <time>2023-08-05T11:09:12Z</time>
      </trkpt>
      <trkpt lat="50.80242" lon="2.51203">
        <ele>117</ele>
        <time>2023-08-05T11:09:13Z</time>
      </trkpt>
      <trkpt lat="50.80244" lon="2.51208">
        <ele>116.8</ele>
        <time>2023-08-05T11:09:14Z</time>
      </trkpt>
      <trkpt lat="50.80246" lon="2.51212">
        <ele>116.6</ele>
        <time>2023-08-05T11:09:15Z</time>
      </trkpt>
      <trkpt lat="50.80248" lon="2.51216">
        <ele>116.4</ele>
        <time>2023-08-05T11:09:16Z</time>
      </trkpt>
      <trkpt lat="50.80249" lon="2.5122">
        <ele>116.2</ele>
        <time>2023-08-05T11:09:17Z</time>
      </trkpt>
      <trkpt lat="50.8025" lon="2.51225">
        <ele>115.8</ele>
        <time>2023-08-05T11:09:18Z</time>
      </trkpt>
      <trkpt lat="50.80251" lon="2.5123">
        <ele>115.8</ele>
        <time>2023-08-05T11:09:19Z</time>
      </trkpt>
      <trkpt lat="50.80253" lon="2.51242">
        <ele>115.4</ele>
        <time>2023-08-05T11:09:21Z</time>
      </trkpt>
      <trkpt lat="50.80258" lon="2.51256">
        <ele>115.2</ele>
        <time>2023-08-05T11:09:23Z</time>
      </trkpt>
      <trkpt lat="50.80261" lon="2.51265">
        <ele>115</ele>
        <time>2023-08-05T11:09:24Z</time>
      </trkpt>
      <trkpt lat="50.80264" lon="2.51272">
        <ele>114.8</ele>
        <time>2023-08-05T11:09:25Z</time>
      </trkpt>
      <trkpt lat="50.80273" lon="2.51289">
        <ele>114</ele>
        <time>2023-08-05T11:09:27Z</time>
      </trkpt>
      <trkpt lat="50.80278" lon="2.51298">
        <ele>113.6</ele>
        <time>2023-08-05T11:09:28Z</time>
      </trkpt>
      <trkpt lat="50.80282" lon="2.51307">
        <ele>113.4</ele>
        <time>2023-08-05T11:09:29Z</time>
      </trkpt>
      <trkpt lat="50.80285" lon="2.51316">
        <ele>113</ele>
        <time>2023-08-05T11:09:30Z</time>
      </trkpt>
      <trkpt lat="50.80289" lon="2.51323">
        <ele>113</ele>
        <time>2023-08-05T11:09:31Z</time>
      </trkpt>
      <trkpt lat="50.80292" lon="2.51331">
        <ele>112.2</ele>
        <time>2023-08-05T11:09:32Z</time>
      </trkpt>
      <trkpt lat="50.80296" lon="2.51341">
        <ele>111.8</ele>
        <time>2023-08-05T11:09:33Z</time>
      </trkpt>
      <trkpt lat="50.80302" lon="2.51369">
        <ele>110.4</ele>
        <time>2023-08-05T11:09:36Z</time>
      </trkpt>
      <trkpt lat="50.80307" lon="2.51391">
        <ele>109.8</ele>
        <time>2023-08-05T11:09:38Z</time>
      </trkpt>
      <trkpt lat="50.80311" lon="2.51401">
        <ele>109.2</ele>
        <time>2023-08-05T11:09:39Z</time>
      </trkpt>
      <trkpt lat="50.80315" lon="2.5142">
        <ele>108.4</ele>
        <time>2023-08-05T11:09:41Z</time>
      </trkpt>
      <trkpt lat="50.8032" lon="2.51443">
        <ele>107.8</ele>
        <time>2023-08-05T11:09:43Z</time>
      </trkpt>
      <trkpt lat="50.80324" lon="2.51461">
        <ele>107</ele>
        <time>2023-08-05T11:09:45Z</time>
      </trkpt>
      <trkpt lat="50.80326" lon="2.5147">
        <ele>106.4</ele>
        <time>2023-08-05T11:09:46Z</time>
      </trkpt>
      <trkpt lat="50.80329" lon="2.5148">
        <ele>106.2</ele>
        <time>2023-08-05T11:09:47Z</time>
      </trkpt>
      <trkpt lat="50.80334" lon="2.515">
        <ele>105.6</ele>
        <time>2023-08-05T11:09:49Z</time>
      </trkpt>
      <trkpt lat="50.80336" lon="2.5151">
        <ele>105</ele>
        <time>2023-08-05T11:09:50Z</time>
      </trkpt>
      <trkpt lat="50.80341" lon="2.5153">
        <ele>104</ele>
        <time>2023-08-05T11:09:52Z</time>
      </trkpt>
      <trkpt lat="50.80346" lon="2.51549">
        <ele>103.2</ele>
        <time>2023-08-05T11:09:54Z</time>
      </trkpt>
      <trkpt lat="50.80348" lon="2.51558">
        <ele>102.6</ele>
        <time>2023-08-05T11:09:55Z</time>
      </trkpt>
      <trkpt lat="50.80352" lon="2.51575">
        <ele>101.8</ele>
        <time>2023-08-05T11:09:57Z</time>
      </trkpt>
      <trkpt lat="50.80354" lon="2.51585">
        <ele>101.2</ele>
        <time>2023-08-05T11:09:58Z</time>
      </trkpt>
      <trkpt lat="50.80356" lon="2.51592">
        <ele>100.6</ele>
        <time>2023-08-05T11:09:59Z</time>
      </trkpt>
      <trkpt lat="50.80358" lon="2.51598">
        <ele>100.2</ele>
        <time>2023-08-05T11:10:00Z</time>
      </trkpt>
      <trkpt lat="50.80359" lon="2.51603">
        <ele>100</ele>
        <time>2023-08-05T11:10:01Z</time>
      </trkpt>
      <trkpt lat="50.8036" lon="2.51608">
        <ele>99.4</ele>
        <time>2023-08-05T11:10:02Z</time>
      </trkpt>
      <trkpt lat="50.8036" lon="2.51612">
        <ele>99.2</ele>
        <time>2023-08-05T11:10:03Z</time>
      </trkpt>
      <trkpt lat="50.80358" lon="2.51615">
        <ele>98.8</ele>
        <time>2023-08-05T11:10:04Z</time>
      </trkpt>
      <trkpt lat="50.80356" lon="2.51617">
        <ele>98.6</ele>
        <time>2023-08-05T11:10:05Z</time>
      </trkpt>
      <trkpt lat="50.80355" lon="2.51618">
        <ele>98</ele>
        <time>2023-08-05T11:10:06Z</time>
      </trkpt>
      <trkpt lat="50.80351" lon="2.5162">
        <ele>97.6</ele>
        <time>2023-08-05T11:10:07Z</time>
      </trkpt>
      <trkpt lat="50.80344" lon="2.51623">
        <ele>97</ele>
        <time>2023-08-05T11:10:10Z</time>
      </trkpt>
      <trkpt lat="50.80334" lon="2.51628">
        <ele>96.8</ele>
        <time>2023-08-05T11:10:13Z</time>
      </trkpt>
      <trkpt lat="50.80325" lon="2.51635">
        <ele>96.6</ele>
        <time>2023-08-05T11:10:16Z</time>
      </trkpt>
      <trkpt lat="50.80323" lon="2.51638">
        <ele>96.6</ele>
        <time>2023-08-05T11:10:17Z</time>
      </trkpt>
      <trkpt lat="50.80322" lon="2.51642">
        <ele>96.2</ele>
        <time>2023-08-05T11:10:18Z</time>
      </trkpt>
      <trkpt lat="50.80322" lon="2.51646">
        <ele>96.2</ele>
        <time>2023-08-05T11:10:19Z</time>
      </trkpt>
      <trkpt lat="50.80322" lon="2.51648">
        <ele>96</ele>
        <time>2023-08-05T11:10:20Z</time>
      </trkpt>
      <trkpt lat="50.80322" lon="2.5165">
        <ele>96</ele>
        <time>2023-08-05T11:10:21Z</time>
      </trkpt>
      <trkpt lat="50.80323" lon="2.51652">
        <ele>95.8</ele>
        <time>2023-08-05T11:10:22Z</time>
      </trkpt>
      <trkpt lat="50.80324" lon="2.51654">
        <ele>95.6</ele>
        <time>2023-08-05T11:10:23Z</time>
      </trkpt>
      <trkpt lat="50.80324" lon="2.51655">
        <ele>95.6</ele>
        <time>2023-08-05T11:10:24Z</time>
      </trkpt>
      <trkpt lat="50.80324" lon="2.51656">
        <ele>95.4</ele>
        <time>2023-08-05T11:10:25Z</time>
      </trkpt>
      <trkpt lat="50.80324" lon="2.51657">
        <ele>95.4</ele>
        <time>2023-08-05T11:10:26Z</time>
      </trkpt>
      <trkpt lat="50.80323" lon="2.51658">
        <ele>95.2</ele>
        <time>2023-08-05T11:10:27Z</time>
      </trkpt>
      <trkpt lat="50.80323" lon="2.51659">
        <ele>95</ele>
        <time>2023-08-05T11:10:28Z</time>
      </trkpt>
      <trkpt lat="50.80323" lon="2.5166">
        <ele>95</ele>
        <time>2023-08-05T11:10:29Z</time>
      </trkpt>
      <trkpt lat="50.80323" lon="2.51659">
        <ele>94.8</ele>
        <time>2023-08-05T11:10:30Z</time>
      </trkpt>
      <trkpt lat="50.80323" lon="2.51658">
        <ele>94.8</ele>
        <time>2023-08-05T11:10:31Z</time>
      </trkpt>
      <trkpt lat="50.80323" lon="2.51656">
        <ele>94.8</ele>
        <time>2023-08-05T11:10:32Z</time>
      </trkpt>
      <trkpt lat="50.80322" lon="2.51649">
        <ele>94.6</ele>
        <time>2023-08-05T11:10:35Z</time>
      </trkpt>
      <trkpt lat="50.80321" lon="2.51647">
        <ele>94.6</ele>
        <time>2023-08-05T11:10:36Z</time>
      </trkpt>
      <trkpt lat="50.80321" lon="2.51644">
        <ele>94.6</ele>
        <time>2023-08-05T11:10:37Z</time>
      </trkpt>
      <trkpt lat="50.80319" lon="2.51641">
        <ele>94.6</ele>
        <time>2023-08-05T11:10:38Z</time>
      </trkpt>
      <trkpt lat="50.80318" lon="2.51639">
        <ele>94.6</ele>
        <time>2023-08-05T11:10:39Z</time>
      </trkpt>
      <trkpt lat="50.80316" lon="2.51639">
        <ele>94.6</ele>
        <time>2023-08-05T11:10:40Z</time>
      </trkpt>
      <trkpt lat="50.80314" lon="2.51639">
        <ele>94.6</ele>
        <time>2023-08-05T11:10:41Z</time>
      </trkpt>
      <trkpt lat="50.80307" lon="2.51639">
        <ele>94.6</ele>
        <time>2023-08-05T11:10:43Z</time>
      </trkpt>
      <trkpt lat="50.80306" lon="2.5164">
        <ele>94.6</ele>
        <time>2023-08-05T11:10:44Z</time>
      </trkpt>
      <trkpt lat="50.80304" lon="2.51641">
        <ele>94.6</ele>
        <time>2023-08-05T11:10:45Z</time>
      </trkpt>
      <trkpt lat="50.80303" lon="2.51642">
        <ele>94.4</ele>
        <time>2023-08-05T11:10:46Z</time>
      </trkpt>
      <trkpt lat="50.80301" lon="2.51643">
        <ele>94.4</ele>
        <time>2023-08-05T11:10:47Z</time>
      </trkpt>
      <trkpt lat="50.80299" lon="2.51644">
        <ele>94.2</ele>
        <time>2023-08-05T11:10:48Z</time>
      </trkpt>
      <trkpt lat="50.80298" lon="2.51643">
        <ele>94</ele>
        <time>2023-08-05T11:10:49Z</time>
      </trkpt>
      <trkpt lat="50.80296" lon="2.51642">
        <ele>93.8</ele>
        <time>2023-08-05T11:10:50Z</time>
      </trkpt>
      <trkpt lat="50.80294" lon="2.51643">
        <ele>93.8</ele>
        <time>2023-08-05T11:10:51Z</time>
      </trkpt>
      <trkpt lat="50.80294" lon="2.51644">
        <ele>93.8</ele>
        <time>2023-08-05T11:10:52Z</time>
      </trkpt>
      <trkpt lat="50.80294" lon="2.51646">
        <ele>93.8</ele>
        <time>2023-08-05T11:10:53Z</time>
      </trkpt>
      <trkpt lat="50.80295" lon="2.51648">
        <ele>93.6</ele>
        <time>2023-08-05T11:10:54Z</time>
      </trkpt>
      <trkpt lat="50.80296" lon="2.51647">
        <ele>93.6</ele>
        <time>2023-08-05T11:10:55Z</time>
      </trkpt>
      <trkpt lat="50.80297" lon="2.51646">
        <ele>93.6</ele>
        <time>2023-08-05T11:10:56Z</time>
      </trkpt>
      <trkpt lat="50.80298" lon="2.51644">
        <ele>93.6</ele>
        <time>2023-08-05T11:10:57Z</time>
      </trkpt>
      <trkpt lat="50.80302" lon="2.5164">
        <ele>93.6</ele>
        <time>2023-08-05T11:11:00Z</time>
      </trkpt>
      <trkpt lat="50.80303" lon="2.5164">
        <ele>93.6</ele>
        <time>2023-08-05T11:11:01Z</time>
      </trkpt>
      <trkpt lat="50.80304" lon="2.51641">
        <ele>93.6</ele>
        <time>2023-08-05T11:11:02Z</time>
      </trkpt>
      <trkpt lat="50.80305" lon="2.51642">
        <ele>93.4</ele>
        <time>2023-08-05T11:11:03Z</time>
      </trkpt>
      <trkpt lat="50.80304" lon="2.51649">
        <ele>93.4</ele>
        <time>2023-08-05T11:11:06Z</time>
      </trkpt>
      <trkpt lat="50.80301" lon="2.51665">
        <ele>93.4</ele>
        <time>2023-08-05T11:11:09Z</time>
      </trkpt>
      <trkpt lat="50.80298" lon="2.51677">
        <ele>93</ele>
        <time>2023-08-05T11:11:11Z</time>
      </trkpt>
      <trkpt lat="50.80295" lon="2.51691">
        <ele>92.4</ele>
        <time>2023-08-05T11:11:13Z</time>
      </trkpt>
      <trkpt lat="50.80293" lon="2.51698">
        <ele>92.2</ele>
        <time>2023-08-05T11:11:14Z</time>
      </trkpt>
      <trkpt lat="50.80291" lon="2.51707">
        <ele>91.6</ele>
        <time>2023-08-05T11:11:15Z</time>
      </trkpt>
      <trkpt lat="50.80289" lon="2.51715">
        <ele>91.2</ele>
        <time>2023-08-05T11:11:16Z</time>
      </trkpt>
      <trkpt lat="50.80283" lon="2.51738">
        <ele>90.6</ele>
        <time>2023-08-05T11:11:19Z</time>
      </trkpt>
      <trkpt lat="50.80282" lon="2.51746">
        <ele>90.4</ele>
        <time>2023-08-05T11:11:20Z</time>
      </trkpt>
      <trkpt lat="50.80281" lon="2.51754">
        <ele>90.2</ele>
        <time>2023-08-05T11:11:21Z</time>
      </trkpt>
      <trkpt lat="50.8028" lon="2.51761">
        <ele>89.6</ele>
        <time>2023-08-05T11:11:22Z</time>
      </trkpt>
      <trkpt lat="50.80278" lon="2.51775">
        <ele>89.2</ele>
        <time>2023-08-05T11:11:24Z</time>
      </trkpt>
      <trkpt lat="50.80277" lon="2.51781">
        <ele>89</ele>
        <time>2023-08-05T11:11:25Z</time>
      </trkpt>
      <trkpt lat="50.80278" lon="2.51785">
        <ele>89</ele>
        <time>2023-08-05T11:11:26Z</time>
      </trkpt>
      <trkpt lat="50.8028" lon="2.51791">
        <ele>88.8</ele>
        <time>2023-08-05T11:11:27Z</time>
      </trkpt>
      <trkpt lat="50.80281" lon="2.51797">
        <ele>88.8</ele>
        <time>2023-08-05T11:11:28Z</time>
      </trkpt>
      <trkpt lat="50.80282" lon="2.51805">
        <ele>88.6</ele>
        <time>2023-08-05T11:11:29Z</time>
      </trkpt>
      <trkpt lat="50.80282" lon="2.51813">
        <ele>88.6</ele>
        <time>2023-08-05T11:11:30Z</time>
      </trkpt>
      <trkpt lat="50.80282" lon="2.51819">
        <ele>88.4</ele>
        <time>2023-08-05T11:11:31Z</time>
      </trkpt>
      <trkpt lat="50.80291" lon="2.51869">
        <ele>87.8</ele>
        <time>2023-08-05T11:11:37Z</time>
      </trkpt>
      <trkpt lat="50.80296" lon="2.51887">
        <ele>87.6</ele>
        <time>2023-08-05T11:11:39Z</time>
      </trkpt>
      <trkpt lat="50.80305" lon="2.51928">
        <ele>86.8</ele>
        <time>2023-08-05T11:11:44Z</time>
      </trkpt>
      <trkpt lat="50.80306" lon="2.51936">
        <ele>86.4</ele>
        <time>2023-08-05T11:11:45Z</time>
      </trkpt>
      <trkpt lat="50.80314" lon="2.51972">
        <ele>85.6</ele>
        <time>2023-08-05T11:11:50Z</time>
      </trkpt>
      <trkpt lat="50.80314" lon="2.51979">
        <ele>85.6</ele>
        <time>2023-08-05T11:11:51Z</time>
      </trkpt>
      <trkpt lat="50.80316" lon="2.51996">
        <ele>85.4</ele>
        <time>2023-08-05T11:11:53Z</time>
      </trkpt>
      <trkpt lat="50.80318" lon="2.52016">
        <ele>84.8</ele>
        <time>2023-08-05T11:11:55Z</time>
      </trkpt>
      <trkpt lat="50.80315" lon="2.52032">
        <ele>84.4</ele>
        <time>2023-08-05T11:11:57Z</time>
      </trkpt>
      <trkpt lat="50.80312" lon="2.52041">
        <ele>84</ele>
        <time>2023-08-05T11:11:58Z</time>
      </trkpt>
      <trkpt lat="50.80308" lon="2.52052">
        <ele>83.8</ele>
        <time>2023-08-05T11:11:59Z</time>
      </trkpt>
      <trkpt lat="50.80305" lon="2.5206">
        <ele>83.6</ele>
        <time>2023-08-05T11:12:00Z</time>
      </trkpt>
      <trkpt lat="50.80301" lon="2.52069">
        <ele>83.4</ele>
        <time>2023-08-05T11:12:01Z</time>
      </trkpt>
      <trkpt lat="50.80295" lon="2.52085">
        <ele>83</ele>
        <time>2023-08-05T11:12:03Z</time>
      </trkpt>
      <trkpt lat="50.80292" lon="2.52097">
        <ele>82.6</ele>
        <time>2023-08-05T11:12:04Z</time>
      </trkpt>
      <trkpt lat="50.80288" lon="2.52119">
        <ele>82</ele>
        <time>2023-08-05T11:12:06Z</time>
      </trkpt>
      <trkpt lat="50.80286" lon="2.52141">
        <ele>81</ele>
        <time>2023-08-05T11:12:08Z</time>
      </trkpt>
      <trkpt lat="50.80285" lon="2.52155">
        <ele>80.8</ele>
        <time>2023-08-05T11:12:09Z</time>
      </trkpt>
      <trkpt lat="50.80282" lon="2.52193">
        <ele>79.6</ele>
        <time>2023-08-05T11:12:12Z</time>
      </trkpt>
      <trkpt lat="50.80282" lon="2.52203">
        <ele>78.6</ele>
        <time>2023-08-05T11:12:13Z</time>
      </trkpt>
      <trkpt lat="50.80281" lon="2.52218">
        <ele>78.2</ele>
        <time>2023-08-05T11:12:14Z</time>
      </trkpt>
      <trkpt lat="50.8028" lon="2.52231">
        <ele>77.6</ele>
        <time>2023-08-05T11:12:15Z</time>
      </trkpt>
      <trkpt lat="50.80279" lon="2.52243">
        <ele>77.2</ele>
        <time>2023-08-05T11:12:16Z</time>
      </trkpt>
      <trkpt lat="50.80278" lon="2.52294">
        <ele>76</ele>
        <time>2023-08-05T11:12:20Z</time>
      </trkpt>
      <trkpt lat="50.80277" lon="2.52356">
        <ele>75.4</ele>
        <time>2023-08-05T11:12:25Z</time>
      </trkpt>
      <trkpt lat="50.80278" lon="2.52368">
        <ele>75.4</ele>
        <time>2023-08-05T11:12:26Z</time>
      </trkpt>
      <trkpt lat="50.80279" lon="2.52392">
        <ele>75.2</ele>
        <time>2023-08-05T11:12:28Z</time>
      </trkpt>
      <trkpt lat="50.80279" lon="2.52404">
        <ele>74.8</ele>
        <time>2023-08-05T11:12:29Z</time>
      </trkpt>
      <trkpt lat="50.80279" lon="2.52416">
        <ele>75</ele>
        <time>2023-08-05T11:12:30Z</time>
      </trkpt>
      <trkpt lat="50.8028" lon="2.52428">
        <ele>75</ele>
        <time>2023-08-05T11:12:31Z</time>
      </trkpt>
      <trkpt lat="50.80281" lon="2.52463">
        <ele>74.4</ele>
        <time>2023-08-05T11:12:34Z</time>
      </trkpt>
      <trkpt lat="50.80282" lon="2.52475">
        <ele>74.4</ele>
        <time>2023-08-05T11:12:35Z</time>
      </trkpt>
      <trkpt lat="50.80282" lon="2.52486">
        <ele>74.4</ele>
        <time>2023-08-05T11:12:36Z</time>
      </trkpt>
      <trkpt lat="50.80283" lon="2.52497">
        <ele>74.4</ele>
        <time>2023-08-05T11:12:37Z</time>
      </trkpt>
      <trkpt lat="50.80285" lon="2.52529">
        <ele>74.4</ele>
        <time>2023-08-05T11:12:40Z</time>
      </trkpt>
      <trkpt lat="50.80286" lon="2.52539">
        <ele>74.4</ele>
        <time>2023-08-05T11:12:41Z</time>
      </trkpt>
      <trkpt lat="50.80287" lon="2.52549">
        <ele>74.4</ele>
        <time>2023-08-05T11:12:42Z</time>
      </trkpt>
      <trkpt lat="50.80283" lon="2.52568">
        <ele>74.4</ele>
        <time>2023-08-05T11:12:44Z</time>
      </trkpt>
      <trkpt lat="50.80279" lon="2.52575">
        <ele>74.4</ele>
        <time>2023-08-05T11:12:45Z</time>
      </trkpt>
      <trkpt lat="50.80274" lon="2.52582">
        <ele>74.6</ele>
        <time>2023-08-05T11:12:46Z</time>
      </trkpt>
      <trkpt lat="50.80269" lon="2.52587">
        <ele>74.6</ele>
        <time>2023-08-05T11:12:47Z</time>
      </trkpt>
      <trkpt lat="50.80264" lon="2.52593">
        <ele>74.6</ele>
        <time>2023-08-05T11:12:48Z</time>
      </trkpt>
      <trkpt lat="50.80258" lon="2.526">
        <ele>74.6</ele>
        <time>2023-08-05T11:12:49Z</time>
      </trkpt>
      <trkpt lat="50.80248" lon="2.52615">
        <ele>75</ele>
        <time>2023-08-05T11:12:51Z</time>
      </trkpt>
      <trkpt lat="50.80244" lon="2.52623">
        <ele>75.2</ele>
        <time>2023-08-05T11:12:52Z</time>
      </trkpt>
      <trkpt lat="50.8022" lon="2.52692">
        <ele>75.4</ele>
        <time>2023-08-05T11:12:59Z</time>
      </trkpt>
      <trkpt lat="50.80205" lon="2.52766">
        <ele>75.6</ele>
        <time>2023-08-05T11:13:06Z</time>
      </trkpt>
      <trkpt lat="50.80199" lon="2.52795">
        <ele>75.6</ele>
        <time>2023-08-05T11:13:09Z</time>
      </trkpt>
      <trkpt lat="50.80196" lon="2.52804">
        <ele>75.6</ele>
        <time>2023-08-05T11:13:10Z</time>
      </trkpt>
      <trkpt lat="50.80194" lon="2.52814">
        <ele>75.6</ele>
        <time>2023-08-05T11:13:11Z</time>
      </trkpt>
      <trkpt lat="50.80191" lon="2.52823">
        <ele>75.6</ele>
        <time>2023-08-05T11:13:12Z</time>
      </trkpt>
      <trkpt lat="50.80189" lon="2.52833">
        <ele>75.4</ele>
        <time>2023-08-05T11:13:13Z</time>
      </trkpt>
      <trkpt lat="50.80187" lon="2.52842">
        <ele>75.4</ele>
        <time>2023-08-05T11:13:14Z</time>
      </trkpt>
      <trkpt lat="50.80185" lon="2.52851">
        <ele>75.4</ele>
        <time>2023-08-05T11:13:15Z</time>
      </trkpt>
      <trkpt lat="50.80185" lon="2.5286">
        <ele>75.4</ele>
        <time>2023-08-05T11:13:16Z</time>
      </trkpt>
      <trkpt lat="50.80185" lon="2.52869">
        <ele>75.4</ele>
        <time>2023-08-05T11:13:17Z</time>
      </trkpt>
      <trkpt lat="50.80185" lon="2.52879">
        <ele>75.4</ele>
        <time>2023-08-05T11:13:18Z</time>
      </trkpt>
      <trkpt lat="50.80186" lon="2.52888">
        <ele>75.4</ele>
        <time>2023-08-05T11:13:19Z</time>
      </trkpt>
      <trkpt lat="50.80186" lon="2.52898">
        <ele>75.4</ele>
        <time>2023-08-05T11:13:20Z</time>
      </trkpt>
      <trkpt lat="50.80186" lon="2.52907">
        <ele>75.4</ele>
        <time>2023-08-05T11:13:21Z</time>
      </trkpt>
      <trkpt lat="50.80186" lon="2.52917">
        <ele>75.6</ele>
        <time>2023-08-05T11:13:22Z</time>
      </trkpt>
      <trkpt lat="50.80185" lon="2.52926">
        <ele>75.4</ele>
        <time>2023-08-05T11:13:23Z</time>
      </trkpt>
      <trkpt lat="50.80183" lon="2.52943">
        <ele>75.8</ele>
        <time>2023-08-05T11:13:25Z</time>
      </trkpt>
      <trkpt lat="50.80182" lon="2.52951">
        <ele>75.8</ele>
        <time>2023-08-05T11:13:26Z</time>
      </trkpt>
      <trkpt lat="50.8018" lon="2.5296">
        <ele>75.8</ele>
        <time>2023-08-05T11:13:27Z</time>
      </trkpt>
      <trkpt lat="50.80178" lon="2.52968">
        <ele>75.8</ele>
        <time>2023-08-05T11:13:28Z</time>
      </trkpt>
      <trkpt lat="50.80176" lon="2.52976">
        <ele>75.8</ele>
        <time>2023-08-05T11:13:29Z</time>
      </trkpt>
      <trkpt lat="50.80174" lon="2.52984">
        <ele>75.8</ele>
        <time>2023-08-05T11:13:30Z</time>
      </trkpt>
      <trkpt lat="50.80172" lon="2.52992">
        <ele>75.8</ele>
        <time>2023-08-05T11:13:31Z</time>
      </trkpt>
      <trkpt lat="50.80169" lon="2.53">
        <ele>75.8</ele>
        <time>2023-08-05T11:13:32Z</time>
      </trkpt>
      <trkpt lat="50.80167" lon="2.53007">
        <ele>75.8</ele>
        <time>2023-08-05T11:13:33Z</time>
      </trkpt>
      <trkpt lat="50.80164" lon="2.53015">
        <ele>76.2</ele>
        <time>2023-08-05T11:13:34Z</time>
      </trkpt>
      <trkpt lat="50.80146" lon="2.5306">
        <ele>76.4</ele>
        <time>2023-08-05T11:13:40Z</time>
      </trkpt>
      <trkpt lat="50.80122" lon="2.53109">
        <ele>76.4</ele>
        <time>2023-08-05T11:13:47Z</time>
      </trkpt>
      <trkpt lat="50.80086" lon="2.5318">
        <ele>75.6</ele>
        <time>2023-08-05T11:13:57Z</time>
      </trkpt>
      <trkpt lat="50.80083" lon="2.53187">
        <ele>75.4</ele>
        <time>2023-08-05T11:13:58Z</time>
      </trkpt>
      <trkpt lat="50.80073" lon="2.53207">
        <ele>75.2</ele>
        <time>2023-08-05T11:14:01Z</time>
      </trkpt>
      <trkpt lat="50.80053" lon="2.53251">
        <ele>74.8</ele>
        <time>2023-08-05T11:14:07Z</time>
      </trkpt>
      <trkpt lat="50.80042" lon="2.53275">
        <ele>74.2</ele>
        <time>2023-08-05T11:14:10Z</time>
      </trkpt>
      <trkpt lat="50.80028" lon="2.53313">
        <ele>73.6</ele>
        <time>2023-08-05T11:14:15Z</time>
      </trkpt>
      <trkpt lat="50.80018" lon="2.53337">
        <ele>73.4</ele>
        <time>2023-08-05T11:14:18Z</time>
      </trkpt>
      <trkpt lat="50.79998" lon="2.53395">
        <ele>72.6</ele>
        <time>2023-08-05T11:14:25Z</time>
      </trkpt>
      <trkpt lat="50.79989" lon="2.53423">
        <ele>72.4</ele>
        <time>2023-08-05T11:14:28Z</time>
      </trkpt>
      <trkpt lat="50.7997" lon="2.53478">
        <ele>71.6</ele>
        <time>2023-08-05T11:14:34Z</time>
      </trkpt>
      <trkpt lat="50.79966" lon="2.53488">
        <ele>71.4</ele>
        <time>2023-08-05T11:14:35Z</time>
      </trkpt>
      <trkpt lat="50.79943" lon="2.53561">
        <ele>70</ele>
        <time>2023-08-05T11:14:43Z</time>
      </trkpt>
      <trkpt lat="50.79941" lon="2.5357">
        <ele>70</ele>
        <time>2023-08-05T11:14:44Z</time>
      </trkpt>
      <trkpt lat="50.79938" lon="2.53578">
        <ele>69.8</ele>
        <time>2023-08-05T11:14:45Z</time>
      </trkpt>
      <trkpt lat="50.79935" lon="2.53585">
        <ele>69.8</ele>
        <time>2023-08-05T11:14:46Z</time>
      </trkpt>
      <trkpt lat="50.79931" lon="2.53592">
        <ele>69.6</ele>
        <time>2023-08-05T11:14:47Z</time>
      </trkpt>
      <trkpt lat="50.79927" lon="2.53597">
        <ele>69.6</ele>
        <time>2023-08-05T11:14:48Z</time>
      </trkpt>
      <trkpt lat="50.79922" lon="2.53602">
        <ele>69.6</ele>
        <time>2023-08-05T11:14:49Z</time>
      </trkpt>
      <trkpt lat="50.79918" lon="2.53606">
        <ele>69.4</ele>
        <time>2023-08-05T11:14:50Z</time>
      </trkpt>
      <trkpt lat="50.79913" lon="2.5361">
        <ele>69.4</ele>
        <time>2023-08-05T11:14:51Z</time>
      </trkpt>
      <trkpt lat="50.79909" lon="2.53615">
        <ele>69.2</ele>
        <time>2023-08-05T11:14:52Z</time>
      </trkpt>
      <trkpt lat="50.79905" lon="2.53619">
        <ele>69.2</ele>
        <time>2023-08-05T11:14:53Z</time>
      </trkpt>
      <trkpt lat="50.79901" lon="2.53623">
        <ele>69</ele>
        <time>2023-08-05T11:14:54Z</time>
      </trkpt>
      <trkpt lat="50.79897" lon="2.53628">
        <ele>68.8</ele>
        <time>2023-08-05T11:14:55Z</time>
      </trkpt>
      <trkpt lat="50.79893" lon="2.53632">
        <ele>68.8</ele>
        <time>2023-08-05T11:14:56Z</time>
      </trkpt>
      <trkpt lat="50.79889" lon="2.53636">
        <ele>68.6</ele>
        <time>2023-08-05T11:14:57Z</time>
      </trkpt>
      <trkpt lat="50.79886" lon="2.5364">
        <ele>68.4</ele>
        <time>2023-08-05T11:14:58Z</time>
      </trkpt>
      <trkpt lat="50.79882" lon="2.53643">
        <ele>68.4</ele>
        <time>2023-08-05T11:14:59Z</time>
      </trkpt>
      <trkpt lat="50.79879" lon="2.53647">
        <ele>68.4</ele>
        <time>2023-08-05T11:15:00Z</time>
      </trkpt>
      <trkpt lat="50.79876" lon="2.53651">
        <ele>68.2</ele>
        <time>2023-08-05T11:15:01Z</time>
      </trkpt>
      <trkpt lat="50.79873" lon="2.53655">
        <ele>68.2</ele>
        <time>2023-08-05T11:15:02Z</time>
      </trkpt>
      <trkpt lat="50.7987" lon="2.5366">
        <ele>68.2</ele>
        <time>2023-08-05T11:15:03Z</time>
      </trkpt>
      <trkpt lat="50.79868" lon="2.53665">
        <ele>68</ele>
        <time>2023-08-05T11:15:04Z</time>
      </trkpt>
      <trkpt lat="50.79866" lon="2.53671">
        <ele>68</ele>
        <time>2023-08-05T11:15:05Z</time>
      </trkpt>
      <trkpt lat="50.79865" lon="2.53676">
        <ele>68</ele>
        <time>2023-08-05T11:15:06Z</time>
      </trkpt>
      <trkpt lat="50.79865" lon="2.53683">
        <ele>68</ele>
        <time>2023-08-05T11:15:07Z</time>
      </trkpt>
      <trkpt lat="50.79866" lon="2.53689">
        <ele>67.8</ele>
        <time>2023-08-05T11:15:08Z</time>
      </trkpt>
      <trkpt lat="50.79867" lon="2.53695">
        <ele>67.8</ele>
        <time>2023-08-05T11:15:09Z</time>
      </trkpt>
      <trkpt lat="50.79868" lon="2.53702">
        <ele>67.6</ele>
        <time>2023-08-05T11:15:10Z</time>
      </trkpt>
      <trkpt lat="50.79869" lon="2.53709">
        <ele>67.6</ele>
        <time>2023-08-05T11:15:11Z</time>
      </trkpt>
      <trkpt lat="50.79872" lon="2.53724">
        <ele>67.4</ele>
        <time>2023-08-05T11:15:13Z</time>
      </trkpt>
      <trkpt lat="50.79874" lon="2.53752">
        <ele>67.2</ele>
        <time>2023-08-05T11:15:17Z</time>
      </trkpt>
      <trkpt lat="50.79875" lon="2.53759">
        <ele>67</ele>
        <time>2023-08-05T11:15:18Z</time>
      </trkpt>
      <trkpt lat="50.7988" lon="2.5379">
        <ele>66.6</ele>
        <time>2023-08-05T11:15:22Z</time>
      </trkpt>
      <trkpt lat="50.79884" lon="2.53821">
        <ele>66.2</ele>
        <time>2023-08-05T11:15:26Z</time>
      </trkpt>
      <trkpt lat="50.79885" lon="2.53828">
        <ele>66</ele>
        <time>2023-08-05T11:15:27Z</time>
      </trkpt>
      <trkpt lat="50.79891" lon="2.53842">
        <ele>65.8</ele>
        <time>2023-08-05T11:15:29Z</time>
      </trkpt>
      <trkpt lat="50.79895" lon="2.53847">
        <ele>65.8</ele>
        <time>2023-08-05T11:15:30Z</time>
      </trkpt>
      <trkpt lat="50.79899" lon="2.53852">
        <ele>65.8</ele>
        <time>2023-08-05T11:15:31Z</time>
      </trkpt>
      <trkpt lat="50.79902" lon="2.53857">
        <ele>65.6</ele>
        <time>2023-08-05T11:15:32Z</time>
      </trkpt>
      <trkpt lat="50.79906" lon="2.53863">
        <ele>65.6</ele>
        <time>2023-08-05T11:15:33Z</time>
      </trkpt>
      <trkpt lat="50.79913" lon="2.53878">
        <ele>65.4</ele>
        <time>2023-08-05T11:15:35Z</time>
      </trkpt>
      <trkpt lat="50.79916" lon="2.53896">
        <ele>65.2</ele>
        <time>2023-08-05T11:15:37Z</time>
      </trkpt>
      <trkpt lat="50.79917" lon="2.53904">
        <ele>65</ele>
        <time>2023-08-05T11:15:38Z</time>
      </trkpt>
      <trkpt lat="50.79918" lon="2.53913">
        <ele>65</ele>
        <time>2023-08-05T11:15:39Z</time>
      </trkpt>
      <trkpt lat="50.79919" lon="2.53922">
        <ele>64.8</ele>
        <time>2023-08-05T11:15:40Z</time>
      </trkpt>
      <trkpt lat="50.79919" lon="2.53931">
        <ele>64.6</ele>
        <time>2023-08-05T11:15:41Z</time>
      </trkpt>
      <trkpt lat="50.79917" lon="2.53939">
        <ele>64.6</ele>
        <time>2023-08-05T11:15:42Z</time>
      </trkpt>
      <trkpt lat="50.79914" lon="2.53945">
        <ele>64.6</ele>
        <time>2023-08-05T11:15:43Z</time>
      </trkpt>
      <trkpt lat="50.7991" lon="2.5395">
        <ele>64.4</ele>
        <time>2023-08-05T11:15:44Z</time>
      </trkpt>
      <trkpt lat="50.79897" lon="2.5396">
        <ele>64.2</ele>
        <time>2023-08-05T11:15:47Z</time>
      </trkpt>
      <trkpt lat="50.79893" lon="2.53963">
        <ele>64</ele>
        <time>2023-08-05T11:15:48Z</time>
      </trkpt>
      <trkpt lat="50.79889" lon="2.53965">
        <ele>63.8</ele>
        <time>2023-08-05T11:15:49Z</time>
      </trkpt>
      <trkpt lat="50.79885" lon="2.53968">
        <ele>63.6</ele>
        <time>2023-08-05T11:15:50Z</time>
      </trkpt>
      <trkpt lat="50.79877" lon="2.53974">
        <ele>63.4</ele>
        <time>2023-08-05T11:15:52Z</time>
      </trkpt>
      <trkpt lat="50.79874" lon="2.53976">
        <ele>63.2</ele>
        <time>2023-08-05T11:15:53Z</time>
      </trkpt>
      <trkpt lat="50.79871" lon="2.5398">
        <ele>63.2</ele>
        <time>2023-08-05T11:15:54Z</time>
      </trkpt>
      <trkpt lat="50.79868" lon="2.53984">
        <ele>63.2</ele>
        <time>2023-08-05T11:15:55Z</time>
      </trkpt>
      <trkpt lat="50.79866" lon="2.53989">
        <ele>63</ele>
        <time>2023-08-05T11:15:56Z</time>
      </trkpt>
      <trkpt lat="50.79865" lon="2.53995">
        <ele>63</ele>
        <time>2023-08-05T11:15:57Z</time>
      </trkpt>
      <trkpt lat="50.79865" lon="2.54">
        <ele>62.8</ele>
        <time>2023-08-05T11:15:58Z</time>
      </trkpt>
      <trkpt lat="50.79864" lon="2.54006">
        <ele>62.6</ele>
        <time>2023-08-05T11:15:59Z</time>
      </trkpt>
      <trkpt lat="50.79864" lon="2.54013">
        <ele>62.6</ele>
        <time>2023-08-05T11:16:00Z</time>
      </trkpt>
      <trkpt lat="50.79864" lon="2.54019">
        <ele>62.6</ele>
        <time>2023-08-05T11:16:01Z</time>
      </trkpt>
      <trkpt lat="50.79863" lon="2.54024">
        <ele>62.4</ele>
        <time>2023-08-05T11:16:02Z</time>
      </trkpt>
      <trkpt lat="50.79861" lon="2.54036">
        <ele>62.4</ele>
        <time>2023-08-05T11:16:04Z</time>
      </trkpt>
      <trkpt lat="50.79859" lon="2.5404">
        <ele>62.4</ele>
        <time>2023-08-05T11:16:05Z</time>
      </trkpt>
      <trkpt lat="50.79857" lon="2.54043">
        <ele>62.2</ele>
        <time>2023-08-05T11:16:06Z</time>
      </trkpt>
      <trkpt lat="50.79853" lon="2.54045">
        <ele>62.4</ele>
        <time>2023-08-05T11:16:07Z</time>
      </trkpt>
      <trkpt lat="50.7985" lon="2.54047">
        <ele>62.4</ele>
        <time>2023-08-05T11:16:08Z</time>
      </trkpt>
      <trkpt lat="50.79846" lon="2.54048">
        <ele>62.4</ele>
        <time>2023-08-05T11:16:09Z</time>
      </trkpt>
      <trkpt lat="50.79843" lon="2.5405">
        <ele>62.2</ele>
        <time>2023-08-05T11:16:10Z</time>
      </trkpt>
      <trkpt lat="50.7984" lon="2.54052">
        <ele>62.2</ele>
        <time>2023-08-05T11:16:11Z</time>
      </trkpt>
      <trkpt lat="50.79837" lon="2.54054">
        <ele>62.2</ele>
        <time>2023-08-05T11:16:12Z</time>
      </trkpt>
      <trkpt lat="50.79835" lon="2.54055">
        <ele>62.2</ele>
        <time>2023-08-05T11:16:13Z</time>
      </trkpt>
      <trkpt lat="50.79833" lon="2.54056">
        <ele>62.2</ele>
        <time>2023-08-05T11:16:14Z</time>
      </trkpt>
      <trkpt lat="50.79832" lon="2.54059">
        <ele>62.2</ele>
        <time>2023-08-05T11:16:15Z</time>
      </trkpt>
      <trkpt lat="50.79832" lon="2.5406">
        <ele>62.2</ele>
        <time>2023-08-05T11:16:16Z</time>
      </trkpt>
      <trkpt lat="50.79834" lon="2.5406">
        <ele>62.2</ele>
        <time>2023-08-05T11:16:17Z</time>
      </trkpt>
      <trkpt lat="50.79835" lon="2.54058">
        <ele>62.4</ele>
        <time>2023-08-05T11:16:18Z</time>
      </trkpt>
      <trkpt lat="50.79842" lon="2.54053">
        <ele>62.4</ele>
        <time>2023-08-05T11:16:21Z</time>
      </trkpt>
      <trkpt lat="50.79844" lon="2.54051">
        <ele>62.4</ele>
        <time>2023-08-05T11:16:22Z</time>
      </trkpt>
      <trkpt lat="50.79845" lon="2.54048">
        <ele>62.4</ele>
        <time>2023-08-05T11:16:23Z</time>
      </trkpt>
      <trkpt lat="50.79845" lon="2.54046">
        <ele>62.6</ele>
        <time>2023-08-05T11:16:24Z</time>
      </trkpt>
      <trkpt lat="50.79844" lon="2.54045">
        <ele>62.6</ele>
        <time>2023-08-05T11:16:25Z</time>
      </trkpt>
      <trkpt lat="50.79844" lon="2.54044">
        <ele>62.8</ele>
        <time>2023-08-05T11:16:26Z</time>
      </trkpt>
      <trkpt lat="50.79844" lon="2.54044">
        <ele>62.8</ele>
        <time>2023-08-05T11:16:27Z</time>
      </trkpt>
      <trkpt lat="50.79844" lon="2.54044">
        <ele>62.8</ele>
        <time>2023-08-05T11:16:28Z</time>
      </trkpt>
      <trkpt lat="50.79838" lon="2.54049">
        <ele>56.8</ele>
        <time>2023-08-05T11:18:16Z</time>
      </trkpt>
      <trkpt lat="50.79836" lon="2.5405">
        <ele>56.6</ele>
        <time>2023-08-05T11:18:18Z</time>
      </trkpt>
      <trkpt lat="50.79834" lon="2.54051">
        <ele>56.6</ele>
        <time>2023-08-05T11:18:19Z</time>
      </trkpt>
      <trkpt lat="50.79832" lon="2.54052">
        <ele>56.4</ele>
        <time>2023-08-05T11:18:20Z</time>
      </trkpt>
      <trkpt lat="50.7983" lon="2.54054">
        <ele>56.4</ele>
        <time>2023-08-05T11:18:21Z</time>
      </trkpt>
      <trkpt lat="50.79824" lon="2.5406">
        <ele>56.2</ele>
        <time>2023-08-05T11:18:24Z</time>
      </trkpt>
      <trkpt lat="50.79813" lon="2.5407">
        <ele>56</ele>
        <time>2023-08-05T11:18:28Z</time>
      </trkpt>
      <trkpt lat="50.79807" lon="2.54074">
        <ele>56</ele>
        <time>2023-08-05T11:18:30Z</time>
      </trkpt>
      <trkpt lat="50.79786" lon="2.54089">
        <ele>56.2</ele>
        <time>2023-08-05T11:18:36Z</time>
      </trkpt>
      <trkpt lat="50.79761" lon="2.54111">
        <ele>56.6</ele>
        <time>2023-08-05T11:18:43Z</time>
      </trkpt>
      <trkpt lat="50.79736" lon="2.54139">
        <ele>56.6</ele>
        <time>2023-08-05T11:18:50Z</time>
      </trkpt>
      <trkpt lat="50.7971" lon="2.54169">
        <ele>56.6</ele>
        <time>2023-08-05T11:18:57Z</time>
      </trkpt>
      <trkpt lat="50.79706" lon="2.54173">
        <ele>56.6</ele>
        <time>2023-08-05T11:18:58Z</time>
      </trkpt>
      <trkpt lat="50.79677" lon="2.54208">
        <ele>56.6</ele>
        <time>2023-08-05T11:19:06Z</time>
      </trkpt>
      <trkpt lat="50.79634" lon="2.54255">
        <ele>56.4</ele>
        <time>2023-08-05T11:19:17Z</time>
      </trkpt>
      <trkpt lat="50.79587" lon="2.54303">
        <ele>56.4</ele>
        <time>2023-08-05T11:19:28Z</time>
      </trkpt>
      <trkpt lat="50.79567" lon="2.54327">
        <ele>56.4</ele>
        <time>2023-08-05T11:19:33Z</time>
      </trkpt>
      <trkpt lat="50.79563" lon="2.5434">
        <ele>56.2</ele>
        <time>2023-08-05T11:19:35Z</time>
      </trkpt>
      <trkpt lat="50.79561" lon="2.54347">
        <ele>56.2</ele>
        <time>2023-08-05T11:19:36Z</time>
      </trkpt>
      <trkpt lat="50.79561" lon="2.54354">
        <ele>56.2</ele>
        <time>2023-08-05T11:19:37Z</time>
      </trkpt>
      <trkpt lat="50.79561" lon="2.54362">
        <ele>56.2</ele>
        <time>2023-08-05T11:19:38Z</time>
      </trkpt>
      <trkpt lat="50.79563" lon="2.54369">
        <ele>56.2</ele>
        <time>2023-08-05T11:19:39Z</time>
      </trkpt>
      <trkpt lat="50.79564" lon="2.54375">
        <ele>56.2</ele>
        <time>2023-08-05T11:19:40Z</time>
      </trkpt>
      <trkpt lat="50.79565" lon="2.54384">
        <ele>56.2</ele>
        <time>2023-08-05T11:19:41Z</time>
      </trkpt>
      <trkpt lat="50.79571" lon="2.54414">
        <ele>56.2</ele>
        <time>2023-08-05T11:19:45Z</time>
      </trkpt>
      <trkpt lat="50.79574" lon="2.54429">
        <ele>56.2</ele>
        <time>2023-08-05T11:19:47Z</time>
      </trkpt>
      <trkpt lat="50.79577" lon="2.54459">
        <ele>56.2</ele>
        <time>2023-08-05T11:19:51Z</time>
      </trkpt>
      <trkpt lat="50.79577" lon="2.54473">
        <ele>56.2</ele>
        <time>2023-08-05T11:19:53Z</time>
      </trkpt>
      <trkpt lat="50.79576" lon="2.54481">
        <ele>56.2</ele>
        <time>2023-08-05T11:19:54Z</time>
      </trkpt>
      <trkpt lat="50.79576" lon="2.54488">
        <ele>56.2</ele>
        <time>2023-08-05T11:19:55Z</time>
      </trkpt>
      <trkpt lat="50.79573" lon="2.54508">
        <ele>56.2</ele>
        <time>2023-08-05T11:19:58Z</time>
      </trkpt>
      <trkpt lat="50.7957" lon="2.54523">
        <ele>56.2</ele>
        <time>2023-08-05T11:20:00Z</time>
      </trkpt>
      <trkpt lat="50.79569" lon="2.54529">
        <ele>56.2</ele>
        <time>2023-08-05T11:20:01Z</time>
      </trkpt>
      <trkpt lat="50.79565" lon="2.54548">
        <ele>56.2</ele>
        <time>2023-08-05T11:20:04Z</time>
      </trkpt>
      <trkpt lat="50.79563" lon="2.54556">
        <ele>56.2</ele>
        <time>2023-08-05T11:20:05Z</time>
      </trkpt>
      <trkpt lat="50.79562" lon="2.54563">
        <ele>56.2</ele>
        <time>2023-08-05T11:20:06Z</time>
      </trkpt>
      <trkpt lat="50.79558" lon="2.54591">
        <ele>56.2</ele>
        <time>2023-08-05T11:20:10Z</time>
      </trkpt>
      <trkpt lat="50.79556" lon="2.54619">
        <ele>56.4</ele>
        <time>2023-08-05T11:20:14Z</time>
      </trkpt>
      <trkpt lat="50.79557" lon="2.54634">
        <ele>56.4</ele>
        <time>2023-08-05T11:20:16Z</time>
      </trkpt>
      <trkpt lat="50.79568" lon="2.5469">
        <ele>56.8</ele>
        <time>2023-08-05T11:20:24Z</time>
      </trkpt>
      <trkpt lat="50.79579" lon="2.54744">
        <ele>57.6</ele>
        <time>2023-08-05T11:20:31Z</time>
      </trkpt>
      <trkpt lat="50.79581" lon="2.54752">
        <ele>57.6</ele>
        <time>2023-08-05T11:20:32Z</time>
      </trkpt>
      <trkpt lat="50.79594" lon="2.54821">
        <ele>58.6</ele>
        <time>2023-08-05T11:20:40Z</time>
      </trkpt>
      <trkpt lat="50.79611" lon="2.54912">
        <ele>59.6</ele>
        <time>2023-08-05T11:20:50Z</time>
      </trkpt>
      <trkpt lat="50.79612" lon="2.54921">
        <ele>59.6</ele>
        <time>2023-08-05T11:20:51Z</time>
      </trkpt>
      <trkpt lat="50.79629" lon="2.55009">
        <ele>60.6</ele>
        <time>2023-08-05T11:21:01Z</time>
      </trkpt>
      <trkpt lat="50.79631" lon="2.55019">
        <ele>60.8</ele>
        <time>2023-08-05T11:21:02Z</time>
      </trkpt>
      <trkpt lat="50.79637" lon="2.55051">
        <ele>61</ele>
        <time>2023-08-05T11:21:05Z</time>
      </trkpt>
      <trkpt lat="50.7964" lon="2.55061">
        <ele>61</ele>
        <time>2023-08-05T11:21:06Z</time>
      </trkpt>
      <trkpt lat="50.79643" lon="2.5508">
        <ele>61.2</ele>
        <time>2023-08-05T11:21:08Z</time>
      </trkpt>
      <trkpt lat="50.7965" lon="2.55118">
        <ele>61.6</ele>
        <time>2023-08-05T11:21:12Z</time>
      </trkpt>
      <trkpt lat="50.79652" lon="2.55128">
        <ele>61.6</ele>
        <time>2023-08-05T11:21:13Z</time>
      </trkpt>
      <trkpt lat="50.79654" lon="2.55137">
        <ele>61.8</ele>
        <time>2023-08-05T11:21:14Z</time>
      </trkpt>
      <trkpt lat="50.79655" lon="2.55144">
        <ele>61.8</ele>
        <time>2023-08-05T11:21:15Z</time>
      </trkpt>
      <trkpt lat="50.79657" lon="2.55155">
        <ele>61.8</ele>
        <time>2023-08-05T11:21:16Z</time>
      </trkpt>
      <trkpt lat="50.79659" lon="2.55163">
        <ele>61.8</ele>
        <time>2023-08-05T11:21:17Z</time>
      </trkpt>
      <trkpt lat="50.79661" lon="2.55172">
        <ele>62</ele>
        <time>2023-08-05T11:21:18Z</time>
      </trkpt>
      <trkpt lat="50.79663" lon="2.55181">
        <ele>62</ele>
        <time>2023-08-05T11:21:19Z</time>
      </trkpt>
      <trkpt lat="50.79664" lon="2.55188">
        <ele>62</ele>
        <time>2023-08-05T11:21:20Z</time>
      </trkpt>
      <trkpt lat="50.79668" lon="2.55206">
        <ele>62</ele>
        <time>2023-08-05T11:21:22Z</time>
      </trkpt>
      <trkpt lat="50.7967" lon="2.55216">
        <ele>62</ele>
        <time>2023-08-05T11:21:23Z</time>
      </trkpt>
      <trkpt lat="50.79672" lon="2.55225">
        <ele>62</ele>
        <time>2023-08-05T11:21:24Z</time>
      </trkpt>
      <trkpt lat="50.79683" lon="2.55318">
        <ele>62.8</ele>
        <time>2023-08-05T11:21:34Z</time>
      </trkpt>
      <trkpt lat="50.79684" lon="2.55401">
        <ele>63</ele>
        <time>2023-08-05T11:21:43Z</time>
      </trkpt>
      <trkpt lat="50.79686" lon="2.55476">
        <ele>63</ele>
        <time>2023-08-05T11:21:51Z</time>
      </trkpt>
      <trkpt lat="50.79688" lon="2.55503">
        <ele>62.8</ele>
        <time>2023-08-05T11:21:54Z</time>
      </trkpt>
      <trkpt lat="50.79692" lon="2.55569">
        <ele>62</ele>
        <time>2023-08-05T11:22:01Z</time>
      </trkpt>
      <trkpt lat="50.79686" lon="2.5563">
        <ele>61.6</ele>
        <time>2023-08-05T11:22:08Z</time>
      </trkpt>
      <trkpt lat="50.79685" lon="2.55638">
        <ele>61.4</ele>
        <time>2023-08-05T11:22:09Z</time>
      </trkpt>
      <trkpt lat="50.79684" lon="2.55645">
        <ele>61.4</ele>
        <time>2023-08-05T11:22:10Z</time>
      </trkpt>
      <trkpt lat="50.79683" lon="2.55651">
        <ele>61.4</ele>
        <time>2023-08-05T11:22:11Z</time>
      </trkpt>
      <trkpt lat="50.79683" lon="2.55656">
        <ele>61.2</ele>
        <time>2023-08-05T11:22:12Z</time>
      </trkpt>
      <trkpt lat="50.79686" lon="2.55659">
        <ele>61.2</ele>
        <time>2023-08-05T11:22:13Z</time>
      </trkpt>
      <trkpt lat="50.7969" lon="2.55659">
        <ele>61</ele>
        <time>2023-08-05T11:22:14Z</time>
      </trkpt>
      <trkpt lat="50.79693" lon="2.55657">
        <ele>61</ele>
        <time>2023-08-05T11:22:15Z</time>
      </trkpt>
      <trkpt lat="50.79697" lon="2.55656">
        <ele>60.8</ele>
        <time>2023-08-05T11:22:16Z</time>
      </trkpt>
      <trkpt lat="50.79706" lon="2.55659">
        <ele>60.8</ele>
        <time>2023-08-05T11:22:18Z</time>
      </trkpt>
      <trkpt lat="50.79709" lon="2.55662">
        <ele>60.6</ele>
        <time>2023-08-05T11:22:19Z</time>
      </trkpt>
      <trkpt lat="50.79712" lon="2.55668">
        <ele>60.6</ele>
        <time>2023-08-05T11:22:20Z</time>
      </trkpt>
      <trkpt lat="50.79719" lon="2.55689">
        <ele>60.2</ele>
        <time>2023-08-05T11:22:23Z</time>
      </trkpt>
      <trkpt lat="50.79721" lon="2.55694">
        <ele>60.2</ele>
        <time>2023-08-05T11:22:24Z</time>
      </trkpt>
      <trkpt lat="50.79724" lon="2.55703">
        <ele>60</ele>
        <time>2023-08-05T11:22:25Z</time>
      </trkpt>
      <trkpt lat="50.79733" lon="2.55731">
        <ele>60</ele>
        <time>2023-08-05T11:22:29Z</time>
      </trkpt>
      <trkpt lat="50.79748" lon="2.55779">
        <ele>59.4</ele>
        <time>2023-08-05T11:22:35Z</time>
      </trkpt>
      <trkpt lat="50.79755" lon="2.55793">
        <ele>59.2</ele>
        <time>2023-08-05T11:22:37Z</time>
      </trkpt>
      <trkpt lat="50.79775" lon="2.55838">
        <ele>59</ele>
        <time>2023-08-05T11:22:43Z</time>
      </trkpt>
      <trkpt lat="50.798" lon="2.55894">
        <ele>58.4</ele>
        <time>2023-08-05T11:22:51Z</time>
      </trkpt>
      <trkpt lat="50.79806" lon="2.55907">
        <ele>58.4</ele>
        <time>2023-08-05T11:22:53Z</time>
      </trkpt>
      <trkpt lat="50.79809" lon="2.55914">
        <ele>58.4</ele>
        <time>2023-08-05T11:22:54Z</time>
      </trkpt>
      <trkpt lat="50.79813" lon="2.55919">
        <ele>58.4</ele>
        <time>2023-08-05T11:22:55Z</time>
      </trkpt>
      <trkpt lat="50.79816" lon="2.55926">
        <ele>58.4</ele>
        <time>2023-08-05T11:22:56Z</time>
      </trkpt>
      <trkpt lat="50.7982" lon="2.55932">
        <ele>58.2</ele>
        <time>2023-08-05T11:22:57Z</time>
      </trkpt>
      <trkpt lat="50.79824" lon="2.55938">
        <ele>58.2</ele>
        <time>2023-08-05T11:22:58Z</time>
      </trkpt>
      <trkpt lat="50.79828" lon="2.55944">
        <ele>58</ele>
        <time>2023-08-05T11:22:59Z</time>
      </trkpt>
      <trkpt lat="50.79841" lon="2.55977">
        <ele>57.8</ele>
        <time>2023-08-05T11:23:04Z</time>
      </trkpt>
      <trkpt lat="50.79844" lon="2.55983">
        <ele>57.8</ele>
        <time>2023-08-05T11:23:05Z</time>
      </trkpt>
      <trkpt lat="50.79849" lon="2.55994">
        <ele>57.6</ele>
        <time>2023-08-05T11:23:07Z</time>
      </trkpt>
      <trkpt lat="50.79852" lon="2.56002">
        <ele>57.6</ele>
        <time>2023-08-05T11:23:08Z</time>
      </trkpt>
      <trkpt lat="50.79854" lon="2.56008">
        <ele>57.4</ele>
        <time>2023-08-05T11:23:09Z</time>
      </trkpt>
      <trkpt lat="50.79857" lon="2.56015">
        <ele>57.6</ele>
        <time>2023-08-05T11:23:10Z</time>
      </trkpt>
      <trkpt lat="50.7986" lon="2.56021">
        <ele>57.6</ele>
        <time>2023-08-05T11:23:11Z</time>
      </trkpt>
      <trkpt lat="50.79881" lon="2.56085">
        <ele>57.4</ele>
        <time>2023-08-05T11:23:21Z</time>
      </trkpt>
      <trkpt lat="50.79883" lon="2.5609">
        <ele>57.4</ele>
        <time>2023-08-05T11:23:22Z</time>
      </trkpt>
      <trkpt lat="50.79885" lon="2.56097">
        <ele>57.4</ele>
        <time>2023-08-05T11:23:23Z</time>
      </trkpt>
      <trkpt lat="50.79887" lon="2.56102">
        <ele>57.2</ele>
        <time>2023-08-05T11:23:24Z</time>
      </trkpt>
      <trkpt lat="50.79889" lon="2.56108">
        <ele>57.2</ele>
        <time>2023-08-05T11:23:25Z</time>
      </trkpt>
      <trkpt lat="50.7989" lon="2.56112">
        <ele>57</ele>
        <time>2023-08-05T11:23:26Z</time>
      </trkpt>
      <trkpt lat="50.79892" lon="2.56119">
        <ele>57</ele>
        <time>2023-08-05T11:23:27Z</time>
      </trkpt>
      <trkpt lat="50.79894" lon="2.56125">
        <ele>57</ele>
        <time>2023-08-05T11:23:28Z</time>
      </trkpt>
      <trkpt lat="50.79896" lon="2.56131">
        <ele>56.8</ele>
        <time>2023-08-05T11:23:29Z</time>
      </trkpt>
      <trkpt lat="50.79897" lon="2.56137">
        <ele>56.6</ele>
        <time>2023-08-05T11:23:30Z</time>
      </trkpt>
      <trkpt lat="50.79899" lon="2.56143">
        <ele>56.6</ele>
        <time>2023-08-05T11:23:31Z</time>
      </trkpt>
      <trkpt lat="50.79901" lon="2.56148">
        <ele>56.6</ele>
        <time>2023-08-05T11:23:32Z</time>
      </trkpt>
      <trkpt lat="50.79903" lon="2.56154">
        <ele>56.4</ele>
        <time>2023-08-05T11:23:33Z</time>
      </trkpt>
      <trkpt lat="50.79905" lon="2.5616">
        <ele>56.2</ele>
        <time>2023-08-05T11:23:34Z</time>
      </trkpt>
      <trkpt lat="50.79909" lon="2.56171">
        <ele>56.4</ele>
        <time>2023-08-05T11:23:36Z</time>
      </trkpt>
      <trkpt lat="50.79929" lon="2.56221">
        <ele>55.8</ele>
        <time>2023-08-05T11:23:45Z</time>
      </trkpt>
      <trkpt lat="50.79943" lon="2.56267">
        <ele>55.6</ele>
        <time>2023-08-05T11:23:53Z</time>
      </trkpt>
      <trkpt lat="50.79945" lon="2.56272">
        <ele>55.4</ele>
        <time>2023-08-05T11:23:54Z</time>
      </trkpt>
      <trkpt lat="50.79946" lon="2.56277">
        <ele>55.2</ele>
        <time>2023-08-05T11:23:55Z</time>
      </trkpt>
      <trkpt lat="50.79948" lon="2.56282">
        <ele>55.2</ele>
        <time>2023-08-05T11:23:56Z</time>
      </trkpt>
      <trkpt lat="50.79949" lon="2.56287">
        <ele>55.2</ele>
        <time>2023-08-05T11:23:57Z</time>
      </trkpt>
      <trkpt lat="50.7995" lon="2.56292">
        <ele>55.2</ele>
        <time>2023-08-05T11:23:58Z</time>
      </trkpt>
      <trkpt lat="50.79952" lon="2.56296">
        <ele>55.4</ele>
        <time>2023-08-05T11:23:59Z</time>
      </trkpt>
      <trkpt lat="50.79953" lon="2.56302">
        <ele>55.4</ele>
        <time>2023-08-05T11:24:00Z</time>
      </trkpt>
      <trkpt lat="50.79955" lon="2.56307">
        <ele>55.4</ele>
        <time>2023-08-05T11:24:01Z</time>
      </trkpt>
      <trkpt lat="50.79957" lon="2.56312">
        <ele>55.4</ele>
        <time>2023-08-05T11:24:02Z</time>
      </trkpt>
      <trkpt lat="50.79959" lon="2.56317">
        <ele>55.2</ele>
        <time>2023-08-05T11:24:03Z</time>
      </trkpt>
      <trkpt lat="50.79961" lon="2.56323">
        <ele>55</ele>
        <time>2023-08-05T11:24:04Z</time>
      </trkpt>
      <trkpt lat="50.7997" lon="2.56352">
        <ele>54.4</ele>
        <time>2023-08-05T11:24:09Z</time>
      </trkpt>
      <trkpt lat="50.79975" lon="2.56364">
        <ele>54.2</ele>
        <time>2023-08-05T11:24:11Z</time>
      </trkpt>
      <trkpt lat="50.7999" lon="2.56412">
        <ele>53.6</ele>
        <time>2023-08-05T11:24:18Z</time>
      </trkpt>
      <trkpt lat="50.79996" lon="2.56433">
        <ele>53.4</ele>
        <time>2023-08-05T11:24:21Z</time>
      </trkpt>
      <trkpt lat="50.80008" lon="2.56474">
        <ele>53</ele>
        <time>2023-08-05T11:24:27Z</time>
      </trkpt>
      <trkpt lat="50.80011" lon="2.56479">
        <ele>52.8</ele>
        <time>2023-08-05T11:24:28Z</time>
      </trkpt>
      <trkpt lat="50.80015" lon="2.56481">
        <ele>52.8</ele>
        <time>2023-08-05T11:24:29Z</time>
      </trkpt>
      <trkpt lat="50.80019" lon="2.56483">
        <ele>52.6</ele>
        <time>2023-08-05T11:24:30Z</time>
      </trkpt>
      <trkpt lat="50.80024" lon="2.56484">
        <ele>52.6</ele>
        <time>2023-08-05T11:24:31Z</time>
      </trkpt>
      <trkpt lat="50.80029" lon="2.56485">
        <ele>52.4</ele>
        <time>2023-08-05T11:24:32Z</time>
      </trkpt>
      <trkpt lat="50.80034" lon="2.56487">
        <ele>52.4</ele>
        <time>2023-08-05T11:24:33Z</time>
      </trkpt>
      <trkpt lat="50.80039" lon="2.56488">
        <ele>52.4</ele>
        <time>2023-08-05T11:24:34Z</time>
      </trkpt>
      <trkpt lat="50.8007" lon="2.56501">
        <ele>51.8</ele>
        <time>2023-08-05T11:24:40Z</time>
      </trkpt>
      <trkpt lat="50.80093" lon="2.56507">
        <ele>51.4</ele>
        <time>2023-08-05T11:24:44Z</time>
      </trkpt>
      <trkpt lat="50.80105" lon="2.5651">
        <ele>51.2</ele>
        <time>2023-08-05T11:24:46Z</time>
      </trkpt>
      <trkpt lat="50.80155" lon="2.56524">
        <ele>51</ele>
        <time>2023-08-05T11:24:55Z</time>
      </trkpt>
      <trkpt lat="50.8016" lon="2.56528">
        <ele>51</ele>
        <time>2023-08-05T11:24:56Z</time>
      </trkpt>
      <trkpt lat="50.80163" lon="2.56534">
        <ele>50.8</ele>
        <time>2023-08-05T11:24:57Z</time>
      </trkpt>
      <trkpt lat="50.80164" lon="2.5654">
        <ele>50.8</ele>
        <time>2023-08-05T11:24:58Z</time>
      </trkpt>
      <trkpt lat="50.80165" lon="2.56546">
        <ele>50.8</ele>
        <time>2023-08-05T11:24:59Z</time>
      </trkpt>
      <trkpt lat="50.80166" lon="2.56553">
        <ele>50.8</ele>
        <time>2023-08-05T11:25:00Z</time>
      </trkpt>
      <trkpt lat="50.80166" lon="2.5656">
        <ele>50.8</ele>
        <time>2023-08-05T11:25:01Z</time>
      </trkpt>
      <trkpt lat="50.80166" lon="2.56566">
        <ele>50.8</ele>
        <time>2023-08-05T11:25:02Z</time>
      </trkpt>
      <trkpt lat="50.80166" lon="2.56573">
        <ele>50.8</ele>
        <time>2023-08-05T11:25:03Z</time>
      </trkpt>
      <trkpt lat="50.80167" lon="2.56579">
        <ele>50.6</ele>
        <time>2023-08-05T11:25:04Z</time>
      </trkpt>
      <trkpt lat="50.80168" lon="2.56586">
        <ele>50.6</ele>
        <time>2023-08-05T11:25:05Z</time>
      </trkpt>
      <trkpt lat="50.80169" lon="2.56592">
        <ele>50.6</ele>
        <time>2023-08-05T11:25:06Z</time>
      </trkpt>
      <trkpt lat="50.8017" lon="2.56597">
        <ele>50.6</ele>
        <time>2023-08-05T11:25:07Z</time>
      </trkpt>
      <trkpt lat="50.80173" lon="2.56606">
        <ele>50.6</ele>
        <time>2023-08-05T11:25:09Z</time>
      </trkpt>
      <trkpt lat="50.80174" lon="2.56611">
        <ele>50.6</ele>
        <time>2023-08-05T11:25:10Z</time>
      </trkpt>
      <trkpt lat="50.80176" lon="2.56616">
        <ele>50.4</ele>
        <time>2023-08-05T11:25:11Z</time>
      </trkpt>
      <trkpt lat="50.80178" lon="2.5662">
        <ele>50.4</ele>
        <time>2023-08-05T11:25:12Z</time>
      </trkpt>
      <trkpt lat="50.8018" lon="2.56624">
        <ele>50.4</ele>
        <time>2023-08-05T11:25:13Z</time>
      </trkpt>
      <trkpt lat="50.80182" lon="2.56628">
        <ele>50.4</ele>
        <time>2023-08-05T11:25:14Z</time>
      </trkpt>
      <trkpt lat="50.80184" lon="2.56632">
        <ele>50.4</ele>
        <time>2023-08-05T11:25:15Z</time>
      </trkpt>
      <trkpt lat="50.80185" lon="2.56635">
        <ele>50</ele>
        <time>2023-08-05T11:25:16Z</time>
      </trkpt>
      <trkpt lat="50.80187" lon="2.5664">
        <ele>49.8</ele>
        <time>2023-08-05T11:25:17Z</time>
      </trkpt>
      <trkpt lat="50.80189" lon="2.56643">
        <ele>49.6</ele>
        <time>2023-08-05T11:25:18Z</time>
      </trkpt>
      <trkpt lat="50.8019" lon="2.56647">
        <ele>49.6</ele>
        <time>2023-08-05T11:25:19Z</time>
      </trkpt>
      <trkpt lat="50.80192" lon="2.56651">
        <ele>49.4</ele>
        <time>2023-08-05T11:25:20Z</time>
      </trkpt>
      <trkpt lat="50.80194" lon="2.56655">
        <ele>49.4</ele>
        <time>2023-08-05T11:25:21Z</time>
      </trkpt>
      <trkpt lat="50.80196" lon="2.56659">
        <ele>49</ele>
        <time>2023-08-05T11:25:22Z</time>
      </trkpt>
      <trkpt lat="50.80206" lon="2.56681">
        <ele>48.8</ele>
        <time>2023-08-05T11:25:27Z</time>
      </trkpt>
      <trkpt lat="50.80217" lon="2.56707">
        <ele>48.6</ele>
        <time>2023-08-05T11:25:33Z</time>
      </trkpt>
      <trkpt lat="50.80222" lon="2.56719">
        <ele>48.2</ele>
        <time>2023-08-05T11:25:36Z</time>
      </trkpt>
      <trkpt lat="50.80223" lon="2.56722">
        <ele>48</ele>
        <time>2023-08-05T11:25:37Z</time>
      </trkpt>
      <trkpt lat="50.80225" lon="2.56725">
        <ele>47.8</ele>
        <time>2023-08-05T11:25:38Z</time>
      </trkpt>
      <trkpt lat="50.80226" lon="2.56729">
        <ele>47.6</ele>
        <time>2023-08-05T11:25:39Z</time>
      </trkpt>
      <trkpt lat="50.80229" lon="2.56733">
        <ele>47.6</ele>
        <time>2023-08-05T11:25:40Z</time>
      </trkpt>
      <trkpt lat="50.8023" lon="2.56737">
        <ele>47.4</ele>
        <time>2023-08-05T11:25:41Z</time>
      </trkpt>
      <trkpt lat="50.80232" lon="2.5674">
        <ele>47.4</ele>
        <time>2023-08-05T11:25:42Z</time>
      </trkpt>
      <trkpt lat="50.80233" lon="2.56743">
        <ele>47.4</ele>
        <time>2023-08-05T11:25:43Z</time>
      </trkpt>
      <trkpt lat="50.80235" lon="2.56746">
        <ele>47.2</ele>
        <time>2023-08-05T11:25:44Z</time>
      </trkpt>
      <trkpt lat="50.80237" lon="2.56751">
        <ele>47.2</ele>
        <time>2023-08-05T11:25:45Z</time>
      </trkpt>
      <trkpt lat="50.80239" lon="2.56754">
        <ele>47.2</ele>
        <time>2023-08-05T11:25:46Z</time>
      </trkpt>
      <trkpt lat="50.80241" lon="2.56758">
        <ele>47.2</ele>
        <time>2023-08-05T11:25:47Z</time>
      </trkpt>
      <trkpt lat="50.8025" lon="2.56775">
        <ele>47</ele>
        <time>2023-08-05T11:25:52Z</time>
      </trkpt>
      <trkpt lat="50.80262" lon="2.56798">
        <ele>47.2</ele>
        <time>2023-08-05T11:25:59Z</time>
      </trkpt>
      <trkpt lat="50.80269" lon="2.56813">
        <ele>47.4</ele>
        <time>2023-08-05T11:26:03Z</time>
      </trkpt>
      <trkpt lat="50.80281" lon="2.56844">
        <ele>47.8</ele>
        <time>2023-08-05T11:26:11Z</time>
      </trkpt>
      <trkpt lat="50.80294" lon="2.56882">
        <ele>47.8</ele>
        <time>2023-08-05T11:26:20Z</time>
      </trkpt>
      <trkpt lat="50.80299" lon="2.56895">
        <ele>47.8</ele>
        <time>2023-08-05T11:26:23Z</time>
      </trkpt>
      <trkpt lat="50.80311" lon="2.56931">
        <ele>47.8</ele>
        <time>2023-08-05T11:26:31Z</time>
      </trkpt>
      <trkpt lat="50.80323" lon="2.56967">
        <ele>47.4</ele>
        <time>2023-08-05T11:26:39Z</time>
      </trkpt>
      <trkpt lat="50.80324" lon="2.56971">
        <ele>47.4</ele>
        <time>2023-08-05T11:26:40Z</time>
      </trkpt>
      <trkpt lat="50.80325" lon="2.56974">
        <ele>47.4</ele>
        <time>2023-08-05T11:26:41Z</time>
      </trkpt>
      <trkpt lat="50.80326" lon="2.56977">
        <ele>47.4</ele>
        <time>2023-08-05T11:26:42Z</time>
      </trkpt>
      <trkpt lat="50.80327" lon="2.56981">
        <ele>47.2</ele>
        <time>2023-08-05T11:26:43Z</time>
      </trkpt>
      <trkpt lat="50.8033" lon="2.56988">
        <ele>47.2</ele>
        <time>2023-08-05T11:26:45Z</time>
      </trkpt>
      <trkpt lat="50.80331" lon="2.56991">
        <ele>47.2</ele>
        <time>2023-08-05T11:26:46Z</time>
      </trkpt>
      <trkpt lat="50.80332" lon="2.56995">
        <ele>47.4</ele>
        <time>2023-08-05T11:26:47Z</time>
      </trkpt>
      <trkpt lat="50.80333" lon="2.56999">
        <ele>47.4</ele>
        <time>2023-08-05T11:26:48Z</time>
      </trkpt>
      <trkpt lat="50.80335" lon="2.57003">
        <ele>47.4</ele>
        <time>2023-08-05T11:26:49Z</time>
      </trkpt>
      <trkpt lat="50.80336" lon="2.57007">
        <ele>47.4</ele>
        <time>2023-08-05T11:26:50Z</time>
      </trkpt>
      <trkpt lat="50.80337" lon="2.5701">
        <ele>47.4</ele>
        <time>2023-08-05T11:26:51Z</time>
      </trkpt>
      <trkpt lat="50.80338" lon="2.57014">
        <ele>47.4</ele>
        <time>2023-08-05T11:26:52Z</time>
      </trkpt>
      <trkpt lat="50.80346" lon="2.57034">
        <ele>47.4</ele>
        <time>2023-08-05T11:26:57Z</time>
      </trkpt>
      <trkpt lat="50.80357" lon="2.5706">
        <ele>47.4</ele>
        <time>2023-08-05T11:27:04Z</time>
      </trkpt>
      <trkpt lat="50.80374" lon="2.57106">
        <ele>47.4</ele>
        <time>2023-08-05T11:27:14Z</time>
      </trkpt>
      <trkpt lat="50.80388" lon="2.57146">
        <ele>47.4</ele>
        <time>2023-08-05T11:27:22Z</time>
      </trkpt>
      <trkpt lat="50.8039" lon="2.57151">
        <ele>47.6</ele>
        <time>2023-08-05T11:27:23Z</time>
      </trkpt>
      <trkpt lat="50.80409" lon="2.572">
        <ele>47</ele>
        <time>2023-08-05T11:27:31Z</time>
      </trkpt>
      <trkpt lat="50.80416" lon="2.57218">
        <ele>47</ele>
        <time>2023-08-05T11:27:34Z</time>
      </trkpt>
      <trkpt lat="50.80424" lon="2.57236">
        <ele>47</ele>
        <time>2023-08-05T11:27:37Z</time>
      </trkpt>
      <trkpt lat="50.80426" lon="2.57241">
        <ele>46.8</ele>
        <time>2023-08-05T11:27:38Z</time>
      </trkpt>
      <trkpt lat="50.80427" lon="2.57246">
        <ele>46.6</ele>
        <time>2023-08-05T11:27:39Z</time>
      </trkpt>
      <trkpt lat="50.80427" lon="2.57251">
        <ele>46.4</ele>
        <time>2023-08-05T11:27:40Z</time>
      </trkpt>
      <trkpt lat="50.80426" lon="2.57256">
        <ele>46.4</ele>
        <time>2023-08-05T11:27:41Z</time>
      </trkpt>
      <trkpt lat="50.80424" lon="2.5726">
        <ele>46.4</ele>
        <time>2023-08-05T11:27:42Z</time>
      </trkpt>
      <trkpt lat="50.80422" lon="2.57263">
        <ele>46.4</ele>
        <time>2023-08-05T11:27:43Z</time>
      </trkpt>
      <trkpt lat="50.8042" lon="2.57266">
        <ele>46.4</ele>
        <time>2023-08-05T11:27:44Z</time>
      </trkpt>
      <trkpt lat="50.80417" lon="2.57273">
        <ele>46.2</ele>
        <time>2023-08-05T11:27:46Z</time>
      </trkpt>
      <trkpt lat="50.80417" lon="2.57275">
        <ele>46.2</ele>
        <time>2023-08-05T11:27:47Z</time>
      </trkpt>
      <trkpt lat="50.80417" lon="2.57278">
        <ele>46.2</ele>
        <time>2023-08-05T11:27:48Z</time>
      </trkpt>
      <trkpt lat="50.80418" lon="2.57282">
        <ele>46</ele>
        <time>2023-08-05T11:27:49Z</time>
      </trkpt>
      <trkpt lat="50.80419" lon="2.57286">
        <ele>46</ele>
        <time>2023-08-05T11:27:50Z</time>
      </trkpt>
      <trkpt lat="50.80419" lon="2.57291">
        <ele>46</ele>
        <time>2023-08-05T11:27:51Z</time>
      </trkpt>
      <trkpt lat="50.8042" lon="2.57296">
        <ele>45.8</ele>
        <time>2023-08-05T11:27:52Z</time>
      </trkpt>
      <trkpt lat="50.80422" lon="2.57306">
        <ele>45.8</ele>
        <time>2023-08-05T11:27:54Z</time>
      </trkpt>
      <trkpt lat="50.80425" lon="2.57323">
        <ele>45.4</ele>
        <time>2023-08-05T11:27:57Z</time>
      </trkpt>
      <trkpt lat="50.80426" lon="2.57328">
        <ele>45.4</ele>
        <time>2023-08-05T11:27:58Z</time>
      </trkpt>
      <trkpt lat="50.80432" lon="2.5735">
        <ele>45.4</ele>
        <time>2023-08-05T11:28:02Z</time>
      </trkpt>
      <trkpt lat="50.80448" lon="2.57372">
        <ele>45.4</ele>
        <time>2023-08-05T11:28:08Z</time>
      </trkpt>
      <trkpt lat="50.80457" lon="2.57382">
        <ele>45.4</ele>
        <time>2023-08-05T11:28:11Z</time>
      </trkpt>
      <trkpt lat="50.80459" lon="2.57386">
        <ele>45.4</ele>
        <time>2023-08-05T11:28:12Z</time>
      </trkpt>
      <trkpt lat="50.80462" lon="2.57389">
        <ele>45.4</ele>
        <time>2023-08-05T11:28:13Z</time>
      </trkpt>
      <trkpt lat="50.80465" lon="2.57393">
        <ele>45.4</ele>
        <time>2023-08-05T11:28:14Z</time>
      </trkpt>
      <trkpt lat="50.80473" lon="2.57404">
        <ele>45.4</ele>
        <time>2023-08-05T11:28:17Z</time>
      </trkpt>
      <trkpt lat="50.80479" lon="2.57411">
        <ele>45.4</ele>
        <time>2023-08-05T11:28:19Z</time>
      </trkpt>
      <trkpt lat="50.80496" lon="2.57431">
        <ele>45.2</ele>
        <time>2023-08-05T11:28:25Z</time>
      </trkpt>
      <trkpt lat="50.80499" lon="2.57435">
        <ele>45.2</ele>
        <time>2023-08-05T11:28:26Z</time>
      </trkpt>
      <trkpt lat="50.80517" lon="2.5746">
        <ele>45.2</ele>
        <time>2023-08-05T11:28:33Z</time>
      </trkpt>
      <trkpt lat="50.8052" lon="2.57463">
        <ele>45.2</ele>
        <time>2023-08-05T11:28:34Z</time>
      </trkpt>
      <trkpt lat="50.80522" lon="2.57466">
        <ele>45.2</ele>
        <time>2023-08-05T11:28:35Z</time>
      </trkpt>
      <trkpt lat="50.80525" lon="2.57469">
        <ele>45</ele>
        <time>2023-08-05T11:28:36Z</time>
      </trkpt>
      <trkpt lat="50.80527" lon="2.57473">
        <ele>45</ele>
        <time>2023-08-05T11:28:37Z</time>
      </trkpt>
      <trkpt lat="50.8053" lon="2.57476">
        <ele>45</ele>
        <time>2023-08-05T11:28:38Z</time>
      </trkpt>
      <trkpt lat="50.80533" lon="2.57479">
        <ele>44.8</ele>
        <time>2023-08-05T11:28:39Z</time>
      </trkpt>
      <trkpt lat="50.80536" lon="2.57482">
        <ele>44.8</ele>
        <time>2023-08-05T11:28:40Z</time>
      </trkpt>
      <trkpt lat="50.80539" lon="2.57485">
        <ele>44.6</ele>
        <time>2023-08-05T11:28:41Z</time>
      </trkpt>
      <trkpt lat="50.80541" lon="2.57488">
        <ele>44.6</ele>
        <time>2023-08-05T11:28:42Z</time>
      </trkpt>
      <trkpt lat="50.80545" lon="2.57491">
        <ele>44.4</ele>
        <time>2023-08-05T11:28:43Z</time>
      </trkpt>
      <trkpt lat="50.80548" lon="2.57494">
        <ele>44.4</ele>
        <time>2023-08-05T11:28:44Z</time>
      </trkpt>
      <trkpt lat="50.80551" lon="2.57496">
        <ele>44.2</ele>
        <time>2023-08-05T11:28:45Z</time>
      </trkpt>
      <trkpt lat="50.80555" lon="2.57498">
        <ele>44.2</ele>
        <time>2023-08-05T11:28:46Z</time>
      </trkpt>
      <trkpt lat="50.80568" lon="2.57507">
        <ele>43.6</ele>
        <time>2023-08-05T11:28:50Z</time>
      </trkpt>
      <trkpt lat="50.80571" lon="2.57509">
        <ele>43.6</ele>
        <time>2023-08-05T11:28:51Z</time>
      </trkpt>
      <trkpt lat="50.80574" lon="2.57511">
        <ele>43.4</ele>
        <time>2023-08-05T11:28:52Z</time>
      </trkpt>
      <trkpt lat="50.80577" lon="2.57514">
        <ele>43.2</ele>
        <time>2023-08-05T11:28:53Z</time>
      </trkpt>
      <trkpt lat="50.80582" lon="2.57519">
        <ele>42.6</ele>
        <time>2023-08-05T11:28:55Z</time>
      </trkpt>
      <trkpt lat="50.80584" lon="2.57522">
        <ele>42.6</ele>
        <time>2023-08-05T11:28:56Z</time>
      </trkpt>
      <trkpt lat="50.80586" lon="2.57525">
        <ele>42.6</ele>
        <time>2023-08-05T11:28:57Z</time>
      </trkpt>
      <trkpt lat="50.80588" lon="2.57529">
        <ele>42.6</ele>
        <time>2023-08-05T11:28:58Z</time>
      </trkpt>
      <trkpt lat="50.8059" lon="2.57532">
        <ele>42.6</ele>
        <time>2023-08-05T11:28:59Z</time>
      </trkpt>
      <trkpt lat="50.80593" lon="2.57536">
        <ele>42.6</ele>
        <time>2023-08-05T11:29:00Z</time>
      </trkpt>
      <trkpt lat="50.80595" lon="2.5754">
        <ele>42.6</ele>
        <time>2023-08-05T11:29:01Z</time>
      </trkpt>
      <trkpt lat="50.80598" lon="2.57541">
        <ele>42.6</ele>
        <time>2023-08-05T11:29:02Z</time>
      </trkpt>
      <trkpt lat="50.80602" lon="2.57542">
        <ele>42.6</ele>
        <time>2023-08-05T11:29:03Z</time>
      </trkpt>
      <trkpt lat="50.80604" lon="2.57541">
        <ele>42.4</ele>
        <time>2023-08-05T11:29:04Z</time>
      </trkpt>
      <trkpt lat="50.80606" lon="2.5754">
        <ele>42.4</ele>
        <time>2023-08-05T11:29:05Z</time>
      </trkpt>
      <trkpt lat="50.80607" lon="2.57538">
        <ele>42.4</ele>
        <time>2023-08-05T11:29:06Z</time>
      </trkpt>
      <trkpt lat="50.80609" lon="2.57536">
        <ele>42.4</ele>
        <time>2023-08-05T11:29:07Z</time>
      </trkpt>
      <trkpt lat="50.8061" lon="2.57534">
        <ele>42.4</ele>
        <time>2023-08-05T11:29:08Z</time>
      </trkpt>
      <trkpt lat="50.80612" lon="2.57533">
        <ele>42.4</ele>
        <time>2023-08-05T11:29:09Z</time>
      </trkpt>
      <trkpt lat="50.80614" lon="2.5753">
        <ele>42.4</ele>
        <time>2023-08-05T11:29:10Z</time>
      </trkpt>
      <trkpt lat="50.80615" lon="2.57528">
        <ele>42.2</ele>
        <time>2023-08-05T11:29:11Z</time>
      </trkpt>
      <trkpt lat="50.80626" lon="2.57514">
        <ele>42.4</ele>
        <time>2023-08-05T11:29:17Z</time>
      </trkpt>
      <trkpt lat="50.80628" lon="2.57515">
        <ele>42.4</ele>
        <time>2023-08-05T11:29:18Z</time>
      </trkpt>
      <trkpt lat="50.8063" lon="2.57517">
        <ele>42.4</ele>
        <time>2023-08-05T11:29:19Z</time>
      </trkpt>
      <trkpt lat="50.80635" lon="2.57524">
        <ele>42.8</ele>
        <time>2023-08-05T11:29:21Z</time>
      </trkpt>
      <trkpt lat="50.80637" lon="2.57527">
        <ele>43</ele>
        <time>2023-08-05T11:29:22Z</time>
      </trkpt>
      <trkpt lat="50.80639" lon="2.57531">
        <ele>43</ele>
        <time>2023-08-05T11:29:23Z</time>
      </trkpt>
      <trkpt lat="50.80648" lon="2.57547">
        <ele>43.2</ele>
        <time>2023-08-05T11:29:27Z</time>
      </trkpt>
      <trkpt lat="50.80655" lon="2.57576">
        <ele>42.8</ele>
        <time>2023-08-05T11:29:32Z</time>
      </trkpt>
      <trkpt lat="50.8066" lon="2.57602">
        <ele>42.2</ele>
        <time>2023-08-05T11:29:36Z</time>
      </trkpt>
      <trkpt lat="50.80663" lon="2.57607">
        <ele>42.2</ele>
        <time>2023-08-05T11:29:37Z</time>
      </trkpt>
      <trkpt lat="50.80666" lon="2.57609">
        <ele>42</ele>
        <time>2023-08-05T11:29:38Z</time>
      </trkpt>
      <trkpt lat="50.80669" lon="2.5761">
        <ele>41.8</ele>
        <time>2023-08-05T11:29:39Z</time>
      </trkpt>
      <trkpt lat="50.80673" lon="2.57611">
        <ele>41.8</ele>
        <time>2023-08-05T11:29:40Z</time>
      </trkpt>
      <trkpt lat="50.80676" lon="2.57613">
        <ele>41.8</ele>
        <time>2023-08-05T11:29:41Z</time>
      </trkpt>
      <trkpt lat="50.80679" lon="2.57614">
        <ele>41.8</ele>
        <time>2023-08-05T11:29:42Z</time>
      </trkpt>
      <trkpt lat="50.80683" lon="2.57616">
        <ele>41.6</ele>
        <time>2023-08-05T11:29:43Z</time>
      </trkpt>
      <trkpt lat="50.80687" lon="2.57617">
        <ele>41.6</ele>
        <time>2023-08-05T11:29:44Z</time>
      </trkpt>
      <trkpt lat="50.8069" lon="2.57619">
        <ele>41.6</ele>
        <time>2023-08-05T11:29:45Z</time>
      </trkpt>
      <trkpt lat="50.80694" lon="2.5762">
        <ele>41.6</ele>
        <time>2023-08-05T11:29:46Z</time>
      </trkpt>
      <trkpt lat="50.80703" lon="2.57624">
        <ele>41.6</ele>
        <time>2023-08-05T11:29:49Z</time>
      </trkpt>
      <trkpt lat="50.80706" lon="2.57626">
        <ele>41.6</ele>
        <time>2023-08-05T11:29:50Z</time>
      </trkpt>
      <trkpt lat="50.80724" lon="2.57637">
        <ele>41.6</ele>
        <time>2023-08-05T11:29:55Z</time>
      </trkpt>
      <trkpt lat="50.8075" lon="2.57658">
        <ele>41.4</ele>
        <time>2023-08-05T11:30:02Z</time>
      </trkpt>
      <trkpt lat="50.80764" lon="2.57671">
        <ele>41.2</ele>
        <time>2023-08-05T11:30:06Z</time>
      </trkpt>
      <trkpt lat="50.80767" lon="2.57674">
        <ele>41.2</ele>
        <time>2023-08-05T11:30:07Z</time>
      </trkpt>
      <trkpt lat="50.80769" lon="2.57678">
        <ele>41.2</ele>
        <time>2023-08-05T11:30:08Z</time>
      </trkpt>
      <trkpt lat="50.80772" lon="2.57681">
        <ele>41.2</ele>
        <time>2023-08-05T11:30:09Z</time>
      </trkpt>
      <trkpt lat="50.80774" lon="2.57685">
        <ele>41.2</ele>
        <time>2023-08-05T11:30:10Z</time>
      </trkpt>
      <trkpt lat="50.80776" lon="2.57689">
        <ele>41.2</ele>
        <time>2023-08-05T11:30:11Z</time>
      </trkpt>
      <trkpt lat="50.80778" lon="2.57692">
        <ele>41</ele>
        <time>2023-08-05T11:30:12Z</time>
      </trkpt>
      <trkpt lat="50.80781" lon="2.57695">
        <ele>41</ele>
        <time>2023-08-05T11:30:13Z</time>
      </trkpt>
      <trkpt lat="50.80783" lon="2.57697">
        <ele>41</ele>
        <time>2023-08-05T11:30:14Z</time>
      </trkpt>
      <trkpt lat="50.80787" lon="2.57698">
        <ele>40.8</ele>
        <time>2023-08-05T11:30:15Z</time>
      </trkpt>
      <trkpt lat="50.8079" lon="2.57699">
        <ele>40.8</ele>
        <time>2023-08-05T11:30:16Z</time>
      </trkpt>
      <trkpt lat="50.80793" lon="2.57699">
        <ele>40.8</ele>
        <time>2023-08-05T11:30:17Z</time>
      </trkpt>
      <trkpt lat="50.80797" lon="2.57698">
        <ele>40.8</ele>
        <time>2023-08-05T11:30:18Z</time>
      </trkpt>
      <trkpt lat="50.80801" lon="2.57698">
        <ele>40.6</ele>
        <time>2023-08-05T11:30:19Z</time>
      </trkpt>
      <trkpt lat="50.80813" lon="2.577">
        <ele>40.4</ele>
        <time>2023-08-05T11:30:22Z</time>
      </trkpt>
      <trkpt lat="50.80821" lon="2.57701">
        <ele>40.2</ele>
        <time>2023-08-05T11:30:24Z</time>
      </trkpt>
      <trkpt lat="50.80846" lon="2.57709">
        <ele>39.8</ele>
        <time>2023-08-05T11:30:30Z</time>
      </trkpt>
      <trkpt lat="50.80892" lon="2.57725">
        <ele>39.4</ele>
        <time>2023-08-05T11:30:41Z</time>
      </trkpt>
      <trkpt lat="50.80895" lon="2.57728">
        <ele>39.4</ele>
        <time>2023-08-05T11:30:42Z</time>
      </trkpt>
      <trkpt lat="50.80902" lon="2.57736">
        <ele>39.2</ele>
        <time>2023-08-05T11:30:44Z</time>
      </trkpt>
      <trkpt lat="50.80903" lon="2.57741">
        <ele>39.2</ele>
        <time>2023-08-05T11:30:45Z</time>
      </trkpt>
      <trkpt lat="50.80904" lon="2.57747">
        <ele>39.2</ele>
        <time>2023-08-05T11:30:46Z</time>
      </trkpt>
      <trkpt lat="50.80905" lon="2.57753">
        <ele>39.2</ele>
        <time>2023-08-05T11:30:47Z</time>
      </trkpt>
      <trkpt lat="50.80906" lon="2.5776">
        <ele>39</ele>
        <time>2023-08-05T11:30:48Z</time>
      </trkpt>
      <trkpt lat="50.80906" lon="2.57767">
        <ele>39</ele>
        <time>2023-08-05T11:30:49Z</time>
      </trkpt>
      <trkpt lat="50.80911" lon="2.57815">
        <ele>38.4</ele>
        <time>2023-08-05T11:30:55Z</time>
      </trkpt>
      <trkpt lat="50.80912" lon="2.57823">
        <ele>38.2</ele>
        <time>2023-08-05T11:30:56Z</time>
      </trkpt>
      <trkpt lat="50.80913" lon="2.57832">
        <ele>38.2</ele>
        <time>2023-08-05T11:30:57Z</time>
      </trkpt>
      <trkpt lat="50.80913" lon="2.5784">
        <ele>38</ele>
        <time>2023-08-05T11:30:58Z</time>
      </trkpt>
      <trkpt lat="50.80916" lon="2.57873">
        <ele>37.8</ele>
        <time>2023-08-05T11:31:02Z</time>
      </trkpt>
      <trkpt lat="50.80919" lon="2.57915">
        <ele>37.6</ele>
        <time>2023-08-05T11:31:07Z</time>
      </trkpt>
      <trkpt lat="50.80922" lon="2.57939">
        <ele>37.4</ele>
        <time>2023-08-05T11:31:10Z</time>
      </trkpt>
      <trkpt lat="50.80922" lon="2.57947">
        <ele>37.4</ele>
        <time>2023-08-05T11:31:11Z</time>
      </trkpt>
      <trkpt lat="50.80923" lon="2.57963">
        <ele>37.4</ele>
        <time>2023-08-05T11:31:13Z</time>
      </trkpt>
      <trkpt lat="50.80924" lon="2.57971">
        <ele>37.4</ele>
        <time>2023-08-05T11:31:14Z</time>
      </trkpt>
      <trkpt lat="50.80925" lon="2.57979">
        <ele>37.4</ele>
        <time>2023-08-05T11:31:15Z</time>
      </trkpt>
      <trkpt lat="50.80925" lon="2.57986">
        <ele>37.4</ele>
        <time>2023-08-05T11:31:16Z</time>
      </trkpt>
      <trkpt lat="50.80925" lon="2.57994">
        <ele>37.4</ele>
        <time>2023-08-05T11:31:17Z</time>
      </trkpt>
      <trkpt lat="50.80926" lon="2.58001">
        <ele>37.4</ele>
        <time>2023-08-05T11:31:18Z</time>
      </trkpt>
      <trkpt lat="50.80927" lon="2.58009">
        <ele>37.4</ele>
        <time>2023-08-05T11:31:19Z</time>
      </trkpt>
      <trkpt lat="50.80927" lon="2.58015">
        <ele>37.4</ele>
        <time>2023-08-05T11:31:20Z</time>
      </trkpt>
      <trkpt lat="50.80928" lon="2.58022">
        <ele>37.4</ele>
        <time>2023-08-05T11:31:21Z</time>
      </trkpt>
      <trkpt lat="50.80928" lon="2.58029">
        <ele>37.6</ele>
        <time>2023-08-05T11:31:22Z</time>
      </trkpt>
      <trkpt lat="50.80929" lon="2.58035">
        <ele>37.6</ele>
        <time>2023-08-05T11:31:23Z</time>
      </trkpt>
      <trkpt lat="50.80929" lon="2.58042">
        <ele>37.6</ele>
        <time>2023-08-05T11:31:24Z</time>
      </trkpt>
      <trkpt lat="50.80929" lon="2.58048">
        <ele>37.6</ele>
        <time>2023-08-05T11:31:25Z</time>
      </trkpt>
      <trkpt lat="50.80929" lon="2.58054">
        <ele>37.6</ele>
        <time>2023-08-05T11:31:26Z</time>
      </trkpt>
      <trkpt lat="50.80929" lon="2.5806">
        <ele>37.6</ele>
        <time>2023-08-05T11:31:27Z</time>
      </trkpt>
      <trkpt lat="50.80929" lon="2.58066">
        <ele>37.6</ele>
        <time>2023-08-05T11:31:28Z</time>
      </trkpt>
      <trkpt lat="50.8093" lon="2.58072">
        <ele>37.6</ele>
        <time>2023-08-05T11:31:29Z</time>
      </trkpt>
      <trkpt lat="50.8093" lon="2.58079">
        <ele>37.6</ele>
        <time>2023-08-05T11:31:30Z</time>
      </trkpt>
      <trkpt lat="50.8093" lon="2.58086">
        <ele>37.6</ele>
        <time>2023-08-05T11:31:31Z</time>
      </trkpt>
      <trkpt lat="50.80931" lon="2.58093">
        <ele>37.6</ele>
        <time>2023-08-05T11:31:32Z</time>
      </trkpt>
      <trkpt lat="50.80932" lon="2.58109">
        <ele>37.4</ele>
        <time>2023-08-05T11:31:34Z</time>
      </trkpt>
      <trkpt lat="50.80935" lon="2.58132">
        <ele>37.4</ele>
        <time>2023-08-05T11:31:37Z</time>
      </trkpt>
      <trkpt lat="50.80938" lon="2.58173">
        <ele>37.4</ele>
        <time>2023-08-05T11:31:42Z</time>
      </trkpt>
      <trkpt lat="50.80943" lon="2.58234">
        <ele>37.2</ele>
        <time>2023-08-05T11:31:50Z</time>
      </trkpt>
      <trkpt lat="50.80944" lon="2.58239">
        <ele>37.2</ele>
        <time>2023-08-05T11:31:51Z</time>
      </trkpt>
      <trkpt lat="50.80944" lon="2.58244">
        <ele>37.2</ele>
        <time>2023-08-05T11:31:52Z</time>
      </trkpt>
      <trkpt lat="50.80944" lon="2.58248">
        <ele>37.2</ele>
        <time>2023-08-05T11:31:53Z</time>
      </trkpt>
      <trkpt lat="50.80944" lon="2.58253">
        <ele>37.2</ele>
        <time>2023-08-05T11:31:54Z</time>
      </trkpt>
      <trkpt lat="50.80944" lon="2.58259">
        <ele>37.2</ele>
        <time>2023-08-05T11:31:55Z</time>
      </trkpt>
      <trkpt lat="50.80942" lon="2.5827">
        <ele>37.2</ele>
        <time>2023-08-05T11:31:57Z</time>
      </trkpt>
      <trkpt lat="50.80938" lon="2.58308">
        <ele>37.2</ele>
        <time>2023-08-05T11:32:03Z</time>
      </trkpt>
      <trkpt lat="50.80939" lon="2.58322">
        <ele>37.2</ele>
        <time>2023-08-05T11:32:05Z</time>
      </trkpt>
      <trkpt lat="50.80941" lon="2.58352">
        <ele>37.2</ele>
        <time>2023-08-05T11:32:09Z</time>
      </trkpt>
      <trkpt lat="50.80944" lon="2.58397">
        <ele>37.4</ele>
        <time>2023-08-05T11:32:15Z</time>
      </trkpt>
      <trkpt lat="50.80946" lon="2.58425">
        <ele>37.4</ele>
        <time>2023-08-05T11:32:19Z</time>
      </trkpt>
      <trkpt lat="50.80947" lon="2.58432">
        <ele>37.4</ele>
        <time>2023-08-05T11:32:20Z</time>
      </trkpt>
      <trkpt lat="50.80948" lon="2.58439">
        <ele>37.4</ele>
        <time>2023-08-05T11:32:21Z</time>
      </trkpt>
      <trkpt lat="50.80948" lon="2.58445">
        <ele>37.4</ele>
        <time>2023-08-05T11:32:22Z</time>
      </trkpt>
      <trkpt lat="50.80949" lon="2.58452">
        <ele>37.4</ele>
        <time>2023-08-05T11:32:23Z</time>
      </trkpt>
      <trkpt lat="50.80949" lon="2.58458">
        <ele>37.4</ele>
        <time>2023-08-05T11:32:24Z</time>
      </trkpt>
      <trkpt lat="50.8095" lon="2.58464">
        <ele>37.4</ele>
        <time>2023-08-05T11:32:25Z</time>
      </trkpt>
      <trkpt lat="50.8095" lon="2.58471">
        <ele>37.4</ele>
        <time>2023-08-05T11:32:26Z</time>
      </trkpt>
      <trkpt lat="50.80951" lon="2.58476">
        <ele>37.4</ele>
        <time>2023-08-05T11:32:27Z</time>
      </trkpt>
      <trkpt lat="50.80951" lon="2.58483">
        <ele>37.6</ele>
        <time>2023-08-05T11:32:28Z</time>
      </trkpt>
      <trkpt lat="50.80952" lon="2.58488">
        <ele>37.6</ele>
        <time>2023-08-05T11:32:29Z</time>
      </trkpt>
      <trkpt lat="50.80953" lon="2.58495">
        <ele>37.6</ele>
        <time>2023-08-05T11:32:30Z</time>
      </trkpt>
      <trkpt lat="50.80953" lon="2.58501">
        <ele>37.6</ele>
        <time>2023-08-05T11:32:31Z</time>
      </trkpt>
      <trkpt lat="50.80954" lon="2.58507">
        <ele>37.6</ele>
        <time>2023-08-05T11:32:32Z</time>
      </trkpt>
      <trkpt lat="50.80954" lon="2.58513">
        <ele>37.6</ele>
        <time>2023-08-05T11:32:33Z</time>
      </trkpt>
      <trkpt lat="50.80954" lon="2.58519">
        <ele>37.8</ele>
        <time>2023-08-05T11:32:34Z</time>
      </trkpt>
      <trkpt lat="50.80955" lon="2.58525">
        <ele>37.8</ele>
        <time>2023-08-05T11:32:35Z</time>
      </trkpt>
      <trkpt lat="50.80955" lon="2.58531">
        <ele>38</ele>
        <time>2023-08-05T11:32:36Z</time>
      </trkpt>
      <trkpt lat="50.80956" lon="2.58537">
        <ele>38.2</ele>
        <time>2023-08-05T11:32:37Z</time>
      </trkpt>
      <trkpt lat="50.80957" lon="2.58543">
        <ele>38.4</ele>
        <time>2023-08-05T11:32:38Z</time>
      </trkpt>
      <trkpt lat="50.80959" lon="2.58574">
        <ele>39.2</ele>
        <time>2023-08-05T11:32:43Z</time>
      </trkpt>
      <trkpt lat="50.80959" lon="2.5858">
        <ele>39.4</ele>
        <time>2023-08-05T11:32:44Z</time>
      </trkpt>
      <trkpt lat="50.8096" lon="2.58586">
        <ele>39.4</ele>
        <time>2023-08-05T11:32:45Z</time>
      </trkpt>
      <trkpt lat="50.8096" lon="2.58618">
        <ele>40.4</ele>
        <time>2023-08-05T11:32:51Z</time>
      </trkpt>
      <trkpt lat="50.8096" lon="2.58622">
        <ele>40.6</ele>
        <time>2023-08-05T11:32:52Z</time>
      </trkpt>
      <trkpt lat="50.80959" lon="2.58624">
        <ele>40.6</ele>
        <time>2023-08-05T11:32:53Z</time>
      </trkpt>
      <trkpt lat="50.80959" lon="2.58626">
        <ele>40.8</ele>
        <time>2023-08-05T11:32:54Z</time>
      </trkpt>
      <trkpt lat="50.80959" lon="2.58628">
        <ele>40.8</ele>
        <time>2023-08-05T11:32:55Z</time>
      </trkpt>
      <trkpt lat="50.80959" lon="2.58628">
        <ele>41</ele>
        <time>2023-08-05T11:32:56Z</time>
      </trkpt>
      <trkpt lat="50.80959" lon="2.58628">
        <ele>41</ele>
        <time>2023-08-05T11:32:57Z</time>
      </trkpt>
      <trkpt lat="50.80959" lon="2.58628">
        <ele>41.2</ele>
        <time>2023-08-05T11:32:58Z</time>
      </trkpt>
      <trkpt lat="50.80967" lon="2.58673">
        <ele>42.2</ele>
        <time>2023-08-05T11:35:10Z</time>
      </trkpt>
      <trkpt lat="50.80967" lon="2.58675">
        <ele>42.2</ele>
        <time>2023-08-05T11:35:11Z</time>
      </trkpt>
      <trkpt lat="50.80967" lon="2.58677">
        <ele>42.2</ele>
        <time>2023-08-05T11:35:12Z</time>
      </trkpt>
      <trkpt lat="50.80967" lon="2.58679">
        <ele>42.2</ele>
        <time>2023-08-05T11:35:13Z</time>
      </trkpt>
      <trkpt lat="50.80967" lon="2.58681">
        <ele>42.2</ele>
        <time>2023-08-05T11:35:14Z</time>
      </trkpt>
      <trkpt lat="50.80967" lon="2.58685">
        <ele>42</ele>
        <time>2023-08-05T11:35:16Z</time>
      </trkpt>
      <trkpt lat="50.80968" lon="2.58688">
        <ele>42</ele>
        <time>2023-08-05T11:35:17Z</time>
      </trkpt>
      <trkpt lat="50.80969" lon="2.5869">
        <ele>41.8</ele>
        <time>2023-08-05T11:35:18Z</time>
      </trkpt>
      <trkpt lat="50.80969" lon="2.58699">
        <ele>41.8</ele>
        <time>2023-08-05T11:35:22Z</time>
      </trkpt>
      <trkpt lat="50.80969" lon="2.58701">
        <ele>41.8</ele>
        <time>2023-08-05T11:35:23Z</time>
      </trkpt>
      <trkpt lat="50.80969" lon="2.58703">
        <ele>41.8</ele>
        <time>2023-08-05T11:35:24Z</time>
      </trkpt>
      <trkpt lat="50.80968" lon="2.58706">
        <ele>41.6</ele>
        <time>2023-08-05T11:35:26Z</time>
      </trkpt>
      <trkpt lat="50.80968" lon="2.58708">
        <ele>41.6</ele>
        <time>2023-08-05T11:35:27Z</time>
      </trkpt>
      <trkpt lat="50.80967" lon="2.58709">
        <ele>41.6</ele>
        <time>2023-08-05T11:35:28Z</time>
      </trkpt>
      <trkpt lat="50.80965" lon="2.5871">
        <ele>41.6</ele>
        <time>2023-08-05T11:35:29Z</time>
      </trkpt>
      <trkpt lat="50.80963" lon="2.58711">
        <ele>41.6</ele>
        <time>2023-08-05T11:35:30Z</time>
      </trkpt>
      <trkpt lat="50.80962" lon="2.58711">
        <ele>41.6</ele>
        <time>2023-08-05T11:35:31Z</time>
      </trkpt>
      <trkpt lat="50.8096" lon="2.58712">
        <ele>41.6</ele>
        <time>2023-08-05T11:35:32Z</time>
      </trkpt>
      <trkpt lat="50.80958" lon="2.58712">
        <ele>41.6</ele>
        <time>2023-08-05T11:35:33Z</time>
      </trkpt>
      <trkpt lat="50.80956" lon="2.58713">
        <ele>41.6</ele>
        <time>2023-08-05T11:35:34Z</time>
      </trkpt>
      <trkpt lat="50.80954" lon="2.58715">
        <ele>41.6</ele>
        <time>2023-08-05T11:35:35Z</time>
      </trkpt>
      <trkpt lat="50.80952" lon="2.58718">
        <ele>41.6</ele>
        <time>2023-08-05T11:35:36Z</time>
      </trkpt>
      <trkpt lat="50.80951" lon="2.5872">
        <ele>41.4</ele>
        <time>2023-08-05T11:35:37Z</time>
      </trkpt>
      <trkpt lat="50.80949" lon="2.58722">
        <ele>41.4</ele>
        <time>2023-08-05T11:35:38Z</time>
      </trkpt>
      <trkpt lat="50.80944" lon="2.58728">
        <ele>41.4</ele>
        <time>2023-08-05T11:35:42Z</time>
      </trkpt>
      <trkpt lat="50.80943" lon="2.5873">
        <ele>41.2</ele>
        <time>2023-08-05T11:35:43Z</time>
      </trkpt>
      <trkpt lat="50.80942" lon="2.58732">
        <ele>41.2</ele>
        <time>2023-08-05T11:35:44Z</time>
      </trkpt>
      <trkpt lat="50.80941" lon="2.58734">
        <ele>41.2</ele>
        <time>2023-08-05T11:35:45Z</time>
      </trkpt>
      <trkpt lat="50.8094" lon="2.58735">
        <ele>41.2</ele>
        <time>2023-08-05T11:35:46Z</time>
      </trkpt>
      <trkpt lat="50.80939" lon="2.58737">
        <ele>41.2</ele>
        <time>2023-08-05T11:35:47Z</time>
      </trkpt>
      <trkpt lat="50.80938" lon="2.58739">
        <ele>41.2</ele>
        <time>2023-08-05T11:35:48Z</time>
      </trkpt>
      <trkpt lat="50.80936" lon="2.5874">
        <ele>41.2</ele>
        <time>2023-08-05T11:35:49Z</time>
      </trkpt>
      <trkpt lat="50.80935" lon="2.58741">
        <ele>41.2</ele>
        <time>2023-08-05T11:35:50Z</time>
      </trkpt>
      <trkpt lat="50.80934" lon="2.58743">
        <ele>41.2</ele>
        <time>2023-08-05T11:35:51Z</time>
      </trkpt>
      <trkpt lat="50.80932" lon="2.58744">
        <ele>41.2</ele>
        <time>2023-08-05T11:35:52Z</time>
      </trkpt>
      <trkpt lat="50.80925" lon="2.58755">
        <ele>41</ele>
        <time>2023-08-05T11:35:58Z</time>
      </trkpt>
      <trkpt lat="50.80917" lon="2.58769">
        <ele>40.6</ele>
        <time>2023-08-05T11:36:06Z</time>
      </trkpt>
      <trkpt lat="50.80917" lon="2.58771">
        <ele>40.6</ele>
        <time>2023-08-05T11:36:07Z</time>
      </trkpt>
      <trkpt lat="50.80916" lon="2.58773">
        <ele>40.6</ele>
        <time>2023-08-05T11:36:08Z</time>
      </trkpt>
      <trkpt lat="50.80915" lon="2.58775">
        <ele>40.4</ele>
        <time>2023-08-05T11:36:09Z</time>
      </trkpt>
      <trkpt lat="50.80913" lon="2.58777">
        <ele>40.4</ele>
        <time>2023-08-05T11:36:10Z</time>
      </trkpt>
      <trkpt lat="50.8091" lon="2.5878">
        <ele>40.4</ele>
        <time>2023-08-05T11:36:12Z</time>
      </trkpt>
      <trkpt lat="50.80909" lon="2.58782">
        <ele>40.4</ele>
        <time>2023-08-05T11:36:13Z</time>
      </trkpt>
      <trkpt lat="50.80902" lon="2.58795">
        <ele>40.2</ele>
        <time>2023-08-05T11:36:20Z</time>
      </trkpt>
      <trkpt lat="50.80901" lon="2.58795">
        <ele>40.2</ele>
        <time>2023-08-05T11:36:21Z</time>
      </trkpt>
      <trkpt lat="50.80899" lon="2.58796">
        <ele>40.2</ele>
        <time>2023-08-05T11:36:22Z</time>
      </trkpt>
      <trkpt lat="50.80898" lon="2.58798">
        <ele>40.2</ele>
        <time>2023-08-05T11:36:23Z</time>
      </trkpt>
      <trkpt lat="50.80897" lon="2.58798">
        <ele>40.2</ele>
        <time>2023-08-05T11:36:24Z</time>
      </trkpt>
      <trkpt lat="50.80896" lon="2.58799">
        <ele>40</ele>
        <time>2023-08-05T11:36:25Z</time>
      </trkpt>
      <trkpt lat="50.80896" lon="2.588">
        <ele>40</ele>
        <time>2023-08-05T11:36:26Z</time>
      </trkpt>
      <trkpt lat="50.80895" lon="2.588">
        <ele>40</ele>
        <time>2023-08-05T11:36:27Z</time>
      </trkpt>
      <trkpt lat="50.80895" lon="2.588">
        <ele>40</ele>
        <time>2023-08-05T11:36:28Z</time>
      </trkpt>
      <trkpt lat="50.80895" lon="2.588">
        <ele>40</ele>
        <time>2023-08-05T11:36:29Z</time>
      </trkpt>
      <trkpt lat="50.80895" lon="2.58804">
        <ele>28.6</ele>
        <time>2023-08-05T11:38:02Z</time>
      </trkpt>
      <trkpt lat="50.80895" lon="2.58807">
        <ele>28.4</ele>
        <time>2023-08-05T11:38:03Z</time>
      </trkpt>
      <trkpt lat="50.80894" lon="2.58809">
        <ele>28.2</ele>
        <time>2023-08-05T11:38:04Z</time>
      </trkpt>
      <trkpt lat="50.80893" lon="2.58816">
        <ele>27.4</ele>
        <time>2023-08-05T11:38:06Z</time>
      </trkpt>
      <trkpt lat="50.80891" lon="2.5882">
        <ele>27</ele>
        <time>2023-08-05T11:38:08Z</time>
      </trkpt>
      <trkpt lat="50.80889" lon="2.58829">
        <ele>26.8</ele>
        <time>2023-08-05T11:38:09Z</time>
      </trkpt>
      <trkpt lat="50.80878" lon="2.5886">
        <ele>25.8</ele>
        <time>2023-08-05T11:38:15Z</time>
      </trkpt>
      <trkpt lat="50.80871" lon="2.58884">
        <ele>25.4</ele>
        <time>2023-08-05T11:38:19Z</time>
      </trkpt>
      <trkpt lat="50.80865" lon="2.58902">
        <ele>24.6</ele>
        <time>2023-08-05T11:38:22Z</time>
      </trkpt>
      <trkpt lat="50.80857" lon="2.58926">
        <ele>24</ele>
        <time>2023-08-05T11:38:26Z</time>
      </trkpt>
      <trkpt lat="50.8085" lon="2.58951">
        <ele>23.8</ele>
        <time>2023-08-05T11:38:30Z</time>
      </trkpt>
      <trkpt lat="50.80846" lon="2.58963">
        <ele>23.6</ele>
        <time>2023-08-05T11:38:32Z</time>
      </trkpt>
      <trkpt lat="50.80834" lon="2.58999">
        <ele>22.8</ele>
        <time>2023-08-05T11:38:38Z</time>
      </trkpt>
      <trkpt lat="50.8082" lon="2.59036">
        <ele>22.4</ele>
        <time>2023-08-05T11:38:44Z</time>
      </trkpt>
      <trkpt lat="50.80809" lon="2.59059">
        <ele>22.2</ele>
        <time>2023-08-05T11:38:48Z</time>
      </trkpt>
      <trkpt lat="50.80781" lon="2.59116">
        <ele>21.6</ele>
        <time>2023-08-05T11:38:58Z</time>
      </trkpt>
      <trkpt lat="50.80779" lon="2.59119">
        <ele>21.2</ele>
        <time>2023-08-05T11:38:59Z</time>
      </trkpt>
      <trkpt lat="50.80777" lon="2.59121">
        <ele>21.2</ele>
        <time>2023-08-05T11:39:00Z</time>
      </trkpt>
      <trkpt lat="50.80774" lon="2.59122">
        <ele>21</ele>
        <time>2023-08-05T11:39:01Z</time>
      </trkpt>
      <trkpt lat="50.80773" lon="2.5912">
        <ele>21</ele>
        <time>2023-08-05T11:39:02Z</time>
      </trkpt>
      <trkpt lat="50.80772" lon="2.59118">
        <ele>20.8</ele>
        <time>2023-08-05T11:39:03Z</time>
      </trkpt>
      <trkpt lat="50.8077" lon="2.59115">
        <ele>20.8</ele>
        <time>2023-08-05T11:39:04Z</time>
      </trkpt>
      <trkpt lat="50.80761" lon="2.59099">
        <ele>20.4</ele>
        <time>2023-08-05T11:39:08Z</time>
      </trkpt>
      <trkpt lat="50.80749" lon="2.59077">
        <ele>19.8</ele>
        <time>2023-08-05T11:39:13Z</time>
      </trkpt>
      <trkpt lat="50.80738" lon="2.59059">
        <ele>19.4</ele>
        <time>2023-08-05T11:39:17Z</time>
      </trkpt>
      <trkpt lat="50.8071" lon="2.59009">
        <ele>18.8</ele>
        <time>2023-08-05T11:39:27Z</time>
      </trkpt>
      <trkpt lat="50.80691" lon="2.58973">
        <ele>22</ele>
        <time>2023-08-05T11:39:34Z</time>
      </trkpt>
      <trkpt lat="50.80688" lon="2.58967">
        <ele>25</ele>
        <time>2023-08-05T11:39:35Z</time>
      </trkpt>
      <trkpt lat="50.80685" lon="2.58962">
        <ele>29</ele>
        <time>2023-08-05T11:39:36Z</time>
      </trkpt>
      <trkpt lat="50.8068" lon="2.58952">
        <ele>31</ele>
        <time>2023-08-05T11:39:38Z</time>
      </trkpt>
      <trkpt lat="50.80677" lon="2.58947">
        <ele>31.2</ele>
        <time>2023-08-05T11:39:39Z</time>
      </trkpt>
      <trkpt lat="50.80675" lon="2.58942">
        <ele>31.4</ele>
        <time>2023-08-05T11:39:40Z</time>
      </trkpt>
      <trkpt lat="50.80672" lon="2.58937">
        <ele>31.4</ele>
        <time>2023-08-05T11:39:41Z</time>
      </trkpt>
      <trkpt lat="50.80672" lon="2.58937">
        <ele>31.4</ele>
        <time>2023-08-05T11:39:42Z</time>
      </trkpt>
      <trkpt lat="50.80667" lon="2.58927">
        <ele>31.4</ele>
        <time>2023-08-05T11:39:43Z</time>
      </trkpt>
      <trkpt lat="50.80664" lon="2.58921">
        <ele>31.4</ele>
        <time>2023-08-05T11:39:44Z</time>
      </trkpt>
      <trkpt lat="50.80661" lon="2.58916">
        <ele>31.4</ele>
        <time>2023-08-05T11:39:45Z</time>
      </trkpt>
      <trkpt lat="50.80659" lon="2.58912">
        <ele>31.4</ele>
        <time>2023-08-05T11:39:46Z</time>
      </trkpt>
      <trkpt lat="50.80656" lon="2.58907">
        <ele>31.2</ele>
        <time>2023-08-05T11:39:47Z</time>
      </trkpt>
      <trkpt lat="50.80654" lon="2.58902">
        <ele>31.2</ele>
        <time>2023-08-05T11:39:48Z</time>
      </trkpt>
      <trkpt lat="50.80651" lon="2.58899">
        <ele>31.2</ele>
        <time>2023-08-05T11:39:49Z</time>
      </trkpt>
      <trkpt lat="50.80651" lon="2.58899">
        <ele>31</ele>
        <time>2023-08-05T11:39:50Z</time>
      </trkpt>
      <trkpt lat="50.80644" lon="2.58896">
        <ele>31</ele>
        <time>2023-08-05T11:39:51Z</time>
      </trkpt>
      <trkpt lat="50.80641" lon="2.58898">
        <ele>30.8</ele>
        <time>2023-08-05T11:39:52Z</time>
      </trkpt>
      <trkpt lat="50.80641" lon="2.58898">
        <ele>30.8</ele>
        <time>2023-08-05T11:39:53Z</time>
      </trkpt>
      <trkpt lat="50.80635" lon="2.58905">
        <ele>30.6</ele>
        <time>2023-08-05T11:39:54Z</time>
      </trkpt>
      <trkpt lat="50.80632" lon="2.5891">
        <ele>30.6</ele>
        <time>2023-08-05T11:39:55Z</time>
      </trkpt>
      <trkpt lat="50.80629" lon="2.58914">
        <ele>30.6</ele>
        <time>2023-08-05T11:39:56Z</time>
      </trkpt>
      <trkpt lat="50.80626" lon="2.58918">
        <ele>30.6</ele>
        <time>2023-08-05T11:39:57Z</time>
      </trkpt>
      <trkpt lat="50.80626" lon="2.58918">
        <ele>30.4</ele>
        <time>2023-08-05T11:39:58Z</time>
      </trkpt>
      <trkpt lat="50.80619" lon="2.58926">
        <ele>30.4</ele>
        <time>2023-08-05T11:39:59Z</time>
      </trkpt>
      <trkpt lat="50.80616" lon="2.5893">
        <ele>30.2</ele>
        <time>2023-08-05T11:40:00Z</time>
      </trkpt>
      <trkpt lat="50.80612" lon="2.58935">
        <ele>30.2</ele>
        <time>2023-08-05T11:40:01Z</time>
      </trkpt>
      <trkpt lat="50.80609" lon="2.58938">
        <ele>30.2</ele>
        <time>2023-08-05T11:40:02Z</time>
      </trkpt>
      <trkpt lat="50.80606" lon="2.58942">
        <ele>30.2</ele>
        <time>2023-08-05T11:40:03Z</time>
      </trkpt>
      <trkpt lat="50.80603" lon="2.58946">
        <ele>30.2</ele>
        <time>2023-08-05T11:40:04Z</time>
      </trkpt>
      <trkpt lat="50.806" lon="2.58951">
        <ele>30</ele>
        <time>2023-08-05T11:40:05Z</time>
      </trkpt>
      <trkpt lat="50.80596" lon="2.58955">
        <ele>30</ele>
        <time>2023-08-05T11:40:06Z</time>
      </trkpt>
      <trkpt lat="50.80593" lon="2.5896">
        <ele>30</ele>
        <time>2023-08-05T11:40:07Z</time>
      </trkpt>
      <trkpt lat="50.8059" lon="2.58964">
        <ele>30</ele>
        <time>2023-08-05T11:40:08Z</time>
      </trkpt>
      <trkpt lat="50.80583" lon="2.58973">
        <ele>30</ele>
        <time>2023-08-05T11:40:10Z</time>
      </trkpt>
      <trkpt lat="50.8057" lon="2.58992">
        <ele>30.2</ele>
        <time>2023-08-05T11:40:14Z</time>
      </trkpt>
      <trkpt lat="50.80538" lon="2.59031">
        <ele>30.8</ele>
        <time>2023-08-05T11:40:23Z</time>
      </trkpt>
      <trkpt lat="50.80516" lon="2.5906">
        <ele>33</ele>
        <time>2023-08-05T11:40:29Z</time>
      </trkpt>
      <trkpt lat="50.80512" lon="2.59065">
        <ele>35</ele>
        <time>2023-08-05T11:40:30Z</time>
      </trkpt>
      <trkpt lat="50.80509" lon="2.59069">
        <ele>40</ele>
        <time>2023-08-05T11:40:31Z</time>
      </trkpt>
      <trkpt lat="50.80506" lon="2.59073">
        <ele>42.2</ele>
        <time>2023-08-05T11:40:32Z</time>
      </trkpt>
      <trkpt lat="50.80502" lon="2.59078">
        <ele>46</ele>
        <time>2023-08-05T11:40:33Z</time>
      </trkpt>
      <trkpt lat="50.80499" lon="2.59083">
        <ele>47.8</ele>
        <time>2023-08-05T11:40:34Z</time>
      </trkpt>
      <trkpt lat="50.80496" lon="2.59088">
        <ele>50.4</ele>
        <time>2023-08-05T11:40:35Z</time>
      </trkpt>
      <trkpt lat="50.80493" lon="2.59092">
        <ele>52.2</ele>
        <time>2023-08-05T11:40:36Z</time>
      </trkpt>
      <trkpt lat="50.80491" lon="2.59095">
        <ele>52.8</ele>
        <time>2023-08-05T11:40:37Z</time>
      </trkpt>
      <trkpt lat="50.80489" lon="2.59098">
        <ele>54</ele>
        <time>2023-08-05T11:40:38Z</time>
      </trkpt>
      <trkpt lat="50.80488" lon="2.59101">
        <ele>54.6</ele>
        <time>2023-08-05T11:40:39Z</time>
      </trkpt>
      <trkpt lat="50.80487" lon="2.59103">
        <ele>55</ele>
        <time>2023-08-05T11:40:40Z</time>
      </trkpt>
      <trkpt lat="50.80486" lon="2.59104">
        <ele>55.2</ele>
        <time>2023-08-05T11:40:41Z</time>
      </trkpt>
      <trkpt lat="50.80484" lon="2.59104">
        <ele>55.4</ele>
        <time>2023-08-05T11:40:42Z</time>
      </trkpt>
      <trkpt lat="50.80482" lon="2.59104">
        <ele>55.6</ele>
        <time>2023-08-05T11:40:43Z</time>
      </trkpt>
      <trkpt lat="50.80481" lon="2.59103">
        <ele>55.6</ele>
        <time>2023-08-05T11:40:44Z</time>
      </trkpt>
      <trkpt lat="50.80479" lon="2.59103">
        <ele>55.6</ele>
        <time>2023-08-05T11:40:45Z</time>
      </trkpt>
      <trkpt lat="50.80477" lon="2.59106">
        <ele>55.6</ele>
        <time>2023-08-05T11:40:46Z</time>
      </trkpt>
      <trkpt lat="50.80477" lon="2.59111">
        <ele>55.6</ele>
        <time>2023-08-05T11:40:47Z</time>
      </trkpt>
      <trkpt lat="50.80475" lon="2.59123">
        <ele>55.6</ele>
        <time>2023-08-05T11:40:49Z</time>
      </trkpt>
      <trkpt lat="50.80474" lon="2.59128">
        <ele>55.4</ele>
        <time>2023-08-05T11:40:50Z</time>
      </trkpt>
      <trkpt lat="50.80472" lon="2.59133">
        <ele>55.4</ele>
        <time>2023-08-05T11:40:51Z</time>
      </trkpt>
      <trkpt lat="50.8047" lon="2.59137">
        <ele>55</ele>
        <time>2023-08-05T11:40:52Z</time>
      </trkpt>
      <trkpt lat="50.80467" lon="2.59143">
        <ele>55</ele>
        <time>2023-08-05T11:40:53Z</time>
      </trkpt>
      <trkpt lat="50.80464" lon="2.59147">
        <ele>54.8</ele>
        <time>2023-08-05T11:40:54Z</time>
      </trkpt>
      <trkpt lat="50.80463" lon="2.59151">
        <ele>54.6</ele>
        <time>2023-08-05T11:40:55Z</time>
      </trkpt>
      <trkpt lat="50.80461" lon="2.59156">
        <ele>54.6</ele>
        <time>2023-08-05T11:40:56Z</time>
      </trkpt>
      <trkpt lat="50.80459" lon="2.59161">
        <ele>54.4</ele>
        <time>2023-08-05T11:40:57Z</time>
      </trkpt>
      <trkpt lat="50.80457" lon="2.59167">
        <ele>54.2</ele>
        <time>2023-08-05T11:40:58Z</time>
      </trkpt>
      <trkpt lat="50.80455" lon="2.59172">
        <ele>54.2</ele>
        <time>2023-08-05T11:40:59Z</time>
      </trkpt>
      <trkpt lat="50.80454" lon="2.59176">
        <ele>54</ele>
        <time>2023-08-05T11:41:00Z</time>
      </trkpt>
      <trkpt lat="50.80452" lon="2.59181">
        <ele>54</ele>
        <time>2023-08-05T11:41:01Z</time>
      </trkpt>
      <trkpt lat="50.80449" lon="2.59187">
        <ele>53.8</ele>
        <time>2023-08-05T11:41:02Z</time>
      </trkpt>
      <trkpt lat="50.80447" lon="2.59192">
        <ele>53.8</ele>
        <time>2023-08-05T11:41:03Z</time>
      </trkpt>
      <trkpt lat="50.80444" lon="2.59197">
        <ele>53.8</ele>
        <time>2023-08-05T11:41:04Z</time>
      </trkpt>
      <trkpt lat="50.80444" lon="2.59197">
        <ele>53.6</ele>
        <time>2023-08-05T11:41:05Z</time>
      </trkpt>
      <trkpt lat="50.80439" lon="2.59204">
        <ele>53.6</ele>
        <time>2023-08-05T11:41:06Z</time>
      </trkpt>
      <trkpt lat="50.80436" lon="2.59209">
        <ele>53.4</ele>
        <time>2023-08-05T11:41:07Z</time>
      </trkpt>
      <trkpt lat="50.80433" lon="2.59213">
        <ele>53.2</ele>
        <time>2023-08-05T11:41:08Z</time>
      </trkpt>
      <trkpt lat="50.80429" lon="2.59217">
        <ele>53</ele>
        <time>2023-08-05T11:41:09Z</time>
      </trkpt>
      <trkpt lat="50.80427" lon="2.59221">
        <ele>53</ele>
        <time>2023-08-05T11:41:10Z</time>
      </trkpt>
      <trkpt lat="50.80424" lon="2.59225">
        <ele>53</ele>
        <time>2023-08-05T11:41:11Z</time>
      </trkpt>
      <trkpt lat="50.80392" lon="2.59263">
        <ele>52</ele>
        <time>2023-08-05T11:41:21Z</time>
      </trkpt>
      <trkpt lat="50.80389" lon="2.59267">
        <ele>52</ele>
        <time>2023-08-05T11:41:22Z</time>
      </trkpt>
      <trkpt lat="50.80386" lon="2.59272">
        <ele>51.8</ele>
        <time>2023-08-05T11:41:23Z</time>
      </trkpt>
      <trkpt lat="50.80377" lon="2.59284">
        <ele>51.4</ele>
        <time>2023-08-05T11:41:26Z</time>
      </trkpt>
      <trkpt lat="50.80374" lon="2.59287">
        <ele>51.2</ele>
        <time>2023-08-05T11:41:27Z</time>
      </trkpt>
      <trkpt lat="50.80361" lon="2.59303">
        <ele>51</ele>
        <time>2023-08-05T11:41:31Z</time>
      </trkpt>
      <trkpt lat="50.80344" lon="2.59324">
        <ele>50.6</ele>
        <time>2023-08-05T11:41:36Z</time>
      </trkpt>
      <trkpt lat="50.80326" lon="2.59347">
        <ele>49.8</ele>
        <time>2023-08-05T11:41:41Z</time>
      </trkpt>
      <trkpt lat="50.80311" lon="2.59369">
        <ele>49.4</ele>
        <time>2023-08-05T11:41:46Z</time>
      </trkpt>
      <trkpt lat="50.80306" lon="2.59377">
        <ele>49.4</ele>
        <time>2023-08-05T11:41:48Z</time>
      </trkpt>
      <trkpt lat="50.80303" lon="2.59382">
        <ele>49.2</ele>
        <time>2023-08-05T11:41:49Z</time>
      </trkpt>
      <trkpt lat="50.803" lon="2.59387">
        <ele>49.2</ele>
        <time>2023-08-05T11:41:50Z</time>
      </trkpt>
      <trkpt lat="50.80297" lon="2.59391">
        <ele>49.2</ele>
        <time>2023-08-05T11:41:51Z</time>
      </trkpt>
      <trkpt lat="50.80295" lon="2.59396">
        <ele>49</ele>
        <time>2023-08-05T11:41:52Z</time>
      </trkpt>
      <trkpt lat="50.80293" lon="2.59399">
        <ele>49</ele>
        <time>2023-08-05T11:41:53Z</time>
      </trkpt>
      <trkpt lat="50.8029" lon="2.59404">
        <ele>48.8</ele>
        <time>2023-08-05T11:41:54Z</time>
      </trkpt>
      <trkpt lat="50.80287" lon="2.59409">
        <ele>48.8</ele>
        <time>2023-08-05T11:41:55Z</time>
      </trkpt>
      <trkpt lat="50.80287" lon="2.59409">
        <ele>48.8</ele>
        <time>2023-08-05T11:41:56Z</time>
      </trkpt>
      <trkpt lat="50.80261" lon="2.59455">
        <ele>48</ele>
        <time>2023-08-05T11:42:05Z</time>
      </trkpt>
      <trkpt lat="50.80251" lon="2.5949">
        <ele>48</ele>
        <time>2023-08-05T11:42:11Z</time>
      </trkpt>
      <trkpt lat="50.80245" lon="2.59514">
        <ele>47.8</ele>
        <time>2023-08-05T11:42:15Z</time>
      </trkpt>
      <trkpt lat="50.8023" lon="2.59558">
        <ele>46.8</ele>
        <time>2023-08-05T11:42:23Z</time>
      </trkpt>
      <trkpt lat="50.80227" lon="2.59564">
        <ele>46.6</ele>
        <time>2023-08-05T11:42:24Z</time>
      </trkpt>
      <trkpt lat="50.80207" lon="2.59603">
        <ele>46.4</ele>
        <time>2023-08-05T11:42:32Z</time>
      </trkpt>
      <trkpt lat="50.80182" lon="2.59661">
        <ele>47</ele>
        <time>2023-08-05T11:42:41Z</time>
      </trkpt>
      <trkpt lat="50.80167" lon="2.59699">
        <ele>47.4</ele>
        <time>2023-08-05T11:42:46Z</time>
      </trkpt>
      <trkpt lat="50.80163" lon="2.59707">
        <ele>47.4</ele>
        <time>2023-08-05T11:42:47Z</time>
      </trkpt>
      <trkpt lat="50.80156" lon="2.59723">
        <ele>47.6</ele>
        <time>2023-08-05T11:42:49Z</time>
      </trkpt>
      <trkpt lat="50.80138" lon="2.59768">
        <ele>47.6</ele>
        <time>2023-08-05T11:42:55Z</time>
      </trkpt>
      <trkpt lat="50.80134" lon="2.59775">
        <ele>47.6</ele>
        <time>2023-08-05T11:42:56Z</time>
      </trkpt>
      <trkpt lat="50.80131" lon="2.59783">
        <ele>47.6</ele>
        <time>2023-08-05T11:42:57Z</time>
      </trkpt>
      <trkpt lat="50.8012" lon="2.59805">
        <ele>47.8</ele>
        <time>2023-08-05T11:43:00Z</time>
      </trkpt>
      <trkpt lat="50.80114" lon="2.5982">
        <ele>48</ele>
        <time>2023-08-05T11:43:02Z</time>
      </trkpt>
      <trkpt lat="50.80107" lon="2.59834">
        <ele>48.2</ele>
        <time>2023-08-05T11:43:04Z</time>
      </trkpt>
      <trkpt lat="50.80103" lon="2.59841">
        <ele>48.4</ele>
        <time>2023-08-05T11:43:05Z</time>
      </trkpt>
      <trkpt lat="50.80089" lon="2.59864">
        <ele>48.6</ele>
        <time>2023-08-05T11:43:09Z</time>
      </trkpt>
      <trkpt lat="50.80085" lon="2.59869">
        <ele>48.6</ele>
        <time>2023-08-05T11:43:10Z</time>
      </trkpt>
      <trkpt lat="50.80081" lon="2.59875">
        <ele>48.8</ele>
        <time>2023-08-05T11:43:11Z</time>
      </trkpt>
      <trkpt lat="50.80077" lon="2.59881">
        <ele>48.8</ele>
        <time>2023-08-05T11:43:12Z</time>
      </trkpt>
      <trkpt lat="50.80073" lon="2.59887">
        <ele>48.8</ele>
        <time>2023-08-05T11:43:13Z</time>
      </trkpt>
      <trkpt lat="50.80071" lon="2.59891">
        <ele>49</ele>
        <time>2023-08-05T11:43:14Z</time>
      </trkpt>
      <trkpt lat="50.80068" lon="2.59896">
        <ele>49</ele>
        <time>2023-08-05T11:43:15Z</time>
      </trkpt>
      <trkpt lat="50.80065" lon="2.59901">
        <ele>49</ele>
        <time>2023-08-05T11:43:16Z</time>
      </trkpt>
      <trkpt lat="50.80061" lon="2.59906">
        <ele>49.2</ele>
        <time>2023-08-05T11:43:17Z</time>
      </trkpt>
      <trkpt lat="50.80058" lon="2.59911">
        <ele>49.2</ele>
        <time>2023-08-05T11:43:18Z</time>
      </trkpt>
      <trkpt lat="50.80055" lon="2.59916">
        <ele>49.2</ele>
        <time>2023-08-05T11:43:19Z</time>
      </trkpt>
      <trkpt lat="50.80052" lon="2.5992">
        <ele>49.4</ele>
        <time>2023-08-05T11:43:20Z</time>
      </trkpt>
      <trkpt lat="50.80049" lon="2.59926">
        <ele>49.4</ele>
        <time>2023-08-05T11:43:21Z</time>
      </trkpt>
      <trkpt lat="50.80046" lon="2.59931">
        <ele>49.4</ele>
        <time>2023-08-05T11:43:22Z</time>
      </trkpt>
      <trkpt lat="50.80043" lon="2.59936">
        <ele>49.6</ele>
        <time>2023-08-05T11:43:23Z</time>
      </trkpt>
      <trkpt lat="50.80037" lon="2.59945">
        <ele>49.6</ele>
        <time>2023-08-05T11:43:25Z</time>
      </trkpt>
      <trkpt lat="50.80003" lon="2.59994">
        <ele>50</ele>
        <time>2023-08-05T11:43:35Z</time>
      </trkpt>
      <trkpt lat="50.79991" lon="2.60006">
        <ele>50</ele>
        <time>2023-08-05T11:43:38Z</time>
      </trkpt>
      <trkpt lat="50.79987" lon="2.60009">
        <ele>50</ele>
        <time>2023-08-05T11:43:39Z</time>
      </trkpt>
      <trkpt lat="50.79982" lon="2.60013">
        <ele>50</ele>
        <time>2023-08-05T11:43:40Z</time>
      </trkpt>
      <trkpt lat="50.79978" lon="2.60016">
        <ele>50</ele>
        <time>2023-08-05T11:43:41Z</time>
      </trkpt>
      <trkpt lat="50.79974" lon="2.60019">
        <ele>50</ele>
        <time>2023-08-05T11:43:42Z</time>
      </trkpt>
      <trkpt lat="50.7997" lon="2.60022">
        <ele>50</ele>
        <time>2023-08-05T11:43:43Z</time>
      </trkpt>
      <trkpt lat="50.79963" lon="2.60026">
        <ele>50</ele>
        <time>2023-08-05T11:43:45Z</time>
      </trkpt>
      <trkpt lat="50.79959" lon="2.60028">
        <ele>50</ele>
        <time>2023-08-05T11:43:46Z</time>
      </trkpt>
      <trkpt lat="50.79956" lon="2.6003">
        <ele>49.8</ele>
        <time>2023-08-05T11:43:47Z</time>
      </trkpt>
      <trkpt lat="50.79952" lon="2.60031">
        <ele>49.8</ele>
        <time>2023-08-05T11:43:48Z</time>
      </trkpt>
      <trkpt lat="50.79949" lon="2.60033">
        <ele>49.8</ele>
        <time>2023-08-05T11:43:49Z</time>
      </trkpt>
      <trkpt lat="50.79944" lon="2.60036">
        <ele>49.6</ele>
        <time>2023-08-05T11:43:50Z</time>
      </trkpt>
      <trkpt lat="50.79941" lon="2.60038">
        <ele>49.4</ele>
        <time>2023-08-05T11:43:51Z</time>
      </trkpt>
      <trkpt lat="50.79937" lon="2.6004">
        <ele>49.4</ele>
        <time>2023-08-05T11:43:52Z</time>
      </trkpt>
      <trkpt lat="50.79934" lon="2.60043">
        <ele>49.2</ele>
        <time>2023-08-05T11:43:53Z</time>
      </trkpt>
      <trkpt lat="50.79923" lon="2.60051">
        <ele>49</ele>
        <time>2023-08-05T11:43:56Z</time>
      </trkpt>
      <trkpt lat="50.79912" lon="2.60059">
        <ele>48.8</ele>
        <time>2023-08-05T11:43:59Z</time>
      </trkpt>
      <trkpt lat="50.79883" lon="2.6008">
        <ele>48</ele>
        <time>2023-08-05T11:44:07Z</time>
      </trkpt>
      <trkpt lat="50.79876" lon="2.60085">
        <ele>47.8</ele>
        <time>2023-08-05T11:44:09Z</time>
      </trkpt>
      <trkpt lat="50.79873" lon="2.60088">
        <ele>47.8</ele>
        <time>2023-08-05T11:44:10Z</time>
      </trkpt>
      <trkpt lat="50.79869" lon="2.60091">
        <ele>47.6</ele>
        <time>2023-08-05T11:44:11Z</time>
      </trkpt>
      <trkpt lat="50.79867" lon="2.60093">
        <ele>47.6</ele>
        <time>2023-08-05T11:44:12Z</time>
      </trkpt>
      <trkpt lat="50.79863" lon="2.60097">
        <ele>47.6</ele>
        <time>2023-08-05T11:44:13Z</time>
      </trkpt>
      <trkpt lat="50.7986" lon="2.60101">
        <ele>47.4</ele>
        <time>2023-08-05T11:44:14Z</time>
      </trkpt>
      <trkpt lat="50.79858" lon="2.60105">
        <ele>47.4</ele>
        <time>2023-08-05T11:44:15Z</time>
      </trkpt>
      <trkpt lat="50.79853" lon="2.60122">
        <ele>47.4</ele>
        <time>2023-08-05T11:44:18Z</time>
      </trkpt>
      <trkpt lat="50.79852" lon="2.60128">
        <ele>47.4</ele>
        <time>2023-08-05T11:44:19Z</time>
      </trkpt>
      <trkpt lat="50.79852" lon="2.60134">
        <ele>47.4</ele>
        <time>2023-08-05T11:44:20Z</time>
      </trkpt>
      <trkpt lat="50.79852" lon="2.60155">
        <ele>46.8</ele>
        <time>2023-08-05T11:44:23Z</time>
      </trkpt>
      <trkpt lat="50.79851" lon="2.60174">
        <ele>46.6</ele>
        <time>2023-08-05T11:44:26Z</time>
      </trkpt>
      <trkpt lat="50.7985" lon="2.60181">
        <ele>46.4</ele>
        <time>2023-08-05T11:44:27Z</time>
      </trkpt>
      <trkpt lat="50.79844" lon="2.60206">
        <ele>46</ele>
        <time>2023-08-05T11:44:31Z</time>
      </trkpt>
      <trkpt lat="50.7984" lon="2.60217">
        <ele>46</ele>
        <time>2023-08-05T11:44:33Z</time>
      </trkpt>
      <trkpt lat="50.79832" lon="2.60233">
        <ele>45.6</ele>
        <time>2023-08-05T11:44:36Z</time>
      </trkpt>
      <trkpt lat="50.79815" lon="2.60263">
        <ele>45.2</ele>
        <time>2023-08-05T11:44:42Z</time>
      </trkpt>
      <trkpt lat="50.79792" lon="2.603">
        <ele>44.8</ele>
        <time>2023-08-05T11:44:50Z</time>
      </trkpt>
      <trkpt lat="50.79788" lon="2.60303">
        <ele>44.8</ele>
        <time>2023-08-05T11:44:51Z</time>
      </trkpt>
      <trkpt lat="50.79785" lon="2.60304">
        <ele>44.8</ele>
        <time>2023-08-05T11:44:52Z</time>
      </trkpt>
      <trkpt lat="50.79781" lon="2.60306">
        <ele>44.8</ele>
        <time>2023-08-05T11:44:53Z</time>
      </trkpt>
      <trkpt lat="50.79777" lon="2.60306">
        <ele>44.6</ele>
        <time>2023-08-05T11:44:54Z</time>
      </trkpt>
      <trkpt lat="50.79774" lon="2.60307">
        <ele>44.6</ele>
        <time>2023-08-05T11:44:55Z</time>
      </trkpt>
      <trkpt lat="50.79771" lon="2.60307">
        <ele>44.6</ele>
        <time>2023-08-05T11:44:56Z</time>
      </trkpt>
      <trkpt lat="50.79768" lon="2.60309">
        <ele>44.6</ele>
        <time>2023-08-05T11:44:57Z</time>
      </trkpt>
      <trkpt lat="50.79764" lon="2.6031">
        <ele>44.6</ele>
        <time>2023-08-05T11:44:58Z</time>
      </trkpt>
      <trkpt lat="50.79761" lon="2.60311">
        <ele>44.6</ele>
        <time>2023-08-05T11:44:59Z</time>
      </trkpt>
      <trkpt lat="50.79758" lon="2.60311">
        <ele>44.4</ele>
        <time>2023-08-05T11:45:00Z</time>
      </trkpt>
      <trkpt lat="50.79754" lon="2.60312">
        <ele>44.4</ele>
        <time>2023-08-05T11:45:01Z</time>
      </trkpt>
      <trkpt lat="50.79751" lon="2.60313">
        <ele>44.4</ele>
        <time>2023-08-05T11:45:02Z</time>
      </trkpt>
      <trkpt lat="50.79748" lon="2.60315">
        <ele>44.4</ele>
        <time>2023-08-05T11:45:03Z</time>
      </trkpt>
      <trkpt lat="50.79745" lon="2.60316">
        <ele>44.2</ele>
        <time>2023-08-05T11:45:04Z</time>
      </trkpt>
      <trkpt lat="50.79741" lon="2.60317">
        <ele>44.2</ele>
        <time>2023-08-05T11:45:05Z</time>
      </trkpt>
      <trkpt lat="50.79738" lon="2.60319">
        <ele>44</ele>
        <time>2023-08-05T11:45:06Z</time>
      </trkpt>
      <trkpt lat="50.79722" lon="2.60328">
        <ele>44.2</ele>
        <time>2023-08-05T11:45:11Z</time>
      </trkpt>
      <trkpt lat="50.79716" lon="2.60332">
        <ele>44.2</ele>
        <time>2023-08-05T11:45:13Z</time>
      </trkpt>
      <trkpt lat="50.79687" lon="2.60352">
        <ele>44.4</ele>
        <time>2023-08-05T11:45:22Z</time>
      </trkpt>
      <trkpt lat="50.7966" lon="2.60375">
        <ele>44.6</ele>
        <time>2023-08-05T11:45:30Z</time>
      </trkpt>
      <trkpt lat="50.79624" lon="2.60407">
        <ele>45</ele>
        <time>2023-08-05T11:45:39Z</time>
      </trkpt>
      <trkpt lat="50.79593" lon="2.60435">
        <ele>45.6</ele>
        <time>2023-08-05T11:45:46Z</time>
      </trkpt>
      <trkpt lat="50.79579" lon="2.60447">
        <ele>45.8</ele>
        <time>2023-08-05T11:45:49Z</time>
      </trkpt>
      <trkpt lat="50.79564" lon="2.60461">
        <ele>46.4</ele>
        <time>2023-08-05T11:45:52Z</time>
      </trkpt>
      <trkpt lat="50.79529" lon="2.60494">
        <ele>47.6</ele>
        <time>2023-08-05T11:45:59Z</time>
      </trkpt>
      <trkpt lat="50.79524" lon="2.60498">
        <ele>47.6</ele>
        <time>2023-08-05T11:46:00Z</time>
      </trkpt>
      <trkpt lat="50.79519" lon="2.60502">
        <ele>48</ele>
        <time>2023-08-05T11:46:01Z</time>
      </trkpt>
      <trkpt lat="50.79513" lon="2.60507">
        <ele>48.2</ele>
        <time>2023-08-05T11:46:02Z</time>
      </trkpt>
      <trkpt lat="50.79508" lon="2.60511">
        <ele>48.2</ele>
        <time>2023-08-05T11:46:03Z</time>
      </trkpt>
      <trkpt lat="50.79503" lon="2.60515">
        <ele>48.4</ele>
        <time>2023-08-05T11:46:04Z</time>
      </trkpt>
      <trkpt lat="50.79497" lon="2.60518">
        <ele>48.4</ele>
        <time>2023-08-05T11:46:05Z</time>
      </trkpt>
      <trkpt lat="50.79492" lon="2.60522">
        <ele>48.6</ele>
        <time>2023-08-05T11:46:06Z</time>
      </trkpt>
      <trkpt lat="50.79486" lon="2.60525">
        <ele>48.8</ele>
        <time>2023-08-05T11:46:07Z</time>
      </trkpt>
      <trkpt lat="50.79481" lon="2.60527">
        <ele>49</ele>
        <time>2023-08-05T11:46:08Z</time>
      </trkpt>
      <trkpt lat="50.79475" lon="2.60529">
        <ele>49</ele>
        <time>2023-08-05T11:46:09Z</time>
      </trkpt>
      <trkpt lat="50.79469" lon="2.6053">
        <ele>49.2</ele>
        <time>2023-08-05T11:46:10Z</time>
      </trkpt>
      <trkpt lat="50.79464" lon="2.60532">
        <ele>49.4</ele>
        <time>2023-08-05T11:46:11Z</time>
      </trkpt>
      <trkpt lat="50.79458" lon="2.60534">
        <ele>49.6</ele>
        <time>2023-08-05T11:46:12Z</time>
      </trkpt>
      <trkpt lat="50.79452" lon="2.60536">
        <ele>49.8</ele>
        <time>2023-08-05T11:46:13Z</time>
      </trkpt>
      <trkpt lat="50.79447" lon="2.60538">
        <ele>49.8</ele>
        <time>2023-08-05T11:46:14Z</time>
      </trkpt>
      <trkpt lat="50.79442" lon="2.60541">
        <ele>50</ele>
        <time>2023-08-05T11:46:15Z</time>
      </trkpt>
      <trkpt lat="50.79437" lon="2.60545">
        <ele>50.2</ele>
        <time>2023-08-05T11:46:16Z</time>
      </trkpt>
      <trkpt lat="50.79432" lon="2.6055">
        <ele>50.2</ele>
        <time>2023-08-05T11:46:17Z</time>
      </trkpt>
      <trkpt lat="50.79427" lon="2.60555">
        <ele>50.4</ele>
        <time>2023-08-05T11:46:18Z</time>
      </trkpt>
      <trkpt lat="50.79422" lon="2.6056">
        <ele>50.6</ele>
        <time>2023-08-05T11:46:19Z</time>
      </trkpt>
      <trkpt lat="50.79418" lon="2.60567">
        <ele>50.6</ele>
        <time>2023-08-05T11:46:20Z</time>
      </trkpt>
      <trkpt lat="50.79414" lon="2.60574">
        <ele>50.8</ele>
        <time>2023-08-05T11:46:21Z</time>
      </trkpt>
      <trkpt lat="50.79411" lon="2.60581">
        <ele>50.8</ele>
        <time>2023-08-05T11:46:22Z</time>
      </trkpt>
      <trkpt lat="50.79408" lon="2.60588">
        <ele>50.8</ele>
        <time>2023-08-05T11:46:23Z</time>
      </trkpt>
      <trkpt lat="50.79406" lon="2.60595">
        <ele>50.8</ele>
        <time>2023-08-05T11:46:24Z</time>
      </trkpt>
      <trkpt lat="50.79404" lon="2.60602">
        <ele>50.8</ele>
        <time>2023-08-05T11:46:25Z</time>
      </trkpt>
      <trkpt lat="50.79402" lon="2.6061">
        <ele>51</ele>
        <time>2023-08-05T11:46:26Z</time>
      </trkpt>
      <trkpt lat="50.794" lon="2.60617">
        <ele>51</ele>
        <time>2023-08-05T11:46:27Z</time>
      </trkpt>
      <trkpt lat="50.79398" lon="2.60624">
        <ele>51</ele>
        <time>2023-08-05T11:46:28Z</time>
      </trkpt>
      <trkpt lat="50.79397" lon="2.60631">
        <ele>51</ele>
        <time>2023-08-05T11:46:29Z</time>
      </trkpt>
      <trkpt lat="50.79395" lon="2.60638">
        <ele>51</ele>
        <time>2023-08-05T11:46:30Z</time>
      </trkpt>
      <trkpt lat="50.79393" lon="2.60645">
        <ele>51</ele>
        <time>2023-08-05T11:46:31Z</time>
      </trkpt>
      <trkpt lat="50.7939" lon="2.60652">
        <ele>51</ele>
        <time>2023-08-05T11:46:32Z</time>
      </trkpt>
      <trkpt lat="50.79388" lon="2.60658">
        <ele>51</ele>
        <time>2023-08-05T11:46:33Z</time>
      </trkpt>
      <trkpt lat="50.79385" lon="2.60664">
        <ele>51</ele>
        <time>2023-08-05T11:46:34Z</time>
      </trkpt>
      <trkpt lat="50.79382" lon="2.60668">
        <ele>51</ele>
        <time>2023-08-05T11:46:35Z</time>
      </trkpt>
      <trkpt lat="50.79378" lon="2.60673">
        <ele>51</ele>
        <time>2023-08-05T11:46:36Z</time>
      </trkpt>
      <trkpt lat="50.7937" lon="2.60678">
        <ele>51</ele>
        <time>2023-08-05T11:46:38Z</time>
      </trkpt>
      <trkpt lat="50.79366" lon="2.6068">
        <ele>51</ele>
        <time>2023-08-05T11:46:39Z</time>
      </trkpt>
      <trkpt lat="50.79362" lon="2.60681">
        <ele>51</ele>
        <time>2023-08-05T11:46:40Z</time>
      </trkpt>
      <trkpt lat="50.79358" lon="2.60682">
        <ele>51</ele>
        <time>2023-08-05T11:46:41Z</time>
      </trkpt>
      <trkpt lat="50.79354" lon="2.60684">
        <ele>51</ele>
        <time>2023-08-05T11:46:42Z</time>
      </trkpt>
      <trkpt lat="50.79351" lon="2.60686">
        <ele>51</ele>
        <time>2023-08-05T11:46:43Z</time>
      </trkpt>
      <trkpt lat="50.79347" lon="2.60689">
        <ele>51</ele>
        <time>2023-08-05T11:46:44Z</time>
      </trkpt>
      <trkpt lat="50.79345" lon="2.60694">
        <ele>51</ele>
        <time>2023-08-05T11:46:45Z</time>
      </trkpt>
      <trkpt lat="50.79343" lon="2.60699">
        <ele>51</ele>
        <time>2023-08-05T11:46:46Z</time>
      </trkpt>
      <trkpt lat="50.79343" lon="2.60705">
        <ele>51</ele>
        <time>2023-08-05T11:46:47Z</time>
      </trkpt>
      <trkpt lat="50.79344" lon="2.60711">
        <ele>51</ele>
        <time>2023-08-05T11:46:48Z</time>
      </trkpt>
      <trkpt lat="50.79346" lon="2.60717">
        <ele>51</ele>
        <time>2023-08-05T11:46:49Z</time>
      </trkpt>
      <trkpt lat="50.79348" lon="2.60722">
        <ele>51</ele>
        <time>2023-08-05T11:46:50Z</time>
      </trkpt>
      <trkpt lat="50.79351" lon="2.60728">
        <ele>51</ele>
        <time>2023-08-05T11:46:51Z</time>
      </trkpt>
      <trkpt lat="50.79353" lon="2.60734">
        <ele>51</ele>
        <time>2023-08-05T11:46:52Z</time>
      </trkpt>
      <trkpt lat="50.79372" lon="2.6079">
        <ele>51</ele>
        <time>2023-08-05T11:47:00Z</time>
      </trkpt>
      <trkpt lat="50.79387" lon="2.60831">
        <ele>51</ele>
        <time>2023-08-05T11:47:05Z</time>
      </trkpt>
      <trkpt lat="50.79397" lon="2.60856">
        <ele>50.8</ele>
        <time>2023-08-05T11:47:08Z</time>
      </trkpt>
      <trkpt lat="50.79408" lon="2.60883">
        <ele>50.8</ele>
        <time>2023-08-05T11:47:11Z</time>
      </trkpt>
      <trkpt lat="50.79417" lon="2.60911">
        <ele>50.8</ele>
        <time>2023-08-05T11:47:14Z</time>
      </trkpt>
      <trkpt lat="50.79432" lon="2.60943">
        <ele>50.8</ele>
        <time>2023-08-05T11:47:18Z</time>
      </trkpt>
      <trkpt lat="50.79437" lon="2.60951">
        <ele>50.8</ele>
        <time>2023-08-05T11:47:19Z</time>
      </trkpt>
      <trkpt lat="50.79447" lon="2.60965">
        <ele>50.8</ele>
        <time>2023-08-05T11:47:21Z</time>
      </trkpt>
      <trkpt lat="50.79452" lon="2.60972">
        <ele>50.8</ele>
        <time>2023-08-05T11:47:22Z</time>
      </trkpt>
      <trkpt lat="50.79457" lon="2.60979">
        <ele>50.8</ele>
        <time>2023-08-05T11:47:23Z</time>
      </trkpt>
      <trkpt lat="50.79461" lon="2.60985">
        <ele>50.8</ele>
        <time>2023-08-05T11:47:24Z</time>
      </trkpt>
      <trkpt lat="50.79465" lon="2.60992">
        <ele>50.8</ele>
        <time>2023-08-05T11:47:25Z</time>
      </trkpt>
      <trkpt lat="50.7947" lon="2.60999">
        <ele>50.8</ele>
        <time>2023-08-05T11:47:26Z</time>
      </trkpt>
      <trkpt lat="50.79478" lon="2.61013">
        <ele>50.8</ele>
        <time>2023-08-05T11:47:28Z</time>
      </trkpt>
      <trkpt lat="50.79484" lon="2.61029">
        <ele>50.8</ele>
        <time>2023-08-05T11:47:30Z</time>
      </trkpt>
      <trkpt lat="50.79495" lon="2.61079">
        <ele>51</ele>
        <time>2023-08-05T11:47:36Z</time>
      </trkpt>
      <trkpt lat="50.79497" lon="2.61087">
        <ele>51</ele>
        <time>2023-08-05T11:47:37Z</time>
      </trkpt>
      <trkpt lat="50.79499" lon="2.61094">
        <ele>51</ele>
        <time>2023-08-05T11:47:38Z</time>
      </trkpt>
      <trkpt lat="50.795" lon="2.611">
        <ele>51</ele>
        <time>2023-08-05T11:47:39Z</time>
      </trkpt>
      <trkpt lat="50.79502" lon="2.61107">
        <ele>51</ele>
        <time>2023-08-05T11:47:40Z</time>
      </trkpt>
      <trkpt lat="50.79503" lon="2.61114">
        <ele>51</ele>
        <time>2023-08-05T11:47:41Z</time>
      </trkpt>
      <trkpt lat="50.79504" lon="2.6112">
        <ele>51</ele>
        <time>2023-08-05T11:47:42Z</time>
      </trkpt>
      <trkpt lat="50.79506" lon="2.61126">
        <ele>51.2</ele>
        <time>2023-08-05T11:47:43Z</time>
      </trkpt>
      <trkpt lat="50.79507" lon="2.61132">
        <ele>51.2</ele>
        <time>2023-08-05T11:47:44Z</time>
      </trkpt>
      <trkpt lat="50.79508" lon="2.61138">
        <ele>51.2</ele>
        <time>2023-08-05T11:47:45Z</time>
      </trkpt>
      <trkpt lat="50.79509" lon="2.61144">
        <ele>51.2</ele>
        <time>2023-08-05T11:47:46Z</time>
      </trkpt>
      <trkpt lat="50.7951" lon="2.61151">
        <ele>51.2</ele>
        <time>2023-08-05T11:47:47Z</time>
      </trkpt>
      <trkpt lat="50.79511" lon="2.61157">
        <ele>51.4</ele>
        <time>2023-08-05T11:47:48Z</time>
      </trkpt>
      <trkpt lat="50.79512" lon="2.61163">
        <ele>51.4</ele>
        <time>2023-08-05T11:47:49Z</time>
      </trkpt>
      <trkpt lat="50.79513" lon="2.61169">
        <ele>51.4</ele>
        <time>2023-08-05T11:47:50Z</time>
      </trkpt>
      <trkpt lat="50.79515" lon="2.61175">
        <ele>51.4</ele>
        <time>2023-08-05T11:47:51Z</time>
      </trkpt>
      <trkpt lat="50.79516" lon="2.61181">
        <ele>51.4</ele>
        <time>2023-08-05T11:47:52Z</time>
      </trkpt>
      <trkpt lat="50.79517" lon="2.61186">
        <ele>51.4</ele>
        <time>2023-08-05T11:47:53Z</time>
      </trkpt>
      <trkpt lat="50.79518" lon="2.61192">
        <ele>51.6</ele>
        <time>2023-08-05T11:47:54Z</time>
      </trkpt>
      <trkpt lat="50.79519" lon="2.61198">
        <ele>51.6</ele>
        <time>2023-08-05T11:47:55Z</time>
      </trkpt>
      <trkpt lat="50.7952" lon="2.61204">
        <ele>51.6</ele>
        <time>2023-08-05T11:47:56Z</time>
      </trkpt>
      <trkpt lat="50.79522" lon="2.61211">
        <ele>51.6</ele>
        <time>2023-08-05T11:47:57Z</time>
      </trkpt>
      <trkpt lat="50.79523" lon="2.61217">
        <ele>51.6</ele>
        <time>2023-08-05T11:47:58Z</time>
      </trkpt>
      <trkpt lat="50.79524" lon="2.61222">
        <ele>51.6</ele>
        <time>2023-08-05T11:47:59Z</time>
      </trkpt>
      <trkpt lat="50.79526" lon="2.61228">
        <ele>51.6</ele>
        <time>2023-08-05T11:48:00Z</time>
      </trkpt>
      <trkpt lat="50.79527" lon="2.61234">
        <ele>51.6</ele>
        <time>2023-08-05T11:48:01Z</time>
      </trkpt>
      <trkpt lat="50.79529" lon="2.61245">
        <ele>51.6</ele>
        <time>2023-08-05T11:48:03Z</time>
      </trkpt>
      <trkpt lat="50.7953" lon="2.61251">
        <ele>51.6</ele>
        <time>2023-08-05T11:48:04Z</time>
      </trkpt>
      <trkpt lat="50.79533" lon="2.61269">
        <ele>51.6</ele>
        <time>2023-08-05T11:48:07Z</time>
      </trkpt>
      <trkpt lat="50.79541" lon="2.61308">
        <ele>51.8</ele>
        <time>2023-08-05T11:48:13Z</time>
      </trkpt>
      <trkpt lat="50.79544" lon="2.61322">
        <ele>51.8</ele>
        <time>2023-08-05T11:48:15Z</time>
      </trkpt>
      <trkpt lat="50.79547" lon="2.61337">
        <ele>51.8</ele>
        <time>2023-08-05T11:48:17Z</time>
      </trkpt>
      <trkpt lat="50.79552" lon="2.61362">
        <ele>52</ele>
        <time>2023-08-05T11:48:20Z</time>
      </trkpt>
      <trkpt lat="50.79554" lon="2.61379">
        <ele>52.2</ele>
        <time>2023-08-05T11:48:22Z</time>
      </trkpt>
      <trkpt lat="50.79563" lon="2.61425">
        <ele>52.6</ele>
        <time>2023-08-05T11:48:27Z</time>
      </trkpt>
      <trkpt lat="50.79565" lon="2.61435">
        <ele>52.8</ele>
        <time>2023-08-05T11:48:28Z</time>
      </trkpt>
      <trkpt lat="50.79579" lon="2.61509">
        <ele>52.8</ele>
        <time>2023-08-05T11:48:35Z</time>
      </trkpt>
      <trkpt lat="50.79595" lon="2.61599">
        <ele>52.8</ele>
        <time>2023-08-05T11:48:43Z</time>
      </trkpt>
      <trkpt lat="50.79597" lon="2.61611">
        <ele>52.8</ele>
        <time>2023-08-05T11:48:44Z</time>
      </trkpt>
      <trkpt lat="50.79604" lon="2.61643">
        <ele>52.8</ele>
        <time>2023-08-05T11:48:47Z</time>
      </trkpt>
      <trkpt lat="50.79605" lon="2.61653">
        <ele>52.8</ele>
        <time>2023-08-05T11:48:48Z</time>
      </trkpt>
      <trkpt lat="50.79605" lon="2.61663">
        <ele>52.8</ele>
        <time>2023-08-05T11:48:49Z</time>
      </trkpt>
      <trkpt lat="50.79606" lon="2.61673">
        <ele>52.8</ele>
        <time>2023-08-05T11:48:50Z</time>
      </trkpt>
      <trkpt lat="50.79607" lon="2.61681">
        <ele>52.8</ele>
        <time>2023-08-05T11:48:51Z</time>
      </trkpt>
      <trkpt lat="50.79607" lon="2.61689">
        <ele>52.8</ele>
        <time>2023-08-05T11:48:52Z</time>
      </trkpt>
      <trkpt lat="50.79607" lon="2.61696">
        <ele>52.8</ele>
        <time>2023-08-05T11:48:53Z</time>
      </trkpt>
      <trkpt lat="50.79607" lon="2.61704">
        <ele>52.8</ele>
        <time>2023-08-05T11:48:54Z</time>
      </trkpt>
      <trkpt lat="50.79607" lon="2.61711">
        <ele>52.8</ele>
        <time>2023-08-05T11:48:55Z</time>
      </trkpt>
      <trkpt lat="50.79608" lon="2.6172">
        <ele>52.6</ele>
        <time>2023-08-05T11:48:56Z</time>
      </trkpt>
      <trkpt lat="50.79609" lon="2.61735">
        <ele>52.6</ele>
        <time>2023-08-05T11:48:58Z</time>
      </trkpt>
      <trkpt lat="50.7961" lon="2.61743">
        <ele>52.6</ele>
        <time>2023-08-05T11:48:59Z</time>
      </trkpt>
      <trkpt lat="50.7961" lon="2.61743">
        <ele>53</ele>
        <time>2023-08-05T11:49:00Z</time>
      </trkpt>
      <trkpt lat="50.79611" lon="2.61757">
        <ele>53</ele>
        <time>2023-08-05T11:49:01Z</time>
      </trkpt>
      <trkpt lat="50.79611" lon="2.61762">
        <ele>53</ele>
        <time>2023-08-05T11:49:02Z</time>
      </trkpt>
      <trkpt lat="50.79612" lon="2.6177">
        <ele>53</ele>
        <time>2023-08-05T11:49:03Z</time>
      </trkpt>
      <trkpt lat="50.79613" lon="2.61776">
        <ele>53</ele>
        <time>2023-08-05T11:49:04Z</time>
      </trkpt>
      <trkpt lat="50.79613" lon="2.61782">
        <ele>53</ele>
        <time>2023-08-05T11:49:05Z</time>
      </trkpt>
      <trkpt lat="50.79612" lon="2.61787">
        <ele>53</ele>
        <time>2023-08-05T11:49:06Z</time>
      </trkpt>
      <trkpt lat="50.79612" lon="2.61794">
        <ele>53.2</ele>
        <time>2023-08-05T11:49:07Z</time>
      </trkpt>
      <trkpt lat="50.79612" lon="2.61805">
        <ele>53.4</ele>
        <time>2023-08-05T11:49:09Z</time>
      </trkpt>
      <trkpt lat="50.79613" lon="2.61811">
        <ele>53.4</ele>
        <time>2023-08-05T11:49:10Z</time>
      </trkpt>
      <trkpt lat="50.79614" lon="2.61815">
        <ele>53.6</ele>
        <time>2023-08-05T11:49:11Z</time>
      </trkpt>
      <trkpt lat="50.79615" lon="2.6182">
        <ele>53.6</ele>
        <time>2023-08-05T11:49:12Z</time>
      </trkpt>
      <trkpt lat="50.79616" lon="2.61825">
        <ele>53.6</ele>
        <time>2023-08-05T11:49:13Z</time>
      </trkpt>
      <trkpt lat="50.79618" lon="2.6183">
        <ele>53.6</ele>
        <time>2023-08-05T11:49:14Z</time>
      </trkpt>
      <trkpt lat="50.79618" lon="2.61834">
        <ele>53.6</ele>
        <time>2023-08-05T11:49:15Z</time>
      </trkpt>
      <trkpt lat="50.79619" lon="2.61839">
        <ele>53.6</ele>
        <time>2023-08-05T11:49:16Z</time>
      </trkpt>
      <trkpt lat="50.7962" lon="2.61845">
        <ele>53.6</ele>
        <time>2023-08-05T11:49:17Z</time>
      </trkpt>
      <trkpt lat="50.79623" lon="2.61856">
        <ele>53.6</ele>
        <time>2023-08-05T11:49:19Z</time>
      </trkpt>
      <trkpt lat="50.79629" lon="2.61892">
        <ele>53.8</ele>
        <time>2023-08-05T11:49:26Z</time>
      </trkpt>
      <trkpt lat="50.7964" lon="2.61938">
        <ele>53.6</ele>
        <time>2023-08-05T11:49:35Z</time>
      </trkpt>
      <trkpt lat="50.79643" lon="2.61952">
        <ele>53.6</ele>
        <time>2023-08-05T11:49:38Z</time>
      </trkpt>
      <trkpt lat="50.79644" lon="2.61957">
        <ele>53.6</ele>
        <time>2023-08-05T11:49:39Z</time>
      </trkpt>
      <trkpt lat="50.79645" lon="2.61962">
        <ele>53.6</ele>
        <time>2023-08-05T11:49:40Z</time>
      </trkpt>
      <trkpt lat="50.79647" lon="2.61967">
        <ele>53.6</ele>
        <time>2023-08-05T11:49:41Z</time>
      </trkpt>
      <trkpt lat="50.79648" lon="2.61972">
        <ele>53.6</ele>
        <time>2023-08-05T11:49:42Z</time>
      </trkpt>
      <trkpt lat="50.7965" lon="2.61982">
        <ele>53.6</ele>
        <time>2023-08-05T11:49:44Z</time>
      </trkpt>
      <trkpt lat="50.79651" lon="2.61987">
        <ele>53.6</ele>
        <time>2023-08-05T11:49:45Z</time>
      </trkpt>
      <trkpt lat="50.79651" lon="2.61992">
        <ele>53.6</ele>
        <time>2023-08-05T11:49:46Z</time>
      </trkpt>
      <trkpt lat="50.79652" lon="2.6202">
        <ele>53.4</ele>
        <time>2023-08-05T11:49:51Z</time>
      </trkpt>
      <trkpt lat="50.79653" lon="2.62062">
        <ele>53</ele>
        <time>2023-08-05T11:49:59Z</time>
      </trkpt>
      <trkpt lat="50.79655" lon="2.62088">
        <ele>52.8</ele>
        <time>2023-08-05T11:50:04Z</time>
      </trkpt>
      <trkpt lat="50.79657" lon="2.62104">
        <ele>52.6</ele>
        <time>2023-08-05T11:50:07Z</time>
      </trkpt>
      <trkpt lat="50.79659" lon="2.62119">
        <ele>52.6</ele>
        <time>2023-08-05T11:50:10Z</time>
      </trkpt>
      <trkpt lat="50.79663" lon="2.62158">
        <ele>52.4</ele>
        <time>2023-08-05T11:50:17Z</time>
      </trkpt>
      <trkpt lat="50.79663" lon="2.62202">
        <ele>52.2</ele>
        <time>2023-08-05T11:50:25Z</time>
      </trkpt>
      <trkpt lat="50.79663" lon="2.62208">
        <ele>52.2</ele>
        <time>2023-08-05T11:50:26Z</time>
      </trkpt>
      <trkpt lat="50.79663" lon="2.62213">
        <ele>52</ele>
        <time>2023-08-05T11:50:27Z</time>
      </trkpt>
      <trkpt lat="50.79662" lon="2.62229">
        <ele>52</ele>
        <time>2023-08-05T11:50:30Z</time>
      </trkpt>
      <trkpt lat="50.79661" lon="2.62235">
        <ele>52</ele>
        <time>2023-08-05T11:50:31Z</time>
      </trkpt>
      <trkpt lat="50.79659" lon="2.62267">
        <ele>51.8</ele>
        <time>2023-08-05T11:50:37Z</time>
      </trkpt>
      <trkpt lat="50.79659" lon="2.62316">
        <ele>52.6</ele>
        <time>2023-08-05T11:50:46Z</time>
      </trkpt>
      <trkpt lat="50.79664" lon="2.62353">
        <ele>53</ele>
        <time>2023-08-05T11:50:53Z</time>
      </trkpt>
      <trkpt lat="50.79665" lon="2.62359">
        <ele>53</ele>
        <time>2023-08-05T11:50:54Z</time>
      </trkpt>
      <trkpt lat="50.79671" lon="2.62384">
        <ele>53.6</ele>
        <time>2023-08-05T11:50:59Z</time>
      </trkpt>
      <trkpt lat="50.79675" lon="2.62399">
        <ele>54</ele>
        <time>2023-08-05T11:51:02Z</time>
      </trkpt>
      <trkpt lat="50.7968" lon="2.62414">
        <ele>54.2</ele>
        <time>2023-08-05T11:51:05Z</time>
      </trkpt>
      <trkpt lat="50.79694" lon="2.62451">
        <ele>54.4</ele>
        <time>2023-08-05T11:51:13Z</time>
      </trkpt>
      <trkpt lat="50.79704" lon="2.62479">
        <ele>55</ele>
        <time>2023-08-05T11:51:19Z</time>
      </trkpt>
      <trkpt lat="50.79706" lon="2.62484">
        <ele>55</ele>
        <time>2023-08-05T11:51:20Z</time>
      </trkpt>
      <trkpt lat="50.79709" lon="2.62492">
        <ele>55.2</ele>
        <time>2023-08-05T11:51:22Z</time>
      </trkpt>
      <trkpt lat="50.79713" lon="2.62506">
        <ele>55.4</ele>
        <time>2023-08-05T11:51:25Z</time>
      </trkpt>
      <trkpt lat="50.79716" lon="2.62521">
        <ele>55.6</ele>
        <time>2023-08-05T11:51:28Z</time>
      </trkpt>
      <trkpt lat="50.79718" lon="2.62536">
        <ele>55.6</ele>
        <time>2023-08-05T11:51:31Z</time>
      </trkpt>
      <trkpt lat="50.79719" lon="2.62542">
        <ele>55.6</ele>
        <time>2023-08-05T11:51:32Z</time>
      </trkpt>
      <trkpt lat="50.79723" lon="2.62563">
        <ele>55.6</ele>
        <time>2023-08-05T11:51:36Z</time>
      </trkpt>
      <trkpt lat="50.79725" lon="2.62573">
        <ele>55.6</ele>
        <time>2023-08-05T11:51:38Z</time>
      </trkpt>
      <trkpt lat="50.79735" lon="2.626">
        <ele>55.2</ele>
        <time>2023-08-05T11:51:44Z</time>
      </trkpt>
      <trkpt lat="50.79738" lon="2.62603">
        <ele>55.2</ele>
        <time>2023-08-05T11:51:45Z</time>
      </trkpt>
      <trkpt lat="50.79741" lon="2.62606">
        <ele>55.2</ele>
        <time>2023-08-05T11:51:46Z</time>
      </trkpt>
      <trkpt lat="50.79744" lon="2.62607">
        <ele>55.2</ele>
        <time>2023-08-05T11:51:47Z</time>
      </trkpt>
      <trkpt lat="50.79748" lon="2.62609">
        <ele>55</ele>
        <time>2023-08-05T11:51:48Z</time>
      </trkpt>
      <trkpt lat="50.79752" lon="2.62609">
        <ele>55</ele>
        <time>2023-08-05T11:51:49Z</time>
      </trkpt>
      <trkpt lat="50.79756" lon="2.62609">
        <ele>54.8</ele>
        <time>2023-08-05T11:51:50Z</time>
      </trkpt>
      <trkpt lat="50.7977" lon="2.6261">
        <ele>54.2</ele>
        <time>2023-08-05T11:51:53Z</time>
      </trkpt>
      <trkpt lat="50.79775" lon="2.62611">
        <ele>54.2</ele>
        <time>2023-08-05T11:51:54Z</time>
      </trkpt>
      <trkpt lat="50.79802" lon="2.62613">
        <ele>53.6</ele>
        <time>2023-08-05T11:51:59Z</time>
      </trkpt>
      <trkpt lat="50.79808" lon="2.62614">
        <ele>53.4</ele>
        <time>2023-08-05T11:52:00Z</time>
      </trkpt>
      <trkpt lat="50.79814" lon="2.62616">
        <ele>53.4</ele>
        <time>2023-08-05T11:52:01Z</time>
      </trkpt>
      <trkpt lat="50.79824" lon="2.62622">
        <ele>53.2</ele>
        <time>2023-08-05T11:52:03Z</time>
      </trkpt>
      <trkpt lat="50.79828" lon="2.62627">
        <ele>53</ele>
        <time>2023-08-05T11:52:04Z</time>
      </trkpt>
      <trkpt lat="50.79832" lon="2.62633">
        <ele>52.8</ele>
        <time>2023-08-05T11:52:05Z</time>
      </trkpt>
      <trkpt lat="50.79834" lon="2.6264">
        <ele>52.6</ele>
        <time>2023-08-05T11:52:06Z</time>
      </trkpt>
      <trkpt lat="50.79836" lon="2.62646">
        <ele>52.4</ele>
        <time>2023-08-05T11:52:07Z</time>
      </trkpt>
      <trkpt lat="50.79837" lon="2.62652">
        <ele>52.2</ele>
        <time>2023-08-05T11:52:08Z</time>
      </trkpt>
      <trkpt lat="50.79837" lon="2.62658">
        <ele>51.8</ele>
        <time>2023-08-05T11:52:09Z</time>
      </trkpt>
      <trkpt lat="50.79837" lon="2.62663">
        <ele>51.8</ele>
        <time>2023-08-05T11:52:10Z</time>
      </trkpt>
      <trkpt lat="50.79836" lon="2.62667">
        <ele>51.4</ele>
        <time>2023-08-05T11:52:11Z</time>
      </trkpt>
      <trkpt lat="50.79835" lon="2.62672">
        <ele>51.4</ele>
        <time>2023-08-05T11:52:12Z</time>
      </trkpt>
      <trkpt lat="50.79833" lon="2.62676">
        <ele>51.2</ele>
        <time>2023-08-05T11:52:13Z</time>
      </trkpt>
      <trkpt lat="50.79826" lon="2.62695">
        <ele>50.8</ele>
        <time>2023-08-05T11:52:17Z</time>
      </trkpt>
      <trkpt lat="50.79824" lon="2.62699">
        <ele>50.6</ele>
        <time>2023-08-05T11:52:18Z</time>
      </trkpt>
      <trkpt lat="50.7982" lon="2.62708">
        <ele>50.4</ele>
        <time>2023-08-05T11:52:20Z</time>
      </trkpt>
      <trkpt lat="50.79807" lon="2.62746">
        <ele>50</ele>
        <time>2023-08-05T11:52:28Z</time>
      </trkpt>
      <trkpt lat="50.79792" lon="2.62787">
        <ele>49.6</ele>
        <time>2023-08-05T11:52:37Z</time>
      </trkpt>
      <trkpt lat="50.7979" lon="2.62792">
        <ele>49.6</ele>
        <time>2023-08-05T11:52:38Z</time>
      </trkpt>
      <trkpt lat="50.79779" lon="2.62824">
        <ele>49.6</ele>
        <time>2023-08-05T11:52:45Z</time>
      </trkpt>
      <trkpt lat="50.7977" lon="2.62847">
        <ele>53.4</ele>
        <time>2023-08-05T11:52:50Z</time>
      </trkpt>
      <trkpt lat="50.79768" lon="2.62852">
        <ele>56.4</ele>
        <time>2023-08-05T11:52:51Z</time>
      </trkpt>
      <trkpt lat="50.79767" lon="2.62857">
        <ele>62</ele>
        <time>2023-08-05T11:52:52Z</time>
      </trkpt>
      <trkpt lat="50.79765" lon="2.62862">
        <ele>64.8</ele>
        <time>2023-08-05T11:52:53Z</time>
      </trkpt>
      <trkpt lat="50.79763" lon="2.62866">
        <ele>69</ele>
        <time>2023-08-05T11:52:54Z</time>
      </trkpt>
      <trkpt lat="50.79761" lon="2.62871">
        <ele>72</ele>
        <time>2023-08-05T11:52:55Z</time>
      </trkpt>
      <trkpt lat="50.7976" lon="2.62876">
        <ele>73.4</ele>
        <time>2023-08-05T11:52:56Z</time>
      </trkpt>
      <trkpt lat="50.79758" lon="2.62881">
        <ele>75.4</ele>
        <time>2023-08-05T11:52:57Z</time>
      </trkpt>
      <trkpt lat="50.79756" lon="2.62886">
        <ele>76</ele>
        <time>2023-08-05T11:52:58Z</time>
      </trkpt>
      <trkpt lat="50.79754" lon="2.62891">
        <ele>77.2</ele>
        <time>2023-08-05T11:52:59Z</time>
      </trkpt>
      <trkpt lat="50.79753" lon="2.62896">
        <ele>77.8</ele>
        <time>2023-08-05T11:53:00Z</time>
      </trkpt>
      <trkpt lat="50.79751" lon="2.62901">
        <ele>79</ele>
        <time>2023-08-05T11:53:01Z</time>
      </trkpt>
      <trkpt lat="50.79749" lon="2.62906">
        <ele>79.2</ele>
        <time>2023-08-05T11:53:02Z</time>
      </trkpt>
      <trkpt lat="50.79746" lon="2.62916">
        <ele>80.2</ele>
        <time>2023-08-05T11:53:04Z</time>
      </trkpt>
      <trkpt lat="50.79744" lon="2.62921">
        <ele>80.4</ele>
        <time>2023-08-05T11:53:05Z</time>
      </trkpt>
      <trkpt lat="50.79736" lon="2.62947">
        <ele>81.2</ele>
        <time>2023-08-05T11:53:10Z</time>
      </trkpt>
      <trkpt lat="50.79731" lon="2.62964">
        <ele>81.8</ele>
        <time>2023-08-05T11:53:13Z</time>
      </trkpt>
      <trkpt lat="50.79727" lon="2.62976">
        <ele>82</ele>
        <time>2023-08-05T11:53:15Z</time>
      </trkpt>
      <trkpt lat="50.79726" lon="2.62982">
        <ele>82</ele>
        <time>2023-08-05T11:53:16Z</time>
      </trkpt>
      <trkpt lat="50.79724" lon="2.62987">
        <ele>82</ele>
        <time>2023-08-05T11:53:17Z</time>
      </trkpt>
      <trkpt lat="50.79722" lon="2.62993">
        <ele>82.2</ele>
        <time>2023-08-05T11:53:18Z</time>
      </trkpt>
      <trkpt lat="50.7972" lon="2.62998">
        <ele>82.2</ele>
        <time>2023-08-05T11:53:19Z</time>
      </trkpt>
      <trkpt lat="50.79718" lon="2.63004">
        <ele>82.2</ele>
        <time>2023-08-05T11:53:20Z</time>
      </trkpt>
      <trkpt lat="50.79717" lon="2.6301">
        <ele>82.2</ele>
        <time>2023-08-05T11:53:21Z</time>
      </trkpt>
      <trkpt lat="50.79715" lon="2.63016">
        <ele>82.6</ele>
        <time>2023-08-05T11:53:22Z</time>
      </trkpt>
      <trkpt lat="50.79714" lon="2.63021">
        <ele>82.6</ele>
        <time>2023-08-05T11:53:23Z</time>
      </trkpt>
      <trkpt lat="50.79712" lon="2.63027">
        <ele>82.6</ele>
        <time>2023-08-05T11:53:24Z</time>
      </trkpt>
      <trkpt lat="50.7971" lon="2.63033">
        <ele>82.6</ele>
        <time>2023-08-05T11:53:25Z</time>
      </trkpt>
      <trkpt lat="50.79708" lon="2.63039">
        <ele>82.6</ele>
        <time>2023-08-05T11:53:26Z</time>
      </trkpt>
      <trkpt lat="50.79706" lon="2.63045">
        <ele>82.6</ele>
        <time>2023-08-05T11:53:27Z</time>
      </trkpt>
      <trkpt lat="50.79704" lon="2.63051">
        <ele>82.6</ele>
        <time>2023-08-05T11:53:28Z</time>
      </trkpt>
      <trkpt lat="50.79702" lon="2.63057">
        <ele>82.6</ele>
        <time>2023-08-05T11:53:29Z</time>
      </trkpt>
      <trkpt lat="50.797" lon="2.63063">
        <ele>82.6</ele>
        <time>2023-08-05T11:53:30Z</time>
      </trkpt>
      <trkpt lat="50.79698" lon="2.63069">
        <ele>82.6</ele>
        <time>2023-08-05T11:53:31Z</time>
      </trkpt>
      <trkpt lat="50.79696" lon="2.63075">
        <ele>82.6</ele>
        <time>2023-08-05T11:53:32Z</time>
      </trkpt>
      <trkpt lat="50.79694" lon="2.63081">
        <ele>82.6</ele>
        <time>2023-08-05T11:53:33Z</time>
      </trkpt>
      <trkpt lat="50.79693" lon="2.63087">
        <ele>82.6</ele>
        <time>2023-08-05T11:53:34Z</time>
      </trkpt>
      <trkpt lat="50.79691" lon="2.63094">
        <ele>82.6</ele>
        <time>2023-08-05T11:53:35Z</time>
      </trkpt>
      <trkpt lat="50.79689" lon="2.631">
        <ele>82.6</ele>
        <time>2023-08-05T11:53:36Z</time>
      </trkpt>
      <trkpt lat="50.79687" lon="2.63106">
        <ele>82.6</ele>
        <time>2023-08-05T11:53:37Z</time>
      </trkpt>
      <trkpt lat="50.79685" lon="2.63112">
        <ele>82.6</ele>
        <time>2023-08-05T11:53:38Z</time>
      </trkpt>
      <trkpt lat="50.79683" lon="2.63119">
        <ele>82.6</ele>
        <time>2023-08-05T11:53:39Z</time>
      </trkpt>
      <trkpt lat="50.79681" lon="2.63125">
        <ele>82.6</ele>
        <time>2023-08-05T11:53:40Z</time>
      </trkpt>
      <trkpt lat="50.79679" lon="2.63132">
        <ele>82.6</ele>
        <time>2023-08-05T11:53:41Z</time>
      </trkpt>
      <trkpt lat="50.79678" lon="2.63139">
        <ele>82.4</ele>
        <time>2023-08-05T11:53:42Z</time>
      </trkpt>
      <trkpt lat="50.79674" lon="2.63152">
        <ele>82.4</ele>
        <time>2023-08-05T11:53:44Z</time>
      </trkpt>
      <trkpt lat="50.79653" lon="2.63211">
        <ele>82</ele>
        <time>2023-08-05T11:53:53Z</time>
      </trkpt>
      <trkpt lat="50.7964" lon="2.63244">
        <ele>81.6</ele>
        <time>2023-08-05T11:53:58Z</time>
      </trkpt>
      <trkpt lat="50.79621" lon="2.63291">
        <ele>81</ele>
        <time>2023-08-05T11:54:05Z</time>
      </trkpt>
      <trkpt lat="50.79614" lon="2.63312">
        <ele>80.6</ele>
        <time>2023-08-05T11:54:08Z</time>
      </trkpt>
      <trkpt lat="50.79612" lon="2.63318">
        <ele>80.6</ele>
        <time>2023-08-05T11:54:09Z</time>
      </trkpt>
      <trkpt lat="50.796" lon="2.63363">
        <ele>80.4</ele>
        <time>2023-08-05T11:54:15Z</time>
      </trkpt>
      <trkpt lat="50.79585" lon="2.6343">
        <ele>79.8</ele>
        <time>2023-08-05T11:54:24Z</time>
      </trkpt>
      <trkpt lat="50.79583" lon="2.63437">
        <ele>79.8</ele>
        <time>2023-08-05T11:54:25Z</time>
      </trkpt>
      <trkpt lat="50.79582" lon="2.63444">
        <ele>79.8</ele>
        <time>2023-08-05T11:54:26Z</time>
      </trkpt>
      <trkpt lat="50.7958" lon="2.6345">
        <ele>79.6</ele>
        <time>2023-08-05T11:54:27Z</time>
      </trkpt>
      <trkpt lat="50.79578" lon="2.63457">
        <ele>79.6</ele>
        <time>2023-08-05T11:54:28Z</time>
      </trkpt>
      <trkpt lat="50.79577" lon="2.63463">
        <ele>79.6</ele>
        <time>2023-08-05T11:54:29Z</time>
      </trkpt>
      <trkpt lat="50.79575" lon="2.6347">
        <ele>79.6</ele>
        <time>2023-08-05T11:54:30Z</time>
      </trkpt>
      <trkpt lat="50.79574" lon="2.63476">
        <ele>79.8</ele>
        <time>2023-08-05T11:54:31Z</time>
      </trkpt>
      <trkpt lat="50.79572" lon="2.63483">
        <ele>79.8</ele>
        <time>2023-08-05T11:54:32Z</time>
      </trkpt>
      <trkpt lat="50.7957" lon="2.63489">
        <ele>79.8</ele>
        <time>2023-08-05T11:54:33Z</time>
      </trkpt>
      <trkpt lat="50.79554" lon="2.63555">
        <ele>80.2</ele>
        <time>2023-08-05T11:54:43Z</time>
      </trkpt>
      <trkpt lat="50.79533" lon="2.63633">
        <ele>81</ele>
        <time>2023-08-05T11:54:55Z</time>
      </trkpt>
      <trkpt lat="50.79531" lon="2.63639">
        <ele>81</ele>
        <time>2023-08-05T11:54:56Z</time>
      </trkpt>
      <trkpt lat="50.79529" lon="2.63646">
        <ele>81</ele>
        <time>2023-08-05T11:54:57Z</time>
      </trkpt>
      <trkpt lat="50.79527" lon="2.63652">
        <ele>81.2</ele>
        <time>2023-08-05T11:54:58Z</time>
      </trkpt>
      <trkpt lat="50.79525" lon="2.63658">
        <ele>81.2</ele>
        <time>2023-08-05T11:54:59Z</time>
      </trkpt>
      <trkpt lat="50.79523" lon="2.63664">
        <ele>81.4</ele>
        <time>2023-08-05T11:55:00Z</time>
      </trkpt>
      <trkpt lat="50.79514" lon="2.63691">
        <ele>81.6</ele>
        <time>2023-08-05T11:55:04Z</time>
      </trkpt>
      <trkpt lat="50.79494" lon="2.63744">
        <ele>81.8</ele>
        <time>2023-08-05T11:55:12Z</time>
      </trkpt>
      <trkpt lat="50.79475" lon="2.63796">
        <ele>82</ele>
        <time>2023-08-05T11:55:20Z</time>
      </trkpt>
      <trkpt lat="50.79472" lon="2.63803">
        <ele>82.2</ele>
        <time>2023-08-05T11:55:21Z</time>
      </trkpt>
      <trkpt lat="50.7947" lon="2.63809">
        <ele>82</ele>
        <time>2023-08-05T11:55:22Z</time>
      </trkpt>
      <trkpt lat="50.79444" lon="2.63875">
        <ele>82.2</ele>
        <time>2023-08-05T11:55:32Z</time>
      </trkpt>
      <trkpt lat="50.79413" lon="2.63954">
        <ele>82</ele>
        <time>2023-08-05T11:55:43Z</time>
      </trkpt>
      <trkpt lat="50.79408" lon="2.63969">
        <ele>82</ele>
        <time>2023-08-05T11:55:45Z</time>
      </trkpt>
      <trkpt lat="50.79399" lon="2.63989">
        <ele>81.6</ele>
        <time>2023-08-05T11:55:48Z</time>
      </trkpt>
      <trkpt lat="50.79389" lon="2.64017">
        <ele>81.2</ele>
        <time>2023-08-05T11:55:52Z</time>
      </trkpt>
      <trkpt lat="50.79381" lon="2.64039">
        <ele>80.8</ele>
        <time>2023-08-05T11:55:55Z</time>
      </trkpt>
      <trkpt lat="50.79372" lon="2.64063">
        <ele>80.4</ele>
        <time>2023-08-05T11:55:58Z</time>
      </trkpt>
      <trkpt lat="50.79358" lon="2.64104">
        <ele>79.6</ele>
        <time>2023-08-05T11:56:03Z</time>
      </trkpt>
      <trkpt lat="50.79353" lon="2.64121">
        <ele>78.8</ele>
        <time>2023-08-05T11:56:05Z</time>
      </trkpt>
      <trkpt lat="50.79336" lon="2.64175">
        <ele>77.6</ele>
        <time>2023-08-05T11:56:12Z</time>
      </trkpt>
      <trkpt lat="50.79333" lon="2.64182">
        <ele>77.6</ele>
        <time>2023-08-05T11:56:13Z</time>
      </trkpt>
      <trkpt lat="50.79331" lon="2.64188">
        <ele>77.4</ele>
        <time>2023-08-05T11:56:14Z</time>
      </trkpt>
      <trkpt lat="50.79329" lon="2.64195">
        <ele>77.2</ele>
        <time>2023-08-05T11:56:15Z</time>
      </trkpt>
      <trkpt lat="50.79327" lon="2.64201">
        <ele>77.2</ele>
        <time>2023-08-05T11:56:16Z</time>
      </trkpt>
      <trkpt lat="50.79324" lon="2.64208">
        <ele>77</ele>
        <time>2023-08-05T11:56:17Z</time>
      </trkpt>
      <trkpt lat="50.79322" lon="2.64214">
        <ele>76.8</ele>
        <time>2023-08-05T11:56:18Z</time>
      </trkpt>
      <trkpt lat="50.79317" lon="2.64226">
        <ele>76.6</ele>
        <time>2023-08-05T11:56:20Z</time>
      </trkpt>
      <trkpt lat="50.79316" lon="2.64231">
        <ele>76.4</ele>
        <time>2023-08-05T11:56:21Z</time>
      </trkpt>
      <trkpt lat="50.79314" lon="2.64236">
        <ele>76.2</ele>
        <time>2023-08-05T11:56:22Z</time>
      </trkpt>
      <trkpt lat="50.79313" lon="2.64241">
        <ele>76</ele>
        <time>2023-08-05T11:56:23Z</time>
      </trkpt>
      <trkpt lat="50.79312" lon="2.64245">
        <ele>76</ele>
        <time>2023-08-05T11:56:24Z</time>
      </trkpt>
      <trkpt lat="50.79312" lon="2.64249">
        <ele>75.8</ele>
        <time>2023-08-05T11:56:25Z</time>
      </trkpt>
      <trkpt lat="50.79312" lon="2.64253">
        <ele>75.8</ele>
        <time>2023-08-05T11:56:26Z</time>
      </trkpt>
      <trkpt lat="50.79313" lon="2.64258">
        <ele>75.6</ele>
        <time>2023-08-05T11:56:27Z</time>
      </trkpt>
      <trkpt lat="50.79315" lon="2.64262">
        <ele>75.4</ele>
        <time>2023-08-05T11:56:28Z</time>
      </trkpt>
      <trkpt lat="50.79318" lon="2.64265">
        <ele>75.4</ele>
        <time>2023-08-05T11:56:29Z</time>
      </trkpt>
      <trkpt lat="50.7933" lon="2.64272">
        <ele>74.8</ele>
        <time>2023-08-05T11:56:32Z</time>
      </trkpt>
      <trkpt lat="50.79334" lon="2.64275">
        <ele>74.8</ele>
        <time>2023-08-05T11:56:33Z</time>
      </trkpt>
      <trkpt lat="50.79354" lon="2.64289">
        <ele>74.2</ele>
        <time>2023-08-05T11:56:37Z</time>
      </trkpt>
      <trkpt lat="50.79359" lon="2.64294">
        <ele>74</ele>
        <time>2023-08-05T11:56:38Z</time>
      </trkpt>
      <trkpt lat="50.79368" lon="2.64304">
        <ele>74</ele>
        <time>2023-08-05T11:56:40Z</time>
      </trkpt>
      <trkpt lat="50.79375" lon="2.64313">
        <ele>74</ele>
        <time>2023-08-05T11:56:42Z</time>
      </trkpt>
      <trkpt lat="50.79382" lon="2.64328">
        <ele>74</ele>
        <time>2023-08-05T11:56:45Z</time>
      </trkpt>
      <trkpt lat="50.79381" lon="2.6433">
        <ele>74</ele>
        <time>2023-08-05T11:56:46Z</time>
      </trkpt>
      <trkpt lat="50.7938" lon="2.64331">
        <ele>74</ele>
        <time>2023-08-05T11:56:47Z</time>
      </trkpt>
      <trkpt lat="50.79379" lon="2.6433">
        <ele>74</ele>
        <time>2023-08-05T11:56:48Z</time>
      </trkpt>
      <trkpt lat="50.79377" lon="2.64328">
        <ele>74</ele>
        <time>2023-08-05T11:56:49Z</time>
      </trkpt>
      <trkpt lat="50.79376" lon="2.64325">
        <ele>74.2</ele>
        <time>2023-08-05T11:56:50Z</time>
      </trkpt>
      <trkpt lat="50.79375" lon="2.64322">
        <ele>74.2</ele>
        <time>2023-08-05T11:56:51Z</time>
      </trkpt>
      <trkpt lat="50.79368" lon="2.64307">
        <ele>74.4</ele>
        <time>2023-08-05T11:56:56Z</time>
      </trkpt>
      <trkpt lat="50.79366" lon="2.64303">
        <ele>74.4</ele>
        <time>2023-08-05T11:56:57Z</time>
      </trkpt>
      <trkpt lat="50.79363" lon="2.64301">
        <ele>74.2</ele>
        <time>2023-08-05T11:56:58Z</time>
      </trkpt>
      <trkpt lat="50.79359" lon="2.64304">
        <ele>74</ele>
        <time>2023-08-05T11:57:00Z</time>
      </trkpt>
      <trkpt lat="50.79353" lon="2.64319">
        <ele>73.6</ele>
        <time>2023-08-05T11:57:04Z</time>
      </trkpt>
      <trkpt lat="50.79352" lon="2.64322">
        <ele>73.6</ele>
        <time>2023-08-05T11:57:05Z</time>
      </trkpt>
      <trkpt lat="50.79351" lon="2.64325">
        <ele>73.4</ele>
        <time>2023-08-05T11:57:06Z</time>
      </trkpt>
      <trkpt lat="50.7935" lon="2.64327">
        <ele>73.4</ele>
        <time>2023-08-05T11:57:07Z</time>
      </trkpt>
      <trkpt lat="50.79349" lon="2.64329">
        <ele>73.2</ele>
        <time>2023-08-05T11:57:08Z</time>
      </trkpt>
      <trkpt lat="50.79348" lon="2.64331">
        <ele>73.2</ele>
        <time>2023-08-05T11:57:09Z</time>
      </trkpt>
      <trkpt lat="50.79348" lon="2.64333">
        <ele>73</ele>
        <time>2023-08-05T11:57:10Z</time>
      </trkpt>
      <trkpt lat="50.79348" lon="2.64335">
        <ele>73</ele>
        <time>2023-08-05T11:57:11Z</time>
      </trkpt>
      <trkpt lat="50.79347" lon="2.64337">
        <ele>73.2</ele>
        <time>2023-08-05T11:57:12Z</time>
      </trkpt>
      <trkpt lat="50.79347" lon="2.6434">
        <ele>73.2</ele>
        <time>2023-08-05T11:57:13Z</time>
      </trkpt>
      <trkpt lat="50.79345" lon="2.64343">
        <ele>73</ele>
        <time>2023-08-05T11:57:14Z</time>
      </trkpt>
      <trkpt lat="50.79336" lon="2.6437">
        <ele>73</ele>
        <time>2023-08-05T11:57:19Z</time>
      </trkpt>
      <trkpt lat="50.79335" lon="2.64376">
        <ele>73</ele>
        <time>2023-08-05T11:57:20Z</time>
      </trkpt>
      <trkpt lat="50.79331" lon="2.6439">
        <ele>72.8</ele>
        <time>2023-08-05T11:57:22Z</time>
      </trkpt>
      <trkpt lat="50.79328" lon="2.64397">
        <ele>72.6</ele>
        <time>2023-08-05T11:57:23Z</time>
      </trkpt>
      <trkpt lat="50.79324" lon="2.64403">
        <ele>72.6</ele>
        <time>2023-08-05T11:57:24Z</time>
      </trkpt>
      <trkpt lat="50.79308" lon="2.64425">
        <ele>72.2</ele>
        <time>2023-08-05T11:57:28Z</time>
      </trkpt>
      <trkpt lat="50.79303" lon="2.6443">
        <ele>72</ele>
        <time>2023-08-05T11:57:29Z</time>
      </trkpt>
      <trkpt lat="50.79299" lon="2.64435">
        <ele>71.8</ele>
        <time>2023-08-05T11:57:30Z</time>
      </trkpt>
      <trkpt lat="50.79295" lon="2.6444">
        <ele>71.8</ele>
        <time>2023-08-05T11:57:31Z</time>
      </trkpt>
      <trkpt lat="50.79292" lon="2.64444">
        <ele>71.8</ele>
        <time>2023-08-05T11:57:32Z</time>
      </trkpt>
      <trkpt lat="50.79277" lon="2.64462">
        <ele>71.8</ele>
        <time>2023-08-05T11:57:36Z</time>
      </trkpt>
      <trkpt lat="50.79271" lon="2.64471">
        <ele>71.8</ele>
        <time>2023-08-05T11:57:38Z</time>
      </trkpt>
      <trkpt lat="50.7927" lon="2.64476">
        <ele>71.8</ele>
        <time>2023-08-05T11:57:39Z</time>
      </trkpt>
      <trkpt lat="50.7927" lon="2.64481">
        <ele>71.8</ele>
        <time>2023-08-05T11:57:40Z</time>
      </trkpt>
      <trkpt lat="50.79271" lon="2.64485">
        <ele>71.8</ele>
        <time>2023-08-05T11:57:41Z</time>
      </trkpt>
      <trkpt lat="50.79273" lon="2.64488">
        <ele>72</ele>
        <time>2023-08-05T11:57:42Z</time>
      </trkpt>
      <trkpt lat="50.79277" lon="2.6449">
        <ele>72</ele>
        <time>2023-08-05T11:57:43Z</time>
      </trkpt>
      <trkpt lat="50.79288" lon="2.64496">
        <ele>72.4</ele>
        <time>2023-08-05T11:57:46Z</time>
      </trkpt>
      <trkpt lat="50.79292" lon="2.64498">
        <ele>72.4</ele>
        <time>2023-08-05T11:57:47Z</time>
      </trkpt>
      <trkpt lat="50.79298" lon="2.64504">
        <ele>72.4</ele>
        <time>2023-08-05T11:57:49Z</time>
      </trkpt>
      <trkpt lat="50.79302" lon="2.64507">
        <ele>72.4</ele>
        <time>2023-08-05T11:57:50Z</time>
      </trkpt>
      <trkpt lat="50.79321" lon="2.64525">
        <ele>72.6</ele>
        <time>2023-08-05T11:57:56Z</time>
      </trkpt>
      <trkpt lat="50.79324" lon="2.64527">
        <ele>72.6</ele>
        <time>2023-08-05T11:57:57Z</time>
      </trkpt>
      <trkpt lat="50.79326" lon="2.6453">
        <ele>72.6</ele>
        <time>2023-08-05T11:57:58Z</time>
      </trkpt>
      <trkpt lat="50.79328" lon="2.64533">
        <ele>72.8</ele>
        <time>2023-08-05T11:57:59Z</time>
      </trkpt>
      <trkpt lat="50.79329" lon="2.64536">
        <ele>72.8</ele>
        <time>2023-08-05T11:58:00Z</time>
      </trkpt>
      <trkpt lat="50.79331" lon="2.6454">
        <ele>72.8</ele>
        <time>2023-08-05T11:58:01Z</time>
      </trkpt>
      <trkpt lat="50.79332" lon="2.64545">
        <ele>72.8</ele>
        <time>2023-08-05T11:58:02Z</time>
      </trkpt>
      <trkpt lat="50.79332" lon="2.64549">
        <ele>72.8</ele>
        <time>2023-08-05T11:58:03Z</time>
      </trkpt>
      <trkpt lat="50.79332" lon="2.64554">
        <ele>72.8</ele>
        <time>2023-08-05T11:58:04Z</time>
      </trkpt>
      <trkpt lat="50.79332" lon="2.64558">
        <ele>72.8</ele>
        <time>2023-08-05T11:58:05Z</time>
      </trkpt>
      <trkpt lat="50.79333" lon="2.64563">
        <ele>73</ele>
        <time>2023-08-05T11:58:06Z</time>
      </trkpt>
      <trkpt lat="50.79334" lon="2.64567">
        <ele>73.2</ele>
        <time>2023-08-05T11:58:07Z</time>
      </trkpt>
      <trkpt lat="50.79336" lon="2.64571">
        <ele>73.2</ele>
        <time>2023-08-05T11:58:08Z</time>
      </trkpt>
      <trkpt lat="50.79343" lon="2.64583">
        <ele>73</ele>
        <time>2023-08-05T11:58:11Z</time>
      </trkpt>
      <trkpt lat="50.79346" lon="2.64586">
        <ele>73.2</ele>
        <time>2023-08-05T11:58:12Z</time>
      </trkpt>
      <trkpt lat="50.79349" lon="2.6459">
        <ele>73.2</ele>
        <time>2023-08-05T11:58:13Z</time>
      </trkpt>
      <trkpt lat="50.79353" lon="2.64594">
        <ele>73.2</ele>
        <time>2023-08-05T11:58:14Z</time>
      </trkpt>
      <trkpt lat="50.7936" lon="2.64602">
        <ele>73.2</ele>
        <time>2023-08-05T11:58:16Z</time>
      </trkpt>
      <trkpt lat="50.79368" lon="2.64611">
        <ele>73.2</ele>
        <time>2023-08-05T11:58:18Z</time>
      </trkpt>
      <trkpt lat="50.79381" lon="2.64625">
        <ele>73.2</ele>
        <time>2023-08-05T11:58:21Z</time>
      </trkpt>
      <trkpt lat="50.79388" lon="2.64634">
        <ele>73.2</ele>
        <time>2023-08-05T11:58:23Z</time>
      </trkpt>
      <trkpt lat="50.79391" lon="2.64638">
        <ele>73</ele>
        <time>2023-08-05T11:58:24Z</time>
      </trkpt>
      <trkpt lat="50.79395" lon="2.64642">
        <ele>73</ele>
        <time>2023-08-05T11:58:25Z</time>
      </trkpt>
      <trkpt lat="50.79404" lon="2.64653">
        <ele>73.2</ele>
        <time>2023-08-05T11:58:28Z</time>
      </trkpt>
      <trkpt lat="50.79411" lon="2.64662">
        <ele>73.2</ele>
        <time>2023-08-05T11:58:30Z</time>
      </trkpt>
      <trkpt lat="50.79422" lon="2.64676">
        <ele>73.4</ele>
        <time>2023-08-05T11:58:33Z</time>
      </trkpt>
      <trkpt lat="50.79426" lon="2.64681">
        <ele>73.6</ele>
        <time>2023-08-05T11:58:34Z</time>
      </trkpt>
      <trkpt lat="50.79433" lon="2.64687">
        <ele>73.4</ele>
        <time>2023-08-05T11:58:35Z</time>
      </trkpt>
      <trkpt lat="50.79437" lon="2.64692">
        <ele>73.4</ele>
        <time>2023-08-05T11:58:36Z</time>
      </trkpt>
      <trkpt lat="50.7944" lon="2.64697">
        <ele>73.6</ele>
        <time>2023-08-05T11:58:37Z</time>
      </trkpt>
      <trkpt lat="50.79454" lon="2.64717">
        <ele>73.6</ele>
        <time>2023-08-05T11:58:42Z</time>
      </trkpt>
      <trkpt lat="50.79458" lon="2.64722">
        <ele>73.6</ele>
        <time>2023-08-05T11:58:43Z</time>
      </trkpt>
      <trkpt lat="50.79462" lon="2.64726">
        <ele>73.6</ele>
        <time>2023-08-05T11:58:44Z</time>
      </trkpt>
      <trkpt lat="50.79466" lon="2.6473">
        <ele>73.6</ele>
        <time>2023-08-05T11:58:45Z</time>
      </trkpt>
      <trkpt lat="50.79467" lon="2.64733">
        <ele>73.6</ele>
        <time>2023-08-05T11:58:46Z</time>
      </trkpt>
      <trkpt lat="50.7947" lon="2.64737">
        <ele>73.6</ele>
        <time>2023-08-05T11:58:47Z</time>
      </trkpt>
      <trkpt lat="50.79471" lon="2.64741">
        <ele>73.6</ele>
        <time>2023-08-05T11:58:48Z</time>
      </trkpt>
      <trkpt lat="50.79472" lon="2.64743">
        <ele>73.6</ele>
        <time>2023-08-05T11:58:49Z</time>
      </trkpt>
      <trkpt lat="50.79472" lon="2.64744">
        <ele>73.4</ele>
        <time>2023-08-05T11:58:50Z</time>
      </trkpt>
      <trkpt lat="50.79471" lon="2.64744">
        <ele>73.4</ele>
        <time>2023-08-05T11:58:51Z</time>
      </trkpt>
      <trkpt lat="50.7947" lon="2.64744">
        <ele>73.4</ele>
        <time>2023-08-05T11:58:52Z</time>
      </trkpt>
      <trkpt lat="50.7947" lon="2.64745">
        <ele>73.4</ele>
        <time>2023-08-05T11:58:53Z</time>
      </trkpt>
      <trkpt lat="50.7947" lon="2.64746">
        <ele>73.4</ele>
        <time>2023-08-05T11:58:54Z</time>
      </trkpt>
      <trkpt lat="50.7947" lon="2.64746">
        <ele>73.4</ele>
        <time>2023-08-05T11:58:55Z</time>
      </trkpt>
      <trkpt lat="50.7947" lon="2.64746">
        <ele>73.4</ele>
        <time>2023-08-05T11:58:56Z</time>
      </trkpt>
      <trkpt lat="50.79467" lon="2.64756">
        <ele>73.2</ele>
        <time>2023-08-05T11:59:44Z</time>
      </trkpt>
      <trkpt lat="50.79467" lon="2.64754">
        <ele>73.2</ele>
        <time>2023-08-05T11:59:45Z</time>
      </trkpt>
      <trkpt lat="50.79467" lon="2.64751">
        <ele>73.4</ele>
        <time>2023-08-05T11:59:46Z</time>
      </trkpt>
      <trkpt lat="50.79467" lon="2.6475">
        <ele>73.6</ele>
        <time>2023-08-05T11:59:47Z</time>
      </trkpt>
      <trkpt lat="50.79469" lon="2.64749">
        <ele>73.6</ele>
        <time>2023-08-05T11:59:50Z</time>
      </trkpt>
      <trkpt lat="50.79469" lon="2.64749">
        <ele>73.6</ele>
        <time>2023-08-05T11:59:51Z</time>
      </trkpt>
      <trkpt lat="50.79466" lon="2.64751">
        <ele>73.6</ele>
        <time>2023-08-05T12:00:32Z</time>
      </trkpt>
      <trkpt lat="50.79461" lon="2.64753">
        <ele>73.8</ele>
        <time>2023-08-05T12:00:35Z</time>
      </trkpt>
      <trkpt lat="50.79459" lon="2.64752">
        <ele>73.8</ele>
        <time>2023-08-05T12:00:36Z</time>
      </trkpt>
      <trkpt lat="50.79457" lon="2.6475">
        <ele>73.8</ele>
        <time>2023-08-05T12:00:37Z</time>
      </trkpt>
      <trkpt lat="50.79455" lon="2.64749">
        <ele>73.8</ele>
        <time>2023-08-05T12:00:38Z</time>
      </trkpt>
      <trkpt lat="50.79453" lon="2.64747">
        <ele>73.8</ele>
        <time>2023-08-05T12:00:39Z</time>
      </trkpt>
      <trkpt lat="50.79451" lon="2.64745">
        <ele>73.8</ele>
        <time>2023-08-05T12:00:40Z</time>
      </trkpt>
      <trkpt lat="50.79447" lon="2.6474">
        <ele>73.8</ele>
        <time>2023-08-05T12:00:42Z</time>
      </trkpt>
      <trkpt lat="50.79444" lon="2.64738">
        <ele>73.8</ele>
        <time>2023-08-05T12:00:43Z</time>
      </trkpt>
      <trkpt lat="50.79435" lon="2.6473">
        <ele>74</ele>
        <time>2023-08-05T12:00:47Z</time>
      </trkpt>
      <trkpt lat="50.79419" lon="2.64715">
        <ele>74</ele>
        <time>2023-08-05T12:00:53Z</time>
      </trkpt>
      <trkpt lat="50.79396" lon="2.64687">
        <ele>74</ele>
        <time>2023-08-05T12:01:01Z</time>
      </trkpt>
      <trkpt lat="50.79389" lon="2.64679">
        <ele>74</ele>
        <time>2023-08-05T12:01:04Z</time>
      </trkpt>
      <trkpt lat="50.79376" lon="2.64664">
        <ele>74</ele>
        <time>2023-08-05T12:01:08Z</time>
      </trkpt>
      <trkpt lat="50.79366" lon="2.64654">
        <ele>74</ele>
        <time>2023-08-05T12:01:11Z</time>
      </trkpt>
      <trkpt lat="50.79364" lon="2.64651">
        <ele>74</ele>
        <time>2023-08-05T12:01:12Z</time>
      </trkpt>
      <trkpt lat="50.79361" lon="2.64647">
        <ele>74</ele>
        <time>2023-08-05T12:01:13Z</time>
      </trkpt>
      <trkpt lat="50.79358" lon="2.64643">
        <ele>74</ele>
        <time>2023-08-05T12:01:14Z</time>
      </trkpt>
      <trkpt lat="50.79353" lon="2.64638">
        <ele>74</ele>
        <time>2023-08-05T12:01:15Z</time>
      </trkpt>
      <trkpt lat="50.79343" lon="2.64626">
        <ele>74.2</ele>
        <time>2023-08-05T12:01:19Z</time>
      </trkpt>
      <trkpt lat="50.79341" lon="2.64623">
        <ele>74</ele>
        <time>2023-08-05T12:01:20Z</time>
      </trkpt>
      <trkpt lat="50.79335" lon="2.64613">
        <ele>74</ele>
        <time>2023-08-05T12:01:23Z</time>
      </trkpt>
      <trkpt lat="50.79334" lon="2.64609">
        <ele>74</ele>
        <time>2023-08-05T12:01:24Z</time>
      </trkpt>
      <trkpt lat="50.79334" lon="2.64605">
        <ele>74</ele>
        <time>2023-08-05T12:01:25Z</time>
      </trkpt>
      <trkpt lat="50.79334" lon="2.64601">
        <ele>74</ele>
        <time>2023-08-05T12:01:26Z</time>
      </trkpt>
      <trkpt lat="50.79335" lon="2.64596">
        <ele>74</ele>
        <time>2023-08-05T12:01:27Z</time>
      </trkpt>
      <trkpt lat="50.79336" lon="2.64591">
        <ele>73.8</ele>
        <time>2023-08-05T12:01:28Z</time>
      </trkpt>
      <trkpt lat="50.79336" lon="2.64587">
        <ele>73.8</ele>
        <time>2023-08-05T12:01:29Z</time>
      </trkpt>
      <trkpt lat="50.79336" lon="2.64574">
        <ele>73.6</ele>
        <time>2023-08-05T12:01:32Z</time>
      </trkpt>
      <trkpt lat="50.79333" lon="2.64558">
        <ele>73.4</ele>
        <time>2023-08-05T12:01:36Z</time>
      </trkpt>
      <trkpt lat="50.7933" lon="2.64553">
        <ele>73.6</ele>
        <time>2023-08-05T12:01:38Z</time>
      </trkpt>
      <trkpt lat="50.7933" lon="2.6455">
        <ele>73.6</ele>
        <time>2023-08-05T12:01:39Z</time>
      </trkpt>
      <trkpt lat="50.7933" lon="2.64548">
        <ele>73.6</ele>
        <time>2023-08-05T12:01:40Z</time>
      </trkpt>
      <trkpt lat="50.79332" lon="2.64547">
        <ele>73.6</ele>
        <time>2023-08-05T12:01:41Z</time>
      </trkpt>
      <trkpt lat="50.79334" lon="2.64547">
        <ele>73.6</ele>
        <time>2023-08-05T12:01:42Z</time>
      </trkpt>
      <trkpt lat="50.79336" lon="2.64549">
        <ele>73.6</ele>
        <time>2023-08-05T12:01:43Z</time>
      </trkpt>
      <trkpt lat="50.79337" lon="2.64561">
        <ele>73.8</ele>
        <time>2023-08-05T12:01:47Z</time>
      </trkpt>
      <trkpt lat="50.79337" lon="2.64563">
        <ele>73.8</ele>
        <time>2023-08-05T12:01:48Z</time>
      </trkpt>
      <trkpt lat="50.79337" lon="2.64566">
        <ele>73.8</ele>
        <time>2023-08-05T12:01:49Z</time>
      </trkpt>
      <trkpt lat="50.79338" lon="2.64569">
        <ele>73.8</ele>
        <time>2023-08-05T12:01:50Z</time>
      </trkpt>
      <trkpt lat="50.79338" lon="2.64572">
        <ele>73.8</ele>
        <time>2023-08-05T12:01:51Z</time>
      </trkpt>
      <trkpt lat="50.79339" lon="2.64575">
        <ele>73.8</ele>
        <time>2023-08-05T12:01:52Z</time>
      </trkpt>
      <trkpt lat="50.79341" lon="2.6458">
        <ele>73.8</ele>
        <time>2023-08-05T12:01:54Z</time>
      </trkpt>
      <trkpt lat="50.79346" lon="2.64589">
        <ele>73.8</ele>
        <time>2023-08-05T12:01:57Z</time>
      </trkpt>
      <trkpt lat="50.79349" lon="2.64591">
        <ele>73.8</ele>
        <time>2023-08-05T12:01:58Z</time>
      </trkpt>
      <trkpt lat="50.79351" lon="2.64593">
        <ele>73.8</ele>
        <time>2023-08-05T12:01:59Z</time>
      </trkpt>
      <trkpt lat="50.79354" lon="2.64598">
        <ele>74</ele>
        <time>2023-08-05T12:02:01Z</time>
      </trkpt>
      <trkpt lat="50.79361" lon="2.64604">
        <ele>73.8</ele>
        <time>2023-08-05T12:02:05Z</time>
      </trkpt>
      <trkpt lat="50.79363" lon="2.64606">
        <ele>73.8</ele>
        <time>2023-08-05T12:02:06Z</time>
      </trkpt>
      <trkpt lat="50.79364" lon="2.64607">
        <ele>73.6</ele>
        <time>2023-08-05T12:02:07Z</time>
      </trkpt>
      <trkpt lat="50.79366" lon="2.6461">
        <ele>73.6</ele>
        <time>2023-08-05T12:02:08Z</time>
      </trkpt>
      <trkpt lat="50.79368" lon="2.64612">
        <ele>73.6</ele>
        <time>2023-08-05T12:02:09Z</time>
      </trkpt>
      <trkpt lat="50.7937" lon="2.64614">
        <ele>73.6</ele>
        <time>2023-08-05T12:02:10Z</time>
      </trkpt>
      <trkpt lat="50.79372" lon="2.64616">
        <ele>73.6</ele>
        <time>2023-08-05T12:02:11Z</time>
      </trkpt>
      <trkpt lat="50.79393" lon="2.64643">
        <ele>73.8</ele>
        <time>2023-08-05T12:02:21Z</time>
      </trkpt>
      <trkpt lat="50.79404" lon="2.64658">
        <ele>73.8</ele>
        <time>2023-08-05T12:02:27Z</time>
      </trkpt>
      <trkpt lat="50.79408" lon="2.64663">
        <ele>73.8</ele>
        <time>2023-08-05T12:02:29Z</time>
      </trkpt>
      <trkpt lat="50.79414" lon="2.6467">
        <ele>73.8</ele>
        <time>2023-08-05T12:02:32Z</time>
      </trkpt>
      <trkpt lat="50.79415" lon="2.64672">
        <ele>74</ele>
        <time>2023-08-05T12:02:33Z</time>
      </trkpt>
      <trkpt lat="50.79417" lon="2.64675">
        <ele>74</ele>
        <time>2023-08-05T12:02:34Z</time>
      </trkpt>
      <trkpt lat="50.7942" lon="2.64677">
        <ele>74</ele>
        <time>2023-08-05T12:02:35Z</time>
      </trkpt>
      <trkpt lat="50.79422" lon="2.64679">
        <ele>74</ele>
        <time>2023-08-05T12:02:36Z</time>
      </trkpt>
      <trkpt lat="50.79434" lon="2.64695">
        <ele>74.2</ele>
        <time>2023-08-05T12:02:42Z</time>
      </trkpt>
      <trkpt lat="50.79436" lon="2.64697">
        <ele>74.2</ele>
        <time>2023-08-05T12:02:43Z</time>
      </trkpt>
      <trkpt lat="50.79438" lon="2.64699">
        <ele>74.4</ele>
        <time>2023-08-05T12:02:44Z</time>
      </trkpt>
      <trkpt lat="50.79446" lon="2.64709">
        <ele>74.6</ele>
        <time>2023-08-05T12:02:48Z</time>
      </trkpt>
      <trkpt lat="50.79448" lon="2.64712">
        <ele>74.6</ele>
        <time>2023-08-05T12:02:49Z</time>
      </trkpt>
      <trkpt lat="50.79449" lon="2.64714">
        <ele>74.6</ele>
        <time>2023-08-05T12:02:50Z</time>
      </trkpt>
      <trkpt lat="50.79451" lon="2.64716">
        <ele>74.6</ele>
        <time>2023-08-05T12:02:51Z</time>
      </trkpt>
      <trkpt lat="50.79454" lon="2.64718">
        <ele>74.6</ele>
        <time>2023-08-05T12:02:52Z</time>
      </trkpt>
      <trkpt lat="50.79459" lon="2.64724">
        <ele>74.6</ele>
        <time>2023-08-05T12:02:55Z</time>
      </trkpt>
      <trkpt lat="50.7946" lon="2.64726">
        <ele>74.6</ele>
        <time>2023-08-05T12:02:56Z</time>
      </trkpt>
      <trkpt lat="50.79462" lon="2.64729">
        <ele>74.6</ele>
        <time>2023-08-05T12:02:57Z</time>
      </trkpt>
      <trkpt lat="50.79463" lon="2.64731">
        <ele>74.6</ele>
        <time>2023-08-05T12:02:58Z</time>
      </trkpt>
      <trkpt lat="50.79463" lon="2.64733">
        <ele>74.6</ele>
        <time>2023-08-05T12:02:59Z</time>
      </trkpt>
      <trkpt lat="50.79462" lon="2.64734">
        <ele>74.6</ele>
        <time>2023-08-05T12:03:00Z</time>
      </trkpt>
      <trkpt lat="50.79462" lon="2.64736">
        <ele>74.6</ele>
        <time>2023-08-05T12:03:01Z</time>
      </trkpt>
      <trkpt lat="50.79462" lon="2.64737">
        <ele>74.6</ele>
        <time>2023-08-05T12:03:02Z</time>
      </trkpt>
      <trkpt lat="50.79462" lon="2.64737">
        <ele>74.6</ele>
        <time>2023-08-05T12:03:03Z</time>
      </trkpt>
      <trkpt lat="50.79462" lon="2.64737">
        <ele>74.6</ele>
        <time>2023-08-05T12:03:04Z</time>
      </trkpt>
      <trkpt lat="50.79478" lon="2.64754">
        <ele>74</ele>
        <time>2023-08-05T12:04:29Z</time>
      </trkpt>
      <trkpt lat="50.79494" lon="2.64771">
        <ele>74.2</ele>
        <time>2023-08-05T12:04:35Z</time>
      </trkpt>
      <trkpt lat="50.79498" lon="2.64778">
        <ele>74.2</ele>
        <time>2023-08-05T12:04:37Z</time>
      </trkpt>
      <trkpt lat="50.79501" lon="2.64782">
        <ele>74.2</ele>
        <time>2023-08-05T12:04:38Z</time>
      </trkpt>
      <trkpt lat="50.7951" lon="2.64799">
        <ele>74.2</ele>
        <time>2023-08-05T12:04:42Z</time>
      </trkpt>
      <trkpt lat="50.79514" lon="2.64805">
        <ele>74.2</ele>
        <time>2023-08-05T12:04:44Z</time>
      </trkpt>
      <trkpt lat="50.79524" lon="2.64818">
        <ele>74.2</ele>
        <time>2023-08-05T12:04:48Z</time>
      </trkpt>
      <trkpt lat="50.79529" lon="2.64825">
        <ele>74.2</ele>
        <time>2023-08-05T12:04:50Z</time>
      </trkpt>
      <trkpt lat="50.7953" lon="2.64828">
        <ele>74.2</ele>
        <time>2023-08-05T12:04:51Z</time>
      </trkpt>
      <trkpt lat="50.79532" lon="2.64832">
        <ele>74.2</ele>
        <time>2023-08-05T12:04:52Z</time>
      </trkpt>
      <trkpt lat="50.79536" lon="2.64837">
        <ele>74.2</ele>
        <time>2023-08-05T12:04:53Z</time>
      </trkpt>
      <trkpt lat="50.79545" lon="2.6485">
        <ele>74.4</ele>
        <time>2023-08-05T12:04:57Z</time>
      </trkpt>
      <trkpt lat="50.79548" lon="2.64853">
        <ele>74.4</ele>
        <time>2023-08-05T12:04:58Z</time>
      </trkpt>
      <trkpt lat="50.79554" lon="2.64858">
        <ele>74.4</ele>
        <time>2023-08-05T12:05:00Z</time>
      </trkpt>
      <trkpt lat="50.79556" lon="2.64859">
        <ele>74.6</ele>
        <time>2023-08-05T12:05:01Z</time>
      </trkpt>
      <trkpt lat="50.79559" lon="2.64861">
        <ele>74.6</ele>
        <time>2023-08-05T12:05:02Z</time>
      </trkpt>
      <trkpt lat="50.79562" lon="2.64862">
        <ele>74.6</ele>
        <time>2023-08-05T12:05:03Z</time>
      </trkpt>
      <trkpt lat="50.79567" lon="2.64865">
        <ele>74.6</ele>
        <time>2023-08-05T12:05:04Z</time>
      </trkpt>
      <trkpt lat="50.79575" lon="2.64872">
        <ele>74.6</ele>
        <time>2023-08-05T12:05:05Z</time>
      </trkpt>
      <trkpt lat="50.7959" lon="2.64882">
        <ele>74.4</ele>
        <time>2023-08-05T12:05:09Z</time>
      </trkpt>
      <trkpt lat="50.79597" lon="2.6489">
        <ele>74.4</ele>
        <time>2023-08-05T12:05:11Z</time>
      </trkpt>
      <trkpt lat="50.7961" lon="2.64904">
        <ele>74.4</ele>
        <time>2023-08-05T12:05:15Z</time>
      </trkpt>
      <trkpt lat="50.79637" lon="2.64938">
        <ele>74.2</ele>
        <time>2023-08-05T12:05:22Z</time>
      </trkpt>
      <trkpt lat="50.79654" lon="2.6496">
        <ele>74.2</ele>
        <time>2023-08-05T12:05:26Z</time>
      </trkpt>
      <trkpt lat="50.79667" lon="2.64978">
        <ele>74.2</ele>
        <time>2023-08-05T12:05:30Z</time>
      </trkpt>
      <trkpt lat="50.7967" lon="2.64982">
        <ele>74.2</ele>
        <time>2023-08-05T12:05:31Z</time>
      </trkpt>
      <trkpt lat="50.79674" lon="2.64986">
        <ele>74.2</ele>
        <time>2023-08-05T12:05:32Z</time>
      </trkpt>
      <trkpt lat="50.79677" lon="2.64989">
        <ele>74.2</ele>
        <time>2023-08-05T12:05:33Z</time>
      </trkpt>
      <trkpt lat="50.7968" lon="2.64992">
        <ele>74.2</ele>
        <time>2023-08-05T12:05:34Z</time>
      </trkpt>
      <trkpt lat="50.79684" lon="2.64995">
        <ele>74.2</ele>
        <time>2023-08-05T12:05:35Z</time>
      </trkpt>
      <trkpt lat="50.79688" lon="2.64998">
        <ele>74.2</ele>
        <time>2023-08-05T12:05:36Z</time>
      </trkpt>
      <trkpt lat="50.79711" lon="2.65021">
        <ele>74.4</ele>
        <time>2023-08-05T12:05:42Z</time>
      </trkpt>
      <trkpt lat="50.79735" lon="2.65045">
        <ele>74.2</ele>
        <time>2023-08-05T12:05:47Z</time>
      </trkpt>
      <trkpt lat="50.79737" lon="2.65049">
        <ele>74.2</ele>
        <time>2023-08-05T12:05:48Z</time>
      </trkpt>
      <trkpt lat="50.79738" lon="2.6505">
        <ele>74.2</ele>
        <time>2023-08-05T12:05:49Z</time>
      </trkpt>
      <trkpt lat="50.79739" lon="2.65052">
        <ele>74.2</ele>
        <time>2023-08-05T12:05:50Z</time>
      </trkpt>
      <trkpt lat="50.7974" lon="2.65054">
        <ele>74.2</ele>
        <time>2023-08-05T12:05:51Z</time>
      </trkpt>
      <trkpt lat="50.79741" lon="2.65055">
        <ele>74.2</ele>
        <time>2023-08-05T12:05:52Z</time>
      </trkpt>
      <trkpt lat="50.79742" lon="2.65056">
        <ele>74.2</ele>
        <time>2023-08-05T12:05:53Z</time>
      </trkpt>
      <trkpt lat="50.79743" lon="2.65056">
        <ele>74.2</ele>
        <time>2023-08-05T12:05:54Z</time>
      </trkpt>
      <trkpt lat="50.79743" lon="2.65056">
        <ele>74.2</ele>
        <time>2023-08-05T12:05:55Z</time>
      </trkpt>
      <trkpt lat="50.79744" lon="2.65058">
        <ele>74.2</ele>
        <time>2023-08-05T12:05:56Z</time>
      </trkpt>
      <trkpt lat="50.79744" lon="2.65059">
        <ele>74.2</ele>
        <time>2023-08-05T12:05:57Z</time>
      </trkpt>
      <trkpt lat="50.79743" lon="2.6506">
        <ele>74.2</ele>
        <time>2023-08-05T12:05:58Z</time>
      </trkpt>
      <trkpt lat="50.79741" lon="2.65064">
        <ele>74</ele>
        <time>2023-08-05T12:06:01Z</time>
      </trkpt>
      <trkpt lat="50.79739" lon="2.65068">
        <ele>74</ele>
        <time>2023-08-05T12:06:02Z</time>
      </trkpt>
      <trkpt lat="50.79736" lon="2.6507">
        <ele>74.2</ele>
        <time>2023-08-05T12:06:04Z</time>
      </trkpt>
      <trkpt lat="50.79734" lon="2.65073">
        <ele>74</ele>
        <time>2023-08-05T12:06:05Z</time>
      </trkpt>
      <trkpt lat="50.79729" lon="2.65076">
        <ele>74.2</ele>
        <time>2023-08-05T12:06:07Z</time>
      </trkpt>
      <trkpt lat="50.79718" lon="2.65088">
        <ele>74.4</ele>
        <time>2023-08-05T12:06:12Z</time>
      </trkpt>
      <trkpt lat="50.79715" lon="2.65091">
        <ele>74.4</ele>
        <time>2023-08-05T12:06:13Z</time>
      </trkpt>
      <trkpt lat="50.79695" lon="2.65122">
        <ele>75</ele>
        <time>2023-08-05T12:06:21Z</time>
      </trkpt>
      <trkpt lat="50.79681" lon="2.65144">
        <ele>75.6</ele>
        <time>2023-08-05T12:06:27Z</time>
      </trkpt>
      <trkpt lat="50.79671" lon="2.65159">
        <ele>76.2</ele>
        <time>2023-08-05T12:06:31Z</time>
      </trkpt>
      <trkpt lat="50.79645" lon="2.65195">
        <ele>77.2</ele>
        <time>2023-08-05T12:06:41Z</time>
      </trkpt>
      <trkpt lat="50.79643" lon="2.65198">
        <ele>77.6</ele>
        <time>2023-08-05T12:06:42Z</time>
      </trkpt>
      <trkpt lat="50.79638" lon="2.65206">
        <ele>77.8</ele>
        <time>2023-08-05T12:06:44Z</time>
      </trkpt>
      <trkpt lat="50.79635" lon="2.65209">
        <ele>78</ele>
        <time>2023-08-05T12:06:45Z</time>
      </trkpt>
      <trkpt lat="50.79635" lon="2.65209">
        <ele>78</ele>
        <time>2023-08-05T12:06:46Z</time>
      </trkpt>
      <trkpt lat="50.79627" lon="2.65219">
        <ele>78.2</ele>
        <time>2023-08-05T12:06:48Z</time>
      </trkpt>
      <trkpt lat="50.79625" lon="2.65223">
        <ele>78.2</ele>
        <time>2023-08-05T12:06:49Z</time>
      </trkpt>
      <trkpt lat="50.79623" lon="2.65226">
        <ele>78.4</ele>
        <time>2023-08-05T12:06:50Z</time>
      </trkpt>
      <trkpt lat="50.79623" lon="2.65226">
        <ele>78.4</ele>
        <time>2023-08-05T12:06:51Z</time>
      </trkpt>
      <trkpt lat="50.79619" lon="2.65233">
        <ele>78.6</ele>
        <time>2023-08-05T12:06:52Z</time>
      </trkpt>
      <trkpt lat="50.79617" lon="2.65236">
        <ele>78.8</ele>
        <time>2023-08-05T12:06:53Z</time>
      </trkpt>
      <trkpt lat="50.79615" lon="2.65239">
        <ele>78.8</ele>
        <time>2023-08-05T12:06:54Z</time>
      </trkpt>
      <trkpt lat="50.79612" lon="2.65241">
        <ele>79</ele>
        <time>2023-08-05T12:06:55Z</time>
      </trkpt>
      <trkpt lat="50.7961" lon="2.65244">
        <ele>79.2</ele>
        <time>2023-08-05T12:06:56Z</time>
      </trkpt>
      <trkpt lat="50.79609" lon="2.65247">
        <ele>79.2</ele>
        <time>2023-08-05T12:06:57Z</time>
      </trkpt>
      <trkpt lat="50.79607" lon="2.65249">
        <ele>79.4</ele>
        <time>2023-08-05T12:06:58Z</time>
      </trkpt>
      <trkpt lat="50.79605" lon="2.65252">
        <ele>79.4</ele>
        <time>2023-08-05T12:06:59Z</time>
      </trkpt>
      <trkpt lat="50.79604" lon="2.65255">
        <ele>79.6</ele>
        <time>2023-08-05T12:07:00Z</time>
      </trkpt>
      <trkpt lat="50.79602" lon="2.65257">
        <ele>79.6</ele>
        <time>2023-08-05T12:07:01Z</time>
      </trkpt>
      <trkpt lat="50.796" lon="2.6526">
        <ele>79.6</ele>
        <time>2023-08-05T12:07:02Z</time>
      </trkpt>
      <trkpt lat="50.79598" lon="2.65263">
        <ele>79.8</ele>
        <time>2023-08-05T12:07:03Z</time>
      </trkpt>
      <trkpt lat="50.79596" lon="2.65266">
        <ele>80</ele>
        <time>2023-08-05T12:07:04Z</time>
      </trkpt>
      <trkpt lat="50.79595" lon="2.65268">
        <ele>80.2</ele>
        <time>2023-08-05T12:07:05Z</time>
      </trkpt>
      <trkpt lat="50.79593" lon="2.65271">
        <ele>80.2</ele>
        <time>2023-08-05T12:07:06Z</time>
      </trkpt>
      <trkpt lat="50.79591" lon="2.65273">
        <ele>80.4</ele>
        <time>2023-08-05T12:07:07Z</time>
      </trkpt>
      <trkpt lat="50.79589" lon="2.65276">
        <ele>80.4</ele>
        <time>2023-08-05T12:07:08Z</time>
      </trkpt>
      <trkpt lat="50.79588" lon="2.65279">
        <ele>80.6</ele>
        <time>2023-08-05T12:07:09Z</time>
      </trkpt>
      <trkpt lat="50.79586" lon="2.65281">
        <ele>80.8</ele>
        <time>2023-08-05T12:07:10Z</time>
      </trkpt>
      <trkpt lat="50.79584" lon="2.65284">
        <ele>81</ele>
        <time>2023-08-05T12:07:11Z</time>
      </trkpt>
      <trkpt lat="50.79582" lon="2.65286">
        <ele>80.8</ele>
        <time>2023-08-05T12:07:12Z</time>
      </trkpt>
      <trkpt lat="50.79579" lon="2.65287">
        <ele>81.2</ele>
        <time>2023-08-05T12:07:13Z</time>
      </trkpt>
      <trkpt lat="50.79577" lon="2.65288">
        <ele>81.2</ele>
        <time>2023-08-05T12:07:14Z</time>
      </trkpt>
      <trkpt lat="50.79574" lon="2.65288">
        <ele>81.2</ele>
        <time>2023-08-05T12:07:15Z</time>
      </trkpt>
      <trkpt lat="50.79571" lon="2.65288">
        <ele>81.4</ele>
        <time>2023-08-05T12:07:16Z</time>
      </trkpt>
      <trkpt lat="50.79568" lon="2.65287">
        <ele>81.4</ele>
        <time>2023-08-05T12:07:17Z</time>
      </trkpt>
      <trkpt lat="50.79565" lon="2.65286">
        <ele>81.4</ele>
        <time>2023-08-05T12:07:18Z</time>
      </trkpt>
      <trkpt lat="50.79562" lon="2.65285">
        <ele>81.6</ele>
        <time>2023-08-05T12:07:19Z</time>
      </trkpt>
      <trkpt lat="50.7956" lon="2.65284">
        <ele>81.6</ele>
        <time>2023-08-05T12:07:20Z</time>
      </trkpt>
      <trkpt lat="50.7956" lon="2.65284">
        <ele>81.8</ele>
        <time>2023-08-05T12:07:21Z</time>
      </trkpt>
      <trkpt lat="50.79555" lon="2.6528">
        <ele>81.8</ele>
        <time>2023-08-05T12:07:22Z</time>
      </trkpt>
      <trkpt lat="50.79553" lon="2.65278">
        <ele>82</ele>
        <time>2023-08-05T12:07:23Z</time>
      </trkpt>
      <trkpt lat="50.79551" lon="2.65276">
        <ele>82</ele>
        <time>2023-08-05T12:07:24Z</time>
      </trkpt>
      <trkpt lat="50.79545" lon="2.65264">
        <ele>81.8</ele>
        <time>2023-08-05T12:07:28Z</time>
      </trkpt>
      <trkpt lat="50.79544" lon="2.6526">
        <ele>81.8</ele>
        <time>2023-08-05T12:07:29Z</time>
      </trkpt>
      <trkpt lat="50.79543" lon="2.65256">
        <ele>81.6</ele>
        <time>2023-08-05T12:07:30Z</time>
      </trkpt>
      <trkpt lat="50.79541" lon="2.65251">
        <ele>81.6</ele>
        <time>2023-08-05T12:07:31Z</time>
      </trkpt>
      <trkpt lat="50.79538" lon="2.65247">
        <ele>81.6</ele>
        <time>2023-08-05T12:07:32Z</time>
      </trkpt>
      <trkpt lat="50.79535" lon="2.65244">
        <ele>81.6</ele>
        <time>2023-08-05T12:07:33Z</time>
      </trkpt>
      <trkpt lat="50.79532" lon="2.65242">
        <ele>81.4</ele>
        <time>2023-08-05T12:07:34Z</time>
      </trkpt>
      <trkpt lat="50.79527" lon="2.65241">
        <ele>81.2</ele>
        <time>2023-08-05T12:07:35Z</time>
      </trkpt>
      <trkpt lat="50.79523" lon="2.65241">
        <ele>80.8</ele>
        <time>2023-08-05T12:07:36Z</time>
      </trkpt>
      <trkpt lat="50.79519" lon="2.65242">
        <ele>80.6</ele>
        <time>2023-08-05T12:07:37Z</time>
      </trkpt>
      <trkpt lat="50.79515" lon="2.65243">
        <ele>80.2</ele>
        <time>2023-08-05T12:07:38Z</time>
      </trkpt>
      <trkpt lat="50.79511" lon="2.65245">
        <ele>80.2</ele>
        <time>2023-08-05T12:07:39Z</time>
      </trkpt>
      <trkpt lat="50.79508" lon="2.65248">
        <ele>80</ele>
        <time>2023-08-05T12:07:40Z</time>
      </trkpt>
      <trkpt lat="50.79504" lon="2.65252">
        <ele>79.8</ele>
        <time>2023-08-05T12:07:41Z</time>
      </trkpt>
      <trkpt lat="50.79502" lon="2.65257">
        <ele>79.4</ele>
        <time>2023-08-05T12:07:42Z</time>
      </trkpt>
      <trkpt lat="50.79499" lon="2.65261">
        <ele>79.4</ele>
        <time>2023-08-05T12:07:43Z</time>
      </trkpt>
      <trkpt lat="50.79497" lon="2.65264">
        <ele>79</ele>
        <time>2023-08-05T12:07:44Z</time>
      </trkpt>
      <trkpt lat="50.79495" lon="2.65267">
        <ele>79</ele>
        <time>2023-08-05T12:07:45Z</time>
      </trkpt>
      <trkpt lat="50.79492" lon="2.6527">
        <ele>78.8</ele>
        <time>2023-08-05T12:07:46Z</time>
      </trkpt>
      <trkpt lat="50.79488" lon="2.65272">
        <ele>78.6</ele>
        <time>2023-08-05T12:07:47Z</time>
      </trkpt>
      <trkpt lat="50.79485" lon="2.65274">
        <ele>78.6</ele>
        <time>2023-08-05T12:07:48Z</time>
      </trkpt>
      <trkpt lat="50.79481" lon="2.65277">
        <ele>78.4</ele>
        <time>2023-08-05T12:07:49Z</time>
      </trkpt>
      <trkpt lat="50.79469" lon="2.65291">
        <ele>78.4</ele>
        <time>2023-08-05T12:07:53Z</time>
      </trkpt>
      <trkpt lat="50.79457" lon="2.65316">
        <ele>78.2</ele>
        <time>2023-08-05T12:07:59Z</time>
      </trkpt>
      <trkpt lat="50.79452" lon="2.65327">
        <ele>78.2</ele>
        <time>2023-08-05T12:08:02Z</time>
      </trkpt>
      <trkpt lat="50.79451" lon="2.6533">
        <ele>78.2</ele>
        <time>2023-08-05T12:08:03Z</time>
      </trkpt>
      <trkpt lat="50.79449" lon="2.65333">
        <ele>78.2</ele>
        <time>2023-08-05T12:08:04Z</time>
      </trkpt>
      <trkpt lat="50.79448" lon="2.65337">
        <ele>78.4</ele>
        <time>2023-08-05T12:08:05Z</time>
      </trkpt>
      <trkpt lat="50.79446" lon="2.6534">
        <ele>78.4</ele>
        <time>2023-08-05T12:08:06Z</time>
      </trkpt>
      <trkpt lat="50.79445" lon="2.65343">
        <ele>78.6</ele>
        <time>2023-08-05T12:08:07Z</time>
      </trkpt>
      <trkpt lat="50.79444" lon="2.65346">
        <ele>78.8</ele>
        <time>2023-08-05T12:08:08Z</time>
      </trkpt>
      <trkpt lat="50.79442" lon="2.65349">
        <ele>78.8</ele>
        <time>2023-08-05T12:08:09Z</time>
      </trkpt>
      <trkpt lat="50.79441" lon="2.65352">
        <ele>79</ele>
        <time>2023-08-05T12:08:10Z</time>
      </trkpt>
      <trkpt lat="50.79439" lon="2.65355">
        <ele>79</ele>
        <time>2023-08-05T12:08:11Z</time>
      </trkpt>
      <trkpt lat="50.79438" lon="2.65359">
        <ele>79.2</ele>
        <time>2023-08-05T12:08:12Z</time>
      </trkpt>
      <trkpt lat="50.79436" lon="2.65362">
        <ele>79.2</ele>
        <time>2023-08-05T12:08:13Z</time>
      </trkpt>
      <trkpt lat="50.79434" lon="2.65365">
        <ele>79.4</ele>
        <time>2023-08-05T12:08:14Z</time>
      </trkpt>
      <trkpt lat="50.79429" lon="2.65373">
        <ele>79.8</ele>
        <time>2023-08-05T12:08:17Z</time>
      </trkpt>
      <trkpt lat="50.79422" lon="2.65382">
        <ele>80.4</ele>
        <time>2023-08-05T12:08:21Z</time>
      </trkpt>
      <trkpt lat="50.7942" lon="2.65384">
        <ele>80.4</ele>
        <time>2023-08-05T12:08:22Z</time>
      </trkpt>
      <trkpt lat="50.79419" lon="2.65386">
        <ele>80.8</ele>
        <time>2023-08-05T12:08:23Z</time>
      </trkpt>
      <trkpt lat="50.79418" lon="2.65387">
        <ele>81</ele>
        <time>2023-08-05T12:08:24Z</time>
      </trkpt>
      <trkpt lat="50.79417" lon="2.65388">
        <ele>81</ele>
        <time>2023-08-05T12:08:25Z</time>
      </trkpt>
      <trkpt lat="50.79416" lon="2.6539">
        <ele>81.4</ele>
        <time>2023-08-05T12:08:26Z</time>
      </trkpt>
      <trkpt lat="50.79414" lon="2.65391">
        <ele>81.6</ele>
        <time>2023-08-05T12:08:27Z</time>
      </trkpt>
      <trkpt lat="50.79412" lon="2.65393">
        <ele>81.8</ele>
        <time>2023-08-05T12:08:28Z</time>
      </trkpt>
      <trkpt lat="50.79406" lon="2.65397">
        <ele>82.2</ele>
        <time>2023-08-05T12:08:31Z</time>
      </trkpt>
      <trkpt lat="50.79404" lon="2.65398">
        <ele>82.2</ele>
        <time>2023-08-05T12:08:32Z</time>
      </trkpt>
      <trkpt lat="50.79402" lon="2.65399">
        <ele>82.4</ele>
        <time>2023-08-05T12:08:33Z</time>
      </trkpt>
      <trkpt lat="50.794" lon="2.654">
        <ele>82.6</ele>
        <time>2023-08-05T12:08:34Z</time>
      </trkpt>
      <trkpt lat="50.79398" lon="2.65402">
        <ele>83</ele>
        <time>2023-08-05T12:08:35Z</time>
      </trkpt>
      <trkpt lat="50.79398" lon="2.65402">
        <ele>83</ele>
        <time>2023-08-05T12:08:36Z</time>
      </trkpt>
      <trkpt lat="50.79394" lon="2.65404">
        <ele>83.2</ele>
        <time>2023-08-05T12:08:37Z</time>
      </trkpt>
      <trkpt lat="50.79392" lon="2.65405">
        <ele>83.4</ele>
        <time>2023-08-05T12:08:38Z</time>
      </trkpt>
      <trkpt lat="50.7939" lon="2.65407">
        <ele>83.4</ele>
        <time>2023-08-05T12:08:39Z</time>
      </trkpt>
      <trkpt lat="50.79388" lon="2.65408">
        <ele>83.6</ele>
        <time>2023-08-05T12:08:40Z</time>
      </trkpt>
      <trkpt lat="50.79386" lon="2.6541">
        <ele>83.6</ele>
        <time>2023-08-05T12:08:41Z</time>
      </trkpt>
      <trkpt lat="50.79384" lon="2.65411">
        <ele>83.8</ele>
        <time>2023-08-05T12:08:42Z</time>
      </trkpt>
      <trkpt lat="50.79382" lon="2.65412">
        <ele>83.8</ele>
        <time>2023-08-05T12:08:43Z</time>
      </trkpt>
      <trkpt lat="50.7938" lon="2.65413">
        <ele>84</ele>
        <time>2023-08-05T12:08:44Z</time>
      </trkpt>
      <trkpt lat="50.79378" lon="2.65414">
        <ele>84.2</ele>
        <time>2023-08-05T12:08:45Z</time>
      </trkpt>
      <trkpt lat="50.79376" lon="2.65416">
        <ele>84.2</ele>
        <time>2023-08-05T12:08:46Z</time>
      </trkpt>
      <trkpt lat="50.79374" lon="2.65417">
        <ele>84.4</ele>
        <time>2023-08-05T12:08:47Z</time>
      </trkpt>
      <trkpt lat="50.79371" lon="2.65419">
        <ele>84.6</ele>
        <time>2023-08-05T12:08:48Z</time>
      </trkpt>
      <trkpt lat="50.79369" lon="2.6542">
        <ele>84.6</ele>
        <time>2023-08-05T12:08:49Z</time>
      </trkpt>
      <trkpt lat="50.79367" lon="2.65421">
        <ele>84.6</ele>
        <time>2023-08-05T12:08:50Z</time>
      </trkpt>
      <trkpt lat="50.79365" lon="2.65422">
        <ele>84.8</ele>
        <time>2023-08-05T12:08:51Z</time>
      </trkpt>
      <trkpt lat="50.79363" lon="2.65423">
        <ele>85</ele>
        <time>2023-08-05T12:08:52Z</time>
      </trkpt>
      <trkpt lat="50.79361" lon="2.65424">
        <ele>85.2</ele>
        <time>2023-08-05T12:08:53Z</time>
      </trkpt>
      <trkpt lat="50.79359" lon="2.65426">
        <ele>85.2</ele>
        <time>2023-08-05T12:08:54Z</time>
      </trkpt>
      <trkpt lat="50.79357" lon="2.65427">
        <ele>85.2</ele>
        <time>2023-08-05T12:08:55Z</time>
      </trkpt>
      <trkpt lat="50.79355" lon="2.65429">
        <ele>85.2</ele>
        <time>2023-08-05T12:08:56Z</time>
      </trkpt>
      <trkpt lat="50.79355" lon="2.65429">
        <ele>85.2</ele>
        <time>2023-08-05T12:08:57Z</time>
      </trkpt>
      <trkpt lat="50.79351" lon="2.65432">
        <ele>85.4</ele>
        <time>2023-08-05T12:08:58Z</time>
      </trkpt>
      <trkpt lat="50.79348" lon="2.65432">
        <ele>85.4</ele>
        <time>2023-08-05T12:08:59Z</time>
      </trkpt>
      <trkpt lat="50.79346" lon="2.65433">
        <ele>85.6</ele>
        <time>2023-08-05T12:09:00Z</time>
      </trkpt>
      <trkpt lat="50.79344" lon="2.65434">
        <ele>85.6</ele>
        <time>2023-08-05T12:09:01Z</time>
      </trkpt>
      <trkpt lat="50.79342" lon="2.65435">
        <ele>85.8</ele>
        <time>2023-08-05T12:09:02Z</time>
      </trkpt>
      <trkpt lat="50.7934" lon="2.65436">
        <ele>85.8</ele>
        <time>2023-08-05T12:09:03Z</time>
      </trkpt>
      <trkpt lat="50.79338" lon="2.65437">
        <ele>85.8</ele>
        <time>2023-08-05T12:09:04Z</time>
      </trkpt>
      <trkpt lat="50.79336" lon="2.65438">
        <ele>86</ele>
        <time>2023-08-05T12:09:05Z</time>
      </trkpt>
      <trkpt lat="50.79334" lon="2.65439">
        <ele>86</ele>
        <time>2023-08-05T12:09:06Z</time>
      </trkpt>
      <trkpt lat="50.79328" lon="2.65443">
        <ele>86.4</ele>
        <time>2023-08-05T12:09:09Z</time>
      </trkpt>
      <trkpt lat="50.79321" lon="2.65446">
        <ele>86.8</ele>
        <time>2023-08-05T12:09:12Z</time>
      </trkpt>
      <trkpt lat="50.79305" lon="2.65456">
        <ele>87.2</ele>
        <time>2023-08-05T12:09:20Z</time>
      </trkpt>
      <trkpt lat="50.79297" lon="2.65461">
        <ele>87.6</ele>
        <time>2023-08-05T12:09:24Z</time>
      </trkpt>
      <trkpt lat="50.79295" lon="2.65462">
        <ele>87.6</ele>
        <time>2023-08-05T12:09:25Z</time>
      </trkpt>
      <trkpt lat="50.79293" lon="2.65463">
        <ele>87.8</ele>
        <time>2023-08-05T12:09:26Z</time>
      </trkpt>
      <trkpt lat="50.79291" lon="2.65464">
        <ele>88</ele>
        <time>2023-08-05T12:09:27Z</time>
      </trkpt>
      <trkpt lat="50.7929" lon="2.65466">
        <ele>88.2</ele>
        <time>2023-08-05T12:09:28Z</time>
      </trkpt>
      <trkpt lat="50.79288" lon="2.65467">
        <ele>88.2</ele>
        <time>2023-08-05T12:09:29Z</time>
      </trkpt>
      <trkpt lat="50.79286" lon="2.65468">
        <ele>88.4</ele>
        <time>2023-08-05T12:09:30Z</time>
      </trkpt>
      <trkpt lat="50.79285" lon="2.65469">
        <ele>88.4</ele>
        <time>2023-08-05T12:09:31Z</time>
      </trkpt>
      <trkpt lat="50.79283" lon="2.6547">
        <ele>88.4</ele>
        <time>2023-08-05T12:09:32Z</time>
      </trkpt>
      <trkpt lat="50.79281" lon="2.65471">
        <ele>88.6</ele>
        <time>2023-08-05T12:09:33Z</time>
      </trkpt>
      <trkpt lat="50.7928" lon="2.65472">
        <ele>88.6</ele>
        <time>2023-08-05T12:09:34Z</time>
      </trkpt>
      <trkpt lat="50.79278" lon="2.65473">
        <ele>88.8</ele>
        <time>2023-08-05T12:09:35Z</time>
      </trkpt>
      <trkpt lat="50.79276" lon="2.65474">
        <ele>88.8</ele>
        <time>2023-08-05T12:09:36Z</time>
      </trkpt>
      <trkpt lat="50.79275" lon="2.65475">
        <ele>89</ele>
        <time>2023-08-05T12:09:37Z</time>
      </trkpt>
      <trkpt lat="50.79273" lon="2.65476">
        <ele>89.2</ele>
        <time>2023-08-05T12:09:38Z</time>
      </trkpt>
      <trkpt lat="50.79272" lon="2.65477">
        <ele>89.2</ele>
        <time>2023-08-05T12:09:39Z</time>
      </trkpt>
      <trkpt lat="50.7927" lon="2.65478">
        <ele>89.4</ele>
        <time>2023-08-05T12:09:40Z</time>
      </trkpt>
      <trkpt lat="50.79269" lon="2.65479">
        <ele>89.6</ele>
        <time>2023-08-05T12:09:41Z</time>
      </trkpt>
      <trkpt lat="50.79268" lon="2.6548">
        <ele>90</ele>
        <time>2023-08-05T12:09:42Z</time>
      </trkpt>
      <trkpt lat="50.79266" lon="2.6548">
        <ele>90.2</ele>
        <time>2023-08-05T12:09:43Z</time>
      </trkpt>
      <trkpt lat="50.79264" lon="2.65481">
        <ele>90.2</ele>
        <time>2023-08-05T12:09:44Z</time>
      </trkpt>
      <trkpt lat="50.79263" lon="2.65483">
        <ele>90.4</ele>
        <time>2023-08-05T12:09:45Z</time>
      </trkpt>
      <trkpt lat="50.79261" lon="2.65484">
        <ele>90.6</ele>
        <time>2023-08-05T12:09:46Z</time>
      </trkpt>
      <trkpt lat="50.7926" lon="2.65485">
        <ele>90.6</ele>
        <time>2023-08-05T12:09:47Z</time>
      </trkpt>
      <trkpt lat="50.79258" lon="2.65486">
        <ele>90.8</ele>
        <time>2023-08-05T12:09:48Z</time>
      </trkpt>
      <trkpt lat="50.79256" lon="2.65488">
        <ele>90.8</ele>
        <time>2023-08-05T12:09:49Z</time>
      </trkpt>
      <trkpt lat="50.79254" lon="2.65488">
        <ele>90.8</ele>
        <time>2023-08-05T12:09:50Z</time>
      </trkpt>
      <trkpt lat="50.79253" lon="2.65489">
        <ele>91</ele>
        <time>2023-08-05T12:09:51Z</time>
      </trkpt>
      <trkpt lat="50.79251" lon="2.6549">
        <ele>91</ele>
        <time>2023-08-05T12:09:52Z</time>
      </trkpt>
      <trkpt lat="50.7925" lon="2.65491">
        <ele>91.2</ele>
        <time>2023-08-05T12:09:53Z</time>
      </trkpt>
      <trkpt lat="50.79248" lon="2.65492">
        <ele>91.4</ele>
        <time>2023-08-05T12:09:54Z</time>
      </trkpt>
      <trkpt lat="50.79247" lon="2.65493">
        <ele>91.6</ele>
        <time>2023-08-05T12:09:55Z</time>
      </trkpt>
      <trkpt lat="50.79245" lon="2.65495">
        <ele>91.8</ele>
        <time>2023-08-05T12:09:56Z</time>
      </trkpt>
      <trkpt lat="50.79244" lon="2.65496">
        <ele>91.8</ele>
        <time>2023-08-05T12:09:57Z</time>
      </trkpt>
      <trkpt lat="50.79243" lon="2.65497">
        <ele>92</ele>
        <time>2023-08-05T12:09:58Z</time>
      </trkpt>
      <trkpt lat="50.79241" lon="2.65499">
        <ele>92.2</ele>
        <time>2023-08-05T12:09:59Z</time>
      </trkpt>
      <trkpt lat="50.7924" lon="2.655">
        <ele>92.4</ele>
        <time>2023-08-05T12:10:00Z</time>
      </trkpt>
      <trkpt lat="50.79239" lon="2.65501">
        <ele>92.4</ele>
        <time>2023-08-05T12:10:01Z</time>
      </trkpt>
      <trkpt lat="50.79237" lon="2.65502">
        <ele>92.4</ele>
        <time>2023-08-05T12:10:02Z</time>
      </trkpt>
      <trkpt lat="50.79235" lon="2.65503">
        <ele>92.6</ele>
        <time>2023-08-05T12:10:03Z</time>
      </trkpt>
      <trkpt lat="50.79233" lon="2.65503">
        <ele>92.8</ele>
        <time>2023-08-05T12:10:04Z</time>
      </trkpt>
      <trkpt lat="50.79232" lon="2.65504">
        <ele>92.8</ele>
        <time>2023-08-05T12:10:05Z</time>
      </trkpt>
      <trkpt lat="50.7923" lon="2.65505">
        <ele>93</ele>
        <time>2023-08-05T12:10:06Z</time>
      </trkpt>
      <trkpt lat="50.79228" lon="2.65505">
        <ele>93</ele>
        <time>2023-08-05T12:10:07Z</time>
      </trkpt>
      <trkpt lat="50.79227" lon="2.65506">
        <ele>93.2</ele>
        <time>2023-08-05T12:10:08Z</time>
      </trkpt>
      <trkpt lat="50.79225" lon="2.65508">
        <ele>93.4</ele>
        <time>2023-08-05T12:10:09Z</time>
      </trkpt>
      <trkpt lat="50.79224" lon="2.65509">
        <ele>93.4</ele>
        <time>2023-08-05T12:10:10Z</time>
      </trkpt>
      <trkpt lat="50.79223" lon="2.6551">
        <ele>93.8</ele>
        <time>2023-08-05T12:10:11Z</time>
      </trkpt>
      <trkpt lat="50.79221" lon="2.65511">
        <ele>94</ele>
        <time>2023-08-05T12:10:12Z</time>
      </trkpt>
      <trkpt lat="50.7922" lon="2.65512">
        <ele>94.2</ele>
        <time>2023-08-05T12:10:13Z</time>
      </trkpt>
      <trkpt lat="50.79218" lon="2.65513">
        <ele>94.6</ele>
        <time>2023-08-05T12:10:14Z</time>
      </trkpt>
      <trkpt lat="50.79217" lon="2.65514">
        <ele>94.6</ele>
        <time>2023-08-05T12:10:15Z</time>
      </trkpt>
      <trkpt lat="50.79215" lon="2.65515">
        <ele>94.8</ele>
        <time>2023-08-05T12:10:16Z</time>
      </trkpt>
      <trkpt lat="50.79214" lon="2.65515">
        <ele>94.8</ele>
        <time>2023-08-05T12:10:17Z</time>
      </trkpt>
      <trkpt lat="50.79212" lon="2.65515">
        <ele>95</ele>
        <time>2023-08-05T12:10:18Z</time>
      </trkpt>
      <trkpt lat="50.79211" lon="2.65516">
        <ele>95</ele>
        <time>2023-08-05T12:10:19Z</time>
      </trkpt>
      <trkpt lat="50.79209" lon="2.65516">
        <ele>95</ele>
        <time>2023-08-05T12:10:20Z</time>
      </trkpt>
      <trkpt lat="50.79208" lon="2.65517">
        <ele>95.2</ele>
        <time>2023-08-05T12:10:21Z</time>
      </trkpt>
      <trkpt lat="50.79206" lon="2.65518">
        <ele>95.2</ele>
        <time>2023-08-05T12:10:22Z</time>
      </trkpt>
      <trkpt lat="50.79204" lon="2.65518">
        <ele>95.4</ele>
        <time>2023-08-05T12:10:23Z</time>
      </trkpt>
      <trkpt lat="50.79203" lon="2.65519">
        <ele>95.6</ele>
        <time>2023-08-05T12:10:24Z</time>
      </trkpt>
      <trkpt lat="50.79201" lon="2.6552">
        <ele>95.8</ele>
        <time>2023-08-05T12:10:25Z</time>
      </trkpt>
      <trkpt lat="50.792" lon="2.6552">
        <ele>95.8</ele>
        <time>2023-08-05T12:10:26Z</time>
      </trkpt>
      <trkpt lat="50.79198" lon="2.65521">
        <ele>96</ele>
        <time>2023-08-05T12:10:27Z</time>
      </trkpt>
      <trkpt lat="50.79196" lon="2.65523">
        <ele>96</ele>
        <time>2023-08-05T12:10:28Z</time>
      </trkpt>
      <trkpt lat="50.79195" lon="2.65523">
        <ele>96</ele>
        <time>2023-08-05T12:10:29Z</time>
      </trkpt>
      <trkpt lat="50.79193" lon="2.65524">
        <ele>96.2</ele>
        <time>2023-08-05T12:10:30Z</time>
      </trkpt>
      <trkpt lat="50.79192" lon="2.65524">
        <ele>96.2</ele>
        <time>2023-08-05T12:10:31Z</time>
      </trkpt>
      <trkpt lat="50.7919" lon="2.65525">
        <ele>96.4</ele>
        <time>2023-08-05T12:10:32Z</time>
      </trkpt>
      <trkpt lat="50.79189" lon="2.65526">
        <ele>96.4</ele>
        <time>2023-08-05T12:10:33Z</time>
      </trkpt>
      <trkpt lat="50.79187" lon="2.65527">
        <ele>96.6</ele>
        <time>2023-08-05T12:10:34Z</time>
      </trkpt>
      <trkpt lat="50.79186" lon="2.65528">
        <ele>96.6</ele>
        <time>2023-08-05T12:10:35Z</time>
      </trkpt>
      <trkpt lat="50.79184" lon="2.65529">
        <ele>96.8</ele>
        <time>2023-08-05T12:10:36Z</time>
      </trkpt>
      <trkpt lat="50.79183" lon="2.65529">
        <ele>96.8</ele>
        <time>2023-08-05T12:10:37Z</time>
      </trkpt>
      <trkpt lat="50.79182" lon="2.6553">
        <ele>96.8</ele>
        <time>2023-08-05T12:10:38Z</time>
      </trkpt>
      <trkpt lat="50.7918" lon="2.65532">
        <ele>97</ele>
        <time>2023-08-05T12:10:39Z</time>
      </trkpt>
      <trkpt lat="50.79179" lon="2.65533">
        <ele>97</ele>
        <time>2023-08-05T12:10:40Z</time>
      </trkpt>
      <trkpt lat="50.79177" lon="2.65534">
        <ele>97.2</ele>
        <time>2023-08-05T12:10:41Z</time>
      </trkpt>
      <trkpt lat="50.79176" lon="2.65535">
        <ele>97.2</ele>
        <time>2023-08-05T12:10:42Z</time>
      </trkpt>
      <trkpt lat="50.79175" lon="2.65535">
        <ele>97.4</ele>
        <time>2023-08-05T12:10:43Z</time>
      </trkpt>
      <trkpt lat="50.79173" lon="2.65536">
        <ele>97.6</ele>
        <time>2023-08-05T12:10:44Z</time>
      </trkpt>
      <trkpt lat="50.79172" lon="2.65537">
        <ele>97.8</ele>
        <time>2023-08-05T12:10:45Z</time>
      </trkpt>
      <trkpt lat="50.79171" lon="2.65539">
        <ele>98</ele>
        <time>2023-08-05T12:10:46Z</time>
      </trkpt>
      <trkpt lat="50.79169" lon="2.6554">
        <ele>98</ele>
        <time>2023-08-05T12:10:47Z</time>
      </trkpt>
      <trkpt lat="50.79168" lon="2.65541">
        <ele>98</ele>
        <time>2023-08-05T12:10:48Z</time>
      </trkpt>
      <trkpt lat="50.79167" lon="2.65541">
        <ele>98</ele>
        <time>2023-08-05T12:10:49Z</time>
      </trkpt>
      <trkpt lat="50.79166" lon="2.65542">
        <ele>98.2</ele>
        <time>2023-08-05T12:10:50Z</time>
      </trkpt>
      <trkpt lat="50.79164" lon="2.65542">
        <ele>98.2</ele>
        <time>2023-08-05T12:10:51Z</time>
      </trkpt>
      <trkpt lat="50.79163" lon="2.65543">
        <ele>98.4</ele>
        <time>2023-08-05T12:10:52Z</time>
      </trkpt>
      <trkpt lat="50.79162" lon="2.65543">
        <ele>98.4</ele>
        <time>2023-08-05T12:10:53Z</time>
      </trkpt>
      <trkpt lat="50.79161" lon="2.65543">
        <ele>98.4</ele>
        <time>2023-08-05T12:10:54Z</time>
      </trkpt>
      <trkpt lat="50.79159" lon="2.65542">
        <ele>98.4</ele>
        <time>2023-08-05T12:10:55Z</time>
      </trkpt>
      <trkpt lat="50.79157" lon="2.65542">
        <ele>98.6</ele>
        <time>2023-08-05T12:10:56Z</time>
      </trkpt>
      <trkpt lat="50.79156" lon="2.65543">
        <ele>98.8</ele>
        <time>2023-08-05T12:10:57Z</time>
      </trkpt>
      <trkpt lat="50.79154" lon="2.65544">
        <ele>99</ele>
        <time>2023-08-05T12:10:58Z</time>
      </trkpt>
      <trkpt lat="50.79152" lon="2.65545">
        <ele>99.2</ele>
        <time>2023-08-05T12:11:00Z</time>
      </trkpt>
      <trkpt lat="50.79151" lon="2.65546">
        <ele>99.2</ele>
        <time>2023-08-05T12:11:01Z</time>
      </trkpt>
      <trkpt lat="50.7915" lon="2.65546">
        <ele>99.2</ele>
        <time>2023-08-05T12:11:02Z</time>
      </trkpt>
      <trkpt lat="50.79149" lon="2.65547">
        <ele>99.4</ele>
        <time>2023-08-05T12:11:03Z</time>
      </trkpt>
      <trkpt lat="50.79148" lon="2.65549">
        <ele>99.4</ele>
        <time>2023-08-05T12:11:04Z</time>
      </trkpt>
      <trkpt lat="50.79147" lon="2.6555">
        <ele>99.6</ele>
        <time>2023-08-05T12:11:05Z</time>
      </trkpt>
      <trkpt lat="50.79146" lon="2.65551">
        <ele>100</ele>
        <time>2023-08-05T12:11:06Z</time>
      </trkpt>
      <trkpt lat="50.79144" lon="2.65551">
        <ele>100.2</ele>
        <time>2023-08-05T12:11:07Z</time>
      </trkpt>
      <trkpt lat="50.79143" lon="2.65551">
        <ele>100.2</ele>
        <time>2023-08-05T12:11:08Z</time>
      </trkpt>
      <trkpt lat="50.79142" lon="2.65552">
        <ele>100.4</ele>
        <time>2023-08-05T12:11:09Z</time>
      </trkpt>
      <trkpt lat="50.79141" lon="2.65553">
        <ele>100.6</ele>
        <time>2023-08-05T12:11:10Z</time>
      </trkpt>
      <trkpt lat="50.7914" lon="2.65554">
        <ele>100.8</ele>
        <time>2023-08-05T12:11:11Z</time>
      </trkpt>
      <trkpt lat="50.79139" lon="2.65555">
        <ele>101</ele>
        <time>2023-08-05T12:11:12Z</time>
      </trkpt>
      <trkpt lat="50.79138" lon="2.65557">
        <ele>101.2</ele>
        <time>2023-08-05T12:11:13Z</time>
      </trkpt>
      <trkpt lat="50.79137" lon="2.65558">
        <ele>101.4</ele>
        <time>2023-08-05T12:11:14Z</time>
      </trkpt>
      <trkpt lat="50.79136" lon="2.65559">
        <ele>101.4</ele>
        <time>2023-08-05T12:11:15Z</time>
      </trkpt>
      <trkpt lat="50.79134" lon="2.6556">
        <ele>101.6</ele>
        <time>2023-08-05T12:11:16Z</time>
      </trkpt>
      <trkpt lat="50.79133" lon="2.65561">
        <ele>101.8</ele>
        <time>2023-08-05T12:11:17Z</time>
      </trkpt>
      <trkpt lat="50.79132" lon="2.65563">
        <ele>102</ele>
        <time>2023-08-05T12:11:18Z</time>
      </trkpt>
      <trkpt lat="50.79131" lon="2.65565">
        <ele>102</ele>
        <time>2023-08-05T12:11:19Z</time>
      </trkpt>
      <trkpt lat="50.7913" lon="2.65566">
        <ele>102.2</ele>
        <time>2023-08-05T12:11:20Z</time>
      </trkpt>
      <trkpt lat="50.79129" lon="2.65568">
        <ele>102.4</ele>
        <time>2023-08-05T12:11:21Z</time>
      </trkpt>
      <trkpt lat="50.79128" lon="2.65569">
        <ele>102.4</ele>
        <time>2023-08-05T12:11:22Z</time>
      </trkpt>
      <trkpt lat="50.79127" lon="2.65571">
        <ele>102.8</ele>
        <time>2023-08-05T12:11:23Z</time>
      </trkpt>
      <trkpt lat="50.79126" lon="2.65573">
        <ele>103</ele>
        <time>2023-08-05T12:11:24Z</time>
      </trkpt>
      <trkpt lat="50.79125" lon="2.65575">
        <ele>103.2</ele>
        <time>2023-08-05T12:11:25Z</time>
      </trkpt>
      <trkpt lat="50.79124" lon="2.65577">
        <ele>103.2</ele>
        <time>2023-08-05T12:11:26Z</time>
      </trkpt>
      <trkpt lat="50.79123" lon="2.65579">
        <ele>103.4</ele>
        <time>2023-08-05T12:11:27Z</time>
      </trkpt>
      <trkpt lat="50.79122" lon="2.6558">
        <ele>103.6</ele>
        <time>2023-08-05T12:11:28Z</time>
      </trkpt>
      <trkpt lat="50.79121" lon="2.65582">
        <ele>103.8</ele>
        <time>2023-08-05T12:11:29Z</time>
      </trkpt>
      <trkpt lat="50.7912" lon="2.65583">
        <ele>104</ele>
        <time>2023-08-05T12:11:30Z</time>
      </trkpt>
      <trkpt lat="50.79119" lon="2.65584">
        <ele>104</ele>
        <time>2023-08-05T12:11:31Z</time>
      </trkpt>
      <trkpt lat="50.79117" lon="2.65586">
        <ele>104.2</ele>
        <time>2023-08-05T12:11:32Z</time>
      </trkpt>
      <trkpt lat="50.79117" lon="2.65588">
        <ele>104.2</ele>
        <time>2023-08-05T12:11:33Z</time>
      </trkpt>
      <trkpt lat="50.79116" lon="2.6559">
        <ele>104.4</ele>
        <time>2023-08-05T12:11:34Z</time>
      </trkpt>
      <trkpt lat="50.79115" lon="2.6559">
        <ele>104.6</ele>
        <time>2023-08-05T12:11:35Z</time>
      </trkpt>
      <trkpt lat="50.79113" lon="2.65592">
        <ele>105</ele>
        <time>2023-08-05T12:11:36Z</time>
      </trkpt>
      <trkpt lat="50.79111" lon="2.65593">
        <ele>105.2</ele>
        <time>2023-08-05T12:11:37Z</time>
      </trkpt>
      <trkpt lat="50.79109" lon="2.65593">
        <ele>105.2</ele>
        <time>2023-08-05T12:11:38Z</time>
      </trkpt>
      <trkpt lat="50.79108" lon="2.65594">
        <ele>105.6</ele>
        <time>2023-08-05T12:11:39Z</time>
      </trkpt>
      <trkpt lat="50.79107" lon="2.65594">
        <ele>105.6</ele>
        <time>2023-08-05T12:11:40Z</time>
      </trkpt>
      <trkpt lat="50.79106" lon="2.65595">
        <ele>105.8</ele>
        <time>2023-08-05T12:11:41Z</time>
      </trkpt>
      <trkpt lat="50.79105" lon="2.65596">
        <ele>106</ele>
        <time>2023-08-05T12:11:42Z</time>
      </trkpt>
      <trkpt lat="50.79104" lon="2.65597">
        <ele>106.4</ele>
        <time>2023-08-05T12:11:43Z</time>
      </trkpt>
      <trkpt lat="50.79103" lon="2.65597">
        <ele>106.4</ele>
        <time>2023-08-05T12:11:44Z</time>
      </trkpt>
      <trkpt lat="50.79102" lon="2.65598">
        <ele>106.8</ele>
        <time>2023-08-05T12:11:45Z</time>
      </trkpt>
      <trkpt lat="50.79101" lon="2.65599">
        <ele>106.8</ele>
        <time>2023-08-05T12:11:46Z</time>
      </trkpt>
      <trkpt lat="50.791" lon="2.656">
        <ele>106.8</ele>
        <time>2023-08-05T12:11:47Z</time>
      </trkpt>
      <trkpt lat="50.79098" lon="2.65601">
        <ele>107</ele>
        <time>2023-08-05T12:11:48Z</time>
      </trkpt>
      <trkpt lat="50.79096" lon="2.65602">
        <ele>107.2</ele>
        <time>2023-08-05T12:11:49Z</time>
      </trkpt>
      <trkpt lat="50.79095" lon="2.65602">
        <ele>107.4</ele>
        <time>2023-08-05T12:11:50Z</time>
      </trkpt>
      <trkpt lat="50.79094" lon="2.65603">
        <ele>107.6</ele>
        <time>2023-08-05T12:11:51Z</time>
      </trkpt>
      <trkpt lat="50.79092" lon="2.65604">
        <ele>107.8</ele>
        <time>2023-08-05T12:11:52Z</time>
      </trkpt>
      <trkpt lat="50.79091" lon="2.65605">
        <ele>108</ele>
        <time>2023-08-05T12:11:53Z</time>
      </trkpt>
      <trkpt lat="50.7909" lon="2.65606">
        <ele>108.2</ele>
        <time>2023-08-05T12:11:54Z</time>
      </trkpt>
      <trkpt lat="50.79088" lon="2.65607">
        <ele>108.2</ele>
        <time>2023-08-05T12:11:55Z</time>
      </trkpt>
      <trkpt lat="50.79087" lon="2.65609">
        <ele>108.4</ele>
        <time>2023-08-05T12:11:56Z</time>
      </trkpt>
      <trkpt lat="50.79086" lon="2.6561">
        <ele>108.4</ele>
        <time>2023-08-05T12:11:57Z</time>
      </trkpt>
      <trkpt lat="50.79085" lon="2.65611">
        <ele>108.6</ele>
        <time>2023-08-05T12:11:58Z</time>
      </trkpt>
      <trkpt lat="50.79084" lon="2.65613">
        <ele>108.8</ele>
        <time>2023-08-05T12:11:59Z</time>
      </trkpt>
      <trkpt lat="50.79082" lon="2.65614">
        <ele>108.8</ele>
        <time>2023-08-05T12:12:00Z</time>
      </trkpt>
      <trkpt lat="50.79081" lon="2.65615">
        <ele>109</ele>
        <time>2023-08-05T12:12:01Z</time>
      </trkpt>
      <trkpt lat="50.79079" lon="2.65616">
        <ele>109.2</ele>
        <time>2023-08-05T12:12:02Z</time>
      </trkpt>
      <trkpt lat="50.79077" lon="2.65617">
        <ele>109.2</ele>
        <time>2023-08-05T12:12:03Z</time>
      </trkpt>
      <trkpt lat="50.79075" lon="2.65618">
        <ele>109.4</ele>
        <time>2023-08-05T12:12:04Z</time>
      </trkpt>
      <trkpt lat="50.79073" lon="2.65619">
        <ele>109.4</ele>
        <time>2023-08-05T12:12:05Z</time>
      </trkpt>
      <trkpt lat="50.79071" lon="2.6562">
        <ele>109.4</ele>
        <time>2023-08-05T12:12:06Z</time>
      </trkpt>
      <trkpt lat="50.79069" lon="2.65622">
        <ele>109.6</ele>
        <time>2023-08-05T12:12:07Z</time>
      </trkpt>
      <trkpt lat="50.79067" lon="2.65623">
        <ele>109.6</ele>
        <time>2023-08-05T12:12:08Z</time>
      </trkpt>
      <trkpt lat="50.79065" lon="2.65625">
        <ele>109.6</ele>
        <time>2023-08-05T12:12:09Z</time>
      </trkpt>
      <trkpt lat="50.79062" lon="2.65626">
        <ele>109.6</ele>
        <time>2023-08-05T12:12:10Z</time>
      </trkpt>
      <trkpt lat="50.79059" lon="2.65628">
        <ele>109.8</ele>
        <time>2023-08-05T12:12:11Z</time>
      </trkpt>
      <trkpt lat="50.79056" lon="2.6563">
        <ele>109.8</ele>
        <time>2023-08-05T12:12:12Z</time>
      </trkpt>
      <trkpt lat="50.79053" lon="2.65632">
        <ele>109.6</ele>
        <time>2023-08-05T12:12:13Z</time>
      </trkpt>
      <trkpt lat="50.7905" lon="2.65634">
        <ele>109.6</ele>
        <time>2023-08-05T12:12:14Z</time>
      </trkpt>
      <trkpt lat="50.79047" lon="2.65636">
        <ele>109.6</ele>
        <time>2023-08-05T12:12:15Z</time>
      </trkpt>
      <trkpt lat="50.79044" lon="2.65637">
        <ele>109.6</ele>
        <time>2023-08-05T12:12:16Z</time>
      </trkpt>
      <trkpt lat="50.79041" lon="2.65638">
        <ele>109.6</ele>
        <time>2023-08-05T12:12:17Z</time>
      </trkpt>
      <trkpt lat="50.79039" lon="2.65641">
        <ele>109.8</ele>
        <time>2023-08-05T12:12:18Z</time>
      </trkpt>
      <trkpt lat="50.79036" lon="2.65643">
        <ele>109.8</ele>
        <time>2023-08-05T12:12:19Z</time>
      </trkpt>
      <trkpt lat="50.79006" lon="2.65663">
        <ele>110</ele>
        <time>2023-08-05T12:12:31Z</time>
      </trkpt>
      <trkpt lat="50.78993" lon="2.65671">
        <ele>110.6</ele>
        <time>2023-08-05T12:12:36Z</time>
      </trkpt>
      <trkpt lat="50.78989" lon="2.65675">
        <ele>110.8</ele>
        <time>2023-08-05T12:12:38Z</time>
      </trkpt>
      <trkpt lat="50.78987" lon="2.65676">
        <ele>110.8</ele>
        <time>2023-08-05T12:12:39Z</time>
      </trkpt>
      <trkpt lat="50.78983" lon="2.65677">
        <ele>111</ele>
        <time>2023-08-05T12:12:41Z</time>
      </trkpt>
      <trkpt lat="50.78982" lon="2.65678">
        <ele>111</ele>
        <time>2023-08-05T12:12:42Z</time>
      </trkpt>
      <trkpt lat="50.7898" lon="2.65679">
        <ele>111.2</ele>
        <time>2023-08-05T12:12:43Z</time>
      </trkpt>
      <trkpt lat="50.78979" lon="2.65681">
        <ele>111.2</ele>
        <time>2023-08-05T12:12:44Z</time>
      </trkpt>
      <trkpt lat="50.78978" lon="2.65682">
        <ele>111.4</ele>
        <time>2023-08-05T12:12:45Z</time>
      </trkpt>
      <trkpt lat="50.78976" lon="2.65683">
        <ele>111.4</ele>
        <time>2023-08-05T12:12:46Z</time>
      </trkpt>
      <trkpt lat="50.78975" lon="2.65684">
        <ele>111.8</ele>
        <time>2023-08-05T12:12:47Z</time>
      </trkpt>
      <trkpt lat="50.78969" lon="2.65686">
        <ele>112.4</ele>
        <time>2023-08-05T12:12:50Z</time>
      </trkpt>
      <trkpt lat="50.78965" lon="2.65688">
        <ele>112.6</ele>
        <time>2023-08-05T12:12:52Z</time>
      </trkpt>
      <trkpt lat="50.78964" lon="2.65689">
        <ele>112.8</ele>
        <time>2023-08-05T12:12:53Z</time>
      </trkpt>
      <trkpt lat="50.78963" lon="2.6569">
        <ele>113</ele>
        <time>2023-08-05T12:12:54Z</time>
      </trkpt>
      <trkpt lat="50.78962" lon="2.65691">
        <ele>113.2</ele>
        <time>2023-08-05T12:12:55Z</time>
      </trkpt>
      <trkpt lat="50.7896" lon="2.65691">
        <ele>113.4</ele>
        <time>2023-08-05T12:12:56Z</time>
      </trkpt>
      <trkpt lat="50.78958" lon="2.6569">
        <ele>113.6</ele>
        <time>2023-08-05T12:12:57Z</time>
      </trkpt>
      <trkpt lat="50.78956" lon="2.6569">
        <ele>113.6</ele>
        <time>2023-08-05T12:12:58Z</time>
      </trkpt>
      <trkpt lat="50.78953" lon="2.6569">
        <ele>113.8</ele>
        <time>2023-08-05T12:12:59Z</time>
      </trkpt>
      <trkpt lat="50.7895" lon="2.6569">
        <ele>113.8</ele>
        <time>2023-08-05T12:13:00Z</time>
      </trkpt>
      <trkpt lat="50.78948" lon="2.65691">
        <ele>114</ele>
        <time>2023-08-05T12:13:01Z</time>
      </trkpt>
      <trkpt lat="50.78946" lon="2.65692">
        <ele>114</ele>
        <time>2023-08-05T12:13:02Z</time>
      </trkpt>
      <trkpt lat="50.78944" lon="2.65692">
        <ele>114.2</ele>
        <time>2023-08-05T12:13:03Z</time>
      </trkpt>
      <trkpt lat="50.78943" lon="2.65693">
        <ele>114.4</ele>
        <time>2023-08-05T12:13:04Z</time>
      </trkpt>
      <trkpt lat="50.78941" lon="2.65694">
        <ele>114.4</ele>
        <time>2023-08-05T12:13:05Z</time>
      </trkpt>
      <trkpt lat="50.78939" lon="2.65695">
        <ele>114.8</ele>
        <time>2023-08-05T12:13:06Z</time>
      </trkpt>
      <trkpt lat="50.78938" lon="2.65696">
        <ele>114.8</ele>
        <time>2023-08-05T12:13:07Z</time>
      </trkpt>
      <trkpt lat="50.78936" lon="2.65697">
        <ele>115</ele>
        <time>2023-08-05T12:13:08Z</time>
      </trkpt>
      <trkpt lat="50.78935" lon="2.65696">
        <ele>115.2</ele>
        <time>2023-08-05T12:13:09Z</time>
      </trkpt>
      <trkpt lat="50.78933" lon="2.65695">
        <ele>115.4</ele>
        <time>2023-08-05T12:13:10Z</time>
      </trkpt>
      <trkpt lat="50.78931" lon="2.65695">
        <ele>115.6</ele>
        <time>2023-08-05T12:13:11Z</time>
      </trkpt>
      <trkpt lat="50.78931" lon="2.65695">
        <ele>115.8</ele>
        <time>2023-08-05T12:13:12Z</time>
      </trkpt>
      <trkpt lat="50.78928" lon="2.65696">
        <ele>116</ele>
        <time>2023-08-05T12:13:13Z</time>
      </trkpt>
      <trkpt lat="50.78926" lon="2.65696">
        <ele>116.2</ele>
        <time>2023-08-05T12:13:14Z</time>
      </trkpt>
      <trkpt lat="50.78924" lon="2.65696">
        <ele>116.4</ele>
        <time>2023-08-05T12:13:15Z</time>
      </trkpt>
      <trkpt lat="50.78923" lon="2.65696">
        <ele>116.6</ele>
        <time>2023-08-05T12:13:16Z</time>
      </trkpt>
      <trkpt lat="50.78923" lon="2.65696">
        <ele>116.6</ele>
        <time>2023-08-05T12:13:17Z</time>
      </trkpt>
      <trkpt lat="50.7892" lon="2.65696">
        <ele>116.8</ele>
        <time>2023-08-05T12:13:18Z</time>
      </trkpt>
      <trkpt lat="50.78919" lon="2.65696">
        <ele>116.8</ele>
        <time>2023-08-05T12:13:19Z</time>
      </trkpt>
      <trkpt lat="50.78917" lon="2.65695">
        <ele>117</ele>
        <time>2023-08-05T12:13:20Z</time>
      </trkpt>
      <trkpt lat="50.78915" lon="2.65695">
        <ele>117</ele>
        <time>2023-08-05T12:13:21Z</time>
      </trkpt>
      <trkpt lat="50.78914" lon="2.65695">
        <ele>117</ele>
        <time>2023-08-05T12:13:22Z</time>
      </trkpt>
      <trkpt lat="50.78913" lon="2.65696">
        <ele>117.2</ele>
        <time>2023-08-05T12:13:23Z</time>
      </trkpt>
      <trkpt lat="50.78911" lon="2.65697">
        <ele>117.2</ele>
        <time>2023-08-05T12:13:24Z</time>
      </trkpt>
      <trkpt lat="50.78909" lon="2.65697">
        <ele>117.4</ele>
        <time>2023-08-05T12:13:25Z</time>
      </trkpt>
      <trkpt lat="50.78909" lon="2.65697">
        <ele>117.6</ele>
        <time>2023-08-05T12:13:26Z</time>
      </trkpt>
      <trkpt lat="50.78905" lon="2.65697">
        <ele>117.8</ele>
        <time>2023-08-05T12:13:27Z</time>
      </trkpt>
      <trkpt lat="50.78904" lon="2.65698">
        <ele>118</ele>
        <time>2023-08-05T12:13:28Z</time>
      </trkpt>
      <trkpt lat="50.78903" lon="2.65699">
        <ele>118</ele>
        <time>2023-08-05T12:13:29Z</time>
      </trkpt>
      <trkpt lat="50.78902" lon="2.657">
        <ele>118</ele>
        <time>2023-08-05T12:13:30Z</time>
      </trkpt>
      <trkpt lat="50.78901" lon="2.65701">
        <ele>118.2</ele>
        <time>2023-08-05T12:13:31Z</time>
      </trkpt>
      <trkpt lat="50.789" lon="2.65702">
        <ele>118.4</ele>
        <time>2023-08-05T12:13:32Z</time>
      </trkpt>
      <trkpt lat="50.78899" lon="2.65703">
        <ele>118.8</ele>
        <time>2023-08-05T12:13:33Z</time>
      </trkpt>
      <trkpt lat="50.78899" lon="2.65703">
        <ele>119</ele>
        <time>2023-08-05T12:13:34Z</time>
      </trkpt>
      <trkpt lat="50.78897" lon="2.65705">
        <ele>119.2</ele>
        <time>2023-08-05T12:13:35Z</time>
      </trkpt>
      <trkpt lat="50.78895" lon="2.65706">
        <ele>119.4</ele>
        <time>2023-08-05T12:13:36Z</time>
      </trkpt>
      <trkpt lat="50.78894" lon="2.65706">
        <ele>119.4</ele>
        <time>2023-08-05T12:13:37Z</time>
      </trkpt>
      <trkpt lat="50.78893" lon="2.65707">
        <ele>119.6</ele>
        <time>2023-08-05T12:13:38Z</time>
      </trkpt>
      <trkpt lat="50.7889" lon="2.65708">
        <ele>119.6</ele>
        <time>2023-08-05T12:13:39Z</time>
      </trkpt>
      <trkpt lat="50.78889" lon="2.65709">
        <ele>120</ele>
        <time>2023-08-05T12:13:40Z</time>
      </trkpt>
      <trkpt lat="50.78887" lon="2.6571">
        <ele>120.2</ele>
        <time>2023-08-05T12:13:41Z</time>
      </trkpt>
      <trkpt lat="50.78883" lon="2.65711">
        <ele>120.4</ele>
        <time>2023-08-05T12:13:42Z</time>
      </trkpt>
      <trkpt lat="50.78882" lon="2.65712">
        <ele>120.6</ele>
        <time>2023-08-05T12:13:43Z</time>
      </trkpt>
      <trkpt lat="50.78882" lon="2.65712">
        <ele>120.6</ele>
        <time>2023-08-05T12:13:44Z</time>
      </trkpt>
      <trkpt lat="50.78881" lon="2.65713">
        <ele>120.8</ele>
        <time>2023-08-05T12:13:45Z</time>
      </trkpt>
      <trkpt lat="50.7888" lon="2.65714">
        <ele>120.8</ele>
        <time>2023-08-05T12:13:46Z</time>
      </trkpt>
      <trkpt lat="50.78878" lon="2.65716">
        <ele>121</ele>
        <time>2023-08-05T12:13:47Z</time>
      </trkpt>
      <trkpt lat="50.78877" lon="2.65717">
        <ele>121</ele>
        <time>2023-08-05T12:13:48Z</time>
      </trkpt>
      <trkpt lat="50.78876" lon="2.65718">
        <ele>121.2</ele>
        <time>2023-08-05T12:13:49Z</time>
      </trkpt>
      <trkpt lat="50.78875" lon="2.65719">
        <ele>121.4</ele>
        <time>2023-08-05T12:13:50Z</time>
      </trkpt>
      <trkpt lat="50.78872" lon="2.65721">
        <ele>121.4</ele>
        <time>2023-08-05T12:13:51Z</time>
      </trkpt>
      <trkpt lat="50.78869" lon="2.65725">
        <ele>121.6</ele>
        <time>2023-08-05T12:13:52Z</time>
      </trkpt>
      <trkpt lat="50.78868" lon="2.65726">
        <ele>121.8</ele>
        <time>2023-08-05T12:13:53Z</time>
      </trkpt>
      <trkpt lat="50.78868" lon="2.65726">
        <ele>121.8</ele>
        <time>2023-08-05T12:13:54Z</time>
      </trkpt>
      <trkpt lat="50.78865" lon="2.65726">
        <ele>122</ele>
        <time>2023-08-05T12:13:55Z</time>
      </trkpt>
      <trkpt lat="50.78862" lon="2.65726">
        <ele>122</ele>
        <time>2023-08-05T12:13:56Z</time>
      </trkpt>
      <trkpt lat="50.78859" lon="2.65726">
        <ele>122</ele>
        <time>2023-08-05T12:13:57Z</time>
      </trkpt>
      <trkpt lat="50.78857" lon="2.65726">
        <ele>122.2</ele>
        <time>2023-08-05T12:13:58Z</time>
      </trkpt>
      <trkpt lat="50.78857" lon="2.65726">
        <ele>122.4</ele>
        <time>2023-08-05T12:13:59Z</time>
      </trkpt>
      <trkpt lat="50.78852" lon="2.65726">
        <ele>122.6</ele>
        <time>2023-08-05T12:14:00Z</time>
      </trkpt>
      <trkpt lat="50.78848" lon="2.65726">
        <ele>122.6</ele>
        <time>2023-08-05T12:14:01Z</time>
      </trkpt>
      <trkpt lat="50.78845" lon="2.65727">
        <ele>122.6</ele>
        <time>2023-08-05T12:14:02Z</time>
      </trkpt>
      <trkpt lat="50.78844" lon="2.65728">
        <ele>122.8</ele>
        <time>2023-08-05T12:14:03Z</time>
      </trkpt>
      <trkpt lat="50.78842" lon="2.65729">
        <ele>123</ele>
        <time>2023-08-05T12:14:04Z</time>
      </trkpt>
      <trkpt lat="50.7884" lon="2.65728">
        <ele>123.2</ele>
        <time>2023-08-05T12:14:05Z</time>
      </trkpt>
      <trkpt lat="50.78838" lon="2.65728">
        <ele>123.4</ele>
        <time>2023-08-05T12:14:06Z</time>
      </trkpt>
      <trkpt lat="50.78835" lon="2.65729">
        <ele>123.4</ele>
        <time>2023-08-05T12:14:07Z</time>
      </trkpt>
      <trkpt lat="50.78833" lon="2.65728">
        <ele>123.6</ele>
        <time>2023-08-05T12:14:08Z</time>
      </trkpt>
      <trkpt lat="50.78833" lon="2.6573">
        <ele>123.8</ele>
        <time>2023-08-05T12:14:09Z</time>
      </trkpt>
      <trkpt lat="50.78832" lon="2.65731">
        <ele>123.8</ele>
        <time>2023-08-05T12:14:10Z</time>
      </trkpt>
      <trkpt lat="50.78832" lon="2.65731">
        <ele>123.8</ele>
        <time>2023-08-05T12:14:11Z</time>
      </trkpt>
      <trkpt lat="50.7883" lon="2.65732">
        <ele>124</ele>
        <time>2023-08-05T12:14:12Z</time>
      </trkpt>
      <trkpt lat="50.78828" lon="2.65733">
        <ele>124</ele>
        <time>2023-08-05T12:14:13Z</time>
      </trkpt>
      <trkpt lat="50.78828" lon="2.65733">
        <ele>124.2</ele>
        <time>2023-08-05T12:14:14Z</time>
      </trkpt>
      <trkpt lat="50.78828" lon="2.65733">
        <ele>124.2</ele>
        <time>2023-08-05T12:14:15Z</time>
      </trkpt>
      <trkpt lat="50.78827" lon="2.65735">
        <ele>124.2</ele>
        <time>2023-08-05T12:14:16Z</time>
      </trkpt>
      <trkpt lat="50.78825" lon="2.65736">
        <ele>124.4</ele>
        <time>2023-08-05T12:14:17Z</time>
      </trkpt>
      <trkpt lat="50.78823" lon="2.65738">
        <ele>124.4</ele>
        <time>2023-08-05T12:14:18Z</time>
      </trkpt>
      <trkpt lat="50.78823" lon="2.65738">
        <ele>124.6</ele>
        <time>2023-08-05T12:14:19Z</time>
      </trkpt>
      <trkpt lat="50.78821" lon="2.65738">
        <ele>124.6</ele>
        <time>2023-08-05T12:14:20Z</time>
      </trkpt>
      <trkpt lat="50.78819" lon="2.65739">
        <ele>124.8</ele>
        <time>2023-08-05T12:14:21Z</time>
      </trkpt>
      <trkpt lat="50.78818" lon="2.6574">
        <ele>125</ele>
        <time>2023-08-05T12:14:22Z</time>
      </trkpt>
      <trkpt lat="50.78818" lon="2.6574">
        <ele>125</ele>
        <time>2023-08-05T12:14:23Z</time>
      </trkpt>
      <trkpt lat="50.78817" lon="2.65741">
        <ele>125.2</ele>
        <time>2023-08-05T12:14:24Z</time>
      </trkpt>
      <trkpt lat="50.78815" lon="2.65742">
        <ele>125.4</ele>
        <time>2023-08-05T12:14:25Z</time>
      </trkpt>
      <trkpt lat="50.78815" lon="2.65742">
        <ele>125.4</ele>
        <time>2023-08-05T12:14:26Z</time>
      </trkpt>
      <trkpt lat="50.78811" lon="2.65742">
        <ele>125.6</ele>
        <time>2023-08-05T12:14:27Z</time>
      </trkpt>
      <trkpt lat="50.78809" lon="2.65742">
        <ele>125.8</ele>
        <time>2023-08-05T12:14:28Z</time>
      </trkpt>
      <trkpt lat="50.78808" lon="2.65742">
        <ele>125.8</ele>
        <time>2023-08-05T12:14:29Z</time>
      </trkpt>
      <trkpt lat="50.78806" lon="2.65741">
        <ele>126</ele>
        <time>2023-08-05T12:14:30Z</time>
      </trkpt>
      <trkpt lat="50.78805" lon="2.65741">
        <ele>126.2</ele>
        <time>2023-08-05T12:14:31Z</time>
      </trkpt>
      <trkpt lat="50.78804" lon="2.65742">
        <ele>126.2</ele>
        <time>2023-08-05T12:14:32Z</time>
      </trkpt>
      <trkpt lat="50.78803" lon="2.65742">
        <ele>126.2</ele>
        <time>2023-08-05T12:14:33Z</time>
      </trkpt>
      <trkpt lat="50.788" lon="2.65741">
        <ele>126.4</ele>
        <time>2023-08-05T12:14:34Z</time>
      </trkpt>
      <trkpt lat="50.78798" lon="2.6574">
        <ele>126.6</ele>
        <time>2023-08-05T12:14:35Z</time>
      </trkpt>
      <trkpt lat="50.78796" lon="2.65741">
        <ele>127</ele>
        <time>2023-08-05T12:14:36Z</time>
      </trkpt>
      <trkpt lat="50.78794" lon="2.6574">
        <ele>127.2</ele>
        <time>2023-08-05T12:14:37Z</time>
      </trkpt>
      <trkpt lat="50.78794" lon="2.6574">
        <ele>127.6</ele>
        <time>2023-08-05T12:14:38Z</time>
      </trkpt>
      <trkpt lat="50.78792" lon="2.65739">
        <ele>127.8</ele>
        <time>2023-08-05T12:14:39Z</time>
      </trkpt>
      <trkpt lat="50.78791" lon="2.65739">
        <ele>128</ele>
        <time>2023-08-05T12:14:40Z</time>
      </trkpt>
      <trkpt lat="50.78791" lon="2.65739">
        <ele>128.2</ele>
        <time>2023-08-05T12:14:41Z</time>
      </trkpt>
      <trkpt lat="50.78791" lon="2.65739">
        <ele>128.4</ele>
        <time>2023-08-05T12:14:42Z</time>
      </trkpt>
      <trkpt lat="50.78791" lon="2.65738">
        <ele>128.6</ele>
        <time>2023-08-05T12:14:43Z</time>
      </trkpt>
      <trkpt lat="50.78791" lon="2.65737">
        <ele>128.8</ele>
        <time>2023-08-05T12:14:44Z</time>
      </trkpt>
      <trkpt lat="50.7879" lon="2.65736">
        <ele>129.2</ele>
        <time>2023-08-05T12:14:45Z</time>
      </trkpt>
      <trkpt lat="50.7879" lon="2.65735">
        <ele>129.2</ele>
        <time>2023-08-05T12:14:46Z</time>
      </trkpt>
      <trkpt lat="50.78789" lon="2.65734">
        <ele>129.6</ele>
        <time>2023-08-05T12:14:47Z</time>
      </trkpt>
      <trkpt lat="50.78789" lon="2.65734">
        <ele>129.6</ele>
        <time>2023-08-05T12:14:48Z</time>
      </trkpt>
      <trkpt lat="50.78788" lon="2.65732">
        <ele>130</ele>
        <time>2023-08-05T12:14:49Z</time>
      </trkpt>
      <trkpt lat="50.78787" lon="2.6573">
        <ele>130</ele>
        <time>2023-08-05T12:14:50Z</time>
      </trkpt>
      <trkpt lat="50.78786" lon="2.65729">
        <ele>130.2</ele>
        <time>2023-08-05T12:14:51Z</time>
      </trkpt>
      <trkpt lat="50.78785" lon="2.65727">
        <ele>130.2</ele>
        <time>2023-08-05T12:14:52Z</time>
      </trkpt>
      <trkpt lat="50.78785" lon="2.65726">
        <ele>130.6</ele>
        <time>2023-08-05T12:14:53Z</time>
      </trkpt>
      <trkpt lat="50.78783" lon="2.65725">
        <ele>130.8</ele>
        <time>2023-08-05T12:14:54Z</time>
      </trkpt>
      <trkpt lat="50.78782" lon="2.65724">
        <ele>130.8</ele>
        <time>2023-08-05T12:14:55Z</time>
      </trkpt>
      <trkpt lat="50.78781" lon="2.65722">
        <ele>131</ele>
        <time>2023-08-05T12:14:56Z</time>
      </trkpt>
      <trkpt lat="50.78781" lon="2.65721">
        <ele>131</ele>
        <time>2023-08-05T12:14:57Z</time>
      </trkpt>
      <trkpt lat="50.7878" lon="2.65719">
        <ele>131</ele>
        <time>2023-08-05T12:14:58Z</time>
      </trkpt>
      <trkpt lat="50.78779" lon="2.65717">
        <ele>131.2</ele>
        <time>2023-08-05T12:14:59Z</time>
      </trkpt>
      <trkpt lat="50.78779" lon="2.65717">
        <ele>131.4</ele>
        <time>2023-08-05T12:15:00Z</time>
      </trkpt>
      <trkpt lat="50.78779" lon="2.65716">
        <ele>131.6</ele>
        <time>2023-08-05T12:15:01Z</time>
      </trkpt>
      <trkpt lat="50.78779" lon="2.65715">
        <ele>131.8</ele>
        <time>2023-08-05T12:15:02Z</time>
      </trkpt>
      <trkpt lat="50.78779" lon="2.65714">
        <ele>132</ele>
        <time>2023-08-05T12:15:03Z</time>
      </trkpt>
      <trkpt lat="50.78779" lon="2.65714">
        <ele>132</ele>
        <time>2023-08-05T12:15:04Z</time>
      </trkpt>
      <trkpt lat="50.78779" lon="2.65713">
        <ele>132.2</ele>
        <time>2023-08-05T12:15:05Z</time>
      </trkpt>
      <trkpt lat="50.78779" lon="2.65711">
        <ele>132.2</ele>
        <time>2023-08-05T12:15:06Z</time>
      </trkpt>
      <trkpt lat="50.78778" lon="2.6571">
        <ele>132.4</ele>
        <time>2023-08-05T12:15:07Z</time>
      </trkpt>
      <trkpt lat="50.78777" lon="2.6571">
        <ele>132.4</ele>
        <time>2023-08-05T12:15:08Z</time>
      </trkpt>
      <trkpt lat="50.78777" lon="2.65709">
        <ele>132.6</ele>
        <time>2023-08-05T12:15:09Z</time>
      </trkpt>
      <trkpt lat="50.78776" lon="2.65708">
        <ele>132.8</ele>
        <time>2023-08-05T12:15:10Z</time>
      </trkpt>
      <trkpt lat="50.78774" lon="2.65706">
        <ele>132.8</ele>
        <time>2023-08-05T12:15:11Z</time>
      </trkpt>
      <trkpt lat="50.78772" lon="2.65706">
        <ele>133</ele>
        <time>2023-08-05T12:15:12Z</time>
      </trkpt>
      <trkpt lat="50.78771" lon="2.65705">
        <ele>133</ele>
        <time>2023-08-05T12:15:13Z</time>
      </trkpt>
      <trkpt lat="50.78769" lon="2.65705">
        <ele>133.2</ele>
        <time>2023-08-05T12:15:14Z</time>
      </trkpt>
      <trkpt lat="50.78769" lon="2.65705">
        <ele>133.2</ele>
        <time>2023-08-05T12:15:15Z</time>
      </trkpt>
      <trkpt lat="50.78765" lon="2.65705">
        <ele>133.4</ele>
        <time>2023-08-05T12:15:16Z</time>
      </trkpt>
      <trkpt lat="50.78764" lon="2.65706">
        <ele>133.6</ele>
        <time>2023-08-05T12:15:17Z</time>
      </trkpt>
      <trkpt lat="50.78763" lon="2.65706">
        <ele>133.6</ele>
        <time>2023-08-05T12:15:18Z</time>
      </trkpt>
      <trkpt lat="50.78762" lon="2.65707">
        <ele>133.8</ele>
        <time>2023-08-05T12:15:19Z</time>
      </trkpt>
      <trkpt lat="50.78761" lon="2.65707">
        <ele>134</ele>
        <time>2023-08-05T12:15:20Z</time>
      </trkpt>
      <trkpt lat="50.78761" lon="2.65707">
        <ele>134.2</ele>
        <time>2023-08-05T12:15:21Z</time>
      </trkpt>
      <trkpt lat="50.78758" lon="2.65707">
        <ele>134.2</ele>
        <time>2023-08-05T12:15:22Z</time>
      </trkpt>
      <trkpt lat="50.78755" lon="2.65707">
        <ele>134.4</ele>
        <time>2023-08-05T12:15:23Z</time>
      </trkpt>
      <trkpt lat="50.78754" lon="2.65708">
        <ele>134.4</ele>
        <time>2023-08-05T12:15:24Z</time>
      </trkpt>
      <trkpt lat="50.78753" lon="2.65709">
        <ele>134.4</ele>
        <time>2023-08-05T12:15:25Z</time>
      </trkpt>
      <trkpt lat="50.78751" lon="2.65711">
        <ele>134.4</ele>
        <time>2023-08-05T12:15:26Z</time>
      </trkpt>
      <trkpt lat="50.78749" lon="2.65712">
        <ele>134.4</ele>
        <time>2023-08-05T12:15:27Z</time>
      </trkpt>
      <trkpt lat="50.78748" lon="2.65713">
        <ele>134.6</ele>
        <time>2023-08-05T12:15:28Z</time>
      </trkpt>
      <trkpt lat="50.78746" lon="2.65714">
        <ele>134.6</ele>
        <time>2023-08-05T12:15:29Z</time>
      </trkpt>
      <trkpt lat="50.78745" lon="2.65715">
        <ele>134.8</ele>
        <time>2023-08-05T12:15:30Z</time>
      </trkpt>
      <trkpt lat="50.78743" lon="2.65717">
        <ele>135</ele>
        <time>2023-08-05T12:15:31Z</time>
      </trkpt>
      <trkpt lat="50.78742" lon="2.65718">
        <ele>135.2</ele>
        <time>2023-08-05T12:15:32Z</time>
      </trkpt>
      <trkpt lat="50.78741" lon="2.65719">
        <ele>135.4</ele>
        <time>2023-08-05T12:15:33Z</time>
      </trkpt>
      <trkpt lat="50.78741" lon="2.65719">
        <ele>135.6</ele>
        <time>2023-08-05T12:15:34Z</time>
      </trkpt>
      <trkpt lat="50.78738" lon="2.6572">
        <ele>135.8</ele>
        <time>2023-08-05T12:15:35Z</time>
      </trkpt>
      <trkpt lat="50.78737" lon="2.65721">
        <ele>135.8</ele>
        <time>2023-08-05T12:15:36Z</time>
      </trkpt>
      <trkpt lat="50.78735" lon="2.65722">
        <ele>136</ele>
        <time>2023-08-05T12:15:37Z</time>
      </trkpt>
      <trkpt lat="50.78733" lon="2.65723">
        <ele>136.2</ele>
        <time>2023-08-05T12:15:38Z</time>
      </trkpt>
      <trkpt lat="50.78731" lon="2.65725">
        <ele>136.4</ele>
        <time>2023-08-05T12:15:39Z</time>
      </trkpt>
      <trkpt lat="50.78728" lon="2.65727">
        <ele>136.4</ele>
        <time>2023-08-05T12:15:40Z</time>
      </trkpt>
      <trkpt lat="50.78727" lon="2.65727">
        <ele>136.4</ele>
        <time>2023-08-05T12:15:41Z</time>
      </trkpt>
      <trkpt lat="50.78726" lon="2.65728">
        <ele>136.6</ele>
        <time>2023-08-05T12:15:42Z</time>
      </trkpt>
      <trkpt lat="50.78725" lon="2.6573">
        <ele>136.8</ele>
        <time>2023-08-05T12:15:43Z</time>
      </trkpt>
      <trkpt lat="50.78723" lon="2.65732">
        <ele>137</ele>
        <time>2023-08-05T12:15:44Z</time>
      </trkpt>
      <trkpt lat="50.78721" lon="2.65732">
        <ele>137.2</ele>
        <time>2023-08-05T12:15:45Z</time>
      </trkpt>
      <trkpt lat="50.78721" lon="2.65732">
        <ele>137.2</ele>
        <time>2023-08-05T12:15:46Z</time>
      </trkpt>
      <trkpt lat="50.78718" lon="2.65735">
        <ele>137.6</ele>
        <time>2023-08-05T12:15:47Z</time>
      </trkpt>
      <trkpt lat="50.78715" lon="2.65735">
        <ele>137.6</ele>
        <time>2023-08-05T12:15:48Z</time>
      </trkpt>
      <trkpt lat="50.78714" lon="2.65737">
        <ele>137.8</ele>
        <time>2023-08-05T12:15:49Z</time>
      </trkpt>
      <trkpt lat="50.78713" lon="2.6574">
        <ele>137.8</ele>
        <time>2023-08-05T12:15:50Z</time>
      </trkpt>
      <trkpt lat="50.78712" lon="2.65741">
        <ele>138.2</ele>
        <time>2023-08-05T12:15:51Z</time>
      </trkpt>
      <trkpt lat="50.78711" lon="2.65741">
        <ele>138.2</ele>
        <time>2023-08-05T12:15:52Z</time>
      </trkpt>
      <trkpt lat="50.7871" lon="2.65741">
        <ele>138.4</ele>
        <time>2023-08-05T12:15:53Z</time>
      </trkpt>
      <trkpt lat="50.78709" lon="2.6574">
        <ele>138.6</ele>
        <time>2023-08-05T12:15:54Z</time>
      </trkpt>
      <trkpt lat="50.78708" lon="2.65739">
        <ele>138.8</ele>
        <time>2023-08-05T12:15:55Z</time>
      </trkpt>
      <trkpt lat="50.78707" lon="2.65738">
        <ele>138.8</ele>
        <time>2023-08-05T12:15:56Z</time>
      </trkpt>
      <trkpt lat="50.78706" lon="2.65737">
        <ele>138.8</ele>
        <time>2023-08-05T12:15:57Z</time>
      </trkpt>
      <trkpt lat="50.78705" lon="2.65736">
        <ele>139</ele>
        <time>2023-08-05T12:15:58Z</time>
      </trkpt>
      <trkpt lat="50.78705" lon="2.65735">
        <ele>139</ele>
        <time>2023-08-05T12:15:59Z</time>
      </trkpt>
      <trkpt lat="50.78705" lon="2.65735">
        <ele>139</ele>
        <time>2023-08-05T12:16:00Z</time>
      </trkpt>
      <trkpt lat="50.78706" lon="2.65732">
        <ele>139</ele>
        <time>2023-08-05T12:16:01Z</time>
      </trkpt>
      <trkpt lat="50.78707" lon="2.65731">
        <ele>139</ele>
        <time>2023-08-05T12:16:02Z</time>
      </trkpt>
      <trkpt lat="50.78707" lon="2.65731">
        <ele>139</ele>
        <time>2023-08-05T12:16:03Z</time>
      </trkpt>
      <trkpt lat="50.78708" lon="2.65727">
        <ele>139</ele>
        <time>2023-08-05T12:16:04Z</time>
      </trkpt>
      <trkpt lat="50.78709" lon="2.65724">
        <ele>139</ele>
        <time>2023-08-05T12:16:05Z</time>
      </trkpt>
      <trkpt lat="50.7871" lon="2.65721">
        <ele>139</ele>
        <time>2023-08-05T12:16:06Z</time>
      </trkpt>
      <trkpt lat="50.7871" lon="2.65718">
        <ele>138.8</ele>
        <time>2023-08-05T12:16:07Z</time>
      </trkpt>
      <trkpt lat="50.78711" lon="2.65714">
        <ele>138.8</ele>
        <time>2023-08-05T12:16:08Z</time>
      </trkpt>
      <trkpt lat="50.78712" lon="2.65711">
        <ele>138.8</ele>
        <time>2023-08-05T12:16:09Z</time>
      </trkpt>
      <trkpt lat="50.78712" lon="2.65708">
        <ele>138.8</ele>
        <time>2023-08-05T12:16:10Z</time>
      </trkpt>
      <trkpt lat="50.78717" lon="2.65696">
        <ele>137.8</ele>
        <time>2023-08-05T12:16:14Z</time>
      </trkpt>
      <trkpt lat="50.78718" lon="2.65693">
        <ele>137.8</ele>
        <time>2023-08-05T12:16:15Z</time>
      </trkpt>
      <trkpt lat="50.7872" lon="2.6569">
        <ele>137.6</ele>
        <time>2023-08-05T12:16:16Z</time>
      </trkpt>
      <trkpt lat="50.7872" lon="2.6569">
        <ele>137.4</ele>
        <time>2023-08-05T12:16:17Z</time>
      </trkpt>
      <trkpt lat="50.78725" lon="2.65675">
        <ele>136.8</ele>
        <time>2023-08-05T12:16:20Z</time>
      </trkpt>
      <trkpt lat="50.78726" lon="2.65672">
        <ele>136.4</ele>
        <time>2023-08-05T12:16:21Z</time>
      </trkpt>
      <trkpt lat="50.78728" lon="2.65669">
        <ele>136.2</ele>
        <time>2023-08-05T12:16:22Z</time>
      </trkpt>
      <trkpt lat="50.78732" lon="2.65662">
        <ele>135.2</ele>
        <time>2023-08-05T12:16:25Z</time>
      </trkpt>
      <trkpt lat="50.78742" lon="2.65642">
        <ele>134</ele>
        <time>2023-08-05T12:16:29Z</time>
      </trkpt>
      <trkpt lat="50.78743" lon="2.65637">
        <ele>133.6</ele>
        <time>2023-08-05T12:16:31Z</time>
      </trkpt>
      <trkpt lat="50.78741" lon="2.65636">
        <ele>133.4</ele>
        <time>2023-08-05T12:16:32Z</time>
      </trkpt>
      <trkpt lat="50.7874" lon="2.65636">
        <ele>133.4</ele>
        <time>2023-08-05T12:16:33Z</time>
      </trkpt>
      <trkpt lat="50.7874" lon="2.65639">
        <ele>133</ele>
        <time>2023-08-05T12:16:34Z</time>
      </trkpt>
      <trkpt lat="50.78739" lon="2.65644">
        <ele>133</ele>
        <time>2023-08-05T12:16:36Z</time>
      </trkpt>
      <trkpt lat="50.78738" lon="2.65645">
        <ele>133</ele>
        <time>2023-08-05T12:16:37Z</time>
      </trkpt>
      <trkpt lat="50.78737" lon="2.65646">
        <ele>132.8</ele>
        <time>2023-08-05T12:16:38Z</time>
      </trkpt>
      <trkpt lat="50.78736" lon="2.65647">
        <ele>132.8</ele>
        <time>2023-08-05T12:16:39Z</time>
      </trkpt>
      <trkpt lat="50.78735" lon="2.65649">
        <ele>132.8</ele>
        <time>2023-08-05T12:16:40Z</time>
      </trkpt>
      <trkpt lat="50.78735" lon="2.65652">
        <ele>132.8</ele>
        <time>2023-08-05T12:16:41Z</time>
      </trkpt>
      <trkpt lat="50.78735" lon="2.65654">
        <ele>132.8</ele>
        <time>2023-08-05T12:16:42Z</time>
      </trkpt>
      <trkpt lat="50.78734" lon="2.65656">
        <ele>133</ele>
        <time>2023-08-05T12:16:43Z</time>
      </trkpt>
      <trkpt lat="50.78733" lon="2.65659">
        <ele>133</ele>
        <time>2023-08-05T12:16:44Z</time>
      </trkpt>
      <trkpt lat="50.78728" lon="2.65672">
        <ele>133.4</ele>
        <time>2023-08-05T12:16:49Z</time>
      </trkpt>
      <trkpt lat="50.78725" lon="2.65676">
        <ele>133.6</ele>
        <time>2023-08-05T12:16:50Z</time>
      </trkpt>
      <trkpt lat="50.78723" lon="2.65684">
        <ele>134.2</ele>
        <time>2023-08-05T12:16:54Z</time>
      </trkpt>
      <trkpt lat="50.78722" lon="2.65687">
        <ele>134.6</ele>
        <time>2023-08-05T12:16:55Z</time>
      </trkpt>
      <trkpt lat="50.78722" lon="2.6569">
        <ele>134.6</ele>
        <time>2023-08-05T12:16:56Z</time>
      </trkpt>
      <trkpt lat="50.78721" lon="2.65693">
        <ele>135</ele>
        <time>2023-08-05T12:16:57Z</time>
      </trkpt>
      <trkpt lat="50.78721" lon="2.65696">
        <ele>135.2</ele>
        <time>2023-08-05T12:16:58Z</time>
      </trkpt>
      <trkpt lat="50.78721" lon="2.65698">
        <ele>135.2</ele>
        <time>2023-08-05T12:16:59Z</time>
      </trkpt>
      <trkpt lat="50.7872" lon="2.657">
        <ele>135.4</ele>
        <time>2023-08-05T12:17:00Z</time>
      </trkpt>
      <trkpt lat="50.78719" lon="2.65702">
        <ele>135.6</ele>
        <time>2023-08-05T12:17:01Z</time>
      </trkpt>
      <trkpt lat="50.78717" lon="2.65704">
        <ele>135.8</ele>
        <time>2023-08-05T12:17:02Z</time>
      </trkpt>
      <trkpt lat="50.78716" lon="2.65706">
        <ele>135.8</ele>
        <time>2023-08-05T12:17:03Z</time>
      </trkpt>
      <trkpt lat="50.78716" lon="2.65709">
        <ele>136</ele>
        <time>2023-08-05T12:17:04Z</time>
      </trkpt>
      <trkpt lat="50.78713" lon="2.65716">
        <ele>136.6</ele>
        <time>2023-08-05T12:17:07Z</time>
      </trkpt>
      <trkpt lat="50.78712" lon="2.6572">
        <ele>136.8</ele>
        <time>2023-08-05T12:17:09Z</time>
      </trkpt>
      <trkpt lat="50.78711" lon="2.65722">
        <ele>136.8</ele>
        <time>2023-08-05T12:17:10Z</time>
      </trkpt>
      <trkpt lat="50.78711" lon="2.65725">
        <ele>137</ele>
        <time>2023-08-05T12:17:11Z</time>
      </trkpt>
      <trkpt lat="50.7871" lon="2.65728">
        <ele>137.2</ele>
        <time>2023-08-05T12:17:12Z</time>
      </trkpt>
      <trkpt lat="50.7871" lon="2.6573">
        <ele>137.4</ele>
        <time>2023-08-05T12:17:13Z</time>
      </trkpt>
      <trkpt lat="50.78709" lon="2.65732">
        <ele>138</ele>
        <time>2023-08-05T12:17:14Z</time>
      </trkpt>
      <trkpt lat="50.78708" lon="2.65732">
        <ele>138</ele>
        <time>2023-08-05T12:17:15Z</time>
      </trkpt>
      <trkpt lat="50.78706" lon="2.65731">
        <ele>138.4</ele>
        <time>2023-08-05T12:17:16Z</time>
      </trkpt>
      <trkpt lat="50.78706" lon="2.6573">
        <ele>138.4</ele>
        <time>2023-08-05T12:17:17Z</time>
      </trkpt>
      <trkpt lat="50.78706" lon="2.65729">
        <ele>138.6</ele>
        <time>2023-08-05T12:17:18Z</time>
      </trkpt>
      <trkpt lat="50.78706" lon="2.65728">
        <ele>138.6</ele>
        <time>2023-08-05T12:17:19Z</time>
      </trkpt>
      <trkpt lat="50.78706" lon="2.65726">
        <ele>138.8</ele>
        <time>2023-08-05T12:17:20Z</time>
      </trkpt>
      <trkpt lat="50.78705" lon="2.65726">
        <ele>139.2</ele>
        <time>2023-08-05T12:17:21Z</time>
      </trkpt>
      <trkpt lat="50.78704" lon="2.65723">
        <ele>139.2</ele>
        <time>2023-08-05T12:17:22Z</time>
      </trkpt>
      <trkpt lat="50.78704" lon="2.65722">
        <ele>139.4</ele>
        <time>2023-08-05T12:17:23Z</time>
      </trkpt>
      <trkpt lat="50.78705" lon="2.65721">
        <ele>139.6</ele>
        <time>2023-08-05T12:17:24Z</time>
      </trkpt>
      <trkpt lat="50.78705" lon="2.6572">
        <ele>139.6</ele>
        <time>2023-08-05T12:17:25Z</time>
      </trkpt>
      <trkpt lat="50.78706" lon="2.65718">
        <ele>139.6</ele>
        <time>2023-08-05T12:17:26Z</time>
      </trkpt>
      <trkpt lat="50.78706" lon="2.65717">
        <ele>139.6</ele>
        <time>2023-08-05T12:17:27Z</time>
      </trkpt>
      <trkpt lat="50.78705" lon="2.65715">
        <ele>139.8</ele>
        <time>2023-08-05T12:17:28Z</time>
      </trkpt>
      <trkpt lat="50.78704" lon="2.65714">
        <ele>140</ele>
        <time>2023-08-05T12:17:29Z</time>
      </trkpt>
      <trkpt lat="50.78703" lon="2.65715">
        <ele>140</ele>
        <time>2023-08-05T12:17:30Z</time>
      </trkpt>
      <trkpt lat="50.78703" lon="2.65716">
        <ele>140</ele>
        <time>2023-08-05T12:17:31Z</time>
      </trkpt>
      <trkpt lat="50.78703" lon="2.65718">
        <ele>140.2</ele>
        <time>2023-08-05T12:17:32Z</time>
      </trkpt>
      <trkpt lat="50.78704" lon="2.65719">
        <ele>140.2</ele>
        <time>2023-08-05T12:17:33Z</time>
      </trkpt>
      <trkpt lat="50.78704" lon="2.65721">
        <ele>140.2</ele>
        <time>2023-08-05T12:17:34Z</time>
      </trkpt>
      <trkpt lat="50.78705" lon="2.65724">
        <ele>140.2</ele>
        <time>2023-08-05T12:17:35Z</time>
      </trkpt>
      <trkpt lat="50.78705" lon="2.65727">
        <ele>140.2</ele>
        <time>2023-08-05T12:17:36Z</time>
      </trkpt>
      <trkpt lat="50.78705" lon="2.65729">
        <ele>140.2</ele>
        <time>2023-08-05T12:17:37Z</time>
      </trkpt>
      <trkpt lat="50.78704" lon="2.65731">
        <ele>140.2</ele>
        <time>2023-08-05T12:17:38Z</time>
      </trkpt>
      <trkpt lat="50.78704" lon="2.65731">
        <ele>140.2</ele>
        <time>2023-08-05T12:17:39Z</time>
      </trkpt>
      <trkpt lat="50.78703" lon="2.65731">
        <ele>140.4</ele>
        <time>2023-08-05T12:17:40Z</time>
      </trkpt>
      <trkpt lat="50.78702" lon="2.65729">
        <ele>140.4</ele>
        <time>2023-08-05T12:17:41Z</time>
      </trkpt>
      <trkpt lat="50.78702" lon="2.65727">
        <ele>140.4</ele>
        <time>2023-08-05T12:17:42Z</time>
      </trkpt>
      <trkpt lat="50.78701" lon="2.65726">
        <ele>140.4</ele>
        <time>2023-08-05T12:17:43Z</time>
      </trkpt>
      <trkpt lat="50.787" lon="2.65724">
        <ele>140.6</ele>
        <time>2023-08-05T12:17:44Z</time>
      </trkpt>
      <trkpt lat="50.78697" lon="2.65717">
        <ele>141</ele>
        <time>2023-08-05T12:17:48Z</time>
      </trkpt>
      <trkpt lat="50.78696" lon="2.65713">
        <ele>141.4</ele>
        <time>2023-08-05T12:17:50Z</time>
      </trkpt>
      <trkpt lat="50.78693" lon="2.65708">
        <ele>141.8</ele>
        <time>2023-08-05T12:17:53Z</time>
      </trkpt>
      <trkpt lat="50.78692" lon="2.65704">
        <ele>142</ele>
        <time>2023-08-05T12:17:55Z</time>
      </trkpt>
      <trkpt lat="50.78692" lon="2.65703">
        <ele>142</ele>
        <time>2023-08-05T12:17:56Z</time>
      </trkpt>
      <trkpt lat="50.78692" lon="2.65701">
        <ele>142.2</ele>
        <time>2023-08-05T12:17:57Z</time>
      </trkpt>
      <trkpt lat="50.78691" lon="2.657">
        <ele>142.2</ele>
        <time>2023-08-05T12:17:58Z</time>
      </trkpt>
      <trkpt lat="50.7869" lon="2.65698">
        <ele>142.4</ele>
        <time>2023-08-05T12:17:59Z</time>
      </trkpt>
      <trkpt lat="50.78689" lon="2.65696">
        <ele>142.6</ele>
        <time>2023-08-05T12:18:00Z</time>
      </trkpt>
      <trkpt lat="50.78688" lon="2.65695">
        <ele>142.6</ele>
        <time>2023-08-05T12:18:01Z</time>
      </trkpt>
      <trkpt lat="50.78687" lon="2.65693">
        <ele>142.6</ele>
        <time>2023-08-05T12:18:02Z</time>
      </trkpt>
      <trkpt lat="50.78677" lon="2.65677">
        <ele>142.8</ele>
        <time>2023-08-05T12:18:10Z</time>
      </trkpt>
      <trkpt lat="50.78676" lon="2.65677">
        <ele>142.8</ele>
        <time>2023-08-05T12:18:11Z</time>
      </trkpt>
      <trkpt lat="50.78675" lon="2.65678">
        <ele>143</ele>
        <time>2023-08-05T12:18:12Z</time>
      </trkpt>
      <trkpt lat="50.78673" lon="2.65681">
        <ele>143.2</ele>
        <time>2023-08-05T12:18:14Z</time>
      </trkpt>
      <trkpt lat="50.78674" lon="2.65682">
        <ele>143.2</ele>
        <time>2023-08-05T12:18:15Z</time>
      </trkpt>
      <trkpt lat="50.78675" lon="2.65683">
        <ele>143.4</ele>
        <time>2023-08-05T12:18:16Z</time>
      </trkpt>
      <trkpt lat="50.78675" lon="2.65682">
        <ele>143.4</ele>
        <time>2023-08-05T12:18:17Z</time>
      </trkpt>
      <trkpt lat="50.78676" lon="2.65681">
        <ele>143.4</ele>
        <time>2023-08-05T12:18:18Z</time>
      </trkpt>
      <trkpt lat="50.78678" lon="2.6568">
        <ele>143.4</ele>
        <time>2023-08-05T12:18:19Z</time>
      </trkpt>
      <trkpt lat="50.7868" lon="2.6568">
        <ele>143.4</ele>
        <time>2023-08-05T12:18:20Z</time>
      </trkpt>
      <trkpt lat="50.78681" lon="2.65681">
        <ele>143.6</ele>
        <time>2023-08-05T12:18:21Z</time>
      </trkpt>
      <trkpt lat="50.78682" lon="2.65683">
        <ele>143.6</ele>
        <time>2023-08-05T12:18:22Z</time>
      </trkpt>
      <trkpt lat="50.78687" lon="2.65692">
        <ele>143.6</ele>
        <time>2023-08-05T12:18:26Z</time>
      </trkpt>
      <trkpt lat="50.78689" lon="2.65696">
        <ele>143.6</ele>
        <time>2023-08-05T12:18:28Z</time>
      </trkpt>
      <trkpt lat="50.787" lon="2.65719">
        <ele>143.2</ele>
        <time>2023-08-05T12:18:35Z</time>
      </trkpt>
      <trkpt lat="50.78712" lon="2.6575">
        <ele>142.6</ele>
        <time>2023-08-05T12:18:41Z</time>
      </trkpt>
      <trkpt lat="50.78713" lon="2.65754">
        <ele>142.6</ele>
        <time>2023-08-05T12:18:42Z</time>
      </trkpt>
      <trkpt lat="50.78713" lon="2.65758">
        <ele>142.4</ele>
        <time>2023-08-05T12:18:43Z</time>
      </trkpt>
      <trkpt lat="50.78713" lon="2.65761">
        <ele>142.2</ele>
        <time>2023-08-05T12:18:44Z</time>
      </trkpt>
      <trkpt lat="50.78713" lon="2.65763">
        <ele>142</ele>
        <time>2023-08-05T12:18:45Z</time>
      </trkpt>
      <trkpt lat="50.78714" lon="2.65766">
        <ele>141.8</ele>
        <time>2023-08-05T12:18:46Z</time>
      </trkpt>
      <trkpt lat="50.78715" lon="2.65768">
        <ele>141.8</ele>
        <time>2023-08-05T12:18:47Z</time>
      </trkpt>
      <trkpt lat="50.78715" lon="2.65771">
        <ele>141.8</ele>
        <time>2023-08-05T12:18:48Z</time>
      </trkpt>
      <trkpt lat="50.78716" lon="2.65774">
        <ele>141.8</ele>
        <time>2023-08-05T12:18:49Z</time>
      </trkpt>
      <trkpt lat="50.78717" lon="2.65787">
        <ele>142.2</ele>
        <time>2023-08-05T12:18:53Z</time>
      </trkpt>
      <trkpt lat="50.78717" lon="2.65804">
        <ele>143</ele>
        <time>2023-08-05T12:18:58Z</time>
      </trkpt>
      <trkpt lat="50.78716" lon="2.65817">
        <ele>144</ele>
        <time>2023-08-05T12:19:02Z</time>
      </trkpt>
      <trkpt lat="50.78714" lon="2.65823">
        <ele>144.4</ele>
        <time>2023-08-05T12:19:04Z</time>
      </trkpt>
      <trkpt lat="50.78713" lon="2.65826">
        <ele>144.4</ele>
        <time>2023-08-05T12:19:05Z</time>
      </trkpt>
      <trkpt lat="50.78711" lon="2.65829">
        <ele>144.6</ele>
        <time>2023-08-05T12:19:06Z</time>
      </trkpt>
      <trkpt lat="50.7871" lon="2.65831">
        <ele>144.6</ele>
        <time>2023-08-05T12:19:07Z</time>
      </trkpt>
      <trkpt lat="50.78709" lon="2.65834">
        <ele>144.8</ele>
        <time>2023-08-05T12:19:08Z</time>
      </trkpt>
      <trkpt lat="50.78707" lon="2.6584">
        <ele>145</ele>
        <time>2023-08-05T12:19:10Z</time>
      </trkpt>
      <trkpt lat="50.78707" lon="2.65843">
        <ele>145.4</ele>
        <time>2023-08-05T12:19:11Z</time>
      </trkpt>
      <trkpt lat="50.78705" lon="2.65848">
        <ele>145.8</ele>
        <time>2023-08-05T12:19:13Z</time>
      </trkpt>
      <trkpt lat="50.78704" lon="2.65851">
        <ele>146</ele>
        <time>2023-08-05T12:19:14Z</time>
      </trkpt>
      <trkpt lat="50.78702" lon="2.65853">
        <ele>146</ele>
        <time>2023-08-05T12:19:15Z</time>
      </trkpt>
      <trkpt lat="50.78701" lon="2.65855">
        <ele>146.2</ele>
        <time>2023-08-05T12:19:16Z</time>
      </trkpt>
      <trkpt lat="50.787" lon="2.65857">
        <ele>146.4</ele>
        <time>2023-08-05T12:19:17Z</time>
      </trkpt>
      <trkpt lat="50.78699" lon="2.65859">
        <ele>146.8</ele>
        <time>2023-08-05T12:19:18Z</time>
      </trkpt>
      <trkpt lat="50.78698" lon="2.65861">
        <ele>147</ele>
        <time>2023-08-05T12:19:19Z</time>
      </trkpt>
      <trkpt lat="50.78697" lon="2.65863">
        <ele>147.2</ele>
        <time>2023-08-05T12:19:20Z</time>
      </trkpt>
      <trkpt lat="50.78696" lon="2.65865">
        <ele>147.2</ele>
        <time>2023-08-05T12:19:21Z</time>
      </trkpt>
      <trkpt lat="50.78694" lon="2.65867">
        <ele>147.4</ele>
        <time>2023-08-05T12:19:22Z</time>
      </trkpt>
      <trkpt lat="50.78693" lon="2.6587">
        <ele>147.4</ele>
        <time>2023-08-05T12:19:23Z</time>
      </trkpt>
      <trkpt lat="50.78692" lon="2.65872">
        <ele>147.6</ele>
        <time>2023-08-05T12:19:24Z</time>
      </trkpt>
      <trkpt lat="50.78692" lon="2.65875">
        <ele>147.8</ele>
        <time>2023-08-05T12:19:25Z</time>
      </trkpt>
      <trkpt lat="50.78691" lon="2.65877">
        <ele>147.8</ele>
        <time>2023-08-05T12:19:26Z</time>
      </trkpt>
      <trkpt lat="50.78691" lon="2.65879">
        <ele>148</ele>
        <time>2023-08-05T12:19:27Z</time>
      </trkpt>
      <trkpt lat="50.78691" lon="2.65881">
        <ele>148.2</ele>
        <time>2023-08-05T12:19:28Z</time>
      </trkpt>
      <trkpt lat="50.7869" lon="2.65884">
        <ele>148.4</ele>
        <time>2023-08-05T12:19:29Z</time>
      </trkpt>
      <trkpt lat="50.78689" lon="2.65885">
        <ele>148.8</ele>
        <time>2023-08-05T12:19:30Z</time>
      </trkpt>
      <trkpt lat="50.78689" lon="2.65886">
        <ele>149</ele>
        <time>2023-08-05T12:19:31Z</time>
      </trkpt>
      <trkpt lat="50.78688" lon="2.65888">
        <ele>149.2</ele>
        <time>2023-08-05T12:19:32Z</time>
      </trkpt>
      <trkpt lat="50.78688" lon="2.6589">
        <ele>149.8</ele>
        <time>2023-08-05T12:19:33Z</time>
      </trkpt>
      <trkpt lat="50.78688" lon="2.65893">
        <ele>150</ele>
        <time>2023-08-05T12:19:34Z</time>
      </trkpt>
      <trkpt lat="50.78687" lon="2.65896">
        <ele>150.2</ele>
        <time>2023-08-05T12:19:35Z</time>
      </trkpt>
      <trkpt lat="50.78687" lon="2.65898">
        <ele>150.4</ele>
        <time>2023-08-05T12:19:36Z</time>
      </trkpt>
      <trkpt lat="50.78686" lon="2.65901">
        <ele>150.6</ele>
        <time>2023-08-05T12:19:37Z</time>
      </trkpt>
      <trkpt lat="50.78684" lon="2.65904">
        <ele>150.6</ele>
        <time>2023-08-05T12:19:38Z</time>
      </trkpt>
      <trkpt lat="50.78684" lon="2.65904">
        <ele>150.6</ele>
        <time>2023-08-05T12:19:39Z</time>
      </trkpt>
      <trkpt lat="50.7868" lon="2.65909">
        <ele>150.8</ele>
        <time>2023-08-05T12:19:40Z</time>
      </trkpt>
      <trkpt lat="50.78679" lon="2.65912">
        <ele>151</ele>
        <time>2023-08-05T12:19:41Z</time>
      </trkpt>
      <trkpt lat="50.78679" lon="2.65914">
        <ele>151.2</ele>
        <time>2023-08-05T12:19:42Z</time>
      </trkpt>
      <trkpt lat="50.78678" lon="2.65917">
        <ele>151.4</ele>
        <time>2023-08-05T12:19:43Z</time>
      </trkpt>
      <trkpt lat="50.78677" lon="2.65919">
        <ele>151.4</ele>
        <time>2023-08-05T12:19:44Z</time>
      </trkpt>
      <trkpt lat="50.78676" lon="2.65922">
        <ele>151.8</ele>
        <time>2023-08-05T12:19:45Z</time>
      </trkpt>
      <trkpt lat="50.78673" lon="2.65924">
        <ele>152</ele>
        <time>2023-08-05T12:19:46Z</time>
      </trkpt>
      <trkpt lat="50.78672" lon="2.65926">
        <ele>152.2</ele>
        <time>2023-08-05T12:19:47Z</time>
      </trkpt>
      <trkpt lat="50.78672" lon="2.65926">
        <ele>152.4</ele>
        <time>2023-08-05T12:19:48Z</time>
      </trkpt>
      <trkpt lat="50.78669" lon="2.65932">
        <ele>152.6</ele>
        <time>2023-08-05T12:19:49Z</time>
      </trkpt>
      <trkpt lat="50.78666" lon="2.65934">
        <ele>152.8</ele>
        <time>2023-08-05T12:19:50Z</time>
      </trkpt>
      <trkpt lat="50.78664" lon="2.65936">
        <ele>152.8</ele>
        <time>2023-08-05T12:19:51Z</time>
      </trkpt>
      <trkpt lat="50.78663" lon="2.65939">
        <ele>153</ele>
        <time>2023-08-05T12:19:52Z</time>
      </trkpt>
      <trkpt lat="50.78662" lon="2.65942">
        <ele>153</ele>
        <time>2023-08-05T12:19:53Z</time>
      </trkpt>
      <trkpt lat="50.78661" lon="2.65944">
        <ele>153.2</ele>
        <time>2023-08-05T12:19:54Z</time>
      </trkpt>
      <trkpt lat="50.7866" lon="2.65947">
        <ele>153.4</ele>
        <time>2023-08-05T12:19:55Z</time>
      </trkpt>
      <trkpt lat="50.78659" lon="2.65949">
        <ele>153.6</ele>
        <time>2023-08-05T12:19:56Z</time>
      </trkpt>
      <trkpt lat="50.78658" lon="2.65952">
        <ele>153.6</ele>
        <time>2023-08-05T12:19:57Z</time>
      </trkpt>
      <trkpt lat="50.78656" lon="2.65954">
        <ele>153.8</ele>
        <time>2023-08-05T12:19:58Z</time>
      </trkpt>
      <trkpt lat="50.78655" lon="2.65956">
        <ele>153.8</ele>
        <time>2023-08-05T12:19:59Z</time>
      </trkpt>
      <trkpt lat="50.78654" lon="2.65958">
        <ele>154</ele>
        <time>2023-08-05T12:20:00Z</time>
      </trkpt>
      <trkpt lat="50.78653" lon="2.65961">
        <ele>154.2</ele>
        <time>2023-08-05T12:20:01Z</time>
      </trkpt>
      <trkpt lat="50.78652" lon="2.65963">
        <ele>154.2</ele>
        <time>2023-08-05T12:20:02Z</time>
      </trkpt>
      <trkpt lat="50.78651" lon="2.65965">
        <ele>154.4</ele>
        <time>2023-08-05T12:20:03Z</time>
      </trkpt>
      <trkpt lat="50.7865" lon="2.65967">
        <ele>154.8</ele>
        <time>2023-08-05T12:20:04Z</time>
      </trkpt>
      <trkpt lat="50.78649" lon="2.65969">
        <ele>155</ele>
        <time>2023-08-05T12:20:05Z</time>
      </trkpt>
      <trkpt lat="50.78648" lon="2.65972">
        <ele>155.4</ele>
        <time>2023-08-05T12:20:06Z</time>
      </trkpt>
      <trkpt lat="50.78648" lon="2.65974">
        <ele>155.4</ele>
        <time>2023-08-05T12:20:07Z</time>
      </trkpt>
      <trkpt lat="50.78647" lon="2.65976">
        <ele>156</ele>
        <time>2023-08-05T12:20:08Z</time>
      </trkpt>
      <trkpt lat="50.78646" lon="2.65977">
        <ele>156.2</ele>
        <time>2023-08-05T12:20:09Z</time>
      </trkpt>
      <trkpt lat="50.78645" lon="2.65978">
        <ele>156.4</ele>
        <time>2023-08-05T12:20:10Z</time>
      </trkpt>
      <trkpt lat="50.78645" lon="2.65978">
        <ele>156.4</ele>
        <time>2023-08-05T12:20:11Z</time>
      </trkpt>
      <trkpt lat="50.78643" lon="2.65978">
        <ele>156.6</ele>
        <time>2023-08-05T12:20:12Z</time>
      </trkpt>
      <trkpt lat="50.78642" lon="2.65978">
        <ele>156.8</ele>
        <time>2023-08-05T12:20:13Z</time>
      </trkpt>
      <trkpt lat="50.78641" lon="2.65978">
        <ele>157</ele>
        <time>2023-08-05T12:20:14Z</time>
      </trkpt>
      <trkpt lat="50.7864" lon="2.65977">
        <ele>157.2</ele>
        <time>2023-08-05T12:20:15Z</time>
      </trkpt>
      <trkpt lat="50.78639" lon="2.65975">
        <ele>157.2</ele>
        <time>2023-08-05T12:20:16Z</time>
      </trkpt>
      <trkpt lat="50.78638" lon="2.65974">
        <ele>157.4</ele>
        <time>2023-08-05T12:20:17Z</time>
      </trkpt>
      <trkpt lat="50.78638" lon="2.65972">
        <ele>157.4</ele>
        <time>2023-08-05T12:20:18Z</time>
      </trkpt>
      <trkpt lat="50.78637" lon="2.65971">
        <ele>157.6</ele>
        <time>2023-08-05T12:20:19Z</time>
      </trkpt>
      <trkpt lat="50.78636" lon="2.6597">
        <ele>157.8</ele>
        <time>2023-08-05T12:20:20Z</time>
      </trkpt>
      <trkpt lat="50.78634" lon="2.65969">
        <ele>157.8</ele>
        <time>2023-08-05T12:20:21Z</time>
      </trkpt>
      <trkpt lat="50.78633" lon="2.65967">
        <ele>158</ele>
        <time>2023-08-05T12:20:22Z</time>
      </trkpt>
      <trkpt lat="50.78632" lon="2.65966">
        <ele>158</ele>
        <time>2023-08-05T12:20:23Z</time>
      </trkpt>
      <trkpt lat="50.78632" lon="2.65966">
        <ele>158</ele>
        <time>2023-08-05T12:20:24Z</time>
      </trkpt>
      <trkpt lat="50.78628" lon="2.65963">
        <ele>158.2</ele>
        <time>2023-08-05T12:20:25Z</time>
      </trkpt>
      <trkpt lat="50.78626" lon="2.65961">
        <ele>158.6</ele>
        <time>2023-08-05T12:20:26Z</time>
      </trkpt>
      <trkpt lat="50.78625" lon="2.6596">
        <ele>158.8</ele>
        <time>2023-08-05T12:20:27Z</time>
      </trkpt>
      <trkpt lat="50.78623" lon="2.65959">
        <ele>158.8</ele>
        <time>2023-08-05T12:20:28Z</time>
      </trkpt>
      <trkpt lat="50.7862" lon="2.65958">
        <ele>159</ele>
        <time>2023-08-05T12:20:29Z</time>
      </trkpt>
      <trkpt lat="50.78618" lon="2.65957">
        <ele>159.2</ele>
        <time>2023-08-05T12:20:30Z</time>
      </trkpt>
      <trkpt lat="50.78617" lon="2.65957">
        <ele>159.6</ele>
        <time>2023-08-05T12:20:31Z</time>
      </trkpt>
      <trkpt lat="50.78615" lon="2.65957">
        <ele>159.8</ele>
        <time>2023-08-05T12:20:32Z</time>
      </trkpt>
      <trkpt lat="50.78614" lon="2.65956">
        <ele>160</ele>
        <time>2023-08-05T12:20:33Z</time>
      </trkpt>
      <trkpt lat="50.78612" lon="2.65957">
        <ele>160.2</ele>
        <time>2023-08-05T12:20:34Z</time>
      </trkpt>
      <trkpt lat="50.78611" lon="2.65957">
        <ele>160.6</ele>
        <time>2023-08-05T12:20:35Z</time>
      </trkpt>
      <trkpt lat="50.7861" lon="2.65958">
        <ele>160.8</ele>
        <time>2023-08-05T12:20:36Z</time>
      </trkpt>
      <trkpt lat="50.78609" lon="2.6596">
        <ele>160.8</ele>
        <time>2023-08-05T12:20:37Z</time>
      </trkpt>
      <trkpt lat="50.78609" lon="2.65961">
        <ele>161</ele>
        <time>2023-08-05T12:20:38Z</time>
      </trkpt>
      <trkpt lat="50.7861" lon="2.65962">
        <ele>161</ele>
        <time>2023-08-05T12:20:39Z</time>
      </trkpt>
      <trkpt lat="50.78611" lon="2.65962">
        <ele>161.2</ele>
        <time>2023-08-05T12:20:40Z</time>
      </trkpt>
      <trkpt lat="50.78613" lon="2.65961">
        <ele>161.2</ele>
        <time>2023-08-05T12:20:41Z</time>
      </trkpt>
      <trkpt lat="50.78614" lon="2.6596">
        <ele>161.2</ele>
        <time>2023-08-05T12:20:42Z</time>
      </trkpt>
      <trkpt lat="50.78616" lon="2.6596">
        <ele>161.2</ele>
        <time>2023-08-05T12:20:43Z</time>
      </trkpt>
      <trkpt lat="50.78619" lon="2.65959">
        <ele>161.2</ele>
        <time>2023-08-05T12:20:44Z</time>
      </trkpt>
      <trkpt lat="50.78621" lon="2.6596">
        <ele>161.2</ele>
        <time>2023-08-05T12:20:45Z</time>
      </trkpt>
      <trkpt lat="50.78623" lon="2.65961">
        <ele>161.2</ele>
        <time>2023-08-05T12:20:46Z</time>
      </trkpt>
      <trkpt lat="50.78625" lon="2.65963">
        <ele>161.2</ele>
        <time>2023-08-05T12:20:47Z</time>
      </trkpt>
      <trkpt lat="50.78628" lon="2.65965">
        <ele>161.2</ele>
        <time>2023-08-05T12:20:48Z</time>
      </trkpt>
      <trkpt lat="50.7863" lon="2.65967">
        <ele>161.2</ele>
        <time>2023-08-05T12:20:49Z</time>
      </trkpt>
      <trkpt lat="50.78633" lon="2.65969">
        <ele>161.2</ele>
        <time>2023-08-05T12:20:50Z</time>
      </trkpt>
      <trkpt lat="50.78635" lon="2.65971">
        <ele>161.2</ele>
        <time>2023-08-05T12:20:51Z</time>
      </trkpt>
      <trkpt lat="50.78637" lon="2.65974">
        <ele>161.2</ele>
        <time>2023-08-05T12:20:52Z</time>
      </trkpt>
      <trkpt lat="50.78638" lon="2.65976">
        <ele>161</ele>
        <time>2023-08-05T12:20:53Z</time>
      </trkpt>
      <trkpt lat="50.78639" lon="2.65978">
        <ele>160.8</ele>
        <time>2023-08-05T12:20:54Z</time>
      </trkpt>
      <trkpt lat="50.7864" lon="2.65979">
        <ele>160.8</ele>
        <time>2023-08-05T12:20:55Z</time>
      </trkpt>
      <trkpt lat="50.78641" lon="2.6598">
        <ele>160.2</ele>
        <time>2023-08-05T12:20:56Z</time>
      </trkpt>
      <trkpt lat="50.78642" lon="2.65982">
        <ele>160</ele>
        <time>2023-08-05T12:20:57Z</time>
      </trkpt>
      <trkpt lat="50.78643" lon="2.65983">
        <ele>159.6</ele>
        <time>2023-08-05T12:20:58Z</time>
      </trkpt>
      <trkpt lat="50.78645" lon="2.65989">
        <ele>158.8</ele>
        <time>2023-08-05T12:21:02Z</time>
      </trkpt>
      <trkpt lat="50.78645" lon="2.65989">
        <ele>158.4</ele>
        <time>2023-08-05T12:21:03Z</time>
      </trkpt>
      <trkpt lat="50.78645" lon="2.65989">
        <ele>158.4</ele>
        <time>2023-08-05T12:21:04Z</time>
      </trkpt>
      <trkpt lat="50.78645" lon="2.65989">
        <ele>158.2</ele>
        <time>2023-08-05T12:21:05Z</time>
      </trkpt>
      <trkpt lat="50.78643" lon="2.65993">
        <ele>156.8</ele>
        <time>2023-08-05T12:23:46Z</time>
      </trkpt>
      <trkpt lat="50.78647" lon="2.65992">
        <ele>156.8</ele>
        <time>2023-08-05T12:23:48Z</time>
      </trkpt>
      <trkpt lat="50.78653" lon="2.65996">
        <ele>156.6</ele>
        <time>2023-08-05T12:23:50Z</time>
      </trkpt>
      <trkpt lat="50.78663" lon="2.66007">
        <ele>156.2</ele>
        <time>2023-08-05T12:23:53Z</time>
      </trkpt>
      <trkpt lat="50.78666" lon="2.66011">
        <ele>156.2</ele>
        <time>2023-08-05T12:23:54Z</time>
      </trkpt>
      <trkpt lat="50.78669" lon="2.66014">
        <ele>155.8</ele>
        <time>2023-08-05T12:23:55Z</time>
      </trkpt>
      <trkpt lat="50.78672" lon="2.66017">
        <ele>155.4</ele>
        <time>2023-08-05T12:23:56Z</time>
      </trkpt>
      <trkpt lat="50.78685" lon="2.66034">
        <ele>154.2</ele>
        <time>2023-08-05T12:24:00Z</time>
      </trkpt>
      <trkpt lat="50.78691" lon="2.66044">
        <ele>153.2</ele>
        <time>2023-08-05T12:24:02Z</time>
      </trkpt>
      <trkpt lat="50.78699" lon="2.6606">
        <ele>151.4</ele>
        <time>2023-08-05T12:24:05Z</time>
      </trkpt>
      <trkpt lat="50.787" lon="2.66066">
        <ele>151</ele>
        <time>2023-08-05T12:24:06Z</time>
      </trkpt>
      <trkpt lat="50.78702" lon="2.66072">
        <ele>150.4</ele>
        <time>2023-08-05T12:24:07Z</time>
      </trkpt>
      <trkpt lat="50.78707" lon="2.66088">
        <ele>149.6</ele>
        <time>2023-08-05T12:24:09Z</time>
      </trkpt>
      <trkpt lat="50.78717" lon="2.66101">
        <ele>149</ele>
        <time>2023-08-05T12:24:11Z</time>
      </trkpt>
      <trkpt lat="50.78723" lon="2.66106">
        <ele>148.2</ele>
        <time>2023-08-05T12:24:12Z</time>
      </trkpt>
      <trkpt lat="50.78726" lon="2.66109">
        <ele>147.8</ele>
        <time>2023-08-05T12:24:13Z</time>
      </trkpt>
      <trkpt lat="50.7873" lon="2.66111">
        <ele>146.4</ele>
        <time>2023-08-05T12:24:14Z</time>
      </trkpt>
      <trkpt lat="50.78735" lon="2.66114">
        <ele>146</ele>
        <time>2023-08-05T12:24:15Z</time>
      </trkpt>
      <trkpt lat="50.78738" lon="2.66116">
        <ele>145.4</ele>
        <time>2023-08-05T12:24:16Z</time>
      </trkpt>
      <trkpt lat="50.78742" lon="2.66119">
        <ele>144.8</ele>
        <time>2023-08-05T12:24:17Z</time>
      </trkpt>
      <trkpt lat="50.78746" lon="2.66123">
        <ele>144</ele>
        <time>2023-08-05T12:24:18Z</time>
      </trkpt>
      <trkpt lat="50.78751" lon="2.66129">
        <ele>143.4</ele>
        <time>2023-08-05T12:24:19Z</time>
      </trkpt>
      <trkpt lat="50.7876" lon="2.66143">
        <ele>142.8</ele>
        <time>2023-08-05T12:24:21Z</time>
      </trkpt>
      <trkpt lat="50.78763" lon="2.6615">
        <ele>142.8</ele>
        <time>2023-08-05T12:24:22Z</time>
      </trkpt>
      <trkpt lat="50.78765" lon="2.66156">
        <ele>142.6</ele>
        <time>2023-08-05T12:24:23Z</time>
      </trkpt>
      <trkpt lat="50.78766" lon="2.66162">
        <ele>142.6</ele>
        <time>2023-08-05T12:24:24Z</time>
      </trkpt>
      <trkpt lat="50.78767" lon="2.66168">
        <ele>142</ele>
        <time>2023-08-05T12:24:25Z</time>
      </trkpt>
      <trkpt lat="50.78768" lon="2.66172">
        <ele>141.8</ele>
        <time>2023-08-05T12:24:26Z</time>
      </trkpt>
      <trkpt lat="50.78769" lon="2.66178">
        <ele>141.6</ele>
        <time>2023-08-05T12:24:27Z</time>
      </trkpt>
      <trkpt lat="50.7877" lon="2.66183">
        <ele>141.2</ele>
        <time>2023-08-05T12:24:28Z</time>
      </trkpt>
      <trkpt lat="50.78771" lon="2.66191">
        <ele>141.2</ele>
        <time>2023-08-05T12:24:29Z</time>
      </trkpt>
      <trkpt lat="50.78771" lon="2.66194">
        <ele>141</ele>
        <time>2023-08-05T12:24:30Z</time>
      </trkpt>
      <trkpt lat="50.78771" lon="2.66198">
        <ele>141</ele>
        <time>2023-08-05T12:24:31Z</time>
      </trkpt>
      <trkpt lat="50.78771" lon="2.66201">
        <ele>141</ele>
        <time>2023-08-05T12:24:32Z</time>
      </trkpt>
      <trkpt lat="50.78771" lon="2.66203">
        <ele>141</ele>
        <time>2023-08-05T12:24:33Z</time>
      </trkpt>
      <trkpt lat="50.78772" lon="2.66205">
        <ele>141</ele>
        <time>2023-08-05T12:24:34Z</time>
      </trkpt>
      <trkpt lat="50.78772" lon="2.66207">
        <ele>141</ele>
        <time>2023-08-05T12:24:35Z</time>
      </trkpt>
      <trkpt lat="50.78772" lon="2.66209">
        <ele>141</ele>
        <time>2023-08-05T12:24:36Z</time>
      </trkpt>
      <trkpt lat="50.7877" lon="2.66211">
        <ele>141.2</ele>
        <time>2023-08-05T12:24:38Z</time>
      </trkpt>
      <trkpt lat="50.7877" lon="2.66212">
        <ele>141.4</ele>
        <time>2023-08-05T12:24:39Z</time>
      </trkpt>
      <trkpt lat="50.78769" lon="2.66213">
        <ele>141.6</ele>
        <time>2023-08-05T12:24:40Z</time>
      </trkpt>
      <trkpt lat="50.78768" lon="2.66214">
        <ele>141.8</ele>
        <time>2023-08-05T12:24:41Z</time>
      </trkpt>
      <trkpt lat="50.78768" lon="2.66214">
        <ele>142</ele>
        <time>2023-08-05T12:24:42Z</time>
      </trkpt>
      <trkpt lat="50.78767" lon="2.66214">
        <ele>142</ele>
        <time>2023-08-05T12:24:43Z</time>
      </trkpt>
      <trkpt lat="50.78766" lon="2.66215">
        <ele>142.2</ele>
        <time>2023-08-05T12:24:44Z</time>
      </trkpt>
      <trkpt lat="50.78765" lon="2.66216">
        <ele>142.4</ele>
        <time>2023-08-05T12:24:45Z</time>
      </trkpt>
      <trkpt lat="50.78764" lon="2.66216">
        <ele>142.6</ele>
        <time>2023-08-05T12:24:46Z</time>
      </trkpt>
      <trkpt lat="50.78761" lon="2.66219">
        <ele>142.8</ele>
        <time>2023-08-05T12:24:48Z</time>
      </trkpt>
      <trkpt lat="50.78757" lon="2.66221">
        <ele>143.4</ele>
        <time>2023-08-05T12:24:51Z</time>
      </trkpt>
      <trkpt lat="50.78756" lon="2.66222">
        <ele>143.6</ele>
        <time>2023-08-05T12:24:52Z</time>
      </trkpt>
      <trkpt lat="50.78753" lon="2.66226">
        <ele>144</ele>
        <time>2023-08-05T12:24:55Z</time>
      </trkpt>
      <trkpt lat="50.78752" lon="2.66227">
        <ele>144</ele>
        <time>2023-08-05T12:24:56Z</time>
      </trkpt>
      <trkpt lat="50.78751" lon="2.66227">
        <ele>144.4</ele>
        <time>2023-08-05T12:24:57Z</time>
      </trkpt>
      <trkpt lat="50.78748" lon="2.66228">
        <ele>144.6</ele>
        <time>2023-08-05T12:24:58Z</time>
      </trkpt>
      <trkpt lat="50.78747" lon="2.66228">
        <ele>144.8</ele>
        <time>2023-08-05T12:24:59Z</time>
      </trkpt>
      <trkpt lat="50.78746" lon="2.66229">
        <ele>145</ele>
        <time>2023-08-05T12:25:00Z</time>
      </trkpt>
      <trkpt lat="50.78745" lon="2.6623">
        <ele>145</ele>
        <time>2023-08-05T12:25:01Z</time>
      </trkpt>
      <trkpt lat="50.78743" lon="2.66232">
        <ele>145.4</ele>
        <time>2023-08-05T12:25:02Z</time>
      </trkpt>
      <trkpt lat="50.78742" lon="2.66233">
        <ele>145.4</ele>
        <time>2023-08-05T12:25:03Z</time>
      </trkpt>
      <trkpt lat="50.7874" lon="2.66234">
        <ele>145.8</ele>
        <time>2023-08-05T12:25:04Z</time>
      </trkpt>
      <trkpt lat="50.78739" lon="2.66236">
        <ele>146</ele>
        <time>2023-08-05T12:25:05Z</time>
      </trkpt>
      <trkpt lat="50.78737" lon="2.66238">
        <ele>146.2</ele>
        <time>2023-08-05T12:25:06Z</time>
      </trkpt>
      <trkpt lat="50.78736" lon="2.6624">
        <ele>146.4</ele>
        <time>2023-08-05T12:25:07Z</time>
      </trkpt>
      <trkpt lat="50.78735" lon="2.66242">
        <ele>146.6</ele>
        <time>2023-08-05T12:25:08Z</time>
      </trkpt>
      <trkpt lat="50.78735" lon="2.66244">
        <ele>146.8</ele>
        <time>2023-08-05T12:25:09Z</time>
      </trkpt>
      <trkpt lat="50.78734" lon="2.66245">
        <ele>146.8</ele>
        <time>2023-08-05T12:25:10Z</time>
      </trkpt>
      <trkpt lat="50.78733" lon="2.66245">
        <ele>147</ele>
        <time>2023-08-05T12:25:11Z</time>
      </trkpt>
      <trkpt lat="50.78732" lon="2.66248">
        <ele>147.2</ele>
        <time>2023-08-05T12:25:12Z</time>
      </trkpt>
      <trkpt lat="50.7873" lon="2.66249">
        <ele>147.6</ele>
        <time>2023-08-05T12:25:13Z</time>
      </trkpt>
      <trkpt lat="50.78728" lon="2.6625">
        <ele>147.6</ele>
        <time>2023-08-05T12:25:14Z</time>
      </trkpt>
      <trkpt lat="50.78727" lon="2.6625">
        <ele>148</ele>
        <time>2023-08-05T12:25:15Z</time>
      </trkpt>
      <trkpt lat="50.78727" lon="2.6625">
        <ele>148.2</ele>
        <time>2023-08-05T12:25:16Z</time>
      </trkpt>
      <trkpt lat="50.78725" lon="2.66249">
        <ele>148.2</ele>
        <time>2023-08-05T12:25:17Z</time>
      </trkpt>
      <trkpt lat="50.78723" lon="2.66251">
        <ele>148.6</ele>
        <time>2023-08-05T12:25:18Z</time>
      </trkpt>
      <trkpt lat="50.7872" lon="2.6625">
        <ele>148.6</ele>
        <time>2023-08-05T12:25:19Z</time>
      </trkpt>
      <trkpt lat="50.78718" lon="2.6625">
        <ele>149</ele>
        <time>2023-08-05T12:25:20Z</time>
      </trkpt>
      <trkpt lat="50.78716" lon="2.66249">
        <ele>149.2</ele>
        <time>2023-08-05T12:25:21Z</time>
      </trkpt>
      <trkpt lat="50.78714" lon="2.66248">
        <ele>149.6</ele>
        <time>2023-08-05T12:25:22Z</time>
      </trkpt>
      <trkpt lat="50.78713" lon="2.66248">
        <ele>150</ele>
        <time>2023-08-05T12:25:23Z</time>
      </trkpt>
      <trkpt lat="50.78712" lon="2.66248">
        <ele>150</ele>
        <time>2023-08-05T12:25:24Z</time>
      </trkpt>
      <trkpt lat="50.78711" lon="2.66248">
        <ele>150.2</ele>
        <time>2023-08-05T12:25:25Z</time>
      </trkpt>
      <trkpt lat="50.78709" lon="2.66248">
        <ele>150.4</ele>
        <time>2023-08-05T12:25:26Z</time>
      </trkpt>
      <trkpt lat="50.78708" lon="2.66247">
        <ele>150.6</ele>
        <time>2023-08-05T12:25:27Z</time>
      </trkpt>
      <trkpt lat="50.78707" lon="2.66246">
        <ele>150.8</ele>
        <time>2023-08-05T12:25:28Z</time>
      </trkpt>
      <trkpt lat="50.78706" lon="2.66246">
        <ele>151</ele>
        <time>2023-08-05T12:25:29Z</time>
      </trkpt>
      <trkpt lat="50.78704" lon="2.66245">
        <ele>151.2</ele>
        <time>2023-08-05T12:25:30Z</time>
      </trkpt>
      <trkpt lat="50.78703" lon="2.66245">
        <ele>151.4</ele>
        <time>2023-08-05T12:25:31Z</time>
      </trkpt>
      <trkpt lat="50.78702" lon="2.66245">
        <ele>151.8</ele>
        <time>2023-08-05T12:25:32Z</time>
      </trkpt>
      <trkpt lat="50.78699" lon="2.66247">
        <ele>151.8</ele>
        <time>2023-08-05T12:25:33Z</time>
      </trkpt>
      <trkpt lat="50.78696" lon="2.66248">
        <ele>152.2</ele>
        <time>2023-08-05T12:25:34Z</time>
      </trkpt>
      <trkpt lat="50.78693" lon="2.66247">
        <ele>152.4</ele>
        <time>2023-08-05T12:25:35Z</time>
      </trkpt>
      <trkpt lat="50.78692" lon="2.66249">
        <ele>152.8</ele>
        <time>2023-08-05T12:25:36Z</time>
      </trkpt>
      <trkpt lat="50.78691" lon="2.66251">
        <ele>152.8</ele>
        <time>2023-08-05T12:25:37Z</time>
      </trkpt>
      <trkpt lat="50.78691" lon="2.66253">
        <ele>153.2</ele>
        <time>2023-08-05T12:25:38Z</time>
      </trkpt>
      <trkpt lat="50.78691" lon="2.66255">
        <ele>153.6</ele>
        <time>2023-08-05T12:25:39Z</time>
      </trkpt>
      <trkpt lat="50.78692" lon="2.66257">
        <ele>153.8</ele>
        <time>2023-08-05T12:25:40Z</time>
      </trkpt>
      <trkpt lat="50.78693" lon="2.66258">
        <ele>154.6</ele>
        <time>2023-08-05T12:25:41Z</time>
      </trkpt>
      <trkpt lat="50.78694" lon="2.6626">
        <ele>155</ele>
        <time>2023-08-05T12:25:42Z</time>
      </trkpt>
      <trkpt lat="50.78695" lon="2.66262">
        <ele>155.4</ele>
        <time>2023-08-05T12:25:43Z</time>
      </trkpt>
      <trkpt lat="50.78696" lon="2.66263">
        <ele>155.6</ele>
        <time>2023-08-05T12:25:44Z</time>
      </trkpt>
      <trkpt lat="50.78697" lon="2.66265">
        <ele>155.8</ele>
        <time>2023-08-05T12:25:45Z</time>
      </trkpt>
      <trkpt lat="50.78698" lon="2.66267">
        <ele>156</ele>
        <time>2023-08-05T12:25:46Z</time>
      </trkpt>
      <trkpt lat="50.78699" lon="2.6627">
        <ele>156</ele>
        <time>2023-08-05T12:25:47Z</time>
      </trkpt>
      <trkpt lat="50.78701" lon="2.66273">
        <ele>156.2</ele>
        <time>2023-08-05T12:25:48Z</time>
      </trkpt>
      <trkpt lat="50.78702" lon="2.66275">
        <ele>156.4</ele>
        <time>2023-08-05T12:25:49Z</time>
      </trkpt>
      <trkpt lat="50.78704" lon="2.66277">
        <ele>156.4</ele>
        <time>2023-08-05T12:25:50Z</time>
      </trkpt>
      <trkpt lat="50.78706" lon="2.66279">
        <ele>156.6</ele>
        <time>2023-08-05T12:25:51Z</time>
      </trkpt>
      <trkpt lat="50.78708" lon="2.66282">
        <ele>156.6</ele>
        <time>2023-08-05T12:25:52Z</time>
      </trkpt>
      <trkpt lat="50.7871" lon="2.66284">
        <ele>156.6</ele>
        <time>2023-08-05T12:25:53Z</time>
      </trkpt>
      <trkpt lat="50.78712" lon="2.66287">
        <ele>156.6</ele>
        <time>2023-08-05T12:25:54Z</time>
      </trkpt>
      <trkpt lat="50.78713" lon="2.6629">
        <ele>156.6</ele>
        <time>2023-08-05T12:25:55Z</time>
      </trkpt>
      <trkpt lat="50.78715" lon="2.66293">
        <ele>156.6</ele>
        <time>2023-08-05T12:25:56Z</time>
      </trkpt>
      <trkpt lat="50.78717" lon="2.66295">
        <ele>156.6</ele>
        <time>2023-08-05T12:25:57Z</time>
      </trkpt>
      <trkpt lat="50.78719" lon="2.66298">
        <ele>156.6</ele>
        <time>2023-08-05T12:25:58Z</time>
      </trkpt>
      <trkpt lat="50.7872" lon="2.66301">
        <ele>156.6</ele>
        <time>2023-08-05T12:25:59Z</time>
      </trkpt>
      <trkpt lat="50.78722" lon="2.66303">
        <ele>156.8</ele>
        <time>2023-08-05T12:26:00Z</time>
      </trkpt>
      <trkpt lat="50.78723" lon="2.66305">
        <ele>156.8</ele>
        <time>2023-08-05T12:26:01Z</time>
      </trkpt>
      <trkpt lat="50.78725" lon="2.66308">
        <ele>156.8</ele>
        <time>2023-08-05T12:26:02Z</time>
      </trkpt>
      <trkpt lat="50.78726" lon="2.66311">
        <ele>157</ele>
        <time>2023-08-05T12:26:03Z</time>
      </trkpt>
      <trkpt lat="50.78728" lon="2.66313">
        <ele>157</ele>
        <time>2023-08-05T12:26:04Z</time>
      </trkpt>
      <trkpt lat="50.78729" lon="2.66316">
        <ele>157.2</ele>
        <time>2023-08-05T12:26:05Z</time>
      </trkpt>
      <trkpt lat="50.7873" lon="2.66317">
        <ele>157.2</ele>
        <time>2023-08-05T12:26:06Z</time>
      </trkpt>
      <trkpt lat="50.78733" lon="2.66319">
        <ele>157.4</ele>
        <time>2023-08-05T12:26:07Z</time>
      </trkpt>
      <trkpt lat="50.78734" lon="2.66321">
        <ele>157.4</ele>
        <time>2023-08-05T12:26:08Z</time>
      </trkpt>
      <trkpt lat="50.78736" lon="2.66323">
        <ele>157.4</ele>
        <time>2023-08-05T12:26:09Z</time>
      </trkpt>
      <trkpt lat="50.78737" lon="2.66326">
        <ele>157.6</ele>
        <time>2023-08-05T12:26:10Z</time>
      </trkpt>
      <trkpt lat="50.7874" lon="2.66329">
        <ele>157.6</ele>
        <time>2023-08-05T12:26:11Z</time>
      </trkpt>
      <trkpt lat="50.78743" lon="2.66333">
        <ele>157.8</ele>
        <time>2023-08-05T12:26:12Z</time>
      </trkpt>
      <trkpt lat="50.78746" lon="2.66336">
        <ele>157.8</ele>
        <time>2023-08-05T12:26:13Z</time>
      </trkpt>
      <trkpt lat="50.78748" lon="2.66339">
        <ele>157.8</ele>
        <time>2023-08-05T12:26:14Z</time>
      </trkpt>
      <trkpt lat="50.78755" lon="2.66353">
        <ele>158</ele>
        <time>2023-08-05T12:26:18Z</time>
      </trkpt>
      <trkpt lat="50.78754" lon="2.66354">
        <ele>158</ele>
        <time>2023-08-05T12:26:19Z</time>
      </trkpt>
      <trkpt lat="50.78754" lon="2.66357">
        <ele>157.8</ele>
        <time>2023-08-05T12:26:20Z</time>
      </trkpt>
      <trkpt lat="50.78753" lon="2.66359">
        <ele>157.8</ele>
        <time>2023-08-05T12:26:21Z</time>
      </trkpt>
      <trkpt lat="50.78752" lon="2.6636">
        <ele>157.8</ele>
        <time>2023-08-05T12:26:22Z</time>
      </trkpt>
      <trkpt lat="50.78752" lon="2.66361">
        <ele>157.8</ele>
        <time>2023-08-05T12:26:23Z</time>
      </trkpt>
      <trkpt lat="50.78752" lon="2.66361">
        <ele>157.6</ele>
        <time>2023-08-05T12:26:24Z</time>
      </trkpt>
      <trkpt lat="50.78751" lon="2.66362">
        <ele>157.6</ele>
        <time>2023-08-05T12:26:25Z</time>
      </trkpt>
      <trkpt lat="50.7875" lon="2.66362">
        <ele>157.6</ele>
        <time>2023-08-05T12:26:26Z</time>
      </trkpt>
      <trkpt lat="50.78749" lon="2.66363">
        <ele>157.6</ele>
        <time>2023-08-05T12:26:27Z</time>
      </trkpt>
      <trkpt lat="50.78748" lon="2.66363">
        <ele>157.6</ele>
        <time>2023-08-05T12:26:28Z</time>
      </trkpt>
      <trkpt lat="50.78748" lon="2.66364">
        <ele>157.6</ele>
        <time>2023-08-05T12:26:29Z</time>
      </trkpt>
      <trkpt lat="50.78748" lon="2.66364">
        <ele>157.6</ele>
        <time>2023-08-05T12:26:30Z</time>
      </trkpt>
      <trkpt lat="50.78747" lon="2.66365">
        <ele>157.8</ele>
        <time>2023-08-05T12:26:31Z</time>
      </trkpt>
      <trkpt lat="50.78746" lon="2.66366">
        <ele>157.8</ele>
        <time>2023-08-05T12:26:32Z</time>
      </trkpt>
      <trkpt lat="50.78745" lon="2.66367">
        <ele>158</ele>
        <time>2023-08-05T12:26:33Z</time>
      </trkpt>
      <trkpt lat="50.78744" lon="2.66368">
        <ele>158.2</ele>
        <time>2023-08-05T12:26:34Z</time>
      </trkpt>
      <trkpt lat="50.78743" lon="2.66369">
        <ele>158.2</ele>
        <time>2023-08-05T12:26:35Z</time>
      </trkpt>
      <trkpt lat="50.78742" lon="2.66369">
        <ele>158.4</ele>
        <time>2023-08-05T12:26:36Z</time>
      </trkpt>
      <trkpt lat="50.78741" lon="2.66371">
        <ele>158.6</ele>
        <time>2023-08-05T12:26:37Z</time>
      </trkpt>
      <trkpt lat="50.78738" lon="2.66372">
        <ele>159</ele>
        <time>2023-08-05T12:26:40Z</time>
      </trkpt>
      <trkpt lat="50.78738" lon="2.66373">
        <ele>159.2</ele>
        <time>2023-08-05T12:26:41Z</time>
      </trkpt>
      <trkpt lat="50.78737" lon="2.66374">
        <ele>159.4</ele>
        <time>2023-08-05T12:26:42Z</time>
      </trkpt>
      <trkpt lat="50.78736" lon="2.66375">
        <ele>159.6</ele>
        <time>2023-08-05T12:26:43Z</time>
      </trkpt>
      <trkpt lat="50.78731" lon="2.66378">
        <ele>160.2</ele>
        <time>2023-08-05T12:26:47Z</time>
      </trkpt>
      <trkpt lat="50.7873" lon="2.66378">
        <ele>160.2</ele>
        <time>2023-08-05T12:26:48Z</time>
      </trkpt>
      <trkpt lat="50.78729" lon="2.66379">
        <ele>160.4</ele>
        <time>2023-08-05T12:26:49Z</time>
      </trkpt>
      <trkpt lat="50.78728" lon="2.66379">
        <ele>161</ele>
        <time>2023-08-05T12:26:50Z</time>
      </trkpt>
      <trkpt lat="50.78726" lon="2.66379">
        <ele>161.2</ele>
        <time>2023-08-05T12:26:51Z</time>
      </trkpt>
      <trkpt lat="50.78725" lon="2.6638">
        <ele>161.6</ele>
        <time>2023-08-05T12:26:52Z</time>
      </trkpt>
      <trkpt lat="50.78725" lon="2.66381">
        <ele>162</ele>
        <time>2023-08-05T12:26:53Z</time>
      </trkpt>
      <trkpt lat="50.78724" lon="2.66382">
        <ele>162.4</ele>
        <time>2023-08-05T12:26:54Z</time>
      </trkpt>
      <trkpt lat="50.78723" lon="2.66383">
        <ele>162.8</ele>
        <time>2023-08-05T12:26:55Z</time>
      </trkpt>
      <trkpt lat="50.78723" lon="2.66383">
        <ele>163.4</ele>
        <time>2023-08-05T12:26:56Z</time>
      </trkpt>
      <trkpt lat="50.78722" lon="2.66384">
        <ele>163.6</ele>
        <time>2023-08-05T12:26:57Z</time>
      </trkpt>
      <trkpt lat="50.78721" lon="2.66385">
        <ele>164.4</ele>
        <time>2023-08-05T12:26:58Z</time>
      </trkpt>
      <trkpt lat="50.78718" lon="2.66387">
        <ele>164.8</ele>
        <time>2023-08-05T12:26:59Z</time>
      </trkpt>
      <trkpt lat="50.78717" lon="2.66387">
        <ele>165</ele>
        <time>2023-08-05T12:27:00Z</time>
      </trkpt>
      <trkpt lat="50.78716" lon="2.66388">
        <ele>165</ele>
        <time>2023-08-05T12:27:01Z</time>
      </trkpt>
      <trkpt lat="50.78714" lon="2.66388">
        <ele>165.2</ele>
        <time>2023-08-05T12:27:02Z</time>
      </trkpt>
      <trkpt lat="50.78713" lon="2.66389">
        <ele>165.2</ele>
        <time>2023-08-05T12:27:03Z</time>
      </trkpt>
      <trkpt lat="50.78713" lon="2.66389">
        <ele>165.2</ele>
        <time>2023-08-05T12:27:04Z</time>
      </trkpt>
      <trkpt lat="50.78711" lon="2.66389">
        <ele>165.2</ele>
        <time>2023-08-05T12:27:05Z</time>
      </trkpt>
      <trkpt lat="50.78708" lon="2.66389">
        <ele>165.2</ele>
        <time>2023-08-05T12:27:06Z</time>
      </trkpt>
      <trkpt lat="50.78707" lon="2.66391">
        <ele>165.2</ele>
        <time>2023-08-05T12:27:07Z</time>
      </trkpt>
      <trkpt lat="50.78704" lon="2.66393">
        <ele>165.2</ele>
        <time>2023-08-05T12:27:08Z</time>
      </trkpt>
      <trkpt lat="50.78703" lon="2.66394">
        <ele>165.2</ele>
        <time>2023-08-05T12:27:09Z</time>
      </trkpt>
      <trkpt lat="50.78702" lon="2.66396">
        <ele>165.4</ele>
        <time>2023-08-05T12:27:10Z</time>
      </trkpt>
      <trkpt lat="50.78701" lon="2.66397">
        <ele>165.6</ele>
        <time>2023-08-05T12:27:11Z</time>
      </trkpt>
      <trkpt lat="50.78699" lon="2.66398">
        <ele>165.6</ele>
        <time>2023-08-05T12:27:12Z</time>
      </trkpt>
      <trkpt lat="50.78699" lon="2.66399">
        <ele>165.8</ele>
        <time>2023-08-05T12:27:13Z</time>
      </trkpt>
      <trkpt lat="50.78698" lon="2.66399">
        <ele>165.8</ele>
        <time>2023-08-05T12:27:14Z</time>
      </trkpt>
      <trkpt lat="50.78698" lon="2.664">
        <ele>166</ele>
        <time>2023-08-05T12:27:15Z</time>
      </trkpt>
      <trkpt lat="50.78697" lon="2.66403">
        <ele>166.2</ele>
        <time>2023-08-05T12:27:16Z</time>
      </trkpt>
      <trkpt lat="50.78695" lon="2.66405">
        <ele>166.4</ele>
        <time>2023-08-05T12:27:17Z</time>
      </trkpt>
      <trkpt lat="50.78693" lon="2.66405">
        <ele>166.6</ele>
        <time>2023-08-05T12:27:18Z</time>
      </trkpt>
      <trkpt lat="50.78692" lon="2.66406">
        <ele>166.6</ele>
        <time>2023-08-05T12:27:19Z</time>
      </trkpt>
      <trkpt lat="50.78691" lon="2.66408">
        <ele>166.8</ele>
        <time>2023-08-05T12:27:20Z</time>
      </trkpt>
      <trkpt lat="50.78691" lon="2.6641">
        <ele>167</ele>
        <time>2023-08-05T12:27:21Z</time>
      </trkpt>
      <trkpt lat="50.7869" lon="2.66411">
        <ele>167.2</ele>
        <time>2023-08-05T12:27:22Z</time>
      </trkpt>
      <trkpt lat="50.78688" lon="2.66411">
        <ele>167.4</ele>
        <time>2023-08-05T12:27:23Z</time>
      </trkpt>
      <trkpt lat="50.78687" lon="2.66411">
        <ele>167.6</ele>
        <time>2023-08-05T12:27:24Z</time>
      </trkpt>
      <trkpt lat="50.78688" lon="2.66413">
        <ele>167.6</ele>
        <time>2023-08-05T12:27:25Z</time>
      </trkpt>
      <trkpt lat="50.78687" lon="2.66414">
        <ele>167.8</ele>
        <time>2023-08-05T12:27:26Z</time>
      </trkpt>
      <trkpt lat="50.78686" lon="2.66415">
        <ele>168</ele>
        <time>2023-08-05T12:27:27Z</time>
      </trkpt>
      <trkpt lat="50.78685" lon="2.66416">
        <ele>168.4</ele>
        <time>2023-08-05T12:27:28Z</time>
      </trkpt>
      <trkpt lat="50.78684" lon="2.66417">
        <ele>168.6</ele>
        <time>2023-08-05T12:27:29Z</time>
      </trkpt>
      <trkpt lat="50.78683" lon="2.66418">
        <ele>169</ele>
        <time>2023-08-05T12:27:30Z</time>
      </trkpt>
      <trkpt lat="50.78682" lon="2.6642">
        <ele>169.2</ele>
        <time>2023-08-05T12:27:31Z</time>
      </trkpt>
      <trkpt lat="50.78681" lon="2.66421">
        <ele>169.4</ele>
        <time>2023-08-05T12:27:32Z</time>
      </trkpt>
      <trkpt lat="50.7868" lon="2.66422">
        <ele>169.4</ele>
        <time>2023-08-05T12:27:33Z</time>
      </trkpt>
      <trkpt lat="50.78679" lon="2.66423">
        <ele>169.6</ele>
        <time>2023-08-05T12:27:34Z</time>
      </trkpt>
      <trkpt lat="50.78677" lon="2.66423">
        <ele>169.8</ele>
        <time>2023-08-05T12:27:35Z</time>
      </trkpt>
      <trkpt lat="50.78676" lon="2.66424">
        <ele>169.8</ele>
        <time>2023-08-05T12:27:36Z</time>
      </trkpt>
      <trkpt lat="50.78675" lon="2.66425">
        <ele>170</ele>
        <time>2023-08-05T12:27:37Z</time>
      </trkpt>
      <trkpt lat="50.78673" lon="2.66425">
        <ele>170.2</ele>
        <time>2023-08-05T12:27:38Z</time>
      </trkpt>
      <trkpt lat="50.78672" lon="2.66426">
        <ele>170.4</ele>
        <time>2023-08-05T12:27:39Z</time>
      </trkpt>
      <trkpt lat="50.78671" lon="2.66427">
        <ele>170.6</ele>
        <time>2023-08-05T12:27:40Z</time>
      </trkpt>
      <trkpt lat="50.7867" lon="2.66428">
        <ele>170.6</ele>
        <time>2023-08-05T12:27:41Z</time>
      </trkpt>
      <trkpt lat="50.78669" lon="2.6643">
        <ele>171</ele>
        <time>2023-08-05T12:27:42Z</time>
      </trkpt>
      <trkpt lat="50.78667" lon="2.66431">
        <ele>171.2</ele>
        <time>2023-08-05T12:27:43Z</time>
      </trkpt>
      <trkpt lat="50.78666" lon="2.66432">
        <ele>171.2</ele>
        <time>2023-08-05T12:27:44Z</time>
      </trkpt>
      <trkpt lat="50.78665" lon="2.66432">
        <ele>171.4</ele>
        <time>2023-08-05T12:27:45Z</time>
      </trkpt>
      <trkpt lat="50.78663" lon="2.66432">
        <ele>171.8</ele>
        <time>2023-08-05T12:27:46Z</time>
      </trkpt>
      <trkpt lat="50.78662" lon="2.66433">
        <ele>172</ele>
        <time>2023-08-05T12:27:47Z</time>
      </trkpt>
      <trkpt lat="50.7866" lon="2.66433">
        <ele>172.2</ele>
        <time>2023-08-05T12:27:48Z</time>
      </trkpt>
      <trkpt lat="50.78658" lon="2.66433">
        <ele>172.6</ele>
        <time>2023-08-05T12:27:49Z</time>
      </trkpt>
      <trkpt lat="50.78656" lon="2.66433">
        <ele>172.6</ele>
        <time>2023-08-05T12:27:50Z</time>
      </trkpt>
      <trkpt lat="50.78656" lon="2.66434">
        <ele>173</ele>
        <time>2023-08-05T12:27:51Z</time>
      </trkpt>
      <trkpt lat="50.78654" lon="2.66435">
        <ele>173.2</ele>
        <time>2023-08-05T12:27:52Z</time>
      </trkpt>
      <trkpt lat="50.78652" lon="2.66436">
        <ele>173.4</ele>
        <time>2023-08-05T12:27:53Z</time>
      </trkpt>
      <trkpt lat="50.78651" lon="2.66437">
        <ele>174</ele>
        <time>2023-08-05T12:27:54Z</time>
      </trkpt>
      <trkpt lat="50.7865" lon="2.66438">
        <ele>174</ele>
        <time>2023-08-05T12:27:55Z</time>
      </trkpt>
      <trkpt lat="50.78649" lon="2.6644">
        <ele>174.2</ele>
        <time>2023-08-05T12:27:56Z</time>
      </trkpt>
      <trkpt lat="50.78648" lon="2.66442">
        <ele>174.4</ele>
        <time>2023-08-05T12:27:57Z</time>
      </trkpt>
      <trkpt lat="50.78648" lon="2.66444">
        <ele>174.8</ele>
        <time>2023-08-05T12:27:58Z</time>
      </trkpt>
      <trkpt lat="50.78647" lon="2.66446">
        <ele>174.8</ele>
        <time>2023-08-05T12:27:59Z</time>
      </trkpt>
      <trkpt lat="50.78648" lon="2.66448">
        <ele>175.2</ele>
        <time>2023-08-05T12:28:00Z</time>
      </trkpt>
      <trkpt lat="50.78648" lon="2.6645">
        <ele>175.4</ele>
        <time>2023-08-05T12:28:01Z</time>
      </trkpt>
      <trkpt lat="50.78648" lon="2.66452">
        <ele>175.6</ele>
        <time>2023-08-05T12:28:02Z</time>
      </trkpt>
      <trkpt lat="50.78648" lon="2.66454">
        <ele>176</ele>
        <time>2023-08-05T12:28:03Z</time>
      </trkpt>
      <trkpt lat="50.78648" lon="2.66457">
        <ele>176.2</ele>
        <time>2023-08-05T12:28:04Z</time>
      </trkpt>
      <trkpt lat="50.78648" lon="2.66459">
        <ele>176.2</ele>
        <time>2023-08-05T12:28:05Z</time>
      </trkpt>
      <trkpt lat="50.78647" lon="2.66461">
        <ele>176.4</ele>
        <time>2023-08-05T12:28:06Z</time>
      </trkpt>
      <trkpt lat="50.78646" lon="2.66464">
        <ele>176.6</ele>
        <time>2023-08-05T12:28:07Z</time>
      </trkpt>
      <trkpt lat="50.78646" lon="2.66466">
        <ele>176.6</ele>
        <time>2023-08-05T12:28:08Z</time>
      </trkpt>
      <trkpt lat="50.78645" lon="2.66469">
        <ele>176.6</ele>
        <time>2023-08-05T12:28:09Z</time>
      </trkpt>
      <trkpt lat="50.78644" lon="2.66471">
        <ele>176.8</ele>
        <time>2023-08-05T12:28:10Z</time>
      </trkpt>
      <trkpt lat="50.78643" lon="2.66473">
        <ele>176.8</ele>
        <time>2023-08-05T12:28:11Z</time>
      </trkpt>
      <trkpt lat="50.78643" lon="2.66476">
        <ele>177</ele>
        <time>2023-08-05T12:28:12Z</time>
      </trkpt>
      <trkpt lat="50.78643" lon="2.66479">
        <ele>177.2</ele>
        <time>2023-08-05T12:28:13Z</time>
      </trkpt>
      <trkpt lat="50.78643" lon="2.66481">
        <ele>177.4</ele>
        <time>2023-08-05T12:28:14Z</time>
      </trkpt>
      <trkpt lat="50.78643" lon="2.66483">
        <ele>177.6</ele>
        <time>2023-08-05T12:28:15Z</time>
      </trkpt>
      <trkpt lat="50.78643" lon="2.66486">
        <ele>177.8</ele>
        <time>2023-08-05T12:28:16Z</time>
      </trkpt>
      <trkpt lat="50.78643" lon="2.66489">
        <ele>178</ele>
        <time>2023-08-05T12:28:17Z</time>
      </trkpt>
      <trkpt lat="50.78642" lon="2.66491">
        <ele>178</ele>
        <time>2023-08-05T12:28:18Z</time>
      </trkpt>
      <trkpt lat="50.78642" lon="2.66493">
        <ele>178</ele>
        <time>2023-08-05T12:28:19Z</time>
      </trkpt>
      <trkpt lat="50.78642" lon="2.66495">
        <ele>178.2</ele>
        <time>2023-08-05T12:28:20Z</time>
      </trkpt>
      <trkpt lat="50.78642" lon="2.66497">
        <ele>178.2</ele>
        <time>2023-08-05T12:28:21Z</time>
      </trkpt>
      <trkpt lat="50.78642" lon="2.665">
        <ele>178.4</ele>
        <time>2023-08-05T12:28:22Z</time>
      </trkpt>
      <trkpt lat="50.78643" lon="2.66502">
        <ele>178.4</ele>
        <time>2023-08-05T12:28:23Z</time>
      </trkpt>
      <trkpt lat="50.78643" lon="2.66504">
        <ele>178.6</ele>
        <time>2023-08-05T12:28:24Z</time>
      </trkpt>
      <trkpt lat="50.78643" lon="2.66506">
        <ele>178.8</ele>
        <time>2023-08-05T12:28:25Z</time>
      </trkpt>
      <trkpt lat="50.78643" lon="2.66508">
        <ele>179</ele>
        <time>2023-08-05T12:28:26Z</time>
      </trkpt>
      <trkpt lat="50.78643" lon="2.66511">
        <ele>179.2</ele>
        <time>2023-08-05T12:28:27Z</time>
      </trkpt>
      <trkpt lat="50.78644" lon="2.66514">
        <ele>179.4</ele>
        <time>2023-08-05T12:28:28Z</time>
      </trkpt>
      <trkpt lat="50.78644" lon="2.66517">
        <ele>179.6</ele>
        <time>2023-08-05T12:28:29Z</time>
      </trkpt>
      <trkpt lat="50.78644" lon="2.66517">
        <ele>179.6</ele>
        <time>2023-08-05T12:28:30Z</time>
      </trkpt>
      <trkpt lat="50.78645" lon="2.66522">
        <ele>179.8</ele>
        <time>2023-08-05T12:28:31Z</time>
      </trkpt>
      <trkpt lat="50.78645" lon="2.66524">
        <ele>180</ele>
        <time>2023-08-05T12:28:32Z</time>
      </trkpt>
      <trkpt lat="50.78646" lon="2.66528">
        <ele>180.2</ele>
        <time>2023-08-05T12:28:33Z</time>
      </trkpt>
      <trkpt lat="50.78646" lon="2.6653">
        <ele>180.2</ele>
        <time>2023-08-05T12:28:34Z</time>
      </trkpt>
      <trkpt lat="50.78646" lon="2.66533">
        <ele>180.4</ele>
        <time>2023-08-05T12:28:35Z</time>
      </trkpt>
      <trkpt lat="50.78646" lon="2.66535">
        <ele>180.6</ele>
        <time>2023-08-05T12:28:36Z</time>
      </trkpt>
      <trkpt lat="50.78646" lon="2.66538">
        <ele>180.8</ele>
        <time>2023-08-05T12:28:37Z</time>
      </trkpt>
      <trkpt lat="50.78647" lon="2.66541">
        <ele>180.8</ele>
        <time>2023-08-05T12:28:38Z</time>
      </trkpt>
      <trkpt lat="50.78647" lon="2.66544">
        <ele>181</ele>
        <time>2023-08-05T12:28:39Z</time>
      </trkpt>
      <trkpt lat="50.78647" lon="2.66546">
        <ele>181</ele>
        <time>2023-08-05T12:28:40Z</time>
      </trkpt>
      <trkpt lat="50.78647" lon="2.66548">
        <ele>181.2</ele>
        <time>2023-08-05T12:28:41Z</time>
      </trkpt>
      <trkpt lat="50.78647" lon="2.66551">
        <ele>181.2</ele>
        <time>2023-08-05T12:28:42Z</time>
      </trkpt>
      <trkpt lat="50.78647" lon="2.66554">
        <ele>181.4</ele>
        <time>2023-08-05T12:28:43Z</time>
      </trkpt>
      <trkpt lat="50.78647" lon="2.66556">
        <ele>181.6</ele>
        <time>2023-08-05T12:28:44Z</time>
      </trkpt>
      <trkpt lat="50.78647" lon="2.66558">
        <ele>181.8</ele>
        <time>2023-08-05T12:28:45Z</time>
      </trkpt>
      <trkpt lat="50.78646" lon="2.66561">
        <ele>182</ele>
        <time>2023-08-05T12:28:46Z</time>
      </trkpt>
      <trkpt lat="50.78646" lon="2.66564">
        <ele>182</ele>
        <time>2023-08-05T12:28:47Z</time>
      </trkpt>
      <trkpt lat="50.78646" lon="2.66567">
        <ele>182.2</ele>
        <time>2023-08-05T12:28:48Z</time>
      </trkpt>
      <trkpt lat="50.78646" lon="2.66569">
        <ele>182.2</ele>
        <time>2023-08-05T12:28:49Z</time>
      </trkpt>
      <trkpt lat="50.78646" lon="2.66571">
        <ele>182.2</ele>
        <time>2023-08-05T12:28:50Z</time>
      </trkpt>
      <trkpt lat="50.78646" lon="2.66574">
        <ele>182.4</ele>
        <time>2023-08-05T12:28:51Z</time>
      </trkpt>
      <trkpt lat="50.78645" lon="2.66578">
        <ele>182.6</ele>
        <time>2023-08-05T12:28:52Z</time>
      </trkpt>
      <trkpt lat="50.78645" lon="2.6658">
        <ele>182.6</ele>
        <time>2023-08-05T12:28:53Z</time>
      </trkpt>
      <trkpt lat="50.78644" lon="2.66583">
        <ele>182.8</ele>
        <time>2023-08-05T12:28:54Z</time>
      </trkpt>
      <trkpt lat="50.78644" lon="2.66585">
        <ele>183</ele>
        <time>2023-08-05T12:28:55Z</time>
      </trkpt>
      <trkpt lat="50.78644" lon="2.66587">
        <ele>183.2</ele>
        <time>2023-08-05T12:28:56Z</time>
      </trkpt>
      <trkpt lat="50.78643" lon="2.6659">
        <ele>183.2</ele>
        <time>2023-08-05T12:28:57Z</time>
      </trkpt>
      <trkpt lat="50.78642" lon="2.66592">
        <ele>183.4</ele>
        <time>2023-08-05T12:28:58Z</time>
      </trkpt>
      <trkpt lat="50.7864" lon="2.66594">
        <ele>183.6</ele>
        <time>2023-08-05T12:28:59Z</time>
      </trkpt>
      <trkpt lat="50.78639" lon="2.66595">
        <ele>183.8</ele>
        <time>2023-08-05T12:29:00Z</time>
      </trkpt>
      <trkpt lat="50.78638" lon="2.66597">
        <ele>183.8</ele>
        <time>2023-08-05T12:29:01Z</time>
      </trkpt>
      <trkpt lat="50.78636" lon="2.666">
        <ele>184</ele>
        <time>2023-08-05T12:29:02Z</time>
      </trkpt>
      <trkpt lat="50.78635" lon="2.66601">
        <ele>184</ele>
        <time>2023-08-05T12:29:03Z</time>
      </trkpt>
      <trkpt lat="50.78633" lon="2.66602">
        <ele>184.2</ele>
        <time>2023-08-05T12:29:04Z</time>
      </trkpt>
      <trkpt lat="50.78632" lon="2.66603">
        <ele>184.4</ele>
        <time>2023-08-05T12:29:05Z</time>
      </trkpt>
      <trkpt lat="50.78631" lon="2.66605">
        <ele>184.4</ele>
        <time>2023-08-05T12:29:06Z</time>
      </trkpt>
      <trkpt lat="50.78629" lon="2.66607">
        <ele>184.6</ele>
        <time>2023-08-05T12:29:07Z</time>
      </trkpt>
      <trkpt lat="50.78628" lon="2.66608">
        <ele>184.6</ele>
        <time>2023-08-05T12:29:08Z</time>
      </trkpt>
      <trkpt lat="50.78626" lon="2.6661">
        <ele>184.8</ele>
        <time>2023-08-05T12:29:09Z</time>
      </trkpt>
      <trkpt lat="50.78625" lon="2.66611">
        <ele>185</ele>
        <time>2023-08-05T12:29:10Z</time>
      </trkpt>
      <trkpt lat="50.78624" lon="2.66612">
        <ele>185.2</ele>
        <time>2023-08-05T12:29:11Z</time>
      </trkpt>
      <trkpt lat="50.78622" lon="2.66613">
        <ele>185.4</ele>
        <time>2023-08-05T12:29:12Z</time>
      </trkpt>
      <trkpt lat="50.78621" lon="2.66614">
        <ele>185.4</ele>
        <time>2023-08-05T12:29:13Z</time>
      </trkpt>
      <trkpt lat="50.7862" lon="2.66615">
        <ele>185.6</ele>
        <time>2023-08-05T12:29:14Z</time>
      </trkpt>
      <trkpt lat="50.78618" lon="2.66616">
        <ele>185.6</ele>
        <time>2023-08-05T12:29:15Z</time>
      </trkpt>
      <trkpt lat="50.78616" lon="2.66617">
        <ele>185.8</ele>
        <time>2023-08-05T12:29:16Z</time>
      </trkpt>
      <trkpt lat="50.78615" lon="2.66618">
        <ele>186</ele>
        <time>2023-08-05T12:29:17Z</time>
      </trkpt>
      <trkpt lat="50.78613" lon="2.66619">
        <ele>186</ele>
        <time>2023-08-05T12:29:18Z</time>
      </trkpt>
      <trkpt lat="50.78611" lon="2.66619">
        <ele>186.2</ele>
        <time>2023-08-05T12:29:19Z</time>
      </trkpt>
      <trkpt lat="50.7861" lon="2.6662">
        <ele>186.2</ele>
        <time>2023-08-05T12:29:20Z</time>
      </trkpt>
      <trkpt lat="50.78608" lon="2.66621">
        <ele>186.4</ele>
        <time>2023-08-05T12:29:21Z</time>
      </trkpt>
      <trkpt lat="50.78606" lon="2.66621">
        <ele>186.4</ele>
        <time>2023-08-05T12:29:22Z</time>
      </trkpt>
      <trkpt lat="50.78604" lon="2.66621">
        <ele>186.4</ele>
        <time>2023-08-05T12:29:23Z</time>
      </trkpt>
      <trkpt lat="50.78603" lon="2.66621">
        <ele>186.4</ele>
        <time>2023-08-05T12:29:24Z</time>
      </trkpt>
      <trkpt lat="50.78601" lon="2.66621">
        <ele>186.6</ele>
        <time>2023-08-05T12:29:25Z</time>
      </trkpt>
      <trkpt lat="50.78598" lon="2.66621">
        <ele>186.6</ele>
        <time>2023-08-05T12:29:26Z</time>
      </trkpt>
      <trkpt lat="50.78596" lon="2.66621">
        <ele>186.8</ele>
        <time>2023-08-05T12:29:27Z</time>
      </trkpt>
      <trkpt lat="50.78595" lon="2.6662">
        <ele>187</ele>
        <time>2023-08-05T12:29:28Z</time>
      </trkpt>
      <trkpt lat="50.78593" lon="2.66619">
        <ele>187.2</ele>
        <time>2023-08-05T12:29:29Z</time>
      </trkpt>
      <trkpt lat="50.78592" lon="2.66618">
        <ele>187.4</ele>
        <time>2023-08-05T12:29:30Z</time>
      </trkpt>
      <trkpt lat="50.7859" lon="2.66618">
        <ele>187.6</ele>
        <time>2023-08-05T12:29:31Z</time>
      </trkpt>
      <trkpt lat="50.78588" lon="2.66618">
        <ele>188</ele>
        <time>2023-08-05T12:29:32Z</time>
      </trkpt>
      <trkpt lat="50.78587" lon="2.66618">
        <ele>188.2</ele>
        <time>2023-08-05T12:29:33Z</time>
      </trkpt>
      <trkpt lat="50.78585" lon="2.66618">
        <ele>188.6</ele>
        <time>2023-08-05T12:29:34Z</time>
      </trkpt>
      <trkpt lat="50.78583" lon="2.66618">
        <ele>188.6</ele>
        <time>2023-08-05T12:29:35Z</time>
      </trkpt>
      <trkpt lat="50.78582" lon="2.66617">
        <ele>188.8</ele>
        <time>2023-08-05T12:29:36Z</time>
      </trkpt>
      <trkpt lat="50.7858" lon="2.66617">
        <ele>189</ele>
        <time>2023-08-05T12:29:37Z</time>
      </trkpt>
      <trkpt lat="50.78579" lon="2.66616">
        <ele>189</ele>
        <time>2023-08-05T12:29:38Z</time>
      </trkpt>
      <trkpt lat="50.78578" lon="2.66616">
        <ele>189</ele>
        <time>2023-08-05T12:29:39Z</time>
      </trkpt>
      <trkpt lat="50.78577" lon="2.66615">
        <ele>189.2</ele>
        <time>2023-08-05T12:29:40Z</time>
      </trkpt>
      <trkpt lat="50.78575" lon="2.66615">
        <ele>189.2</ele>
        <time>2023-08-05T12:29:41Z</time>
      </trkpt>
      <trkpt lat="50.78573" lon="2.66614">
        <ele>189.4</ele>
        <time>2023-08-05T12:29:42Z</time>
      </trkpt>
      <trkpt lat="50.78571" lon="2.66613">
        <ele>189.6</ele>
        <time>2023-08-05T12:29:43Z</time>
      </trkpt>
      <trkpt lat="50.78569" lon="2.66612">
        <ele>189.8</ele>
        <time>2023-08-05T12:29:44Z</time>
      </trkpt>
      <trkpt lat="50.78567" lon="2.66612">
        <ele>190</ele>
        <time>2023-08-05T12:29:45Z</time>
      </trkpt>
      <trkpt lat="50.78565" lon="2.66612">
        <ele>190.2</ele>
        <time>2023-08-05T12:29:46Z</time>
      </trkpt>
      <trkpt lat="50.78563" lon="2.66611">
        <ele>190.4</ele>
        <time>2023-08-05T12:29:47Z</time>
      </trkpt>
      <trkpt lat="50.78561" lon="2.6661">
        <ele>190.8</ele>
        <time>2023-08-05T12:29:48Z</time>
      </trkpt>
      <trkpt lat="50.78559" lon="2.66609">
        <ele>191</ele>
        <time>2023-08-05T12:29:49Z</time>
      </trkpt>
      <trkpt lat="50.78557" lon="2.66608">
        <ele>191.2</ele>
        <time>2023-08-05T12:29:50Z</time>
      </trkpt>
      <trkpt lat="50.78555" lon="2.66608">
        <ele>191.4</ele>
        <time>2023-08-05T12:29:51Z</time>
      </trkpt>
      <trkpt lat="50.78553" lon="2.66608">
        <ele>191.8</ele>
        <time>2023-08-05T12:29:52Z</time>
      </trkpt>
      <trkpt lat="50.78551" lon="2.66608">
        <ele>192</ele>
        <time>2023-08-05T12:29:53Z</time>
      </trkpt>
      <trkpt lat="50.78549" lon="2.66607">
        <ele>192.2</ele>
        <time>2023-08-05T12:29:54Z</time>
      </trkpt>
      <trkpt lat="50.78547" lon="2.66607">
        <ele>192.2</ele>
        <time>2023-08-05T12:29:55Z</time>
      </trkpt>
      <trkpt lat="50.78545" lon="2.66608">
        <ele>192.4</ele>
        <time>2023-08-05T12:29:56Z</time>
      </trkpt>
      <trkpt lat="50.78543" lon="2.66608">
        <ele>192.6</ele>
        <time>2023-08-05T12:29:57Z</time>
      </trkpt>
      <trkpt lat="50.7854" lon="2.66609">
        <ele>192.6</ele>
        <time>2023-08-05T12:29:58Z</time>
      </trkpt>
      <trkpt lat="50.78539" lon="2.66609">
        <ele>192.8</ele>
        <time>2023-08-05T12:29:59Z</time>
      </trkpt>
      <trkpt lat="50.78537" lon="2.66609">
        <ele>192.8</ele>
        <time>2023-08-05T12:30:00Z</time>
      </trkpt>
      <trkpt lat="50.78534" lon="2.66609">
        <ele>192.8</ele>
        <time>2023-08-05T12:30:01Z</time>
      </trkpt>
      <trkpt lat="50.78532" lon="2.66609">
        <ele>193</ele>
        <time>2023-08-05T12:30:02Z</time>
      </trkpt>
      <trkpt lat="50.7853" lon="2.66609">
        <ele>193</ele>
        <time>2023-08-05T12:30:03Z</time>
      </trkpt>
      <trkpt lat="50.78528" lon="2.66609">
        <ele>193.2</ele>
        <time>2023-08-05T12:30:04Z</time>
      </trkpt>
      <trkpt lat="50.78526" lon="2.66609">
        <ele>193.2</ele>
        <time>2023-08-05T12:30:05Z</time>
      </trkpt>
      <trkpt lat="50.78524" lon="2.6661">
        <ele>193.4</ele>
        <time>2023-08-05T12:30:06Z</time>
      </trkpt>
      <trkpt lat="50.78521" lon="2.6661">
        <ele>193.4</ele>
        <time>2023-08-05T12:30:07Z</time>
      </trkpt>
      <trkpt lat="50.78519" lon="2.6661">
        <ele>193.6</ele>
        <time>2023-08-05T12:30:08Z</time>
      </trkpt>
      <trkpt lat="50.78517" lon="2.66609">
        <ele>193.6</ele>
        <time>2023-08-05T12:30:09Z</time>
      </trkpt>
      <trkpt lat="50.78515" lon="2.66609">
        <ele>193.8</ele>
        <time>2023-08-05T12:30:10Z</time>
      </trkpt>
      <trkpt lat="50.78513" lon="2.6661">
        <ele>193.8</ele>
        <time>2023-08-05T12:30:11Z</time>
      </trkpt>
      <trkpt lat="50.7851" lon="2.6661">
        <ele>193.8</ele>
        <time>2023-08-05T12:30:12Z</time>
      </trkpt>
      <trkpt lat="50.78508" lon="2.66611">
        <ele>193.8</ele>
        <time>2023-08-05T12:30:13Z</time>
      </trkpt>
      <trkpt lat="50.78506" lon="2.66611">
        <ele>194</ele>
        <time>2023-08-05T12:30:14Z</time>
      </trkpt>
      <trkpt lat="50.78504" lon="2.66611">
        <ele>194.2</ele>
        <time>2023-08-05T12:30:15Z</time>
      </trkpt>
      <trkpt lat="50.78501" lon="2.66611">
        <ele>194.4</ele>
        <time>2023-08-05T12:30:16Z</time>
      </trkpt>
      <trkpt lat="50.78499" lon="2.66611">
        <ele>194.4</ele>
        <time>2023-08-05T12:30:17Z</time>
      </trkpt>
      <trkpt lat="50.78497" lon="2.66611">
        <ele>194.4</ele>
        <time>2023-08-05T12:30:18Z</time>
      </trkpt>
      <trkpt lat="50.78495" lon="2.66611">
        <ele>194.6</ele>
        <time>2023-08-05T12:30:19Z</time>
      </trkpt>
      <trkpt lat="50.78493" lon="2.66611">
        <ele>194.6</ele>
        <time>2023-08-05T12:30:20Z</time>
      </trkpt>
      <trkpt lat="50.78491" lon="2.66611">
        <ele>194.6</ele>
        <time>2023-08-05T12:30:21Z</time>
      </trkpt>
      <trkpt lat="50.78488" lon="2.66611">
        <ele>194.6</ele>
        <time>2023-08-05T12:30:22Z</time>
      </trkpt>
      <trkpt lat="50.78486" lon="2.66611">
        <ele>194.6</ele>
        <time>2023-08-05T12:30:23Z</time>
      </trkpt>
      <trkpt lat="50.78482" lon="2.66612">
        <ele>194.8</ele>
        <time>2023-08-05T12:30:25Z</time>
      </trkpt>
      <trkpt lat="50.78468" lon="2.66617">
        <ele>195.6</ele>
        <time>2023-08-05T12:30:31Z</time>
      </trkpt>
      <trkpt lat="50.78459" lon="2.66622">
        <ele>195.8</ele>
        <time>2023-08-05T12:30:35Z</time>
      </trkpt>
      <trkpt lat="50.78455" lon="2.66627">
        <ele>196</ele>
        <time>2023-08-05T12:30:37Z</time>
      </trkpt>
      <trkpt lat="50.78443" lon="2.66649">
        <ele>196.4</ele>
        <time>2023-08-05T12:30:45Z</time>
      </trkpt>
      <trkpt lat="50.78438" lon="2.66666">
        <ele>196.6</ele>
        <time>2023-08-05T12:30:50Z</time>
      </trkpt>
      <trkpt lat="50.78434" lon="2.66678">
        <ele>196.6</ele>
        <time>2023-08-05T12:30:53Z</time>
      </trkpt>
      <trkpt lat="50.78425" lon="2.66711">
        <ele>197.2</ele>
        <time>2023-08-05T12:31:01Z</time>
      </trkpt>
      <trkpt lat="50.78421" lon="2.66729">
        <ele>197.2</ele>
        <time>2023-08-05T12:31:05Z</time>
      </trkpt>
      <trkpt lat="50.7842" lon="2.66739">
        <ele>197.2</ele>
        <time>2023-08-05T12:31:07Z</time>
      </trkpt>
      <trkpt lat="50.78416" lon="2.66757">
        <ele>197.2</ele>
        <time>2023-08-05T12:31:11Z</time>
      </trkpt>
      <trkpt lat="50.78415" lon="2.66762">
        <ele>197.2</ele>
        <time>2023-08-05T12:31:12Z</time>
      </trkpt>
      <trkpt lat="50.78407" lon="2.66773">
        <ele>197.4</ele>
        <time>2023-08-05T12:31:15Z</time>
      </trkpt>
      <trkpt lat="50.78405" lon="2.66778">
        <ele>197.4</ele>
        <time>2023-08-05T12:31:16Z</time>
      </trkpt>
      <trkpt lat="50.78402" lon="2.66788">
        <ele>197.2</ele>
        <time>2023-08-05T12:31:18Z</time>
      </trkpt>
      <trkpt lat="50.78396" lon="2.66805">
        <ele>197.4</ele>
        <time>2023-08-05T12:31:21Z</time>
      </trkpt>
      <trkpt lat="50.7839" lon="2.66828">
        <ele>197.4</ele>
        <time>2023-08-05T12:31:25Z</time>
      </trkpt>
      <trkpt lat="50.78385" lon="2.66848">
        <ele>197.8</ele>
        <time>2023-08-05T12:31:29Z</time>
      </trkpt>
      <trkpt lat="50.78384" lon="2.66854">
        <ele>197.8</ele>
        <time>2023-08-05T12:31:30Z</time>
      </trkpt>
      <trkpt lat="50.78383" lon="2.6686">
        <ele>197.8</ele>
        <time>2023-08-05T12:31:31Z</time>
      </trkpt>
      <trkpt lat="50.78381" lon="2.66871">
        <ele>197.8</ele>
        <time>2023-08-05T12:31:33Z</time>
      </trkpt>
      <trkpt lat="50.78377" lon="2.66915">
        <ele>197.4</ele>
        <time>2023-08-05T12:31:39Z</time>
      </trkpt>
      <trkpt lat="50.78375" lon="2.66924">
        <ele>197.2</ele>
        <time>2023-08-05T12:31:40Z</time>
      </trkpt>
      <trkpt lat="50.78374" lon="2.66937">
        <ele>196.8</ele>
        <time>2023-08-05T12:31:42Z</time>
      </trkpt>
      <trkpt lat="50.78376" lon="2.6695">
        <ele>196.4</ele>
        <time>2023-08-05T12:31:44Z</time>
      </trkpt>
      <trkpt lat="50.78378" lon="2.66955">
        <ele>196.2</ele>
        <time>2023-08-05T12:31:45Z</time>
      </trkpt>
      <trkpt lat="50.7838" lon="2.66958">
        <ele>196</ele>
        <time>2023-08-05T12:31:46Z</time>
      </trkpt>
      <trkpt lat="50.78382" lon="2.66961">
        <ele>195.8</ele>
        <time>2023-08-05T12:31:47Z</time>
      </trkpt>
      <trkpt lat="50.78384" lon="2.66963">
        <ele>195.8</ele>
        <time>2023-08-05T12:31:48Z</time>
      </trkpt>
      <trkpt lat="50.78385" lon="2.66964">
        <ele>195.6</ele>
        <time>2023-08-05T12:31:49Z</time>
      </trkpt>
      <trkpt lat="50.78386" lon="2.66965">
        <ele>195.6</ele>
        <time>2023-08-05T12:31:50Z</time>
      </trkpt>
      <trkpt lat="50.78387" lon="2.66966">
        <ele>195.4</ele>
        <time>2023-08-05T12:31:51Z</time>
      </trkpt>
      <trkpt lat="50.78388" lon="2.66968">
        <ele>195.4</ele>
        <time>2023-08-05T12:31:52Z</time>
      </trkpt>
      <trkpt lat="50.78392" lon="2.66976">
        <ele>195.4</ele>
        <time>2023-08-05T12:31:55Z</time>
      </trkpt>
      <trkpt lat="50.78393" lon="2.66979">
        <ele>195.2</ele>
        <time>2023-08-05T12:31:56Z</time>
      </trkpt>
      <trkpt lat="50.78393" lon="2.66982">
        <ele>195.2</ele>
        <time>2023-08-05T12:31:57Z</time>
      </trkpt>
      <trkpt lat="50.78394" lon="2.66986">
        <ele>195.2</ele>
        <time>2023-08-05T12:31:58Z</time>
      </trkpt>
      <trkpt lat="50.78394" lon="2.66991">
        <ele>195</ele>
        <time>2023-08-05T12:31:59Z</time>
      </trkpt>
      <trkpt lat="50.78393" lon="2.66996">
        <ele>195</ele>
        <time>2023-08-05T12:32:00Z</time>
      </trkpt>
      <trkpt lat="50.78392" lon="2.67002">
        <ele>195</ele>
        <time>2023-08-05T12:32:01Z</time>
      </trkpt>
      <trkpt lat="50.78391" lon="2.67007">
        <ele>194.8</ele>
        <time>2023-08-05T12:32:02Z</time>
      </trkpt>
      <trkpt lat="50.78389" lon="2.67026">
        <ele>193.4</ele>
        <time>2023-08-05T12:32:05Z</time>
      </trkpt>
      <trkpt lat="50.78387" lon="2.67033">
        <ele>192.8</ele>
        <time>2023-08-05T12:32:06Z</time>
      </trkpt>
      <trkpt lat="50.78386" lon="2.67037">
        <ele>192.4</ele>
        <time>2023-08-05T12:32:07Z</time>
      </trkpt>
      <trkpt lat="50.78384" lon="2.67041">
        <ele>192</ele>
        <time>2023-08-05T12:32:08Z</time>
      </trkpt>
      <trkpt lat="50.78382" lon="2.67043">
        <ele>192</ele>
        <time>2023-08-05T12:32:09Z</time>
      </trkpt>
      <trkpt lat="50.7838" lon="2.67043">
        <ele>191.6</ele>
        <time>2023-08-05T12:32:10Z</time>
      </trkpt>
      <trkpt lat="50.7838" lon="2.67043">
        <ele>191.6</ele>
        <time>2023-08-05T12:32:11Z</time>
      </trkpt>
      <trkpt lat="50.78379" lon="2.67042">
        <ele>191</ele>
        <time>2023-08-05T12:32:12Z</time>
      </trkpt>
      <trkpt lat="50.78376" lon="2.6704">
        <ele>191</ele>
        <time>2023-08-05T12:32:13Z</time>
      </trkpt>
      <trkpt lat="50.78371" lon="2.67041">
        <ele>190.6</ele>
        <time>2023-08-05T12:32:15Z</time>
      </trkpt>
      <trkpt lat="50.78368" lon="2.67043">
        <ele>190.6</ele>
        <time>2023-08-05T12:32:16Z</time>
      </trkpt>
      <trkpt lat="50.78366" lon="2.67048">
        <ele>190.6</ele>
        <time>2023-08-05T12:32:17Z</time>
      </trkpt>
      <trkpt lat="50.78365" lon="2.67051">
        <ele>190.6</ele>
        <time>2023-08-05T12:32:18Z</time>
      </trkpt>
      <trkpt lat="50.78361" lon="2.67056">
        <ele>190.8</ele>
        <time>2023-08-05T12:32:19Z</time>
      </trkpt>
      <trkpt lat="50.78359" lon="2.67059">
        <ele>190.8</ele>
        <time>2023-08-05T12:32:20Z</time>
      </trkpt>
      <trkpt lat="50.78356" lon="2.67065">
        <ele>191</ele>
        <time>2023-08-05T12:32:21Z</time>
      </trkpt>
      <trkpt lat="50.78345" lon="2.67078">
        <ele>191.4</ele>
        <time>2023-08-05T12:32:26Z</time>
      </trkpt>
      <trkpt lat="50.78342" lon="2.67079">
        <ele>191.4</ele>
        <time>2023-08-05T12:32:27Z</time>
      </trkpt>
      <trkpt lat="50.7834" lon="2.67081">
        <ele>191.4</ele>
        <time>2023-08-05T12:32:28Z</time>
      </trkpt>
      <trkpt lat="50.7834" lon="2.67082">
        <ele>191.4</ele>
        <time>2023-08-05T12:32:29Z</time>
      </trkpt>
      <trkpt lat="50.78339" lon="2.67082">
        <ele>191.4</ele>
        <time>2023-08-05T12:32:30Z</time>
      </trkpt>
      <trkpt lat="50.78339" lon="2.67083">
        <ele>191.4</ele>
        <time>2023-08-05T12:32:31Z</time>
      </trkpt>
      <trkpt lat="50.78338" lon="2.67084">
        <ele>191.4</ele>
        <time>2023-08-05T12:32:32Z</time>
      </trkpt>
      <trkpt lat="50.78337" lon="2.67086">
        <ele>191.4</ele>
        <time>2023-08-05T12:32:33Z</time>
      </trkpt>
      <trkpt lat="50.78337" lon="2.67087">
        <ele>191.4</ele>
        <time>2023-08-05T12:32:34Z</time>
      </trkpt>
      <trkpt lat="50.78336" lon="2.67088">
        <ele>191.4</ele>
        <time>2023-08-05T12:32:36Z</time>
      </trkpt>
      <trkpt lat="50.78331" lon="2.67095">
        <ele>190.4</ele>
        <time>2023-08-05T12:32:52Z</time>
      </trkpt>
      <trkpt lat="50.78327" lon="2.67097">
        <ele>190.2</ele>
        <time>2023-08-05T12:32:53Z</time>
      </trkpt>
      <trkpt lat="50.78309" lon="2.67098">
        <ele>189.4</ele>
        <time>2023-08-05T12:32:58Z</time>
      </trkpt>
      <trkpt lat="50.78309" lon="2.67098">
        <ele>189.4</ele>
        <time>2023-08-05T12:32:59Z</time>
      </trkpt>
      <trkpt lat="50.78304" lon="2.67096">
        <ele>189.2</ele>
        <time>2023-08-05T12:33:00Z</time>
      </trkpt>
      <trkpt lat="50.78301" lon="2.67095">
        <ele>189</ele>
        <time>2023-08-05T12:33:01Z</time>
      </trkpt>
      <trkpt lat="50.78299" lon="2.67095">
        <ele>189</ele>
        <time>2023-08-05T12:33:02Z</time>
      </trkpt>
      <trkpt lat="50.78298" lon="2.67095">
        <ele>189</ele>
        <time>2023-08-05T12:33:03Z</time>
      </trkpt>
      <trkpt lat="50.78297" lon="2.67096">
        <ele>189</ele>
        <time>2023-08-05T12:33:04Z</time>
      </trkpt>
      <trkpt lat="50.78297" lon="2.67096">
        <ele>189.2</ele>
        <time>2023-08-05T12:33:05Z</time>
      </trkpt>
      <trkpt lat="50.78297" lon="2.67096">
        <ele>189.2</ele>
        <time>2023-08-05T12:33:06Z</time>
      </trkpt>
      <trkpt lat="50.78295" lon="2.67103">
        <ele>188.6</ele>
        <time>2023-08-05T12:40:46Z</time>
      </trkpt>
      <trkpt lat="50.78293" lon="2.67103">
        <ele>188.8</ele>
        <time>2023-08-05T12:40:47Z</time>
      </trkpt>
      <trkpt lat="50.7829" lon="2.67106">
        <ele>189</ele>
        <time>2023-08-05T12:40:49Z</time>
      </trkpt>
      <trkpt lat="50.78288" lon="2.67108">
        <ele>188.8</ele>
        <time>2023-08-05T12:40:50Z</time>
      </trkpt>
      <trkpt lat="50.78288" lon="2.6711">
        <ele>189</ele>
        <time>2023-08-05T12:40:51Z</time>
      </trkpt>
      <trkpt lat="50.78288" lon="2.67112">
        <ele>189.2</ele>
        <time>2023-08-05T12:40:52Z</time>
      </trkpt>
      <trkpt lat="50.78295" lon="2.6712">
        <ele>189.2</ele>
        <time>2023-08-05T12:40:56Z</time>
      </trkpt>
      <trkpt lat="50.78297" lon="2.67122">
        <ele>189.2</ele>
        <time>2023-08-05T12:40:57Z</time>
      </trkpt>
      <trkpt lat="50.78299" lon="2.67123">
        <ele>189</ele>
        <time>2023-08-05T12:40:58Z</time>
      </trkpt>
      <trkpt lat="50.78313" lon="2.67133">
        <ele>187.6</ele>
        <time>2023-08-05T12:41:04Z</time>
      </trkpt>
      <trkpt lat="50.78317" lon="2.67135">
        <ele>187.2</ele>
        <time>2023-08-05T12:41:06Z</time>
      </trkpt>
      <trkpt lat="50.78323" lon="2.67137">
        <ele>186.4</ele>
        <time>2023-08-05T12:41:09Z</time>
      </trkpt>
      <trkpt lat="50.78324" lon="2.67138">
        <ele>186.2</ele>
        <time>2023-08-05T12:41:10Z</time>
      </trkpt>
      <trkpt lat="50.78325" lon="2.67139">
        <ele>185.8</ele>
        <time>2023-08-05T12:41:11Z</time>
      </trkpt>
      <trkpt lat="50.78326" lon="2.67141">
        <ele>185.6</ele>
        <time>2023-08-05T12:41:12Z</time>
      </trkpt>
      <trkpt lat="50.78326" lon="2.67141">
        <ele>185.2</ele>
        <time>2023-08-05T12:41:13Z</time>
      </trkpt>
      <trkpt lat="50.78327" lon="2.67141">
        <ele>185</ele>
        <time>2023-08-05T12:41:14Z</time>
      </trkpt>
      <trkpt lat="50.78328" lon="2.67142">
        <ele>184.8</ele>
        <time>2023-08-05T12:41:15Z</time>
      </trkpt>
      <trkpt lat="50.7833" lon="2.67143">
        <ele>184.6</ele>
        <time>2023-08-05T12:41:16Z</time>
      </trkpt>
      <trkpt lat="50.78332" lon="2.67144">
        <ele>184.6</ele>
        <time>2023-08-05T12:41:17Z</time>
      </trkpt>
      <trkpt lat="50.78334" lon="2.67146">
        <ele>184.2</ele>
        <time>2023-08-05T12:41:18Z</time>
      </trkpt>
      <trkpt lat="50.78337" lon="2.67148">
        <ele>184.2</ele>
        <time>2023-08-05T12:41:19Z</time>
      </trkpt>
      <trkpt lat="50.78344" lon="2.67157">
        <ele>183.2</ele>
        <time>2023-08-05T12:41:22Z</time>
      </trkpt>
      <trkpt lat="50.78346" lon="2.67161">
        <ele>182</ele>
        <time>2023-08-05T12:41:23Z</time>
      </trkpt>
      <trkpt lat="50.78348" lon="2.67165">
        <ele>181.6</ele>
        <time>2023-08-05T12:41:24Z</time>
      </trkpt>
      <trkpt lat="50.78353" lon="2.6717">
        <ele>181.2</ele>
        <time>2023-08-05T12:41:25Z</time>
      </trkpt>
      <trkpt lat="50.78356" lon="2.67175">
        <ele>181</ele>
        <time>2023-08-05T12:41:26Z</time>
      </trkpt>
      <trkpt lat="50.78365" lon="2.67186">
        <ele>179.4</ele>
        <time>2023-08-05T12:41:29Z</time>
      </trkpt>
      <trkpt lat="50.78367" lon="2.67189">
        <ele>179</ele>
        <time>2023-08-05T12:41:30Z</time>
      </trkpt>
      <trkpt lat="50.78369" lon="2.67191">
        <ele>178.4</ele>
        <time>2023-08-05T12:41:31Z</time>
      </trkpt>
      <trkpt lat="50.78371" lon="2.67193">
        <ele>178.2</ele>
        <time>2023-08-05T12:41:32Z</time>
      </trkpt>
      <trkpt lat="50.78373" lon="2.67194">
        <ele>177.6</ele>
        <time>2023-08-05T12:41:33Z</time>
      </trkpt>
      <trkpt lat="50.78373" lon="2.67194">
        <ele>177</ele>
        <time>2023-08-05T12:41:34Z</time>
      </trkpt>
      <trkpt lat="50.78373" lon="2.67194">
        <ele>176.8</ele>
        <time>2023-08-05T12:41:35Z</time>
      </trkpt>
      <trkpt lat="50.78374" lon="2.67197">
        <ele>176.4</ele>
        <time>2023-08-05T12:41:36Z</time>
      </trkpt>
      <trkpt lat="50.78376" lon="2.67199">
        <ele>176.4</ele>
        <time>2023-08-05T12:41:37Z</time>
      </trkpt>
      <trkpt lat="50.7838" lon="2.672">
        <ele>176</ele>
        <time>2023-08-05T12:41:39Z</time>
      </trkpt>
      <trkpt lat="50.78384" lon="2.67198">
        <ele>175.6</ele>
        <time>2023-08-05T12:41:42Z</time>
      </trkpt>
      <trkpt lat="50.78386" lon="2.67199">
        <ele>175.4</ele>
        <time>2023-08-05T12:41:43Z</time>
      </trkpt>
      <trkpt lat="50.78389" lon="2.672">
        <ele>175.4</ele>
        <time>2023-08-05T12:41:44Z</time>
      </trkpt>
      <trkpt lat="50.78391" lon="2.672">
        <ele>175.2</ele>
        <time>2023-08-05T12:41:45Z</time>
      </trkpt>
      <trkpt lat="50.78393" lon="2.67202">
        <ele>174.8</ele>
        <time>2023-08-05T12:41:46Z</time>
      </trkpt>
      <trkpt lat="50.78395" lon="2.67204">
        <ele>174.4</ele>
        <time>2023-08-05T12:41:47Z</time>
      </trkpt>
      <trkpt lat="50.78398" lon="2.67205">
        <ele>174</ele>
        <time>2023-08-05T12:41:49Z</time>
      </trkpt>
      <trkpt lat="50.78399" lon="2.67205">
        <ele>173.8</ele>
        <time>2023-08-05T12:41:50Z</time>
      </trkpt>
      <trkpt lat="50.78401" lon="2.67205">
        <ele>173.6</ele>
        <time>2023-08-05T12:41:51Z</time>
      </trkpt>
      <trkpt lat="50.78402" lon="2.67205">
        <ele>173.6</ele>
        <time>2023-08-05T12:41:52Z</time>
      </trkpt>
      <trkpt lat="50.78403" lon="2.67205">
        <ele>173.6</ele>
        <time>2023-08-05T12:41:53Z</time>
      </trkpt>
      <trkpt lat="50.78405" lon="2.67206">
        <ele>173.2</ele>
        <time>2023-08-05T12:41:54Z</time>
      </trkpt>
      <trkpt lat="50.78405" lon="2.67206">
        <ele>173.2</ele>
        <time>2023-08-05T12:41:55Z</time>
      </trkpt>
      <trkpt lat="50.78407" lon="2.67207">
        <ele>173</ele>
        <time>2023-08-05T12:41:56Z</time>
      </trkpt>
      <trkpt lat="50.78408" lon="2.67208">
        <ele>173</ele>
        <time>2023-08-05T12:41:57Z</time>
      </trkpt>
      <trkpt lat="50.7841" lon="2.67208">
        <ele>173</ele>
        <time>2023-08-05T12:41:58Z</time>
      </trkpt>
      <trkpt lat="50.78413" lon="2.67207">
        <ele>172.6</ele>
        <time>2023-08-05T12:41:59Z</time>
      </trkpt>
      <trkpt lat="50.78415" lon="2.67206">
        <ele>172.6</ele>
        <time>2023-08-05T12:42:00Z</time>
      </trkpt>
      <trkpt lat="50.78416" lon="2.67204">
        <ele>172.4</ele>
        <time>2023-08-05T12:42:01Z</time>
      </trkpt>
      <trkpt lat="50.78419" lon="2.67202">
        <ele>172.4</ele>
        <time>2023-08-05T12:42:02Z</time>
      </trkpt>
      <trkpt lat="50.7842" lon="2.67201">
        <ele>172.4</ele>
        <time>2023-08-05T12:42:03Z</time>
      </trkpt>
      <trkpt lat="50.78423" lon="2.67199">
        <ele>172.2</ele>
        <time>2023-08-05T12:42:04Z</time>
      </trkpt>
      <trkpt lat="50.78434" lon="2.6719">
        <ele>171.8</ele>
        <time>2023-08-05T12:42:07Z</time>
      </trkpt>
      <trkpt lat="50.78437" lon="2.67186">
        <ele>171.6</ele>
        <time>2023-08-05T12:42:08Z</time>
      </trkpt>
      <trkpt lat="50.78446" lon="2.67173">
        <ele>171</ele>
        <time>2023-08-05T12:42:12Z</time>
      </trkpt>
      <trkpt lat="50.78447" lon="2.6717">
        <ele>170.8</ele>
        <time>2023-08-05T12:42:13Z</time>
      </trkpt>
      <trkpt lat="50.78449" lon="2.67167">
        <ele>170.8</ele>
        <time>2023-08-05T12:42:14Z</time>
      </trkpt>
      <trkpt lat="50.78451" lon="2.67165">
        <ele>170.6</ele>
        <time>2023-08-05T12:42:15Z</time>
      </trkpt>
      <trkpt lat="50.78453" lon="2.67163">
        <ele>170.4</ele>
        <time>2023-08-05T12:42:16Z</time>
      </trkpt>
      <trkpt lat="50.78454" lon="2.67162">
        <ele>170.2</ele>
        <time>2023-08-05T12:42:17Z</time>
      </trkpt>
      <trkpt lat="50.78454" lon="2.67162">
        <ele>170.2</ele>
        <time>2023-08-05T12:42:18Z</time>
      </trkpt>
      <trkpt lat="50.78455" lon="2.67161">
        <ele>170</ele>
        <time>2023-08-05T12:42:19Z</time>
      </trkpt>
      <trkpt lat="50.78457" lon="2.67159">
        <ele>170</ele>
        <time>2023-08-05T12:42:20Z</time>
      </trkpt>
      <trkpt lat="50.78462" lon="2.67154">
        <ele>169.4</ele>
        <time>2023-08-05T12:42:22Z</time>
      </trkpt>
      <trkpt lat="50.78463" lon="2.67152">
        <ele>169.2</ele>
        <time>2023-08-05T12:42:23Z</time>
      </trkpt>
      <trkpt lat="50.78464" lon="2.6715">
        <ele>168.8</ele>
        <time>2023-08-05T12:42:24Z</time>
      </trkpt>
      <trkpt lat="50.78466" lon="2.6715">
        <ele>168.6</ele>
        <time>2023-08-05T12:42:25Z</time>
      </trkpt>
      <trkpt lat="50.78467" lon="2.6715">
        <ele>168.4</ele>
        <time>2023-08-05T12:42:26Z</time>
      </trkpt>
      <trkpt lat="50.78467" lon="2.6715">
        <ele>168.2</ele>
        <time>2023-08-05T12:42:27Z</time>
      </trkpt>
      <trkpt lat="50.78468" lon="2.67151">
        <ele>168.2</ele>
        <time>2023-08-05T12:42:28Z</time>
      </trkpt>
      <trkpt lat="50.7847" lon="2.67153">
        <ele>168</ele>
        <time>2023-08-05T12:42:29Z</time>
      </trkpt>
      <trkpt lat="50.78478" lon="2.67167">
        <ele>166.6</ele>
        <time>2023-08-05T12:42:33Z</time>
      </trkpt>
      <trkpt lat="50.7848" lon="2.67174">
        <ele>166.2</ele>
        <time>2023-08-05T12:42:35Z</time>
      </trkpt>
      <trkpt lat="50.78481" lon="2.67178">
        <ele>165.8</ele>
        <time>2023-08-05T12:42:36Z</time>
      </trkpt>
      <trkpt lat="50.78482" lon="2.67185">
        <ele>165.2</ele>
        <time>2023-08-05T12:42:38Z</time>
      </trkpt>
      <trkpt lat="50.78485" lon="2.67199">
        <ele>164</ele>
        <time>2023-08-05T12:42:42Z</time>
      </trkpt>
      <trkpt lat="50.78486" lon="2.67208">
        <ele>162.8</ele>
        <time>2023-08-05T12:42:45Z</time>
      </trkpt>
      <trkpt lat="50.78486" lon="2.67211">
        <ele>162.4</ele>
        <time>2023-08-05T12:42:46Z</time>
      </trkpt>
      <trkpt lat="50.78487" lon="2.67215">
        <ele>161.6</ele>
        <time>2023-08-05T12:42:47Z</time>
      </trkpt>
      <trkpt lat="50.78487" lon="2.67219">
        <ele>161.2</ele>
        <time>2023-08-05T12:42:48Z</time>
      </trkpt>
      <trkpt lat="50.78486" lon="2.67223">
        <ele>160.8</ele>
        <time>2023-08-05T12:42:49Z</time>
      </trkpt>
      <trkpt lat="50.78486" lon="2.67228">
        <ele>160.6</ele>
        <time>2023-08-05T12:42:50Z</time>
      </trkpt>
      <trkpt lat="50.78487" lon="2.67231">
        <ele>160.2</ele>
        <time>2023-08-05T12:42:51Z</time>
      </trkpt>
      <trkpt lat="50.78487" lon="2.67235">
        <ele>160</ele>
        <time>2023-08-05T12:42:52Z</time>
      </trkpt>
      <trkpt lat="50.78487" lon="2.67243">
        <ele>159.8</ele>
        <time>2023-08-05T12:42:53Z</time>
      </trkpt>
      <trkpt lat="50.78487" lon="2.67245">
        <ele>159.4</ele>
        <time>2023-08-05T12:42:54Z</time>
      </trkpt>
      <trkpt lat="50.78488" lon="2.67249">
        <ele>159.2</ele>
        <time>2023-08-05T12:42:55Z</time>
      </trkpt>
      <trkpt lat="50.7849" lon="2.67253">
        <ele>158.6</ele>
        <time>2023-08-05T12:42:56Z</time>
      </trkpt>
      <trkpt lat="50.78492" lon="2.6726">
        <ele>157.8</ele>
        <time>2023-08-05T12:42:58Z</time>
      </trkpt>
      <trkpt lat="50.78493" lon="2.67261">
        <ele>157.4</ele>
        <time>2023-08-05T12:42:59Z</time>
      </trkpt>
      <trkpt lat="50.78494" lon="2.67262">
        <ele>157.2</ele>
        <time>2023-08-05T12:43:00Z</time>
      </trkpt>
      <trkpt lat="50.78497" lon="2.67263">
        <ele>157</ele>
        <time>2023-08-05T12:43:02Z</time>
      </trkpt>
      <trkpt lat="50.78499" lon="2.67264">
        <ele>156.6</ele>
        <time>2023-08-05T12:43:03Z</time>
      </trkpt>
      <trkpt lat="50.785" lon="2.67265">
        <ele>156.4</ele>
        <time>2023-08-05T12:43:04Z</time>
      </trkpt>
      <trkpt lat="50.78502" lon="2.67266">
        <ele>156</ele>
        <time>2023-08-05T12:43:05Z</time>
      </trkpt>
      <trkpt lat="50.78504" lon="2.67268">
        <ele>156</ele>
        <time>2023-08-05T12:43:06Z</time>
      </trkpt>
      <trkpt lat="50.78507" lon="2.6727">
        <ele>155.2</ele>
        <time>2023-08-05T12:43:07Z</time>
      </trkpt>
      <trkpt lat="50.78509" lon="2.6727">
        <ele>154.6</ele>
        <time>2023-08-05T12:43:08Z</time>
      </trkpt>
      <trkpt lat="50.78511" lon="2.6727">
        <ele>154.4</ele>
        <time>2023-08-05T12:43:09Z</time>
      </trkpt>
      <trkpt lat="50.78513" lon="2.6727">
        <ele>153.8</ele>
        <time>2023-08-05T12:43:10Z</time>
      </trkpt>
      <trkpt lat="50.78516" lon="2.67271">
        <ele>153.6</ele>
        <time>2023-08-05T12:43:11Z</time>
      </trkpt>
      <trkpt lat="50.78524" lon="2.67275">
        <ele>152.6</ele>
        <time>2023-08-05T12:43:14Z</time>
      </trkpt>
      <trkpt lat="50.78535" lon="2.67277">
        <ele>151.6</ele>
        <time>2023-08-05T12:43:17Z</time>
      </trkpt>
      <trkpt lat="50.78538" lon="2.67279">
        <ele>151.4</ele>
        <time>2023-08-05T12:43:18Z</time>
      </trkpt>
      <trkpt lat="50.78551" lon="2.67289">
        <ele>150.6</ele>
        <time>2023-08-05T12:43:22Z</time>
      </trkpt>
      <trkpt lat="50.78555" lon="2.67292">
        <ele>149.6</ele>
        <time>2023-08-05T12:43:23Z</time>
      </trkpt>
      <trkpt lat="50.78557" lon="2.67293">
        <ele>149</ele>
        <time>2023-08-05T12:43:24Z</time>
      </trkpt>
      <trkpt lat="50.7856" lon="2.67295">
        <ele>148.8</ele>
        <time>2023-08-05T12:43:25Z</time>
      </trkpt>
      <trkpt lat="50.78562" lon="2.67298">
        <ele>148.6</ele>
        <time>2023-08-05T12:43:26Z</time>
      </trkpt>
      <trkpt lat="50.78569" lon="2.67304">
        <ele>147.8</ele>
        <time>2023-08-05T12:43:29Z</time>
      </trkpt>
      <trkpt lat="50.78572" lon="2.67308">
        <ele>147.4</ele>
        <time>2023-08-05T12:43:30Z</time>
      </trkpt>
      <trkpt lat="50.78583" lon="2.67309">
        <ele>146.4</ele>
        <time>2023-08-05T12:43:34Z</time>
      </trkpt>
      <trkpt lat="50.78585" lon="2.67311">
        <ele>146</ele>
        <time>2023-08-05T12:43:35Z</time>
      </trkpt>
      <trkpt lat="50.78589" lon="2.67313">
        <ele>145.8</ele>
        <time>2023-08-05T12:43:36Z</time>
      </trkpt>
      <trkpt lat="50.78595" lon="2.67317">
        <ele>145.2</ele>
        <time>2023-08-05T12:43:38Z</time>
      </trkpt>
      <trkpt lat="50.78602" lon="2.67319">
        <ele>144.4</ele>
        <time>2023-08-05T12:43:41Z</time>
      </trkpt>
      <trkpt lat="50.78605" lon="2.67323">
        <ele>144.2</ele>
        <time>2023-08-05T12:43:42Z</time>
      </trkpt>
      <trkpt lat="50.78607" lon="2.67324">
        <ele>144</ele>
        <time>2023-08-05T12:43:43Z</time>
      </trkpt>
      <trkpt lat="50.78608" lon="2.67326">
        <ele>143.6</ele>
        <time>2023-08-05T12:43:44Z</time>
      </trkpt>
      <trkpt lat="50.78609" lon="2.67328">
        <ele>143.4</ele>
        <time>2023-08-05T12:43:45Z</time>
      </trkpt>
      <trkpt lat="50.78611" lon="2.6733">
        <ele>143.2</ele>
        <time>2023-08-05T12:43:46Z</time>
      </trkpt>
      <trkpt lat="50.78613" lon="2.67332">
        <ele>143</ele>
        <time>2023-08-05T12:43:47Z</time>
      </trkpt>
      <trkpt lat="50.78614" lon="2.67335">
        <ele>143</ele>
        <time>2023-08-05T12:43:48Z</time>
      </trkpt>
      <trkpt lat="50.78615" lon="2.67337">
        <ele>142.8</ele>
        <time>2023-08-05T12:43:49Z</time>
      </trkpt>
      <trkpt lat="50.78616" lon="2.67345">
        <ele>142.8</ele>
        <time>2023-08-05T12:43:51Z</time>
      </trkpt>
      <trkpt lat="50.78616" lon="2.6735">
        <ele>142.6</ele>
        <time>2023-08-05T12:43:52Z</time>
      </trkpt>
      <trkpt lat="50.78615" lon="2.67355">
        <ele>142.2</ele>
        <time>2023-08-05T12:43:53Z</time>
      </trkpt>
      <trkpt lat="50.78615" lon="2.6736">
        <ele>142</ele>
        <time>2023-08-05T12:43:54Z</time>
      </trkpt>
      <trkpt lat="50.78615" lon="2.67365">
        <ele>141.8</ele>
        <time>2023-08-05T12:43:55Z</time>
      </trkpt>
      <trkpt lat="50.78613" lon="2.67387">
        <ele>141.2</ele>
        <time>2023-08-05T12:43:58Z</time>
      </trkpt>
      <trkpt lat="50.78611" lon="2.67409">
        <ele>140.8</ele>
        <time>2023-08-05T12:44:01Z</time>
      </trkpt>
      <trkpt lat="50.78606" lon="2.67434">
        <ele>140.2</ele>
        <time>2023-08-05T12:44:04Z</time>
      </trkpt>
      <trkpt lat="50.78603" lon="2.6745">
        <ele>139.8</ele>
        <time>2023-08-05T12:44:06Z</time>
      </trkpt>
      <trkpt lat="50.78601" lon="2.6746">
        <ele>139.4</ele>
        <time>2023-08-05T12:44:07Z</time>
      </trkpt>
      <trkpt lat="50.78596" lon="2.67483">
        <ele>138.8</ele>
        <time>2023-08-05T12:44:10Z</time>
      </trkpt>
      <trkpt lat="50.78593" lon="2.6749">
        <ele>138.6</ele>
        <time>2023-08-05T12:44:11Z</time>
      </trkpt>
      <trkpt lat="50.78576" lon="2.67535">
        <ele>137.8</ele>
        <time>2023-08-05T12:44:17Z</time>
      </trkpt>
      <trkpt lat="50.78568" lon="2.67556">
        <ele>137.4</ele>
        <time>2023-08-05T12:44:20Z</time>
      </trkpt>
      <trkpt lat="50.78559" lon="2.67591">
        <ele>137</ele>
        <time>2023-08-05T12:44:24Z</time>
      </trkpt>
      <trkpt lat="50.78558" lon="2.67616">
        <ele>136.6</ele>
        <time>2023-08-05T12:44:27Z</time>
      </trkpt>
      <trkpt lat="50.78558" lon="2.67624">
        <ele>136.4</ele>
        <time>2023-08-05T12:44:28Z</time>
      </trkpt>
      <trkpt lat="50.78557" lon="2.67632">
        <ele>136.4</ele>
        <time>2023-08-05T12:44:29Z</time>
      </trkpt>
      <trkpt lat="50.78557" lon="2.67638">
        <ele>136.2</ele>
        <time>2023-08-05T12:44:30Z</time>
      </trkpt>
      <trkpt lat="50.78556" lon="2.67646">
        <ele>136.2</ele>
        <time>2023-08-05T12:44:31Z</time>
      </trkpt>
      <trkpt lat="50.78556" lon="2.67655">
        <ele>136</ele>
        <time>2023-08-05T12:44:32Z</time>
      </trkpt>
      <trkpt lat="50.78556" lon="2.67663">
        <ele>135.8</ele>
        <time>2023-08-05T12:44:33Z</time>
      </trkpt>
      <trkpt lat="50.78555" lon="2.6767">
        <ele>135.8</ele>
        <time>2023-08-05T12:44:34Z</time>
      </trkpt>
      <trkpt lat="50.78555" lon="2.67676">
        <ele>135.6</ele>
        <time>2023-08-05T12:44:35Z</time>
      </trkpt>
      <trkpt lat="50.78554" lon="2.67683">
        <ele>135.6</ele>
        <time>2023-08-05T12:44:36Z</time>
      </trkpt>
      <trkpt lat="50.78553" lon="2.67692">
        <ele>135.4</ele>
        <time>2023-08-05T12:44:37Z</time>
      </trkpt>
      <trkpt lat="50.78552" lon="2.67698">
        <ele>135.6</ele>
        <time>2023-08-05T12:44:38Z</time>
      </trkpt>
      <trkpt lat="50.78551" lon="2.67705">
        <ele>135.4</ele>
        <time>2023-08-05T12:44:39Z</time>
      </trkpt>
      <trkpt lat="50.7855" lon="2.67711">
        <ele>135.4</ele>
        <time>2023-08-05T12:44:40Z</time>
      </trkpt>
      <trkpt lat="50.78549" lon="2.67717">
        <ele>135.4</ele>
        <time>2023-08-05T12:44:41Z</time>
      </trkpt>
      <trkpt lat="50.78548" lon="2.67725">
        <ele>135.2</ele>
        <time>2023-08-05T12:44:42Z</time>
      </trkpt>
      <trkpt lat="50.78546" lon="2.67732">
        <ele>135</ele>
        <time>2023-08-05T12:44:43Z</time>
      </trkpt>
      <trkpt lat="50.78545" lon="2.67738">
        <ele>134.8</ele>
        <time>2023-08-05T12:44:44Z</time>
      </trkpt>
      <trkpt lat="50.78545" lon="2.67743">
        <ele>134.8</ele>
        <time>2023-08-05T12:44:45Z</time>
      </trkpt>
      <trkpt lat="50.78543" lon="2.67746">
        <ele>134.6</ele>
        <time>2023-08-05T12:44:46Z</time>
      </trkpt>
      <trkpt lat="50.78541" lon="2.67747">
        <ele>134.6</ele>
        <time>2023-08-05T12:44:47Z</time>
      </trkpt>
      <trkpt lat="50.78539" lon="2.67748">
        <ele>134.4</ele>
        <time>2023-08-05T12:44:48Z</time>
      </trkpt>
      <trkpt lat="50.78538" lon="2.67749">
        <ele>134.4</ele>
        <time>2023-08-05T12:44:49Z</time>
      </trkpt>
      <trkpt lat="50.78536" lon="2.67751">
        <ele>134.2</ele>
        <time>2023-08-05T12:44:50Z</time>
      </trkpt>
      <trkpt lat="50.78534" lon="2.67753">
        <ele>134.2</ele>
        <time>2023-08-05T12:44:51Z</time>
      </trkpt>
      <trkpt lat="50.78532" lon="2.67755">
        <ele>134</ele>
        <time>2023-08-05T12:44:52Z</time>
      </trkpt>
      <trkpt lat="50.78529" lon="2.67758">
        <ele>134</ele>
        <time>2023-08-05T12:44:53Z</time>
      </trkpt>
      <trkpt lat="50.78527" lon="2.6776">
        <ele>134</ele>
        <time>2023-08-05T12:44:54Z</time>
      </trkpt>
      <trkpt lat="50.78525" lon="2.67762">
        <ele>133.8</ele>
        <time>2023-08-05T12:44:55Z</time>
      </trkpt>
      <trkpt lat="50.78524" lon="2.67763">
        <ele>133.8</ele>
        <time>2023-08-05T12:44:56Z</time>
      </trkpt>
      <trkpt lat="50.78522" lon="2.67765">
        <ele>133.8</ele>
        <time>2023-08-05T12:44:57Z</time>
      </trkpt>
      <trkpt lat="50.78519" lon="2.67767">
        <ele>133.8</ele>
        <time>2023-08-05T12:44:58Z</time>
      </trkpt>
      <trkpt lat="50.78511" lon="2.67776">
        <ele>134.2</ele>
        <time>2023-08-05T12:45:02Z</time>
      </trkpt>
      <trkpt lat="50.78489" lon="2.67799">
        <ele>135.2</ele>
        <time>2023-08-05T12:45:11Z</time>
      </trkpt>
      <trkpt lat="50.78478" lon="2.67809">
        <ele>135.6</ele>
        <time>2023-08-05T12:45:15Z</time>
      </trkpt>
      <trkpt lat="50.78469" lon="2.6782">
        <ele>136</ele>
        <time>2023-08-05T12:45:19Z</time>
      </trkpt>
      <trkpt lat="50.78464" lon="2.67824">
        <ele>136.6</ele>
        <time>2023-08-05T12:45:21Z</time>
      </trkpt>
      <trkpt lat="50.78462" lon="2.67827">
        <ele>136.8</ele>
        <time>2023-08-05T12:45:22Z</time>
      </trkpt>
      <trkpt lat="50.7846" lon="2.67829">
        <ele>136.8</ele>
        <time>2023-08-05T12:45:23Z</time>
      </trkpt>
      <trkpt lat="50.78457" lon="2.67831">
        <ele>137</ele>
        <time>2023-08-05T12:45:24Z</time>
      </trkpt>
      <trkpt lat="50.78455" lon="2.67833">
        <ele>137.2</ele>
        <time>2023-08-05T12:45:25Z</time>
      </trkpt>
      <trkpt lat="50.78453" lon="2.67836">
        <ele>137.4</ele>
        <time>2023-08-05T12:45:26Z</time>
      </trkpt>
      <trkpt lat="50.78451" lon="2.67838">
        <ele>137.4</ele>
        <time>2023-08-05T12:45:27Z</time>
      </trkpt>
      <trkpt lat="50.78445" lon="2.67843">
        <ele>137.6</ele>
        <time>2023-08-05T12:45:29Z</time>
      </trkpt>
      <trkpt lat="50.78441" lon="2.67849">
        <ele>137.8</ele>
        <time>2023-08-05T12:45:31Z</time>
      </trkpt>
      <trkpt lat="50.78438" lon="2.67852">
        <ele>137.8</ele>
        <time>2023-08-05T12:45:32Z</time>
      </trkpt>
      <trkpt lat="50.78436" lon="2.67855">
        <ele>137.8</ele>
        <time>2023-08-05T12:45:33Z</time>
      </trkpt>
      <trkpt lat="50.78434" lon="2.67859">
        <ele>137.8</ele>
        <time>2023-08-05T12:45:34Z</time>
      </trkpt>
      <trkpt lat="50.78432" lon="2.67862">
        <ele>137.8</ele>
        <time>2023-08-05T12:45:35Z</time>
      </trkpt>
      <trkpt lat="50.78429" lon="2.67865">
        <ele>138</ele>
        <time>2023-08-05T12:45:36Z</time>
      </trkpt>
      <trkpt lat="50.78427" lon="2.67869">
        <ele>138</ele>
        <time>2023-08-05T12:45:37Z</time>
      </trkpt>
      <trkpt lat="50.78424" lon="2.67872">
        <ele>138</ele>
        <time>2023-08-05T12:45:38Z</time>
      </trkpt>
      <trkpt lat="50.78409" lon="2.67892">
        <ele>138.2</ele>
        <time>2023-08-05T12:45:44Z</time>
      </trkpt>
      <trkpt lat="50.78388" lon="2.67909">
        <ele>138.6</ele>
        <time>2023-08-05T12:45:52Z</time>
      </trkpt>
      <trkpt lat="50.78386" lon="2.67911">
        <ele>138.6</ele>
        <time>2023-08-05T12:45:53Z</time>
      </trkpt>
      <trkpt lat="50.78384" lon="2.67913">
        <ele>138.6</ele>
        <time>2023-08-05T12:45:54Z</time>
      </trkpt>
      <trkpt lat="50.78382" lon="2.67915">
        <ele>138.6</ele>
        <time>2023-08-05T12:45:55Z</time>
      </trkpt>
      <trkpt lat="50.7838" lon="2.67917">
        <ele>138.8</ele>
        <time>2023-08-05T12:45:56Z</time>
      </trkpt>
      <trkpt lat="50.78378" lon="2.67919">
        <ele>139</ele>
        <time>2023-08-05T12:45:57Z</time>
      </trkpt>
      <trkpt lat="50.78376" lon="2.67921">
        <ele>139.2</ele>
        <time>2023-08-05T12:45:58Z</time>
      </trkpt>
      <trkpt lat="50.78373" lon="2.67923">
        <ele>139.4</ele>
        <time>2023-08-05T12:45:59Z</time>
      </trkpt>
      <trkpt lat="50.78371" lon="2.67925">
        <ele>139.6</ele>
        <time>2023-08-05T12:46:00Z</time>
      </trkpt>
      <trkpt lat="50.78369" lon="2.67927">
        <ele>139.8</ele>
        <time>2023-08-05T12:46:01Z</time>
      </trkpt>
      <trkpt lat="50.78367" lon="2.67929">
        <ele>139.8</ele>
        <time>2023-08-05T12:46:02Z</time>
      </trkpt>
      <trkpt lat="50.78364" lon="2.67931">
        <ele>139.8</ele>
        <time>2023-08-05T12:46:03Z</time>
      </trkpt>
      <trkpt lat="50.7834" lon="2.67953">
        <ele>139.2</ele>
        <time>2023-08-05T12:46:13Z</time>
      </trkpt>
      <trkpt lat="50.78321" lon="2.67964">
        <ele>138</ele>
        <time>2023-08-05T12:46:18Z</time>
      </trkpt>
      <trkpt lat="50.78316" lon="2.67966">
        <ele>137.2</ele>
        <time>2023-08-05T12:46:19Z</time>
      </trkpt>
      <trkpt lat="50.78311" lon="2.6797">
        <ele>136.8</ele>
        <time>2023-08-05T12:46:20Z</time>
      </trkpt>
      <trkpt lat="50.78302" lon="2.67977">
        <ele>135.6</ele>
        <time>2023-08-05T12:46:22Z</time>
      </trkpt>
      <trkpt lat="50.78299" lon="2.67981">
        <ele>135.4</ele>
        <time>2023-08-05T12:46:23Z</time>
      </trkpt>
      <trkpt lat="50.78295" lon="2.67985">
        <ele>134.8</ele>
        <time>2023-08-05T12:46:24Z</time>
      </trkpt>
      <trkpt lat="50.78292" lon="2.67988">
        <ele>134.8</ele>
        <time>2023-08-05T12:46:25Z</time>
      </trkpt>
      <trkpt lat="50.78289" lon="2.6799">
        <ele>134.4</ele>
        <time>2023-08-05T12:46:26Z</time>
      </trkpt>
      <trkpt lat="50.78286" lon="2.67993">
        <ele>134.2</ele>
        <time>2023-08-05T12:46:27Z</time>
      </trkpt>
      <trkpt lat="50.78283" lon="2.67996">
        <ele>133.8</ele>
        <time>2023-08-05T12:46:28Z</time>
      </trkpt>
      <trkpt lat="50.78281" lon="2.67999">
        <ele>133.2</ele>
        <time>2023-08-05T12:46:29Z</time>
      </trkpt>
      <trkpt lat="50.7828" lon="2.68">
        <ele>133</ele>
        <time>2023-08-05T12:46:30Z</time>
      </trkpt>
      <trkpt lat="50.78278" lon="2.68002">
        <ele>132.8</ele>
        <time>2023-08-05T12:46:31Z</time>
      </trkpt>
      <trkpt lat="50.78276" lon="2.68005">
        <ele>132.6</ele>
        <time>2023-08-05T12:46:32Z</time>
      </trkpt>
      <trkpt lat="50.78275" lon="2.68009">
        <ele>132.4</ele>
        <time>2023-08-05T12:46:33Z</time>
      </trkpt>
      <trkpt lat="50.78274" lon="2.6802">
        <ele>131.8</ele>
        <time>2023-08-05T12:46:35Z</time>
      </trkpt>
      <trkpt lat="50.78273" lon="2.68034">
        <ele>131.2</ele>
        <time>2023-08-05T12:46:38Z</time>
      </trkpt>
      <trkpt lat="50.78271" lon="2.68037">
        <ele>131.2</ele>
        <time>2023-08-05T12:46:39Z</time>
      </trkpt>
      <trkpt lat="50.78269" lon="2.6804">
        <ele>131</ele>
        <time>2023-08-05T12:46:40Z</time>
      </trkpt>
      <trkpt lat="50.78265" lon="2.68041">
        <ele>130.8</ele>
        <time>2023-08-05T12:46:41Z</time>
      </trkpt>
      <trkpt lat="50.78245" lon="2.68046">
        <ele>129.6</ele>
        <time>2023-08-05T12:46:45Z</time>
      </trkpt>
      <trkpt lat="50.7822" lon="2.6805">
        <ele>128</ele>
        <time>2023-08-05T12:46:49Z</time>
      </trkpt>
      <trkpt lat="50.78208" lon="2.68051">
        <ele>126.8</ele>
        <time>2023-08-05T12:46:51Z</time>
      </trkpt>
      <trkpt lat="50.78203" lon="2.68051">
        <ele>126</ele>
        <time>2023-08-05T12:46:52Z</time>
      </trkpt>
      <trkpt lat="50.78197" lon="2.68052">
        <ele>125.6</ele>
        <time>2023-08-05T12:46:53Z</time>
      </trkpt>
      <trkpt lat="50.78192" lon="2.68052">
        <ele>125</ele>
        <time>2023-08-05T12:46:54Z</time>
      </trkpt>
      <trkpt lat="50.78187" lon="2.68053">
        <ele>124.8</ele>
        <time>2023-08-05T12:46:55Z</time>
      </trkpt>
      <trkpt lat="50.7818" lon="2.68057">
        <ele>123.8</ele>
        <time>2023-08-05T12:46:56Z</time>
      </trkpt>
      <trkpt lat="50.78171" lon="2.68062">
        <ele>123</ele>
        <time>2023-08-05T12:46:58Z</time>
      </trkpt>
      <trkpt lat="50.78166" lon="2.68063">
        <ele>122.6</ele>
        <time>2023-08-05T12:46:59Z</time>
      </trkpt>
      <trkpt lat="50.78161" lon="2.68064">
        <ele>122.4</ele>
        <time>2023-08-05T12:47:00Z</time>
      </trkpt>
      <trkpt lat="50.78155" lon="2.68064">
        <ele>121.8</ele>
        <time>2023-08-05T12:47:01Z</time>
      </trkpt>
      <trkpt lat="50.78146" lon="2.68063">
        <ele>121.4</ele>
        <time>2023-08-05T12:47:03Z</time>
      </trkpt>
      <trkpt lat="50.78144" lon="2.68063">
        <ele>120.4</ele>
        <time>2023-08-05T12:47:04Z</time>
      </trkpt>
      <trkpt lat="50.78142" lon="2.68062">
        <ele>119.4</ele>
        <time>2023-08-05T12:47:05Z</time>
      </trkpt>
      <trkpt lat="50.78141" lon="2.68062">
        <ele>119</ele>
        <time>2023-08-05T12:47:06Z</time>
      </trkpt>
      <trkpt lat="50.7814" lon="2.68062">
        <ele>118.4</ele>
        <time>2023-08-05T12:47:07Z</time>
      </trkpt>
      <trkpt lat="50.78138" lon="2.68062">
        <ele>117.6</ele>
        <time>2023-08-05T12:47:08Z</time>
      </trkpt>
      <trkpt lat="50.78137" lon="2.68062">
        <ele>117.4</ele>
        <time>2023-08-05T12:47:09Z</time>
      </trkpt>
      <trkpt lat="50.78135" lon="2.68061">
        <ele>117</ele>
        <time>2023-08-05T12:47:10Z</time>
      </trkpt>
      <trkpt lat="50.78134" lon="2.6806">
        <ele>116.8</ele>
        <time>2023-08-05T12:47:11Z</time>
      </trkpt>
      <trkpt lat="50.78133" lon="2.68059">
        <ele>116.6</ele>
        <time>2023-08-05T12:47:12Z</time>
      </trkpt>
      <trkpt lat="50.78131" lon="2.68058">
        <ele>116.4</ele>
        <time>2023-08-05T12:47:13Z</time>
      </trkpt>
      <trkpt lat="50.7813" lon="2.68056">
        <ele>116.2</ele>
        <time>2023-08-05T12:47:14Z</time>
      </trkpt>
      <trkpt lat="50.78129" lon="2.68055">
        <ele>115.8</ele>
        <time>2023-08-05T12:47:15Z</time>
      </trkpt>
      <trkpt lat="50.78128" lon="2.68054">
        <ele>115.8</ele>
        <time>2023-08-05T12:47:16Z</time>
      </trkpt>
      <trkpt lat="50.78126" lon="2.68054">
        <ele>115.6</ele>
        <time>2023-08-05T12:47:17Z</time>
      </trkpt>
      <trkpt lat="50.78125" lon="2.68054">
        <ele>115.6</ele>
        <time>2023-08-05T12:47:18Z</time>
      </trkpt>
      <trkpt lat="50.78124" lon="2.68054">
        <ele>115.6</ele>
        <time>2023-08-05T12:47:19Z</time>
      </trkpt>
      <trkpt lat="50.78122" lon="2.68055">
        <ele>115.6</ele>
        <time>2023-08-05T12:47:20Z</time>
      </trkpt>
      <trkpt lat="50.7812" lon="2.68055">
        <ele>115.6</ele>
        <time>2023-08-05T12:47:21Z</time>
      </trkpt>
      <trkpt lat="50.78118" lon="2.68056">
        <ele>115.4</ele>
        <time>2023-08-05T12:47:22Z</time>
      </trkpt>
      <trkpt lat="50.78116" lon="2.68057">
        <ele>115.4</ele>
        <time>2023-08-05T12:47:23Z</time>
      </trkpt>
      <trkpt lat="50.78106" lon="2.68058">
        <ele>115.8</ele>
        <time>2023-08-05T12:47:28Z</time>
      </trkpt>
      <trkpt lat="50.78104" lon="2.68058">
        <ele>116</ele>
        <time>2023-08-05T12:47:29Z</time>
      </trkpt>
      <trkpt lat="50.78098" lon="2.68059">
        <ele>116.4</ele>
        <time>2023-08-05T12:47:32Z</time>
      </trkpt>
      <trkpt lat="50.78096" lon="2.68059">
        <ele>116.6</ele>
        <time>2023-08-05T12:47:33Z</time>
      </trkpt>
      <trkpt lat="50.78092" lon="2.6806">
        <ele>116.8</ele>
        <time>2023-08-05T12:47:35Z</time>
      </trkpt>
      <trkpt lat="50.7809" lon="2.6806">
        <ele>116.8</ele>
        <time>2023-08-05T12:47:36Z</time>
      </trkpt>
      <trkpt lat="50.78089" lon="2.68059">
        <ele>117</ele>
        <time>2023-08-05T12:47:37Z</time>
      </trkpt>
      <trkpt lat="50.78087" lon="2.6806">
        <ele>117.2</ele>
        <time>2023-08-05T12:47:38Z</time>
      </trkpt>
      <trkpt lat="50.78081" lon="2.6806">
        <ele>117.8</ele>
        <time>2023-08-05T12:47:41Z</time>
      </trkpt>
      <trkpt lat="50.78078" lon="2.6806">
        <ele>118.2</ele>
        <time>2023-08-05T12:47:43Z</time>
      </trkpt>
      <trkpt lat="50.78076" lon="2.68061">
        <ele>118.6</ele>
        <time>2023-08-05T12:47:44Z</time>
      </trkpt>
      <trkpt lat="50.78075" lon="2.68061">
        <ele>118.8</ele>
        <time>2023-08-05T12:47:45Z</time>
      </trkpt>
      <trkpt lat="50.78073" lon="2.68061">
        <ele>119</ele>
        <time>2023-08-05T12:47:46Z</time>
      </trkpt>
      <trkpt lat="50.7807" lon="2.68062">
        <ele>119.2</ele>
        <time>2023-08-05T12:47:48Z</time>
      </trkpt>
      <trkpt lat="50.78065" lon="2.68063">
        <ele>120</ele>
        <time>2023-08-05T12:47:51Z</time>
      </trkpt>
      <trkpt lat="50.78064" lon="2.68064">
        <ele>120</ele>
        <time>2023-08-05T12:47:52Z</time>
      </trkpt>
      <trkpt lat="50.78062" lon="2.68064">
        <ele>120.2</ele>
        <time>2023-08-05T12:47:53Z</time>
      </trkpt>
      <trkpt lat="50.7806" lon="2.68064">
        <ele>120.6</ele>
        <time>2023-08-05T12:47:54Z</time>
      </trkpt>
      <trkpt lat="50.78059" lon="2.68064">
        <ele>120.6</ele>
        <time>2023-08-05T12:47:55Z</time>
      </trkpt>
      <trkpt lat="50.78057" lon="2.68064">
        <ele>120.8</ele>
        <time>2023-08-05T12:47:56Z</time>
      </trkpt>
      <trkpt lat="50.78056" lon="2.68065">
        <ele>121.2</ele>
        <time>2023-08-05T12:47:57Z</time>
      </trkpt>
      <trkpt lat="50.78054" lon="2.68065">
        <ele>121.2</ele>
        <time>2023-08-05T12:47:58Z</time>
      </trkpt>
      <trkpt lat="50.78053" lon="2.68066">
        <ele>121.2</ele>
        <time>2023-08-05T12:47:59Z</time>
      </trkpt>
      <trkpt lat="50.78051" lon="2.68066">
        <ele>121.8</ele>
        <time>2023-08-05T12:48:00Z</time>
      </trkpt>
      <trkpt lat="50.78049" lon="2.68067">
        <ele>122</ele>
        <time>2023-08-05T12:48:01Z</time>
      </trkpt>
      <trkpt lat="50.78048" lon="2.68068">
        <ele>122</ele>
        <time>2023-08-05T12:48:02Z</time>
      </trkpt>
      <trkpt lat="50.78046" lon="2.68068">
        <ele>122.4</ele>
        <time>2023-08-05T12:48:03Z</time>
      </trkpt>
      <trkpt lat="50.78045" lon="2.68068">
        <ele>122.4</ele>
        <time>2023-08-05T12:48:04Z</time>
      </trkpt>
      <trkpt lat="50.78043" lon="2.68069">
        <ele>122.6</ele>
        <time>2023-08-05T12:48:05Z</time>
      </trkpt>
      <trkpt lat="50.78042" lon="2.68069">
        <ele>122.6</ele>
        <time>2023-08-05T12:48:06Z</time>
      </trkpt>
      <trkpt lat="50.78041" lon="2.6807">
        <ele>122.6</ele>
        <time>2023-08-05T12:48:07Z</time>
      </trkpt>
      <trkpt lat="50.78039" lon="2.68071">
        <ele>122.8</ele>
        <time>2023-08-05T12:48:08Z</time>
      </trkpt>
      <trkpt lat="50.78038" lon="2.68073">
        <ele>122.8</ele>
        <time>2023-08-05T12:48:09Z</time>
      </trkpt>
      <trkpt lat="50.78037" lon="2.68076">
        <ele>122.8</ele>
        <time>2023-08-05T12:48:10Z</time>
      </trkpt>
      <trkpt lat="50.78036" lon="2.68079">
        <ele>123</ele>
        <time>2023-08-05T12:48:11Z</time>
      </trkpt>
      <trkpt lat="50.78036" lon="2.68082">
        <ele>123</ele>
        <time>2023-08-05T12:48:12Z</time>
      </trkpt>
      <trkpt lat="50.78037" lon="2.68086">
        <ele>123</ele>
        <time>2023-08-05T12:48:13Z</time>
      </trkpt>
      <trkpt lat="50.78038" lon="2.6809">
        <ele>123</ele>
        <time>2023-08-05T12:48:14Z</time>
      </trkpt>
      <trkpt lat="50.78038" lon="2.68094">
        <ele>123</ele>
        <time>2023-08-05T12:48:15Z</time>
      </trkpt>
      <trkpt lat="50.78039" lon="2.68098">
        <ele>122.8</ele>
        <time>2023-08-05T12:48:16Z</time>
      </trkpt>
      <trkpt lat="50.78039" lon="2.68102">
        <ele>122.8</ele>
        <time>2023-08-05T12:48:17Z</time>
      </trkpt>
      <trkpt lat="50.7804" lon="2.68107">
        <ele>122.6</ele>
        <time>2023-08-05T12:48:18Z</time>
      </trkpt>
      <trkpt lat="50.7804" lon="2.68112">
        <ele>122.6</ele>
        <time>2023-08-05T12:48:19Z</time>
      </trkpt>
      <trkpt lat="50.78041" lon="2.68118">
        <ele>122.6</ele>
        <time>2023-08-05T12:48:20Z</time>
      </trkpt>
      <trkpt lat="50.78042" lon="2.68123">
        <ele>122</ele>
        <time>2023-08-05T12:48:21Z</time>
      </trkpt>
      <trkpt lat="50.78042" lon="2.68129">
        <ele>122</ele>
        <time>2023-08-05T12:48:22Z</time>
      </trkpt>
      <trkpt lat="50.78043" lon="2.68139">
        <ele>122</ele>
        <time>2023-08-05T12:48:24Z</time>
      </trkpt>
      <trkpt lat="50.78044" lon="2.68144">
        <ele>121.8</ele>
        <time>2023-08-05T12:48:25Z</time>
      </trkpt>
      <trkpt lat="50.78044" lon="2.68149">
        <ele>121.4</ele>
        <time>2023-08-05T12:48:26Z</time>
      </trkpt>
      <trkpt lat="50.78045" lon="2.68155">
        <ele>121.4</ele>
        <time>2023-08-05T12:48:27Z</time>
      </trkpt>
      <trkpt lat="50.78048" lon="2.68185">
        <ele>120.8</ele>
        <time>2023-08-05T12:48:31Z</time>
      </trkpt>
      <trkpt lat="50.78049" lon="2.68193">
        <ele>120.4</ele>
        <time>2023-08-05T12:48:32Z</time>
      </trkpt>
      <trkpt lat="50.78051" lon="2.68211">
        <ele>119.6</ele>
        <time>2023-08-05T12:48:34Z</time>
      </trkpt>
      <trkpt lat="50.78054" lon="2.68259">
        <ele>118.4</ele>
        <time>2023-08-05T12:48:39Z</time>
      </trkpt>
      <trkpt lat="50.78055" lon="2.68299">
        <ele>117.2</ele>
        <time>2023-08-05T12:48:43Z</time>
      </trkpt>
      <trkpt lat="50.78056" lon="2.68318">
        <ele>116.6</ele>
        <time>2023-08-05T12:48:45Z</time>
      </trkpt>
      <trkpt lat="50.78056" lon="2.68327">
        <ele>116.2</ele>
        <time>2023-08-05T12:48:46Z</time>
      </trkpt>
      <trkpt lat="50.78058" lon="2.68355">
        <ele>115</ele>
        <time>2023-08-05T12:48:49Z</time>
      </trkpt>
      <trkpt lat="50.78059" lon="2.68365">
        <ele>114.6</ele>
        <time>2023-08-05T12:48:50Z</time>
      </trkpt>
      <trkpt lat="50.78062" lon="2.68384">
        <ele>113.6</ele>
        <time>2023-08-05T12:48:52Z</time>
      </trkpt>
      <trkpt lat="50.78067" lon="2.68434">
        <ele>112</ele>
        <time>2023-08-05T12:48:57Z</time>
      </trkpt>
      <trkpt lat="50.78068" lon="2.68453">
        <ele>111</ele>
        <time>2023-08-05T12:48:59Z</time>
      </trkpt>
      <trkpt lat="50.78075" lon="2.6853">
        <ele>109.6</ele>
        <time>2023-08-05T12:49:06Z</time>
      </trkpt>
      <trkpt lat="50.78076" lon="2.68553">
        <ele>108.6</ele>
        <time>2023-08-05T12:49:08Z</time>
      </trkpt>
      <trkpt lat="50.78077" lon="2.68563">
        <ele>108.2</ele>
        <time>2023-08-05T12:49:09Z</time>
      </trkpt>
      <trkpt lat="50.78078" lon="2.68573">
        <ele>108</ele>
        <time>2023-08-05T12:49:10Z</time>
      </trkpt>
      <trkpt lat="50.78079" lon="2.68584">
        <ele>107.6</ele>
        <time>2023-08-05T12:49:11Z</time>
      </trkpt>
      <trkpt lat="50.78081" lon="2.68616">
        <ele>106.8</ele>
        <time>2023-08-05T12:49:14Z</time>
      </trkpt>
      <trkpt lat="50.78081" lon="2.68626">
        <ele>106.4</ele>
        <time>2023-08-05T12:49:15Z</time>
      </trkpt>
      <trkpt lat="50.7808" lon="2.68637">
        <ele>106</ele>
        <time>2023-08-05T12:49:16Z</time>
      </trkpt>
      <trkpt lat="50.78078" lon="2.68666">
        <ele>105.4</ele>
        <time>2023-08-05T12:49:19Z</time>
      </trkpt>
      <trkpt lat="50.78077" lon="2.68675">
        <ele>105</ele>
        <time>2023-08-05T12:49:20Z</time>
      </trkpt>
      <trkpt lat="50.78077" lon="2.68685">
        <ele>104.8</ele>
        <time>2023-08-05T12:49:21Z</time>
      </trkpt>
      <trkpt lat="50.78077" lon="2.68693">
        <ele>104.6</ele>
        <time>2023-08-05T12:49:22Z</time>
      </trkpt>
      <trkpt lat="50.78076" lon="2.68711">
        <ele>104.2</ele>
        <time>2023-08-05T12:49:24Z</time>
      </trkpt>
      <trkpt lat="50.78076" lon="2.68719">
        <ele>104</ele>
        <time>2023-08-05T12:49:25Z</time>
      </trkpt>
      <trkpt lat="50.78076" lon="2.68727">
        <ele>104</ele>
        <time>2023-08-05T12:49:26Z</time>
      </trkpt>
      <trkpt lat="50.78076" lon="2.68736">
        <ele>103.8</ele>
        <time>2023-08-05T12:49:27Z</time>
      </trkpt>
      <trkpt lat="50.78077" lon="2.68744">
        <ele>103.8</ele>
        <time>2023-08-05T12:49:28Z</time>
      </trkpt>
      <trkpt lat="50.78077" lon="2.68753">
        <ele>103.6</ele>
        <time>2023-08-05T12:49:29Z</time>
      </trkpt>
      <trkpt lat="50.78077" lon="2.68761">
        <ele>103.4</ele>
        <time>2023-08-05T12:49:30Z</time>
      </trkpt>
      <trkpt lat="50.78076" lon="2.68769">
        <ele>103</ele>
        <time>2023-08-05T12:49:31Z</time>
      </trkpt>
      <trkpt lat="50.78076" lon="2.68777">
        <ele>102.6</ele>
        <time>2023-08-05T12:49:32Z</time>
      </trkpt>
      <trkpt lat="50.78076" lon="2.68784">
        <ele>102.4</ele>
        <time>2023-08-05T12:49:33Z</time>
      </trkpt>
      <trkpt lat="50.78077" lon="2.68791">
        <ele>102.2</ele>
        <time>2023-08-05T12:49:34Z</time>
      </trkpt>
      <trkpt lat="50.78076" lon="2.68798">
        <ele>102</ele>
        <time>2023-08-05T12:49:35Z</time>
      </trkpt>
      <trkpt lat="50.78076" lon="2.68806">
        <ele>101.6</ele>
        <time>2023-08-05T12:49:36Z</time>
      </trkpt>
      <trkpt lat="50.78076" lon="2.68821">
        <ele>101.2</ele>
        <time>2023-08-05T12:49:38Z</time>
      </trkpt>
      <trkpt lat="50.78073" lon="2.68868">
        <ele>100.6</ele>
        <time>2023-08-05T12:49:44Z</time>
      </trkpt>
      <trkpt lat="50.78071" lon="2.68884">
        <ele>100.2</ele>
        <time>2023-08-05T12:49:46Z</time>
      </trkpt>
      <trkpt lat="50.78068" lon="2.68918">
        <ele>99.6</ele>
        <time>2023-08-05T12:49:50Z</time>
      </trkpt>
      <trkpt lat="50.78065" lon="2.68952">
        <ele>99.4</ele>
        <time>2023-08-05T12:49:54Z</time>
      </trkpt>
      <trkpt lat="50.7806" lon="2.68988">
        <ele>98.6</ele>
        <time>2023-08-05T12:49:58Z</time>
      </trkpt>
      <trkpt lat="50.78055" lon="2.6901">
        <ele>97.2</ele>
        <time>2023-08-05T12:50:01Z</time>
      </trkpt>
      <trkpt lat="50.78053" lon="2.69016">
        <ele>97</ele>
        <time>2023-08-05T12:50:02Z</time>
      </trkpt>
      <trkpt lat="50.78053" lon="2.69022">
        <ele>96.6</ele>
        <time>2023-08-05T12:50:03Z</time>
      </trkpt>
      <trkpt lat="50.78054" lon="2.69028">
        <ele>95.8</ele>
        <time>2023-08-05T12:50:04Z</time>
      </trkpt>
      <trkpt lat="50.78056" lon="2.69032">
        <ele>95.6</ele>
        <time>2023-08-05T12:50:05Z</time>
      </trkpt>
      <trkpt lat="50.78059" lon="2.69036">
        <ele>95.4</ele>
        <time>2023-08-05T12:50:06Z</time>
      </trkpt>
      <trkpt lat="50.78061" lon="2.69039">
        <ele>95.2</ele>
        <time>2023-08-05T12:50:07Z</time>
      </trkpt>
      <trkpt lat="50.78063" lon="2.69042">
        <ele>94.8</ele>
        <time>2023-08-05T12:50:08Z</time>
      </trkpt>
      <trkpt lat="50.78065" lon="2.69045">
        <ele>94.8</ele>
        <time>2023-08-05T12:50:09Z</time>
      </trkpt>
      <trkpt lat="50.78066" lon="2.69048">
        <ele>94.4</ele>
        <time>2023-08-05T12:50:10Z</time>
      </trkpt>
      <trkpt lat="50.78068" lon="2.69051">
        <ele>94.4</ele>
        <time>2023-08-05T12:50:11Z</time>
      </trkpt>
      <trkpt lat="50.7807" lon="2.69054">
        <ele>94.4</ele>
        <time>2023-08-05T12:50:12Z</time>
      </trkpt>
      <trkpt lat="50.78077" lon="2.6907">
        <ele>94.2</ele>
        <time>2023-08-05T12:50:16Z</time>
      </trkpt>
      <trkpt lat="50.78086" lon="2.69104">
        <ele>94.4</ele>
        <time>2023-08-05T12:50:24Z</time>
      </trkpt>
      <trkpt lat="50.78091" lon="2.69122">
        <ele>94.6</ele>
        <time>2023-08-05T12:50:29Z</time>
      </trkpt>
      <trkpt lat="50.78091" lon="2.69125">
        <ele>94.6</ele>
        <time>2023-08-05T12:50:30Z</time>
      </trkpt>
      <trkpt lat="50.78092" lon="2.69129">
        <ele>94.8</ele>
        <time>2023-08-05T12:50:31Z</time>
      </trkpt>
      <trkpt lat="50.78093" lon="2.69132">
        <ele>95</ele>
        <time>2023-08-05T12:50:32Z</time>
      </trkpt>
      <trkpt lat="50.78094" lon="2.69136">
        <ele>95.2</ele>
        <time>2023-08-05T12:50:33Z</time>
      </trkpt>
      <trkpt lat="50.78095" lon="2.69139">
        <ele>95.4</ele>
        <time>2023-08-05T12:50:34Z</time>
      </trkpt>
      <trkpt lat="50.78096" lon="2.69142">
        <ele>95.6</ele>
        <time>2023-08-05T12:50:35Z</time>
      </trkpt>
      <trkpt lat="50.78097" lon="2.69146">
        <ele>95.8</ele>
        <time>2023-08-05T12:50:36Z</time>
      </trkpt>
      <trkpt lat="50.78098" lon="2.69149">
        <ele>95.8</ele>
        <time>2023-08-05T12:50:37Z</time>
      </trkpt>
      <trkpt lat="50.78098" lon="2.69153">
        <ele>96</ele>
        <time>2023-08-05T12:50:38Z</time>
      </trkpt>
      <trkpt lat="50.78099" lon="2.69156">
        <ele>96.2</ele>
        <time>2023-08-05T12:50:39Z</time>
      </trkpt>
      <trkpt lat="50.78101" lon="2.69167">
        <ele>97</ele>
        <time>2023-08-05T12:50:42Z</time>
      </trkpt>
      <trkpt lat="50.78105" lon="2.69176">
        <ele>97.8</ele>
        <time>2023-08-05T12:50:45Z</time>
      </trkpt>
      <trkpt lat="50.78107" lon="2.69183">
        <ele>98</ele>
        <time>2023-08-05T12:50:47Z</time>
      </trkpt>
      <trkpt lat="50.78108" lon="2.69187">
        <ele>98.2</ele>
        <time>2023-08-05T12:50:48Z</time>
      </trkpt>
      <trkpt lat="50.78109" lon="2.69191">
        <ele>98.4</ele>
        <time>2023-08-05T12:50:49Z</time>
      </trkpt>
      <trkpt lat="50.7811" lon="2.69194">
        <ele>98.8</ele>
        <time>2023-08-05T12:50:50Z</time>
      </trkpt>
      <trkpt lat="50.78111" lon="2.69198">
        <ele>99</ele>
        <time>2023-08-05T12:50:51Z</time>
      </trkpt>
      <trkpt lat="50.78113" lon="2.69201">
        <ele>99.4</ele>
        <time>2023-08-05T12:50:52Z</time>
      </trkpt>
      <trkpt lat="50.78114" lon="2.69205">
        <ele>99.4</ele>
        <time>2023-08-05T12:50:53Z</time>
      </trkpt>
      <trkpt lat="50.78115" lon="2.69209">
        <ele>100</ele>
        <time>2023-08-05T12:50:54Z</time>
      </trkpt>
      <trkpt lat="50.78116" lon="2.69213">
        <ele>100.2</ele>
        <time>2023-08-05T12:50:55Z</time>
      </trkpt>
      <trkpt lat="50.78117" lon="2.69217">
        <ele>100.4</ele>
        <time>2023-08-05T12:50:56Z</time>
      </trkpt>
      <trkpt lat="50.78119" lon="2.69221">
        <ele>100.4</ele>
        <time>2023-08-05T12:50:57Z</time>
      </trkpt>
      <trkpt lat="50.7812" lon="2.69225">
        <ele>100.6</ele>
        <time>2023-08-05T12:50:58Z</time>
      </trkpt>
      <trkpt lat="50.78122" lon="2.69228">
        <ele>100.8</ele>
        <time>2023-08-05T12:50:59Z</time>
      </trkpt>
      <trkpt lat="50.78124" lon="2.69232">
        <ele>100.8</ele>
        <time>2023-08-05T12:51:00Z</time>
      </trkpt>
      <trkpt lat="50.78126" lon="2.69235">
        <ele>100.8</ele>
        <time>2023-08-05T12:51:01Z</time>
      </trkpt>
      <trkpt lat="50.78128" lon="2.69239">
        <ele>101</ele>
        <time>2023-08-05T12:51:02Z</time>
      </trkpt>
      <trkpt lat="50.78129" lon="2.69243">
        <ele>101</ele>
        <time>2023-08-05T12:51:03Z</time>
      </trkpt>
      <trkpt lat="50.78131" lon="2.69247">
        <ele>101</ele>
        <time>2023-08-05T12:51:04Z</time>
      </trkpt>
      <trkpt lat="50.78133" lon="2.69252">
        <ele>101</ele>
        <time>2023-08-05T12:51:05Z</time>
      </trkpt>
      <trkpt lat="50.78134" lon="2.69257">
        <ele>101</ele>
        <time>2023-08-05T12:51:06Z</time>
      </trkpt>
      <trkpt lat="50.78136" lon="2.69262">
        <ele>101</ele>
        <time>2023-08-05T12:51:07Z</time>
      </trkpt>
      <trkpt lat="50.78137" lon="2.69267">
        <ele>101</ele>
        <time>2023-08-05T12:51:08Z</time>
      </trkpt>
      <trkpt lat="50.78139" lon="2.69273">
        <ele>101</ele>
        <time>2023-08-05T12:51:09Z</time>
      </trkpt>
      <trkpt lat="50.78141" lon="2.69278">
        <ele>101</ele>
        <time>2023-08-05T12:51:10Z</time>
      </trkpt>
      <trkpt lat="50.78143" lon="2.69283">
        <ele>101</ele>
        <time>2023-08-05T12:51:11Z</time>
      </trkpt>
      <trkpt lat="50.78145" lon="2.69288">
        <ele>101</ele>
        <time>2023-08-05T12:51:12Z</time>
      </trkpt>
      <trkpt lat="50.78148" lon="2.69294">
        <ele>100.8</ele>
        <time>2023-08-05T12:51:13Z</time>
      </trkpt>
      <trkpt lat="50.7815" lon="2.69299">
        <ele>100.8</ele>
        <time>2023-08-05T12:51:14Z</time>
      </trkpt>
      <trkpt lat="50.78152" lon="2.69305">
        <ele>100.8</ele>
        <time>2023-08-05T12:51:15Z</time>
      </trkpt>
      <trkpt lat="50.78154" lon="2.6931">
        <ele>101</ele>
        <time>2023-08-05T12:51:16Z</time>
      </trkpt>
      <trkpt lat="50.78156" lon="2.69316">
        <ele>100.8</ele>
        <time>2023-08-05T12:51:17Z</time>
      </trkpt>
      <trkpt lat="50.78175" lon="2.69356">
        <ele>100</ele>
        <time>2023-08-05T12:51:24Z</time>
      </trkpt>
      <trkpt lat="50.7819" lon="2.69394">
        <ele>99.6</ele>
        <time>2023-08-05T12:51:30Z</time>
      </trkpt>
      <trkpt lat="50.78193" lon="2.694">
        <ele>99.6</ele>
        <time>2023-08-05T12:51:31Z</time>
      </trkpt>
      <trkpt lat="50.78196" lon="2.69407">
        <ele>99.6</ele>
        <time>2023-08-05T12:51:32Z</time>
      </trkpt>
      <trkpt lat="50.78218" lon="2.69453">
        <ele>98.8</ele>
        <time>2023-08-05T12:51:39Z</time>
      </trkpt>
      <trkpt lat="50.78224" lon="2.69466">
        <ele>98.4</ele>
        <time>2023-08-05T12:51:41Z</time>
      </trkpt>
      <trkpt lat="50.78236" lon="2.69491">
        <ele>97.8</ele>
        <time>2023-08-05T12:51:45Z</time>
      </trkpt>
      <trkpt lat="50.78239" lon="2.69497">
        <ele>97.8</ele>
        <time>2023-08-05T12:51:46Z</time>
      </trkpt>
      <trkpt lat="50.78245" lon="2.69508">
        <ele>97.6</ele>
        <time>2023-08-05T12:51:48Z</time>
      </trkpt>
      <trkpt lat="50.78248" lon="2.69514">
        <ele>97.4</ele>
        <time>2023-08-05T12:51:49Z</time>
      </trkpt>
      <trkpt lat="50.7825" lon="2.69518">
        <ele>97.4</ele>
        <time>2023-08-05T12:51:50Z</time>
      </trkpt>
      <trkpt lat="50.78252" lon="2.69522">
        <ele>97.2</ele>
        <time>2023-08-05T12:51:51Z</time>
      </trkpt>
      <trkpt lat="50.78254" lon="2.69526">
        <ele>97</ele>
        <time>2023-08-05T12:51:52Z</time>
      </trkpt>
      <trkpt lat="50.78254" lon="2.69529">
        <ele>96.6</ele>
        <time>2023-08-05T12:51:53Z</time>
      </trkpt>
      <trkpt lat="50.78254" lon="2.69532">
        <ele>96.6</ele>
        <time>2023-08-05T12:51:54Z</time>
      </trkpt>
      <trkpt lat="50.78252" lon="2.69535">
        <ele>96.4</ele>
        <time>2023-08-05T12:51:55Z</time>
      </trkpt>
      <trkpt lat="50.7825" lon="2.69538">
        <ele>96</ele>
        <time>2023-08-05T12:51:56Z</time>
      </trkpt>
      <trkpt lat="50.78247" lon="2.69542">
        <ele>95.8</ele>
        <time>2023-08-05T12:51:57Z</time>
      </trkpt>
      <trkpt lat="50.78244" lon="2.69545">
        <ele>95.8</ele>
        <time>2023-08-05T12:51:58Z</time>
      </trkpt>
      <trkpt lat="50.78241" lon="2.69549">
        <ele>95.6</ele>
        <time>2023-08-05T12:51:59Z</time>
      </trkpt>
      <trkpt lat="50.78225" lon="2.69569">
        <ele>95.4</ele>
        <time>2023-08-05T12:52:04Z</time>
      </trkpt>
      <trkpt lat="50.78222" lon="2.69572">
        <ele>95.4</ele>
        <time>2023-08-05T12:52:05Z</time>
      </trkpt>
      <trkpt lat="50.78195" lon="2.69608">
        <ele>94.8</ele>
        <time>2023-08-05T12:52:13Z</time>
      </trkpt>
      <trkpt lat="50.78164" lon="2.69643">
        <ele>94.4</ele>
        <time>2023-08-05T12:52:21Z</time>
      </trkpt>
      <trkpt lat="50.78131" lon="2.69681">
        <ele>93.8</ele>
        <time>2023-08-05T12:52:29Z</time>
      </trkpt>
      <trkpt lat="50.78118" lon="2.69696">
        <ele>93.4</ele>
        <time>2023-08-05T12:52:32Z</time>
      </trkpt>
      <trkpt lat="50.78093" lon="2.69726">
        <ele>93</ele>
        <time>2023-08-05T12:52:38Z</time>
      </trkpt>
      <trkpt lat="50.78067" lon="2.69757">
        <ele>92.4</ele>
        <time>2023-08-05T12:52:44Z</time>
      </trkpt>
      <trkpt lat="50.7805" lon="2.69778">
        <ele>92</ele>
        <time>2023-08-05T12:52:48Z</time>
      </trkpt>
      <trkpt lat="50.78027" lon="2.69806">
        <ele>91.2</ele>
        <time>2023-08-05T12:52:53Z</time>
      </trkpt>
      <trkpt lat="50.78004" lon="2.69834">
        <ele>90.4</ele>
        <time>2023-08-05T12:52:58Z</time>
      </trkpt>
      <trkpt lat="50.77995" lon="2.69845">
        <ele>90.2</ele>
        <time>2023-08-05T12:53:00Z</time>
      </trkpt>
      <trkpt lat="50.77961" lon="2.69884">
        <ele>89</ele>
        <time>2023-08-05T12:53:07Z</time>
      </trkpt>
      <trkpt lat="50.77941" lon="2.69907">
        <ele>88.4</ele>
        <time>2023-08-05T12:53:11Z</time>
      </trkpt>
      <trkpt lat="50.77932" lon="2.69919">
        <ele>88</ele>
        <time>2023-08-05T12:53:13Z</time>
      </trkpt>
      <trkpt lat="50.77897" lon="2.69959">
        <ele>86.8</ele>
        <time>2023-08-05T12:53:20Z</time>
      </trkpt>
      <trkpt lat="50.77888" lon="2.69972">
        <ele>86.6</ele>
        <time>2023-08-05T12:53:22Z</time>
      </trkpt>
      <trkpt lat="50.77863" lon="2.70001">
        <ele>85.8</ele>
        <time>2023-08-05T12:53:27Z</time>
      </trkpt>
      <trkpt lat="50.77838" lon="2.70031">
        <ele>84.6</ele>
        <time>2023-08-05T12:53:32Z</time>
      </trkpt>
      <trkpt lat="50.77802" lon="2.70073">
        <ele>83.6</ele>
        <time>2023-08-05T12:53:39Z</time>
      </trkpt>
      <trkpt lat="50.77782" lon="2.70096">
        <ele>83</ele>
        <time>2023-08-05T12:53:43Z</time>
      </trkpt>
      <trkpt lat="50.77758" lon="2.70126">
        <ele>82.4</ele>
        <time>2023-08-05T12:53:48Z</time>
      </trkpt>
      <trkpt lat="50.77739" lon="2.70146">
        <ele>82</ele>
        <time>2023-08-05T12:53:52Z</time>
      </trkpt>
      <trkpt lat="50.77734" lon="2.7015">
        <ele>82</ele>
        <time>2023-08-05T12:53:53Z</time>
      </trkpt>
      <trkpt lat="50.7773" lon="2.70155">
        <ele>82</ele>
        <time>2023-08-05T12:53:54Z</time>
      </trkpt>
      <trkpt lat="50.77725" lon="2.70159">
        <ele>82</ele>
        <time>2023-08-05T12:53:55Z</time>
      </trkpt>
      <trkpt lat="50.7772" lon="2.70163">
        <ele>81.8</ele>
        <time>2023-08-05T12:53:56Z</time>
      </trkpt>
      <trkpt lat="50.77715" lon="2.70167">
        <ele>81.8</ele>
        <time>2023-08-05T12:53:57Z</time>
      </trkpt>
      <trkpt lat="50.77711" lon="2.7017">
        <ele>81.8</ele>
        <time>2023-08-05T12:53:58Z</time>
      </trkpt>
      <trkpt lat="50.77706" lon="2.70173">
        <ele>81.8</ele>
        <time>2023-08-05T12:53:59Z</time>
      </trkpt>
      <trkpt lat="50.77701" lon="2.70176">
        <ele>81.8</ele>
        <time>2023-08-05T12:54:00Z</time>
      </trkpt>
      <trkpt lat="50.77697" lon="2.70179">
        <ele>81.8</ele>
        <time>2023-08-05T12:54:01Z</time>
      </trkpt>
      <trkpt lat="50.77692" lon="2.70183">
        <ele>81.8</ele>
        <time>2023-08-05T12:54:02Z</time>
      </trkpt>
      <trkpt lat="50.77688" lon="2.70185">
        <ele>81.8</ele>
        <time>2023-08-05T12:54:03Z</time>
      </trkpt>
      <trkpt lat="50.77683" lon="2.70188">
        <ele>81.8</ele>
        <time>2023-08-05T12:54:04Z</time>
      </trkpt>
      <trkpt lat="50.77679" lon="2.70191">
        <ele>81.8</ele>
        <time>2023-08-05T12:54:05Z</time>
      </trkpt>
      <trkpt lat="50.77675" lon="2.70194">
        <ele>81.8</ele>
        <time>2023-08-05T12:54:06Z</time>
      </trkpt>
      <trkpt lat="50.7767" lon="2.70197">
        <ele>82</ele>
        <time>2023-08-05T12:54:07Z</time>
      </trkpt>
      <trkpt lat="50.77665" lon="2.70199">
        <ele>82</ele>
        <time>2023-08-05T12:54:08Z</time>
      </trkpt>
      <trkpt lat="50.77661" lon="2.70201">
        <ele>82</ele>
        <time>2023-08-05T12:54:09Z</time>
      </trkpt>
      <trkpt lat="50.77656" lon="2.70204">
        <ele>82</ele>
        <time>2023-08-05T12:54:10Z</time>
      </trkpt>
      <trkpt lat="50.77647" lon="2.70209">
        <ele>82.2</ele>
        <time>2023-08-05T12:54:12Z</time>
      </trkpt>
      <trkpt lat="50.77643" lon="2.70211">
        <ele>82.2</ele>
        <time>2023-08-05T12:54:13Z</time>
      </trkpt>
      <trkpt lat="50.77639" lon="2.70214">
        <ele>82.4</ele>
        <time>2023-08-05T12:54:14Z</time>
      </trkpt>
      <trkpt lat="50.77634" lon="2.70216">
        <ele>82.6</ele>
        <time>2023-08-05T12:54:15Z</time>
      </trkpt>
      <trkpt lat="50.7763" lon="2.70219">
        <ele>82.6</ele>
        <time>2023-08-05T12:54:16Z</time>
      </trkpt>
      <trkpt lat="50.77626" lon="2.70221">
        <ele>82.6</ele>
        <time>2023-08-05T12:54:17Z</time>
      </trkpt>
      <trkpt lat="50.77622" lon="2.70224">
        <ele>82.8</ele>
        <time>2023-08-05T12:54:18Z</time>
      </trkpt>
      <trkpt lat="50.77619" lon="2.70227">
        <ele>82.8</ele>
        <time>2023-08-05T12:54:19Z</time>
      </trkpt>
      <trkpt lat="50.77616" lon="2.70229">
        <ele>82.8</ele>
        <time>2023-08-05T12:54:20Z</time>
      </trkpt>
      <trkpt lat="50.77614" lon="2.70231">
        <ele>82.8</ele>
        <time>2023-08-05T12:54:21Z</time>
      </trkpt>
      <trkpt lat="50.77612" lon="2.70233">
        <ele>82.8</ele>
        <time>2023-08-05T12:54:22Z</time>
      </trkpt>
      <trkpt lat="50.7761" lon="2.70235">
        <ele>83</ele>
        <time>2023-08-05T12:54:23Z</time>
      </trkpt>
      <trkpt lat="50.77611" lon="2.70237">
        <ele>83</ele>
        <time>2023-08-05T12:54:24Z</time>
      </trkpt>
      <trkpt lat="50.77612" lon="2.70239">
        <ele>83</ele>
        <time>2023-08-05T12:54:25Z</time>
      </trkpt>
      <trkpt lat="50.77614" lon="2.70241">
        <ele>83</ele>
        <time>2023-08-05T12:54:26Z</time>
      </trkpt>
      <trkpt lat="50.77617" lon="2.70252">
        <ele>83</ele>
        <time>2023-08-05T12:54:29Z</time>
      </trkpt>
      <trkpt lat="50.77618" lon="2.70255">
        <ele>83</ele>
        <time>2023-08-05T12:54:30Z</time>
      </trkpt>
      <trkpt lat="50.77619" lon="2.70259">
        <ele>82.8</ele>
        <time>2023-08-05T12:54:31Z</time>
      </trkpt>
      <trkpt lat="50.77627" lon="2.70293">
        <ele>82.4</ele>
        <time>2023-08-05T12:54:38Z</time>
      </trkpt>
      <trkpt lat="50.77633" lon="2.70322">
        <ele>81.8</ele>
        <time>2023-08-05T12:54:43Z</time>
      </trkpt>
      <trkpt lat="50.77634" lon="2.70327">
        <ele>81.8</ele>
        <time>2023-08-05T12:54:44Z</time>
      </trkpt>
      <trkpt lat="50.77637" lon="2.70336">
        <ele>82</ele>
        <time>2023-08-05T12:54:46Z</time>
      </trkpt>
      <trkpt lat="50.77639" lon="2.70346">
        <ele>81.6</ele>
        <time>2023-08-05T12:54:48Z</time>
      </trkpt>
      <trkpt lat="50.7764" lon="2.70351">
        <ele>81.6</ele>
        <time>2023-08-05T12:54:49Z</time>
      </trkpt>
      <trkpt lat="50.77642" lon="2.7036">
        <ele>81.6</ele>
        <time>2023-08-05T12:54:51Z</time>
      </trkpt>
      <trkpt lat="50.77645" lon="2.70371">
        <ele>81.6</ele>
        <time>2023-08-05T12:54:53Z</time>
      </trkpt>
      <trkpt lat="50.77652" lon="2.70408">
        <ele>81.4</ele>
        <time>2023-08-05T12:54:59Z</time>
      </trkpt>
      <trkpt lat="50.77666" lon="2.70478">
        <ele>80.6</ele>
        <time>2023-08-05T12:55:09Z</time>
      </trkpt>
      <trkpt lat="50.77674" lon="2.70519">
        <ele>79.4</ele>
        <time>2023-08-05T12:55:15Z</time>
      </trkpt>
      <trkpt lat="50.77677" lon="2.70531">
        <ele>79.2</ele>
        <time>2023-08-05T12:55:17Z</time>
      </trkpt>
      <trkpt lat="50.77678" lon="2.70536">
        <ele>79</ele>
        <time>2023-08-05T12:55:18Z</time>
      </trkpt>
      <trkpt lat="50.7768" lon="2.70538">
        <ele>79</ele>
        <time>2023-08-05T12:55:19Z</time>
      </trkpt>
      <trkpt lat="50.77683" lon="2.7054">
        <ele>79</ele>
        <time>2023-08-05T12:55:20Z</time>
      </trkpt>
      <trkpt lat="50.77685" lon="2.7054">
        <ele>78.8</ele>
        <time>2023-08-05T12:55:21Z</time>
      </trkpt>
      <trkpt lat="50.77688" lon="2.70541">
        <ele>78.6</ele>
        <time>2023-08-05T12:55:22Z</time>
      </trkpt>
      <trkpt lat="50.77691" lon="2.70541">
        <ele>78.6</ele>
        <time>2023-08-05T12:55:23Z</time>
      </trkpt>
      <trkpt lat="50.77694" lon="2.70542">
        <ele>78.4</ele>
        <time>2023-08-05T12:55:24Z</time>
      </trkpt>
      <trkpt lat="50.77696" lon="2.70544">
        <ele>78.2</ele>
        <time>2023-08-05T12:55:25Z</time>
      </trkpt>
      <trkpt lat="50.77701" lon="2.70551">
        <ele>77.8</ele>
        <time>2023-08-05T12:55:27Z</time>
      </trkpt>
      <trkpt lat="50.77702" lon="2.70556">
        <ele>77.8</ele>
        <time>2023-08-05T12:55:28Z</time>
      </trkpt>
      <trkpt lat="50.77706" lon="2.70572">
        <ele>77.2</ele>
        <time>2023-08-05T12:55:31Z</time>
      </trkpt>
      <trkpt lat="50.77709" lon="2.70584">
        <ele>77</ele>
        <time>2023-08-05T12:55:33Z</time>
      </trkpt>
      <trkpt lat="50.77719" lon="2.70633">
        <ele>76.6</ele>
        <time>2023-08-05T12:55:41Z</time>
      </trkpt>
      <trkpt lat="50.77721" lon="2.70641">
        <ele>76.6</ele>
        <time>2023-08-05T12:55:43Z</time>
      </trkpt>
      <trkpt lat="50.77722" lon="2.70644">
        <ele>76.6</ele>
        <time>2023-08-05T12:55:44Z</time>
      </trkpt>
      <trkpt lat="50.77724" lon="2.70646">
        <ele>76.4</ele>
        <time>2023-08-05T12:55:45Z</time>
      </trkpt>
      <trkpt lat="50.77725" lon="2.70648">
        <ele>76.4</ele>
        <time>2023-08-05T12:55:46Z</time>
      </trkpt>
      <trkpt lat="50.77726" lon="2.7065">
        <ele>76.4</ele>
        <time>2023-08-05T12:55:47Z</time>
      </trkpt>
      <trkpt lat="50.77727" lon="2.70653">
        <ele>76.2</ele>
        <time>2023-08-05T12:55:48Z</time>
      </trkpt>
      <trkpt lat="50.77726" lon="2.70656">
        <ele>76.2</ele>
        <time>2023-08-05T12:55:49Z</time>
      </trkpt>
      <trkpt lat="50.77726" lon="2.7066">
        <ele>76.2</ele>
        <time>2023-08-05T12:55:50Z</time>
      </trkpt>
      <trkpt lat="50.77726" lon="2.70664">
        <ele>76.2</ele>
        <time>2023-08-05T12:55:51Z</time>
      </trkpt>
      <trkpt lat="50.77726" lon="2.70668">
        <ele>76.2</ele>
        <time>2023-08-05T12:55:52Z</time>
      </trkpt>
      <trkpt lat="50.77727" lon="2.70686">
        <ele>76.4</ele>
        <time>2023-08-05T12:55:56Z</time>
      </trkpt>
      <trkpt lat="50.77732" lon="2.70726">
        <ele>76.6</ele>
        <time>2023-08-05T12:56:05Z</time>
      </trkpt>
      <trkpt lat="50.77732" lon="2.70734">
        <ele>76.6</ele>
        <time>2023-08-05T12:56:07Z</time>
      </trkpt>
      <trkpt lat="50.77733" lon="2.70743">
        <ele>76.8</ele>
        <time>2023-08-05T12:56:09Z</time>
      </trkpt>
      <trkpt lat="50.77734" lon="2.70759">
        <ele>76.8</ele>
        <time>2023-08-05T12:56:13Z</time>
      </trkpt>
      <trkpt lat="50.77735" lon="2.70764">
        <ele>77</ele>
        <time>2023-08-05T12:56:14Z</time>
      </trkpt>
      <trkpt lat="50.77735" lon="2.70768">
        <ele>77</ele>
        <time>2023-08-05T12:56:15Z</time>
      </trkpt>
      <trkpt lat="50.77735" lon="2.70771">
        <ele>77</ele>
        <time>2023-08-05T12:56:16Z</time>
      </trkpt>
      <trkpt lat="50.77735" lon="2.70774">
        <ele>77.2</ele>
        <time>2023-08-05T12:56:17Z</time>
      </trkpt>
      <trkpt lat="50.77735" lon="2.70777">
        <ele>77.2</ele>
        <time>2023-08-05T12:56:18Z</time>
      </trkpt>
      <trkpt lat="50.77736" lon="2.70781">
        <ele>77.4</ele>
        <time>2023-08-05T12:56:19Z</time>
      </trkpt>
      <trkpt lat="50.77736" lon="2.70784">
        <ele>77.4</ele>
        <time>2023-08-05T12:56:20Z</time>
      </trkpt>
      <trkpt lat="50.77736" lon="2.70786">
        <ele>77.4</ele>
        <time>2023-08-05T12:56:21Z</time>
      </trkpt>
      <trkpt lat="50.77737" lon="2.70789">
        <ele>77.6</ele>
        <time>2023-08-05T12:56:22Z</time>
      </trkpt>
      <trkpt lat="50.77737" lon="2.70792">
        <ele>77.6</ele>
        <time>2023-08-05T12:56:23Z</time>
      </trkpt>
      <trkpt lat="50.77737" lon="2.70796">
        <ele>77.6</ele>
        <time>2023-08-05T12:56:24Z</time>
      </trkpt>
      <trkpt lat="50.77738" lon="2.70799">
        <ele>77.8</ele>
        <time>2023-08-05T12:56:25Z</time>
      </trkpt>
      <trkpt lat="50.77738" lon="2.70801">
        <ele>77.8</ele>
        <time>2023-08-05T12:56:26Z</time>
      </trkpt>
      <trkpt lat="50.77738" lon="2.70804">
        <ele>77.8</ele>
        <time>2023-08-05T12:56:27Z</time>
      </trkpt>
      <trkpt lat="50.77739" lon="2.70807">
        <ele>77.8</ele>
        <time>2023-08-05T12:56:28Z</time>
      </trkpt>
      <trkpt lat="50.7774" lon="2.70822">
        <ele>78.6</ele>
        <time>2023-08-05T12:56:33Z</time>
      </trkpt>
      <trkpt lat="50.77741" lon="2.70824">
        <ele>78.8</ele>
        <time>2023-08-05T12:56:34Z</time>
      </trkpt>
      <trkpt lat="50.77741" lon="2.70827">
        <ele>78.8</ele>
        <time>2023-08-05T12:56:35Z</time>
      </trkpt>
      <trkpt lat="50.77741" lon="2.70829">
        <ele>79</ele>
        <time>2023-08-05T12:56:36Z</time>
      </trkpt>
      <trkpt lat="50.77742" lon="2.70831">
        <ele>79.2</ele>
        <time>2023-08-05T12:56:37Z</time>
      </trkpt>
      <trkpt lat="50.77742" lon="2.70833">
        <ele>79.4</ele>
        <time>2023-08-05T12:56:38Z</time>
      </trkpt>
      <trkpt lat="50.77742" lon="2.70836">
        <ele>79.4</ele>
        <time>2023-08-05T12:56:39Z</time>
      </trkpt>
      <trkpt lat="50.77743" lon="2.70838">
        <ele>79.6</ele>
        <time>2023-08-05T12:56:40Z</time>
      </trkpt>
      <trkpt lat="50.77743" lon="2.7084">
        <ele>79.8</ele>
        <time>2023-08-05T12:56:41Z</time>
      </trkpt>
      <trkpt lat="50.77743" lon="2.70842">
        <ele>80.4</ele>
        <time>2023-08-05T12:56:42Z</time>
      </trkpt>
      <trkpt lat="50.77743" lon="2.70845">
        <ele>80.8</ele>
        <time>2023-08-05T12:56:43Z</time>
      </trkpt>
      <trkpt lat="50.77744" lon="2.70847">
        <ele>80.8</ele>
        <time>2023-08-05T12:56:44Z</time>
      </trkpt>
      <trkpt lat="50.77745" lon="2.7085">
        <ele>81.4</ele>
        <time>2023-08-05T12:56:45Z</time>
      </trkpt>
      <trkpt lat="50.77745" lon="2.70852">
        <ele>81.6</ele>
        <time>2023-08-05T12:56:46Z</time>
      </trkpt>
      <trkpt lat="50.77745" lon="2.70854">
        <ele>82</ele>
        <time>2023-08-05T12:56:47Z</time>
      </trkpt>
      <trkpt lat="50.77746" lon="2.70856">
        <ele>82.2</ele>
        <time>2023-08-05T12:56:48Z</time>
      </trkpt>
      <trkpt lat="50.77747" lon="2.70858">
        <ele>82.4</ele>
        <time>2023-08-05T12:56:49Z</time>
      </trkpt>
      <trkpt lat="50.77747" lon="2.70861">
        <ele>82.8</ele>
        <time>2023-08-05T12:56:50Z</time>
      </trkpt>
      <trkpt lat="50.77748" lon="2.70862">
        <ele>82.8</ele>
        <time>2023-08-05T12:56:51Z</time>
      </trkpt>
      <trkpt lat="50.77748" lon="2.70864">
        <ele>83.2</ele>
        <time>2023-08-05T12:56:52Z</time>
      </trkpt>
      <trkpt lat="50.77749" lon="2.70866">
        <ele>83.4</ele>
        <time>2023-08-05T12:56:53Z</time>
      </trkpt>
      <trkpt lat="50.77749" lon="2.70868">
        <ele>83.6</ele>
        <time>2023-08-05T12:56:54Z</time>
      </trkpt>
      <trkpt lat="50.7775" lon="2.7087">
        <ele>83.6</ele>
        <time>2023-08-05T12:56:55Z</time>
      </trkpt>
      <trkpt lat="50.7775" lon="2.70871">
        <ele>84</ele>
        <time>2023-08-05T12:56:56Z</time>
      </trkpt>
      <trkpt lat="50.77751" lon="2.70873">
        <ele>84.4</ele>
        <time>2023-08-05T12:56:57Z</time>
      </trkpt>
      <trkpt lat="50.77751" lon="2.70875">
        <ele>84.6</ele>
        <time>2023-08-05T12:56:58Z</time>
      </trkpt>
      <trkpt lat="50.77751" lon="2.70877">
        <ele>85</ele>
        <time>2023-08-05T12:56:59Z</time>
      </trkpt>
      <trkpt lat="50.77752" lon="2.70879">
        <ele>85</ele>
        <time>2023-08-05T12:57:00Z</time>
      </trkpt>
      <trkpt lat="50.77752" lon="2.7088">
        <ele>85.4</ele>
        <time>2023-08-05T12:57:01Z</time>
      </trkpt>
      <trkpt lat="50.77752" lon="2.70882">
        <ele>85.4</ele>
        <time>2023-08-05T12:57:02Z</time>
      </trkpt>
      <trkpt lat="50.77753" lon="2.70884">
        <ele>85.8</ele>
        <time>2023-08-05T12:57:03Z</time>
      </trkpt>
      <trkpt lat="50.77753" lon="2.70886">
        <ele>86.2</ele>
        <time>2023-08-05T12:57:04Z</time>
      </trkpt>
      <trkpt lat="50.77754" lon="2.70888">
        <ele>86.6</ele>
        <time>2023-08-05T12:57:05Z</time>
      </trkpt>
      <trkpt lat="50.77754" lon="2.7089">
        <ele>86.8</ele>
        <time>2023-08-05T12:57:06Z</time>
      </trkpt>
      <trkpt lat="50.77754" lon="2.70893">
        <ele>86.8</ele>
        <time>2023-08-05T12:57:07Z</time>
      </trkpt>
      <trkpt lat="50.77755" lon="2.70895">
        <ele>87</ele>
        <time>2023-08-05T12:57:08Z</time>
      </trkpt>
      <trkpt lat="50.77755" lon="2.70898">
        <ele>87.2</ele>
        <time>2023-08-05T12:57:09Z</time>
      </trkpt>
      <trkpt lat="50.77755" lon="2.70901">
        <ele>87.2</ele>
        <time>2023-08-05T12:57:10Z</time>
      </trkpt>
      <trkpt lat="50.77756" lon="2.70903">
        <ele>87.2</ele>
        <time>2023-08-05T12:57:11Z</time>
      </trkpt>
      <trkpt lat="50.77756" lon="2.70905">
        <ele>87.6</ele>
        <time>2023-08-05T12:57:12Z</time>
      </trkpt>
      <trkpt lat="50.77757" lon="2.70908">
        <ele>87.8</ele>
        <time>2023-08-05T12:57:13Z</time>
      </trkpt>
      <trkpt lat="50.77757" lon="2.70911">
        <ele>88</ele>
        <time>2023-08-05T12:57:14Z</time>
      </trkpt>
      <trkpt lat="50.77757" lon="2.70914">
        <ele>88</ele>
        <time>2023-08-05T12:57:15Z</time>
      </trkpt>
      <trkpt lat="50.77757" lon="2.70916">
        <ele>88.2</ele>
        <time>2023-08-05T12:57:16Z</time>
      </trkpt>
      <trkpt lat="50.77758" lon="2.70919">
        <ele>88.4</ele>
        <time>2023-08-05T12:57:17Z</time>
      </trkpt>
      <trkpt lat="50.77758" lon="2.70921">
        <ele>88.6</ele>
        <time>2023-08-05T12:57:18Z</time>
      </trkpt>
      <trkpt lat="50.77758" lon="2.70924">
        <ele>88.6</ele>
        <time>2023-08-05T12:57:19Z</time>
      </trkpt>
      <trkpt lat="50.77759" lon="2.70926">
        <ele>88.8</ele>
        <time>2023-08-05T12:57:20Z</time>
      </trkpt>
      <trkpt lat="50.77759" lon="2.70928">
        <ele>88.8</ele>
        <time>2023-08-05T12:57:21Z</time>
      </trkpt>
      <trkpt lat="50.77759" lon="2.70931">
        <ele>88.8</ele>
        <time>2023-08-05T12:57:22Z</time>
      </trkpt>
      <trkpt lat="50.77759" lon="2.70933">
        <ele>88.8</ele>
        <time>2023-08-05T12:57:23Z</time>
      </trkpt>
      <trkpt lat="50.7776" lon="2.70936">
        <ele>88.8</ele>
        <time>2023-08-05T12:57:24Z</time>
      </trkpt>
      <trkpt lat="50.7776" lon="2.70939">
        <ele>88.8</ele>
        <time>2023-08-05T12:57:25Z</time>
      </trkpt>
      <trkpt lat="50.77761" lon="2.70941">
        <ele>89</ele>
        <time>2023-08-05T12:57:26Z</time>
      </trkpt>
      <trkpt lat="50.77761" lon="2.70943">
        <ele>89.2</ele>
        <time>2023-08-05T12:57:27Z</time>
      </trkpt>
      <trkpt lat="50.77761" lon="2.70946">
        <ele>89.2</ele>
        <time>2023-08-05T12:57:28Z</time>
      </trkpt>
      <trkpt lat="50.77762" lon="2.70949">
        <ele>89.4</ele>
        <time>2023-08-05T12:57:29Z</time>
      </trkpt>
      <trkpt lat="50.77762" lon="2.70951">
        <ele>89.4</ele>
        <time>2023-08-05T12:57:30Z</time>
      </trkpt>
      <trkpt lat="50.77762" lon="2.70953">
        <ele>89.6</ele>
        <time>2023-08-05T12:57:31Z</time>
      </trkpt>
      <trkpt lat="50.77763" lon="2.70956">
        <ele>89.6</ele>
        <time>2023-08-05T12:57:32Z</time>
      </trkpt>
      <trkpt lat="50.77763" lon="2.70958">
        <ele>89.6</ele>
        <time>2023-08-05T12:57:33Z</time>
      </trkpt>
      <trkpt lat="50.77763" lon="2.70961">
        <ele>89.6</ele>
        <time>2023-08-05T12:57:34Z</time>
      </trkpt>
      <trkpt lat="50.77763" lon="2.70963">
        <ele>89.8</ele>
        <time>2023-08-05T12:57:35Z</time>
      </trkpt>
      <trkpt lat="50.77764" lon="2.70965">
        <ele>89.8</ele>
        <time>2023-08-05T12:57:36Z</time>
      </trkpt>
      <trkpt lat="50.77764" lon="2.70967">
        <ele>89.8</ele>
        <time>2023-08-05T12:57:37Z</time>
      </trkpt>
      <trkpt lat="50.77764" lon="2.70969">
        <ele>89.8</ele>
        <time>2023-08-05T12:57:38Z</time>
      </trkpt>
      <trkpt lat="50.77764" lon="2.70971">
        <ele>89.8</ele>
        <time>2023-08-05T12:57:39Z</time>
      </trkpt>
      <trkpt lat="50.77765" lon="2.70973">
        <ele>89.8</ele>
        <time>2023-08-05T12:57:40Z</time>
      </trkpt>
      <trkpt lat="50.77765" lon="2.70975">
        <ele>89.8</ele>
        <time>2023-08-05T12:57:41Z</time>
      </trkpt>
      <trkpt lat="50.77765" lon="2.70977">
        <ele>89.8</ele>
        <time>2023-08-05T12:57:42Z</time>
      </trkpt>
      <trkpt lat="50.77766" lon="2.70979">
        <ele>89.8</ele>
        <time>2023-08-05T12:57:43Z</time>
      </trkpt>
      <trkpt lat="50.77766" lon="2.70981">
        <ele>89.8</ele>
        <time>2023-08-05T12:57:44Z</time>
      </trkpt>
      <trkpt lat="50.77766" lon="2.70984">
        <ele>90</ele>
        <time>2023-08-05T12:57:45Z</time>
      </trkpt>
      <trkpt lat="50.77766" lon="2.70985">
        <ele>90.2</ele>
        <time>2023-08-05T12:57:46Z</time>
      </trkpt>
      <trkpt lat="50.77767" lon="2.70987">
        <ele>90.4</ele>
        <time>2023-08-05T12:57:47Z</time>
      </trkpt>
      <trkpt lat="50.77767" lon="2.70989">
        <ele>90.4</ele>
        <time>2023-08-05T12:57:48Z</time>
      </trkpt>
      <trkpt lat="50.77768" lon="2.70994">
        <ele>91</ele>
        <time>2023-08-05T12:57:51Z</time>
      </trkpt>
      <trkpt lat="50.77768" lon="2.70996">
        <ele>91.2</ele>
        <time>2023-08-05T12:57:52Z</time>
      </trkpt>
      <trkpt lat="50.77769" lon="2.70998">
        <ele>91.2</ele>
        <time>2023-08-05T12:57:53Z</time>
      </trkpt>
      <trkpt lat="50.77769" lon="2.71">
        <ele>91.6</ele>
        <time>2023-08-05T12:57:54Z</time>
      </trkpt>
      <trkpt lat="50.77769" lon="2.71002">
        <ele>91.6</ele>
        <time>2023-08-05T12:57:55Z</time>
      </trkpt>
      <trkpt lat="50.7777" lon="2.71008">
        <ele>92</ele>
        <time>2023-08-05T12:57:58Z</time>
      </trkpt>
      <trkpt lat="50.7777" lon="2.71012">
        <ele>92.6</ele>
        <time>2023-08-05T12:58:00Z</time>
      </trkpt>
      <trkpt lat="50.77771" lon="2.71015">
        <ele>92.8</ele>
        <time>2023-08-05T12:58:01Z</time>
      </trkpt>
      <trkpt lat="50.77771" lon="2.71016">
        <ele>92.8</ele>
        <time>2023-08-05T12:58:02Z</time>
      </trkpt>
      <trkpt lat="50.77772" lon="2.71018">
        <ele>93</ele>
        <time>2023-08-05T12:58:03Z</time>
      </trkpt>
      <trkpt lat="50.77773" lon="2.7102">
        <ele>93.2</ele>
        <time>2023-08-05T12:58:04Z</time>
      </trkpt>
      <trkpt lat="50.77773" lon="2.71022">
        <ele>93.4</ele>
        <time>2023-08-05T12:58:05Z</time>
      </trkpt>
      <trkpt lat="50.77773" lon="2.71024">
        <ele>93.6</ele>
        <time>2023-08-05T12:58:06Z</time>
      </trkpt>
      <trkpt lat="50.77774" lon="2.71025">
        <ele>93.8</ele>
        <time>2023-08-05T12:58:07Z</time>
      </trkpt>
      <trkpt lat="50.77774" lon="2.71027">
        <ele>93.8</ele>
        <time>2023-08-05T12:58:08Z</time>
      </trkpt>
      <trkpt lat="50.77775" lon="2.71029">
        <ele>94</ele>
        <time>2023-08-05T12:58:09Z</time>
      </trkpt>
      <trkpt lat="50.77775" lon="2.71032">
        <ele>94.4</ele>
        <time>2023-08-05T12:58:10Z</time>
      </trkpt>
      <trkpt lat="50.77776" lon="2.71033">
        <ele>94.6</ele>
        <time>2023-08-05T12:58:11Z</time>
      </trkpt>
      <trkpt lat="50.77776" lon="2.71035">
        <ele>94.8</ele>
        <time>2023-08-05T12:58:12Z</time>
      </trkpt>
      <trkpt lat="50.77776" lon="2.71037">
        <ele>94.8</ele>
        <time>2023-08-05T12:58:13Z</time>
      </trkpt>
      <trkpt lat="50.77776" lon="2.71039">
        <ele>95</ele>
        <time>2023-08-05T12:58:14Z</time>
      </trkpt>
      <trkpt lat="50.77777" lon="2.71041">
        <ele>95.6</ele>
        <time>2023-08-05T12:58:15Z</time>
      </trkpt>
      <trkpt lat="50.77777" lon="2.71043">
        <ele>95.6</ele>
        <time>2023-08-05T12:58:16Z</time>
      </trkpt>
      <trkpt lat="50.77777" lon="2.71045">
        <ele>95.8</ele>
        <time>2023-08-05T12:58:17Z</time>
      </trkpt>
      <trkpt lat="50.77778" lon="2.71047">
        <ele>96</ele>
        <time>2023-08-05T12:58:18Z</time>
      </trkpt>
      <trkpt lat="50.77778" lon="2.7105">
        <ele>96.2</ele>
        <time>2023-08-05T12:58:19Z</time>
      </trkpt>
      <trkpt lat="50.77778" lon="2.71052">
        <ele>96.2</ele>
        <time>2023-08-05T12:58:20Z</time>
      </trkpt>
      <trkpt lat="50.77778" lon="2.71053">
        <ele>96.4</ele>
        <time>2023-08-05T12:58:21Z</time>
      </trkpt>
      <trkpt lat="50.77779" lon="2.71055">
        <ele>96.8</ele>
        <time>2023-08-05T12:58:22Z</time>
      </trkpt>
      <trkpt lat="50.77779" lon="2.71057">
        <ele>97.2</ele>
        <time>2023-08-05T12:58:23Z</time>
      </trkpt>
      <trkpt lat="50.77779" lon="2.7106">
        <ele>97.2</ele>
        <time>2023-08-05T12:58:24Z</time>
      </trkpt>
      <trkpt lat="50.77779" lon="2.71062">
        <ele>97.4</ele>
        <time>2023-08-05T12:58:25Z</time>
      </trkpt>
      <trkpt lat="50.77779" lon="2.71064">
        <ele>97.6</ele>
        <time>2023-08-05T12:58:26Z</time>
      </trkpt>
      <trkpt lat="50.77779" lon="2.71065">
        <ele>97.6</ele>
        <time>2023-08-05T12:58:27Z</time>
      </trkpt>
      <trkpt lat="50.7778" lon="2.71067">
        <ele>98</ele>
        <time>2023-08-05T12:58:28Z</time>
      </trkpt>
      <trkpt lat="50.7778" lon="2.7107">
        <ele>98.2</ele>
        <time>2023-08-05T12:58:29Z</time>
      </trkpt>
      <trkpt lat="50.7778" lon="2.71073">
        <ele>98.4</ele>
        <time>2023-08-05T12:58:30Z</time>
      </trkpt>
      <trkpt lat="50.7778" lon="2.71075">
        <ele>98.6</ele>
        <time>2023-08-05T12:58:31Z</time>
      </trkpt>
      <trkpt lat="50.7778" lon="2.71077">
        <ele>98.6</ele>
        <time>2023-08-05T12:58:32Z</time>
      </trkpt>
      <trkpt lat="50.7778" lon="2.71079">
        <ele>99</ele>
        <time>2023-08-05T12:58:33Z</time>
      </trkpt>
      <trkpt lat="50.7778" lon="2.71081">
        <ele>99.2</ele>
        <time>2023-08-05T12:58:34Z</time>
      </trkpt>
      <trkpt lat="50.77781" lon="2.71083">
        <ele>99.4</ele>
        <time>2023-08-05T12:58:35Z</time>
      </trkpt>
      <trkpt lat="50.77781" lon="2.71085">
        <ele>99.4</ele>
        <time>2023-08-05T12:58:36Z</time>
      </trkpt>
      <trkpt lat="50.77781" lon="2.71086">
        <ele>99.6</ele>
        <time>2023-08-05T12:58:37Z</time>
      </trkpt>
      <trkpt lat="50.77782" lon="2.71088">
        <ele>100</ele>
        <time>2023-08-05T12:58:38Z</time>
      </trkpt>
      <trkpt lat="50.77782" lon="2.71091">
        <ele>100.2</ele>
        <time>2023-08-05T12:58:39Z</time>
      </trkpt>
      <trkpt lat="50.77782" lon="2.71092">
        <ele>100.4</ele>
        <time>2023-08-05T12:58:40Z</time>
      </trkpt>
      <trkpt lat="50.77782" lon="2.71094">
        <ele>100.6</ele>
        <time>2023-08-05T12:58:41Z</time>
      </trkpt>
      <trkpt lat="50.77782" lon="2.71096">
        <ele>100.8</ele>
        <time>2023-08-05T12:58:42Z</time>
      </trkpt>
      <trkpt lat="50.77782" lon="2.71097">
        <ele>100.8</ele>
        <time>2023-08-05T12:58:43Z</time>
      </trkpt>
      <trkpt lat="50.77783" lon="2.71099">
        <ele>101</ele>
        <time>2023-08-05T12:58:44Z</time>
      </trkpt>
      <trkpt lat="50.77783" lon="2.71101">
        <ele>101.2</ele>
        <time>2023-08-05T12:58:45Z</time>
      </trkpt>
      <trkpt lat="50.77783" lon="2.71103">
        <ele>101.4</ele>
        <time>2023-08-05T12:58:46Z</time>
      </trkpt>
      <trkpt lat="50.77783" lon="2.71105">
        <ele>101.6</ele>
        <time>2023-08-05T12:58:47Z</time>
      </trkpt>
      <trkpt lat="50.77784" lon="2.71107">
        <ele>101.6</ele>
        <time>2023-08-05T12:58:48Z</time>
      </trkpt>
      <trkpt lat="50.77784" lon="2.7111">
        <ele>101.8</ele>
        <time>2023-08-05T12:58:49Z</time>
      </trkpt>
      <trkpt lat="50.77784" lon="2.71112">
        <ele>101.8</ele>
        <time>2023-08-05T12:58:50Z</time>
      </trkpt>
      <trkpt lat="50.77785" lon="2.71114">
        <ele>102</ele>
        <time>2023-08-05T12:58:51Z</time>
      </trkpt>
      <trkpt lat="50.77785" lon="2.71116">
        <ele>102.2</ele>
        <time>2023-08-05T12:58:52Z</time>
      </trkpt>
      <trkpt lat="50.77785" lon="2.71118">
        <ele>102.4</ele>
        <time>2023-08-05T12:58:53Z</time>
      </trkpt>
      <trkpt lat="50.77785" lon="2.7112">
        <ele>102.6</ele>
        <time>2023-08-05T12:58:54Z</time>
      </trkpt>
      <trkpt lat="50.77786" lon="2.71122">
        <ele>102.6</ele>
        <time>2023-08-05T12:58:55Z</time>
      </trkpt>
      <trkpt lat="50.77786" lon="2.71124">
        <ele>103.2</ele>
        <time>2023-08-05T12:58:56Z</time>
      </trkpt>
      <trkpt lat="50.77786" lon="2.71126">
        <ele>103.2</ele>
        <time>2023-08-05T12:58:57Z</time>
      </trkpt>
      <trkpt lat="50.77786" lon="2.71128">
        <ele>103.6</ele>
        <time>2023-08-05T12:58:58Z</time>
      </trkpt>
      <trkpt lat="50.77787" lon="2.7113">
        <ele>103.6</ele>
        <time>2023-08-05T12:58:59Z</time>
      </trkpt>
      <trkpt lat="50.77787" lon="2.71132">
        <ele>104</ele>
        <time>2023-08-05T12:59:00Z</time>
      </trkpt>
      <trkpt lat="50.77787" lon="2.71135">
        <ele>104.2</ele>
        <time>2023-08-05T12:59:01Z</time>
      </trkpt>
      <trkpt lat="50.77788" lon="2.71136">
        <ele>104.2</ele>
        <time>2023-08-05T12:59:02Z</time>
      </trkpt>
      <trkpt lat="50.77788" lon="2.71138">
        <ele>104.4</ele>
        <time>2023-08-05T12:59:03Z</time>
      </trkpt>
      <trkpt lat="50.77789" lon="2.71141">
        <ele>104.4</ele>
        <time>2023-08-05T12:59:04Z</time>
      </trkpt>
      <trkpt lat="50.77789" lon="2.71142">
        <ele>104.8</ele>
        <time>2023-08-05T12:59:05Z</time>
      </trkpt>
      <trkpt lat="50.77789" lon="2.71144">
        <ele>105</ele>
        <time>2023-08-05T12:59:06Z</time>
      </trkpt>
      <trkpt lat="50.77789" lon="2.71146">
        <ele>105.2</ele>
        <time>2023-08-05T12:59:07Z</time>
      </trkpt>
      <trkpt lat="50.7779" lon="2.71148">
        <ele>105.4</ele>
        <time>2023-08-05T12:59:08Z</time>
      </trkpt>
      <trkpt lat="50.7779" lon="2.7115">
        <ele>105.4</ele>
        <time>2023-08-05T12:59:09Z</time>
      </trkpt>
      <trkpt lat="50.7779" lon="2.71151">
        <ele>105.6</ele>
        <time>2023-08-05T12:59:10Z</time>
      </trkpt>
      <trkpt lat="50.7779" lon="2.71153">
        <ele>105.6</ele>
        <time>2023-08-05T12:59:11Z</time>
      </trkpt>
      <trkpt lat="50.77791" lon="2.71155">
        <ele>105.8</ele>
        <time>2023-08-05T12:59:12Z</time>
      </trkpt>
      <trkpt lat="50.77791" lon="2.71157">
        <ele>105.8</ele>
        <time>2023-08-05T12:59:13Z</time>
      </trkpt>
      <trkpt lat="50.77792" lon="2.7116">
        <ele>106</ele>
        <time>2023-08-05T12:59:14Z</time>
      </trkpt>
      <trkpt lat="50.77792" lon="2.71162">
        <ele>106.4</ele>
        <time>2023-08-05T12:59:15Z</time>
      </trkpt>
      <trkpt lat="50.77792" lon="2.71164">
        <ele>106.6</ele>
        <time>2023-08-05T12:59:16Z</time>
      </trkpt>
      <trkpt lat="50.77793" lon="2.71165">
        <ele>106.8</ele>
        <time>2023-08-05T12:59:17Z</time>
      </trkpt>
      <trkpt lat="50.77793" lon="2.71168">
        <ele>106.8</ele>
        <time>2023-08-05T12:59:18Z</time>
      </trkpt>
      <trkpt lat="50.77794" lon="2.7117">
        <ele>107.2</ele>
        <time>2023-08-05T12:59:19Z</time>
      </trkpt>
      <trkpt lat="50.77794" lon="2.71172">
        <ele>107.2</ele>
        <time>2023-08-05T12:59:20Z</time>
      </trkpt>
      <trkpt lat="50.77794" lon="2.71174">
        <ele>107.4</ele>
        <time>2023-08-05T12:59:21Z</time>
      </trkpt>
      <trkpt lat="50.77795" lon="2.71175">
        <ele>107.4</ele>
        <time>2023-08-05T12:59:22Z</time>
      </trkpt>
      <trkpt lat="50.77795" lon="2.71177">
        <ele>107.6</ele>
        <time>2023-08-05T12:59:23Z</time>
      </trkpt>
      <trkpt lat="50.77796" lon="2.71179">
        <ele>107.8</ele>
        <time>2023-08-05T12:59:24Z</time>
      </trkpt>
      <trkpt lat="50.77796" lon="2.71181">
        <ele>108</ele>
        <time>2023-08-05T12:59:25Z</time>
      </trkpt>
      <trkpt lat="50.77797" lon="2.71183">
        <ele>108.2</ele>
        <time>2023-08-05T12:59:26Z</time>
      </trkpt>
      <trkpt lat="50.77797" lon="2.71185">
        <ele>108.2</ele>
        <time>2023-08-05T12:59:27Z</time>
      </trkpt>
      <trkpt lat="50.77798" lon="2.71187">
        <ele>108.4</ele>
        <time>2023-08-05T12:59:28Z</time>
      </trkpt>
      <trkpt lat="50.77798" lon="2.71189">
        <ele>108.4</ele>
        <time>2023-08-05T12:59:29Z</time>
      </trkpt>
      <trkpt lat="50.77799" lon="2.71191">
        <ele>108.6</ele>
        <time>2023-08-05T12:59:30Z</time>
      </trkpt>
      <trkpt lat="50.778" lon="2.71193">
        <ele>108.8</ele>
        <time>2023-08-05T12:59:31Z</time>
      </trkpt>
      <trkpt lat="50.778" lon="2.71195">
        <ele>109</ele>
        <time>2023-08-05T12:59:32Z</time>
      </trkpt>
      <trkpt lat="50.778" lon="2.71197">
        <ele>109</ele>
        <time>2023-08-05T12:59:33Z</time>
      </trkpt>
      <trkpt lat="50.77801" lon="2.712">
        <ele>109.2</ele>
        <time>2023-08-05T12:59:34Z</time>
      </trkpt>
      <trkpt lat="50.77802" lon="2.71203">
        <ele>109.2</ele>
        <time>2023-08-05T12:59:35Z</time>
      </trkpt>
      <trkpt lat="50.77803" lon="2.71205">
        <ele>109.4</ele>
        <time>2023-08-05T12:59:36Z</time>
      </trkpt>
      <trkpt lat="50.77803" lon="2.71207">
        <ele>109.6</ele>
        <time>2023-08-05T12:59:37Z</time>
      </trkpt>
      <trkpt lat="50.77804" lon="2.71209">
        <ele>109.8</ele>
        <time>2023-08-05T12:59:38Z</time>
      </trkpt>
      <trkpt lat="50.77805" lon="2.71212">
        <ele>109.8</ele>
        <time>2023-08-05T12:59:39Z</time>
      </trkpt>
      <trkpt lat="50.77806" lon="2.71215">
        <ele>110</ele>
        <time>2023-08-05T12:59:40Z</time>
      </trkpt>
      <trkpt lat="50.77807" lon="2.71217">
        <ele>110</ele>
        <time>2023-08-05T12:59:41Z</time>
      </trkpt>
      <trkpt lat="50.77807" lon="2.71219">
        <ele>110.2</ele>
        <time>2023-08-05T12:59:42Z</time>
      </trkpt>
      <trkpt lat="50.77808" lon="2.71222">
        <ele>110.2</ele>
        <time>2023-08-05T12:59:43Z</time>
      </trkpt>
      <trkpt lat="50.77809" lon="2.71225">
        <ele>110.2</ele>
        <time>2023-08-05T12:59:44Z</time>
      </trkpt>
      <trkpt lat="50.7781" lon="2.71227">
        <ele>110.4</ele>
        <time>2023-08-05T12:59:45Z</time>
      </trkpt>
      <trkpt lat="50.77811" lon="2.7123">
        <ele>110.4</ele>
        <time>2023-08-05T12:59:46Z</time>
      </trkpt>
      <trkpt lat="50.77811" lon="2.71232">
        <ele>110.4</ele>
        <time>2023-08-05T12:59:47Z</time>
      </trkpt>
      <trkpt lat="50.77812" lon="2.71234">
        <ele>110.4</ele>
        <time>2023-08-05T12:59:48Z</time>
      </trkpt>
      <trkpt lat="50.77813" lon="2.71236">
        <ele>110.4</ele>
        <time>2023-08-05T12:59:49Z</time>
      </trkpt>
      <trkpt lat="50.77814" lon="2.71239">
        <ele>110.6</ele>
        <time>2023-08-05T12:59:50Z</time>
      </trkpt>
      <trkpt lat="50.77815" lon="2.71241">
        <ele>110.6</ele>
        <time>2023-08-05T12:59:51Z</time>
      </trkpt>
      <trkpt lat="50.77816" lon="2.71243">
        <ele>110.6</ele>
        <time>2023-08-05T12:59:52Z</time>
      </trkpt>
      <trkpt lat="50.77816" lon="2.71245">
        <ele>110.8</ele>
        <time>2023-08-05T12:59:53Z</time>
      </trkpt>
      <trkpt lat="50.77817" lon="2.71247">
        <ele>111</ele>
        <time>2023-08-05T12:59:54Z</time>
      </trkpt>
      <trkpt lat="50.77819" lon="2.7125">
        <ele>111.2</ele>
        <time>2023-08-05T12:59:55Z</time>
      </trkpt>
      <trkpt lat="50.77819" lon="2.71253">
        <ele>111.2</ele>
        <time>2023-08-05T12:59:56Z</time>
      </trkpt>
      <trkpt lat="50.7782" lon="2.71255">
        <ele>111.4</ele>
        <time>2023-08-05T12:59:57Z</time>
      </trkpt>
      <trkpt lat="50.77821" lon="2.71257">
        <ele>111.6</ele>
        <time>2023-08-05T12:59:58Z</time>
      </trkpt>
      <trkpt lat="50.77826" lon="2.71271">
        <ele>112.2</ele>
        <time>2023-08-05T13:00:04Z</time>
      </trkpt>
      <trkpt lat="50.77827" lon="2.71274">
        <ele>112.4</ele>
        <time>2023-08-05T13:00:05Z</time>
      </trkpt>
      <trkpt lat="50.77828" lon="2.71277">
        <ele>112.6</ele>
        <time>2023-08-05T13:00:06Z</time>
      </trkpt>
      <trkpt lat="50.77828" lon="2.71279">
        <ele>112.8</ele>
        <time>2023-08-05T13:00:07Z</time>
      </trkpt>
      <trkpt lat="50.77829" lon="2.71282">
        <ele>112.8</ele>
        <time>2023-08-05T13:00:08Z</time>
      </trkpt>
      <trkpt lat="50.7783" lon="2.71284">
        <ele>113</ele>
        <time>2023-08-05T13:00:09Z</time>
      </trkpt>
      <trkpt lat="50.77831" lon="2.71288">
        <ele>113.2</ele>
        <time>2023-08-05T13:00:10Z</time>
      </trkpt>
      <trkpt lat="50.77832" lon="2.71291">
        <ele>113.2</ele>
        <time>2023-08-05T13:00:11Z</time>
      </trkpt>
      <trkpt lat="50.77833" lon="2.71293">
        <ele>113.4</ele>
        <time>2023-08-05T13:00:12Z</time>
      </trkpt>
      <trkpt lat="50.77834" lon="2.71296">
        <ele>113.6</ele>
        <time>2023-08-05T13:00:13Z</time>
      </trkpt>
      <trkpt lat="50.77835" lon="2.71299">
        <ele>113.6</ele>
        <time>2023-08-05T13:00:14Z</time>
      </trkpt>
      <trkpt lat="50.77835" lon="2.71302">
        <ele>113.6</ele>
        <time>2023-08-05T13:00:15Z</time>
      </trkpt>
      <trkpt lat="50.77836" lon="2.71305">
        <ele>113.8</ele>
        <time>2023-08-05T13:00:16Z</time>
      </trkpt>
      <trkpt lat="50.77837" lon="2.71308">
        <ele>113.8</ele>
        <time>2023-08-05T13:00:17Z</time>
      </trkpt>
      <trkpt lat="50.77838" lon="2.71311">
        <ele>113.8</ele>
        <time>2023-08-05T13:00:18Z</time>
      </trkpt>
      <trkpt lat="50.77839" lon="2.71314">
        <ele>114</ele>
        <time>2023-08-05T13:00:19Z</time>
      </trkpt>
      <trkpt lat="50.7784" lon="2.71318">
        <ele>114</ele>
        <time>2023-08-05T13:00:20Z</time>
      </trkpt>
      <trkpt lat="50.77842" lon="2.71322">
        <ele>114</ele>
        <time>2023-08-05T13:00:21Z</time>
      </trkpt>
      <trkpt lat="50.77842" lon="2.71325">
        <ele>114.2</ele>
        <time>2023-08-05T13:00:22Z</time>
      </trkpt>
      <trkpt lat="50.77843" lon="2.71328">
        <ele>114.4</ele>
        <time>2023-08-05T13:00:23Z</time>
      </trkpt>
      <trkpt lat="50.77845" lon="2.71332">
        <ele>114.4</ele>
        <time>2023-08-05T13:00:24Z</time>
      </trkpt>
      <trkpt lat="50.77846" lon="2.71336">
        <ele>114.4</ele>
        <time>2023-08-05T13:00:25Z</time>
      </trkpt>
      <trkpt lat="50.77847" lon="2.7134">
        <ele>114.4</ele>
        <time>2023-08-05T13:00:26Z</time>
      </trkpt>
      <trkpt lat="50.77849" lon="2.71343">
        <ele>114.4</ele>
        <time>2023-08-05T13:00:27Z</time>
      </trkpt>
      <trkpt lat="50.7785" lon="2.71347">
        <ele>114.2</ele>
        <time>2023-08-05T13:00:28Z</time>
      </trkpt>
      <trkpt lat="50.77864" lon="2.71378">
        <ele>114.2</ele>
        <time>2023-08-05T13:00:36Z</time>
      </trkpt>
      <trkpt lat="50.77872" lon="2.71403">
        <ele>114.2</ele>
        <time>2023-08-05T13:00:42Z</time>
      </trkpt>
      <trkpt lat="50.77876" lon="2.71415">
        <ele>114.2</ele>
        <time>2023-08-05T13:00:45Z</time>
      </trkpt>
      <trkpt lat="50.77877" lon="2.71419">
        <ele>114.4</ele>
        <time>2023-08-05T13:00:46Z</time>
      </trkpt>
      <trkpt lat="50.77879" lon="2.71423">
        <ele>114.4</ele>
        <time>2023-08-05T13:00:47Z</time>
      </trkpt>
      <trkpt lat="50.7788" lon="2.71426">
        <ele>114.4</ele>
        <time>2023-08-05T13:00:48Z</time>
      </trkpt>
      <trkpt lat="50.77881" lon="2.7143">
        <ele>114.4</ele>
        <time>2023-08-05T13:00:49Z</time>
      </trkpt>
      <trkpt lat="50.77883" lon="2.71435">
        <ele>114.4</ele>
        <time>2023-08-05T13:00:50Z</time>
      </trkpt>
      <trkpt lat="50.77884" lon="2.71438">
        <ele>114.4</ele>
        <time>2023-08-05T13:00:51Z</time>
      </trkpt>
      <trkpt lat="50.77885" lon="2.71442">
        <ele>114.4</ele>
        <time>2023-08-05T13:00:52Z</time>
      </trkpt>
      <trkpt lat="50.77887" lon="2.71445">
        <ele>114.4</ele>
        <time>2023-08-05T13:00:53Z</time>
      </trkpt>
      <trkpt lat="50.77888" lon="2.71449">
        <ele>114.4</ele>
        <time>2023-08-05T13:00:54Z</time>
      </trkpt>
      <trkpt lat="50.7789" lon="2.71453">
        <ele>114.4</ele>
        <time>2023-08-05T13:00:55Z</time>
      </trkpt>
      <trkpt lat="50.77897" lon="2.71471">
        <ele>114.6</ele>
        <time>2023-08-05T13:01:00Z</time>
      </trkpt>
      <trkpt lat="50.77908" lon="2.71494">
        <ele>114.8</ele>
        <time>2023-08-05T13:01:06Z</time>
      </trkpt>
      <trkpt lat="50.77911" lon="2.71502">
        <ele>115</ele>
        <time>2023-08-05T13:01:08Z</time>
      </trkpt>
      <trkpt lat="50.77918" lon="2.7154">
        <ele>115.4</ele>
        <time>2023-08-05T13:01:16Z</time>
      </trkpt>
      <trkpt lat="50.7792" lon="2.71553">
        <ele>115.4</ele>
        <time>2023-08-05T13:01:19Z</time>
      </trkpt>
      <trkpt lat="50.77921" lon="2.71558">
        <ele>115.4</ele>
        <time>2023-08-05T13:01:20Z</time>
      </trkpt>
      <trkpt lat="50.77922" lon="2.71562">
        <ele>115.6</ele>
        <time>2023-08-05T13:01:21Z</time>
      </trkpt>
      <trkpt lat="50.77923" lon="2.71565">
        <ele>115.6</ele>
        <time>2023-08-05T13:01:22Z</time>
      </trkpt>
      <trkpt lat="50.77924" lon="2.7157">
        <ele>115.8</ele>
        <time>2023-08-05T13:01:23Z</time>
      </trkpt>
      <trkpt lat="50.77925" lon="2.71575">
        <ele>115.8</ele>
        <time>2023-08-05T13:01:24Z</time>
      </trkpt>
      <trkpt lat="50.77925" lon="2.71579">
        <ele>115.8</ele>
        <time>2023-08-05T13:01:25Z</time>
      </trkpt>
      <trkpt lat="50.77929" lon="2.71606">
        <ele>116.2</ele>
        <time>2023-08-05T13:01:31Z</time>
      </trkpt>
      <trkpt lat="50.7793" lon="2.71613">
        <ele>116.2</ele>
        <time>2023-08-05T13:01:33Z</time>
      </trkpt>
      <trkpt lat="50.77931" lon="2.71617">
        <ele>116.2</ele>
        <time>2023-08-05T13:01:34Z</time>
      </trkpt>
      <trkpt lat="50.77931" lon="2.71622">
        <ele>116.2</ele>
        <time>2023-08-05T13:01:35Z</time>
      </trkpt>
      <trkpt lat="50.77931" lon="2.71627">
        <ele>116.2</ele>
        <time>2023-08-05T13:01:36Z</time>
      </trkpt>
      <trkpt lat="50.77932" lon="2.7163">
        <ele>116.2</ele>
        <time>2023-08-05T13:01:37Z</time>
      </trkpt>
      <trkpt lat="50.77933" lon="2.71653">
        <ele>116.2</ele>
        <time>2023-08-05T13:01:43Z</time>
      </trkpt>
      <trkpt lat="50.77933" lon="2.71655">
        <ele>116.2</ele>
        <time>2023-08-05T13:01:44Z</time>
      </trkpt>
      <trkpt lat="50.77934" lon="2.71659">
        <ele>116.2</ele>
        <time>2023-08-05T13:01:45Z</time>
      </trkpt>
      <trkpt lat="50.77935" lon="2.71662">
        <ele>116.2</ele>
        <time>2023-08-05T13:01:46Z</time>
      </trkpt>
      <trkpt lat="50.77936" lon="2.71665">
        <ele>116.2</ele>
        <time>2023-08-05T13:01:47Z</time>
      </trkpt>
      <trkpt lat="50.77936" lon="2.71668">
        <ele>116.4</ele>
        <time>2023-08-05T13:01:48Z</time>
      </trkpt>
      <trkpt lat="50.77937" lon="2.71671">
        <ele>116.4</ele>
        <time>2023-08-05T13:01:49Z</time>
      </trkpt>
      <trkpt lat="50.77937" lon="2.71675">
        <ele>116.4</ele>
        <time>2023-08-05T13:01:50Z</time>
      </trkpt>
      <trkpt lat="50.77938" lon="2.71678">
        <ele>116.4</ele>
        <time>2023-08-05T13:01:51Z</time>
      </trkpt>
      <trkpt lat="50.77944" lon="2.71711">
        <ele>116.6</ele>
        <time>2023-08-05T13:02:01Z</time>
      </trkpt>
      <trkpt lat="50.77946" lon="2.7172">
        <ele>116.6</ele>
        <time>2023-08-05T13:02:04Z</time>
      </trkpt>
      <trkpt lat="50.77953" lon="2.71748">
        <ele>117.2</ele>
        <time>2023-08-05T13:02:13Z</time>
      </trkpt>
      <trkpt lat="50.77955" lon="2.71755">
        <ele>117.2</ele>
        <time>2023-08-05T13:02:15Z</time>
      </trkpt>
      <trkpt lat="50.77956" lon="2.7176">
        <ele>117.4</ele>
        <time>2023-08-05T13:02:17Z</time>
      </trkpt>
      <trkpt lat="50.77957" lon="2.71762">
        <ele>117.6</ele>
        <time>2023-08-05T13:02:18Z</time>
      </trkpt>
      <trkpt lat="50.77957" lon="2.71764">
        <ele>117.6</ele>
        <time>2023-08-05T13:02:19Z</time>
      </trkpt>
      <trkpt lat="50.77958" lon="2.71767">
        <ele>117.8</ele>
        <time>2023-08-05T13:02:20Z</time>
      </trkpt>
      <trkpt lat="50.77958" lon="2.7177">
        <ele>117.8</ele>
        <time>2023-08-05T13:02:21Z</time>
      </trkpt>
      <trkpt lat="50.77959" lon="2.71772">
        <ele>118</ele>
        <time>2023-08-05T13:02:22Z</time>
      </trkpt>
      <trkpt lat="50.77959" lon="2.71774">
        <ele>118.2</ele>
        <time>2023-08-05T13:02:23Z</time>
      </trkpt>
      <trkpt lat="50.7796" lon="2.71776">
        <ele>118.4</ele>
        <time>2023-08-05T13:02:24Z</time>
      </trkpt>
      <trkpt lat="50.77961" lon="2.71779">
        <ele>118.6</ele>
        <time>2023-08-05T13:02:25Z</time>
      </trkpt>
      <trkpt lat="50.77961" lon="2.71781">
        <ele>118.8</ele>
        <time>2023-08-05T13:02:26Z</time>
      </trkpt>
      <trkpt lat="50.77962" lon="2.71783">
        <ele>119</ele>
        <time>2023-08-05T13:02:27Z</time>
      </trkpt>
      <trkpt lat="50.77962" lon="2.71785">
        <ele>119</ele>
        <time>2023-08-05T13:02:28Z</time>
      </trkpt>
      <trkpt lat="50.77963" lon="2.71788">
        <ele>119.2</ele>
        <time>2023-08-05T13:02:29Z</time>
      </trkpt>
      <trkpt lat="50.77963" lon="2.7179">
        <ele>119.4</ele>
        <time>2023-08-05T13:02:30Z</time>
      </trkpt>
      <trkpt lat="50.77964" lon="2.71792">
        <ele>119.6</ele>
        <time>2023-08-05T13:02:31Z</time>
      </trkpt>
      <trkpt lat="50.77965" lon="2.71795">
        <ele>119.8</ele>
        <time>2023-08-05T13:02:32Z</time>
      </trkpt>
      <trkpt lat="50.77965" lon="2.71797">
        <ele>120</ele>
        <time>2023-08-05T13:02:33Z</time>
      </trkpt>
      <trkpt lat="50.77965" lon="2.71799">
        <ele>120.2</ele>
        <time>2023-08-05T13:02:34Z</time>
      </trkpt>
      <trkpt lat="50.77966" lon="2.71803">
        <ele>120.2</ele>
        <time>2023-08-05T13:02:35Z</time>
      </trkpt>
      <trkpt lat="50.77967" lon="2.71805">
        <ele>120.4</ele>
        <time>2023-08-05T13:02:36Z</time>
      </trkpt>
      <trkpt lat="50.77967" lon="2.71807">
        <ele>120.4</ele>
        <time>2023-08-05T13:02:37Z</time>
      </trkpt>
      <trkpt lat="50.77967" lon="2.7181">
        <ele>120.6</ele>
        <time>2023-08-05T13:02:38Z</time>
      </trkpt>
      <trkpt lat="50.77968" lon="2.71812">
        <ele>121</ele>
        <time>2023-08-05T13:02:39Z</time>
      </trkpt>
      <trkpt lat="50.77969" lon="2.71814">
        <ele>121.2</ele>
        <time>2023-08-05T13:02:40Z</time>
      </trkpt>
      <trkpt lat="50.77969" lon="2.71816">
        <ele>121.4</ele>
        <time>2023-08-05T13:02:41Z</time>
      </trkpt>
      <trkpt lat="50.7797" lon="2.71819">
        <ele>121.6</ele>
        <time>2023-08-05T13:02:42Z</time>
      </trkpt>
      <trkpt lat="50.7797" lon="2.71821">
        <ele>121.8</ele>
        <time>2023-08-05T13:02:43Z</time>
      </trkpt>
      <trkpt lat="50.77971" lon="2.71823">
        <ele>121.8</ele>
        <time>2023-08-05T13:02:44Z</time>
      </trkpt>
      <trkpt lat="50.77971" lon="2.71826">
        <ele>122</ele>
        <time>2023-08-05T13:02:45Z</time>
      </trkpt>
      <trkpt lat="50.77972" lon="2.71829">
        <ele>122.2</ele>
        <time>2023-08-05T13:02:46Z</time>
      </trkpt>
      <trkpt lat="50.77972" lon="2.71831">
        <ele>122.4</ele>
        <time>2023-08-05T13:02:47Z</time>
      </trkpt>
      <trkpt lat="50.77972" lon="2.71833">
        <ele>122.6</ele>
        <time>2023-08-05T13:02:48Z</time>
      </trkpt>
      <trkpt lat="50.77972" lon="2.71836">
        <ele>123.2</ele>
        <time>2023-08-05T13:02:49Z</time>
      </trkpt>
      <trkpt lat="50.77972" lon="2.71838">
        <ele>123.6</ele>
        <time>2023-08-05T13:02:50Z</time>
      </trkpt>
      <trkpt lat="50.77972" lon="2.71841">
        <ele>123.8</ele>
        <time>2023-08-05T13:02:51Z</time>
      </trkpt>
      <trkpt lat="50.77972" lon="2.71843">
        <ele>124</ele>
        <time>2023-08-05T13:02:52Z</time>
      </trkpt>
      <trkpt lat="50.77973" lon="2.71845">
        <ele>124.2</ele>
        <time>2023-08-05T13:02:53Z</time>
      </trkpt>
      <trkpt lat="50.77973" lon="2.71847">
        <ele>124.2</ele>
        <time>2023-08-05T13:02:54Z</time>
      </trkpt>
      <trkpt lat="50.77973" lon="2.7185">
        <ele>124.6</ele>
        <time>2023-08-05T13:02:55Z</time>
      </trkpt>
      <trkpt lat="50.77973" lon="2.71852">
        <ele>124.6</ele>
        <time>2023-08-05T13:02:56Z</time>
      </trkpt>
      <trkpt lat="50.77973" lon="2.71854">
        <ele>124.8</ele>
        <time>2023-08-05T13:02:57Z</time>
      </trkpt>
      <trkpt lat="50.77973" lon="2.71856">
        <ele>125</ele>
        <time>2023-08-05T13:02:58Z</time>
      </trkpt>
      <trkpt lat="50.77973" lon="2.71858">
        <ele>125.2</ele>
        <time>2023-08-05T13:02:59Z</time>
      </trkpt>
      <trkpt lat="50.77974" lon="2.7186">
        <ele>125.2</ele>
        <time>2023-08-05T13:03:00Z</time>
      </trkpt>
      <trkpt lat="50.77974" lon="2.71862">
        <ele>125.4</ele>
        <time>2023-08-05T13:03:01Z</time>
      </trkpt>
      <trkpt lat="50.77974" lon="2.71864">
        <ele>125.6</ele>
        <time>2023-08-05T13:03:02Z</time>
      </trkpt>
      <trkpt lat="50.77975" lon="2.71866">
        <ele>125.8</ele>
        <time>2023-08-05T13:03:03Z</time>
      </trkpt>
      <trkpt lat="50.77975" lon="2.71868">
        <ele>125.8</ele>
        <time>2023-08-05T13:03:04Z</time>
      </trkpt>
      <trkpt lat="50.77975" lon="2.7187">
        <ele>126</ele>
        <time>2023-08-05T13:03:05Z</time>
      </trkpt>
      <trkpt lat="50.77975" lon="2.71873">
        <ele>126.2</ele>
        <time>2023-08-05T13:03:06Z</time>
      </trkpt>
      <trkpt lat="50.77976" lon="2.71875">
        <ele>126.2</ele>
        <time>2023-08-05T13:03:07Z</time>
      </trkpt>
      <trkpt lat="50.77976" lon="2.71876">
        <ele>126.4</ele>
        <time>2023-08-05T13:03:08Z</time>
      </trkpt>
      <trkpt lat="50.77976" lon="2.71879">
        <ele>126.6</ele>
        <time>2023-08-05T13:03:09Z</time>
      </trkpt>
      <trkpt lat="50.77976" lon="2.71881">
        <ele>126.8</ele>
        <time>2023-08-05T13:03:10Z</time>
      </trkpt>
      <trkpt lat="50.77977" lon="2.71884">
        <ele>126.8</ele>
        <time>2023-08-05T13:03:11Z</time>
      </trkpt>
      <trkpt lat="50.77977" lon="2.71886">
        <ele>126.8</ele>
        <time>2023-08-05T13:03:12Z</time>
      </trkpt>
      <trkpt lat="50.77977" lon="2.71888">
        <ele>127</ele>
        <time>2023-08-05T13:03:13Z</time>
      </trkpt>
      <trkpt lat="50.77978" lon="2.7189">
        <ele>127.2</ele>
        <time>2023-08-05T13:03:14Z</time>
      </trkpt>
      <trkpt lat="50.77978" lon="2.71893">
        <ele>127.2</ele>
        <time>2023-08-05T13:03:15Z</time>
      </trkpt>
      <trkpt lat="50.77979" lon="2.71895">
        <ele>127.4</ele>
        <time>2023-08-05T13:03:16Z</time>
      </trkpt>
      <trkpt lat="50.77979" lon="2.71897">
        <ele>127.4</ele>
        <time>2023-08-05T13:03:17Z</time>
      </trkpt>
      <trkpt lat="50.77979" lon="2.71898">
        <ele>127.4</ele>
        <time>2023-08-05T13:03:18Z</time>
      </trkpt>
      <trkpt lat="50.7798" lon="2.719">
        <ele>127.6</ele>
        <time>2023-08-05T13:03:19Z</time>
      </trkpt>
      <trkpt lat="50.7798" lon="2.71902">
        <ele>127.8</ele>
        <time>2023-08-05T13:03:20Z</time>
      </trkpt>
      <trkpt lat="50.77981" lon="2.71904">
        <ele>127.8</ele>
        <time>2023-08-05T13:03:21Z</time>
      </trkpt>
      <trkpt lat="50.77981" lon="2.71907">
        <ele>128</ele>
        <time>2023-08-05T13:03:22Z</time>
      </trkpt>
      <trkpt lat="50.77982" lon="2.71909">
        <ele>128</ele>
        <time>2023-08-05T13:03:23Z</time>
      </trkpt>
      <trkpt lat="50.77982" lon="2.71911">
        <ele>128.2</ele>
        <time>2023-08-05T13:03:24Z</time>
      </trkpt>
      <trkpt lat="50.77982" lon="2.71913">
        <ele>128.2</ele>
        <time>2023-08-05T13:03:25Z</time>
      </trkpt>
      <trkpt lat="50.77982" lon="2.71915">
        <ele>128.2</ele>
        <time>2023-08-05T13:03:26Z</time>
      </trkpt>
      <trkpt lat="50.77982" lon="2.71916">
        <ele>128.2</ele>
        <time>2023-08-05T13:03:27Z</time>
      </trkpt>
      <trkpt lat="50.77983" lon="2.71919">
        <ele>128.2</ele>
        <time>2023-08-05T13:03:28Z</time>
      </trkpt>
      <trkpt lat="50.77984" lon="2.71923">
        <ele>128.2</ele>
        <time>2023-08-05T13:03:29Z</time>
      </trkpt>
      <trkpt lat="50.77984" lon="2.71927">
        <ele>128.2</ele>
        <time>2023-08-05T13:03:30Z</time>
      </trkpt>
      <trkpt lat="50.77984" lon="2.71931">
        <ele>128.2</ele>
        <time>2023-08-05T13:03:31Z</time>
      </trkpt>
      <trkpt lat="50.77985" lon="2.71936">
        <ele>128.2</ele>
        <time>2023-08-05T13:03:32Z</time>
      </trkpt>
      <trkpt lat="50.77986" lon="2.7194">
        <ele>128</ele>
        <time>2023-08-05T13:03:33Z</time>
      </trkpt>
      <trkpt lat="50.77987" lon="2.71943">
        <ele>128</ele>
        <time>2023-08-05T13:03:34Z</time>
      </trkpt>
      <trkpt lat="50.77988" lon="2.71945">
        <ele>127.8</ele>
        <time>2023-08-05T13:03:35Z</time>
      </trkpt>
      <trkpt lat="50.77989" lon="2.71947">
        <ele>127.8</ele>
        <time>2023-08-05T13:03:36Z</time>
      </trkpt>
      <trkpt lat="50.7799" lon="2.7195">
        <ele>127.8</ele>
        <time>2023-08-05T13:03:37Z</time>
      </trkpt>
      <trkpt lat="50.77991" lon="2.71953">
        <ele>127.8</ele>
        <time>2023-08-05T13:03:38Z</time>
      </trkpt>
      <trkpt lat="50.77992" lon="2.71956">
        <ele>127.8</ele>
        <time>2023-08-05T13:03:39Z</time>
      </trkpt>
      <trkpt lat="50.77993" lon="2.71958">
        <ele>127.8</ele>
        <time>2023-08-05T13:03:40Z</time>
      </trkpt>
      <trkpt lat="50.77994" lon="2.71961">
        <ele>127.8</ele>
        <time>2023-08-05T13:03:41Z</time>
      </trkpt>
      <trkpt lat="50.77995" lon="2.71964">
        <ele>127.8</ele>
        <time>2023-08-05T13:03:42Z</time>
      </trkpt>
      <trkpt lat="50.77996" lon="2.71966">
        <ele>128</ele>
        <time>2023-08-05T13:03:43Z</time>
      </trkpt>
      <trkpt lat="50.77997" lon="2.71969">
        <ele>128.2</ele>
        <time>2023-08-05T13:03:44Z</time>
      </trkpt>
      <trkpt lat="50.77997" lon="2.71971">
        <ele>128.4</ele>
        <time>2023-08-05T13:03:45Z</time>
      </trkpt>
      <trkpt lat="50.77997" lon="2.71978">
        <ele>128.4</ele>
        <time>2023-08-05T13:03:47Z</time>
      </trkpt>
      <trkpt lat="50.77997" lon="2.71981">
        <ele>128.6</ele>
        <time>2023-08-05T13:03:48Z</time>
      </trkpt>
      <trkpt lat="50.77996" lon="2.71985">
        <ele>128.8</ele>
        <time>2023-08-05T13:03:49Z</time>
      </trkpt>
      <trkpt lat="50.77996" lon="2.71988">
        <ele>129</ele>
        <time>2023-08-05T13:03:50Z</time>
      </trkpt>
      <trkpt lat="50.77996" lon="2.71991">
        <ele>129</ele>
        <time>2023-08-05T13:03:51Z</time>
      </trkpt>
      <trkpt lat="50.77997" lon="2.71993">
        <ele>129</ele>
        <time>2023-08-05T13:03:52Z</time>
      </trkpt>
      <trkpt lat="50.77997" lon="2.71995">
        <ele>129.2</ele>
        <time>2023-08-05T13:03:53Z</time>
      </trkpt>
      <trkpt lat="50.77998" lon="2.71997">
        <ele>129.2</ele>
        <time>2023-08-05T13:03:54Z</time>
      </trkpt>
      <trkpt lat="50.77999" lon="2.72">
        <ele>129.4</ele>
        <time>2023-08-05T13:03:55Z</time>
      </trkpt>
      <trkpt lat="50.78" lon="2.72004">
        <ele>129.6</ele>
        <time>2023-08-05T13:03:57Z</time>
      </trkpt>
      <trkpt lat="50.78001" lon="2.72011">
        <ele>129.8</ele>
        <time>2023-08-05T13:04:00Z</time>
      </trkpt>
      <trkpt lat="50.78002" lon="2.72013">
        <ele>130</ele>
        <time>2023-08-05T13:04:01Z</time>
      </trkpt>
      <trkpt lat="50.78002" lon="2.72016">
        <ele>130</ele>
        <time>2023-08-05T13:04:02Z</time>
      </trkpt>
      <trkpt lat="50.78003" lon="2.72018">
        <ele>130.2</ele>
        <time>2023-08-05T13:04:03Z</time>
      </trkpt>
      <trkpt lat="50.78003" lon="2.72026">
        <ele>130.8</ele>
        <time>2023-08-05T13:04:06Z</time>
      </trkpt>
      <trkpt lat="50.78003" lon="2.72029">
        <ele>130.8</ele>
        <time>2023-08-05T13:04:07Z</time>
      </trkpt>
      <trkpt lat="50.78004" lon="2.72041">
        <ele>131.8</ele>
        <time>2023-08-05T13:04:12Z</time>
      </trkpt>
      <trkpt lat="50.78004" lon="2.72044">
        <ele>131.8</ele>
        <time>2023-08-05T13:04:13Z</time>
      </trkpt>
      <trkpt lat="50.78004" lon="2.72047">
        <ele>131.8</ele>
        <time>2023-08-05T13:04:14Z</time>
      </trkpt>
      <trkpt lat="50.78004" lon="2.72049">
        <ele>132.2</ele>
        <time>2023-08-05T13:04:15Z</time>
      </trkpt>
      <trkpt lat="50.78004" lon="2.72052">
        <ele>132.2</ele>
        <time>2023-08-05T13:04:16Z</time>
      </trkpt>
      <trkpt lat="50.78004" lon="2.72054">
        <ele>132.4</ele>
        <time>2023-08-05T13:04:17Z</time>
      </trkpt>
      <trkpt lat="50.78004" lon="2.72057">
        <ele>132.6</ele>
        <time>2023-08-05T13:04:18Z</time>
      </trkpt>
      <trkpt lat="50.78004" lon="2.72059">
        <ele>132.8</ele>
        <time>2023-08-05T13:04:19Z</time>
      </trkpt>
      <trkpt lat="50.78004" lon="2.72062">
        <ele>132.8</ele>
        <time>2023-08-05T13:04:20Z</time>
      </trkpt>
      <trkpt lat="50.78004" lon="2.72064">
        <ele>133</ele>
        <time>2023-08-05T13:04:21Z</time>
      </trkpt>
      <trkpt lat="50.78004" lon="2.72067">
        <ele>133.2</ele>
        <time>2023-08-05T13:04:22Z</time>
      </trkpt>
      <trkpt lat="50.78003" lon="2.72069">
        <ele>133.4</ele>
        <time>2023-08-05T13:04:23Z</time>
      </trkpt>
      <trkpt lat="50.78003" lon="2.72072">
        <ele>133.6</ele>
        <time>2023-08-05T13:04:24Z</time>
      </trkpt>
      <trkpt lat="50.78003" lon="2.72074">
        <ele>133.6</ele>
        <time>2023-08-05T13:04:25Z</time>
      </trkpt>
      <trkpt lat="50.78003" lon="2.72077">
        <ele>133.8</ele>
        <time>2023-08-05T13:04:26Z</time>
      </trkpt>
      <trkpt lat="50.78002" lon="2.72079">
        <ele>134.2</ele>
        <time>2023-08-05T13:04:27Z</time>
      </trkpt>
      <trkpt lat="50.78002" lon="2.72082">
        <ele>134.4</ele>
        <time>2023-08-05T13:04:28Z</time>
      </trkpt>
      <trkpt lat="50.78001" lon="2.72084">
        <ele>134.6</ele>
        <time>2023-08-05T13:04:29Z</time>
      </trkpt>
      <trkpt lat="50.78001" lon="2.72087">
        <ele>134.8</ele>
        <time>2023-08-05T13:04:30Z</time>
      </trkpt>
      <trkpt lat="50.78" lon="2.72089">
        <ele>135</ele>
        <time>2023-08-05T13:04:31Z</time>
      </trkpt>
      <trkpt lat="50.78" lon="2.72092">
        <ele>135.2</ele>
        <time>2023-08-05T13:04:32Z</time>
      </trkpt>
      <trkpt lat="50.78" lon="2.72095">
        <ele>135.4</ele>
        <time>2023-08-05T13:04:33Z</time>
      </trkpt>
      <trkpt lat="50.77999" lon="2.72097">
        <ele>135.6</ele>
        <time>2023-08-05T13:04:34Z</time>
      </trkpt>
      <trkpt lat="50.77999" lon="2.721">
        <ele>135.8</ele>
        <time>2023-08-05T13:04:35Z</time>
      </trkpt>
      <trkpt lat="50.77998" lon="2.72102">
        <ele>136</ele>
        <time>2023-08-05T13:04:36Z</time>
      </trkpt>
      <trkpt lat="50.77998" lon="2.72105">
        <ele>136</ele>
        <time>2023-08-05T13:04:37Z</time>
      </trkpt>
      <trkpt lat="50.77998" lon="2.72107">
        <ele>136.2</ele>
        <time>2023-08-05T13:04:38Z</time>
      </trkpt>
      <trkpt lat="50.77997" lon="2.7211">
        <ele>136.4</ele>
        <time>2023-08-05T13:04:39Z</time>
      </trkpt>
      <trkpt lat="50.77997" lon="2.72112">
        <ele>136.6</ele>
        <time>2023-08-05T13:04:40Z</time>
      </trkpt>
      <trkpt lat="50.77997" lon="2.72115">
        <ele>136.8</ele>
        <time>2023-08-05T13:04:41Z</time>
      </trkpt>
      <trkpt lat="50.77997" lon="2.72118">
        <ele>137</ele>
        <time>2023-08-05T13:04:42Z</time>
      </trkpt>
      <trkpt lat="50.77996" lon="2.7212">
        <ele>137</ele>
        <time>2023-08-05T13:04:43Z</time>
      </trkpt>
      <trkpt lat="50.77997" lon="2.72122">
        <ele>137.2</ele>
        <time>2023-08-05T13:04:44Z</time>
      </trkpt>
      <trkpt lat="50.77996" lon="2.72124">
        <ele>137.6</ele>
        <time>2023-08-05T13:04:45Z</time>
      </trkpt>
      <trkpt lat="50.77996" lon="2.72126">
        <ele>137.6</ele>
        <time>2023-08-05T13:04:46Z</time>
      </trkpt>
      <trkpt lat="50.77996" lon="2.7213">
        <ele>137.8</ele>
        <time>2023-08-05T13:04:47Z</time>
      </trkpt>
      <trkpt lat="50.77996" lon="2.72132">
        <ele>137.8</ele>
        <time>2023-08-05T13:04:48Z</time>
      </trkpt>
      <trkpt lat="50.77996" lon="2.72135">
        <ele>138</ele>
        <time>2023-08-05T13:04:49Z</time>
      </trkpt>
      <trkpt lat="50.77997" lon="2.72137">
        <ele>138.2</ele>
        <time>2023-08-05T13:04:50Z</time>
      </trkpt>
      <trkpt lat="50.77997" lon="2.72139">
        <ele>138.4</ele>
        <time>2023-08-05T13:04:51Z</time>
      </trkpt>
      <trkpt lat="50.77997" lon="2.72142">
        <ele>138.8</ele>
        <time>2023-08-05T13:04:52Z</time>
      </trkpt>
      <trkpt lat="50.77997" lon="2.72144">
        <ele>138.8</ele>
        <time>2023-08-05T13:04:53Z</time>
      </trkpt>
      <trkpt lat="50.77997" lon="2.72147">
        <ele>139</ele>
        <time>2023-08-05T13:04:54Z</time>
      </trkpt>
      <trkpt lat="50.77997" lon="2.72149">
        <ele>139.2</ele>
        <time>2023-08-05T13:04:55Z</time>
      </trkpt>
      <trkpt lat="50.77997" lon="2.72152">
        <ele>139.4</ele>
        <time>2023-08-05T13:04:56Z</time>
      </trkpt>
      <trkpt lat="50.77998" lon="2.72154">
        <ele>139.4</ele>
        <time>2023-08-05T13:04:57Z</time>
      </trkpt>
      <trkpt lat="50.77998" lon="2.72158">
        <ele>139.4</ele>
        <time>2023-08-05T13:04:58Z</time>
      </trkpt>
      <trkpt lat="50.77999" lon="2.7216">
        <ele>139.8</ele>
        <time>2023-08-05T13:04:59Z</time>
      </trkpt>
      <trkpt lat="50.77999" lon="2.72162">
        <ele>139.8</ele>
        <time>2023-08-05T13:05:00Z</time>
      </trkpt>
      <trkpt lat="50.78" lon="2.72164">
        <ele>140.2</ele>
        <time>2023-08-05T13:05:01Z</time>
      </trkpt>
      <trkpt lat="50.78" lon="2.72166">
        <ele>140.2</ele>
        <time>2023-08-05T13:05:02Z</time>
      </trkpt>
      <trkpt lat="50.78001" lon="2.72169">
        <ele>140.2</ele>
        <time>2023-08-05T13:05:03Z</time>
      </trkpt>
      <trkpt lat="50.78001" lon="2.72172">
        <ele>140.4</ele>
        <time>2023-08-05T13:05:04Z</time>
      </trkpt>
      <trkpt lat="50.78001" lon="2.72174">
        <ele>140.4</ele>
        <time>2023-08-05T13:05:05Z</time>
      </trkpt>
      <trkpt lat="50.78002" lon="2.72176">
        <ele>140.6</ele>
        <time>2023-08-05T13:05:06Z</time>
      </trkpt>
      <trkpt lat="50.78002" lon="2.72178">
        <ele>140.6</ele>
        <time>2023-08-05T13:05:07Z</time>
      </trkpt>
      <trkpt lat="50.78003" lon="2.72181">
        <ele>140.8</ele>
        <time>2023-08-05T13:05:08Z</time>
      </trkpt>
      <trkpt lat="50.78003" lon="2.72183">
        <ele>140.8</ele>
        <time>2023-08-05T13:05:09Z</time>
      </trkpt>
      <trkpt lat="50.78004" lon="2.72186">
        <ele>141</ele>
        <time>2023-08-05T13:05:10Z</time>
      </trkpt>
      <trkpt lat="50.78004" lon="2.72187">
        <ele>141.2</ele>
        <time>2023-08-05T13:05:11Z</time>
      </trkpt>
      <trkpt lat="50.78005" lon="2.7219">
        <ele>141.4</ele>
        <time>2023-08-05T13:05:12Z</time>
      </trkpt>
      <trkpt lat="50.78006" lon="2.72192">
        <ele>141.6</ele>
        <time>2023-08-05T13:05:13Z</time>
      </trkpt>
      <trkpt lat="50.78006" lon="2.72194">
        <ele>141.6</ele>
        <time>2023-08-05T13:05:14Z</time>
      </trkpt>
      <trkpt lat="50.78007" lon="2.72197">
        <ele>142</ele>
        <time>2023-08-05T13:05:15Z</time>
      </trkpt>
      <trkpt lat="50.78008" lon="2.72199">
        <ele>142</ele>
        <time>2023-08-05T13:05:16Z</time>
      </trkpt>
      <trkpt lat="50.78008" lon="2.72201">
        <ele>142.4</ele>
        <time>2023-08-05T13:05:17Z</time>
      </trkpt>
      <trkpt lat="50.78009" lon="2.72203">
        <ele>142.4</ele>
        <time>2023-08-05T13:05:18Z</time>
      </trkpt>
      <trkpt lat="50.78009" lon="2.72206">
        <ele>142.6</ele>
        <time>2023-08-05T13:05:19Z</time>
      </trkpt>
      <trkpt lat="50.7801" lon="2.72208">
        <ele>142.8</ele>
        <time>2023-08-05T13:05:20Z</time>
      </trkpt>
      <trkpt lat="50.7801" lon="2.72211">
        <ele>143</ele>
        <time>2023-08-05T13:05:21Z</time>
      </trkpt>
      <trkpt lat="50.78011" lon="2.72213">
        <ele>143.2</ele>
        <time>2023-08-05T13:05:22Z</time>
      </trkpt>
      <trkpt lat="50.78011" lon="2.72216">
        <ele>143.2</ele>
        <time>2023-08-05T13:05:23Z</time>
      </trkpt>
      <trkpt lat="50.78012" lon="2.72218">
        <ele>143.4</ele>
        <time>2023-08-05T13:05:24Z</time>
      </trkpt>
      <trkpt lat="50.78013" lon="2.7222">
        <ele>143.4</ele>
        <time>2023-08-05T13:05:25Z</time>
      </trkpt>
      <trkpt lat="50.78014" lon="2.72222">
        <ele>143.6</ele>
        <time>2023-08-05T13:05:26Z</time>
      </trkpt>
      <trkpt lat="50.78015" lon="2.72224">
        <ele>143.8</ele>
        <time>2023-08-05T13:05:27Z</time>
      </trkpt>
      <trkpt lat="50.78015" lon="2.72226">
        <ele>143.8</ele>
        <time>2023-08-05T13:05:28Z</time>
      </trkpt>
      <trkpt lat="50.78016" lon="2.72229">
        <ele>144</ele>
        <time>2023-08-05T13:05:29Z</time>
      </trkpt>
      <trkpt lat="50.78017" lon="2.72231">
        <ele>144.2</ele>
        <time>2023-08-05T13:05:30Z</time>
      </trkpt>
      <trkpt lat="50.78018" lon="2.72234">
        <ele>144.4</ele>
        <time>2023-08-05T13:05:31Z</time>
      </trkpt>
      <trkpt lat="50.78018" lon="2.72236">
        <ele>144.4</ele>
        <time>2023-08-05T13:05:32Z</time>
      </trkpt>
      <trkpt lat="50.78019" lon="2.72238">
        <ele>144.6</ele>
        <time>2023-08-05T13:05:33Z</time>
      </trkpt>
      <trkpt lat="50.7802" lon="2.72241">
        <ele>144.6</ele>
        <time>2023-08-05T13:05:34Z</time>
      </trkpt>
      <trkpt lat="50.78021" lon="2.72243">
        <ele>144.8</ele>
        <time>2023-08-05T13:05:35Z</time>
      </trkpt>
      <trkpt lat="50.78021" lon="2.72245">
        <ele>145.2</ele>
        <time>2023-08-05T13:05:36Z</time>
      </trkpt>
      <trkpt lat="50.78022" lon="2.72247">
        <ele>145.4</ele>
        <time>2023-08-05T13:05:37Z</time>
      </trkpt>
      <trkpt lat="50.78022" lon="2.72249">
        <ele>145.6</ele>
        <time>2023-08-05T13:05:38Z</time>
      </trkpt>
      <trkpt lat="50.78023" lon="2.72252">
        <ele>145.6</ele>
        <time>2023-08-05T13:05:39Z</time>
      </trkpt>
      <trkpt lat="50.78024" lon="2.72254">
        <ele>145.8</ele>
        <time>2023-08-05T13:05:40Z</time>
      </trkpt>
      <trkpt lat="50.78025" lon="2.72257">
        <ele>146</ele>
        <time>2023-08-05T13:05:41Z</time>
      </trkpt>
      <trkpt lat="50.78026" lon="2.72258">
        <ele>146.2</ele>
        <time>2023-08-05T13:05:42Z</time>
      </trkpt>
      <trkpt lat="50.78026" lon="2.72261">
        <ele>146.6</ele>
        <time>2023-08-05T13:05:43Z</time>
      </trkpt>
      <trkpt lat="50.78026" lon="2.72263">
        <ele>146.6</ele>
        <time>2023-08-05T13:05:44Z</time>
      </trkpt>
      <trkpt lat="50.78026" lon="2.72265">
        <ele>146.8</ele>
        <time>2023-08-05T13:05:45Z</time>
      </trkpt>
      <trkpt lat="50.78025" lon="2.72267">
        <ele>147</ele>
        <time>2023-08-05T13:05:46Z</time>
      </trkpt>
      <trkpt lat="50.78024" lon="2.72268">
        <ele>147.4</ele>
        <time>2023-08-05T13:05:47Z</time>
      </trkpt>
      <trkpt lat="50.78022" lon="2.72268">
        <ele>147.4</ele>
        <time>2023-08-05T13:05:48Z</time>
      </trkpt>
      <trkpt lat="50.7802" lon="2.72268">
        <ele>147.6</ele>
        <time>2023-08-05T13:05:49Z</time>
      </trkpt>
      <trkpt lat="50.78017" lon="2.72268">
        <ele>147.6</ele>
        <time>2023-08-05T13:05:50Z</time>
      </trkpt>
      <trkpt lat="50.78014" lon="2.72268">
        <ele>147.6</ele>
        <time>2023-08-05T13:05:51Z</time>
      </trkpt>
      <trkpt lat="50.78011" lon="2.72268">
        <ele>147.6</ele>
        <time>2023-08-05T13:05:52Z</time>
      </trkpt>
      <trkpt lat="50.78008" lon="2.72268">
        <ele>147.6</ele>
        <time>2023-08-05T13:05:53Z</time>
      </trkpt>
      <trkpt lat="50.78004" lon="2.72269">
        <ele>147.6</ele>
        <time>2023-08-05T13:05:54Z</time>
      </trkpt>
      <trkpt lat="50.77999" lon="2.72269">
        <ele>147.6</ele>
        <time>2023-08-05T13:05:55Z</time>
      </trkpt>
      <trkpt lat="50.77995" lon="2.72269">
        <ele>147.6</ele>
        <time>2023-08-05T13:05:56Z</time>
      </trkpt>
      <trkpt lat="50.77992" lon="2.72269">
        <ele>147.4</ele>
        <time>2023-08-05T13:05:57Z</time>
      </trkpt>
      <trkpt lat="50.7799" lon="2.72269">
        <ele>147.2</ele>
        <time>2023-08-05T13:05:58Z</time>
      </trkpt>
      <trkpt lat="50.77988" lon="2.72271">
        <ele>146.6</ele>
        <time>2023-08-05T13:05:59Z</time>
      </trkpt>
      <trkpt lat="50.77987" lon="2.72273">
        <ele>146</ele>
        <time>2023-08-05T13:06:00Z</time>
      </trkpt>
      <trkpt lat="50.77986" lon="2.72274">
        <ele>145.6</ele>
        <time>2023-08-05T13:06:01Z</time>
      </trkpt>
      <trkpt lat="50.77985" lon="2.72276">
        <ele>145.2</ele>
        <time>2023-08-05T13:06:02Z</time>
      </trkpt>
      <trkpt lat="50.77984" lon="2.72277">
        <ele>144.8</ele>
        <time>2023-08-05T13:06:03Z</time>
      </trkpt>
      <trkpt lat="50.77982" lon="2.72279">
        <ele>144.4</ele>
        <time>2023-08-05T13:06:04Z</time>
      </trkpt>
      <trkpt lat="50.77982" lon="2.72281">
        <ele>144</ele>
        <time>2023-08-05T13:06:05Z</time>
      </trkpt>
      <trkpt lat="50.77981" lon="2.72282">
        <ele>143.8</ele>
        <time>2023-08-05T13:06:06Z</time>
      </trkpt>
      <trkpt lat="50.77979" lon="2.72283">
        <ele>143.4</ele>
        <time>2023-08-05T13:06:07Z</time>
      </trkpt>
      <trkpt lat="50.77978" lon="2.72283">
        <ele>143</ele>
        <time>2023-08-05T13:06:08Z</time>
      </trkpt>
      <trkpt lat="50.77975" lon="2.72284">
        <ele>143</ele>
        <time>2023-08-05T13:06:09Z</time>
      </trkpt>
      <trkpt lat="50.77969" lon="2.72283">
        <ele>142.2</ele>
        <time>2023-08-05T13:06:11Z</time>
      </trkpt>
      <trkpt lat="50.77966" lon="2.72283">
        <ele>141.8</ele>
        <time>2023-08-05T13:06:12Z</time>
      </trkpt>
      <trkpt lat="50.77958" lon="2.72283">
        <ele>140.4</ele>
        <time>2023-08-05T13:06:14Z</time>
      </trkpt>
      <trkpt lat="50.77954" lon="2.72283">
        <ele>139.4</ele>
        <time>2023-08-05T13:06:15Z</time>
      </trkpt>
      <trkpt lat="50.7795" lon="2.72284">
        <ele>139</ele>
        <time>2023-08-05T13:06:16Z</time>
      </trkpt>
      <trkpt lat="50.77942" lon="2.72284">
        <ele>138.2</ele>
        <time>2023-08-05T13:06:18Z</time>
      </trkpt>
      <trkpt lat="50.7793" lon="2.72284">
        <ele>136.8</ele>
        <time>2023-08-05T13:06:21Z</time>
      </trkpt>
      <trkpt lat="50.77922" lon="2.72285">
        <ele>136</ele>
        <time>2023-08-05T13:06:23Z</time>
      </trkpt>
      <trkpt lat="50.77918" lon="2.72285">
        <ele>135.4</ele>
        <time>2023-08-05T13:06:24Z</time>
      </trkpt>
      <trkpt lat="50.779" lon="2.72285">
        <ele>134.2</ele>
        <time>2023-08-05T13:06:28Z</time>
      </trkpt>
      <trkpt lat="50.77891" lon="2.72285">
        <ele>133.4</ele>
        <time>2023-08-05T13:06:30Z</time>
      </trkpt>
      <trkpt lat="50.77886" lon="2.72285">
        <ele>132.8</ele>
        <time>2023-08-05T13:06:31Z</time>
      </trkpt>
      <trkpt lat="50.77864" lon="2.72284">
        <ele>131.6</ele>
        <time>2023-08-05T13:06:35Z</time>
      </trkpt>
      <trkpt lat="50.7786" lon="2.72284">
        <ele>131.2</ele>
        <time>2023-08-05T13:06:36Z</time>
      </trkpt>
      <trkpt lat="50.77855" lon="2.72284">
        <ele>130.8</ele>
        <time>2023-08-05T13:06:37Z</time>
      </trkpt>
      <trkpt lat="50.77851" lon="2.72285">
        <ele>130.4</ele>
        <time>2023-08-05T13:06:38Z</time>
      </trkpt>
      <trkpt lat="50.77847" lon="2.72285">
        <ele>130.2</ele>
        <time>2023-08-05T13:06:39Z</time>
      </trkpt>
      <trkpt lat="50.77843" lon="2.72284">
        <ele>130</ele>
        <time>2023-08-05T13:06:40Z</time>
      </trkpt>
      <trkpt lat="50.77841" lon="2.72283">
        <ele>129.8</ele>
        <time>2023-08-05T13:06:41Z</time>
      </trkpt>
      <trkpt lat="50.77837" lon="2.72282">
        <ele>129.2</ele>
        <time>2023-08-05T13:06:42Z</time>
      </trkpt>
      <trkpt lat="50.77834" lon="2.72281">
        <ele>128.8</ele>
        <time>2023-08-05T13:06:43Z</time>
      </trkpt>
      <trkpt lat="50.77831" lon="2.72281">
        <ele>128.2</ele>
        <time>2023-08-05T13:06:44Z</time>
      </trkpt>
      <trkpt lat="50.77828" lon="2.72281">
        <ele>127.8</ele>
        <time>2023-08-05T13:06:45Z</time>
      </trkpt>
      <trkpt lat="50.77825" lon="2.7228">
        <ele>127.6</ele>
        <time>2023-08-05T13:06:46Z</time>
      </trkpt>
      <trkpt lat="50.77822" lon="2.72279">
        <ele>127.2</ele>
        <time>2023-08-05T13:06:47Z</time>
      </trkpt>
      <trkpt lat="50.77819" lon="2.72278">
        <ele>127</ele>
        <time>2023-08-05T13:06:48Z</time>
      </trkpt>
      <trkpt lat="50.77816" lon="2.72276">
        <ele>126.6</ele>
        <time>2023-08-05T13:06:49Z</time>
      </trkpt>
      <trkpt lat="50.77812" lon="2.72274">
        <ele>126.4</ele>
        <time>2023-08-05T13:06:50Z</time>
      </trkpt>
      <trkpt lat="50.77808" lon="2.72272">
        <ele>126</ele>
        <time>2023-08-05T13:06:51Z</time>
      </trkpt>
      <trkpt lat="50.77804" lon="2.72271">
        <ele>125.8</ele>
        <time>2023-08-05T13:06:52Z</time>
      </trkpt>
      <trkpt lat="50.778" lon="2.72271">
        <ele>125.2</ele>
        <time>2023-08-05T13:06:53Z</time>
      </trkpt>
      <trkpt lat="50.77796" lon="2.7227">
        <ele>125</ele>
        <time>2023-08-05T13:06:54Z</time>
      </trkpt>
      <trkpt lat="50.77792" lon="2.72268">
        <ele>124.8</ele>
        <time>2023-08-05T13:06:55Z</time>
      </trkpt>
      <trkpt lat="50.77789" lon="2.72265">
        <ele>124.4</ele>
        <time>2023-08-05T13:06:56Z</time>
      </trkpt>
      <trkpt lat="50.77785" lon="2.72261">
        <ele>124</ele>
        <time>2023-08-05T13:06:57Z</time>
      </trkpt>
      <trkpt lat="50.77781" lon="2.72257">
        <ele>123</ele>
        <time>2023-08-05T13:06:58Z</time>
      </trkpt>
      <trkpt lat="50.77778" lon="2.72254">
        <ele>122.6</ele>
        <time>2023-08-05T13:06:59Z</time>
      </trkpt>
      <trkpt lat="50.7777" lon="2.72249">
        <ele>121.8</ele>
        <time>2023-08-05T13:07:01Z</time>
      </trkpt>
      <trkpt lat="50.77765" lon="2.72245">
        <ele>121.6</ele>
        <time>2023-08-05T13:07:02Z</time>
      </trkpt>
      <trkpt lat="50.77757" lon="2.72239">
        <ele>120.6</ele>
        <time>2023-08-05T13:07:04Z</time>
      </trkpt>
      <trkpt lat="50.77753" lon="2.72235">
        <ele>120</ele>
        <time>2023-08-05T13:07:05Z</time>
      </trkpt>
      <trkpt lat="50.77749" lon="2.7223">
        <ele>119.8</ele>
        <time>2023-08-05T13:07:06Z</time>
      </trkpt>
      <trkpt lat="50.77745" lon="2.72224">
        <ele>119.2</ele>
        <time>2023-08-05T13:07:07Z</time>
      </trkpt>
      <trkpt lat="50.77738" lon="2.7221">
        <ele>118.2</ele>
        <time>2023-08-05T13:07:09Z</time>
      </trkpt>
      <trkpt lat="50.77728" lon="2.72197">
        <ele>117.6</ele>
        <time>2023-08-05T13:07:11Z</time>
      </trkpt>
      <trkpt lat="50.77721" lon="2.72192">
        <ele>117.2</ele>
        <time>2023-08-05T13:07:12Z</time>
      </trkpt>
      <trkpt lat="50.77713" lon="2.72187">
        <ele>117</ele>
        <time>2023-08-05T13:07:13Z</time>
      </trkpt>
      <trkpt lat="50.77705" lon="2.72181">
        <ele>115.8</ele>
        <time>2023-08-05T13:07:14Z</time>
      </trkpt>
      <trkpt lat="50.77697" lon="2.72177">
        <ele>115</ele>
        <time>2023-08-05T13:07:15Z</time>
      </trkpt>
      <trkpt lat="50.77689" lon="2.72171">
        <ele>113.8</ele>
        <time>2023-08-05T13:07:16Z</time>
      </trkpt>
      <trkpt lat="50.77675" lon="2.72162">
        <ele>112.6</ele>
        <time>2023-08-05T13:07:18Z</time>
      </trkpt>
      <trkpt lat="50.77668" lon="2.72158">
        <ele>111.6</ele>
        <time>2023-08-05T13:07:19Z</time>
      </trkpt>
      <trkpt lat="50.77661" lon="2.72156">
        <ele>111</ele>
        <time>2023-08-05T13:07:20Z</time>
      </trkpt>
      <trkpt lat="50.77654" lon="2.72153">
        <ele>110</ele>
        <time>2023-08-05T13:07:21Z</time>
      </trkpt>
      <trkpt lat="50.77648" lon="2.72153">
        <ele>109.6</ele>
        <time>2023-08-05T13:07:22Z</time>
      </trkpt>
      <trkpt lat="50.77639" lon="2.72151">
        <ele>109</ele>
        <time>2023-08-05T13:07:23Z</time>
      </trkpt>
      <trkpt lat="50.77616" lon="2.72149">
        <ele>106.4</ele>
        <time>2023-08-05T13:07:26Z</time>
      </trkpt>
      <trkpt lat="50.77606" lon="2.72148">
        <ele>105.6</ele>
        <time>2023-08-05T13:07:27Z</time>
      </trkpt>
      <trkpt lat="50.77599" lon="2.72148">
        <ele>104.6</ele>
        <time>2023-08-05T13:07:28Z</time>
      </trkpt>
      <trkpt lat="50.77574" lon="2.72147">
        <ele>103.4</ele>
        <time>2023-08-05T13:07:31Z</time>
      </trkpt>
      <trkpt lat="50.77557" lon="2.72147">
        <ele>102</ele>
        <time>2023-08-05T13:07:33Z</time>
      </trkpt>
      <trkpt lat="50.77546" lon="2.72147">
        <ele>101.4</ele>
        <time>2023-08-05T13:07:34Z</time>
      </trkpt>
      <trkpt lat="50.77538" lon="2.72147">
        <ele>99.8</ele>
        <time>2023-08-05T13:07:35Z</time>
      </trkpt>
      <trkpt lat="50.77532" lon="2.72147">
        <ele>98.4</ele>
        <time>2023-08-05T13:07:36Z</time>
      </trkpt>
      <trkpt lat="50.77524" lon="2.72148">
        <ele>96.8</ele>
        <time>2023-08-05T13:07:37Z</time>
      </trkpt>
      <trkpt lat="50.77517" lon="2.72148">
        <ele>96.4</ele>
        <time>2023-08-05T13:07:38Z</time>
      </trkpt>
      <trkpt lat="50.77507" lon="2.72149">
        <ele>95.6</ele>
        <time>2023-08-05T13:07:39Z</time>
      </trkpt>
      <trkpt lat="50.77499" lon="2.72149">
        <ele>94.8</ele>
        <time>2023-08-05T13:07:40Z</time>
      </trkpt>
      <trkpt lat="50.77485" lon="2.72152">
        <ele>93.2</ele>
        <time>2023-08-05T13:07:42Z</time>
      </trkpt>
      <trkpt lat="50.77468" lon="2.72158">
        <ele>91.4</ele>
        <time>2023-08-05T13:07:44Z</time>
      </trkpt>
      <trkpt lat="50.7746" lon="2.7216">
        <ele>91</ele>
        <time>2023-08-05T13:07:45Z</time>
      </trkpt>
      <trkpt lat="50.77454" lon="2.72161">
        <ele>90.2</ele>
        <time>2023-08-05T13:07:46Z</time>
      </trkpt>
      <trkpt lat="50.77449" lon="2.7216">
        <ele>89.2</ele>
        <time>2023-08-05T13:07:47Z</time>
      </trkpt>
      <trkpt lat="50.77444" lon="2.72157">
        <ele>88.6</ele>
        <time>2023-08-05T13:07:48Z</time>
      </trkpt>
      <trkpt lat="50.77441" lon="2.72152">
        <ele>87.6</ele>
        <time>2023-08-05T13:07:49Z</time>
      </trkpt>
      <trkpt lat="50.77437" lon="2.72144">
        <ele>87.4</ele>
        <time>2023-08-05T13:07:50Z</time>
      </trkpt>
      <trkpt lat="50.77437" lon="2.72138">
        <ele>86.8</ele>
        <time>2023-08-05T13:07:51Z</time>
      </trkpt>
      <trkpt lat="50.77436" lon="2.72129">
        <ele>86.6</ele>
        <time>2023-08-05T13:07:52Z</time>
      </trkpt>
      <trkpt lat="50.77437" lon="2.72112">
        <ele>86.2</ele>
        <time>2023-08-05T13:07:54Z</time>
      </trkpt>
      <trkpt lat="50.77438" lon="2.72102">
        <ele>86</ele>
        <time>2023-08-05T13:07:55Z</time>
      </trkpt>
      <trkpt lat="50.77438" lon="2.72094">
        <ele>85.6</ele>
        <time>2023-08-05T13:07:56Z</time>
      </trkpt>
      <trkpt lat="50.77438" lon="2.72086">
        <ele>85.6</ele>
        <time>2023-08-05T13:07:57Z</time>
      </trkpt>
      <trkpt lat="50.77438" lon="2.72079">
        <ele>85.4</ele>
        <time>2023-08-05T13:07:58Z</time>
      </trkpt>
      <trkpt lat="50.77438" lon="2.72073">
        <ele>85.2</ele>
        <time>2023-08-05T13:07:59Z</time>
      </trkpt>
      <trkpt lat="50.77438" lon="2.72064">
        <ele>85.2</ele>
        <time>2023-08-05T13:08:00Z</time>
      </trkpt>
      <trkpt lat="50.77438" lon="2.72057">
        <ele>85</ele>
        <time>2023-08-05T13:08:01Z</time>
      </trkpt>
      <trkpt lat="50.77437" lon="2.72052">
        <ele>84.8</ele>
        <time>2023-08-05T13:08:02Z</time>
      </trkpt>
      <trkpt lat="50.77435" lon="2.72047">
        <ele>84.6</ele>
        <time>2023-08-05T13:08:03Z</time>
      </trkpt>
      <trkpt lat="50.77433" lon="2.72044">
        <ele>84.4</ele>
        <time>2023-08-05T13:08:04Z</time>
      </trkpt>
      <trkpt lat="50.77429" lon="2.72041">
        <ele>84.2</ele>
        <time>2023-08-05T13:08:05Z</time>
      </trkpt>
      <trkpt lat="50.77426" lon="2.72041">
        <ele>84.2</ele>
        <time>2023-08-05T13:08:06Z</time>
      </trkpt>
      <trkpt lat="50.77423" lon="2.72042">
        <ele>84</ele>
        <time>2023-08-05T13:08:07Z</time>
      </trkpt>
      <trkpt lat="50.77419" lon="2.72043">
        <ele>84</ele>
        <time>2023-08-05T13:08:08Z</time>
      </trkpt>
      <trkpt lat="50.77416" lon="2.72044">
        <ele>83.8</ele>
        <time>2023-08-05T13:08:09Z</time>
      </trkpt>
      <trkpt lat="50.77411" lon="2.72046">
        <ele>83.8</ele>
        <time>2023-08-05T13:08:10Z</time>
      </trkpt>
      <trkpt lat="50.77401" lon="2.7205">
        <ele>83.4</ele>
        <time>2023-08-05T13:08:13Z</time>
      </trkpt>
      <trkpt lat="50.77397" lon="2.72051">
        <ele>83.2</ele>
        <time>2023-08-05T13:08:14Z</time>
      </trkpt>
      <trkpt lat="50.77372" lon="2.72059">
        <ele>82.4</ele>
        <time>2023-08-05T13:08:20Z</time>
      </trkpt>
      <trkpt lat="50.7736" lon="2.72064">
        <ele>82</ele>
        <time>2023-08-05T13:08:23Z</time>
      </trkpt>
      <trkpt lat="50.77329" lon="2.72075">
        <ele>81.2</ele>
        <time>2023-08-05T13:08:30Z</time>
      </trkpt>
      <trkpt lat="50.77325" lon="2.72076">
        <ele>81.2</ele>
        <time>2023-08-05T13:08:31Z</time>
      </trkpt>
      <trkpt lat="50.77308" lon="2.72081">
        <ele>81</ele>
        <time>2023-08-05T13:08:35Z</time>
      </trkpt>
      <trkpt lat="50.77304" lon="2.72084">
        <ele>80.8</ele>
        <time>2023-08-05T13:08:36Z</time>
      </trkpt>
      <trkpt lat="50.77302" lon="2.7209">
        <ele>80.6</ele>
        <time>2023-08-05T13:08:37Z</time>
      </trkpt>
      <trkpt lat="50.77302" lon="2.72095">
        <ele>80.6</ele>
        <time>2023-08-05T13:08:38Z</time>
      </trkpt>
      <trkpt lat="50.77302" lon="2.72099">
        <ele>80.4</ele>
        <time>2023-08-05T13:08:39Z</time>
      </trkpt>
      <trkpt lat="50.77303" lon="2.72104">
        <ele>80.4</ele>
        <time>2023-08-05T13:08:40Z</time>
      </trkpt>
      <trkpt lat="50.77303" lon="2.7211">
        <ele>80.4</ele>
        <time>2023-08-05T13:08:41Z</time>
      </trkpt>
      <trkpt lat="50.77303" lon="2.72116">
        <ele>80.4</ele>
        <time>2023-08-05T13:08:42Z</time>
      </trkpt>
      <trkpt lat="50.77303" lon="2.72125">
        <ele>80.2</ele>
        <time>2023-08-05T13:08:44Z</time>
      </trkpt>
      <trkpt lat="50.77302" lon="2.72175">
        <ele>80.2</ele>
        <time>2023-08-05T13:08:52Z</time>
      </trkpt>
      <trkpt lat="50.77299" lon="2.72213">
        <ele>79.8</ele>
        <time>2023-08-05T13:08:58Z</time>
      </trkpt>
      <trkpt lat="50.773" lon="2.72223">
        <ele>79.6</ele>
        <time>2023-08-05T13:09:00Z</time>
      </trkpt>
      <trkpt lat="50.77302" lon="2.72228">
        <ele>79.8</ele>
        <time>2023-08-05T13:09:01Z</time>
      </trkpt>
      <trkpt lat="50.77304" lon="2.72232">
        <ele>80</ele>
        <time>2023-08-05T13:09:02Z</time>
      </trkpt>
      <trkpt lat="50.77307" lon="2.72236">
        <ele>80</ele>
        <time>2023-08-05T13:09:03Z</time>
      </trkpt>
      <trkpt lat="50.77309" lon="2.72239">
        <ele>80</ele>
        <time>2023-08-05T13:09:04Z</time>
      </trkpt>
      <trkpt lat="50.77311" lon="2.72243">
        <ele>80.2</ele>
        <time>2023-08-05T13:09:05Z</time>
      </trkpt>
      <trkpt lat="50.77325" lon="2.72268">
        <ele>80.6</ele>
        <time>2023-08-05T13:09:11Z</time>
      </trkpt>
      <trkpt lat="50.77339" lon="2.72307">
        <ele>80.6</ele>
        <time>2023-08-05T13:09:19Z</time>
      </trkpt>
      <trkpt lat="50.7734" lon="2.7231">
        <ele>80.8</ele>
        <time>2023-08-05T13:09:20Z</time>
      </trkpt>
      <trkpt lat="50.77341" lon="2.72315">
        <ele>80.8</ele>
        <time>2023-08-05T13:09:21Z</time>
      </trkpt>
      <trkpt lat="50.77342" lon="2.7232">
        <ele>80.8</ele>
        <time>2023-08-05T13:09:22Z</time>
      </trkpt>
      <trkpt lat="50.77343" lon="2.72326">
        <ele>80.8</ele>
        <time>2023-08-05T13:09:23Z</time>
      </trkpt>
      <trkpt lat="50.77344" lon="2.7233">
        <ele>81</ele>
        <time>2023-08-05T13:09:24Z</time>
      </trkpt>
      <trkpt lat="50.77345" lon="2.72337">
        <ele>81</ele>
        <time>2023-08-05T13:09:25Z</time>
      </trkpt>
      <trkpt lat="50.77345" lon="2.72345">
        <ele>81.2</ele>
        <time>2023-08-05T13:09:27Z</time>
      </trkpt>
      <trkpt lat="50.77346" lon="2.72359">
        <ele>81.4</ele>
        <time>2023-08-05T13:09:30Z</time>
      </trkpt>
      <trkpt lat="50.77346" lon="2.72363">
        <ele>81.6</ele>
        <time>2023-08-05T13:09:31Z</time>
      </trkpt>
      <trkpt lat="50.77346" lon="2.72366">
        <ele>81.6</ele>
        <time>2023-08-05T13:09:32Z</time>
      </trkpt>
      <trkpt lat="50.77346" lon="2.72371">
        <ele>81.6</ele>
        <time>2023-08-05T13:09:33Z</time>
      </trkpt>
      <trkpt lat="50.77347" lon="2.72379">
        <ele>82</ele>
        <time>2023-08-05T13:09:35Z</time>
      </trkpt>
      <trkpt lat="50.77347" lon="2.72382">
        <ele>82</ele>
        <time>2023-08-05T13:09:36Z</time>
      </trkpt>
      <trkpt lat="50.77347" lon="2.72386">
        <ele>82.2</ele>
        <time>2023-08-05T13:09:37Z</time>
      </trkpt>
      <trkpt lat="50.77347" lon="2.724">
        <ele>82.6</ele>
        <time>2023-08-05T13:09:40Z</time>
      </trkpt>
      <trkpt lat="50.77348" lon="2.72411">
        <ele>83</ele>
        <time>2023-08-05T13:09:43Z</time>
      </trkpt>
      <trkpt lat="50.77349" lon="2.7243">
        <ele>83.2</ele>
        <time>2023-08-05T13:09:48Z</time>
      </trkpt>
      <trkpt lat="50.77349" lon="2.72435">
        <ele>83.2</ele>
        <time>2023-08-05T13:09:49Z</time>
      </trkpt>
      <trkpt lat="50.7735" lon="2.72438">
        <ele>83.2</ele>
        <time>2023-08-05T13:09:50Z</time>
      </trkpt>
      <trkpt lat="50.77351" lon="2.72445">
        <ele>83.4</ele>
        <time>2023-08-05T13:09:52Z</time>
      </trkpt>
      <trkpt lat="50.77351" lon="2.72449">
        <ele>83.6</ele>
        <time>2023-08-05T13:09:53Z</time>
      </trkpt>
      <trkpt lat="50.77352" lon="2.72456">
        <ele>83.6</ele>
        <time>2023-08-05T13:09:55Z</time>
      </trkpt>
      <trkpt lat="50.77354" lon="2.72472">
        <ele>84.2</ele>
        <time>2023-08-05T13:09:59Z</time>
      </trkpt>
      <trkpt lat="50.77354" lon="2.72478">
        <ele>84.4</ele>
        <time>2023-08-05T13:10:01Z</time>
      </trkpt>
      <trkpt lat="50.77357" lon="2.72501">
        <ele>84.8</ele>
        <time>2023-08-05T13:10:07Z</time>
      </trkpt>
      <trkpt lat="50.77358" lon="2.72509">
        <ele>84.8</ele>
        <time>2023-08-05T13:10:09Z</time>
      </trkpt>
      <trkpt lat="50.77358" lon="2.72534">
        <ele>85.2</ele>
        <time>2023-08-05T13:10:16Z</time>
      </trkpt>
      <trkpt lat="50.77358" lon="2.72537">
        <ele>85.2</ele>
        <time>2023-08-05T13:10:17Z</time>
      </trkpt>
      <trkpt lat="50.77358" lon="2.72541">
        <ele>85.4</ele>
        <time>2023-08-05T13:10:18Z</time>
      </trkpt>
      <trkpt lat="50.77358" lon="2.72544">
        <ele>85.6</ele>
        <time>2023-08-05T13:10:19Z</time>
      </trkpt>
      <trkpt lat="50.77359" lon="2.72547">
        <ele>85.8</ele>
        <time>2023-08-05T13:10:20Z</time>
      </trkpt>
      <trkpt lat="50.7736" lon="2.72551">
        <ele>85.8</ele>
        <time>2023-08-05T13:10:21Z</time>
      </trkpt>
      <trkpt lat="50.7736" lon="2.72554">
        <ele>86</ele>
        <time>2023-08-05T13:10:22Z</time>
      </trkpt>
      <trkpt lat="50.7736" lon="2.72557">
        <ele>86</ele>
        <time>2023-08-05T13:10:23Z</time>
      </trkpt>
      <trkpt lat="50.77361" lon="2.7256">
        <ele>86</ele>
        <time>2023-08-05T13:10:24Z</time>
      </trkpt>
      <trkpt lat="50.77361" lon="2.72563">
        <ele>86.2</ele>
        <time>2023-08-05T13:10:25Z</time>
      </trkpt>
      <trkpt lat="50.77361" lon="2.72566">
        <ele>86.4</ele>
        <time>2023-08-05T13:10:26Z</time>
      </trkpt>
      <trkpt lat="50.77362" lon="2.72569">
        <ele>86.6</ele>
        <time>2023-08-05T13:10:27Z</time>
      </trkpt>
      <trkpt lat="50.77363" lon="2.72572">
        <ele>86.6</ele>
        <time>2023-08-05T13:10:28Z</time>
      </trkpt>
      <trkpt lat="50.77364" lon="2.72574">
        <ele>86.6</ele>
        <time>2023-08-05T13:10:29Z</time>
      </trkpt>
      <trkpt lat="50.77365" lon="2.72577">
        <ele>86.8</ele>
        <time>2023-08-05T13:10:30Z</time>
      </trkpt>
      <trkpt lat="50.77365" lon="2.7258">
        <ele>86.8</ele>
        <time>2023-08-05T13:10:31Z</time>
      </trkpt>
      <trkpt lat="50.77367" lon="2.72582">
        <ele>87</ele>
        <time>2023-08-05T13:10:32Z</time>
      </trkpt>
      <trkpt lat="50.77368" lon="2.72584">
        <ele>87.2</ele>
        <time>2023-08-05T13:10:33Z</time>
      </trkpt>
      <trkpt lat="50.77369" lon="2.72587">
        <ele>87.2</ele>
        <time>2023-08-05T13:10:34Z</time>
      </trkpt>
      <trkpt lat="50.77369" lon="2.7259">
        <ele>87.2</ele>
        <time>2023-08-05T13:10:35Z</time>
      </trkpt>
      <trkpt lat="50.77372" lon="2.72596">
        <ele>87.6</ele>
        <time>2023-08-05T13:10:38Z</time>
      </trkpt>
      <trkpt lat="50.77373" lon="2.72599">
        <ele>87.8</ele>
        <time>2023-08-05T13:10:39Z</time>
      </trkpt>
      <trkpt lat="50.77375" lon="2.72601">
        <ele>87.8</ele>
        <time>2023-08-05T13:10:40Z</time>
      </trkpt>
      <trkpt lat="50.77376" lon="2.72603">
        <ele>88</ele>
        <time>2023-08-05T13:10:41Z</time>
      </trkpt>
      <trkpt lat="50.77378" lon="2.72605">
        <ele>88.2</ele>
        <time>2023-08-05T13:10:42Z</time>
      </trkpt>
      <trkpt lat="50.77379" lon="2.72607">
        <ele>88.2</ele>
        <time>2023-08-05T13:10:43Z</time>
      </trkpt>
      <trkpt lat="50.7738" lon="2.72609">
        <ele>88.2</ele>
        <time>2023-08-05T13:10:44Z</time>
      </trkpt>
      <trkpt lat="50.77381" lon="2.7261">
        <ele>88.4</ele>
        <time>2023-08-05T13:10:45Z</time>
      </trkpt>
      <trkpt lat="50.77383" lon="2.72613">
        <ele>88.4</ele>
        <time>2023-08-05T13:10:46Z</time>
      </trkpt>
      <trkpt lat="50.77384" lon="2.72615">
        <ele>88.4</ele>
        <time>2023-08-05T13:10:47Z</time>
      </trkpt>
      <trkpt lat="50.77385" lon="2.72617">
        <ele>88.4</ele>
        <time>2023-08-05T13:10:48Z</time>
      </trkpt>
      <trkpt lat="50.77386" lon="2.72619">
        <ele>88.6</ele>
        <time>2023-08-05T13:10:49Z</time>
      </trkpt>
      <trkpt lat="50.77387" lon="2.72622">
        <ele>88.6</ele>
        <time>2023-08-05T13:10:50Z</time>
      </trkpt>
      <trkpt lat="50.77388" lon="2.72624">
        <ele>88.6</ele>
        <time>2023-08-05T13:10:51Z</time>
      </trkpt>
      <trkpt lat="50.77392" lon="2.72635">
        <ele>88.8</ele>
        <time>2023-08-05T13:10:55Z</time>
      </trkpt>
      <trkpt lat="50.77396" lon="2.72645">
        <ele>89</ele>
        <time>2023-08-05T13:10:59Z</time>
      </trkpt>
      <trkpt lat="50.77396" lon="2.72647">
        <ele>89.2</ele>
        <time>2023-08-05T13:11:00Z</time>
      </trkpt>
      <trkpt lat="50.77397" lon="2.72649">
        <ele>89.2</ele>
        <time>2023-08-05T13:11:01Z</time>
      </trkpt>
      <trkpt lat="50.77397" lon="2.72651">
        <ele>89.2</ele>
        <time>2023-08-05T13:11:02Z</time>
      </trkpt>
      <trkpt lat="50.77396" lon="2.72653">
        <ele>89.4</ele>
        <time>2023-08-05T13:11:03Z</time>
      </trkpt>
      <trkpt lat="50.77396" lon="2.72655">
        <ele>89.4</ele>
        <time>2023-08-05T13:11:04Z</time>
      </trkpt>
      <trkpt lat="50.77396" lon="2.72656">
        <ele>89.4</ele>
        <time>2023-08-05T13:11:05Z</time>
      </trkpt>
      <trkpt lat="50.77395" lon="2.72657">
        <ele>89.4</ele>
        <time>2023-08-05T13:11:06Z</time>
      </trkpt>
      <trkpt lat="50.77394" lon="2.72659">
        <ele>89.6</ele>
        <time>2023-08-05T13:11:07Z</time>
      </trkpt>
      <trkpt lat="50.77393" lon="2.7266">
        <ele>89.8</ele>
        <time>2023-08-05T13:11:08Z</time>
      </trkpt>
      <trkpt lat="50.77392" lon="2.72662">
        <ele>90</ele>
        <time>2023-08-05T13:11:09Z</time>
      </trkpt>
      <trkpt lat="50.77391" lon="2.72663">
        <ele>90.2</ele>
        <time>2023-08-05T13:11:10Z</time>
      </trkpt>
      <trkpt lat="50.7739" lon="2.72664">
        <ele>90.4</ele>
        <time>2023-08-05T13:11:11Z</time>
      </trkpt>
      <trkpt lat="50.77389" lon="2.72665">
        <ele>90.4</ele>
        <time>2023-08-05T13:11:12Z</time>
      </trkpt>
      <trkpt lat="50.77389" lon="2.72666">
        <ele>90.8</ele>
        <time>2023-08-05T13:11:13Z</time>
      </trkpt>
      <trkpt lat="50.77388" lon="2.72668">
        <ele>91</ele>
        <time>2023-08-05T13:11:14Z</time>
      </trkpt>
      <trkpt lat="50.77387" lon="2.72669">
        <ele>91.4</ele>
        <time>2023-08-05T13:11:15Z</time>
      </trkpt>
      <trkpt lat="50.77386" lon="2.72671">
        <ele>91.6</ele>
        <time>2023-08-05T13:11:16Z</time>
      </trkpt>
      <trkpt lat="50.77385" lon="2.72672">
        <ele>91.6</ele>
        <time>2023-08-05T13:11:17Z</time>
      </trkpt>
      <trkpt lat="50.77385" lon="2.72674">
        <ele>91.8</ele>
        <time>2023-08-05T13:11:18Z</time>
      </trkpt>
      <trkpt lat="50.77384" lon="2.72677">
        <ele>91.8</ele>
        <time>2023-08-05T13:11:19Z</time>
      </trkpt>
      <trkpt lat="50.77383" lon="2.7268">
        <ele>92.2</ele>
        <time>2023-08-05T13:11:20Z</time>
      </trkpt>
      <trkpt lat="50.77383" lon="2.72682">
        <ele>92.2</ele>
        <time>2023-08-05T13:11:21Z</time>
      </trkpt>
      <trkpt lat="50.77383" lon="2.72684">
        <ele>92.4</ele>
        <time>2023-08-05T13:11:22Z</time>
      </trkpt>
      <trkpt lat="50.77383" lon="2.72686">
        <ele>92.8</ele>
        <time>2023-08-05T13:11:23Z</time>
      </trkpt>
      <trkpt lat="50.77382" lon="2.72688">
        <ele>92.8</ele>
        <time>2023-08-05T13:11:24Z</time>
      </trkpt>
      <trkpt lat="50.77382" lon="2.7269">
        <ele>93</ele>
        <time>2023-08-05T13:11:25Z</time>
      </trkpt>
      <trkpt lat="50.77382" lon="2.72692">
        <ele>93</ele>
        <time>2023-08-05T13:11:26Z</time>
      </trkpt>
      <trkpt lat="50.77381" lon="2.72694">
        <ele>93.2</ele>
        <time>2023-08-05T13:11:27Z</time>
      </trkpt>
      <trkpt lat="50.77381" lon="2.72696">
        <ele>93.2</ele>
        <time>2023-08-05T13:11:28Z</time>
      </trkpt>
      <trkpt lat="50.7738" lon="2.72699">
        <ele>93.4</ele>
        <time>2023-08-05T13:11:29Z</time>
      </trkpt>
      <trkpt lat="50.7738" lon="2.72701">
        <ele>93.6</ele>
        <time>2023-08-05T13:11:30Z</time>
      </trkpt>
      <trkpt lat="50.77379" lon="2.72703">
        <ele>93.8</ele>
        <time>2023-08-05T13:11:31Z</time>
      </trkpt>
      <trkpt lat="50.77379" lon="2.72705">
        <ele>94</ele>
        <time>2023-08-05T13:11:32Z</time>
      </trkpt>
      <trkpt lat="50.77378" lon="2.72706">
        <ele>94</ele>
        <time>2023-08-05T13:11:33Z</time>
      </trkpt>
      <trkpt lat="50.77377" lon="2.72709">
        <ele>94.2</ele>
        <time>2023-08-05T13:11:34Z</time>
      </trkpt>
      <trkpt lat="50.77376" lon="2.72711">
        <ele>94.4</ele>
        <time>2023-08-05T13:11:35Z</time>
      </trkpt>
      <trkpt lat="50.77376" lon="2.72713">
        <ele>94.6</ele>
        <time>2023-08-05T13:11:36Z</time>
      </trkpt>
      <trkpt lat="50.77376" lon="2.72714">
        <ele>94.8</ele>
        <time>2023-08-05T13:11:37Z</time>
      </trkpt>
      <trkpt lat="50.77376" lon="2.72716">
        <ele>94.8</ele>
        <time>2023-08-05T13:11:38Z</time>
      </trkpt>
      <trkpt lat="50.77376" lon="2.72717">
        <ele>95</ele>
        <time>2023-08-05T13:11:39Z</time>
      </trkpt>
      <trkpt lat="50.77376" lon="2.72719">
        <ele>95</ele>
        <time>2023-08-05T13:11:40Z</time>
      </trkpt>
      <trkpt lat="50.77376" lon="2.72722">
        <ele>95.4</ele>
        <time>2023-08-05T13:11:41Z</time>
      </trkpt>
      <trkpt lat="50.77375" lon="2.72723">
        <ele>95.4</ele>
        <time>2023-08-05T13:11:42Z</time>
      </trkpt>
      <trkpt lat="50.77375" lon="2.72725">
        <ele>95.6</ele>
        <time>2023-08-05T13:11:43Z</time>
      </trkpt>
      <trkpt lat="50.77374" lon="2.72727">
        <ele>95.6</ele>
        <time>2023-08-05T13:11:44Z</time>
      </trkpt>
      <trkpt lat="50.77374" lon="2.72729">
        <ele>95.8</ele>
        <time>2023-08-05T13:11:45Z</time>
      </trkpt>
      <trkpt lat="50.77373" lon="2.7273">
        <ele>95.8</ele>
        <time>2023-08-05T13:11:46Z</time>
      </trkpt>
      <trkpt lat="50.77373" lon="2.72732">
        <ele>96</ele>
        <time>2023-08-05T13:11:47Z</time>
      </trkpt>
      <trkpt lat="50.77372" lon="2.72734">
        <ele>96.2</ele>
        <time>2023-08-05T13:11:48Z</time>
      </trkpt>
      <trkpt lat="50.77372" lon="2.72735">
        <ele>96.2</ele>
        <time>2023-08-05T13:11:49Z</time>
      </trkpt>
      <trkpt lat="50.77371" lon="2.72736">
        <ele>96.6</ele>
        <time>2023-08-05T13:11:50Z</time>
      </trkpt>
      <trkpt lat="50.77371" lon="2.72738">
        <ele>96.6</ele>
        <time>2023-08-05T13:11:51Z</time>
      </trkpt>
      <trkpt lat="50.77371" lon="2.7274">
        <ele>97</ele>
        <time>2023-08-05T13:11:52Z</time>
      </trkpt>
      <trkpt lat="50.7737" lon="2.72742">
        <ele>97</ele>
        <time>2023-08-05T13:11:53Z</time>
      </trkpt>
      <trkpt lat="50.77369" lon="2.72743">
        <ele>97.4</ele>
        <time>2023-08-05T13:11:54Z</time>
      </trkpt>
      <trkpt lat="50.77369" lon="2.72745">
        <ele>97.6</ele>
        <time>2023-08-05T13:11:55Z</time>
      </trkpt>
      <trkpt lat="50.77368" lon="2.72746">
        <ele>97.6</ele>
        <time>2023-08-05T13:11:56Z</time>
      </trkpt>
      <trkpt lat="50.77367" lon="2.72748">
        <ele>97.8</ele>
        <time>2023-08-05T13:11:57Z</time>
      </trkpt>
      <trkpt lat="50.77366" lon="2.72749">
        <ele>97.8</ele>
        <time>2023-08-05T13:11:58Z</time>
      </trkpt>
      <trkpt lat="50.77365" lon="2.7275">
        <ele>98.2</ele>
        <time>2023-08-05T13:11:59Z</time>
      </trkpt>
      <trkpt lat="50.77364" lon="2.72751">
        <ele>98.4</ele>
        <time>2023-08-05T13:12:00Z</time>
      </trkpt>
      <trkpt lat="50.77363" lon="2.72753">
        <ele>98.6</ele>
        <time>2023-08-05T13:12:01Z</time>
      </trkpt>
      <trkpt lat="50.77362" lon="2.72754">
        <ele>98.8</ele>
        <time>2023-08-05T13:12:02Z</time>
      </trkpt>
      <trkpt lat="50.77362" lon="2.72755">
        <ele>98.8</ele>
        <time>2023-08-05T13:12:03Z</time>
      </trkpt>
      <trkpt lat="50.77361" lon="2.72756">
        <ele>99</ele>
        <time>2023-08-05T13:12:04Z</time>
      </trkpt>
      <trkpt lat="50.7736" lon="2.72757">
        <ele>99.2</ele>
        <time>2023-08-05T13:12:05Z</time>
      </trkpt>
      <trkpt lat="50.77359" lon="2.72758">
        <ele>99.4</ele>
        <time>2023-08-05T13:12:06Z</time>
      </trkpt>
      <trkpt lat="50.77359" lon="2.72759">
        <ele>99.6</ele>
        <time>2023-08-05T13:12:07Z</time>
      </trkpt>
      <trkpt lat="50.77358" lon="2.7276">
        <ele>99.8</ele>
        <time>2023-08-05T13:12:08Z</time>
      </trkpt>
      <trkpt lat="50.77357" lon="2.72762">
        <ele>100</ele>
        <time>2023-08-05T13:12:09Z</time>
      </trkpt>
      <trkpt lat="50.77356" lon="2.72764">
        <ele>100.2</ele>
        <time>2023-08-05T13:12:10Z</time>
      </trkpt>
      <trkpt lat="50.77356" lon="2.72766">
        <ele>100.4</ele>
        <time>2023-08-05T13:12:11Z</time>
      </trkpt>
      <trkpt lat="50.77356" lon="2.72768">
        <ele>100.6</ele>
        <time>2023-08-05T13:12:12Z</time>
      </trkpt>
      <trkpt lat="50.77356" lon="2.72769">
        <ele>100.8</ele>
        <time>2023-08-05T13:12:13Z</time>
      </trkpt>
      <trkpt lat="50.77356" lon="2.7277">
        <ele>100.8</ele>
        <time>2023-08-05T13:12:14Z</time>
      </trkpt>
      <trkpt lat="50.77355" lon="2.72771">
        <ele>101</ele>
        <time>2023-08-05T13:12:15Z</time>
      </trkpt>
      <trkpt lat="50.77354" lon="2.72772">
        <ele>101</ele>
        <time>2023-08-05T13:12:16Z</time>
      </trkpt>
      <trkpt lat="50.77353" lon="2.72773">
        <ele>101.2</ele>
        <time>2023-08-05T13:12:17Z</time>
      </trkpt>
      <trkpt lat="50.77352" lon="2.72775">
        <ele>101.4</ele>
        <time>2023-08-05T13:12:18Z</time>
      </trkpt>
      <trkpt lat="50.77352" lon="2.72776">
        <ele>101.6</ele>
        <time>2023-08-05T13:12:19Z</time>
      </trkpt>
      <trkpt lat="50.77351" lon="2.72777">
        <ele>101.8</ele>
        <time>2023-08-05T13:12:20Z</time>
      </trkpt>
      <trkpt lat="50.77351" lon="2.72778">
        <ele>102</ele>
        <time>2023-08-05T13:12:21Z</time>
      </trkpt>
      <trkpt lat="50.7735" lon="2.72779">
        <ele>102.2</ele>
        <time>2023-08-05T13:12:22Z</time>
      </trkpt>
      <trkpt lat="50.77349" lon="2.72781">
        <ele>102.2</ele>
        <time>2023-08-05T13:12:23Z</time>
      </trkpt>
      <trkpt lat="50.77348" lon="2.72782">
        <ele>102.6</ele>
        <time>2023-08-05T13:12:24Z</time>
      </trkpt>
      <trkpt lat="50.77347" lon="2.72783">
        <ele>102.8</ele>
        <time>2023-08-05T13:12:25Z</time>
      </trkpt>
      <trkpt lat="50.77346" lon="2.72784">
        <ele>103</ele>
        <time>2023-08-05T13:12:26Z</time>
      </trkpt>
      <trkpt lat="50.77345" lon="2.72785">
        <ele>103.4</ele>
        <time>2023-08-05T13:12:27Z</time>
      </trkpt>
      <trkpt lat="50.77344" lon="2.72787">
        <ele>103.4</ele>
        <time>2023-08-05T13:12:28Z</time>
      </trkpt>
      <trkpt lat="50.77343" lon="2.72788">
        <ele>103.8</ele>
        <time>2023-08-05T13:12:29Z</time>
      </trkpt>
      <trkpt lat="50.77341" lon="2.7279">
        <ele>104</ele>
        <time>2023-08-05T13:12:30Z</time>
      </trkpt>
      <trkpt lat="50.7734" lon="2.72792">
        <ele>104.2</ele>
        <time>2023-08-05T13:12:31Z</time>
      </trkpt>
      <trkpt lat="50.77338" lon="2.72793">
        <ele>104.4</ele>
        <time>2023-08-05T13:12:32Z</time>
      </trkpt>
      <trkpt lat="50.77337" lon="2.72795">
        <ele>104.4</ele>
        <time>2023-08-05T13:12:33Z</time>
      </trkpt>
      <trkpt lat="50.77335" lon="2.72796">
        <ele>104.6</ele>
        <time>2023-08-05T13:12:34Z</time>
      </trkpt>
      <trkpt lat="50.77334" lon="2.72797">
        <ele>104.8</ele>
        <time>2023-08-05T13:12:35Z</time>
      </trkpt>
      <trkpt lat="50.77333" lon="2.72797">
        <ele>105</ele>
        <time>2023-08-05T13:12:36Z</time>
      </trkpt>
      <trkpt lat="50.77332" lon="2.72799">
        <ele>105.2</ele>
        <time>2023-08-05T13:12:37Z</time>
      </trkpt>
      <trkpt lat="50.77331" lon="2.728">
        <ele>105.4</ele>
        <time>2023-08-05T13:12:38Z</time>
      </trkpt>
      <trkpt lat="50.77331" lon="2.72802">
        <ele>105.6</ele>
        <time>2023-08-05T13:12:39Z</time>
      </trkpt>
      <trkpt lat="50.77331" lon="2.72804">
        <ele>106</ele>
        <time>2023-08-05T13:12:40Z</time>
      </trkpt>
      <trkpt lat="50.77332" lon="2.72805">
        <ele>106.2</ele>
        <time>2023-08-05T13:12:41Z</time>
      </trkpt>
      <trkpt lat="50.77332" lon="2.72807">
        <ele>106.4</ele>
        <time>2023-08-05T13:12:42Z</time>
      </trkpt>
      <trkpt lat="50.77333" lon="2.72808">
        <ele>106.8</ele>
        <time>2023-08-05T13:12:43Z</time>
      </trkpt>
      <trkpt lat="50.77333" lon="2.7281">
        <ele>106.8</ele>
        <time>2023-08-05T13:12:44Z</time>
      </trkpt>
      <trkpt lat="50.77333" lon="2.72811">
        <ele>107.2</ele>
        <time>2023-08-05T13:12:45Z</time>
      </trkpt>
      <trkpt lat="50.77332" lon="2.72811">
        <ele>107.2</ele>
        <time>2023-08-05T13:12:46Z</time>
      </trkpt>
      <trkpt lat="50.77332" lon="2.72813">
        <ele>107.4</ele>
        <time>2023-08-05T13:12:47Z</time>
      </trkpt>
      <trkpt lat="50.77331" lon="2.72814">
        <ele>107.6</ele>
        <time>2023-08-05T13:12:48Z</time>
      </trkpt>
      <trkpt lat="50.77332" lon="2.72817">
        <ele>107.8</ele>
        <time>2023-08-05T13:12:49Z</time>
      </trkpt>
      <trkpt lat="50.77332" lon="2.72819">
        <ele>108</ele>
        <time>2023-08-05T13:12:50Z</time>
      </trkpt>
      <trkpt lat="50.77332" lon="2.72821">
        <ele>108</ele>
        <time>2023-08-05T13:12:51Z</time>
      </trkpt>
      <trkpt lat="50.77332" lon="2.72823">
        <ele>108.2</ele>
        <time>2023-08-05T13:12:52Z</time>
      </trkpt>
      <trkpt lat="50.77332" lon="2.72824">
        <ele>108.4</ele>
        <time>2023-08-05T13:12:53Z</time>
      </trkpt>
      <trkpt lat="50.77332" lon="2.72825">
        <ele>108.6</ele>
        <time>2023-08-05T13:12:54Z</time>
      </trkpt>
      <trkpt lat="50.77332" lon="2.72827">
        <ele>108.8</ele>
        <time>2023-08-05T13:12:55Z</time>
      </trkpt>
      <trkpt lat="50.77332" lon="2.72829">
        <ele>109</ele>
        <time>2023-08-05T13:12:56Z</time>
      </trkpt>
      <trkpt lat="50.77333" lon="2.7283">
        <ele>109.2</ele>
        <time>2023-08-05T13:12:57Z</time>
      </trkpt>
      <trkpt lat="50.77333" lon="2.72831">
        <ele>109.4</ele>
        <time>2023-08-05T13:12:58Z</time>
      </trkpt>
      <trkpt lat="50.77334" lon="2.72833">
        <ele>109.6</ele>
        <time>2023-08-05T13:12:59Z</time>
      </trkpt>
      <trkpt lat="50.77334" lon="2.72835">
        <ele>109.8</ele>
        <time>2023-08-05T13:13:00Z</time>
      </trkpt>
      <trkpt lat="50.77336" lon="2.72837">
        <ele>110</ele>
        <time>2023-08-05T13:13:01Z</time>
      </trkpt>
      <trkpt lat="50.77336" lon="2.72837">
        <ele>110.2</ele>
        <time>2023-08-05T13:13:02Z</time>
      </trkpt>
      <trkpt lat="50.77336" lon="2.72839">
        <ele>110.4</ele>
        <time>2023-08-05T13:13:03Z</time>
      </trkpt>
      <trkpt lat="50.77336" lon="2.72841">
        <ele>110.6</ele>
        <time>2023-08-05T13:13:04Z</time>
      </trkpt>
      <trkpt lat="50.77337" lon="2.72844">
        <ele>110.8</ele>
        <time>2023-08-05T13:13:05Z</time>
      </trkpt>
      <trkpt lat="50.77338" lon="2.72848">
        <ele>110.8</ele>
        <time>2023-08-05T13:13:06Z</time>
      </trkpt>
      <trkpt lat="50.77338" lon="2.7285">
        <ele>111</ele>
        <time>2023-08-05T13:13:07Z</time>
      </trkpt>
      <trkpt lat="50.77338" lon="2.72852">
        <ele>111</ele>
        <time>2023-08-05T13:13:08Z</time>
      </trkpt>
      <trkpt lat="50.77339" lon="2.72853">
        <ele>111</ele>
        <time>2023-08-05T13:13:09Z</time>
      </trkpt>
      <trkpt lat="50.77339" lon="2.72854">
        <ele>111.2</ele>
        <time>2023-08-05T13:13:10Z</time>
      </trkpt>
      <trkpt lat="50.77339" lon="2.72855">
        <ele>111.2</ele>
        <time>2023-08-05T13:13:11Z</time>
      </trkpt>
      <trkpt lat="50.77339" lon="2.72855">
        <ele>111.4</ele>
        <time>2023-08-05T13:13:12Z</time>
      </trkpt>
      <trkpt lat="50.77339" lon="2.72858">
        <ele>111.6</ele>
        <time>2023-08-05T13:13:13Z</time>
      </trkpt>
      <trkpt lat="50.7734" lon="2.72864">
        <ele>111.6</ele>
        <time>2023-08-05T13:13:14Z</time>
      </trkpt>
      <trkpt lat="50.7734" lon="2.72867">
        <ele>111.8</ele>
        <time>2023-08-05T13:13:15Z</time>
      </trkpt>
      <trkpt lat="50.77341" lon="2.7287">
        <ele>111.8</ele>
        <time>2023-08-05T13:13:16Z</time>
      </trkpt>
      <trkpt lat="50.77341" lon="2.72871">
        <ele>112.2</ele>
        <time>2023-08-05T13:13:17Z</time>
      </trkpt>
      <trkpt lat="50.77341" lon="2.72873">
        <ele>112.2</ele>
        <time>2023-08-05T13:13:18Z</time>
      </trkpt>
      <trkpt lat="50.77341" lon="2.72874">
        <ele>112.4</ele>
        <time>2023-08-05T13:13:19Z</time>
      </trkpt>
      <trkpt lat="50.7734" lon="2.72875">
        <ele>112.4</ele>
        <time>2023-08-05T13:13:20Z</time>
      </trkpt>
      <trkpt lat="50.7734" lon="2.72876">
        <ele>112.6</ele>
        <time>2023-08-05T13:13:21Z</time>
      </trkpt>
      <trkpt lat="50.7734" lon="2.72876">
        <ele>112.8</ele>
        <time>2023-08-05T13:13:22Z</time>
      </trkpt>
      <trkpt lat="50.7734" lon="2.72877">
        <ele>113</ele>
        <time>2023-08-05T13:13:23Z</time>
      </trkpt>
      <trkpt lat="50.7734" lon="2.72878">
        <ele>113.2</ele>
        <time>2023-08-05T13:13:24Z</time>
      </trkpt>
      <trkpt lat="50.7734" lon="2.72879">
        <ele>113.2</ele>
        <time>2023-08-05T13:13:25Z</time>
      </trkpt>
      <trkpt lat="50.7734" lon="2.72881">
        <ele>113.4</ele>
        <time>2023-08-05T13:13:26Z</time>
      </trkpt>
      <trkpt lat="50.7734" lon="2.72884">
        <ele>113.6</ele>
        <time>2023-08-05T13:13:27Z</time>
      </trkpt>
      <trkpt lat="50.77339" lon="2.72886">
        <ele>113.8</ele>
        <time>2023-08-05T13:13:28Z</time>
      </trkpt>
      <trkpt lat="50.77338" lon="2.72888">
        <ele>114</ele>
        <time>2023-08-05T13:13:29Z</time>
      </trkpt>
      <trkpt lat="50.77338" lon="2.7289">
        <ele>114.2</ele>
        <time>2023-08-05T13:13:30Z</time>
      </trkpt>
      <trkpt lat="50.77338" lon="2.7289">
        <ele>114.4</ele>
        <time>2023-08-05T13:13:31Z</time>
      </trkpt>
      <trkpt lat="50.77338" lon="2.7289">
        <ele>114.4</ele>
        <time>2023-08-05T13:13:32Z</time>
      </trkpt>
      <trkpt lat="50.77337" lon="2.72892">
        <ele>114.6</ele>
        <time>2023-08-05T13:13:33Z</time>
      </trkpt>
      <trkpt lat="50.77336" lon="2.72894">
        <ele>114.6</ele>
        <time>2023-08-05T13:13:34Z</time>
      </trkpt>
      <trkpt lat="50.77337" lon="2.72897">
        <ele>114.8</ele>
        <time>2023-08-05T13:13:35Z</time>
      </trkpt>
      <trkpt lat="50.77336" lon="2.72899">
        <ele>115.2</ele>
        <time>2023-08-05T13:13:36Z</time>
      </trkpt>
      <trkpt lat="50.77335" lon="2.72901">
        <ele>115.2</ele>
        <time>2023-08-05T13:13:37Z</time>
      </trkpt>
      <trkpt lat="50.77333" lon="2.72903">
        <ele>115.4</ele>
        <time>2023-08-05T13:13:38Z</time>
      </trkpt>
      <trkpt lat="50.77333" lon="2.72904">
        <ele>115.6</ele>
        <time>2023-08-05T13:13:39Z</time>
      </trkpt>
      <trkpt lat="50.77333" lon="2.72904">
        <ele>115.6</ele>
        <time>2023-08-05T13:13:40Z</time>
      </trkpt>
      <trkpt lat="50.77333" lon="2.72904">
        <ele>115.8</ele>
        <time>2023-08-05T13:13:41Z</time>
      </trkpt>
      <trkpt lat="50.77333" lon="2.72906">
        <ele>116.2</ele>
        <time>2023-08-05T13:13:42Z</time>
      </trkpt>
      <trkpt lat="50.77331" lon="2.72908">
        <ele>116.4</ele>
        <time>2023-08-05T13:13:43Z</time>
      </trkpt>
      <trkpt lat="50.77331" lon="2.72909">
        <ele>116.4</ele>
        <time>2023-08-05T13:13:44Z</time>
      </trkpt>
      <trkpt lat="50.7733" lon="2.7291">
        <ele>116.8</ele>
        <time>2023-08-05T13:13:45Z</time>
      </trkpt>
      <trkpt lat="50.77329" lon="2.72912">
        <ele>116.8</ele>
        <time>2023-08-05T13:13:46Z</time>
      </trkpt>
      <trkpt lat="50.77329" lon="2.72913">
        <ele>117.2</ele>
        <time>2023-08-05T13:13:47Z</time>
      </trkpt>
      <trkpt lat="50.77328" lon="2.72914">
        <ele>117.4</ele>
        <time>2023-08-05T13:13:48Z</time>
      </trkpt>
      <trkpt lat="50.77327" lon="2.72915">
        <ele>117.6</ele>
        <time>2023-08-05T13:13:49Z</time>
      </trkpt>
      <trkpt lat="50.77327" lon="2.72917">
        <ele>117.6</ele>
        <time>2023-08-05T13:13:50Z</time>
      </trkpt>
      <trkpt lat="50.77326" lon="2.72919">
        <ele>117.8</ele>
        <time>2023-08-05T13:13:51Z</time>
      </trkpt>
      <trkpt lat="50.77324" lon="2.72921">
        <ele>118</ele>
        <time>2023-08-05T13:13:52Z</time>
      </trkpt>
      <trkpt lat="50.77322" lon="2.72923">
        <ele>118.2</ele>
        <time>2023-08-05T13:13:53Z</time>
      </trkpt>
      <trkpt lat="50.77321" lon="2.72925">
        <ele>118.6</ele>
        <time>2023-08-05T13:13:54Z</time>
      </trkpt>
      <trkpt lat="50.7732" lon="2.72928">
        <ele>118.6</ele>
        <time>2023-08-05T13:13:55Z</time>
      </trkpt>
      <trkpt lat="50.7732" lon="2.72929">
        <ele>119</ele>
        <time>2023-08-05T13:13:56Z</time>
      </trkpt>
      <trkpt lat="50.77318" lon="2.72931">
        <ele>119</ele>
        <time>2023-08-05T13:13:57Z</time>
      </trkpt>
      <trkpt lat="50.77317" lon="2.72933">
        <ele>119.2</ele>
        <time>2023-08-05T13:13:58Z</time>
      </trkpt>
      <trkpt lat="50.77316" lon="2.72935">
        <ele>119.4</ele>
        <time>2023-08-05T13:13:59Z</time>
      </trkpt>
      <trkpt lat="50.77315" lon="2.72937">
        <ele>119.4</ele>
        <time>2023-08-05T13:14:00Z</time>
      </trkpt>
      <trkpt lat="50.77314" lon="2.72941">
        <ele>119.8</ele>
        <time>2023-08-05T13:14:01Z</time>
      </trkpt>
      <trkpt lat="50.77314" lon="2.72944">
        <ele>119.8</ele>
        <time>2023-08-05T13:14:02Z</time>
      </trkpt>
      <trkpt lat="50.77313" lon="2.72946">
        <ele>120</ele>
        <time>2023-08-05T13:14:03Z</time>
      </trkpt>
      <trkpt lat="50.77312" lon="2.72949">
        <ele>120</ele>
        <time>2023-08-05T13:14:04Z</time>
      </trkpt>
      <trkpt lat="50.77311" lon="2.72952">
        <ele>120.2</ele>
        <time>2023-08-05T13:14:05Z</time>
      </trkpt>
      <trkpt lat="50.7731" lon="2.72956">
        <ele>120.2</ele>
        <time>2023-08-05T13:14:06Z</time>
      </trkpt>
      <trkpt lat="50.77309" lon="2.72959">
        <ele>120.2</ele>
        <time>2023-08-05T13:14:07Z</time>
      </trkpt>
      <trkpt lat="50.77308" lon="2.72963">
        <ele>120.4</ele>
        <time>2023-08-05T13:14:08Z</time>
      </trkpt>
      <trkpt lat="50.77307" lon="2.72967">
        <ele>120.4</ele>
        <time>2023-08-05T13:14:09Z</time>
      </trkpt>
      <trkpt lat="50.77307" lon="2.7297">
        <ele>120.6</ele>
        <time>2023-08-05T13:14:10Z</time>
      </trkpt>
      <trkpt lat="50.77306" lon="2.72973">
        <ele>120.6</ele>
        <time>2023-08-05T13:14:11Z</time>
      </trkpt>
      <trkpt lat="50.77306" lon="2.72976">
        <ele>120.8</ele>
        <time>2023-08-05T13:14:12Z</time>
      </trkpt>
      <trkpt lat="50.77305" lon="2.72979">
        <ele>120.8</ele>
        <time>2023-08-05T13:14:13Z</time>
      </trkpt>
      <trkpt lat="50.77305" lon="2.72982">
        <ele>120.8</ele>
        <time>2023-08-05T13:14:14Z</time>
      </trkpt>
      <trkpt lat="50.77305" lon="2.72984">
        <ele>121</ele>
        <time>2023-08-05T13:14:15Z</time>
      </trkpt>
      <trkpt lat="50.77305" lon="2.72986">
        <ele>121</ele>
        <time>2023-08-05T13:14:16Z</time>
      </trkpt>
      <trkpt lat="50.77305" lon="2.72988">
        <ele>121</ele>
        <time>2023-08-05T13:14:17Z</time>
      </trkpt>
      <trkpt lat="50.77305" lon="2.72991">
        <ele>121</ele>
        <time>2023-08-05T13:14:18Z</time>
      </trkpt>
      <trkpt lat="50.77306" lon="2.72995">
        <ele>121</ele>
        <time>2023-08-05T13:14:19Z</time>
      </trkpt>
      <trkpt lat="50.77305" lon="2.73001">
        <ele>121.2</ele>
        <time>2023-08-05T13:14:20Z</time>
      </trkpt>
      <trkpt lat="50.77305" lon="2.73004">
        <ele>121.2</ele>
        <time>2023-08-05T13:14:21Z</time>
      </trkpt>
      <trkpt lat="50.77305" lon="2.73006">
        <ele>121.2</ele>
        <time>2023-08-05T13:14:22Z</time>
      </trkpt>
      <trkpt lat="50.77305" lon="2.7301">
        <ele>121.2</ele>
        <time>2023-08-05T13:14:23Z</time>
      </trkpt>
      <trkpt lat="50.77305" lon="2.73013">
        <ele>121.2</ele>
        <time>2023-08-05T13:14:24Z</time>
      </trkpt>
      <trkpt lat="50.77306" lon="2.73015">
        <ele>121.2</ele>
        <time>2023-08-05T13:14:25Z</time>
      </trkpt>
      <trkpt lat="50.77305" lon="2.73016">
        <ele>121.4</ele>
        <time>2023-08-05T13:14:26Z</time>
      </trkpt>
      <trkpt lat="50.77305" lon="2.73017">
        <ele>121.6</ele>
        <time>2023-08-05T13:14:27Z</time>
      </trkpt>
      <trkpt lat="50.77304" lon="2.73019">
        <ele>121.6</ele>
        <time>2023-08-05T13:14:28Z</time>
      </trkpt>
      <trkpt lat="50.77304" lon="2.73021">
        <ele>121.6</ele>
        <time>2023-08-05T13:14:29Z</time>
      </trkpt>
      <trkpt lat="50.77304" lon="2.73026">
        <ele>121.6</ele>
        <time>2023-08-05T13:14:34Z</time>
      </trkpt>
      <trkpt lat="50.77305" lon="2.73027">
        <ele>121.4</ele>
        <time>2023-08-05T13:14:35Z</time>
      </trkpt>
      <trkpt lat="50.77304" lon="2.73029">
        <ele>121.4</ele>
        <time>2023-08-05T13:14:36Z</time>
      </trkpt>
      <trkpt lat="50.77303" lon="2.73031">
        <ele>121.4</ele>
        <time>2023-08-05T13:14:37Z</time>
      </trkpt>
      <trkpt lat="50.77303" lon="2.73033">
        <ele>121.4</ele>
        <time>2023-08-05T13:14:38Z</time>
      </trkpt>
      <trkpt lat="50.77305" lon="2.73039">
        <ele>121.2</ele>
        <time>2023-08-05T13:14:41Z</time>
      </trkpt>
      <trkpt lat="50.77305" lon="2.73041">
        <ele>121.2</ele>
        <time>2023-08-05T13:14:42Z</time>
      </trkpt>
      <trkpt lat="50.77306" lon="2.73044">
        <ele>121.2</ele>
        <time>2023-08-05T13:14:43Z</time>
      </trkpt>
      <trkpt lat="50.77306" lon="2.73051">
        <ele>121.2</ele>
        <time>2023-08-05T13:14:46Z</time>
      </trkpt>
      <trkpt lat="50.77307" lon="2.73053">
        <ele>121.2</ele>
        <time>2023-08-05T13:14:47Z</time>
      </trkpt>
      <trkpt lat="50.77308" lon="2.73057">
        <ele>121.2</ele>
        <time>2023-08-05T13:14:49Z</time>
      </trkpt>
      <trkpt lat="50.77308" lon="2.73066">
        <ele>121.4</ele>
        <time>2023-08-05T13:14:53Z</time>
      </trkpt>
      <trkpt lat="50.77308" lon="2.73069">
        <ele>121.4</ele>
        <time>2023-08-05T13:14:54Z</time>
      </trkpt>
      <trkpt lat="50.77308" lon="2.73078">
        <ele>121.6</ele>
        <time>2023-08-05T13:14:58Z</time>
      </trkpt>
      <trkpt lat="50.77308" lon="2.73081">
        <ele>121.6</ele>
        <time>2023-08-05T13:14:59Z</time>
      </trkpt>
      <trkpt lat="50.7731" lon="2.73096">
        <ele>121.6</ele>
        <time>2023-08-05T13:15:04Z</time>
      </trkpt>
      <trkpt lat="50.77311" lon="2.73111">
        <ele>121.6</ele>
        <time>2023-08-05T13:15:09Z</time>
      </trkpt>
      <trkpt lat="50.77312" lon="2.73119">
        <ele>121.8</ele>
        <time>2023-08-05T13:15:12Z</time>
      </trkpt>
      <trkpt lat="50.77311" lon="2.73123">
        <ele>121.8</ele>
        <time>2023-08-05T13:15:13Z</time>
      </trkpt>
      <trkpt lat="50.77311" lon="2.73127">
        <ele>121.8</ele>
        <time>2023-08-05T13:15:14Z</time>
      </trkpt>
      <trkpt lat="50.77311" lon="2.73131">
        <ele>122</ele>
        <time>2023-08-05T13:15:15Z</time>
      </trkpt>
      <trkpt lat="50.77311" lon="2.73135">
        <ele>122</ele>
        <time>2023-08-05T13:15:16Z</time>
      </trkpt>
      <trkpt lat="50.77313" lon="2.7314">
        <ele>122.4</ele>
        <time>2023-08-05T13:15:18Z</time>
      </trkpt>
      <trkpt lat="50.77314" lon="2.73144">
        <ele>122.4</ele>
        <time>2023-08-05T13:15:19Z</time>
      </trkpt>
      <trkpt lat="50.77314" lon="2.73147">
        <ele>122.4</ele>
        <time>2023-08-05T13:15:20Z</time>
      </trkpt>
      <trkpt lat="50.77314" lon="2.73156">
        <ele>123</ele>
        <time>2023-08-05T13:15:23Z</time>
      </trkpt>
      <trkpt lat="50.77314" lon="2.7316">
        <ele>122.8</ele>
        <time>2023-08-05T13:15:24Z</time>
      </trkpt>
      <trkpt lat="50.77315" lon="2.73164">
        <ele>123.6</ele>
        <time>2023-08-05T13:15:26Z</time>
      </trkpt>
      <trkpt lat="50.77315" lon="2.7317">
        <ele>124</ele>
        <time>2023-08-05T13:15:28Z</time>
      </trkpt>
      <trkpt lat="50.77316" lon="2.7318">
        <ele>124.4</ele>
        <time>2023-08-05T13:15:31Z</time>
      </trkpt>
      <trkpt lat="50.77318" lon="2.73192">
        <ele>124.8</ele>
        <time>2023-08-05T13:15:35Z</time>
      </trkpt>
      <trkpt lat="50.77318" lon="2.73195">
        <ele>125</ele>
        <time>2023-08-05T13:15:36Z</time>
      </trkpt>
      <trkpt lat="50.77318" lon="2.73198">
        <ele>125</ele>
        <time>2023-08-05T13:15:37Z</time>
      </trkpt>
      <trkpt lat="50.77318" lon="2.73201">
        <ele>125</ele>
        <time>2023-08-05T13:15:38Z</time>
      </trkpt>
      <trkpt lat="50.77318" lon="2.73204">
        <ele>125.2</ele>
        <time>2023-08-05T13:15:39Z</time>
      </trkpt>
      <trkpt lat="50.77319" lon="2.73208">
        <ele>125.4</ele>
        <time>2023-08-05T13:15:40Z</time>
      </trkpt>
      <trkpt lat="50.77319" lon="2.73211">
        <ele>125.4</ele>
        <time>2023-08-05T13:15:41Z</time>
      </trkpt>
      <trkpt lat="50.7732" lon="2.73214">
        <ele>125.4</ele>
        <time>2023-08-05T13:15:42Z</time>
      </trkpt>
      <trkpt lat="50.7732" lon="2.73217">
        <ele>125.4</ele>
        <time>2023-08-05T13:15:43Z</time>
      </trkpt>
      <trkpt lat="50.7732" lon="2.7322">
        <ele>125.6</ele>
        <time>2023-08-05T13:15:44Z</time>
      </trkpt>
      <trkpt lat="50.7732" lon="2.73224">
        <ele>125.6</ele>
        <time>2023-08-05T13:15:45Z</time>
      </trkpt>
      <trkpt lat="50.77321" lon="2.73227">
        <ele>125.8</ele>
        <time>2023-08-05T13:15:46Z</time>
      </trkpt>
      <trkpt lat="50.77321" lon="2.7323">
        <ele>125.8</ele>
        <time>2023-08-05T13:15:47Z</time>
      </trkpt>
      <trkpt lat="50.77321" lon="2.73234">
        <ele>126</ele>
        <time>2023-08-05T13:15:48Z</time>
      </trkpt>
      <trkpt lat="50.77321" lon="2.73236">
        <ele>126</ele>
        <time>2023-08-05T13:15:49Z</time>
      </trkpt>
      <trkpt lat="50.77322" lon="2.7324">
        <ele>126</ele>
        <time>2023-08-05T13:15:50Z</time>
      </trkpt>
      <trkpt lat="50.77322" lon="2.73244">
        <ele>126</ele>
        <time>2023-08-05T13:15:51Z</time>
      </trkpt>
      <trkpt lat="50.77322" lon="2.73247">
        <ele>126</ele>
        <time>2023-08-05T13:15:52Z</time>
      </trkpt>
      <trkpt lat="50.77322" lon="2.7325">
        <ele>126</ele>
        <time>2023-08-05T13:15:53Z</time>
      </trkpt>
      <trkpt lat="50.77323" lon="2.73265">
        <ele>126.2</ele>
        <time>2023-08-05T13:15:57Z</time>
      </trkpt>
      <trkpt lat="50.77323" lon="2.73282">
        <ele>126.6</ele>
        <time>2023-08-05T13:16:02Z</time>
      </trkpt>
      <trkpt lat="50.77324" lon="2.73292">
        <ele>126.8</ele>
        <time>2023-08-05T13:16:05Z</time>
      </trkpt>
      <trkpt lat="50.77324" lon="2.73299">
        <ele>127</ele>
        <time>2023-08-05T13:16:07Z</time>
      </trkpt>
      <trkpt lat="50.77325" lon="2.73302">
        <ele>127</ele>
        <time>2023-08-05T13:16:08Z</time>
      </trkpt>
      <trkpt lat="50.77326" lon="2.73326">
        <ele>127.4</ele>
        <time>2023-08-05T13:16:14Z</time>
      </trkpt>
      <trkpt lat="50.77327" lon="2.73342">
        <ele>127.6</ele>
        <time>2023-08-05T13:16:18Z</time>
      </trkpt>
      <trkpt lat="50.77327" lon="2.7335">
        <ele>127.8</ele>
        <time>2023-08-05T13:16:20Z</time>
      </trkpt>
      <trkpt lat="50.77327" lon="2.73361">
        <ele>128</ele>
        <time>2023-08-05T13:16:23Z</time>
      </trkpt>
      <trkpt lat="50.77326" lon="2.73367">
        <ele>128.2</ele>
        <time>2023-08-05T13:16:25Z</time>
      </trkpt>
      <trkpt lat="50.77325" lon="2.7337">
        <ele>128.4</ele>
        <time>2023-08-05T13:16:26Z</time>
      </trkpt>
      <trkpt lat="50.77324" lon="2.73373">
        <ele>128.4</ele>
        <time>2023-08-05T13:16:27Z</time>
      </trkpt>
      <trkpt lat="50.77322" lon="2.73376">
        <ele>128.4</ele>
        <time>2023-08-05T13:16:28Z</time>
      </trkpt>
      <trkpt lat="50.77314" lon="2.73385">
        <ele>128.6</ele>
        <time>2023-08-05T13:16:32Z</time>
      </trkpt>
      <trkpt lat="50.77312" lon="2.73386">
        <ele>128.6</ele>
        <time>2023-08-05T13:16:33Z</time>
      </trkpt>
      <trkpt lat="50.7731" lon="2.73388">
        <ele>128.6</ele>
        <time>2023-08-05T13:16:34Z</time>
      </trkpt>
      <trkpt lat="50.77307" lon="2.73393">
        <ele>128.4</ele>
        <time>2023-08-05T13:16:36Z</time>
      </trkpt>
      <trkpt lat="50.77306" lon="2.73396">
        <ele>128.4</ele>
        <time>2023-08-05T13:16:37Z</time>
      </trkpt>
      <trkpt lat="50.77306" lon="2.734">
        <ele>128.4</ele>
        <time>2023-08-05T13:16:38Z</time>
      </trkpt>
      <trkpt lat="50.77306" lon="2.73403">
        <ele>128.4</ele>
        <time>2023-08-05T13:16:39Z</time>
      </trkpt>
      <trkpt lat="50.77306" lon="2.73407">
        <ele>128.4</ele>
        <time>2023-08-05T13:16:40Z</time>
      </trkpt>
      <trkpt lat="50.77305" lon="2.73411">
        <ele>128.4</ele>
        <time>2023-08-05T13:16:41Z</time>
      </trkpt>
      <trkpt lat="50.77305" lon="2.73414">
        <ele>128.4</ele>
        <time>2023-08-05T13:16:42Z</time>
      </trkpt>
      <trkpt lat="50.77302" lon="2.73429">
        <ele>128.4</ele>
        <time>2023-08-05T13:16:46Z</time>
      </trkpt>
      <trkpt lat="50.77294" lon="2.7346">
        <ele>128.6</ele>
        <time>2023-08-05T13:16:53Z</time>
      </trkpt>
      <trkpt lat="50.77281" lon="2.73494">
        <ele>128.6</ele>
        <time>2023-08-05T13:17:00Z</time>
      </trkpt>
      <trkpt lat="50.77268" lon="2.73526">
        <ele>128.8</ele>
        <time>2023-08-05T13:17:07Z</time>
      </trkpt>
      <trkpt lat="50.77266" lon="2.7353">
        <ele>128.8</ele>
        <time>2023-08-05T13:17:08Z</time>
      </trkpt>
      <trkpt lat="50.77259" lon="2.73549">
        <ele>129.2</ele>
        <time>2023-08-05T13:17:12Z</time>
      </trkpt>
      <trkpt lat="50.77245" lon="2.73587">
        <ele>129.4</ele>
        <time>2023-08-05T13:17:20Z</time>
      </trkpt>
      <trkpt lat="50.77244" lon="2.7359">
        <ele>129.4</ele>
        <time>2023-08-05T13:17:21Z</time>
      </trkpt>
      <trkpt lat="50.77238" lon="2.73615">
        <ele>129.6</ele>
        <time>2023-08-05T13:17:26Z</time>
      </trkpt>
      <trkpt lat="50.77236" lon="2.73624">
        <ele>130</ele>
        <time>2023-08-05T13:17:28Z</time>
      </trkpt>
      <trkpt lat="50.77234" lon="2.73629">
        <ele>130</ele>
        <time>2023-08-05T13:17:29Z</time>
      </trkpt>
      <trkpt lat="50.77233" lon="2.73633">
        <ele>130.2</ele>
        <time>2023-08-05T13:17:30Z</time>
      </trkpt>
      <trkpt lat="50.77233" lon="2.73637">
        <ele>130.2</ele>
        <time>2023-08-05T13:17:31Z</time>
      </trkpt>
      <trkpt lat="50.77232" lon="2.73642">
        <ele>130.4</ele>
        <time>2023-08-05T13:17:32Z</time>
      </trkpt>
      <trkpt lat="50.7723" lon="2.73647">
        <ele>130.4</ele>
        <time>2023-08-05T13:17:33Z</time>
      </trkpt>
      <trkpt lat="50.77229" lon="2.73652">
        <ele>130.6</ele>
        <time>2023-08-05T13:17:34Z</time>
      </trkpt>
      <trkpt lat="50.77228" lon="2.73657">
        <ele>130.6</ele>
        <time>2023-08-05T13:17:35Z</time>
      </trkpt>
      <trkpt lat="50.77224" lon="2.73689">
        <ele>130.8</ele>
        <time>2023-08-05T13:17:41Z</time>
      </trkpt>
      <trkpt lat="50.77218" lon="2.73734">
        <ele>131</ele>
        <time>2023-08-05T13:17:50Z</time>
      </trkpt>
      <trkpt lat="50.77217" lon="2.73738">
        <ele>131.2</ele>
        <time>2023-08-05T13:17:51Z</time>
      </trkpt>
      <trkpt lat="50.77216" lon="2.73743">
        <ele>131.2</ele>
        <time>2023-08-05T13:17:52Z</time>
      </trkpt>
      <trkpt lat="50.77214" lon="2.73748">
        <ele>131.2</ele>
        <time>2023-08-05T13:17:53Z</time>
      </trkpt>
      <trkpt lat="50.77205" lon="2.73771">
        <ele>131.4</ele>
        <time>2023-08-05T13:17:58Z</time>
      </trkpt>
      <trkpt lat="50.77191" lon="2.73829">
        <ele>131.8</ele>
        <time>2023-08-05T13:18:09Z</time>
      </trkpt>
      <trkpt lat="50.77191" lon="2.73835">
        <ele>131.8</ele>
        <time>2023-08-05T13:18:10Z</time>
      </trkpt>
      <trkpt lat="50.77191" lon="2.73878">
        <ele>132</ele>
        <time>2023-08-05T13:18:17Z</time>
      </trkpt>
      <trkpt lat="50.77193" lon="2.73914">
        <ele>132.4</ele>
        <time>2023-08-05T13:18:23Z</time>
      </trkpt>
      <trkpt lat="50.77194" lon="2.7392">
        <ele>132.4</ele>
        <time>2023-08-05T13:18:24Z</time>
      </trkpt>
      <trkpt lat="50.77194" lon="2.73925">
        <ele>132.4</ele>
        <time>2023-08-05T13:18:25Z</time>
      </trkpt>
      <trkpt lat="50.77195" lon="2.73931">
        <ele>132.4</ele>
        <time>2023-08-05T13:18:26Z</time>
      </trkpt>
      <trkpt lat="50.77195" lon="2.73936">
        <ele>132.4</ele>
        <time>2023-08-05T13:18:27Z</time>
      </trkpt>
      <trkpt lat="50.77196" lon="2.73942">
        <ele>132.4</ele>
        <time>2023-08-05T13:18:28Z</time>
      </trkpt>
      <trkpt lat="50.77195" lon="2.73963">
        <ele>132.4</ele>
        <time>2023-08-05T13:18:32Z</time>
      </trkpt>
      <trkpt lat="50.77194" lon="2.73966">
        <ele>132.4</ele>
        <time>2023-08-05T13:18:33Z</time>
      </trkpt>
      <trkpt lat="50.77191" lon="2.7397">
        <ele>132.4</ele>
        <time>2023-08-05T13:18:34Z</time>
      </trkpt>
      <trkpt lat="50.77188" lon="2.73972">
        <ele>132.2</ele>
        <time>2023-08-05T13:18:35Z</time>
      </trkpt>
      <trkpt lat="50.77182" lon="2.73976">
        <ele>132.2</ele>
        <time>2023-08-05T13:18:37Z</time>
      </trkpt>
      <trkpt lat="50.77178" lon="2.73978">
        <ele>132.2</ele>
        <time>2023-08-05T13:18:38Z</time>
      </trkpt>
      <trkpt lat="50.77162" lon="2.73987">
        <ele>132</ele>
        <time>2023-08-05T13:18:42Z</time>
      </trkpt>
      <trkpt lat="50.77128" lon="2.7401">
        <ele>131</ele>
        <time>2023-08-05T13:18:49Z</time>
      </trkpt>
      <trkpt lat="50.77123" lon="2.74013">
        <ele>130.8</ele>
        <time>2023-08-05T13:18:50Z</time>
      </trkpt>
      <trkpt lat="50.77102" lon="2.74029">
        <ele>130</ele>
        <time>2023-08-05T13:18:54Z</time>
      </trkpt>
      <trkpt lat="50.7708" lon="2.74045">
        <ele>129.2</ele>
        <time>2023-08-05T13:18:58Z</time>
      </trkpt>
      <trkpt lat="50.77073" lon="2.7405">
        <ele>128.8</ele>
        <time>2023-08-05T13:18:59Z</time>
      </trkpt>
      <trkpt lat="50.77044" lon="2.74071">
        <ele>127.6</ele>
        <time>2023-08-05T13:19:04Z</time>
      </trkpt>
      <trkpt lat="50.77031" lon="2.7408">
        <ele>127.2</ele>
        <time>2023-08-05T13:19:06Z</time>
      </trkpt>
      <trkpt lat="50.77012" lon="2.74091">
        <ele>126.4</ele>
        <time>2023-08-05T13:19:09Z</time>
      </trkpt>
      <trkpt lat="50.76979" lon="2.74106">
        <ele>125</ele>
        <time>2023-08-05T13:19:14Z</time>
      </trkpt>
      <trkpt lat="50.76948" lon="2.74118">
        <ele>124</ele>
        <time>2023-08-05T13:19:19Z</time>
      </trkpt>
      <trkpt lat="50.76942" lon="2.7412">
        <ele>123.8</ele>
        <time>2023-08-05T13:19:20Z</time>
      </trkpt>
      <trkpt lat="50.76938" lon="2.74122">
        <ele>123.8</ele>
        <time>2023-08-05T13:19:21Z</time>
      </trkpt>
      <trkpt lat="50.76933" lon="2.74124">
        <ele>123.4</ele>
        <time>2023-08-05T13:19:22Z</time>
      </trkpt>
      <trkpt lat="50.76928" lon="2.74126">
        <ele>123.2</ele>
        <time>2023-08-05T13:19:23Z</time>
      </trkpt>
      <trkpt lat="50.76924" lon="2.74127">
        <ele>123</ele>
        <time>2023-08-05T13:19:24Z</time>
      </trkpt>
      <trkpt lat="50.76921" lon="2.74126">
        <ele>122.6</ele>
        <time>2023-08-05T13:19:25Z</time>
      </trkpt>
      <trkpt lat="50.7692" lon="2.74124">
        <ele>122.4</ele>
        <time>2023-08-05T13:19:26Z</time>
      </trkpt>
      <trkpt lat="50.76919" lon="2.74121">
        <ele>122.2</ele>
        <time>2023-08-05T13:19:27Z</time>
      </trkpt>
      <trkpt lat="50.76918" lon="2.74117">
        <ele>122.2</ele>
        <time>2023-08-05T13:19:28Z</time>
      </trkpt>
      <trkpt lat="50.76916" lon="2.74112">
        <ele>122</ele>
        <time>2023-08-05T13:19:29Z</time>
      </trkpt>
      <trkpt lat="50.76915" lon="2.74108">
        <ele>121.8</ele>
        <time>2023-08-05T13:19:30Z</time>
      </trkpt>
      <trkpt lat="50.76909" lon="2.74095">
        <ele>121.6</ele>
        <time>2023-08-05T13:19:33Z</time>
      </trkpt>
      <trkpt lat="50.769" lon="2.74078">
        <ele>121.2</ele>
        <time>2023-08-05T13:19:36Z</time>
      </trkpt>
      <trkpt lat="50.76888" lon="2.74058">
        <ele>120.6</ele>
        <time>2023-08-05T13:19:39Z</time>
      </trkpt>
      <trkpt lat="50.76878" lon="2.74037">
        <ele>120.4</ele>
        <time>2023-08-05T13:19:42Z</time>
      </trkpt>
      <trkpt lat="50.76868" lon="2.7402">
        <ele>119.8</ele>
        <time>2023-08-05T13:19:44Z</time>
      </trkpt>
      <trkpt lat="50.76864" lon="2.74013">
        <ele>119.4</ele>
        <time>2023-08-05T13:19:45Z</time>
      </trkpt>
      <trkpt lat="50.76854" lon="2.73998">
        <ele>118.8</ele>
        <time>2023-08-05T13:19:47Z</time>
      </trkpt>
      <trkpt lat="50.76845" lon="2.73982">
        <ele>118.4</ele>
        <time>2023-08-05T13:19:49Z</time>
      </trkpt>
      <trkpt lat="50.76834" lon="2.73964">
        <ele>117.8</ele>
        <time>2023-08-05T13:19:51Z</time>
      </trkpt>
      <trkpt lat="50.76826" lon="2.73947">
        <ele>117</ele>
        <time>2023-08-05T13:19:53Z</time>
      </trkpt>
      <trkpt lat="50.76816" lon="2.73926">
        <ele>116.6</ele>
        <time>2023-08-05T13:19:55Z</time>
      </trkpt>
      <trkpt lat="50.76803" lon="2.73898">
        <ele>116</ele>
        <time>2023-08-05T13:19:58Z</time>
      </trkpt>
      <trkpt lat="50.76797" lon="2.73886">
        <ele>115.4</ele>
        <time>2023-08-05T13:19:59Z</time>
      </trkpt>
      <trkpt lat="50.76792" lon="2.73876">
        <ele>115</ele>
        <time>2023-08-05T13:20:00Z</time>
      </trkpt>
      <trkpt lat="50.76774" lon="2.73835">
        <ele>113.6</ele>
        <time>2023-08-05T13:20:04Z</time>
      </trkpt>
      <trkpt lat="50.76755" lon="2.73799">
        <ele>112.2</ele>
        <time>2023-08-05T13:20:08Z</time>
      </trkpt>
      <trkpt lat="50.76745" lon="2.7378">
        <ele>111.8</ele>
        <time>2023-08-05T13:20:10Z</time>
      </trkpt>
      <trkpt lat="50.7674" lon="2.73772">
        <ele>111.4</ele>
        <time>2023-08-05T13:20:11Z</time>
      </trkpt>
      <trkpt lat="50.76737" lon="2.73765">
        <ele>111.2</ele>
        <time>2023-08-05T13:20:12Z</time>
      </trkpt>
      <trkpt lat="50.76734" lon="2.73759">
        <ele>110.8</ele>
        <time>2023-08-05T13:20:13Z</time>
      </trkpt>
      <trkpt lat="50.7673" lon="2.7375">
        <ele>110.8</ele>
        <time>2023-08-05T13:20:14Z</time>
      </trkpt>
      <trkpt lat="50.76726" lon="2.73744">
        <ele>110.2</ele>
        <time>2023-08-05T13:20:15Z</time>
      </trkpt>
      <trkpt lat="50.76722" lon="2.73737">
        <ele>110</ele>
        <time>2023-08-05T13:20:16Z</time>
      </trkpt>
      <trkpt lat="50.76701" lon="2.73701">
        <ele>109.2</ele>
        <time>2023-08-05T13:20:21Z</time>
      </trkpt>
      <trkpt lat="50.76696" lon="2.73693">
        <ele>109</ele>
        <time>2023-08-05T13:20:22Z</time>
      </trkpt>
      <trkpt lat="50.76677" lon="2.7366">
        <ele>107.8</ele>
        <time>2023-08-05T13:20:27Z</time>
      </trkpt>
      <trkpt lat="50.76669" lon="2.73647">
        <ele>107.6</ele>
        <time>2023-08-05T13:20:29Z</time>
      </trkpt>
      <trkpt lat="50.76665" lon="2.73642">
        <ele>107.4</ele>
        <time>2023-08-05T13:20:30Z</time>
      </trkpt>
      <trkpt lat="50.76662" lon="2.73637">
        <ele>107.2</ele>
        <time>2023-08-05T13:20:31Z</time>
      </trkpt>
      <trkpt lat="50.76658" lon="2.73632">
        <ele>106.8</ele>
        <time>2023-08-05T13:20:32Z</time>
      </trkpt>
      <trkpt lat="50.76655" lon="2.73627">
        <ele>106.8</ele>
        <time>2023-08-05T13:20:33Z</time>
      </trkpt>
      <trkpt lat="50.76652" lon="2.73621">
        <ele>106.6</ele>
        <time>2023-08-05T13:20:34Z</time>
      </trkpt>
      <trkpt lat="50.76645" lon="2.7361">
        <ele>106.2</ele>
        <time>2023-08-05T13:20:36Z</time>
      </trkpt>
      <trkpt lat="50.7663" lon="2.73587">
        <ele>105.6</ele>
        <time>2023-08-05T13:20:40Z</time>
      </trkpt>
      <trkpt lat="50.76614" lon="2.73567">
        <ele>105.4</ele>
        <time>2023-08-05T13:20:44Z</time>
      </trkpt>
      <trkpt lat="50.76581" lon="2.73547">
        <ele>105.2</ele>
        <time>2023-08-05T13:20:51Z</time>
      </trkpt>
      <trkpt lat="50.76577" lon="2.73546">
        <ele>105.2</ele>
        <time>2023-08-05T13:20:52Z</time>
      </trkpt>
      <trkpt lat="50.76572" lon="2.73544">
        <ele>105.2</ele>
        <time>2023-08-05T13:20:53Z</time>
      </trkpt>
      <trkpt lat="50.76568" lon="2.73542">
        <ele>105.2</ele>
        <time>2023-08-05T13:20:54Z</time>
      </trkpt>
      <trkpt lat="50.76538" lon="2.73531">
        <ele>105</ele>
        <time>2023-08-05T13:21:00Z</time>
      </trkpt>
      <trkpt lat="50.76508" lon="2.7352">
        <ele>104.6</ele>
        <time>2023-08-05T13:21:06Z</time>
      </trkpt>
      <trkpt lat="50.76503" lon="2.73518">
        <ele>104.6</ele>
        <time>2023-08-05T13:21:07Z</time>
      </trkpt>
      <trkpt lat="50.76498" lon="2.73515">
        <ele>104.6</ele>
        <time>2023-08-05T13:21:08Z</time>
      </trkpt>
      <trkpt lat="50.76457" lon="2.7349">
        <ele>104</ele>
        <time>2023-08-05T13:21:16Z</time>
      </trkpt>
      <trkpt lat="50.76452" lon="2.73486">
        <ele>104</ele>
        <time>2023-08-05T13:21:17Z</time>
      </trkpt>
      <trkpt lat="50.76447" lon="2.73483">
        <ele>103.8</ele>
        <time>2023-08-05T13:21:18Z</time>
      </trkpt>
      <trkpt lat="50.76433" lon="2.73474">
        <ele>103.4</ele>
        <time>2023-08-05T13:21:21Z</time>
      </trkpt>
      <trkpt lat="50.76424" lon="2.73466">
        <ele>103.2</ele>
        <time>2023-08-05T13:21:23Z</time>
      </trkpt>
      <trkpt lat="50.76419" lon="2.73462">
        <ele>103.2</ele>
        <time>2023-08-05T13:21:24Z</time>
      </trkpt>
      <trkpt lat="50.76414" lon="2.73458">
        <ele>103.2</ele>
        <time>2023-08-05T13:21:25Z</time>
      </trkpt>
      <trkpt lat="50.7641" lon="2.73454">
        <ele>103.2</ele>
        <time>2023-08-05T13:21:26Z</time>
      </trkpt>
      <trkpt lat="50.76406" lon="2.73451">
        <ele>103.2</ele>
        <time>2023-08-05T13:21:27Z</time>
      </trkpt>
      <trkpt lat="50.76402" lon="2.73447">
        <ele>103.2</ele>
        <time>2023-08-05T13:21:28Z</time>
      </trkpt>
      <trkpt lat="50.76394" lon="2.7344">
        <ele>103.4</ele>
        <time>2023-08-05T13:21:30Z</time>
      </trkpt>
      <trkpt lat="50.7639" lon="2.73438">
        <ele>103.4</ele>
        <time>2023-08-05T13:21:31Z</time>
      </trkpt>
      <trkpt lat="50.76385" lon="2.73437">
        <ele>103.4</ele>
        <time>2023-08-05T13:21:32Z</time>
      </trkpt>
      <trkpt lat="50.76377" lon="2.73434">
        <ele>103.8</ele>
        <time>2023-08-05T13:21:34Z</time>
      </trkpt>
      <trkpt lat="50.76374" lon="2.73433">
        <ele>103.8</ele>
        <time>2023-08-05T13:21:35Z</time>
      </trkpt>
      <trkpt lat="50.7637" lon="2.73432">
        <ele>103.8</ele>
        <time>2023-08-05T13:21:36Z</time>
      </trkpt>
      <trkpt lat="50.76366" lon="2.73431">
        <ele>103.8</ele>
        <time>2023-08-05T13:21:37Z</time>
      </trkpt>
      <trkpt lat="50.76363" lon="2.73431">
        <ele>104</ele>
        <time>2023-08-05T13:21:38Z</time>
      </trkpt>
      <trkpt lat="50.7636" lon="2.73431">
        <ele>104</ele>
        <time>2023-08-05T13:21:39Z</time>
      </trkpt>
      <trkpt lat="50.76357" lon="2.73431">
        <ele>104</ele>
        <time>2023-08-05T13:21:40Z</time>
      </trkpt>
      <trkpt lat="50.76355" lon="2.73431">
        <ele>104.2</ele>
        <time>2023-08-05T13:21:41Z</time>
      </trkpt>
      <trkpt lat="50.76352" lon="2.73431">
        <ele>104.2</ele>
        <time>2023-08-05T13:21:42Z</time>
      </trkpt>
      <trkpt lat="50.7635" lon="2.73432">
        <ele>104.4</ele>
        <time>2023-08-05T13:21:43Z</time>
      </trkpt>
      <trkpt lat="50.76348" lon="2.73434">
        <ele>104.4</ele>
        <time>2023-08-05T13:21:44Z</time>
      </trkpt>
      <trkpt lat="50.76345" lon="2.73436">
        <ele>104.6</ele>
        <time>2023-08-05T13:21:45Z</time>
      </trkpt>
      <trkpt lat="50.76344" lon="2.73437">
        <ele>104.8</ele>
        <time>2023-08-05T13:21:46Z</time>
      </trkpt>
      <trkpt lat="50.76342" lon="2.73438">
        <ele>105</ele>
        <time>2023-08-05T13:21:47Z</time>
      </trkpt>
      <trkpt lat="50.76339" lon="2.7344">
        <ele>105.2</ele>
        <time>2023-08-05T13:21:48Z</time>
      </trkpt>
      <trkpt lat="50.76337" lon="2.73441">
        <ele>105.2</ele>
        <time>2023-08-05T13:21:49Z</time>
      </trkpt>
      <trkpt lat="50.76335" lon="2.73443">
        <ele>105.4</ele>
        <time>2023-08-05T13:21:50Z</time>
      </trkpt>
      <trkpt lat="50.76333" lon="2.73445">
        <ele>105.4</ele>
        <time>2023-08-05T13:21:51Z</time>
      </trkpt>
      <trkpt lat="50.76331" lon="2.73446">
        <ele>105.8</ele>
        <time>2023-08-05T13:21:52Z</time>
      </trkpt>
      <trkpt lat="50.76329" lon="2.73448">
        <ele>105.8</ele>
        <time>2023-08-05T13:21:53Z</time>
      </trkpt>
      <trkpt lat="50.76327" lon="2.7345">
        <ele>106</ele>
        <time>2023-08-05T13:21:54Z</time>
      </trkpt>
      <trkpt lat="50.76325" lon="2.73452">
        <ele>106</ele>
        <time>2023-08-05T13:21:55Z</time>
      </trkpt>
      <trkpt lat="50.76323" lon="2.73454">
        <ele>106.2</ele>
        <time>2023-08-05T13:21:56Z</time>
      </trkpt>
      <trkpt lat="50.76315" lon="2.73461">
        <ele>106.6</ele>
        <time>2023-08-05T13:22:00Z</time>
      </trkpt>
      <trkpt lat="50.76313" lon="2.73463">
        <ele>106.8</ele>
        <time>2023-08-05T13:22:01Z</time>
      </trkpt>
      <trkpt lat="50.7631" lon="2.73465">
        <ele>106.8</ele>
        <time>2023-08-05T13:22:02Z</time>
      </trkpt>
      <trkpt lat="50.76308" lon="2.73467">
        <ele>107</ele>
        <time>2023-08-05T13:22:03Z</time>
      </trkpt>
      <trkpt lat="50.76306" lon="2.73469">
        <ele>107.4</ele>
        <time>2023-08-05T13:22:04Z</time>
      </trkpt>
      <trkpt lat="50.76304" lon="2.73471">
        <ele>107.4</ele>
        <time>2023-08-05T13:22:05Z</time>
      </trkpt>
      <trkpt lat="50.76302" lon="2.73473">
        <ele>107.6</ele>
        <time>2023-08-05T13:22:06Z</time>
      </trkpt>
      <trkpt lat="50.763" lon="2.73475">
        <ele>107.6</ele>
        <time>2023-08-05T13:22:07Z</time>
      </trkpt>
      <trkpt lat="50.76298" lon="2.73477">
        <ele>107.6</ele>
        <time>2023-08-05T13:22:08Z</time>
      </trkpt>
      <trkpt lat="50.76296" lon="2.73479">
        <ele>107.8</ele>
        <time>2023-08-05T13:22:09Z</time>
      </trkpt>
      <trkpt lat="50.76294" lon="2.73482">
        <ele>107.8</ele>
        <time>2023-08-05T13:22:10Z</time>
      </trkpt>
      <trkpt lat="50.76292" lon="2.73484">
        <ele>107.8</ele>
        <time>2023-08-05T13:22:11Z</time>
      </trkpt>
      <trkpt lat="50.7629" lon="2.73486">
        <ele>108</ele>
        <time>2023-08-05T13:22:12Z</time>
      </trkpt>
      <trkpt lat="50.76288" lon="2.73488">
        <ele>108</ele>
        <time>2023-08-05T13:22:13Z</time>
      </trkpt>
      <trkpt lat="50.76285" lon="2.7349">
        <ele>108.2</ele>
        <time>2023-08-05T13:22:14Z</time>
      </trkpt>
      <trkpt lat="50.76283" lon="2.73492">
        <ele>108.4</ele>
        <time>2023-08-05T13:22:15Z</time>
      </trkpt>
      <trkpt lat="50.76281" lon="2.73495">
        <ele>108.4</ele>
        <time>2023-08-05T13:22:16Z</time>
      </trkpt>
      <trkpt lat="50.76279" lon="2.73497">
        <ele>108.4</ele>
        <time>2023-08-05T13:22:17Z</time>
      </trkpt>
      <trkpt lat="50.76277" lon="2.735">
        <ele>108.4</ele>
        <time>2023-08-05T13:22:18Z</time>
      </trkpt>
      <trkpt lat="50.76274" lon="2.73502">
        <ele>108.8</ele>
        <time>2023-08-05T13:22:19Z</time>
      </trkpt>
      <trkpt lat="50.76272" lon="2.73505">
        <ele>108.6</ele>
        <time>2023-08-05T13:22:20Z</time>
      </trkpt>
      <trkpt lat="50.76269" lon="2.73508">
        <ele>108.8</ele>
        <time>2023-08-05T13:22:21Z</time>
      </trkpt>
      <trkpt lat="50.76267" lon="2.7351">
        <ele>108.8</ele>
        <time>2023-08-05T13:22:22Z</time>
      </trkpt>
      <trkpt lat="50.76264" lon="2.73513">
        <ele>108.8</ele>
        <time>2023-08-05T13:22:23Z</time>
      </trkpt>
      <trkpt lat="50.76261" lon="2.73516">
        <ele>109</ele>
        <time>2023-08-05T13:22:24Z</time>
      </trkpt>
      <trkpt lat="50.76259" lon="2.73519">
        <ele>109</ele>
        <time>2023-08-05T13:22:25Z</time>
      </trkpt>
      <trkpt lat="50.76244" lon="2.73535">
        <ele>108.8</ele>
        <time>2023-08-05T13:22:30Z</time>
      </trkpt>
      <trkpt lat="50.76216" lon="2.73568">
        <ele>108.6</ele>
        <time>2023-08-05T13:22:39Z</time>
      </trkpt>
      <trkpt lat="50.76192" lon="2.73597">
        <ele>107.2</ele>
        <time>2023-08-05T13:22:45Z</time>
      </trkpt>
      <trkpt lat="50.76184" lon="2.73604">
        <ele>106.6</ele>
        <time>2023-08-05T13:22:47Z</time>
      </trkpt>
      <trkpt lat="50.76179" lon="2.73609">
        <ele>106.6</ele>
        <time>2023-08-05T13:22:48Z</time>
      </trkpt>
      <trkpt lat="50.76174" lon="2.73613">
        <ele>106.2</ele>
        <time>2023-08-05T13:22:49Z</time>
      </trkpt>
      <trkpt lat="50.7617" lon="2.73617">
        <ele>105.8</ele>
        <time>2023-08-05T13:22:50Z</time>
      </trkpt>
      <trkpt lat="50.76162" lon="2.73624">
        <ele>105.2</ele>
        <time>2023-08-05T13:22:52Z</time>
      </trkpt>
      <trkpt lat="50.76151" lon="2.73633">
        <ele>104.4</ele>
        <time>2023-08-05T13:22:54Z</time>
      </trkpt>
      <trkpt lat="50.76139" lon="2.73643">
        <ele>103.6</ele>
        <time>2023-08-05T13:22:57Z</time>
      </trkpt>
      <trkpt lat="50.76135" lon="2.73648">
        <ele>103</ele>
        <time>2023-08-05T13:22:58Z</time>
      </trkpt>
      <trkpt lat="50.7613" lon="2.73654">
        <ele>102.6</ele>
        <time>2023-08-05T13:22:59Z</time>
      </trkpt>
      <trkpt lat="50.76126" lon="2.73659">
        <ele>102.2</ele>
        <time>2023-08-05T13:23:00Z</time>
      </trkpt>
      <trkpt lat="50.76123" lon="2.73663">
        <ele>101.8</ele>
        <time>2023-08-05T13:23:01Z</time>
      </trkpt>
      <trkpt lat="50.76119" lon="2.73668">
        <ele>101.6</ele>
        <time>2023-08-05T13:23:02Z</time>
      </trkpt>
      <trkpt lat="50.76109" lon="2.73676">
        <ele>100.8</ele>
        <time>2023-08-05T13:23:04Z</time>
      </trkpt>
      <trkpt lat="50.76104" lon="2.73679">
        <ele>100.4</ele>
        <time>2023-08-05T13:23:05Z</time>
      </trkpt>
      <trkpt lat="50.761" lon="2.73681">
        <ele>100.4</ele>
        <time>2023-08-05T13:23:06Z</time>
      </trkpt>
      <trkpt lat="50.76088" lon="2.73684">
        <ele>100</ele>
        <time>2023-08-05T13:23:08Z</time>
      </trkpt>
      <trkpt lat="50.76083" lon="2.73684">
        <ele>99.8</ele>
        <time>2023-08-05T13:23:09Z</time>
      </trkpt>
      <trkpt lat="50.76074" lon="2.73682">
        <ele>99.4</ele>
        <time>2023-08-05T13:23:11Z</time>
      </trkpt>
      <trkpt lat="50.76054" lon="2.73674">
        <ele>98.4</ele>
        <time>2023-08-05T13:23:15Z</time>
      </trkpt>
      <trkpt lat="50.7605" lon="2.73672">
        <ele>98.4</ele>
        <time>2023-08-05T13:23:16Z</time>
      </trkpt>
      <trkpt lat="50.76046" lon="2.7367">
        <ele>98.2</ele>
        <time>2023-08-05T13:23:17Z</time>
      </trkpt>
      <trkpt lat="50.76041" lon="2.73668">
        <ele>98.2</ele>
        <time>2023-08-05T13:23:18Z</time>
      </trkpt>
      <trkpt lat="50.76036" lon="2.73665">
        <ele>98</ele>
        <time>2023-08-05T13:23:19Z</time>
      </trkpt>
      <trkpt lat="50.76032" lon="2.73661">
        <ele>98</ele>
        <time>2023-08-05T13:23:20Z</time>
      </trkpt>
      <trkpt lat="50.76028" lon="2.73658">
        <ele>97.8</ele>
        <time>2023-08-05T13:23:21Z</time>
      </trkpt>
      <trkpt lat="50.76024" lon="2.73655">
        <ele>97.8</ele>
        <time>2023-08-05T13:23:22Z</time>
      </trkpt>
      <trkpt lat="50.76011" lon="2.73643">
        <ele>97.6</ele>
        <time>2023-08-05T13:23:25Z</time>
      </trkpt>
      <trkpt lat="50.76007" lon="2.73638">
        <ele>97.4</ele>
        <time>2023-08-05T13:23:26Z</time>
      </trkpt>
      <trkpt lat="50.75983" lon="2.73603">
        <ele>96.6</ele>
        <time>2023-08-05T13:23:32Z</time>
      </trkpt>
      <trkpt lat="50.75975" lon="2.73588">
        <ele>96.4</ele>
        <time>2023-08-05T13:23:34Z</time>
      </trkpt>
      <trkpt lat="50.75966" lon="2.73568">
        <ele>96.2</ele>
        <time>2023-08-05T13:23:37Z</time>
      </trkpt>
      <trkpt lat="50.75953" lon="2.73517">
        <ele>95.6</ele>
        <time>2023-08-05T13:23:43Z</time>
      </trkpt>
      <trkpt lat="50.75947" lon="2.73492">
        <ele>95.2</ele>
        <time>2023-08-05T13:23:46Z</time>
      </trkpt>
      <trkpt lat="50.75934" lon="2.73446">
        <ele>94.4</ele>
        <time>2023-08-05T13:23:51Z</time>
      </trkpt>
      <trkpt lat="50.75931" lon="2.73434">
        <ele>94</ele>
        <time>2023-08-05T13:23:52Z</time>
      </trkpt>
      <trkpt lat="50.75921" lon="2.734">
        <ele>92.8</ele>
        <time>2023-08-05T13:23:56Z</time>
      </trkpt>
      <trkpt lat="50.75917" lon="2.7339">
        <ele>92.6</ele>
        <time>2023-08-05T13:23:57Z</time>
      </trkpt>
      <trkpt lat="50.75901" lon="2.73358">
        <ele>91.6</ele>
        <time>2023-08-05T13:24:01Z</time>
      </trkpt>
      <trkpt lat="50.75884" lon="2.73321">
        <ele>89.8</ele>
        <time>2023-08-05T13:24:05Z</time>
      </trkpt>
      <trkpt lat="50.75876" lon="2.73306">
        <ele>88.8</ele>
        <time>2023-08-05T13:24:07Z</time>
      </trkpt>
      <trkpt lat="50.75872" lon="2.73298">
        <ele>88.6</ele>
        <time>2023-08-05T13:24:08Z</time>
      </trkpt>
      <trkpt lat="50.75868" lon="2.73295">
        <ele>88.2</ele>
        <time>2023-08-05T13:24:09Z</time>
      </trkpt>
      <trkpt lat="50.75863" lon="2.73292">
        <ele>87.4</ele>
        <time>2023-08-05T13:24:10Z</time>
      </trkpt>
      <trkpt lat="50.75859" lon="2.73292">
        <ele>87.2</ele>
        <time>2023-08-05T13:24:11Z</time>
      </trkpt>
      <trkpt lat="50.75854" lon="2.73293">
        <ele>86.4</ele>
        <time>2023-08-05T13:24:12Z</time>
      </trkpt>
      <trkpt lat="50.75848" lon="2.73296">
        <ele>86.2</ele>
        <time>2023-08-05T13:24:13Z</time>
      </trkpt>
      <trkpt lat="50.75844" lon="2.73298">
        <ele>85.8</ele>
        <time>2023-08-05T13:24:14Z</time>
      </trkpt>
      <trkpt lat="50.75834" lon="2.73302">
        <ele>85.4</ele>
        <time>2023-08-05T13:24:16Z</time>
      </trkpt>
      <trkpt lat="50.75829" lon="2.73303">
        <ele>85.2</ele>
        <time>2023-08-05T13:24:17Z</time>
      </trkpt>
      <trkpt lat="50.75818" lon="2.73308">
        <ele>84.8</ele>
        <time>2023-08-05T13:24:19Z</time>
      </trkpt>
      <trkpt lat="50.758" lon="2.73315">
        <ele>84.2</ele>
        <time>2023-08-05T13:24:22Z</time>
      </trkpt>
      <trkpt lat="50.75781" lon="2.73321">
        <ele>83.4</ele>
        <time>2023-08-05T13:24:25Z</time>
      </trkpt>
      <trkpt lat="50.75773" lon="2.73324">
        <ele>83.2</ele>
        <time>2023-08-05T13:24:26Z</time>
      </trkpt>
      <trkpt lat="50.7576" lon="2.73329">
        <ele>82.6</ele>
        <time>2023-08-05T13:24:28Z</time>
      </trkpt>
      <trkpt lat="50.75748" lon="2.73333">
        <ele>81.8</ele>
        <time>2023-08-05T13:24:30Z</time>
      </trkpt>
      <trkpt lat="50.75734" lon="2.73337">
        <ele>81.2</ele>
        <time>2023-08-05T13:24:32Z</time>
      </trkpt>
      <trkpt lat="50.75727" lon="2.73339">
        <ele>80.6</ele>
        <time>2023-08-05T13:24:33Z</time>
      </trkpt>
      <trkpt lat="50.75702" lon="2.73347">
        <ele>79.6</ele>
        <time>2023-08-05T13:24:37Z</time>
      </trkpt>
      <trkpt lat="50.75696" lon="2.73349">
        <ele>79.4</ele>
        <time>2023-08-05T13:24:38Z</time>
      </trkpt>
      <trkpt lat="50.7569" lon="2.73352">
        <ele>78.8</ele>
        <time>2023-08-05T13:24:39Z</time>
      </trkpt>
      <trkpt lat="50.75684" lon="2.73354">
        <ele>78.4</ele>
        <time>2023-08-05T13:24:40Z</time>
      </trkpt>
      <trkpt lat="50.75677" lon="2.73356">
        <ele>78.4</ele>
        <time>2023-08-05T13:24:41Z</time>
      </trkpt>
      <trkpt lat="50.75671" lon="2.73357">
        <ele>78.2</ele>
        <time>2023-08-05T13:24:42Z</time>
      </trkpt>
      <trkpt lat="50.75653" lon="2.73363">
        <ele>77.6</ele>
        <time>2023-08-05T13:24:45Z</time>
      </trkpt>
      <trkpt lat="50.75647" lon="2.73365">
        <ele>77.4</ele>
        <time>2023-08-05T13:24:46Z</time>
      </trkpt>
      <trkpt lat="50.75635" lon="2.73369">
        <ele>77</ele>
        <time>2023-08-05T13:24:48Z</time>
      </trkpt>
      <trkpt lat="50.75623" lon="2.73374">
        <ele>76.6</ele>
        <time>2023-08-05T13:24:50Z</time>
      </trkpt>
      <trkpt lat="50.75611" lon="2.73378">
        <ele>76.2</ele>
        <time>2023-08-05T13:24:52Z</time>
      </trkpt>
      <trkpt lat="50.75587" lon="2.73387">
        <ele>75.6</ele>
        <time>2023-08-05T13:24:56Z</time>
      </trkpt>
      <trkpt lat="50.75569" lon="2.73395">
        <ele>75.2</ele>
        <time>2023-08-05T13:24:59Z</time>
      </trkpt>
      <trkpt lat="50.75563" lon="2.73398">
        <ele>75</ele>
        <time>2023-08-05T13:25:00Z</time>
      </trkpt>
      <trkpt lat="50.75534" lon="2.73413">
        <ele>74.2</ele>
        <time>2023-08-05T13:25:05Z</time>
      </trkpt>
      <trkpt lat="50.75518" lon="2.73423">
        <ele>74</ele>
        <time>2023-08-05T13:25:08Z</time>
      </trkpt>
      <trkpt lat="50.75513" lon="2.73425">
        <ele>73.8</ele>
        <time>2023-08-05T13:25:09Z</time>
      </trkpt>
      <trkpt lat="50.75507" lon="2.73428">
        <ele>73.8</ele>
        <time>2023-08-05T13:25:10Z</time>
      </trkpt>
      <trkpt lat="50.75502" lon="2.73432">
        <ele>73.8</ele>
        <time>2023-08-05T13:25:11Z</time>
      </trkpt>
      <trkpt lat="50.75463" lon="2.73452">
        <ele>73.6</ele>
        <time>2023-08-05T13:25:18Z</time>
      </trkpt>
      <trkpt lat="50.75452" lon="2.73457">
        <ele>73.4</ele>
        <time>2023-08-05T13:25:20Z</time>
      </trkpt>
      <trkpt lat="50.75437" lon="2.73465">
        <ele>73.4</ele>
        <time>2023-08-05T13:25:23Z</time>
      </trkpt>
      <trkpt lat="50.75432" lon="2.73468">
        <ele>73.2</ele>
        <time>2023-08-05T13:25:24Z</time>
      </trkpt>
      <trkpt lat="50.75427" lon="2.7347">
        <ele>73.2</ele>
        <time>2023-08-05T13:25:25Z</time>
      </trkpt>
      <trkpt lat="50.75422" lon="2.73473">
        <ele>73.4</ele>
        <time>2023-08-05T13:25:26Z</time>
      </trkpt>
      <trkpt lat="50.75417" lon="2.73476">
        <ele>73.4</ele>
        <time>2023-08-05T13:25:27Z</time>
      </trkpt>
      <trkpt lat="50.75407" lon="2.73482">
        <ele>73.4</ele>
        <time>2023-08-05T13:25:29Z</time>
      </trkpt>
      <trkpt lat="50.75398" lon="2.73487">
        <ele>73.4</ele>
        <time>2023-08-05T13:25:31Z</time>
      </trkpt>
      <trkpt lat="50.75394" lon="2.73491">
        <ele>73.4</ele>
        <time>2023-08-05T13:25:32Z</time>
      </trkpt>
      <trkpt lat="50.7539" lon="2.73494">
        <ele>73.6</ele>
        <time>2023-08-05T13:25:33Z</time>
      </trkpt>
      <trkpt lat="50.75386" lon="2.73498">
        <ele>73.6</ele>
        <time>2023-08-05T13:25:34Z</time>
      </trkpt>
      <trkpt lat="50.75382" lon="2.73501">
        <ele>73.8</ele>
        <time>2023-08-05T13:25:35Z</time>
      </trkpt>
      <trkpt lat="50.75378" lon="2.73504">
        <ele>73.8</ele>
        <time>2023-08-05T13:25:36Z</time>
      </trkpt>
      <trkpt lat="50.75375" lon="2.73506">
        <ele>73.8</ele>
        <time>2023-08-05T13:25:37Z</time>
      </trkpt>
      <trkpt lat="50.75371" lon="2.73509">
        <ele>74</ele>
        <time>2023-08-05T13:25:38Z</time>
      </trkpt>
      <trkpt lat="50.75368" lon="2.73511">
        <ele>74.2</ele>
        <time>2023-08-05T13:25:39Z</time>
      </trkpt>
      <trkpt lat="50.75364" lon="2.73514">
        <ele>74.4</ele>
        <time>2023-08-05T13:25:40Z</time>
      </trkpt>
      <trkpt lat="50.75361" lon="2.73516">
        <ele>74.6</ele>
        <time>2023-08-05T13:25:41Z</time>
      </trkpt>
      <trkpt lat="50.75358" lon="2.73517">
        <ele>74.6</ele>
        <time>2023-08-05T13:25:42Z</time>
      </trkpt>
      <trkpt lat="50.75355" lon="2.73519">
        <ele>74.8</ele>
        <time>2023-08-05T13:25:43Z</time>
      </trkpt>
      <trkpt lat="50.75353" lon="2.73521">
        <ele>74.8</ele>
        <time>2023-08-05T13:25:44Z</time>
      </trkpt>
      <trkpt lat="50.75351" lon="2.73522">
        <ele>75</ele>
        <time>2023-08-05T13:25:45Z</time>
      </trkpt>
      <trkpt lat="50.75349" lon="2.73524">
        <ele>75</ele>
        <time>2023-08-05T13:25:46Z</time>
      </trkpt>
      <trkpt lat="50.75347" lon="2.73525">
        <ele>75</ele>
        <time>2023-08-05T13:25:47Z</time>
      </trkpt>
      <trkpt lat="50.75345" lon="2.73527">
        <ele>75</ele>
        <time>2023-08-05T13:25:48Z</time>
      </trkpt>
      <trkpt lat="50.75343" lon="2.73528">
        <ele>75</ele>
        <time>2023-08-05T13:25:49Z</time>
      </trkpt>
      <trkpt lat="50.75341" lon="2.7353">
        <ele>75</ele>
        <time>2023-08-05T13:25:50Z</time>
      </trkpt>
      <trkpt lat="50.75339" lon="2.73532">
        <ele>75.2</ele>
        <time>2023-08-05T13:25:51Z</time>
      </trkpt>
      <trkpt lat="50.7533" lon="2.73539">
        <ele>75.4</ele>
        <time>2023-08-05T13:25:55Z</time>
      </trkpt>
      <trkpt lat="50.75311" lon="2.73553">
        <ele>76.2</ele>
        <time>2023-08-05T13:26:03Z</time>
      </trkpt>
      <trkpt lat="50.75303" lon="2.73559">
        <ele>76.6</ele>
        <time>2023-08-05T13:26:06Z</time>
      </trkpt>
      <trkpt lat="50.75294" lon="2.73568">
        <ele>77.2</ele>
        <time>2023-08-05T13:26:10Z</time>
      </trkpt>
      <trkpt lat="50.75292" lon="2.7357">
        <ele>77.2</ele>
        <time>2023-08-05T13:26:11Z</time>
      </trkpt>
      <trkpt lat="50.75289" lon="2.73572">
        <ele>77.2</ele>
        <time>2023-08-05T13:26:12Z</time>
      </trkpt>
      <trkpt lat="50.75284" lon="2.73576">
        <ele>77.6</ele>
        <time>2023-08-05T13:26:14Z</time>
      </trkpt>
      <trkpt lat="50.75272" lon="2.73588">
        <ele>78</ele>
        <time>2023-08-05T13:26:19Z</time>
      </trkpt>
      <trkpt lat="50.7527" lon="2.73588">
        <ele>78.2</ele>
        <time>2023-08-05T13:26:20Z</time>
      </trkpt>
      <trkpt lat="50.75267" lon="2.73586">
        <ele>78.4</ele>
        <time>2023-08-05T13:26:21Z</time>
      </trkpt>
      <trkpt lat="50.75265" lon="2.73583">
        <ele>78.6</ele>
        <time>2023-08-05T13:26:22Z</time>
      </trkpt>
      <trkpt lat="50.75263" lon="2.7358">
        <ele>78.8</ele>
        <time>2023-08-05T13:26:23Z</time>
      </trkpt>
      <trkpt lat="50.75261" lon="2.73576">
        <ele>79</ele>
        <time>2023-08-05T13:26:24Z</time>
      </trkpt>
      <trkpt lat="50.75258" lon="2.73573">
        <ele>79</ele>
        <time>2023-08-05T13:26:25Z</time>
      </trkpt>
      <trkpt lat="50.75256" lon="2.73569">
        <ele>79.2</ele>
        <time>2023-08-05T13:26:26Z</time>
      </trkpt>
      <trkpt lat="50.75253" lon="2.73565">
        <ele>79.2</ele>
        <time>2023-08-05T13:26:27Z</time>
      </trkpt>
      <trkpt lat="50.75251" lon="2.73562">
        <ele>79.2</ele>
        <time>2023-08-05T13:26:28Z</time>
      </trkpt>
      <trkpt lat="50.75249" lon="2.73558">
        <ele>79.4</ele>
        <time>2023-08-05T13:26:29Z</time>
      </trkpt>
      <trkpt lat="50.75246" lon="2.73553">
        <ele>79.4</ele>
        <time>2023-08-05T13:26:30Z</time>
      </trkpt>
      <trkpt lat="50.75244" lon="2.73549">
        <ele>79.4</ele>
        <time>2023-08-05T13:26:31Z</time>
      </trkpt>
      <trkpt lat="50.75242" lon="2.73545">
        <ele>79.4</ele>
        <time>2023-08-05T13:26:32Z</time>
      </trkpt>
      <trkpt lat="50.7524" lon="2.73541">
        <ele>79.4</ele>
        <time>2023-08-05T13:26:33Z</time>
      </trkpt>
      <trkpt lat="50.75237" lon="2.73536">
        <ele>79.4</ele>
        <time>2023-08-05T13:26:34Z</time>
      </trkpt>
      <trkpt lat="50.75235" lon="2.73532">
        <ele>79.2</ele>
        <time>2023-08-05T13:26:35Z</time>
      </trkpt>
      <trkpt lat="50.75233" lon="2.73528">
        <ele>79.2</ele>
        <time>2023-08-05T13:26:36Z</time>
      </trkpt>
      <trkpt lat="50.7523" lon="2.73523">
        <ele>79.2</ele>
        <time>2023-08-05T13:26:37Z</time>
      </trkpt>
      <trkpt lat="50.75223" lon="2.73509">
        <ele>79.2</ele>
        <time>2023-08-05T13:26:40Z</time>
      </trkpt>
      <trkpt lat="50.75213" lon="2.735">
        <ele>79.2</ele>
        <time>2023-08-05T13:26:43Z</time>
      </trkpt>
      <trkpt lat="50.75209" lon="2.73498">
        <ele>79.2</ele>
        <time>2023-08-05T13:26:44Z</time>
      </trkpt>
      <trkpt lat="50.75205" lon="2.73495">
        <ele>79.2</ele>
        <time>2023-08-05T13:26:45Z</time>
      </trkpt>
      <trkpt lat="50.7517" lon="2.73478">
        <ele>79.2</ele>
        <time>2023-08-05T13:26:53Z</time>
      </trkpt>
      <trkpt lat="50.75157" lon="2.7347">
        <ele>79.2</ele>
        <time>2023-08-05T13:26:56Z</time>
      </trkpt>
      <trkpt lat="50.7514" lon="2.73459">
        <ele>78.8</ele>
        <time>2023-08-05T13:27:00Z</time>
      </trkpt>
      <trkpt lat="50.75118" lon="2.73446">
        <ele>78.8</ele>
        <time>2023-08-05T13:27:05Z</time>
      </trkpt>
      <trkpt lat="50.75114" lon="2.73444">
        <ele>78.6</ele>
        <time>2023-08-05T13:27:06Z</time>
      </trkpt>
      <trkpt lat="50.7511" lon="2.73441">
        <ele>78.6</ele>
        <time>2023-08-05T13:27:07Z</time>
      </trkpt>
      <trkpt lat="50.75105" lon="2.73439">
        <ele>78.6</ele>
        <time>2023-08-05T13:27:08Z</time>
      </trkpt>
      <trkpt lat="50.75101" lon="2.73438">
        <ele>78.6</ele>
        <time>2023-08-05T13:27:09Z</time>
      </trkpt>
      <trkpt lat="50.75097" lon="2.73436">
        <ele>78.6</ele>
        <time>2023-08-05T13:27:10Z</time>
      </trkpt>
      <trkpt lat="50.75092" lon="2.73434">
        <ele>78.6</ele>
        <time>2023-08-05T13:27:11Z</time>
      </trkpt>
      <trkpt lat="50.75088" lon="2.73432">
        <ele>78.8</ele>
        <time>2023-08-05T13:27:12Z</time>
      </trkpt>
      <trkpt lat="50.75062" lon="2.73418">
        <ele>78.6</ele>
        <time>2023-08-05T13:27:18Z</time>
      </trkpt>
      <trkpt lat="50.75058" lon="2.73415">
        <ele>78.6</ele>
        <time>2023-08-05T13:27:19Z</time>
      </trkpt>
      <trkpt lat="50.75045" lon="2.73404">
        <ele>78.6</ele>
        <time>2023-08-05T13:27:22Z</time>
      </trkpt>
      <trkpt lat="50.75036" lon="2.73402">
        <ele>78.4</ele>
        <time>2023-08-05T13:27:24Z</time>
      </trkpt>
      <trkpt lat="50.75031" lon="2.73404">
        <ele>78.2</ele>
        <time>2023-08-05T13:27:25Z</time>
      </trkpt>
      <trkpt lat="50.75026" lon="2.73405">
        <ele>78.2</ele>
        <time>2023-08-05T13:27:26Z</time>
      </trkpt>
      <trkpt lat="50.75021" lon="2.73404">
        <ele>78</ele>
        <time>2023-08-05T13:27:27Z</time>
      </trkpt>
      <trkpt lat="50.75016" lon="2.73404">
        <ele>77.8</ele>
        <time>2023-08-05T13:27:28Z</time>
      </trkpt>
      <trkpt lat="50.75012" lon="2.73403">
        <ele>77.6</ele>
        <time>2023-08-05T13:27:29Z</time>
      </trkpt>
      <trkpt lat="50.75007" lon="2.73403">
        <ele>77.4</ele>
        <time>2023-08-05T13:27:30Z</time>
      </trkpt>
      <trkpt lat="50.75004" lon="2.73404">
        <ele>77.4</ele>
        <time>2023-08-05T13:27:31Z</time>
      </trkpt>
      <trkpt lat="50.75" lon="2.73404">
        <ele>77.2</ele>
        <time>2023-08-05T13:27:32Z</time>
      </trkpt>
      <trkpt lat="50.74997" lon="2.73403">
        <ele>77.2</ele>
        <time>2023-08-05T13:27:33Z</time>
      </trkpt>
      <trkpt lat="50.74993" lon="2.73402">
        <ele>77.2</ele>
        <time>2023-08-05T13:27:34Z</time>
      </trkpt>
      <trkpt lat="50.74978" lon="2.73401">
        <ele>76.6</ele>
        <time>2023-08-05T13:27:38Z</time>
      </trkpt>
      <trkpt lat="50.7497" lon="2.73403">
        <ele>76.4</ele>
        <time>2023-08-05T13:27:40Z</time>
      </trkpt>
      <trkpt lat="50.74949" lon="2.73408">
        <ele>75.6</ele>
        <time>2023-08-05T13:27:45Z</time>
      </trkpt>
      <trkpt lat="50.74931" lon="2.73417">
        <ele>75</ele>
        <time>2023-08-05T13:27:49Z</time>
      </trkpt>
      <trkpt lat="50.74909" lon="2.73434">
        <ele>74.4</ele>
        <time>2023-08-05T13:27:54Z</time>
      </trkpt>
      <trkpt lat="50.74896" lon="2.73446">
        <ele>74</ele>
        <time>2023-08-05T13:27:57Z</time>
      </trkpt>
      <trkpt lat="50.74874" lon="2.73468">
        <ele>73.4</ele>
        <time>2023-08-05T13:28:02Z</time>
      </trkpt>
      <trkpt lat="50.74851" lon="2.73487">
        <ele>73</ele>
        <time>2023-08-05T13:28:07Z</time>
      </trkpt>
      <trkpt lat="50.74822" lon="2.73508">
        <ele>72.2</ele>
        <time>2023-08-05T13:28:13Z</time>
      </trkpt>
      <trkpt lat="50.74814" lon="2.73511">
        <ele>72</ele>
        <time>2023-08-05T13:28:15Z</time>
      </trkpt>
      <trkpt lat="50.7481" lon="2.73512">
        <ele>72</ele>
        <time>2023-08-05T13:28:16Z</time>
      </trkpt>
      <trkpt lat="50.74806" lon="2.73512">
        <ele>72</ele>
        <time>2023-08-05T13:28:17Z</time>
      </trkpt>
      <trkpt lat="50.74802" lon="2.73514">
        <ele>72</ele>
        <time>2023-08-05T13:28:18Z</time>
      </trkpt>
      <trkpt lat="50.74798" lon="2.73515">
        <ele>72</ele>
        <time>2023-08-05T13:28:19Z</time>
      </trkpt>
      <trkpt lat="50.7479" lon="2.73517">
        <ele>72</ele>
        <time>2023-08-05T13:28:21Z</time>
      </trkpt>
      <trkpt lat="50.74786" lon="2.73518">
        <ele>72</ele>
        <time>2023-08-05T13:28:22Z</time>
      </trkpt>
      <trkpt lat="50.74783" lon="2.73518">
        <ele>72</ele>
        <time>2023-08-05T13:28:23Z</time>
      </trkpt>
      <trkpt lat="50.74779" lon="2.73519">
        <ele>72.2</ele>
        <time>2023-08-05T13:28:24Z</time>
      </trkpt>
      <trkpt lat="50.74775" lon="2.73519">
        <ele>72.2</ele>
        <time>2023-08-05T13:28:25Z</time>
      </trkpt>
      <trkpt lat="50.74771" lon="2.7352">
        <ele>72.2</ele>
        <time>2023-08-05T13:28:26Z</time>
      </trkpt>
      <trkpt lat="50.74767" lon="2.7352">
        <ele>72.4</ele>
        <time>2023-08-05T13:28:27Z</time>
      </trkpt>
      <trkpt lat="50.74764" lon="2.73521">
        <ele>72.4</ele>
        <time>2023-08-05T13:28:28Z</time>
      </trkpt>
      <trkpt lat="50.74752" lon="2.73524">
        <ele>72.6</ele>
        <time>2023-08-05T13:28:31Z</time>
      </trkpt>
      <trkpt lat="50.74707" lon="2.73531">
        <ele>72.8</ele>
        <time>2023-08-05T13:28:42Z</time>
      </trkpt>
      <trkpt lat="50.74673" lon="2.73533">
        <ele>72.6</ele>
        <time>2023-08-05T13:28:50Z</time>
      </trkpt>
      <trkpt lat="50.74664" lon="2.73534">
        <ele>72.6</ele>
        <time>2023-08-05T13:28:52Z</time>
      </trkpt>
      <trkpt lat="50.7466" lon="2.73535">
        <ele>72.6</ele>
        <time>2023-08-05T13:28:53Z</time>
      </trkpt>
      <trkpt lat="50.74656" lon="2.73536">
        <ele>72.6</ele>
        <time>2023-08-05T13:28:54Z</time>
      </trkpt>
      <trkpt lat="50.74648" lon="2.73537">
        <ele>72.6</ele>
        <time>2023-08-05T13:28:56Z</time>
      </trkpt>
      <trkpt lat="50.7464" lon="2.73539">
        <ele>72.6</ele>
        <time>2023-08-05T13:28:58Z</time>
      </trkpt>
      <trkpt lat="50.74602" lon="2.73549">
        <ele>72.6</ele>
        <time>2023-08-05T13:29:07Z</time>
      </trkpt>
      <trkpt lat="50.74598" lon="2.7355">
        <ele>72.6</ele>
        <time>2023-08-05T13:29:08Z</time>
      </trkpt>
      <trkpt lat="50.74594" lon="2.73551">
        <ele>72.6</ele>
        <time>2023-08-05T13:29:09Z</time>
      </trkpt>
      <trkpt lat="50.7459" lon="2.73552">
        <ele>72.6</ele>
        <time>2023-08-05T13:29:10Z</time>
      </trkpt>
      <trkpt lat="50.74586" lon="2.73554">
        <ele>72.6</ele>
        <time>2023-08-05T13:29:11Z</time>
      </trkpt>
      <trkpt lat="50.74582" lon="2.73556">
        <ele>72.6</ele>
        <time>2023-08-05T13:29:12Z</time>
      </trkpt>
      <trkpt lat="50.74578" lon="2.73557">
        <ele>72.6</ele>
        <time>2023-08-05T13:29:13Z</time>
      </trkpt>
      <trkpt lat="50.74575" lon="2.73558">
        <ele>72.8</ele>
        <time>2023-08-05T13:29:14Z</time>
      </trkpt>
      <trkpt lat="50.74571" lon="2.7356">
        <ele>72.8</ele>
        <time>2023-08-05T13:29:15Z</time>
      </trkpt>
      <trkpt lat="50.74524" lon="2.73575">
        <ele>73</ele>
        <time>2023-08-05T13:29:26Z</time>
      </trkpt>
      <trkpt lat="50.7448" lon="2.73583">
        <ele>72.6</ele>
        <time>2023-08-05T13:29:36Z</time>
      </trkpt>
      <trkpt lat="50.74454" lon="2.73585">
        <ele>72.6</ele>
        <time>2023-08-05T13:29:42Z</time>
      </trkpt>
      <trkpt lat="50.7444" lon="2.73587">
        <ele>72.4</ele>
        <time>2023-08-05T13:29:45Z</time>
      </trkpt>
      <trkpt lat="50.74416" lon="2.7359">
        <ele>72.4</ele>
        <time>2023-08-05T13:29:51Z</time>
      </trkpt>
      <trkpt lat="50.74412" lon="2.73591">
        <ele>72.4</ele>
        <time>2023-08-05T13:29:52Z</time>
      </trkpt>
      <trkpt lat="50.74409" lon="2.73591">
        <ele>72.4</ele>
        <time>2023-08-05T13:29:53Z</time>
      </trkpt>
      <trkpt lat="50.74406" lon="2.73591">
        <ele>72.4</ele>
        <time>2023-08-05T13:29:54Z</time>
      </trkpt>
      <trkpt lat="50.74402" lon="2.73592">
        <ele>72.4</ele>
        <time>2023-08-05T13:29:55Z</time>
      </trkpt>
      <trkpt lat="50.74399" lon="2.73592">
        <ele>72.6</ele>
        <time>2023-08-05T13:29:56Z</time>
      </trkpt>
      <trkpt lat="50.74396" lon="2.73593">
        <ele>72.6</ele>
        <time>2023-08-05T13:29:57Z</time>
      </trkpt>
      <trkpt lat="50.74393" lon="2.73593">
        <ele>72.8</ele>
        <time>2023-08-05T13:29:58Z</time>
      </trkpt>
      <trkpt lat="50.7439" lon="2.73593">
        <ele>72.8</ele>
        <time>2023-08-05T13:29:59Z</time>
      </trkpt>
      <trkpt lat="50.74387" lon="2.73593">
        <ele>72.8</ele>
        <time>2023-08-05T13:30:00Z</time>
      </trkpt>
      <trkpt lat="50.74385" lon="2.73594">
        <ele>73</ele>
        <time>2023-08-05T13:30:01Z</time>
      </trkpt>
      <trkpt lat="50.74383" lon="2.73594">
        <ele>73</ele>
        <time>2023-08-05T13:30:02Z</time>
      </trkpt>
      <trkpt lat="50.74381" lon="2.73595">
        <ele>73</ele>
        <time>2023-08-05T13:30:03Z</time>
      </trkpt>
      <trkpt lat="50.74379" lon="2.73597">
        <ele>73.2</ele>
        <time>2023-08-05T13:30:04Z</time>
      </trkpt>
      <trkpt lat="50.74377" lon="2.73599">
        <ele>73.2</ele>
        <time>2023-08-05T13:30:05Z</time>
      </trkpt>
      <trkpt lat="50.74375" lon="2.73602">
        <ele>73.4</ele>
        <time>2023-08-05T13:30:06Z</time>
      </trkpt>
      <trkpt lat="50.74374" lon="2.73606">
        <ele>73.4</ele>
        <time>2023-08-05T13:30:07Z</time>
      </trkpt>
      <trkpt lat="50.74373" lon="2.73609">
        <ele>73.6</ele>
        <time>2023-08-05T13:30:08Z</time>
      </trkpt>
      <trkpt lat="50.74372" lon="2.73613">
        <ele>73.8</ele>
        <time>2023-08-05T13:30:09Z</time>
      </trkpt>
      <trkpt lat="50.7437" lon="2.73622">
        <ele>73.8</ele>
        <time>2023-08-05T13:30:11Z</time>
      </trkpt>
      <trkpt lat="50.74371" lon="2.73626">
        <ele>73.8</ele>
        <time>2023-08-05T13:30:12Z</time>
      </trkpt>
      <trkpt lat="50.74371" lon="2.73631">
        <ele>73.8</ele>
        <time>2023-08-05T13:30:13Z</time>
      </trkpt>
      <trkpt lat="50.74368" lon="2.73658">
        <ele>74</ele>
        <time>2023-08-05T13:30:18Z</time>
      </trkpt>
      <trkpt lat="50.7437" lon="2.73697">
        <ele>74.2</ele>
        <time>2023-08-05T13:30:25Z</time>
      </trkpt>
      <trkpt lat="50.74371" lon="2.73746">
        <ele>74.4</ele>
        <time>2023-08-05T13:30:33Z</time>
      </trkpt>
      <trkpt lat="50.74371" lon="2.73769">
        <ele>74.6</ele>
        <time>2023-08-05T13:30:37Z</time>
      </trkpt>
      <trkpt lat="50.74371" lon="2.73775">
        <ele>74.6</ele>
        <time>2023-08-05T13:30:38Z</time>
      </trkpt>
      <trkpt lat="50.74371" lon="2.73781">
        <ele>74.8</ele>
        <time>2023-08-05T13:30:39Z</time>
      </trkpt>
      <trkpt lat="50.74371" lon="2.73786">
        <ele>74.8</ele>
        <time>2023-08-05T13:30:40Z</time>
      </trkpt>
      <trkpt lat="50.74372" lon="2.73792">
        <ele>75</ele>
        <time>2023-08-05T13:30:41Z</time>
      </trkpt>
      <trkpt lat="50.74373" lon="2.73802">
        <ele>75.2</ele>
        <time>2023-08-05T13:30:43Z</time>
      </trkpt>
      <trkpt lat="50.74373" lon="2.73825">
        <ele>75.8</ele>
        <time>2023-08-05T13:30:47Z</time>
      </trkpt>
      <trkpt lat="50.74373" lon="2.73831">
        <ele>75.8</ele>
        <time>2023-08-05T13:30:48Z</time>
      </trkpt>
      <trkpt lat="50.74374" lon="2.73841">
        <ele>76</ele>
        <time>2023-08-05T13:30:50Z</time>
      </trkpt>
      <trkpt lat="50.74374" lon="2.73846">
        <ele>76</ele>
        <time>2023-08-05T13:30:51Z</time>
      </trkpt>
      <trkpt lat="50.74375" lon="2.7388">
        <ele>76.6</ele>
        <time>2023-08-05T13:30:57Z</time>
      </trkpt>
      <trkpt lat="50.74375" lon="2.73885">
        <ele>76.8</ele>
        <time>2023-08-05T13:30:58Z</time>
      </trkpt>
      <trkpt lat="50.74376" lon="2.7389">
        <ele>76.8</ele>
        <time>2023-08-05T13:30:59Z</time>
      </trkpt>
      <trkpt lat="50.74376" lon="2.73916">
        <ele>77.4</ele>
        <time>2023-08-05T13:31:04Z</time>
      </trkpt>
      <trkpt lat="50.74376" lon="2.73921">
        <ele>77.4</ele>
        <time>2023-08-05T13:31:05Z</time>
      </trkpt>
      <trkpt lat="50.74376" lon="2.73926">
        <ele>77.6</ele>
        <time>2023-08-05T13:31:06Z</time>
      </trkpt>
      <trkpt lat="50.74377" lon="2.73931">
        <ele>77.6</ele>
        <time>2023-08-05T13:31:07Z</time>
      </trkpt>
      <trkpt lat="50.74377" lon="2.73942">
        <ele>77.8</ele>
        <time>2023-08-05T13:31:09Z</time>
      </trkpt>
      <trkpt lat="50.74377" lon="2.73958">
        <ele>78</ele>
        <time>2023-08-05T13:31:12Z</time>
      </trkpt>
      <trkpt lat="50.74377" lon="2.73971">
        <ele>78.4</ele>
        <time>2023-08-05T13:31:15Z</time>
      </trkpt>
      <trkpt lat="50.74377" lon="2.73975">
        <ele>78.4</ele>
        <time>2023-08-05T13:31:16Z</time>
      </trkpt>
      <trkpt lat="50.74377" lon="2.73979">
        <ele>78.6</ele>
        <time>2023-08-05T13:31:17Z</time>
      </trkpt>
      <trkpt lat="50.74377" lon="2.73982">
        <ele>78.6</ele>
        <time>2023-08-05T13:31:18Z</time>
      </trkpt>
      <trkpt lat="50.74377" lon="2.73985">
        <ele>78.8</ele>
        <time>2023-08-05T13:31:19Z</time>
      </trkpt>
      <trkpt lat="50.74377" lon="2.73988">
        <ele>78.8</ele>
        <time>2023-08-05T13:31:20Z</time>
      </trkpt>
      <trkpt lat="50.74376" lon="2.73991">
        <ele>79</ele>
        <time>2023-08-05T13:31:21Z</time>
      </trkpt>
      <trkpt lat="50.74374" lon="2.73993">
        <ele>79</ele>
        <time>2023-08-05T13:31:22Z</time>
      </trkpt>
      <trkpt lat="50.74372" lon="2.73995">
        <ele>79</ele>
        <time>2023-08-05T13:31:23Z</time>
      </trkpt>
      <trkpt lat="50.74364" lon="2.73997">
        <ele>79</ele>
        <time>2023-08-05T13:31:26Z</time>
      </trkpt>
      <trkpt lat="50.74361" lon="2.73997">
        <ele>79</ele>
        <time>2023-08-05T13:31:27Z</time>
      </trkpt>
      <trkpt lat="50.74358" lon="2.73998">
        <ele>79</ele>
        <time>2023-08-05T13:31:28Z</time>
      </trkpt>
      <trkpt lat="50.74332" lon="2.74006">
        <ele>79.6</ele>
        <time>2023-08-05T13:31:37Z</time>
      </trkpt>
      <trkpt lat="50.7432" lon="2.7401">
        <ele>80</ele>
        <time>2023-08-05T13:31:41Z</time>
      </trkpt>
      <trkpt lat="50.74301" lon="2.74013">
        <ele>80.4</ele>
        <time>2023-08-05T13:31:47Z</time>
      </trkpt>
      <trkpt lat="50.74276" lon="2.74021">
        <ele>80.8</ele>
        <time>2023-08-05T13:31:55Z</time>
      </trkpt>
      <trkpt lat="50.74266" lon="2.74025">
        <ele>81</ele>
        <time>2023-08-05T13:31:58Z</time>
      </trkpt>
      <trkpt lat="50.7425" lon="2.7403">
        <ele>81.8</ele>
        <time>2023-08-05T13:32:03Z</time>
      </trkpt>
      <trkpt lat="50.74244" lon="2.74031">
        <ele>82.2</ele>
        <time>2023-08-05T13:32:05Z</time>
      </trkpt>
      <trkpt lat="50.74239" lon="2.74033">
        <ele>82.4</ele>
        <time>2023-08-05T13:32:07Z</time>
      </trkpt>
      <trkpt lat="50.74237" lon="2.74033">
        <ele>82.6</ele>
        <time>2023-08-05T13:32:08Z</time>
      </trkpt>
      <trkpt lat="50.74234" lon="2.74034">
        <ele>82.6</ele>
        <time>2023-08-05T13:32:09Z</time>
      </trkpt>
      <trkpt lat="50.74232" lon="2.74035">
        <ele>82.8</ele>
        <time>2023-08-05T13:32:10Z</time>
      </trkpt>
      <trkpt lat="50.7423" lon="2.74035">
        <ele>83</ele>
        <time>2023-08-05T13:32:11Z</time>
      </trkpt>
      <trkpt lat="50.74228" lon="2.74035">
        <ele>83</ele>
        <time>2023-08-05T13:32:12Z</time>
      </trkpt>
      <trkpt lat="50.74227" lon="2.74035">
        <ele>83</ele>
        <time>2023-08-05T13:32:13Z</time>
      </trkpt>
      <trkpt lat="50.74226" lon="2.74036">
        <ele>83.2</ele>
        <time>2023-08-05T13:32:14Z</time>
      </trkpt>
      <trkpt lat="50.74224" lon="2.74037">
        <ele>83.4</ele>
        <time>2023-08-05T13:32:15Z</time>
      </trkpt>
      <trkpt lat="50.74223" lon="2.74039">
        <ele>83.4</ele>
        <time>2023-08-05T13:32:16Z</time>
      </trkpt>
      <trkpt lat="50.74223" lon="2.74042">
        <ele>83.4</ele>
        <time>2023-08-05T13:32:17Z</time>
      </trkpt>
      <trkpt lat="50.74224" lon="2.74044">
        <ele>83.6</ele>
        <time>2023-08-05T13:32:18Z</time>
      </trkpt>
      <trkpt lat="50.74226" lon="2.74044">
        <ele>83.6</ele>
        <time>2023-08-05T13:32:19Z</time>
      </trkpt>
      <trkpt lat="50.74227" lon="2.74044">
        <ele>83.6</ele>
        <time>2023-08-05T13:32:20Z</time>
      </trkpt>
      <trkpt lat="50.74229" lon="2.74043">
        <ele>83.8</ele>
        <time>2023-08-05T13:32:21Z</time>
      </trkpt>
      <trkpt lat="50.74231" lon="2.74042">
        <ele>83.8</ele>
        <time>2023-08-05T13:32:22Z</time>
      </trkpt>
      <trkpt lat="50.74232" lon="2.74041">
        <ele>83.6</ele>
        <time>2023-08-05T13:32:23Z</time>
      </trkpt>
      <trkpt lat="50.74234" lon="2.74041">
        <ele>83.6</ele>
        <time>2023-08-05T13:32:24Z</time>
      </trkpt>
      <trkpt lat="50.74236" lon="2.7404">
        <ele>83.6</ele>
        <time>2023-08-05T13:32:25Z</time>
      </trkpt>
      <trkpt lat="50.74239" lon="2.74039">
        <ele>83.6</ele>
        <time>2023-08-05T13:32:26Z</time>
      </trkpt>
      <trkpt lat="50.7424" lon="2.74036">
        <ele>83.6</ele>
        <time>2023-08-05T13:32:27Z</time>
      </trkpt>
      <trkpt lat="50.74238" lon="2.74033">
        <ele>83.6</ele>
        <time>2023-08-05T13:32:29Z</time>
      </trkpt>
      <trkpt lat="50.74229" lon="2.74031">
        <ele>83.4</ele>
        <time>2023-08-05T13:32:34Z</time>
      </trkpt>
      <trkpt lat="50.74228" lon="2.74029">
        <ele>83.4</ele>
        <time>2023-08-05T13:32:35Z</time>
      </trkpt>
      <trkpt lat="50.74227" lon="2.74026">
        <ele>83.4</ele>
        <time>2023-08-05T13:32:36Z</time>
      </trkpt>
      <trkpt lat="50.74226" lon="2.74019">
        <ele>83.4</ele>
        <time>2023-08-05T13:32:38Z</time>
      </trkpt>
      <trkpt lat="50.74225" lon="2.74015">
        <ele>83.4</ele>
        <time>2023-08-05T13:32:39Z</time>
      </trkpt>
      <trkpt lat="50.74223" lon="2.74002">
        <ele>83.4</ele>
        <time>2023-08-05T13:32:42Z</time>
      </trkpt>
      <trkpt lat="50.74223" lon="2.73997">
        <ele>83.4</ele>
        <time>2023-08-05T13:32:43Z</time>
      </trkpt>
      <trkpt lat="50.74221" lon="2.73972">
        <ele>83.8</ele>
        <time>2023-08-05T13:32:48Z</time>
      </trkpt>
      <trkpt lat="50.74215" lon="2.73928">
        <ele>83.6</ele>
        <time>2023-08-05T13:32:56Z</time>
      </trkpt>
      <trkpt lat="50.74202" lon="2.73897">
        <ele>83.6</ele>
        <time>2023-08-05T13:33:02Z</time>
      </trkpt>
      <trkpt lat="50.74184" lon="2.73877">
        <ele>83.6</ele>
        <time>2023-08-05T13:33:08Z</time>
      </trkpt>
      <trkpt lat="50.74169" lon="2.73866">
        <ele>83.4</ele>
        <time>2023-08-05T13:33:12Z</time>
      </trkpt>
      <trkpt lat="50.74151" lon="2.73852">
        <ele>83.6</ele>
        <time>2023-08-05T13:33:17Z</time>
      </trkpt>
      <trkpt lat="50.74113" lon="2.73819">
        <ele>84</ele>
        <time>2023-08-05T13:33:28Z</time>
      </trkpt>
      <trkpt lat="50.74109" lon="2.73816">
        <ele>84.2</ele>
        <time>2023-08-05T13:33:29Z</time>
      </trkpt>
      <trkpt lat="50.74082" lon="2.73792">
        <ele>84.2</ele>
        <time>2023-08-05T13:33:37Z</time>
      </trkpt>
      <trkpt lat="50.74062" lon="2.73772">
        <ele>84.6</ele>
        <time>2023-08-05T13:33:43Z</time>
      </trkpt>
      <trkpt lat="50.74048" lon="2.73758">
        <ele>84.8</ele>
        <time>2023-08-05T13:33:47Z</time>
      </trkpt>
      <trkpt lat="50.74029" lon="2.73738">
        <ele>85.2</ele>
        <time>2023-08-05T13:33:53Z</time>
      </trkpt>
      <trkpt lat="50.74026" lon="2.73735">
        <ele>85.6</ele>
        <time>2023-08-05T13:33:54Z</time>
      </trkpt>
      <trkpt lat="50.74016" lon="2.73725">
        <ele>85.8</ele>
        <time>2023-08-05T13:33:57Z</time>
      </trkpt>
      <trkpt lat="50.74014" lon="2.73722">
        <ele>85.8</ele>
        <time>2023-08-05T13:33:58Z</time>
      </trkpt>
      <trkpt lat="50.74011" lon="2.73718">
        <ele>85.8</ele>
        <time>2023-08-05T13:33:59Z</time>
      </trkpt>
      <trkpt lat="50.74008" lon="2.73713">
        <ele>86</ele>
        <time>2023-08-05T13:34:00Z</time>
      </trkpt>
      <trkpt lat="50.74005" lon="2.73709">
        <ele>86</ele>
        <time>2023-08-05T13:34:01Z</time>
      </trkpt>
      <trkpt lat="50.74003" lon="2.73704">
        <ele>86</ele>
        <time>2023-08-05T13:34:02Z</time>
      </trkpt>
      <trkpt lat="50.74" lon="2.73699">
        <ele>86</ele>
        <time>2023-08-05T13:34:03Z</time>
      </trkpt>
      <trkpt lat="50.7398" lon="2.73653">
        <ele>86.4</ele>
        <time>2023-08-05T13:34:12Z</time>
      </trkpt>
      <trkpt lat="50.73975" lon="2.73638">
        <ele>86.6</ele>
        <time>2023-08-05T13:34:15Z</time>
      </trkpt>
      <trkpt lat="50.73973" lon="2.73634">
        <ele>86.6</ele>
        <time>2023-08-05T13:34:16Z</time>
      </trkpt>
      <trkpt lat="50.73971" lon="2.73631">
        <ele>86.6</ele>
        <time>2023-08-05T13:34:17Z</time>
      </trkpt>
      <trkpt lat="50.7397" lon="2.73628">
        <ele>86.8</ele>
        <time>2023-08-05T13:34:18Z</time>
      </trkpt>
      <trkpt lat="50.73968" lon="2.73624">
        <ele>86.8</ele>
        <time>2023-08-05T13:34:19Z</time>
      </trkpt>
      <trkpt lat="50.73966" lon="2.73621">
        <ele>86.8</ele>
        <time>2023-08-05T13:34:20Z</time>
      </trkpt>
      <trkpt lat="50.73965" lon="2.73618">
        <ele>86.8</ele>
        <time>2023-08-05T13:34:21Z</time>
      </trkpt>
      <trkpt lat="50.73963" lon="2.73611">
        <ele>87</ele>
        <time>2023-08-05T13:34:23Z</time>
      </trkpt>
      <trkpt lat="50.73963" lon="2.73608">
        <ele>87</ele>
        <time>2023-08-05T13:34:24Z</time>
      </trkpt>
      <trkpt lat="50.73962" lon="2.73605">
        <ele>87</ele>
        <time>2023-08-05T13:34:25Z</time>
      </trkpt>
      <trkpt lat="50.73961" lon="2.73602">
        <ele>87</ele>
        <time>2023-08-05T13:34:26Z</time>
      </trkpt>
      <trkpt lat="50.73961" lon="2.73599">
        <ele>87</ele>
        <time>2023-08-05T13:34:27Z</time>
      </trkpt>
      <trkpt lat="50.7396" lon="2.73596">
        <ele>87</ele>
        <time>2023-08-05T13:34:28Z</time>
      </trkpt>
      <trkpt lat="50.7396" lon="2.73594">
        <ele>87</ele>
        <time>2023-08-05T13:34:29Z</time>
      </trkpt>
      <trkpt lat="50.73959" lon="2.73591">
        <ele>87</ele>
        <time>2023-08-05T13:34:30Z</time>
      </trkpt>
      <trkpt lat="50.73958" lon="2.73588">
        <ele>87</ele>
        <time>2023-08-05T13:34:31Z</time>
      </trkpt>
      <trkpt lat="50.73957" lon="2.73586">
        <ele>87</ele>
        <time>2023-08-05T13:34:32Z</time>
      </trkpt>
      <trkpt lat="50.73956" lon="2.73584">
        <ele>87</ele>
        <time>2023-08-05T13:34:33Z</time>
      </trkpt>
      <trkpt lat="50.73956" lon="2.73582">
        <ele>87</ele>
        <time>2023-08-05T13:34:34Z</time>
      </trkpt>
      <trkpt lat="50.73955" lon="2.7358">
        <ele>87</ele>
        <time>2023-08-05T13:34:35Z</time>
      </trkpt>
      <trkpt lat="50.73955" lon="2.73578">
        <ele>87</ele>
        <time>2023-08-05T13:34:36Z</time>
      </trkpt>
      <trkpt lat="50.73954" lon="2.73577">
        <ele>87</ele>
        <time>2023-08-05T13:34:37Z</time>
      </trkpt>
      <trkpt lat="50.73954" lon="2.73575">
        <ele>87</ele>
        <time>2023-08-05T13:34:38Z</time>
      </trkpt>
      <trkpt lat="50.73954" lon="2.73574">
        <ele>87</ele>
        <time>2023-08-05T13:34:39Z</time>
      </trkpt>
      <trkpt lat="50.73953" lon="2.73572">
        <ele>87</ele>
        <time>2023-08-05T13:34:40Z</time>
      </trkpt>
      <trkpt lat="50.73952" lon="2.73571">
        <ele>87</ele>
        <time>2023-08-05T13:34:41Z</time>
      </trkpt>
      <trkpt lat="50.73952" lon="2.7357">
        <ele>87</ele>
        <time>2023-08-05T13:34:42Z</time>
      </trkpt>
      <trkpt lat="50.73952" lon="2.73569">
        <ele>87</ele>
        <time>2023-08-05T13:34:43Z</time>
      </trkpt>
      <trkpt lat="50.73951" lon="2.73567">
        <ele>87</ele>
        <time>2023-08-05T13:34:44Z</time>
      </trkpt>
      <trkpt lat="50.73947" lon="2.73563">
        <ele>87</ele>
        <time>2023-08-05T13:34:46Z</time>
      </trkpt>
      <trkpt lat="50.73944" lon="2.73562">
        <ele>86.8</ele>
        <time>2023-08-05T13:34:47Z</time>
      </trkpt>
      <trkpt lat="50.73933" lon="2.73572">
        <ele>86.8</ele>
        <time>2023-08-05T13:34:51Z</time>
      </trkpt>
      <trkpt lat="50.7393" lon="2.73575">
        <ele>86.8</ele>
        <time>2023-08-05T13:34:52Z</time>
      </trkpt>
      <trkpt lat="50.73928" lon="2.73579">
        <ele>86.8</ele>
        <time>2023-08-05T13:34:53Z</time>
      </trkpt>
      <trkpt lat="50.73912" lon="2.73598">
        <ele>86.8</ele>
        <time>2023-08-05T13:34:58Z</time>
      </trkpt>
      <trkpt lat="50.73894" lon="2.73621">
        <ele>86</ele>
        <time>2023-08-05T13:35:04Z</time>
      </trkpt>
      <trkpt lat="50.73892" lon="2.73625">
        <ele>86</ele>
        <time>2023-08-05T13:35:05Z</time>
      </trkpt>
      <trkpt lat="50.7389" lon="2.73627">
        <ele>86</ele>
        <time>2023-08-05T13:35:06Z</time>
      </trkpt>
      <trkpt lat="50.73888" lon="2.7363">
        <ele>86</ele>
        <time>2023-08-05T13:35:07Z</time>
      </trkpt>
      <trkpt lat="50.73887" lon="2.73633">
        <ele>85.8</ele>
        <time>2023-08-05T13:35:08Z</time>
      </trkpt>
      <trkpt lat="50.73885" lon="2.73635">
        <ele>85.8</ele>
        <time>2023-08-05T13:35:09Z</time>
      </trkpt>
      <trkpt lat="50.73884" lon="2.73638">
        <ele>85.8</ele>
        <time>2023-08-05T13:35:10Z</time>
      </trkpt>
      <trkpt lat="50.73882" lon="2.73639">
        <ele>85.8</ele>
        <time>2023-08-05T13:35:11Z</time>
      </trkpt>
      <trkpt lat="50.7388" lon="2.7364">
        <ele>85.6</ele>
        <time>2023-08-05T13:35:12Z</time>
      </trkpt>
      <trkpt lat="50.73878" lon="2.73641">
        <ele>85.4</ele>
        <time>2023-08-05T13:35:13Z</time>
      </trkpt>
      <trkpt lat="50.73875" lon="2.73644">
        <ele>85.4</ele>
        <time>2023-08-05T13:35:14Z</time>
      </trkpt>
      <trkpt lat="50.73862" lon="2.73661">
        <ele>84.8</ele>
        <time>2023-08-05T13:35:19Z</time>
      </trkpt>
      <trkpt lat="50.73858" lon="2.73667">
        <ele>84.6</ele>
        <time>2023-08-05T13:35:20Z</time>
      </trkpt>
      <trkpt lat="50.73842" lon="2.7369">
        <ele>84.2</ele>
        <time>2023-08-05T13:35:25Z</time>
      </trkpt>
      <trkpt lat="50.73834" lon="2.73701">
        <ele>84</ele>
        <time>2023-08-05T13:35:27Z</time>
      </trkpt>
      <trkpt lat="50.73824" lon="2.73716">
        <ele>83.8</ele>
        <time>2023-08-05T13:35:30Z</time>
      </trkpt>
      <trkpt lat="50.73803" lon="2.73742">
        <ele>83</ele>
        <time>2023-08-05T13:35:35Z</time>
      </trkpt>
      <trkpt lat="50.73793" lon="2.73755">
        <ele>82.6</ele>
        <time>2023-08-05T13:35:37Z</time>
      </trkpt>
      <trkpt lat="50.73765" lon="2.73792">
        <ele>81.6</ele>
        <time>2023-08-05T13:35:43Z</time>
      </trkpt>
      <trkpt lat="50.7376" lon="2.73799">
        <ele>81.4</ele>
        <time>2023-08-05T13:35:44Z</time>
      </trkpt>
      <trkpt lat="50.73741" lon="2.73825">
        <ele>80.6</ele>
        <time>2023-08-05T13:35:48Z</time>
      </trkpt>
      <trkpt lat="50.73721" lon="2.73853">
        <ele>79.4</ele>
        <time>2023-08-05T13:35:52Z</time>
      </trkpt>
      <trkpt lat="50.73689" lon="2.73897">
        <ele>78.4</ele>
        <time>2023-08-05T13:35:58Z</time>
      </trkpt>
      <trkpt lat="50.73668" lon="2.73925">
        <ele>77.2</ele>
        <time>2023-08-05T13:36:02Z</time>
      </trkpt>
      <trkpt lat="50.73643" lon="2.7396">
        <ele>76.2</ele>
        <time>2023-08-05T13:36:07Z</time>
      </trkpt>
      <trkpt lat="50.73638" lon="2.73967">
        <ele>75.8</ele>
        <time>2023-08-05T13:36:08Z</time>
      </trkpt>
      <trkpt lat="50.73633" lon="2.73974">
        <ele>75.6</ele>
        <time>2023-08-05T13:36:09Z</time>
      </trkpt>
      <trkpt lat="50.73608" lon="2.74009">
        <ele>74.8</ele>
        <time>2023-08-05T13:36:14Z</time>
      </trkpt>
      <trkpt lat="50.73598" lon="2.74023">
        <ele>74.4</ele>
        <time>2023-08-05T13:36:16Z</time>
      </trkpt>
      <trkpt lat="50.73572" lon="2.74058">
        <ele>73.8</ele>
        <time>2023-08-05T13:36:21Z</time>
      </trkpt>
      <trkpt lat="50.73557" lon="2.74079">
        <ele>73.2</ele>
        <time>2023-08-05T13:36:24Z</time>
      </trkpt>
      <trkpt lat="50.73534" lon="2.74107">
        <ele>72.6</ele>
        <time>2023-08-05T13:36:28Z</time>
      </trkpt>
      <trkpt lat="50.73513" lon="2.74134">
        <ele>72</ele>
        <time>2023-08-05T13:36:32Z</time>
      </trkpt>
      <trkpt lat="50.73496" lon="2.74156">
        <ele>71.4</ele>
        <time>2023-08-05T13:36:35Z</time>
      </trkpt>
      <trkpt lat="50.73468" lon="2.7419">
        <ele>70.4</ele>
        <time>2023-08-05T13:36:40Z</time>
      </trkpt>
      <trkpt lat="50.73462" lon="2.74197">
        <ele>70.4</ele>
        <time>2023-08-05T13:36:41Z</time>
      </trkpt>
      <trkpt lat="50.7343" lon="2.74238">
        <ele>69.6</ele>
        <time>2023-08-05T13:36:47Z</time>
      </trkpt>
      <trkpt lat="50.73425" lon="2.74244">
        <ele>69.4</ele>
        <time>2023-08-05T13:36:48Z</time>
      </trkpt>
      <trkpt lat="50.7342" lon="2.7425">
        <ele>69.4</ele>
        <time>2023-08-05T13:36:49Z</time>
      </trkpt>
      <trkpt lat="50.73416" lon="2.74255">
        <ele>69.4</ele>
        <time>2023-08-05T13:36:50Z</time>
      </trkpt>
      <trkpt lat="50.73411" lon="2.7426">
        <ele>69</ele>
        <time>2023-08-05T13:36:51Z</time>
      </trkpt>
      <trkpt lat="50.73407" lon="2.74265">
        <ele>68.8</ele>
        <time>2023-08-05T13:36:52Z</time>
      </trkpt>
      <trkpt lat="50.73402" lon="2.7427">
        <ele>68.6</ele>
        <time>2023-08-05T13:36:53Z</time>
      </trkpt>
      <trkpt lat="50.73398" lon="2.74275">
        <ele>68.6</ele>
        <time>2023-08-05T13:36:54Z</time>
      </trkpt>
      <trkpt lat="50.73395" lon="2.7428">
        <ele>68.4</ele>
        <time>2023-08-05T13:36:55Z</time>
      </trkpt>
      <trkpt lat="50.73391" lon="2.74284">
        <ele>68.4</ele>
        <time>2023-08-05T13:36:56Z</time>
      </trkpt>
      <trkpt lat="50.73388" lon="2.74288">
        <ele>68.4</ele>
        <time>2023-08-05T13:36:57Z</time>
      </trkpt>
      <trkpt lat="50.73384" lon="2.74292">
        <ele>68.2</ele>
        <time>2023-08-05T13:36:58Z</time>
      </trkpt>
      <trkpt lat="50.73382" lon="2.74295">
        <ele>68.2</ele>
        <time>2023-08-05T13:36:59Z</time>
      </trkpt>
      <trkpt lat="50.73379" lon="2.74298">
        <ele>68</ele>
        <time>2023-08-05T13:37:00Z</time>
      </trkpt>
      <trkpt lat="50.73377" lon="2.743">
        <ele>68</ele>
        <time>2023-08-05T13:37:01Z</time>
      </trkpt>
      <trkpt lat="50.73374" lon="2.74302">
        <ele>68</ele>
        <time>2023-08-05T13:37:02Z</time>
      </trkpt>
      <trkpt lat="50.73372" lon="2.74304">
        <ele>67.8</ele>
        <time>2023-08-05T13:37:03Z</time>
      </trkpt>
      <trkpt lat="50.73371" lon="2.74305">
        <ele>67.8</ele>
        <time>2023-08-05T13:37:04Z</time>
      </trkpt>
      <trkpt lat="50.7337" lon="2.74307">
        <ele>67.6</ele>
        <time>2023-08-05T13:37:05Z</time>
      </trkpt>
      <trkpt lat="50.73369" lon="2.74308">
        <ele>67.6</ele>
        <time>2023-08-05T13:37:06Z</time>
      </trkpt>
      <trkpt lat="50.73369" lon="2.74308">
        <ele>67.6</ele>
        <time>2023-08-05T13:37:08Z</time>
      </trkpt>
      <trkpt lat="50.73367" lon="2.74314">
        <ele>68.2</ele>
        <time>2023-08-05T13:41:08Z</time>
      </trkpt>
      <trkpt lat="50.73365" lon="2.74316">
        <ele>68.2</ele>
        <time>2023-08-05T13:41:09Z</time>
      </trkpt>
      <trkpt lat="50.73361" lon="2.74321">
        <ele>68.2</ele>
        <time>2023-08-05T13:41:12Z</time>
      </trkpt>
      <trkpt lat="50.73359" lon="2.74323">
        <ele>68.2</ele>
        <time>2023-08-05T13:41:13Z</time>
      </trkpt>
      <trkpt lat="50.73354" lon="2.74327">
        <ele>68.2</ele>
        <time>2023-08-05T13:41:16Z</time>
      </trkpt>
      <trkpt lat="50.73353" lon="2.74328">
        <ele>68.2</ele>
        <time>2023-08-05T13:41:17Z</time>
      </trkpt>
      <trkpt lat="50.73355" lon="2.74328">
        <ele>68.2</ele>
        <time>2023-08-05T13:41:19Z</time>
      </trkpt>
      <trkpt lat="50.73356" lon="2.74326">
        <ele>68.2</ele>
        <time>2023-08-05T13:41:20Z</time>
      </trkpt>
      <trkpt lat="50.73358" lon="2.74324">
        <ele>68.2</ele>
        <time>2023-08-05T13:41:21Z</time>
      </trkpt>
      <trkpt lat="50.73358" lon="2.74324">
        <ele>68.2</ele>
        <time>2023-08-05T13:41:22Z</time>
      </trkpt>
      <trkpt lat="50.73359" lon="2.7432">
        <ele>68.2</ele>
        <time>2023-08-05T13:41:23Z</time>
      </trkpt>
      <trkpt lat="50.73361" lon="2.74318">
        <ele>68.2</ele>
        <time>2023-08-05T13:41:24Z</time>
      </trkpt>
      <trkpt lat="50.73362" lon="2.74318">
        <ele>68.2</ele>
        <time>2023-08-05T13:41:25Z</time>
      </trkpt>
      <trkpt lat="50.73362" lon="2.74315">
        <ele>68.2</ele>
        <time>2023-08-05T13:41:26Z</time>
      </trkpt>
      <trkpt lat="50.73361" lon="2.74314">
        <ele>68.2</ele>
        <time>2023-08-05T13:41:28Z</time>
      </trkpt>
      <trkpt lat="50.73361" lon="2.74314">
        <ele>68.2</ele>
        <time>2023-08-05T13:41:29Z</time>
      </trkpt>
      <trkpt lat="50.73357" lon="2.74317">
        <ele>68.2</ele>
        <time>2023-08-05T13:41:32Z</time>
      </trkpt>
      <trkpt lat="50.73348" lon="2.74333">
        <ele>68.2</ele>
        <time>2023-08-05T13:41:37Z</time>
      </trkpt>
      <trkpt lat="50.73343" lon="2.74342">
        <ele>68.2</ele>
        <time>2023-08-05T13:41:38Z</time>
      </trkpt>
      <trkpt lat="50.7333" lon="2.74359">
        <ele>68</ele>
        <time>2023-08-05T13:41:43Z</time>
      </trkpt>
      <trkpt lat="50.73311" lon="2.74381">
        <ele>67.8</ele>
        <time>2023-08-05T13:41:49Z</time>
      </trkpt>
      <trkpt lat="50.73304" lon="2.74389">
        <ele>67.6</ele>
        <time>2023-08-05T13:41:51Z</time>
      </trkpt>
      <trkpt lat="50.73275" lon="2.74426">
        <ele>67.4</ele>
        <time>2023-08-05T13:41:59Z</time>
      </trkpt>
      <trkpt lat="50.73237" lon="2.74472">
        <ele>67.2</ele>
        <time>2023-08-05T13:42:09Z</time>
      </trkpt>
      <trkpt lat="50.73202" lon="2.74515">
        <ele>67</ele>
        <time>2023-08-05T13:42:18Z</time>
      </trkpt>
      <trkpt lat="50.73195" lon="2.74523">
        <ele>66.8</ele>
        <time>2023-08-05T13:42:20Z</time>
      </trkpt>
      <trkpt lat="50.73152" lon="2.7458">
        <ele>66.8</ele>
        <time>2023-08-05T13:42:31Z</time>
      </trkpt>
      <trkpt lat="50.73141" lon="2.74594">
        <ele>66.6</ele>
        <time>2023-08-05T13:42:34Z</time>
      </trkpt>
      <trkpt lat="50.73125" lon="2.74614">
        <ele>66.6</ele>
        <time>2023-08-05T13:42:38Z</time>
      </trkpt>
      <trkpt lat="50.73125" lon="2.74614">
        <ele>66.6</ele>
        <time>2023-08-05T13:42:39Z</time>
      </trkpt>
      <trkpt lat="50.73118" lon="2.74623">
        <ele>66.6</ele>
        <time>2023-08-05T13:42:40Z</time>
      </trkpt>
      <trkpt lat="50.73114" lon="2.74629">
        <ele>66.4</ele>
        <time>2023-08-05T13:42:41Z</time>
      </trkpt>
      <trkpt lat="50.7311" lon="2.74634">
        <ele>66.4</ele>
        <time>2023-08-05T13:42:42Z</time>
      </trkpt>
      <trkpt lat="50.73099" lon="2.74648">
        <ele>66.4</ele>
        <time>2023-08-05T13:42:45Z</time>
      </trkpt>
      <trkpt lat="50.73094" lon="2.74653">
        <ele>66.4</ele>
        <time>2023-08-05T13:42:46Z</time>
      </trkpt>
      <trkpt lat="50.73085" lon="2.7466">
        <ele>66.2</ele>
        <time>2023-08-05T13:42:48Z</time>
      </trkpt>
      <trkpt lat="50.73076" lon="2.74666">
        <ele>66.2</ele>
        <time>2023-08-05T13:42:50Z</time>
      </trkpt>
      <trkpt lat="50.73066" lon="2.74672">
        <ele>66.2</ele>
        <time>2023-08-05T13:42:52Z</time>
      </trkpt>
      <trkpt lat="50.73063" lon="2.74675">
        <ele>66.2</ele>
        <time>2023-08-05T13:42:53Z</time>
      </trkpt>
      <trkpt lat="50.73059" lon="2.74678">
        <ele>66.2</ele>
        <time>2023-08-05T13:42:54Z</time>
      </trkpt>
      <trkpt lat="50.73055" lon="2.7468">
        <ele>66.2</ele>
        <time>2023-08-05T13:42:55Z</time>
      </trkpt>
      <trkpt lat="50.7305" lon="2.74682">
        <ele>66.2</ele>
        <time>2023-08-05T13:42:56Z</time>
      </trkpt>
      <trkpt lat="50.73046" lon="2.74682">
        <ele>66.2</ele>
        <time>2023-08-05T13:42:57Z</time>
      </trkpt>
      <trkpt lat="50.73043" lon="2.74681">
        <ele>66.2</ele>
        <time>2023-08-05T13:42:58Z</time>
      </trkpt>
      <trkpt lat="50.73039" lon="2.74679">
        <ele>66.4</ele>
        <time>2023-08-05T13:42:59Z</time>
      </trkpt>
      <trkpt lat="50.73035" lon="2.74678">
        <ele>66.4</ele>
        <time>2023-08-05T13:43:00Z</time>
      </trkpt>
      <trkpt lat="50.73032" lon="2.74677">
        <ele>66.4</ele>
        <time>2023-08-05T13:43:01Z</time>
      </trkpt>
      <trkpt lat="50.73027" lon="2.74677">
        <ele>66.4</ele>
        <time>2023-08-05T13:43:02Z</time>
      </trkpt>
      <trkpt lat="50.73024" lon="2.74678">
        <ele>66.4</ele>
        <time>2023-08-05T13:43:03Z</time>
      </trkpt>
      <trkpt lat="50.73021" lon="2.74681">
        <ele>66.6</ele>
        <time>2023-08-05T13:43:04Z</time>
      </trkpt>
      <trkpt lat="50.73021" lon="2.74681">
        <ele>66.6</ele>
        <time>2023-08-05T13:43:05Z</time>
      </trkpt>
      <trkpt lat="50.73015" lon="2.74689">
        <ele>66.6</ele>
        <time>2023-08-05T13:43:06Z</time>
      </trkpt>
      <trkpt lat="50.73013" lon="2.74694">
        <ele>67</ele>
        <time>2023-08-05T13:43:07Z</time>
      </trkpt>
      <trkpt lat="50.73012" lon="2.74698">
        <ele>67</ele>
        <time>2023-08-05T13:43:08Z</time>
      </trkpt>
      <trkpt lat="50.73011" lon="2.74704">
        <ele>66.8</ele>
        <time>2023-08-05T13:43:09Z</time>
      </trkpt>
      <trkpt lat="50.7301" lon="2.74711">
        <ele>67.2</ele>
        <time>2023-08-05T13:43:10Z</time>
      </trkpt>
      <trkpt lat="50.73011" lon="2.74719">
        <ele>67.2</ele>
        <time>2023-08-05T13:43:11Z</time>
      </trkpt>
      <trkpt lat="50.73012" lon="2.74726">
        <ele>67.2</ele>
        <time>2023-08-05T13:43:12Z</time>
      </trkpt>
      <trkpt lat="50.73013" lon="2.74733">
        <ele>67</ele>
        <time>2023-08-05T13:43:13Z</time>
      </trkpt>
      <trkpt lat="50.73013" lon="2.7474">
        <ele>67.2</ele>
        <time>2023-08-05T13:43:14Z</time>
      </trkpt>
      <trkpt lat="50.73013" lon="2.74757">
        <ele>67</ele>
        <time>2023-08-05T13:43:16Z</time>
      </trkpt>
      <trkpt lat="50.73006" lon="2.74768">
        <ele>67</ele>
        <time>2023-08-05T13:43:18Z</time>
      </trkpt>
      <trkpt lat="50.73002" lon="2.74774">
        <ele>66.8</ele>
        <time>2023-08-05T13:43:19Z</time>
      </trkpt>
      <trkpt lat="50.72998" lon="2.74779">
        <ele>66.8</ele>
        <time>2023-08-05T13:43:20Z</time>
      </trkpt>
      <trkpt lat="50.72994" lon="2.74784">
        <ele>66.8</ele>
        <time>2023-08-05T13:43:21Z</time>
      </trkpt>
      <trkpt lat="50.72989" lon="2.74789">
        <ele>66.6</ele>
        <time>2023-08-05T13:43:22Z</time>
      </trkpt>
      <trkpt lat="50.72965" lon="2.74819">
        <ele>66.4</ele>
        <time>2023-08-05T13:43:28Z</time>
      </trkpt>
      <trkpt lat="50.72962" lon="2.74822">
        <ele>66.2</ele>
        <time>2023-08-05T13:43:29Z</time>
      </trkpt>
      <trkpt lat="50.72958" lon="2.74827">
        <ele>66.2</ele>
        <time>2023-08-05T13:43:30Z</time>
      </trkpt>
      <trkpt lat="50.72953" lon="2.74832">
        <ele>66.2</ele>
        <time>2023-08-05T13:43:31Z</time>
      </trkpt>
      <trkpt lat="50.7295" lon="2.74836">
        <ele>66.2</ele>
        <time>2023-08-05T13:43:32Z</time>
      </trkpt>
      <trkpt lat="50.72946" lon="2.74841">
        <ele>66.2</ele>
        <time>2023-08-05T13:43:33Z</time>
      </trkpt>
      <trkpt lat="50.72942" lon="2.74846">
        <ele>66</ele>
        <time>2023-08-05T13:43:34Z</time>
      </trkpt>
      <trkpt lat="50.72934" lon="2.74855">
        <ele>66</ele>
        <time>2023-08-05T13:43:36Z</time>
      </trkpt>
      <trkpt lat="50.7293" lon="2.74859">
        <ele>66</ele>
        <time>2023-08-05T13:43:37Z</time>
      </trkpt>
      <trkpt lat="50.72926" lon="2.74865">
        <ele>66</ele>
        <time>2023-08-05T13:43:38Z</time>
      </trkpt>
      <trkpt lat="50.72919" lon="2.74873">
        <ele>65.8</ele>
        <time>2023-08-05T13:43:40Z</time>
      </trkpt>
      <trkpt lat="50.72899" lon="2.74896">
        <ele>65.8</ele>
        <time>2023-08-05T13:43:45Z</time>
      </trkpt>
      <trkpt lat="50.72868" lon="2.74935">
        <ele>65.8</ele>
        <time>2023-08-05T13:43:53Z</time>
      </trkpt>
      <trkpt lat="50.72828" lon="2.74984">
        <ele>66</ele>
        <time>2023-08-05T13:44:03Z</time>
      </trkpt>
      <trkpt lat="50.7282" lon="2.74994">
        <ele>66</ele>
        <time>2023-08-05T13:44:06Z</time>
      </trkpt>
      <trkpt lat="50.72813" lon="2.75004">
        <ele>66</ele>
        <time>2023-08-05T13:44:07Z</time>
      </trkpt>
      <trkpt lat="50.72802" lon="2.7502">
        <ele>66</ele>
        <time>2023-08-05T13:44:10Z</time>
      </trkpt>
      <trkpt lat="50.72798" lon="2.75025">
        <ele>66</ele>
        <time>2023-08-05T13:44:11Z</time>
      </trkpt>
      <trkpt lat="50.72789" lon="2.75035">
        <ele>66</ele>
        <time>2023-08-05T13:44:13Z</time>
      </trkpt>
      <trkpt lat="50.72771" lon="2.7506">
        <ele>66</ele>
        <time>2023-08-05T13:44:18Z</time>
      </trkpt>
      <trkpt lat="50.72768" lon="2.75064">
        <ele>66</ele>
        <time>2023-08-05T13:44:19Z</time>
      </trkpt>
      <trkpt lat="50.72761" lon="2.75074">
        <ele>66</ele>
        <time>2023-08-05T13:44:21Z</time>
      </trkpt>
      <trkpt lat="50.72757" lon="2.7508">
        <ele>66.2</ele>
        <time>2023-08-05T13:44:22Z</time>
      </trkpt>
      <trkpt lat="50.72755" lon="2.75084">
        <ele>66.2</ele>
        <time>2023-08-05T13:44:23Z</time>
      </trkpt>
      <trkpt lat="50.72752" lon="2.75089">
        <ele>66.2</ele>
        <time>2023-08-05T13:44:24Z</time>
      </trkpt>
      <trkpt lat="50.72748" lon="2.75094">
        <ele>66.2</ele>
        <time>2023-08-05T13:44:25Z</time>
      </trkpt>
      <trkpt lat="50.72745" lon="2.751">
        <ele>66.2</ele>
        <time>2023-08-05T13:44:26Z</time>
      </trkpt>
      <trkpt lat="50.72741" lon="2.75104">
        <ele>66.4</ele>
        <time>2023-08-05T13:44:27Z</time>
      </trkpt>
      <trkpt lat="50.72739" lon="2.75108">
        <ele>66.4</ele>
        <time>2023-08-05T13:44:28Z</time>
      </trkpt>
      <trkpt lat="50.72736" lon="2.75113">
        <ele>66.6</ele>
        <time>2023-08-05T13:44:29Z</time>
      </trkpt>
      <trkpt lat="50.72736" lon="2.75113">
        <ele>66.6</ele>
        <time>2023-08-05T13:44:30Z</time>
      </trkpt>
      <trkpt lat="50.72729" lon="2.75122">
        <ele>66.6</ele>
        <time>2023-08-05T13:44:31Z</time>
      </trkpt>
      <trkpt lat="50.72725" lon="2.75128">
        <ele>66.6</ele>
        <time>2023-08-05T13:44:32Z</time>
      </trkpt>
      <trkpt lat="50.7272" lon="2.75136">
        <ele>66.8</ele>
        <time>2023-08-05T13:44:35Z</time>
      </trkpt>
      <trkpt lat="50.72714" lon="2.75147">
        <ele>66.8</ele>
        <time>2023-08-05T13:44:36Z</time>
      </trkpt>
      <trkpt lat="50.72702" lon="2.75177">
        <ele>66.8</ele>
        <time>2023-08-05T13:44:41Z</time>
      </trkpt>
      <trkpt lat="50.727" lon="2.75185">
        <ele>66.8</ele>
        <time>2023-08-05T13:44:42Z</time>
      </trkpt>
      <trkpt lat="50.72698" lon="2.75227">
        <ele>67.2</ele>
        <time>2023-08-05T13:44:48Z</time>
      </trkpt>
      <trkpt lat="50.72699" lon="2.75235">
        <ele>67.4</ele>
        <time>2023-08-05T13:44:49Z</time>
      </trkpt>
      <trkpt lat="50.72702" lon="2.75258">
        <ele>67.2</ele>
        <time>2023-08-05T13:44:52Z</time>
      </trkpt>
      <trkpt lat="50.72704" lon="2.75281">
        <ele>67.4</ele>
        <time>2023-08-05T13:44:55Z</time>
      </trkpt>
      <trkpt lat="50.72709" lon="2.7535">
        <ele>67.2</ele>
        <time>2023-08-05T13:45:04Z</time>
      </trkpt>
      <trkpt lat="50.72714" lon="2.75431">
        <ele>67</ele>
        <time>2023-08-05T13:45:14Z</time>
      </trkpt>
      <trkpt lat="50.7272" lon="2.75522">
        <ele>66.6</ele>
        <time>2023-08-05T13:45:25Z</time>
      </trkpt>
      <trkpt lat="50.7272" lon="2.75529">
        <ele>66.6</ele>
        <time>2023-08-05T13:45:26Z</time>
      </trkpt>
      <trkpt lat="50.72725" lon="2.75607">
        <ele>66.6</ele>
        <time>2023-08-05T13:45:35Z</time>
      </trkpt>
      <trkpt lat="50.72732" lon="2.75693">
        <ele>66.6</ele>
        <time>2023-08-05T13:45:45Z</time>
      </trkpt>
      <trkpt lat="50.72732" lon="2.757">
        <ele>66.6</ele>
        <time>2023-08-05T13:45:46Z</time>
      </trkpt>
      <trkpt lat="50.72732" lon="2.75711">
        <ele>66.4</ele>
        <time>2023-08-05T13:45:47Z</time>
      </trkpt>
      <trkpt lat="50.72737" lon="2.75778">
        <ele>66.2</ele>
        <time>2023-08-05T13:45:55Z</time>
      </trkpt>
      <trkpt lat="50.72738" lon="2.75786">
        <ele>66.2</ele>
        <time>2023-08-05T13:45:56Z</time>
      </trkpt>
      <trkpt lat="50.72738" lon="2.75795">
        <ele>66.2</ele>
        <time>2023-08-05T13:45:57Z</time>
      </trkpt>
      <trkpt lat="50.72739" lon="2.7581">
        <ele>66.2</ele>
        <time>2023-08-05T13:45:59Z</time>
      </trkpt>
      <trkpt lat="50.72741" lon="2.75837">
        <ele>66.2</ele>
        <time>2023-08-05T13:46:02Z</time>
      </trkpt>
      <trkpt lat="50.72745" lon="2.75889">
        <ele>66.2</ele>
        <time>2023-08-05T13:46:08Z</time>
      </trkpt>
      <trkpt lat="50.7275" lon="2.75976">
        <ele>66</ele>
        <time>2023-08-05T13:46:18Z</time>
      </trkpt>
      <trkpt lat="50.72756" lon="2.76055">
        <ele>66.2</ele>
        <time>2023-08-05T13:46:27Z</time>
      </trkpt>
      <trkpt lat="50.72761" lon="2.76123">
        <ele>66</ele>
        <time>2023-08-05T13:46:35Z</time>
      </trkpt>
      <trkpt lat="50.72761" lon="2.76123">
        <ele>66</ele>
        <time>2023-08-05T13:46:36Z</time>
      </trkpt>
      <trkpt lat="50.72762" lon="2.76149">
        <ele>66</ele>
        <time>2023-08-05T13:46:38Z</time>
      </trkpt>
      <trkpt lat="50.72764" lon="2.76174">
        <ele>66.2</ele>
        <time>2023-08-05T13:46:41Z</time>
      </trkpt>
      <trkpt lat="50.72765" lon="2.76182">
        <ele>66.2</ele>
        <time>2023-08-05T13:46:42Z</time>
      </trkpt>
      <trkpt lat="50.72765" lon="2.76191">
        <ele>66.2</ele>
        <time>2023-08-05T13:46:43Z</time>
      </trkpt>
      <trkpt lat="50.72771" lon="2.76279">
        <ele>66.2</ele>
        <time>2023-08-05T13:46:53Z</time>
      </trkpt>
      <trkpt lat="50.72772" lon="2.76297">
        <ele>66.2</ele>
        <time>2023-08-05T13:46:55Z</time>
      </trkpt>
      <trkpt lat="50.72778" lon="2.76386">
        <ele>66.2</ele>
        <time>2023-08-05T13:47:05Z</time>
      </trkpt>
      <trkpt lat="50.72779" lon="2.76404">
        <ele>66.2</ele>
        <time>2023-08-05T13:47:07Z</time>
      </trkpt>
      <trkpt lat="50.72784" lon="2.76477">
        <ele>66.2</ele>
        <time>2023-08-05T13:47:15Z</time>
      </trkpt>
      <trkpt lat="50.72789" lon="2.7656">
        <ele>66</ele>
        <time>2023-08-05T13:47:24Z</time>
      </trkpt>
      <trkpt lat="50.72789" lon="2.76569">
        <ele>66</ele>
        <time>2023-08-05T13:47:25Z</time>
      </trkpt>
      <trkpt lat="50.7279" lon="2.76578">
        <ele>66</ele>
        <time>2023-08-05T13:47:26Z</time>
      </trkpt>
      <trkpt lat="50.72792" lon="2.76605">
        <ele>65.8</ele>
        <time>2023-08-05T13:47:29Z</time>
      </trkpt>
      <trkpt lat="50.72795" lon="2.76669">
        <ele>66</ele>
        <time>2023-08-05T13:47:36Z</time>
      </trkpt>
      <trkpt lat="50.72801" lon="2.76759">
        <ele>66</ele>
        <time>2023-08-05T13:47:46Z</time>
      </trkpt>
      <trkpt lat="50.72804" lon="2.76804">
        <ele>66</ele>
        <time>2023-08-05T13:47:51Z</time>
      </trkpt>
      <trkpt lat="50.72804" lon="2.76813">
        <ele>66</ele>
        <time>2023-08-05T13:47:52Z</time>
      </trkpt>
      <trkpt lat="50.72806" lon="2.76839">
        <ele>66</ele>
        <time>2023-08-05T13:47:55Z</time>
      </trkpt>
      <trkpt lat="50.72807" lon="2.76856">
        <ele>66</ele>
        <time>2023-08-05T13:47:57Z</time>
      </trkpt>
      <trkpt lat="50.7281" lon="2.76891">
        <ele>66</ele>
        <time>2023-08-05T13:48:01Z</time>
      </trkpt>
      <trkpt lat="50.7281" lon="2.769">
        <ele>65.8</ele>
        <time>2023-08-05T13:48:02Z</time>
      </trkpt>
      <trkpt lat="50.72814" lon="2.76953">
        <ele>65.8</ele>
        <time>2023-08-05T13:48:08Z</time>
      </trkpt>
      <trkpt lat="50.7282" lon="2.77041">
        <ele>66.2</ele>
        <time>2023-08-05T13:48:18Z</time>
      </trkpt>
      <trkpt lat="50.72821" lon="2.7705">
        <ele>66.2</ele>
        <time>2023-08-05T13:48:19Z</time>
      </trkpt>
      <trkpt lat="50.72826" lon="2.77134">
        <ele>66.2</ele>
        <time>2023-08-05T13:48:28Z</time>
      </trkpt>
      <trkpt lat="50.7283" lon="2.77219">
        <ele>66</ele>
        <time>2023-08-05T13:48:37Z</time>
      </trkpt>
      <trkpt lat="50.72831" lon="2.77228">
        <ele>66</ele>
        <time>2023-08-05T13:48:38Z</time>
      </trkpt>
      <trkpt lat="50.72828" lon="2.77266">
        <ele>66</ele>
        <time>2023-08-05T13:48:42Z</time>
      </trkpt>
      <trkpt lat="50.72825" lon="2.77293">
        <ele>65.8</ele>
        <time>2023-08-05T13:48:46Z</time>
      </trkpt>
      <trkpt lat="50.72819" lon="2.77327">
        <ele>65.6</ele>
        <time>2023-08-05T13:48:49Z</time>
      </trkpt>
      <trkpt lat="50.72817" lon="2.77335">
        <ele>65.6</ele>
        <time>2023-08-05T13:48:50Z</time>
      </trkpt>
      <trkpt lat="50.72815" lon="2.77343">
        <ele>65.6</ele>
        <time>2023-08-05T13:48:51Z</time>
      </trkpt>
      <trkpt lat="50.72814" lon="2.7735">
        <ele>65.6</ele>
        <time>2023-08-05T13:48:52Z</time>
      </trkpt>
      <trkpt lat="50.72812" lon="2.77359">
        <ele>65.6</ele>
        <time>2023-08-05T13:48:53Z</time>
      </trkpt>
      <trkpt lat="50.7281" lon="2.77369">
        <ele>65.6</ele>
        <time>2023-08-05T13:48:54Z</time>
      </trkpt>
      <trkpt lat="50.72809" lon="2.77375">
        <ele>65.6</ele>
        <time>2023-08-05T13:48:55Z</time>
      </trkpt>
      <trkpt lat="50.7279" lon="2.77464">
        <ele>65.4</ele>
        <time>2023-08-05T13:49:05Z</time>
      </trkpt>
      <trkpt lat="50.72789" lon="2.77473">
        <ele>65.4</ele>
        <time>2023-08-05T13:49:06Z</time>
      </trkpt>
      <trkpt lat="50.72771" lon="2.77562">
        <ele>65.4</ele>
        <time>2023-08-05T13:49:16Z</time>
      </trkpt>
      <trkpt lat="50.72765" lon="2.77589">
        <ele>65.4</ele>
        <time>2023-08-05T13:49:19Z</time>
      </trkpt>
      <trkpt lat="50.72747" lon="2.77679">
        <ele>65.4</ele>
        <time>2023-08-05T13:49:29Z</time>
      </trkpt>
      <trkpt lat="50.72744" lon="2.77695">
        <ele>65.4</ele>
        <time>2023-08-05T13:49:31Z</time>
      </trkpt>
      <trkpt lat="50.72743" lon="2.77704">
        <ele>65.4</ele>
        <time>2023-08-05T13:49:32Z</time>
      </trkpt>
      <trkpt lat="50.72741" lon="2.77712">
        <ele>65.4</ele>
        <time>2023-08-05T13:49:33Z</time>
      </trkpt>
      <trkpt lat="50.72739" lon="2.77721">
        <ele>65.4</ele>
        <time>2023-08-05T13:49:34Z</time>
      </trkpt>
      <trkpt lat="50.72738" lon="2.77729">
        <ele>65.4</ele>
        <time>2023-08-05T13:49:35Z</time>
      </trkpt>
      <trkpt lat="50.72736" lon="2.77737">
        <ele>65.4</ele>
        <time>2023-08-05T13:49:36Z</time>
      </trkpt>
      <trkpt lat="50.72735" lon="2.77746">
        <ele>65.4</ele>
        <time>2023-08-05T13:49:37Z</time>
      </trkpt>
      <trkpt lat="50.72729" lon="2.77771">
        <ele>65.4</ele>
        <time>2023-08-05T13:49:40Z</time>
      </trkpt>
      <trkpt lat="50.72712" lon="2.77857">
        <ele>65.2</ele>
        <time>2023-08-05T13:49:50Z</time>
      </trkpt>
      <trkpt lat="50.7271" lon="2.77866">
        <ele>65.2</ele>
        <time>2023-08-05T13:49:51Z</time>
      </trkpt>
      <trkpt lat="50.72701" lon="2.77908">
        <ele>65.2</ele>
        <time>2023-08-05T13:49:56Z</time>
      </trkpt>
      <trkpt lat="50.72687" lon="2.77976">
        <ele>65.2</ele>
        <time>2023-08-05T13:50:04Z</time>
      </trkpt>
      <trkpt lat="50.72686" lon="2.77984">
        <ele>65.2</ele>
        <time>2023-08-05T13:50:05Z</time>
      </trkpt>
      <trkpt lat="50.72684" lon="2.77993">
        <ele>65.2</ele>
        <time>2023-08-05T13:50:06Z</time>
      </trkpt>
      <trkpt lat="50.72683" lon="2.78001">
        <ele>65.2</ele>
        <time>2023-08-05T13:50:07Z</time>
      </trkpt>
      <trkpt lat="50.72681" lon="2.78009">
        <ele>65.2</ele>
        <time>2023-08-05T13:50:08Z</time>
      </trkpt>
      <trkpt lat="50.7268" lon="2.78017">
        <ele>65.2</ele>
        <time>2023-08-05T13:50:09Z</time>
      </trkpt>
      <trkpt lat="50.72678" lon="2.78025">
        <ele>65.2</ele>
        <time>2023-08-05T13:50:10Z</time>
      </trkpt>
      <trkpt lat="50.72677" lon="2.78033">
        <ele>65.2</ele>
        <time>2023-08-05T13:50:11Z</time>
      </trkpt>
      <trkpt lat="50.72675" lon="2.78041">
        <ele>65.2</ele>
        <time>2023-08-05T13:50:12Z</time>
      </trkpt>
      <trkpt lat="50.72674" lon="2.78049">
        <ele>65.2</ele>
        <time>2023-08-05T13:50:13Z</time>
      </trkpt>
      <trkpt lat="50.72673" lon="2.78057">
        <ele>65.2</ele>
        <time>2023-08-05T13:50:14Z</time>
      </trkpt>
      <trkpt lat="50.72671" lon="2.78065">
        <ele>65.2</ele>
        <time>2023-08-05T13:50:15Z</time>
      </trkpt>
      <trkpt lat="50.72669" lon="2.78081">
        <ele>65.2</ele>
        <time>2023-08-05T13:50:17Z</time>
      </trkpt>
      <trkpt lat="50.72667" lon="2.78089">
        <ele>65.4</ele>
        <time>2023-08-05T13:50:18Z</time>
      </trkpt>
      <trkpt lat="50.72661" lon="2.78122">
        <ele>65.4</ele>
        <time>2023-08-05T13:50:22Z</time>
      </trkpt>
      <trkpt lat="50.72648" lon="2.78204">
        <ele>65.4</ele>
        <time>2023-08-05T13:50:32Z</time>
      </trkpt>
      <trkpt lat="50.72646" lon="2.78212">
        <ele>65.6</ele>
        <time>2023-08-05T13:50:33Z</time>
      </trkpt>
      <trkpt lat="50.72643" lon="2.78229">
        <ele>65.6</ele>
        <time>2023-08-05T13:50:35Z</time>
      </trkpt>
      <trkpt lat="50.72642" lon="2.78237">
        <ele>65.6</ele>
        <time>2023-08-05T13:50:36Z</time>
      </trkpt>
      <trkpt lat="50.72642" lon="2.78237">
        <ele>65.8</ele>
        <time>2023-08-05T13:50:37Z</time>
      </trkpt>
      <trkpt lat="50.72639" lon="2.78253">
        <ele>65.8</ele>
        <time>2023-08-05T13:50:38Z</time>
      </trkpt>
      <trkpt lat="50.72634" lon="2.78285">
        <ele>65.8</ele>
        <time>2023-08-05T13:50:42Z</time>
      </trkpt>
      <trkpt lat="50.7262" lon="2.78367">
        <ele>65.4</ele>
        <time>2023-08-05T13:50:52Z</time>
      </trkpt>
      <trkpt lat="50.72616" lon="2.78391">
        <ele>65.6</ele>
        <time>2023-08-05T13:50:55Z</time>
      </trkpt>
      <trkpt lat="50.72608" lon="2.78438">
        <ele>65.6</ele>
        <time>2023-08-05T13:51:01Z</time>
      </trkpt>
      <trkpt lat="50.72606" lon="2.78445">
        <ele>65.6</ele>
        <time>2023-08-05T13:51:02Z</time>
      </trkpt>
      <trkpt lat="50.72605" lon="2.78452">
        <ele>65.6</ele>
        <time>2023-08-05T13:51:03Z</time>
      </trkpt>
      <trkpt lat="50.72604" lon="2.78459">
        <ele>65.6</ele>
        <time>2023-08-05T13:51:04Z</time>
      </trkpt>
      <trkpt lat="50.72603" lon="2.78466">
        <ele>65.6</ele>
        <time>2023-08-05T13:51:05Z</time>
      </trkpt>
      <trkpt lat="50.72602" lon="2.78472">
        <ele>65.6</ele>
        <time>2023-08-05T13:51:06Z</time>
      </trkpt>
      <trkpt lat="50.72601" lon="2.78479">
        <ele>65.6</ele>
        <time>2023-08-05T13:51:07Z</time>
      </trkpt>
      <trkpt lat="50.726" lon="2.78485">
        <ele>65.6</ele>
        <time>2023-08-05T13:51:08Z</time>
      </trkpt>
      <trkpt lat="50.72599" lon="2.78491">
        <ele>65.6</ele>
        <time>2023-08-05T13:51:09Z</time>
      </trkpt>
      <trkpt lat="50.72596" lon="2.78502">
        <ele>65.6</ele>
        <time>2023-08-05T13:51:11Z</time>
      </trkpt>
      <trkpt lat="50.72594" lon="2.78506">
        <ele>65.4</ele>
        <time>2023-08-05T13:51:12Z</time>
      </trkpt>
      <trkpt lat="50.72591" lon="2.78508">
        <ele>65.4</ele>
        <time>2023-08-05T13:51:13Z</time>
      </trkpt>
      <trkpt lat="50.72588" lon="2.78509">
        <ele>65.4</ele>
        <time>2023-08-05T13:51:14Z</time>
      </trkpt>
      <trkpt lat="50.72584" lon="2.78508">
        <ele>65.4</ele>
        <time>2023-08-05T13:51:15Z</time>
      </trkpt>
      <trkpt lat="50.7258" lon="2.78507">
        <ele>65.4</ele>
        <time>2023-08-05T13:51:16Z</time>
      </trkpt>
      <trkpt lat="50.72577" lon="2.78505">
        <ele>65.4</ele>
        <time>2023-08-05T13:51:17Z</time>
      </trkpt>
      <trkpt lat="50.72573" lon="2.78504">
        <ele>65.4</ele>
        <time>2023-08-05T13:51:18Z</time>
      </trkpt>
      <trkpt lat="50.7257" lon="2.78502">
        <ele>65.4</ele>
        <time>2023-08-05T13:51:19Z</time>
      </trkpt>
      <trkpt lat="50.72566" lon="2.78501">
        <ele>65.4</ele>
        <time>2023-08-05T13:51:20Z</time>
      </trkpt>
      <trkpt lat="50.72562" lon="2.78499">
        <ele>65.2</ele>
        <time>2023-08-05T13:51:21Z</time>
      </trkpt>
      <trkpt lat="50.72554" lon="2.78497">
        <ele>65.2</ele>
        <time>2023-08-05T13:51:23Z</time>
      </trkpt>
      <trkpt lat="50.72519" lon="2.78485">
        <ele>65</ele>
        <time>2023-08-05T13:51:32Z</time>
      </trkpt>
      <trkpt lat="50.72486" lon="2.78475">
        <ele>65</ele>
        <time>2023-08-05T13:51:40Z</time>
      </trkpt>
      <trkpt lat="50.72478" lon="2.78472">
        <ele>65</ele>
        <time>2023-08-05T13:51:42Z</time>
      </trkpt>
      <trkpt lat="50.7247" lon="2.78469">
        <ele>65</ele>
        <time>2023-08-05T13:51:44Z</time>
      </trkpt>
      <trkpt lat="50.72442" lon="2.78461">
        <ele>65.2</ele>
        <time>2023-08-05T13:51:51Z</time>
      </trkpt>
      <trkpt lat="50.72401" lon="2.78447">
        <ele>65.2</ele>
        <time>2023-08-05T13:52:01Z</time>
      </trkpt>
      <trkpt lat="50.72353" lon="2.78434">
        <ele>65.2</ele>
        <time>2023-08-05T13:52:12Z</time>
      </trkpt>
      <trkpt lat="50.72319" lon="2.78423">
        <ele>65.4</ele>
        <time>2023-08-05T13:52:20Z</time>
      </trkpt>
      <trkpt lat="50.72315" lon="2.78421">
        <ele>65.4</ele>
        <time>2023-08-05T13:52:21Z</time>
      </trkpt>
      <trkpt lat="50.72258" lon="2.78402">
        <ele>65.4</ele>
        <time>2023-08-05T13:52:34Z</time>
      </trkpt>
      <trkpt lat="50.72237" lon="2.78396">
        <ele>65.4</ele>
        <time>2023-08-05T13:52:40Z</time>
      </trkpt>
      <trkpt lat="50.72229" lon="2.78393">
        <ele>65.4</ele>
        <time>2023-08-05T13:52:41Z</time>
      </trkpt>
      <trkpt lat="50.72207" lon="2.78385">
        <ele>65.4</ele>
        <time>2023-08-05T13:52:46Z</time>
      </trkpt>
      <trkpt lat="50.72177" lon="2.78377">
        <ele>65.4</ele>
        <time>2023-08-05T13:52:53Z</time>
      </trkpt>
      <trkpt lat="50.7216" lon="2.78371">
        <ele>65.4</ele>
        <time>2023-08-05T13:52:57Z</time>
      </trkpt>
      <trkpt lat="50.72119" lon="2.78361">
        <ele>65.4</ele>
        <time>2023-08-05T13:53:06Z</time>
      </trkpt>
      <trkpt lat="50.72115" lon="2.7836">
        <ele>65.4</ele>
        <time>2023-08-05T13:53:07Z</time>
      </trkpt>
      <trkpt lat="50.72106" lon="2.78358">
        <ele>65.4</ele>
        <time>2023-08-05T13:53:09Z</time>
      </trkpt>
      <trkpt lat="50.72102" lon="2.78356">
        <ele>65.4</ele>
        <time>2023-08-05T13:53:10Z</time>
      </trkpt>
      <trkpt lat="50.72093" lon="2.78353">
        <ele>65.4</ele>
        <time>2023-08-05T13:53:12Z</time>
      </trkpt>
      <trkpt lat="50.7208" lon="2.78349">
        <ele>65.4</ele>
        <time>2023-08-05T13:53:15Z</time>
      </trkpt>
      <trkpt lat="50.72076" lon="2.78348">
        <ele>65.4</ele>
        <time>2023-08-05T13:53:16Z</time>
      </trkpt>
      <trkpt lat="50.72055" lon="2.7834">
        <ele>65.4</ele>
        <time>2023-08-05T13:53:21Z</time>
      </trkpt>
      <trkpt lat="50.72025" lon="2.78331">
        <ele>65.4</ele>
        <time>2023-08-05T13:53:28Z</time>
      </trkpt>
      <trkpt lat="50.72021" lon="2.7833">
        <ele>65.4</ele>
        <time>2023-08-05T13:53:30Z</time>
      </trkpt>
      <trkpt lat="50.72012" lon="2.78327">
        <ele>65.6</ele>
        <time>2023-08-05T13:53:31Z</time>
      </trkpt>
      <trkpt lat="50.71995" lon="2.78321">
        <ele>65.6</ele>
        <time>2023-08-05T13:53:35Z</time>
      </trkpt>
      <trkpt lat="50.71969" lon="2.78314">
        <ele>65.6</ele>
        <time>2023-08-05T13:53:41Z</time>
      </trkpt>
      <trkpt lat="50.71957" lon="2.78311">
        <ele>65.4</ele>
        <time>2023-08-05T13:53:44Z</time>
      </trkpt>
      <trkpt lat="50.71954" lon="2.7831">
        <ele>65.6</ele>
        <time>2023-08-05T13:53:45Z</time>
      </trkpt>
      <trkpt lat="50.71951" lon="2.78309">
        <ele>65.6</ele>
        <time>2023-08-05T13:53:46Z</time>
      </trkpt>
      <trkpt lat="50.71947" lon="2.78308">
        <ele>65.6</ele>
        <time>2023-08-05T13:53:47Z</time>
      </trkpt>
      <trkpt lat="50.71943" lon="2.78308">
        <ele>65.4</ele>
        <time>2023-08-05T13:53:48Z</time>
      </trkpt>
      <trkpt lat="50.71937" lon="2.78312">
        <ele>65.4</ele>
        <time>2023-08-05T13:53:50Z</time>
      </trkpt>
      <trkpt lat="50.71935" lon="2.78316">
        <ele>65.4</ele>
        <time>2023-08-05T13:53:51Z</time>
      </trkpt>
      <trkpt lat="50.71932" lon="2.78321">
        <ele>65.4</ele>
        <time>2023-08-05T13:53:52Z</time>
      </trkpt>
      <trkpt lat="50.71927" lon="2.78331">
        <ele>65.4</ele>
        <time>2023-08-05T13:53:54Z</time>
      </trkpt>
      <trkpt lat="50.71924" lon="2.78334">
        <ele>65.4</ele>
        <time>2023-08-05T13:53:55Z</time>
      </trkpt>
      <trkpt lat="50.71918" lon="2.78337">
        <ele>65.4</ele>
        <time>2023-08-05T13:53:57Z</time>
      </trkpt>
      <trkpt lat="50.71918" lon="2.78337">
        <ele>65.4</ele>
        <time>2023-08-05T13:53:58Z</time>
      </trkpt>
      <trkpt lat="50.7191" lon="2.78338">
        <ele>65.4</ele>
        <time>2023-08-05T13:53:59Z</time>
      </trkpt>
      <trkpt lat="50.71906" lon="2.78338">
        <ele>65.4</ele>
        <time>2023-08-05T13:54:00Z</time>
      </trkpt>
      <trkpt lat="50.71891" lon="2.7834">
        <ele>65.4</ele>
        <time>2023-08-05T13:54:04Z</time>
      </trkpt>
      <trkpt lat="50.71855" lon="2.78347">
        <ele>65.4</ele>
        <time>2023-08-05T13:54:13Z</time>
      </trkpt>
      <trkpt lat="50.71847" lon="2.78353">
        <ele>65.4</ele>
        <time>2023-08-05T13:54:15Z</time>
      </trkpt>
      <trkpt lat="50.71838" lon="2.78365">
        <ele>65.2</ele>
        <time>2023-08-05T13:54:18Z</time>
      </trkpt>
      <trkpt lat="50.71824" lon="2.78384">
        <ele>65.6</ele>
        <time>2023-08-05T13:54:22Z</time>
      </trkpt>
      <trkpt lat="50.71812" lon="2.78392">
        <ele>65.6</ele>
        <time>2023-08-05T13:54:25Z</time>
      </trkpt>
      <trkpt lat="50.71786" lon="2.78404">
        <ele>65.4</ele>
        <time>2023-08-05T13:54:31Z</time>
      </trkpt>
      <trkpt lat="50.71769" lon="2.78412">
        <ele>65.4</ele>
        <time>2023-08-05T13:54:35Z</time>
      </trkpt>
      <trkpt lat="50.71746" lon="2.78421">
        <ele>65.4</ele>
        <time>2023-08-05T13:54:40Z</time>
      </trkpt>
      <trkpt lat="50.71729" lon="2.7843">
        <ele>65.4</ele>
        <time>2023-08-05T13:54:44Z</time>
      </trkpt>
      <trkpt lat="50.71693" lon="2.78445">
        <ele>65.4</ele>
        <time>2023-08-05T13:54:52Z</time>
      </trkpt>
      <trkpt lat="50.71647" lon="2.78462">
        <ele>65.4</ele>
        <time>2023-08-05T13:55:02Z</time>
      </trkpt>
      <trkpt lat="50.71607" lon="2.78478">
        <ele>65.2</ele>
        <time>2023-08-05T13:55:11Z</time>
      </trkpt>
      <trkpt lat="50.71599" lon="2.78482">
        <ele>65.2</ele>
        <time>2023-08-05T13:55:13Z</time>
      </trkpt>
      <trkpt lat="50.71594" lon="2.78484">
        <ele>65.2</ele>
        <time>2023-08-05T13:55:14Z</time>
      </trkpt>
      <trkpt lat="50.7159" lon="2.78487">
        <ele>65.2</ele>
        <time>2023-08-05T13:55:15Z</time>
      </trkpt>
      <trkpt lat="50.71578" lon="2.78497">
        <ele>65</ele>
        <time>2023-08-05T13:55:18Z</time>
      </trkpt>
      <trkpt lat="50.71547" lon="2.78526">
        <ele>65.2</ele>
        <time>2023-08-05T13:55:26Z</time>
      </trkpt>
      <trkpt lat="50.71543" lon="2.78529">
        <ele>65.2</ele>
        <time>2023-08-05T13:55:27Z</time>
      </trkpt>
      <trkpt lat="50.71539" lon="2.78532">
        <ele>65.2</ele>
        <time>2023-08-05T13:55:28Z</time>
      </trkpt>
      <trkpt lat="50.71531" lon="2.78537">
        <ele>65.2</ele>
        <time>2023-08-05T13:55:30Z</time>
      </trkpt>
      <trkpt lat="50.71526" lon="2.78539">
        <ele>65.2</ele>
        <time>2023-08-05T13:55:31Z</time>
      </trkpt>
      <trkpt lat="50.71514" lon="2.78545">
        <ele>65.2</ele>
        <time>2023-08-05T13:55:34Z</time>
      </trkpt>
      <trkpt lat="50.7147" lon="2.78565">
        <ele>65.2</ele>
        <time>2023-08-05T13:55:44Z</time>
      </trkpt>
      <trkpt lat="50.71452" lon="2.78575">
        <ele>65.2</ele>
        <time>2023-08-05T13:55:48Z</time>
      </trkpt>
      <trkpt lat="50.71448" lon="2.78579">
        <ele>65</ele>
        <time>2023-08-05T13:55:49Z</time>
      </trkpt>
      <trkpt lat="50.71445" lon="2.78583">
        <ele>65</ele>
        <time>2023-08-05T13:55:50Z</time>
      </trkpt>
      <trkpt lat="50.71441" lon="2.78588">
        <ele>65</ele>
        <time>2023-08-05T13:55:51Z</time>
      </trkpt>
      <trkpt lat="50.71424" lon="2.78614">
        <ele>65</ele>
        <time>2023-08-05T13:55:56Z</time>
      </trkpt>
      <trkpt lat="50.7142" lon="2.78617">
        <ele>65</ele>
        <time>2023-08-05T13:55:57Z</time>
      </trkpt>
      <trkpt lat="50.71416" lon="2.7862">
        <ele>64.8</ele>
        <time>2023-08-05T13:55:58Z</time>
      </trkpt>
      <trkpt lat="50.71398" lon="2.78626">
        <ele>64.8</ele>
        <time>2023-08-05T13:56:02Z</time>
      </trkpt>
      <trkpt lat="50.71385" lon="2.78631">
        <ele>64.6</ele>
        <time>2023-08-05T13:56:05Z</time>
      </trkpt>
      <trkpt lat="50.71381" lon="2.78632">
        <ele>64.6</ele>
        <time>2023-08-05T13:56:06Z</time>
      </trkpt>
      <trkpt lat="50.71376" lon="2.78633">
        <ele>64.6</ele>
        <time>2023-08-05T13:56:07Z</time>
      </trkpt>
      <trkpt lat="50.71372" lon="2.78635">
        <ele>64.6</ele>
        <time>2023-08-05T13:56:08Z</time>
      </trkpt>
      <trkpt lat="50.71358" lon="2.78639">
        <ele>64.6</ele>
        <time>2023-08-05T13:56:11Z</time>
      </trkpt>
      <trkpt lat="50.71354" lon="2.78641">
        <ele>64.6</ele>
        <time>2023-08-05T13:56:12Z</time>
      </trkpt>
      <trkpt lat="50.71346" lon="2.78647">
        <ele>64.6</ele>
        <time>2023-08-05T13:56:14Z</time>
      </trkpt>
      <trkpt lat="50.71339" lon="2.78656">
        <ele>64.6</ele>
        <time>2023-08-05T13:56:16Z</time>
      </trkpt>
      <trkpt lat="50.71333" lon="2.78666">
        <ele>64.8</ele>
        <time>2023-08-05T13:56:18Z</time>
      </trkpt>
      <trkpt lat="50.71325" lon="2.78682">
        <ele>65</ele>
        <time>2023-08-05T13:56:21Z</time>
      </trkpt>
      <trkpt lat="50.71322" lon="2.78686">
        <ele>65</ele>
        <time>2023-08-05T13:56:22Z</time>
      </trkpt>
      <trkpt lat="50.7132" lon="2.7869">
        <ele>65</ele>
        <time>2023-08-05T13:56:23Z</time>
      </trkpt>
      <trkpt lat="50.71318" lon="2.78694">
        <ele>65.2</ele>
        <time>2023-08-05T13:56:24Z</time>
      </trkpt>
      <trkpt lat="50.71317" lon="2.78697">
        <ele>65.2</ele>
        <time>2023-08-05T13:56:25Z</time>
      </trkpt>
      <trkpt lat="50.71315" lon="2.78701">
        <ele>65.4</ele>
        <time>2023-08-05T13:56:26Z</time>
      </trkpt>
      <trkpt lat="50.71313" lon="2.78703">
        <ele>65.4</ele>
        <time>2023-08-05T13:56:27Z</time>
      </trkpt>
      <trkpt lat="50.71312" lon="2.78706">
        <ele>65.6</ele>
        <time>2023-08-05T13:56:28Z</time>
      </trkpt>
      <trkpt lat="50.7131" lon="2.78709">
        <ele>65.6</ele>
        <time>2023-08-05T13:56:29Z</time>
      </trkpt>
      <trkpt lat="50.71308" lon="2.78711">
        <ele>65.8</ele>
        <time>2023-08-05T13:56:30Z</time>
      </trkpt>
      <trkpt lat="50.71303" lon="2.78717">
        <ele>66</ele>
        <time>2023-08-05T13:56:33Z</time>
      </trkpt>
      <trkpt lat="50.71302" lon="2.78718">
        <ele>66</ele>
        <time>2023-08-05T13:56:34Z</time>
      </trkpt>
      <trkpt lat="50.71302" lon="2.7872">
        <ele>66.2</ele>
        <time>2023-08-05T13:56:35Z</time>
      </trkpt>
      <trkpt lat="50.71301" lon="2.78721">
        <ele>66.2</ele>
        <time>2023-08-05T13:56:36Z</time>
      </trkpt>
      <trkpt lat="50.71301" lon="2.78721">
        <ele>66.4</ele>
        <time>2023-08-05T13:56:37Z</time>
      </trkpt>
      <trkpt lat="50.71301" lon="2.78721">
        <ele>66.4</ele>
        <time>2023-08-05T13:56:38Z</time>
      </trkpt>
      <trkpt lat="50.71301" lon="2.78722">
        <ele>66.4</ele>
        <time>2023-08-05T13:56:39Z</time>
      </trkpt>
      <trkpt lat="50.71301" lon="2.78722">
        <ele>66.4</ele>
        <time>2023-08-05T13:56:40Z</time>
      </trkpt>
      <trkpt lat="50.71296" lon="2.78737">
        <ele>67.8</ele>
        <time>2023-08-05T14:04:15Z</time>
      </trkpt>
      <trkpt lat="50.71296" lon="2.78743">
        <ele>67.8</ele>
        <time>2023-08-05T14:04:17Z</time>
      </trkpt>
      <trkpt lat="50.71296" lon="2.78754">
        <ele>67.8</ele>
        <time>2023-08-05T14:04:20Z</time>
      </trkpt>
      <trkpt lat="50.71297" lon="2.78763">
        <ele>67.8</ele>
        <time>2023-08-05T14:04:22Z</time>
      </trkpt>
      <trkpt lat="50.71293" lon="2.78794">
        <ele>67.8</ele>
        <time>2023-08-05T14:04:28Z</time>
      </trkpt>
      <trkpt lat="50.71291" lon="2.78798">
        <ele>67.8</ele>
        <time>2023-08-05T14:04:29Z</time>
      </trkpt>
      <trkpt lat="50.71286" lon="2.78804">
        <ele>67.6</ele>
        <time>2023-08-05T14:04:31Z</time>
      </trkpt>
      <trkpt lat="50.71282" lon="2.78805">
        <ele>67.6</ele>
        <time>2023-08-05T14:04:32Z</time>
      </trkpt>
      <trkpt lat="50.71272" lon="2.78807">
        <ele>67.2</ele>
        <time>2023-08-05T14:04:35Z</time>
      </trkpt>
      <trkpt lat="50.71269" lon="2.7881">
        <ele>67</ele>
        <time>2023-08-05T14:04:36Z</time>
      </trkpt>
      <trkpt lat="50.71267" lon="2.78813">
        <ele>67</ele>
        <time>2023-08-05T14:04:37Z</time>
      </trkpt>
      <trkpt lat="50.71267" lon="2.78817">
        <ele>67</ele>
        <time>2023-08-05T14:04:38Z</time>
      </trkpt>
      <trkpt lat="50.71265" lon="2.78822">
        <ele>67</ele>
        <time>2023-08-05T14:04:39Z</time>
      </trkpt>
      <trkpt lat="50.71264" lon="2.78827">
        <ele>67</ele>
        <time>2023-08-05T14:04:40Z</time>
      </trkpt>
      <trkpt lat="50.7126" lon="2.78837">
        <ele>66.8</ele>
        <time>2023-08-05T14:04:42Z</time>
      </trkpt>
      <trkpt lat="50.71257" lon="2.78843">
        <ele>66.8</ele>
        <time>2023-08-05T14:04:43Z</time>
      </trkpt>
      <trkpt lat="50.71242" lon="2.7888">
        <ele>66.4</ele>
        <time>2023-08-05T14:04:50Z</time>
      </trkpt>
      <trkpt lat="50.7122" lon="2.78936">
        <ele>66</ele>
        <time>2023-08-05T14:05:00Z</time>
      </trkpt>
      <trkpt lat="50.71216" lon="2.7895">
        <ele>66.2</ele>
        <time>2023-08-05T14:05:03Z</time>
      </trkpt>
      <trkpt lat="50.71214" lon="2.78954">
        <ele>66.4</ele>
        <time>2023-08-05T14:05:04Z</time>
      </trkpt>
      <trkpt lat="50.71213" lon="2.78959">
        <ele>66.4</ele>
        <time>2023-08-05T14:05:05Z</time>
      </trkpt>
      <trkpt lat="50.71209" lon="2.78968">
        <ele>66.4</ele>
        <time>2023-08-05T14:05:07Z</time>
      </trkpt>
      <trkpt lat="50.71206" lon="2.78975">
        <ele>66.4</ele>
        <time>2023-08-05T14:05:08Z</time>
      </trkpt>
      <trkpt lat="50.71204" lon="2.78981">
        <ele>66.2</ele>
        <time>2023-08-05T14:05:09Z</time>
      </trkpt>
      <trkpt lat="50.71188" lon="2.79015">
        <ele>66</ele>
        <time>2023-08-05T14:05:15Z</time>
      </trkpt>
      <trkpt lat="50.7118" lon="2.79034">
        <ele>66</ele>
        <time>2023-08-05T14:05:18Z</time>
      </trkpt>
      <trkpt lat="50.71177" lon="2.79043">
        <ele>66</ele>
        <time>2023-08-05T14:05:20Z</time>
      </trkpt>
      <trkpt lat="50.71173" lon="2.79051">
        <ele>66.2</ele>
        <time>2023-08-05T14:05:21Z</time>
      </trkpt>
      <trkpt lat="50.71167" lon="2.79066">
        <ele>66.2</ele>
        <time>2023-08-05T14:05:23Z</time>
      </trkpt>
      <trkpt lat="50.71159" lon="2.79084">
        <ele>66.2</ele>
        <time>2023-08-05T14:05:26Z</time>
      </trkpt>
      <trkpt lat="50.71156" lon="2.79091">
        <ele>66.4</ele>
        <time>2023-08-05T14:05:27Z</time>
      </trkpt>
      <trkpt lat="50.71152" lon="2.79103">
        <ele>66.4</ele>
        <time>2023-08-05T14:05:29Z</time>
      </trkpt>
      <trkpt lat="50.71148" lon="2.79116">
        <ele>66.4</ele>
        <time>2023-08-05T14:05:31Z</time>
      </trkpt>
      <trkpt lat="50.71144" lon="2.79127">
        <ele>66.4</ele>
        <time>2023-08-05T14:05:33Z</time>
      </trkpt>
      <trkpt lat="50.71142" lon="2.79133">
        <ele>66.4</ele>
        <time>2023-08-05T14:05:34Z</time>
      </trkpt>
      <trkpt lat="50.7114" lon="2.79139">
        <ele>66.4</ele>
        <time>2023-08-05T14:05:35Z</time>
      </trkpt>
      <trkpt lat="50.71138" lon="2.79144">
        <ele>66.4</ele>
        <time>2023-08-05T14:05:36Z</time>
      </trkpt>
      <trkpt lat="50.71135" lon="2.7915">
        <ele>66.4</ele>
        <time>2023-08-05T14:05:37Z</time>
      </trkpt>
      <trkpt lat="50.71133" lon="2.79156">
        <ele>66.4</ele>
        <time>2023-08-05T14:05:38Z</time>
      </trkpt>
      <trkpt lat="50.71131" lon="2.79162">
        <ele>66.4</ele>
        <time>2023-08-05T14:05:39Z</time>
      </trkpt>
      <trkpt lat="50.71124" lon="2.79181">
        <ele>66.6</ele>
        <time>2023-08-05T14:05:43Z</time>
      </trkpt>
      <trkpt lat="50.71122" lon="2.79187">
        <ele>66.6</ele>
        <time>2023-08-05T14:05:44Z</time>
      </trkpt>
      <trkpt lat="50.71121" lon="2.79192">
        <ele>66.8</ele>
        <time>2023-08-05T14:05:45Z</time>
      </trkpt>
      <trkpt lat="50.71114" lon="2.79209">
        <ele>66.6</ele>
        <time>2023-08-05T14:05:48Z</time>
      </trkpt>
      <trkpt lat="50.71109" lon="2.79219">
        <ele>66.6</ele>
        <time>2023-08-05T14:05:50Z</time>
      </trkpt>
      <trkpt lat="50.71093" lon="2.79259">
        <ele>66.8</ele>
        <time>2023-08-05T14:05:57Z</time>
      </trkpt>
      <trkpt lat="50.7107" lon="2.79317">
        <ele>67</ele>
        <time>2023-08-05T14:06:07Z</time>
      </trkpt>
      <trkpt lat="50.71056" lon="2.79352">
        <ele>67.2</ele>
        <time>2023-08-05T14:06:13Z</time>
      </trkpt>
      <trkpt lat="50.71054" lon="2.79357">
        <ele>67.2</ele>
        <time>2023-08-05T14:06:14Z</time>
      </trkpt>
      <trkpt lat="50.71052" lon="2.79363">
        <ele>67.2</ele>
        <time>2023-08-05T14:06:15Z</time>
      </trkpt>
      <trkpt lat="50.7105" lon="2.79368">
        <ele>67.2</ele>
        <time>2023-08-05T14:06:16Z</time>
      </trkpt>
      <trkpt lat="50.71048" lon="2.79373">
        <ele>67.4</ele>
        <time>2023-08-05T14:06:17Z</time>
      </trkpt>
      <trkpt lat="50.71046" lon="2.79378">
        <ele>67.4</ele>
        <time>2023-08-05T14:06:18Z</time>
      </trkpt>
      <trkpt lat="50.71044" lon="2.79383">
        <ele>67.4</ele>
        <time>2023-08-05T14:06:19Z</time>
      </trkpt>
      <trkpt lat="50.71042" lon="2.79388">
        <ele>67.4</ele>
        <time>2023-08-05T14:06:20Z</time>
      </trkpt>
      <trkpt lat="50.71041" lon="2.79393">
        <ele>67.4</ele>
        <time>2023-08-05T14:06:21Z</time>
      </trkpt>
      <trkpt lat="50.71039" lon="2.79399">
        <ele>67.4</ele>
        <time>2023-08-05T14:06:22Z</time>
      </trkpt>
      <trkpt lat="50.71034" lon="2.79409">
        <ele>67.4</ele>
        <time>2023-08-05T14:06:24Z</time>
      </trkpt>
      <trkpt lat="50.71019" lon="2.79449">
        <ele>67.2</ele>
        <time>2023-08-05T14:06:32Z</time>
      </trkpt>
      <trkpt lat="50.71017" lon="2.79454">
        <ele>67.2</ele>
        <time>2023-08-05T14:06:33Z</time>
      </trkpt>
      <trkpt lat="50.71016" lon="2.79459">
        <ele>67.2</ele>
        <time>2023-08-05T14:06:34Z</time>
      </trkpt>
      <trkpt lat="50.71014" lon="2.79464">
        <ele>67.2</ele>
        <time>2023-08-05T14:06:35Z</time>
      </trkpt>
      <trkpt lat="50.71012" lon="2.79469">
        <ele>67.2</ele>
        <time>2023-08-05T14:06:36Z</time>
      </trkpt>
      <trkpt lat="50.7101" lon="2.79475">
        <ele>67.4</ele>
        <time>2023-08-05T14:06:37Z</time>
      </trkpt>
      <trkpt lat="50.71004" lon="2.7949">
        <ele>67.4</ele>
        <time>2023-08-05T14:06:40Z</time>
      </trkpt>
      <trkpt lat="50.70983" lon="2.79546">
        <ele>67.6</ele>
        <time>2023-08-05T14:06:50Z</time>
      </trkpt>
      <trkpt lat="50.70965" lon="2.7959">
        <ele>67.4</ele>
        <time>2023-08-05T14:06:58Z</time>
      </trkpt>
      <trkpt lat="50.70962" lon="2.79596">
        <ele>67.4</ele>
        <time>2023-08-05T14:06:59Z</time>
      </trkpt>
      <trkpt lat="50.7096" lon="2.79602">
        <ele>67.2</ele>
        <time>2023-08-05T14:07:00Z</time>
      </trkpt>
      <trkpt lat="50.70958" lon="2.79608">
        <ele>67.2</ele>
        <time>2023-08-05T14:07:01Z</time>
      </trkpt>
      <trkpt lat="50.70956" lon="2.79613">
        <ele>67.2</ele>
        <time>2023-08-05T14:07:02Z</time>
      </trkpt>
      <trkpt lat="50.7094" lon="2.79655">
        <ele>67.6</ele>
        <time>2023-08-05T14:07:09Z</time>
      </trkpt>
      <trkpt lat="50.70918" lon="2.79711">
        <ele>67.6</ele>
        <time>2023-08-05T14:07:18Z</time>
      </trkpt>
      <trkpt lat="50.70897" lon="2.79767">
        <ele>67.8</ele>
        <time>2023-08-05T14:07:27Z</time>
      </trkpt>
      <trkpt lat="50.70895" lon="2.79774">
        <ele>67.8</ele>
        <time>2023-08-05T14:07:28Z</time>
      </trkpt>
      <trkpt lat="50.70884" lon="2.79803">
        <ele>67.8</ele>
        <time>2023-08-05T14:07:33Z</time>
      </trkpt>
      <trkpt lat="50.70879" lon="2.79814">
        <ele>67.6</ele>
        <time>2023-08-05T14:07:35Z</time>
      </trkpt>
      <trkpt lat="50.70876" lon="2.79821">
        <ele>67.4</ele>
        <time>2023-08-05T14:07:36Z</time>
      </trkpt>
      <trkpt lat="50.70874" lon="2.79827">
        <ele>67.4</ele>
        <time>2023-08-05T14:07:37Z</time>
      </trkpt>
      <trkpt lat="50.70872" lon="2.79832">
        <ele>67.6</ele>
        <time>2023-08-05T14:07:38Z</time>
      </trkpt>
      <trkpt lat="50.7087" lon="2.79838">
        <ele>67.6</ele>
        <time>2023-08-05T14:07:39Z</time>
      </trkpt>
      <trkpt lat="50.70865" lon="2.79851">
        <ele>67.6</ele>
        <time>2023-08-05T14:07:41Z</time>
      </trkpt>
      <trkpt lat="50.70863" lon="2.79857">
        <ele>67.6</ele>
        <time>2023-08-05T14:07:42Z</time>
      </trkpt>
      <trkpt lat="50.70857" lon="2.79873">
        <ele>67.6</ele>
        <time>2023-08-05T14:07:45Z</time>
      </trkpt>
      <trkpt lat="50.70831" lon="2.79936">
        <ele>68.2</ele>
        <time>2023-08-05T14:07:55Z</time>
      </trkpt>
      <trkpt lat="50.70814" lon="2.79977">
        <ele>68.2</ele>
        <time>2023-08-05T14:08:02Z</time>
      </trkpt>
      <trkpt lat="50.70813" lon="2.79982">
        <ele>68.2</ele>
        <time>2023-08-05T14:08:03Z</time>
      </trkpt>
      <trkpt lat="50.7081" lon="2.79988">
        <ele>68.2</ele>
        <time>2023-08-05T14:08:04Z</time>
      </trkpt>
      <trkpt lat="50.70808" lon="2.79993">
        <ele>68</ele>
        <time>2023-08-05T14:08:05Z</time>
      </trkpt>
      <trkpt lat="50.70805" lon="2.8">
        <ele>68</ele>
        <time>2023-08-05T14:08:06Z</time>
      </trkpt>
      <trkpt lat="50.70803" lon="2.80005">
        <ele>67.8</ele>
        <time>2023-08-05T14:08:07Z</time>
      </trkpt>
      <trkpt lat="50.70801" lon="2.8001">
        <ele>67.6</ele>
        <time>2023-08-05T14:08:08Z</time>
      </trkpt>
      <trkpt lat="50.70788" lon="2.80041">
        <ele>67.6</ele>
        <time>2023-08-05T14:08:13Z</time>
      </trkpt>
      <trkpt lat="50.70768" lon="2.80094">
        <ele>67.6</ele>
        <time>2023-08-05T14:08:22Z</time>
      </trkpt>
      <trkpt lat="50.70744" lon="2.80155">
        <ele>67.8</ele>
        <time>2023-08-05T14:08:32Z</time>
      </trkpt>
      <trkpt lat="50.70716" lon="2.80228">
        <ele>67.6</ele>
        <time>2023-08-05T14:08:43Z</time>
      </trkpt>
      <trkpt lat="50.70692" lon="2.8029">
        <ele>67.8</ele>
        <time>2023-08-05T14:08:52Z</time>
      </trkpt>
      <trkpt lat="50.70666" lon="2.8036">
        <ele>67.4</ele>
        <time>2023-08-05T14:09:02Z</time>
      </trkpt>
      <trkpt lat="50.70642" lon="2.80422">
        <ele>67.6</ele>
        <time>2023-08-05T14:09:11Z</time>
      </trkpt>
      <trkpt lat="50.70639" lon="2.80428">
        <ele>67.6</ele>
        <time>2023-08-05T14:09:12Z</time>
      </trkpt>
      <trkpt lat="50.70637" lon="2.80435">
        <ele>67.6</ele>
        <time>2023-08-05T14:09:13Z</time>
      </trkpt>
      <trkpt lat="50.70634" lon="2.80441">
        <ele>67.6</ele>
        <time>2023-08-05T14:09:14Z</time>
      </trkpt>
      <trkpt lat="50.70632" lon="2.80448">
        <ele>67.6</ele>
        <time>2023-08-05T14:09:15Z</time>
      </trkpt>
      <trkpt lat="50.70629" lon="2.80454">
        <ele>67.6</ele>
        <time>2023-08-05T14:09:16Z</time>
      </trkpt>
      <trkpt lat="50.70627" lon="2.80461">
        <ele>67.6</ele>
        <time>2023-08-05T14:09:17Z</time>
      </trkpt>
      <trkpt lat="50.70621" lon="2.80474">
        <ele>67.6</ele>
        <time>2023-08-05T14:09:19Z</time>
      </trkpt>
      <trkpt lat="50.70619" lon="2.80481">
        <ele>67.6</ele>
        <time>2023-08-05T14:09:20Z</time>
      </trkpt>
      <trkpt lat="50.70616" lon="2.80488">
        <ele>67.6</ele>
        <time>2023-08-05T14:09:21Z</time>
      </trkpt>
      <trkpt lat="50.70607" lon="2.80514">
        <ele>67.8</ele>
        <time>2023-08-05T14:09:25Z</time>
      </trkpt>
      <trkpt lat="50.70597" lon="2.80538">
        <ele>68</ele>
        <time>2023-08-05T14:09:29Z</time>
      </trkpt>
      <trkpt lat="50.70595" lon="2.80543">
        <ele>68.2</ele>
        <time>2023-08-05T14:09:30Z</time>
      </trkpt>
      <trkpt lat="50.70592" lon="2.80546">
        <ele>68.2</ele>
        <time>2023-08-05T14:09:31Z</time>
      </trkpt>
      <trkpt lat="50.70589" lon="2.80548">
        <ele>68.2</ele>
        <time>2023-08-05T14:09:32Z</time>
      </trkpt>
      <trkpt lat="50.70586" lon="2.80547">
        <ele>68.4</ele>
        <time>2023-08-05T14:09:33Z</time>
      </trkpt>
      <trkpt lat="50.70584" lon="2.80545">
        <ele>68.4</ele>
        <time>2023-08-05T14:09:34Z</time>
      </trkpt>
      <trkpt lat="50.70582" lon="2.80543">
        <ele>68.4</ele>
        <time>2023-08-05T14:09:35Z</time>
      </trkpt>
      <trkpt lat="50.70579" lon="2.8054">
        <ele>68.4</ele>
        <time>2023-08-05T14:09:36Z</time>
      </trkpt>
      <trkpt lat="50.70576" lon="2.80537">
        <ele>68.4</ele>
        <time>2023-08-05T14:09:37Z</time>
      </trkpt>
      <trkpt lat="50.70573" lon="2.80534">
        <ele>68.4</ele>
        <time>2023-08-05T14:09:38Z</time>
      </trkpt>
      <trkpt lat="50.70569" lon="2.8053">
        <ele>68.6</ele>
        <time>2023-08-05T14:09:39Z</time>
      </trkpt>
      <trkpt lat="50.70562" lon="2.80522">
        <ele>68.8</ele>
        <time>2023-08-05T14:09:41Z</time>
      </trkpt>
      <trkpt lat="50.70538" lon="2.80495">
        <ele>68.6</ele>
        <time>2023-08-05T14:09:47Z</time>
      </trkpt>
      <trkpt lat="50.70534" lon="2.80491">
        <ele>68.6</ele>
        <time>2023-08-05T14:09:48Z</time>
      </trkpt>
      <trkpt lat="50.7053" lon="2.8049">
        <ele>68.4</ele>
        <time>2023-08-05T14:09:49Z</time>
      </trkpt>
      <trkpt lat="50.70527" lon="2.80492">
        <ele>68.2</ele>
        <time>2023-08-05T14:09:50Z</time>
      </trkpt>
      <trkpt lat="50.70524" lon="2.80496">
        <ele>68.2</ele>
        <time>2023-08-05T14:09:51Z</time>
      </trkpt>
      <trkpt lat="50.70522" lon="2.80501">
        <ele>68</ele>
        <time>2023-08-05T14:09:52Z</time>
      </trkpt>
      <trkpt lat="50.7052" lon="2.80514">
        <ele>67.8</ele>
        <time>2023-08-05T14:09:54Z</time>
      </trkpt>
      <trkpt lat="50.7052" lon="2.80521">
        <ele>67.8</ele>
        <time>2023-08-05T14:09:55Z</time>
      </trkpt>
      <trkpt lat="50.7052" lon="2.80528">
        <ele>67.8</ele>
        <time>2023-08-05T14:09:56Z</time>
      </trkpt>
      <trkpt lat="50.7052" lon="2.80535">
        <ele>67.8</ele>
        <time>2023-08-05T14:09:57Z</time>
      </trkpt>
      <trkpt lat="50.7052" lon="2.80541">
        <ele>67.6</ele>
        <time>2023-08-05T14:09:58Z</time>
      </trkpt>
      <trkpt lat="50.70521" lon="2.80548">
        <ele>67.6</ele>
        <time>2023-08-05T14:09:59Z</time>
      </trkpt>
      <trkpt lat="50.70521" lon="2.80554">
        <ele>67.6</ele>
        <time>2023-08-05T14:10:00Z</time>
      </trkpt>
      <trkpt lat="50.70521" lon="2.80609">
        <ele>67.4</ele>
        <time>2023-08-05T14:10:08Z</time>
      </trkpt>
      <trkpt lat="50.70519" lon="2.80667">
        <ele>67.2</ele>
        <time>2023-08-05T14:10:16Z</time>
      </trkpt>
      <trkpt lat="50.70506" lon="2.80704">
        <ele>67</ele>
        <time>2023-08-05T14:10:22Z</time>
      </trkpt>
      <trkpt lat="50.70504" lon="2.80709">
        <ele>67</ele>
        <time>2023-08-05T14:10:23Z</time>
      </trkpt>
      <trkpt lat="50.70502" lon="2.80715">
        <ele>67</ele>
        <time>2023-08-05T14:10:24Z</time>
      </trkpt>
      <trkpt lat="50.705" lon="2.80721">
        <ele>67</ele>
        <time>2023-08-05T14:10:25Z</time>
      </trkpt>
      <trkpt lat="50.70498" lon="2.80727">
        <ele>67.2</ele>
        <time>2023-08-05T14:10:26Z</time>
      </trkpt>
      <trkpt lat="50.70495" lon="2.80732">
        <ele>67.2</ele>
        <time>2023-08-05T14:10:27Z</time>
      </trkpt>
      <trkpt lat="50.70493" lon="2.80738">
        <ele>67.2</ele>
        <time>2023-08-05T14:10:28Z</time>
      </trkpt>
      <trkpt lat="50.70491" lon="2.80744">
        <ele>67.2</ele>
        <time>2023-08-05T14:10:29Z</time>
      </trkpt>
      <trkpt lat="50.70489" lon="2.80749">
        <ele>67.2</ele>
        <time>2023-08-05T14:10:30Z</time>
      </trkpt>
      <trkpt lat="50.70483" lon="2.8076">
        <ele>67.2</ele>
        <time>2023-08-05T14:10:32Z</time>
      </trkpt>
      <trkpt lat="50.70479" lon="2.80764">
        <ele>67.2</ele>
        <time>2023-08-05T14:10:33Z</time>
      </trkpt>
      <trkpt lat="50.70442" lon="2.8079">
        <ele>67.2</ele>
        <time>2023-08-05T14:10:42Z</time>
      </trkpt>
      <trkpt lat="50.7043" lon="2.80797">
        <ele>67.2</ele>
        <time>2023-08-05T14:10:45Z</time>
      </trkpt>
      <trkpt lat="50.70425" lon="2.80798">
        <ele>67</ele>
        <time>2023-08-05T14:10:46Z</time>
      </trkpt>
      <trkpt lat="50.70421" lon="2.808">
        <ele>67</ele>
        <time>2023-08-05T14:10:47Z</time>
      </trkpt>
      <trkpt lat="50.70417" lon="2.80801">
        <ele>67</ele>
        <time>2023-08-05T14:10:48Z</time>
      </trkpt>
      <trkpt lat="50.70413" lon="2.80802">
        <ele>67</ele>
        <time>2023-08-05T14:10:49Z</time>
      </trkpt>
      <trkpt lat="50.70409" lon="2.80803">
        <ele>66.8</ele>
        <time>2023-08-05T14:10:50Z</time>
      </trkpt>
      <trkpt lat="50.70405" lon="2.80805">
        <ele>66.8</ele>
        <time>2023-08-05T14:10:51Z</time>
      </trkpt>
      <trkpt lat="50.70401" lon="2.80807">
        <ele>66.8</ele>
        <time>2023-08-05T14:10:52Z</time>
      </trkpt>
      <trkpt lat="50.70389" lon="2.80814">
        <ele>66.8</ele>
        <time>2023-08-05T14:10:55Z</time>
      </trkpt>
      <trkpt lat="50.70358" lon="2.80835">
        <ele>67</ele>
        <time>2023-08-05T14:11:03Z</time>
      </trkpt>
      <trkpt lat="50.70351" lon="2.8084">
        <ele>67</ele>
        <time>2023-08-05T14:11:05Z</time>
      </trkpt>
      <trkpt lat="50.70347" lon="2.80843">
        <ele>67</ele>
        <time>2023-08-05T14:11:06Z</time>
      </trkpt>
      <trkpt lat="50.70344" lon="2.80846">
        <ele>67</ele>
        <time>2023-08-05T14:11:07Z</time>
      </trkpt>
      <trkpt lat="50.7034" lon="2.80849">
        <ele>67</ele>
        <time>2023-08-05T14:11:08Z</time>
      </trkpt>
      <trkpt lat="50.70337" lon="2.80851">
        <ele>67.2</ele>
        <time>2023-08-05T14:11:09Z</time>
      </trkpt>
      <trkpt lat="50.70334" lon="2.80854">
        <ele>67.2</ele>
        <time>2023-08-05T14:11:10Z</time>
      </trkpt>
      <trkpt lat="50.70331" lon="2.80856">
        <ele>67</ele>
        <time>2023-08-05T14:11:11Z</time>
      </trkpt>
      <trkpt lat="50.70328" lon="2.80859">
        <ele>67</ele>
        <time>2023-08-05T14:11:12Z</time>
      </trkpt>
      <trkpt lat="50.70325" lon="2.80862">
        <ele>67</ele>
        <time>2023-08-05T14:11:13Z</time>
      </trkpt>
      <trkpt lat="50.70323" lon="2.80865">
        <ele>67</ele>
        <time>2023-08-05T14:11:14Z</time>
      </trkpt>
      <trkpt lat="50.70321" lon="2.80866">
        <ele>67</ele>
        <time>2023-08-05T14:11:15Z</time>
      </trkpt>
      <trkpt lat="50.70319" lon="2.80866">
        <ele>67</ele>
        <time>2023-08-05T14:11:16Z</time>
      </trkpt>
      <trkpt lat="50.70318" lon="2.80866">
        <ele>67.2</ele>
        <time>2023-08-05T14:11:17Z</time>
      </trkpt>
      <trkpt lat="50.70317" lon="2.80867">
        <ele>67.2</ele>
        <time>2023-08-05T14:11:18Z</time>
      </trkpt>
      <trkpt lat="50.70315" lon="2.80867">
        <ele>67.2</ele>
        <time>2023-08-05T14:11:19Z</time>
      </trkpt>
      <trkpt lat="50.70313" lon="2.80867">
        <ele>66.8</ele>
        <time>2023-08-05T14:11:20Z</time>
      </trkpt>
      <trkpt lat="50.7031" lon="2.80871">
        <ele>67</ele>
        <time>2023-08-05T14:11:22Z</time>
      </trkpt>
      <trkpt lat="50.70308" lon="2.80872">
        <ele>67</ele>
        <time>2023-08-05T14:11:23Z</time>
      </trkpt>
      <trkpt lat="50.70301" lon="2.80877">
        <ele>67</ele>
        <time>2023-08-05T14:11:26Z</time>
      </trkpt>
      <trkpt lat="50.70289" lon="2.80883">
        <ele>67</ele>
        <time>2023-08-05T14:11:30Z</time>
      </trkpt>
      <trkpt lat="50.70278" lon="2.80886">
        <ele>67</ele>
        <time>2023-08-05T14:11:33Z</time>
      </trkpt>
      <trkpt lat="50.70249" lon="2.8089">
        <ele>67.2</ele>
        <time>2023-08-05T14:11:41Z</time>
      </trkpt>
      <trkpt lat="50.7023" lon="2.80893">
        <ele>67.2</ele>
        <time>2023-08-05T14:11:46Z</time>
      </trkpt>
      <trkpt lat="50.70202" lon="2.80903">
        <ele>67</ele>
        <time>2023-08-05T14:11:54Z</time>
      </trkpt>
      <trkpt lat="50.70199" lon="2.80905">
        <ele>67</ele>
        <time>2023-08-05T14:11:55Z</time>
      </trkpt>
      <trkpt lat="50.70195" lon="2.80907">
        <ele>67</ele>
        <time>2023-08-05T14:11:56Z</time>
      </trkpt>
      <trkpt lat="50.70174" lon="2.80914">
        <ele>67</ele>
        <time>2023-08-05T14:12:02Z</time>
      </trkpt>
      <trkpt lat="50.70142" lon="2.80925">
        <ele>67</ele>
        <time>2023-08-05T14:12:11Z</time>
      </trkpt>
      <trkpt lat="50.70107" lon="2.80936">
        <ele>67.2</ele>
        <time>2023-08-05T14:12:20Z</time>
      </trkpt>
      <trkpt lat="50.70086" lon="2.80946">
        <ele>67.2</ele>
        <time>2023-08-05T14:12:26Z</time>
      </trkpt>
      <trkpt lat="50.70083" lon="2.80947">
        <ele>67.2</ele>
        <time>2023-08-05T14:12:27Z</time>
      </trkpt>
      <trkpt lat="50.70079" lon="2.80949">
        <ele>67.2</ele>
        <time>2023-08-05T14:12:28Z</time>
      </trkpt>
      <trkpt lat="50.70076" lon="2.80951">
        <ele>67.2</ele>
        <time>2023-08-05T14:12:29Z</time>
      </trkpt>
      <trkpt lat="50.70072" lon="2.80953">
        <ele>67.2</ele>
        <time>2023-08-05T14:12:30Z</time>
      </trkpt>
      <trkpt lat="50.70057" lon="2.80959">
        <ele>67.2</ele>
        <time>2023-08-05T14:12:34Z</time>
      </trkpt>
      <trkpt lat="50.70028" lon="2.80972">
        <ele>67.2</ele>
        <time>2023-08-05T14:12:42Z</time>
      </trkpt>
      <trkpt lat="50.70002" lon="2.80986">
        <ele>67</ele>
        <time>2023-08-05T14:12:49Z</time>
      </trkpt>
      <trkpt lat="50.69988" lon="2.80992">
        <ele>67</ele>
        <time>2023-08-05T14:12:53Z</time>
      </trkpt>
      <trkpt lat="50.69985" lon="2.80994">
        <ele>67</ele>
        <time>2023-08-05T14:12:54Z</time>
      </trkpt>
      <trkpt lat="50.69981" lon="2.80996">
        <ele>67</ele>
        <time>2023-08-05T14:12:55Z</time>
      </trkpt>
      <trkpt lat="50.69967" lon="2.81003">
        <ele>67.2</ele>
        <time>2023-08-05T14:12:59Z</time>
      </trkpt>
      <trkpt lat="50.69957" lon="2.81008">
        <ele>67.4</ele>
        <time>2023-08-05T14:13:02Z</time>
      </trkpt>
      <trkpt lat="50.69954" lon="2.81011">
        <ele>67.4</ele>
        <time>2023-08-05T14:13:03Z</time>
      </trkpt>
      <trkpt lat="50.69952" lon="2.81014">
        <ele>67.4</ele>
        <time>2023-08-05T14:13:04Z</time>
      </trkpt>
      <trkpt lat="50.69951" lon="2.81017">
        <ele>67.4</ele>
        <time>2023-08-05T14:13:05Z</time>
      </trkpt>
      <trkpt lat="50.69951" lon="2.81021">
        <ele>67.4</ele>
        <time>2023-08-05T14:13:06Z</time>
      </trkpt>
      <trkpt lat="50.69951" lon="2.81025">
        <ele>67.4</ele>
        <time>2023-08-05T14:13:07Z</time>
      </trkpt>
      <trkpt lat="50.69952" lon="2.81029">
        <ele>67.2</ele>
        <time>2023-08-05T14:13:08Z</time>
      </trkpt>
      <trkpt lat="50.69955" lon="2.81033">
        <ele>67.2</ele>
        <time>2023-08-05T14:13:09Z</time>
      </trkpt>
      <trkpt lat="50.69958" lon="2.81035">
        <ele>67.2</ele>
        <time>2023-08-05T14:13:10Z</time>
      </trkpt>
      <trkpt lat="50.69968" lon="2.81042">
        <ele>67</ele>
        <time>2023-08-05T14:13:13Z</time>
      </trkpt>
      <trkpt lat="50.69972" lon="2.81044">
        <ele>67</ele>
        <time>2023-08-05T14:13:14Z</time>
      </trkpt>
      <trkpt lat="50.6998" lon="2.81049">
        <ele>66.8</ele>
        <time>2023-08-05T14:13:16Z</time>
      </trkpt>
      <trkpt lat="50.69993" lon="2.81057">
        <ele>66.8</ele>
        <time>2023-08-05T14:13:19Z</time>
      </trkpt>
      <trkpt lat="50.70012" lon="2.81068">
        <ele>66.8</ele>
        <time>2023-08-05T14:13:23Z</time>
      </trkpt>
      <trkpt lat="50.70034" lon="2.8109">
        <ele>66.8</ele>
        <time>2023-08-05T14:13:28Z</time>
      </trkpt>
      <trkpt lat="50.70038" lon="2.81097">
        <ele>66.8</ele>
        <time>2023-08-05T14:13:29Z</time>
      </trkpt>
      <trkpt lat="50.70041" lon="2.81104">
        <ele>66.8</ele>
        <time>2023-08-05T14:13:30Z</time>
      </trkpt>
      <trkpt lat="50.70052" lon="2.81141">
        <ele>66.8</ele>
        <time>2023-08-05T14:13:35Z</time>
      </trkpt>
      <trkpt lat="50.70057" lon="2.81164">
        <ele>66.8</ele>
        <time>2023-08-05T14:13:38Z</time>
      </trkpt>
      <trkpt lat="50.70064" lon="2.81203">
        <ele>67.2</ele>
        <time>2023-08-05T14:13:43Z</time>
      </trkpt>
      <trkpt lat="50.70068" lon="2.81218">
        <ele>67.2</ele>
        <time>2023-08-05T14:13:45Z</time>
      </trkpt>
      <trkpt lat="50.70079" lon="2.81282">
        <ele>67.2</ele>
        <time>2023-08-05T14:13:53Z</time>
      </trkpt>
      <trkpt lat="50.70087" lon="2.81358">
        <ele>67</ele>
        <time>2023-08-05T14:14:02Z</time>
      </trkpt>
      <trkpt lat="50.70097" lon="2.81444">
        <ele>67.2</ele>
        <time>2023-08-05T14:14:12Z</time>
      </trkpt>
      <trkpt lat="50.70108" lon="2.81511">
        <ele>67</ele>
        <time>2023-08-05T14:14:20Z</time>
      </trkpt>
      <trkpt lat="50.70111" lon="2.81528">
        <ele>67</ele>
        <time>2023-08-05T14:14:22Z</time>
      </trkpt>
      <trkpt lat="50.70115" lon="2.81553">
        <ele>67</ele>
        <time>2023-08-05T14:14:25Z</time>
      </trkpt>
      <trkpt lat="50.70117" lon="2.8157">
        <ele>67</ele>
        <time>2023-08-05T14:14:27Z</time>
      </trkpt>
      <trkpt lat="50.70123" lon="2.81594">
        <ele>67</ele>
        <time>2023-08-05T14:14:30Z</time>
      </trkpt>
      <trkpt lat="50.70128" lon="2.81623">
        <ele>67.2</ele>
        <time>2023-08-05T14:14:34Z</time>
      </trkpt>
      <trkpt lat="50.70129" lon="2.8163">
        <ele>67.2</ele>
        <time>2023-08-05T14:14:35Z</time>
      </trkpt>
      <trkpt lat="50.7013" lon="2.81636">
        <ele>67.2</ele>
        <time>2023-08-05T14:14:36Z</time>
      </trkpt>
      <trkpt lat="50.70131" lon="2.81642">
        <ele>67.4</ele>
        <time>2023-08-05T14:14:37Z</time>
      </trkpt>
      <trkpt lat="50.70133" lon="2.81647">
        <ele>67.4</ele>
        <time>2023-08-05T14:14:38Z</time>
      </trkpt>
      <trkpt lat="50.70135" lon="2.81652">
        <ele>67.6</ele>
        <time>2023-08-05T14:14:39Z</time>
      </trkpt>
      <trkpt lat="50.70138" lon="2.81656">
        <ele>67.8</ele>
        <time>2023-08-05T14:14:40Z</time>
      </trkpt>
      <trkpt lat="50.70143" lon="2.81664">
        <ele>68</ele>
        <time>2023-08-05T14:14:42Z</time>
      </trkpt>
      <trkpt lat="50.70146" lon="2.81668">
        <ele>68</ele>
        <time>2023-08-05T14:14:43Z</time>
      </trkpt>
      <trkpt lat="50.70149" lon="2.81671">
        <ele>68.2</ele>
        <time>2023-08-05T14:14:44Z</time>
      </trkpt>
      <trkpt lat="50.70152" lon="2.81674">
        <ele>68.4</ele>
        <time>2023-08-05T14:14:45Z</time>
      </trkpt>
      <trkpt lat="50.70155" lon="2.81678">
        <ele>68.6</ele>
        <time>2023-08-05T14:14:46Z</time>
      </trkpt>
      <trkpt lat="50.70158" lon="2.81682">
        <ele>68.6</ele>
        <time>2023-08-05T14:14:47Z</time>
      </trkpt>
      <trkpt lat="50.70165" lon="2.81694">
        <ele>68.8</ele>
        <time>2023-08-05T14:14:50Z</time>
      </trkpt>
      <trkpt lat="50.70164" lon="2.817">
        <ele>68.8</ele>
        <time>2023-08-05T14:14:51Z</time>
      </trkpt>
      <trkpt lat="50.70162" lon="2.81705">
        <ele>68.8</ele>
        <time>2023-08-05T14:14:52Z</time>
      </trkpt>
      <trkpt lat="50.70159" lon="2.81709">
        <ele>68.8</ele>
        <time>2023-08-05T14:14:53Z</time>
      </trkpt>
      <trkpt lat="50.70148" lon="2.81721">
        <ele>68.4</ele>
        <time>2023-08-05T14:14:56Z</time>
      </trkpt>
      <trkpt lat="50.70145" lon="2.81725">
        <ele>68.4</ele>
        <time>2023-08-05T14:14:57Z</time>
      </trkpt>
      <trkpt lat="50.70138" lon="2.81735">
        <ele>68.2</ele>
        <time>2023-08-05T14:14:59Z</time>
      </trkpt>
      <trkpt lat="50.70135" lon="2.81741">
        <ele>68.2</ele>
        <time>2023-08-05T14:15:00Z</time>
      </trkpt>
      <trkpt lat="50.70126" lon="2.81762">
        <ele>68</ele>
        <time>2023-08-05T14:15:04Z</time>
      </trkpt>
      <trkpt lat="50.70125" lon="2.81767">
        <ele>68</ele>
        <time>2023-08-05T14:15:05Z</time>
      </trkpt>
      <trkpt lat="50.70123" lon="2.81773">
        <ele>68</ele>
        <time>2023-08-05T14:15:06Z</time>
      </trkpt>
      <trkpt lat="50.70108" lon="2.81811">
        <ele>67.6</ele>
        <time>2023-08-05T14:15:12Z</time>
      </trkpt>
      <trkpt lat="50.70095" lon="2.81845">
        <ele>67.6</ele>
        <time>2023-08-05T14:15:17Z</time>
      </trkpt>
      <trkpt lat="50.7009" lon="2.81859">
        <ele>67.6</ele>
        <time>2023-08-05T14:15:19Z</time>
      </trkpt>
      <trkpt lat="50.70088" lon="2.81865">
        <ele>67.6</ele>
        <time>2023-08-05T14:15:20Z</time>
      </trkpt>
      <trkpt lat="50.70086" lon="2.81871">
        <ele>67.8</ele>
        <time>2023-08-05T14:15:21Z</time>
      </trkpt>
      <trkpt lat="50.70084" lon="2.81876">
        <ele>67.8</ele>
        <time>2023-08-05T14:15:22Z</time>
      </trkpt>
      <trkpt lat="50.70081" lon="2.81881">
        <ele>68</ele>
        <time>2023-08-05T14:15:23Z</time>
      </trkpt>
      <trkpt lat="50.70075" lon="2.81891">
        <ele>67.8</ele>
        <time>2023-08-05T14:15:25Z</time>
      </trkpt>
      <trkpt lat="50.70073" lon="2.81897">
        <ele>68</ele>
        <time>2023-08-05T14:15:26Z</time>
      </trkpt>
      <trkpt lat="50.70071" lon="2.81903">
        <ele>68</ele>
        <time>2023-08-05T14:15:27Z</time>
      </trkpt>
      <trkpt lat="50.70069" lon="2.81909">
        <ele>68</ele>
        <time>2023-08-05T14:15:28Z</time>
      </trkpt>
      <trkpt lat="50.70067" lon="2.81914">
        <ele>68.2</ele>
        <time>2023-08-05T14:15:29Z</time>
      </trkpt>
      <trkpt lat="50.70065" lon="2.81921">
        <ele>68.2</ele>
        <time>2023-08-05T14:15:30Z</time>
      </trkpt>
      <trkpt lat="50.70063" lon="2.81928">
        <ele>68.2</ele>
        <time>2023-08-05T14:15:31Z</time>
      </trkpt>
      <trkpt lat="50.70061" lon="2.81935">
        <ele>68.2</ele>
        <time>2023-08-05T14:15:32Z</time>
      </trkpt>
      <trkpt lat="50.70044" lon="2.81975">
        <ele>68</ele>
        <time>2023-08-05T14:15:39Z</time>
      </trkpt>
      <trkpt lat="50.70034" lon="2.82003">
        <ele>68</ele>
        <time>2023-08-05T14:15:44Z</time>
      </trkpt>
      <trkpt lat="50.70032" lon="2.82008">
        <ele>68</ele>
        <time>2023-08-05T14:15:45Z</time>
      </trkpt>
      <trkpt lat="50.7003" lon="2.82014">
        <ele>68</ele>
        <time>2023-08-05T14:15:46Z</time>
      </trkpt>
      <trkpt lat="50.70028" lon="2.82019">
        <ele>68</ele>
        <time>2023-08-05T14:15:47Z</time>
      </trkpt>
      <trkpt lat="50.70025" lon="2.82025">
        <ele>68</ele>
        <time>2023-08-05T14:15:48Z</time>
      </trkpt>
      <trkpt lat="50.70008" lon="2.8207">
        <ele>68.4</ele>
        <time>2023-08-05T14:15:56Z</time>
      </trkpt>
      <trkpt lat="50.70005" lon="2.82075">
        <ele>68.4</ele>
        <time>2023-08-05T14:15:57Z</time>
      </trkpt>
      <trkpt lat="50.69997" lon="2.82098">
        <ele>68.2</ele>
        <time>2023-08-05T14:16:01Z</time>
      </trkpt>
      <trkpt lat="50.6999" lon="2.82115">
        <ele>68.2</ele>
        <time>2023-08-05T14:16:04Z</time>
      </trkpt>
      <trkpt lat="50.69981" lon="2.82139">
        <ele>68.2</ele>
        <time>2023-08-05T14:16:08Z</time>
      </trkpt>
      <trkpt lat="50.69968" lon="2.82173">
        <ele>68.2</ele>
        <time>2023-08-05T14:16:14Z</time>
      </trkpt>
      <trkpt lat="50.6996" lon="2.82191">
        <ele>68.2</ele>
        <time>2023-08-05T14:16:17Z</time>
      </trkpt>
      <trkpt lat="50.69941" lon="2.82241">
        <ele>68.4</ele>
        <time>2023-08-05T14:16:25Z</time>
      </trkpt>
      <trkpt lat="50.69919" lon="2.82299">
        <ele>68.2</ele>
        <time>2023-08-05T14:16:34Z</time>
      </trkpt>
      <trkpt lat="50.69907" lon="2.82329">
        <ele>68.4</ele>
        <time>2023-08-05T14:16:39Z</time>
      </trkpt>
      <trkpt lat="50.69904" lon="2.82335">
        <ele>68.4</ele>
        <time>2023-08-05T14:16:40Z</time>
      </trkpt>
      <trkpt lat="50.69895" lon="2.8236">
        <ele>68.4</ele>
        <time>2023-08-05T14:16:44Z</time>
      </trkpt>
      <trkpt lat="50.69892" lon="2.82366">
        <ele>68.4</ele>
        <time>2023-08-05T14:16:45Z</time>
      </trkpt>
      <trkpt lat="50.69877" lon="2.82403">
        <ele>68.2</ele>
        <time>2023-08-05T14:16:51Z</time>
      </trkpt>
      <trkpt lat="50.69875" lon="2.82409">
        <ele>68.2</ele>
        <time>2023-08-05T14:16:52Z</time>
      </trkpt>
      <trkpt lat="50.69867" lon="2.82428">
        <ele>68.2</ele>
        <time>2023-08-05T14:16:55Z</time>
      </trkpt>
      <trkpt lat="50.69843" lon="2.82491">
        <ele>68</ele>
        <time>2023-08-05T14:17:05Z</time>
      </trkpt>
      <trkpt lat="50.69835" lon="2.8251">
        <ele>68.2</ele>
        <time>2023-08-05T14:17:08Z</time>
      </trkpt>
      <trkpt lat="50.69822" lon="2.82542">
        <ele>68.2</ele>
        <time>2023-08-05T14:17:13Z</time>
      </trkpt>
      <trkpt lat="50.6982" lon="2.82548">
        <ele>68.2</ele>
        <time>2023-08-05T14:17:14Z</time>
      </trkpt>
      <trkpt lat="50.69795" lon="2.82614">
        <ele>68</ele>
        <time>2023-08-05T14:17:24Z</time>
      </trkpt>
      <trkpt lat="50.69779" lon="2.82657">
        <ele>68</ele>
        <time>2023-08-05T14:17:31Z</time>
      </trkpt>
      <trkpt lat="50.69774" lon="2.82669">
        <ele>68.2</ele>
        <time>2023-08-05T14:17:33Z</time>
      </trkpt>
      <trkpt lat="50.69772" lon="2.82674">
        <ele>68.4</ele>
        <time>2023-08-05T14:17:34Z</time>
      </trkpt>
      <trkpt lat="50.6977" lon="2.8268">
        <ele>68.4</ele>
        <time>2023-08-05T14:17:35Z</time>
      </trkpt>
      <trkpt lat="50.69768" lon="2.82686">
        <ele>68.2</ele>
        <time>2023-08-05T14:17:36Z</time>
      </trkpt>
      <trkpt lat="50.69765" lon="2.82692">
        <ele>68.2</ele>
        <time>2023-08-05T14:17:37Z</time>
      </trkpt>
      <trkpt lat="50.69763" lon="2.82697">
        <ele>68.4</ele>
        <time>2023-08-05T14:17:38Z</time>
      </trkpt>
      <trkpt lat="50.69761" lon="2.82703">
        <ele>68.4</ele>
        <time>2023-08-05T14:17:39Z</time>
      </trkpt>
      <trkpt lat="50.69759" lon="2.82709">
        <ele>68.4</ele>
        <time>2023-08-05T14:17:40Z</time>
      </trkpt>
      <trkpt lat="50.69757" lon="2.82714">
        <ele>68.2</ele>
        <time>2023-08-05T14:17:41Z</time>
      </trkpt>
      <trkpt lat="50.69755" lon="2.82719">
        <ele>68</ele>
        <time>2023-08-05T14:17:42Z</time>
      </trkpt>
      <trkpt lat="50.69753" lon="2.82724">
        <ele>68</ele>
        <time>2023-08-05T14:17:43Z</time>
      </trkpt>
      <trkpt lat="50.69751" lon="2.82729">
        <ele>68</ele>
        <time>2023-08-05T14:17:44Z</time>
      </trkpt>
      <trkpt lat="50.69749" lon="2.82734">
        <ele>68</ele>
        <time>2023-08-05T14:17:45Z</time>
      </trkpt>
      <trkpt lat="50.69747" lon="2.8274">
        <ele>68</ele>
        <time>2023-08-05T14:17:46Z</time>
      </trkpt>
      <trkpt lat="50.69745" lon="2.82746">
        <ele>68</ele>
        <time>2023-08-05T14:17:47Z</time>
      </trkpt>
      <trkpt lat="50.69723" lon="2.82801">
        <ele>68.2</ele>
        <time>2023-08-05T14:17:56Z</time>
      </trkpt>
      <trkpt lat="50.69712" lon="2.8283">
        <ele>68.2</ele>
        <time>2023-08-05T14:18:01Z</time>
      </trkpt>
      <trkpt lat="50.69707" lon="2.82842">
        <ele>68</ele>
        <time>2023-08-05T14:18:03Z</time>
      </trkpt>
      <trkpt lat="50.69705" lon="2.82847">
        <ele>68</ele>
        <time>2023-08-05T14:18:04Z</time>
      </trkpt>
      <trkpt lat="50.69704" lon="2.82851">
        <ele>68</ele>
        <time>2023-08-05T14:18:05Z</time>
      </trkpt>
      <trkpt lat="50.69702" lon="2.82855">
        <ele>68</ele>
        <time>2023-08-05T14:18:06Z</time>
      </trkpt>
      <trkpt lat="50.697" lon="2.82859">
        <ele>68</ele>
        <time>2023-08-05T14:18:07Z</time>
      </trkpt>
      <trkpt lat="50.69697" lon="2.82861">
        <ele>68.2</ele>
        <time>2023-08-05T14:18:08Z</time>
      </trkpt>
      <trkpt lat="50.69695" lon="2.8286">
        <ele>68.2</ele>
        <time>2023-08-05T14:18:09Z</time>
      </trkpt>
      <trkpt lat="50.69693" lon="2.82857">
        <ele>68.2</ele>
        <time>2023-08-05T14:18:10Z</time>
      </trkpt>
      <trkpt lat="50.69692" lon="2.82854">
        <ele>68.4</ele>
        <time>2023-08-05T14:18:11Z</time>
      </trkpt>
      <trkpt lat="50.6969" lon="2.82851">
        <ele>68.4</ele>
        <time>2023-08-05T14:18:12Z</time>
      </trkpt>
      <trkpt lat="50.69689" lon="2.82847">
        <ele>68.4</ele>
        <time>2023-08-05T14:18:13Z</time>
      </trkpt>
      <trkpt lat="50.69687" lon="2.82844">
        <ele>68.4</ele>
        <time>2023-08-05T14:18:14Z</time>
      </trkpt>
      <trkpt lat="50.69685" lon="2.82841">
        <ele>68.4</ele>
        <time>2023-08-05T14:18:15Z</time>
      </trkpt>
      <trkpt lat="50.69681" lon="2.8284">
        <ele>68.4</ele>
        <time>2023-08-05T14:18:16Z</time>
      </trkpt>
      <trkpt lat="50.69678" lon="2.82841">
        <ele>68.4</ele>
        <time>2023-08-05T14:18:17Z</time>
      </trkpt>
      <trkpt lat="50.69675" lon="2.82843">
        <ele>68.6</ele>
        <time>2023-08-05T14:18:18Z</time>
      </trkpt>
      <trkpt lat="50.69671" lon="2.82852">
        <ele>68.4</ele>
        <time>2023-08-05T14:18:20Z</time>
      </trkpt>
      <trkpt lat="50.69669" lon="2.82857">
        <ele>68.4</ele>
        <time>2023-08-05T14:18:21Z</time>
      </trkpt>
      <trkpt lat="50.69667" lon="2.82862">
        <ele>68.4</ele>
        <time>2023-08-05T14:18:22Z</time>
      </trkpt>
      <trkpt lat="50.69665" lon="2.82867">
        <ele>68.4</ele>
        <time>2023-08-05T14:18:23Z</time>
      </trkpt>
      <trkpt lat="50.69653" lon="2.82898">
        <ele>68</ele>
        <time>2023-08-05T14:18:29Z</time>
      </trkpt>
      <trkpt lat="50.69639" lon="2.82939">
        <ele>67.8</ele>
        <time>2023-08-05T14:18:37Z</time>
      </trkpt>
      <trkpt lat="50.69619" lon="2.82992">
        <ele>67.6</ele>
        <time>2023-08-05T14:18:47Z</time>
      </trkpt>
      <trkpt lat="50.69597" lon="2.83052">
        <ele>68.4</ele>
        <time>2023-08-05T14:18:58Z</time>
      </trkpt>
      <trkpt lat="50.69589" lon="2.83072">
        <ele>68.4</ele>
        <time>2023-08-05T14:19:02Z</time>
      </trkpt>
      <trkpt lat="50.69587" lon="2.83076">
        <ele>68.4</ele>
        <time>2023-08-05T14:19:03Z</time>
      </trkpt>
      <trkpt lat="50.69585" lon="2.83081">
        <ele>68.4</ele>
        <time>2023-08-05T14:19:04Z</time>
      </trkpt>
      <trkpt lat="50.69583" lon="2.83085">
        <ele>68.4</ele>
        <time>2023-08-05T14:19:05Z</time>
      </trkpt>
      <trkpt lat="50.69582" lon="2.83091">
        <ele>68.4</ele>
        <time>2023-08-05T14:19:06Z</time>
      </trkpt>
      <trkpt lat="50.6958" lon="2.83096">
        <ele>68.4</ele>
        <time>2023-08-05T14:19:07Z</time>
      </trkpt>
      <trkpt lat="50.69578" lon="2.83101">
        <ele>68.6</ele>
        <time>2023-08-05T14:19:08Z</time>
      </trkpt>
      <trkpt lat="50.69576" lon="2.83106">
        <ele>68.4</ele>
        <time>2023-08-05T14:19:09Z</time>
      </trkpt>
      <trkpt lat="50.69574" lon="2.8311">
        <ele>68.4</ele>
        <time>2023-08-05T14:19:10Z</time>
      </trkpt>
      <trkpt lat="50.69573" lon="2.83115">
        <ele>68.4</ele>
        <time>2023-08-05T14:19:11Z</time>
      </trkpt>
      <trkpt lat="50.69572" lon="2.8312">
        <ele>68.6</ele>
        <time>2023-08-05T14:19:12Z</time>
      </trkpt>
      <trkpt lat="50.6957" lon="2.83125">
        <ele>68.6</ele>
        <time>2023-08-05T14:19:13Z</time>
      </trkpt>
      <trkpt lat="50.69569" lon="2.8313">
        <ele>68.4</ele>
        <time>2023-08-05T14:19:14Z</time>
      </trkpt>
      <trkpt lat="50.69567" lon="2.83135">
        <ele>68.4</ele>
        <time>2023-08-05T14:19:15Z</time>
      </trkpt>
      <trkpt lat="50.69554" lon="2.83169">
        <ele>68.8</ele>
        <time>2023-08-05T14:19:22Z</time>
      </trkpt>
      <trkpt lat="50.69548" lon="2.83181">
        <ele>68.6</ele>
        <time>2023-08-05T14:19:25Z</time>
      </trkpt>
      <trkpt lat="50.69546" lon="2.83186">
        <ele>68.6</ele>
        <time>2023-08-05T14:19:26Z</time>
      </trkpt>
      <trkpt lat="50.69544" lon="2.8319">
        <ele>68.6</ele>
        <time>2023-08-05T14:19:27Z</time>
      </trkpt>
      <trkpt lat="50.69543" lon="2.83195">
        <ele>68.6</ele>
        <time>2023-08-05T14:19:28Z</time>
      </trkpt>
      <trkpt lat="50.69541" lon="2.832">
        <ele>68</ele>
        <time>2023-08-05T14:19:29Z</time>
      </trkpt>
      <trkpt lat="50.69539" lon="2.83204">
        <ele>68</ele>
        <time>2023-08-05T14:19:30Z</time>
      </trkpt>
      <trkpt lat="50.69533" lon="2.83219">
        <ele>67.6</ele>
        <time>2023-08-05T14:19:33Z</time>
      </trkpt>
      <trkpt lat="50.69522" lon="2.83246">
        <ele>67.6</ele>
        <time>2023-08-05T14:19:38Z</time>
      </trkpt>
      <trkpt lat="50.69509" lon="2.83283">
        <ele>67.6</ele>
        <time>2023-08-05T14:19:45Z</time>
      </trkpt>
      <trkpt lat="50.69505" lon="2.83292">
        <ele>67.4</ele>
        <time>2023-08-05T14:19:47Z</time>
      </trkpt>
      <trkpt lat="50.69503" lon="2.83297">
        <ele>67.4</ele>
        <time>2023-08-05T14:19:48Z</time>
      </trkpt>
      <trkpt lat="50.69501" lon="2.83302">
        <ele>67.4</ele>
        <time>2023-08-05T14:19:49Z</time>
      </trkpt>
      <trkpt lat="50.69493" lon="2.83323">
        <ele>67.6</ele>
        <time>2023-08-05T14:19:53Z</time>
      </trkpt>
      <trkpt lat="50.69489" lon="2.83333">
        <ele>67.6</ele>
        <time>2023-08-05T14:19:55Z</time>
      </trkpt>
      <trkpt lat="50.69476" lon="2.83369">
        <ele>67.6</ele>
        <time>2023-08-05T14:20:02Z</time>
      </trkpt>
      <trkpt lat="50.69474" lon="2.83374">
        <ele>67.6</ele>
        <time>2023-08-05T14:20:03Z</time>
      </trkpt>
      <trkpt lat="50.6947" lon="2.83383">
        <ele>67.6</ele>
        <time>2023-08-05T14:20:05Z</time>
      </trkpt>
      <trkpt lat="50.69459" lon="2.83412">
        <ele>67</ele>
        <time>2023-08-05T14:20:11Z</time>
      </trkpt>
      <trkpt lat="50.69442" lon="2.83457">
        <ele>67</ele>
        <time>2023-08-05T14:20:20Z</time>
      </trkpt>
      <trkpt lat="50.6944" lon="2.83462">
        <ele>67</ele>
        <time>2023-08-05T14:20:21Z</time>
      </trkpt>
      <trkpt lat="50.69434" lon="2.83477">
        <ele>67</ele>
        <time>2023-08-05T14:20:24Z</time>
      </trkpt>
      <trkpt lat="50.69425" lon="2.83501">
        <ele>67</ele>
        <time>2023-08-05T14:20:29Z</time>
      </trkpt>
      <trkpt lat="50.69423" lon="2.83506">
        <ele>67</ele>
        <time>2023-08-05T14:20:30Z</time>
      </trkpt>
      <trkpt lat="50.69421" lon="2.8351">
        <ele>67</ele>
        <time>2023-08-05T14:20:31Z</time>
      </trkpt>
      <trkpt lat="50.6942" lon="2.83515">
        <ele>67</ele>
        <time>2023-08-05T14:20:32Z</time>
      </trkpt>
      <trkpt lat="50.69418" lon="2.83519">
        <ele>66.8</ele>
        <time>2023-08-05T14:20:33Z</time>
      </trkpt>
      <trkpt lat="50.69416" lon="2.83523">
        <ele>66.8</ele>
        <time>2023-08-05T14:20:34Z</time>
      </trkpt>
      <trkpt lat="50.69415" lon="2.83528">
        <ele>66.8</ele>
        <time>2023-08-05T14:20:35Z</time>
      </trkpt>
      <trkpt lat="50.69413" lon="2.83532">
        <ele>66.8</ele>
        <time>2023-08-05T14:20:36Z</time>
      </trkpt>
      <trkpt lat="50.69411" lon="2.83537">
        <ele>66.8</ele>
        <time>2023-08-05T14:20:37Z</time>
      </trkpt>
      <trkpt lat="50.69409" lon="2.83541">
        <ele>66.8</ele>
        <time>2023-08-05T14:20:38Z</time>
      </trkpt>
      <trkpt lat="50.69407" lon="2.83545">
        <ele>66.8</ele>
        <time>2023-08-05T14:20:39Z</time>
      </trkpt>
      <trkpt lat="50.69405" lon="2.8355">
        <ele>67.2</ele>
        <time>2023-08-05T14:20:40Z</time>
      </trkpt>
      <trkpt lat="50.69404" lon="2.83554">
        <ele>67.2</ele>
        <time>2023-08-05T14:20:41Z</time>
      </trkpt>
      <trkpt lat="50.69399" lon="2.83566">
        <ele>66.8</ele>
        <time>2023-08-05T14:20:44Z</time>
      </trkpt>
      <trkpt lat="50.69397" lon="2.83571">
        <ele>67</ele>
        <time>2023-08-05T14:20:45Z</time>
      </trkpt>
      <trkpt lat="50.69395" lon="2.83575">
        <ele>66.8</ele>
        <time>2023-08-05T14:20:46Z</time>
      </trkpt>
      <trkpt lat="50.69394" lon="2.83579">
        <ele>66.8</ele>
        <time>2023-08-05T14:20:47Z</time>
      </trkpt>
      <trkpt lat="50.69393" lon="2.83583">
        <ele>66.8</ele>
        <time>2023-08-05T14:20:48Z</time>
      </trkpt>
      <trkpt lat="50.69387" lon="2.83596">
        <ele>66.8</ele>
        <time>2023-08-05T14:20:51Z</time>
      </trkpt>
      <trkpt lat="50.69378" lon="2.83618">
        <ele>66.8</ele>
        <time>2023-08-05T14:20:56Z</time>
      </trkpt>
      <trkpt lat="50.69368" lon="2.83644">
        <ele>66.8</ele>
        <time>2023-08-05T14:21:02Z</time>
      </trkpt>
      <trkpt lat="50.69366" lon="2.83648">
        <ele>67</ele>
        <time>2023-08-05T14:21:03Z</time>
      </trkpt>
      <trkpt lat="50.69364" lon="2.83653">
        <ele>67</ele>
        <time>2023-08-05T14:21:04Z</time>
      </trkpt>
      <trkpt lat="50.69363" lon="2.83657">
        <ele>66.8</ele>
        <time>2023-08-05T14:21:05Z</time>
      </trkpt>
      <trkpt lat="50.69361" lon="2.83661">
        <ele>66.8</ele>
        <time>2023-08-05T14:21:06Z</time>
      </trkpt>
      <trkpt lat="50.69355" lon="2.83679">
        <ele>66.8</ele>
        <time>2023-08-05T14:21:10Z</time>
      </trkpt>
      <trkpt lat="50.69343" lon="2.83711">
        <ele>67</ele>
        <time>2023-08-05T14:21:17Z</time>
      </trkpt>
      <trkpt lat="50.69336" lon="2.83729">
        <ele>66.8</ele>
        <time>2023-08-05T14:21:21Z</time>
      </trkpt>
      <trkpt lat="50.69325" lon="2.83757">
        <ele>66.4</ele>
        <time>2023-08-05T14:21:27Z</time>
      </trkpt>
      <trkpt lat="50.69322" lon="2.83765">
        <ele>66.4</ele>
        <time>2023-08-05T14:21:29Z</time>
      </trkpt>
      <trkpt lat="50.6932" lon="2.83768">
        <ele>66.4</ele>
        <time>2023-08-05T14:21:30Z</time>
      </trkpt>
      <trkpt lat="50.69318" lon="2.83772">
        <ele>66.2</ele>
        <time>2023-08-05T14:21:31Z</time>
      </trkpt>
      <trkpt lat="50.69315" lon="2.83776">
        <ele>66.2</ele>
        <time>2023-08-05T14:21:32Z</time>
      </trkpt>
      <trkpt lat="50.69313" lon="2.8378">
        <ele>66.2</ele>
        <time>2023-08-05T14:21:33Z</time>
      </trkpt>
      <trkpt lat="50.69304" lon="2.83796">
        <ele>66.2</ele>
        <time>2023-08-05T14:21:37Z</time>
      </trkpt>
      <trkpt lat="50.69288" lon="2.83823">
        <ele>65.6</ele>
        <time>2023-08-05T14:21:44Z</time>
      </trkpt>
      <trkpt lat="50.69286" lon="2.83827">
        <ele>65.6</ele>
        <time>2023-08-05T14:21:45Z</time>
      </trkpt>
      <trkpt lat="50.69284" lon="2.83831">
        <ele>65.4</ele>
        <time>2023-08-05T14:21:46Z</time>
      </trkpt>
      <trkpt lat="50.69281" lon="2.83835">
        <ele>65.4</ele>
        <time>2023-08-05T14:21:47Z</time>
      </trkpt>
      <trkpt lat="50.69279" lon="2.83838">
        <ele>65.4</ele>
        <time>2023-08-05T14:21:48Z</time>
      </trkpt>
      <trkpt lat="50.69256" lon="2.83851">
        <ele>65</ele>
        <time>2023-08-05T14:21:55Z</time>
      </trkpt>
      <trkpt lat="50.69238" lon="2.83863">
        <ele>65</ele>
        <time>2023-08-05T14:22:01Z</time>
      </trkpt>
      <trkpt lat="50.69236" lon="2.83867">
        <ele>65</ele>
        <time>2023-08-05T14:22:02Z</time>
      </trkpt>
      <trkpt lat="50.69233" lon="2.8387">
        <ele>65</ele>
        <time>2023-08-05T14:22:03Z</time>
      </trkpt>
      <trkpt lat="50.6923" lon="2.83874">
        <ele>65</ele>
        <time>2023-08-05T14:22:04Z</time>
      </trkpt>
      <trkpt lat="50.69228" lon="2.83877">
        <ele>65</ele>
        <time>2023-08-05T14:22:05Z</time>
      </trkpt>
      <trkpt lat="50.69226" lon="2.8388">
        <ele>65</ele>
        <time>2023-08-05T14:22:06Z</time>
      </trkpt>
      <trkpt lat="50.69208" lon="2.83903">
        <ele>65.4</ele>
        <time>2023-08-05T14:22:13Z</time>
      </trkpt>
      <trkpt lat="50.69206" lon="2.83907">
        <ele>65.6</ele>
        <time>2023-08-05T14:22:14Z</time>
      </trkpt>
      <trkpt lat="50.69203" lon="2.8391">
        <ele>65.6</ele>
        <time>2023-08-05T14:22:15Z</time>
      </trkpt>
      <trkpt lat="50.69201" lon="2.83913">
        <ele>65.6</ele>
        <time>2023-08-05T14:22:16Z</time>
      </trkpt>
      <trkpt lat="50.69197" lon="2.8392">
        <ele>66</ele>
        <time>2023-08-05T14:22:18Z</time>
      </trkpt>
      <trkpt lat="50.69194" lon="2.83923">
        <ele>66.2</ele>
        <time>2023-08-05T14:22:19Z</time>
      </trkpt>
      <trkpt lat="50.69192" lon="2.83927">
        <ele>66.2</ele>
        <time>2023-08-05T14:22:20Z</time>
      </trkpt>
      <trkpt lat="50.6919" lon="2.83931">
        <ele>66.2</ele>
        <time>2023-08-05T14:22:21Z</time>
      </trkpt>
      <trkpt lat="50.69188" lon="2.83934">
        <ele>66.2</ele>
        <time>2023-08-05T14:22:22Z</time>
      </trkpt>
      <trkpt lat="50.69183" lon="2.83941">
        <ele>66.2</ele>
        <time>2023-08-05T14:22:24Z</time>
      </trkpt>
      <trkpt lat="50.69164" lon="2.83968">
        <ele>66.4</ele>
        <time>2023-08-05T14:22:32Z</time>
      </trkpt>
      <trkpt lat="50.69144" lon="2.83988">
        <ele>66.8</ele>
        <time>2023-08-05T14:22:39Z</time>
      </trkpt>
      <trkpt lat="50.69134" lon="2.8399">
        <ele>66.8</ele>
        <time>2023-08-05T14:22:42Z</time>
      </trkpt>
      <trkpt lat="50.6912" lon="2.83988">
        <ele>67</ele>
        <time>2023-08-05T14:22:46Z</time>
      </trkpt>
      <trkpt lat="50.6909" lon="2.83976">
        <ele>67.4</ele>
        <time>2023-08-05T14:22:54Z</time>
      </trkpt>
      <trkpt lat="50.69056" lon="2.83966">
        <ele>66.8</ele>
        <time>2023-08-05T14:23:03Z</time>
      </trkpt>
      <trkpt lat="50.69022" lon="2.83952">
        <ele>66.6</ele>
        <time>2023-08-05T14:23:11Z</time>
      </trkpt>
      <trkpt lat="50.69005" lon="2.83945">
        <ele>66.6</ele>
        <time>2023-08-05T14:23:15Z</time>
      </trkpt>
      <trkpt lat="50.68996" lon="2.83948">
        <ele>66.6</ele>
        <time>2023-08-05T14:23:17Z</time>
      </trkpt>
      <trkpt lat="50.68993" lon="2.83951">
        <ele>66.6</ele>
        <time>2023-08-05T14:23:18Z</time>
      </trkpt>
      <trkpt lat="50.68989" lon="2.83955">
        <ele>66.6</ele>
        <time>2023-08-05T14:23:19Z</time>
      </trkpt>
      <trkpt lat="50.68986" lon="2.83959">
        <ele>66.6</ele>
        <time>2023-08-05T14:23:20Z</time>
      </trkpt>
      <trkpt lat="50.68982" lon="2.83964">
        <ele>66.6</ele>
        <time>2023-08-05T14:23:21Z</time>
      </trkpt>
      <trkpt lat="50.68979" lon="2.83968">
        <ele>66.6</ele>
        <time>2023-08-05T14:23:22Z</time>
      </trkpt>
      <trkpt lat="50.68974" lon="2.83976">
        <ele>66.4</ele>
        <time>2023-08-05T14:23:24Z</time>
      </trkpt>
      <trkpt lat="50.68966" lon="2.83987">
        <ele>66.4</ele>
        <time>2023-08-05T14:23:27Z</time>
      </trkpt>
      <trkpt lat="50.68963" lon="2.83991">
        <ele>66.4</ele>
        <time>2023-08-05T14:23:28Z</time>
      </trkpt>
      <trkpt lat="50.68961" lon="2.83995">
        <ele>66.4</ele>
        <time>2023-08-05T14:23:29Z</time>
      </trkpt>
      <trkpt lat="50.68958" lon="2.83999">
        <ele>66.4</ele>
        <time>2023-08-05T14:23:30Z</time>
      </trkpt>
      <trkpt lat="50.68955" lon="2.84002">
        <ele>66.4</ele>
        <time>2023-08-05T14:23:31Z</time>
      </trkpt>
      <trkpt lat="50.68952" lon="2.84006">
        <ele>66.4</ele>
        <time>2023-08-05T14:23:32Z</time>
      </trkpt>
      <trkpt lat="50.6895" lon="2.8401">
        <ele>66.4</ele>
        <time>2023-08-05T14:23:33Z</time>
      </trkpt>
      <trkpt lat="50.68947" lon="2.84013">
        <ele>66.4</ele>
        <time>2023-08-05T14:23:34Z</time>
      </trkpt>
      <trkpt lat="50.68944" lon="2.84016">
        <ele>66.4</ele>
        <time>2023-08-05T14:23:35Z</time>
      </trkpt>
      <trkpt lat="50.68941" lon="2.8402">
        <ele>66.4</ele>
        <time>2023-08-05T14:23:36Z</time>
      </trkpt>
      <trkpt lat="50.68932" lon="2.84032">
        <ele>66.6</ele>
        <time>2023-08-05T14:23:39Z</time>
      </trkpt>
      <trkpt lat="50.68909" lon="2.8406">
        <ele>66.6</ele>
        <time>2023-08-05T14:23:47Z</time>
      </trkpt>
      <trkpt lat="50.68906" lon="2.84062">
        <ele>66.6</ele>
        <time>2023-08-05T14:23:48Z</time>
      </trkpt>
      <trkpt lat="50.68903" lon="2.84063">
        <ele>66.6</ele>
        <time>2023-08-05T14:23:49Z</time>
      </trkpt>
      <trkpt lat="50.689" lon="2.84062">
        <ele>66.6</ele>
        <time>2023-08-05T14:23:50Z</time>
      </trkpt>
      <trkpt lat="50.68897" lon="2.84059">
        <ele>66.6</ele>
        <time>2023-08-05T14:23:51Z</time>
      </trkpt>
      <trkpt lat="50.68895" lon="2.84055">
        <ele>66.6</ele>
        <time>2023-08-05T14:23:52Z</time>
      </trkpt>
      <trkpt lat="50.6889" lon="2.8404">
        <ele>66.8</ele>
        <time>2023-08-05T14:23:55Z</time>
      </trkpt>
      <trkpt lat="50.68888" lon="2.84035">
        <ele>66.8</ele>
        <time>2023-08-05T14:23:56Z</time>
      </trkpt>
      <trkpt lat="50.68876" lon="2.84">
        <ele>67.4</ele>
        <time>2023-08-05T14:24:02Z</time>
      </trkpt>
      <trkpt lat="50.68863" lon="2.83963">
        <ele>67.6</ele>
        <time>2023-08-05T14:24:09Z</time>
      </trkpt>
      <trkpt lat="50.68862" lon="2.83962">
        <ele>67.8</ele>
        <time>2023-08-05T14:24:10Z</time>
      </trkpt>
      <trkpt lat="50.68862" lon="2.83961">
        <ele>67.8</ele>
        <time>2023-08-05T14:24:11Z</time>
      </trkpt>
      <trkpt lat="50.68862" lon="2.8396">
        <ele>67.8</ele>
        <time>2023-08-05T14:24:12Z</time>
      </trkpt>
      <trkpt lat="50.68861" lon="2.83958">
        <ele>67.8</ele>
        <time>2023-08-05T14:24:13Z</time>
      </trkpt>
      <trkpt lat="50.6886" lon="2.83955">
        <ele>67.8</ele>
        <time>2023-08-05T14:24:14Z</time>
      </trkpt>
      <trkpt lat="50.68855" lon="2.83941">
        <ele>67.8</ele>
        <time>2023-08-05T14:24:17Z</time>
      </trkpt>
      <trkpt lat="50.68842" lon="2.839">
        <ele>67.8</ele>
        <time>2023-08-05T14:24:23Z</time>
      </trkpt>
      <trkpt lat="50.68818" lon="2.8383">
        <ele>68</ele>
        <time>2023-08-05T14:24:33Z</time>
      </trkpt>
      <trkpt lat="50.68801" lon="2.83764">
        <ele>68</ele>
        <time>2023-08-05T14:24:42Z</time>
      </trkpt>
      <trkpt lat="50.68798" lon="2.8375">
        <ele>67.8</ele>
        <time>2023-08-05T14:24:44Z</time>
      </trkpt>
      <trkpt lat="50.68796" lon="2.83743">
        <ele>67.8</ele>
        <time>2023-08-05T14:24:45Z</time>
      </trkpt>
      <trkpt lat="50.68795" lon="2.83736">
        <ele>67.8</ele>
        <time>2023-08-05T14:24:46Z</time>
      </trkpt>
      <trkpt lat="50.68794" lon="2.83729">
        <ele>67.6</ele>
        <time>2023-08-05T14:24:47Z</time>
      </trkpt>
      <trkpt lat="50.68792" lon="2.83722">
        <ele>67.6</ele>
        <time>2023-08-05T14:24:48Z</time>
      </trkpt>
      <trkpt lat="50.68791" lon="2.83715">
        <ele>67.6</ele>
        <time>2023-08-05T14:24:49Z</time>
      </trkpt>
      <trkpt lat="50.68788" lon="2.837">
        <ele>67.6</ele>
        <time>2023-08-05T14:24:51Z</time>
      </trkpt>
      <trkpt lat="50.68774" lon="2.83635">
        <ele>67.6</ele>
        <time>2023-08-05T14:25:00Z</time>
      </trkpt>
      <trkpt lat="50.68768" lon="2.83598">
        <ele>67.8</ele>
        <time>2023-08-05T14:25:05Z</time>
      </trkpt>
      <trkpt lat="50.68767" lon="2.83591">
        <ele>67.8</ele>
        <time>2023-08-05T14:25:06Z</time>
      </trkpt>
      <trkpt lat="50.68762" lon="2.83569">
        <ele>67.8</ele>
        <time>2023-08-05T14:25:09Z</time>
      </trkpt>
      <trkpt lat="50.68756" lon="2.83534">
        <ele>67.6</ele>
        <time>2023-08-05T14:25:14Z</time>
      </trkpt>
      <trkpt lat="50.68749" lon="2.83506">
        <ele>67.6</ele>
        <time>2023-08-05T14:25:18Z</time>
      </trkpt>
      <trkpt lat="50.68733" lon="2.83444">
        <ele>67.4</ele>
        <time>2023-08-05T14:25:27Z</time>
      </trkpt>
      <trkpt lat="50.68729" lon="2.83431">
        <ele>67.2</ele>
        <time>2023-08-05T14:25:29Z</time>
      </trkpt>
      <trkpt lat="50.68727" lon="2.83425">
        <ele>67.2</ele>
        <time>2023-08-05T14:25:30Z</time>
      </trkpt>
      <trkpt lat="50.68724" lon="2.83414">
        <ele>67.2</ele>
        <time>2023-08-05T14:25:32Z</time>
      </trkpt>
      <trkpt lat="50.68722" lon="2.83409">
        <ele>67.4</ele>
        <time>2023-08-05T14:25:33Z</time>
      </trkpt>
      <trkpt lat="50.68721" lon="2.83404">
        <ele>67.4</ele>
        <time>2023-08-05T14:25:34Z</time>
      </trkpt>
      <trkpt lat="50.68719" lon="2.834">
        <ele>67.4</ele>
        <time>2023-08-05T14:25:35Z</time>
      </trkpt>
      <trkpt lat="50.68718" lon="2.83396">
        <ele>67.6</ele>
        <time>2023-08-05T14:25:36Z</time>
      </trkpt>
      <trkpt lat="50.68717" lon="2.83392">
        <ele>67.6</ele>
        <time>2023-08-05T14:25:37Z</time>
      </trkpt>
      <trkpt lat="50.68715" lon="2.83388">
        <ele>67.6</ele>
        <time>2023-08-05T14:25:38Z</time>
      </trkpt>
      <trkpt lat="50.68715" lon="2.83385">
        <ele>67.6</ele>
        <time>2023-08-05T14:25:39Z</time>
      </trkpt>
      <trkpt lat="50.68714" lon="2.83382">
        <ele>67.6</ele>
        <time>2023-08-05T14:25:40Z</time>
      </trkpt>
      <trkpt lat="50.68712" lon="2.83379">
        <ele>67.6</ele>
        <time>2023-08-05T14:25:41Z</time>
      </trkpt>
      <trkpt lat="50.68711" lon="2.83376">
        <ele>67.6</ele>
        <time>2023-08-05T14:25:42Z</time>
      </trkpt>
      <trkpt lat="50.68709" lon="2.83375">
        <ele>67.6</ele>
        <time>2023-08-05T14:25:43Z</time>
      </trkpt>
      <trkpt lat="50.68708" lon="2.8338">
        <ele>67.6</ele>
        <time>2023-08-05T14:25:45Z</time>
      </trkpt>
      <trkpt lat="50.68709" lon="2.83384">
        <ele>67.6</ele>
        <time>2023-08-05T14:25:46Z</time>
      </trkpt>
      <trkpt lat="50.68718" lon="2.83409">
        <ele>67.6</ele>
        <time>2023-08-05T14:25:51Z</time>
      </trkpt>
      <trkpt lat="50.68726" lon="2.83433">
        <ele>67.6</ele>
        <time>2023-08-05T14:25:55Z</time>
      </trkpt>
      <trkpt lat="50.6873" lon="2.83449">
        <ele>67.6</ele>
        <time>2023-08-05T14:25:58Z</time>
      </trkpt>
      <trkpt lat="50.6873" lon="2.83455">
        <ele>67.4</ele>
        <time>2023-08-05T14:25:59Z</time>
      </trkpt>
      <trkpt lat="50.68728" lon="2.83458">
        <ele>67.4</ele>
        <time>2023-08-05T14:26:00Z</time>
      </trkpt>
      <trkpt lat="50.68726" lon="2.83461">
        <ele>67.4</ele>
        <time>2023-08-05T14:26:01Z</time>
      </trkpt>
      <trkpt lat="50.6872" lon="2.83464">
        <ele>67.4</ele>
        <time>2023-08-05T14:26:03Z</time>
      </trkpt>
      <trkpt lat="50.68717" lon="2.83465">
        <ele>67.4</ele>
        <time>2023-08-05T14:26:04Z</time>
      </trkpt>
      <trkpt lat="50.68714" lon="2.83467">
        <ele>67.4</ele>
        <time>2023-08-05T14:26:05Z</time>
      </trkpt>
      <trkpt lat="50.68711" lon="2.83469">
        <ele>67.4</ele>
        <time>2023-08-05T14:26:06Z</time>
      </trkpt>
      <trkpt lat="50.68708" lon="2.83471">
        <ele>67.4</ele>
        <time>2023-08-05T14:26:07Z</time>
      </trkpt>
      <trkpt lat="50.68706" lon="2.83474">
        <ele>67.4</ele>
        <time>2023-08-05T14:26:08Z</time>
      </trkpt>
      <trkpt lat="50.68703" lon="2.83478">
        <ele>67.6</ele>
        <time>2023-08-05T14:26:09Z</time>
      </trkpt>
      <trkpt lat="50.68694" lon="2.835">
        <ele>68</ele>
        <time>2023-08-05T14:26:14Z</time>
      </trkpt>
      <trkpt lat="50.6869" lon="2.83513">
        <ele>68.2</ele>
        <time>2023-08-05T14:26:17Z</time>
      </trkpt>
      <trkpt lat="50.68682" lon="2.83533">
        <ele>68.2</ele>
        <time>2023-08-05T14:26:22Z</time>
      </trkpt>
      <trkpt lat="50.68676" lon="2.83546">
        <ele>68.2</ele>
        <time>2023-08-05T14:26:25Z</time>
      </trkpt>
      <trkpt lat="50.68674" lon="2.8355">
        <ele>68.4</ele>
        <time>2023-08-05T14:26:26Z</time>
      </trkpt>
      <trkpt lat="50.68666" lon="2.83571">
        <ele>68.4</ele>
        <time>2023-08-05T14:26:31Z</time>
      </trkpt>
      <trkpt lat="50.68661" lon="2.83583">
        <ele>68.6</ele>
        <time>2023-08-05T14:26:34Z</time>
      </trkpt>
      <trkpt lat="50.6866" lon="2.83587">
        <ele>68.6</ele>
        <time>2023-08-05T14:26:35Z</time>
      </trkpt>
      <trkpt lat="50.68659" lon="2.83591">
        <ele>68.6</ele>
        <time>2023-08-05T14:26:36Z</time>
      </trkpt>
      <trkpt lat="50.6866" lon="2.83595">
        <ele>68.6</ele>
        <time>2023-08-05T14:26:37Z</time>
      </trkpt>
      <trkpt lat="50.68661" lon="2.83599">
        <ele>68.6</ele>
        <time>2023-08-05T14:26:38Z</time>
      </trkpt>
      <trkpt lat="50.68663" lon="2.83602">
        <ele>68.6</ele>
        <time>2023-08-05T14:26:39Z</time>
      </trkpt>
      <trkpt lat="50.68664" lon="2.83606">
        <ele>68.4</ele>
        <time>2023-08-05T14:26:40Z</time>
      </trkpt>
      <trkpt lat="50.68663" lon="2.83609">
        <ele>68.4</ele>
        <time>2023-08-05T14:26:41Z</time>
      </trkpt>
      <trkpt lat="50.68661" lon="2.83611">
        <ele>68.4</ele>
        <time>2023-08-05T14:26:42Z</time>
      </trkpt>
      <trkpt lat="50.68659" lon="2.83611">
        <ele>68.4</ele>
        <time>2023-08-05T14:26:43Z</time>
      </trkpt>
      <trkpt lat="50.68656" lon="2.83611">
        <ele>68.6</ele>
        <time>2023-08-05T14:26:44Z</time>
      </trkpt>
      <trkpt lat="50.68653" lon="2.83612">
        <ele>68.6</ele>
        <time>2023-08-05T14:26:45Z</time>
      </trkpt>
      <trkpt lat="50.6865" lon="2.83615">
        <ele>68.4</ele>
        <time>2023-08-05T14:26:46Z</time>
      </trkpt>
      <trkpt lat="50.68647" lon="2.83618">
        <ele>68.4</ele>
        <time>2023-08-05T14:26:47Z</time>
      </trkpt>
      <trkpt lat="50.68645" lon="2.83622">
        <ele>68.6</ele>
        <time>2023-08-05T14:26:48Z</time>
      </trkpt>
      <trkpt lat="50.68644" lon="2.83627">
        <ele>68.6</ele>
        <time>2023-08-05T14:26:49Z</time>
      </trkpt>
      <trkpt lat="50.68642" lon="2.83632">
        <ele>68.6</ele>
        <time>2023-08-05T14:26:50Z</time>
      </trkpt>
      <trkpt lat="50.6864" lon="2.83637">
        <ele>68.6</ele>
        <time>2023-08-05T14:26:51Z</time>
      </trkpt>
      <trkpt lat="50.68638" lon="2.83642">
        <ele>68.6</ele>
        <time>2023-08-05T14:26:52Z</time>
      </trkpt>
      <trkpt lat="50.68633" lon="2.83649">
        <ele>68.6</ele>
        <time>2023-08-05T14:26:54Z</time>
      </trkpt>
      <trkpt lat="50.6863" lon="2.83651">
        <ele>68.4</ele>
        <time>2023-08-05T14:26:55Z</time>
      </trkpt>
      <trkpt lat="50.68627" lon="2.83654">
        <ele>68.4</ele>
        <time>2023-08-05T14:26:56Z</time>
      </trkpt>
      <trkpt lat="50.68624" lon="2.83656">
        <ele>68.4</ele>
        <time>2023-08-05T14:26:57Z</time>
      </trkpt>
      <trkpt lat="50.68607" lon="2.83667">
        <ele>67.8</ele>
        <time>2023-08-05T14:27:02Z</time>
      </trkpt>
      <trkpt lat="50.68577" lon="2.83694">
        <ele>67.6</ele>
        <time>2023-08-05T14:27:11Z</time>
      </trkpt>
      <trkpt lat="50.68568" lon="2.837">
        <ele>67.6</ele>
        <time>2023-08-05T14:27:14Z</time>
      </trkpt>
      <trkpt lat="50.68566" lon="2.83701">
        <ele>67.6</ele>
        <time>2023-08-05T14:27:15Z</time>
      </trkpt>
      <trkpt lat="50.68564" lon="2.83703">
        <ele>67.6</ele>
        <time>2023-08-05T14:27:16Z</time>
      </trkpt>
      <trkpt lat="50.68561" lon="2.83705">
        <ele>67.6</ele>
        <time>2023-08-05T14:27:17Z</time>
      </trkpt>
      <trkpt lat="50.68548" lon="2.83721">
        <ele>67.8</ele>
        <time>2023-08-05T14:27:22Z</time>
      </trkpt>
      <trkpt lat="50.68538" lon="2.8375">
        <ele>67.8</ele>
        <time>2023-08-05T14:27:27Z</time>
      </trkpt>
      <trkpt lat="50.68535" lon="2.8377">
        <ele>67.8</ele>
        <time>2023-08-05T14:27:30Z</time>
      </trkpt>
      <trkpt lat="50.68536" lon="2.83784">
        <ele>67.8</ele>
        <time>2023-08-05T14:27:32Z</time>
      </trkpt>
      <trkpt lat="50.6854" lon="2.83797">
        <ele>67.8</ele>
        <time>2023-08-05T14:27:34Z</time>
      </trkpt>
      <trkpt lat="50.68542" lon="2.83803">
        <ele>67.8</ele>
        <time>2023-08-05T14:27:35Z</time>
      </trkpt>
      <trkpt lat="50.68544" lon="2.83809">
        <ele>67.8</ele>
        <time>2023-08-05T14:27:36Z</time>
      </trkpt>
      <trkpt lat="50.68549" lon="2.83822">
        <ele>68</ele>
        <time>2023-08-05T14:27:38Z</time>
      </trkpt>
      <trkpt lat="50.6857" lon="2.8388">
        <ele>68.4</ele>
        <time>2023-08-05T14:27:47Z</time>
      </trkpt>
      <trkpt lat="50.68575" lon="2.83893">
        <ele>68.4</ele>
        <time>2023-08-05T14:27:49Z</time>
      </trkpt>
      <trkpt lat="50.68581" lon="2.83904">
        <ele>68.4</ele>
        <time>2023-08-05T14:27:51Z</time>
      </trkpt>
      <trkpt lat="50.68585" lon="2.83908">
        <ele>68.4</ele>
        <time>2023-08-05T14:27:52Z</time>
      </trkpt>
      <trkpt lat="50.68589" lon="2.8391">
        <ele>68.4</ele>
        <time>2023-08-05T14:27:53Z</time>
      </trkpt>
      <trkpt lat="50.68594" lon="2.83911">
        <ele>68.4</ele>
        <time>2023-08-05T14:27:54Z</time>
      </trkpt>
      <trkpt lat="50.68598" lon="2.83911">
        <ele>68.4</ele>
        <time>2023-08-05T14:27:55Z</time>
      </trkpt>
      <trkpt lat="50.68603" lon="2.83911">
        <ele>68.4</ele>
        <time>2023-08-05T14:27:56Z</time>
      </trkpt>
      <trkpt lat="50.68608" lon="2.83911">
        <ele>68.4</ele>
        <time>2023-08-05T14:27:57Z</time>
      </trkpt>
      <trkpt lat="50.68612" lon="2.8391">
        <ele>68.4</ele>
        <time>2023-08-05T14:27:58Z</time>
      </trkpt>
      <trkpt lat="50.68622" lon="2.8391">
        <ele>68.4</ele>
        <time>2023-08-05T14:28:00Z</time>
      </trkpt>
      <trkpt lat="50.68626" lon="2.83912">
        <ele>68.4</ele>
        <time>2023-08-05T14:28:01Z</time>
      </trkpt>
      <trkpt lat="50.6863" lon="2.83916">
        <ele>68.4</ele>
        <time>2023-08-05T14:28:02Z</time>
      </trkpt>
      <trkpt lat="50.68633" lon="2.83921">
        <ele>68.2</ele>
        <time>2023-08-05T14:28:03Z</time>
      </trkpt>
      <trkpt lat="50.68636" lon="2.83926">
        <ele>68.2</ele>
        <time>2023-08-05T14:28:04Z</time>
      </trkpt>
      <trkpt lat="50.68638" lon="2.83932">
        <ele>68.2</ele>
        <time>2023-08-05T14:28:05Z</time>
      </trkpt>
      <trkpt lat="50.6864" lon="2.83938">
        <ele>68.2</ele>
        <time>2023-08-05T14:28:06Z</time>
      </trkpt>
      <trkpt lat="50.68642" lon="2.83944">
        <ele>68.2</ele>
        <time>2023-08-05T14:28:07Z</time>
      </trkpt>
      <trkpt lat="50.68658" lon="2.83983">
        <ele>68.2</ele>
        <time>2023-08-05T14:28:13Z</time>
      </trkpt>
      <trkpt lat="50.68668" lon="2.84001">
        <ele>68.2</ele>
        <time>2023-08-05T14:28:16Z</time>
      </trkpt>
      <trkpt lat="50.68675" lon="2.84012">
        <ele>68.2</ele>
        <time>2023-08-05T14:28:18Z</time>
      </trkpt>
      <trkpt lat="50.68692" lon="2.84039">
        <ele>68</ele>
        <time>2023-08-05T14:28:23Z</time>
      </trkpt>
      <trkpt lat="50.68702" lon="2.84056">
        <ele>68</ele>
        <time>2023-08-05T14:28:26Z</time>
      </trkpt>
      <trkpt lat="50.68706" lon="2.84061">
        <ele>68</ele>
        <time>2023-08-05T14:28:27Z</time>
      </trkpt>
      <trkpt lat="50.68715" lon="2.84077">
        <ele>68</ele>
        <time>2023-08-05T14:28:30Z</time>
      </trkpt>
      <trkpt lat="50.68719" lon="2.84083">
        <ele>68.2</ele>
        <time>2023-08-05T14:28:31Z</time>
      </trkpt>
      <trkpt lat="50.68725" lon="2.84093">
        <ele>68</ele>
        <time>2023-08-05T14:28:33Z</time>
      </trkpt>
      <trkpt lat="50.68728" lon="2.84099">
        <ele>67.8</ele>
        <time>2023-08-05T14:28:34Z</time>
      </trkpt>
      <trkpt lat="50.68731" lon="2.84104">
        <ele>67.8</ele>
        <time>2023-08-05T14:28:35Z</time>
      </trkpt>
      <trkpt lat="50.68734" lon="2.84109">
        <ele>67.8</ele>
        <time>2023-08-05T14:28:36Z</time>
      </trkpt>
      <trkpt lat="50.68736" lon="2.84113">
        <ele>67.8</ele>
        <time>2023-08-05T14:28:37Z</time>
      </trkpt>
      <trkpt lat="50.68738" lon="2.84116">
        <ele>67.8</ele>
        <time>2023-08-05T14:28:38Z</time>
      </trkpt>
      <trkpt lat="50.68738" lon="2.8412">
        <ele>67.8</ele>
        <time>2023-08-05T14:28:39Z</time>
      </trkpt>
      <trkpt lat="50.68737" lon="2.84124">
        <ele>67.8</ele>
        <time>2023-08-05T14:28:40Z</time>
      </trkpt>
      <trkpt lat="50.68735" lon="2.84127">
        <ele>67.6</ele>
        <time>2023-08-05T14:28:41Z</time>
      </trkpt>
      <trkpt lat="50.68732" lon="2.8413">
        <ele>67.6</ele>
        <time>2023-08-05T14:28:42Z</time>
      </trkpt>
      <trkpt lat="50.68726" lon="2.84135">
        <ele>67.6</ele>
        <time>2023-08-05T14:28:44Z</time>
      </trkpt>
      <trkpt lat="50.68723" lon="2.84134">
        <ele>67.6</ele>
        <time>2023-08-05T14:28:45Z</time>
      </trkpt>
      <trkpt lat="50.68721" lon="2.84132">
        <ele>67.6</ele>
        <time>2023-08-05T14:28:46Z</time>
      </trkpt>
      <trkpt lat="50.68719" lon="2.84128">
        <ele>67.8</ele>
        <time>2023-08-05T14:28:47Z</time>
      </trkpt>
      <trkpt lat="50.68718" lon="2.84124">
        <ele>67.8</ele>
        <time>2023-08-05T14:28:48Z</time>
      </trkpt>
      <trkpt lat="50.68717" lon="2.84121">
        <ele>67.8</ele>
        <time>2023-08-05T14:28:49Z</time>
      </trkpt>
      <trkpt lat="50.68716" lon="2.84118">
        <ele>67.8</ele>
        <time>2023-08-05T14:28:50Z</time>
      </trkpt>
      <trkpt lat="50.68716" lon="2.84115">
        <ele>67.8</ele>
        <time>2023-08-05T14:28:51Z</time>
      </trkpt>
      <trkpt lat="50.68715" lon="2.84112">
        <ele>67.8</ele>
        <time>2023-08-05T14:28:52Z</time>
      </trkpt>
      <trkpt lat="50.68713" lon="2.84108">
        <ele>67.8</ele>
        <time>2023-08-05T14:28:53Z</time>
      </trkpt>
      <trkpt lat="50.68708" lon="2.84103">
        <ele>68</ele>
        <time>2023-08-05T14:28:55Z</time>
      </trkpt>
      <trkpt lat="50.68705" lon="2.841">
        <ele>68</ele>
        <time>2023-08-05T14:28:56Z</time>
      </trkpt>
      <trkpt lat="50.68702" lon="2.84097">
        <ele>68</ele>
        <time>2023-08-05T14:28:57Z</time>
      </trkpt>
      <trkpt lat="50.68691" lon="2.84083">
        <ele>68.2</ele>
        <time>2023-08-05T14:29:01Z</time>
      </trkpt>
      <trkpt lat="50.68672" lon="2.84051">
        <ele>68.6</ele>
        <time>2023-08-05T14:29:08Z</time>
      </trkpt>
      <trkpt lat="50.68659" lon="2.84033">
        <ele>68.6</ele>
        <time>2023-08-05T14:29:13Z</time>
      </trkpt>
      <trkpt lat="50.68658" lon="2.8403">
        <ele>68.6</ele>
        <time>2023-08-05T14:29:14Z</time>
      </trkpt>
      <trkpt lat="50.68655" lon="2.84027">
        <ele>68.6</ele>
        <time>2023-08-05T14:29:15Z</time>
      </trkpt>
      <trkpt lat="50.68653" lon="2.84025">
        <ele>68.4</ele>
        <time>2023-08-05T14:29:16Z</time>
      </trkpt>
      <trkpt lat="50.68651" lon="2.84024">
        <ele>68.4</ele>
        <time>2023-08-05T14:29:17Z</time>
      </trkpt>
      <trkpt lat="50.68648" lon="2.84024">
        <ele>68.4</ele>
        <time>2023-08-05T14:29:18Z</time>
      </trkpt>
      <trkpt lat="50.68647" lon="2.84026">
        <ele>68.4</ele>
        <time>2023-08-05T14:29:19Z</time>
      </trkpt>
      <trkpt lat="50.68646" lon="2.84028">
        <ele>68.4</ele>
        <time>2023-08-05T14:29:20Z</time>
      </trkpt>
      <trkpt lat="50.68645" lon="2.84031">
        <ele>68.4</ele>
        <time>2023-08-05T14:29:21Z</time>
      </trkpt>
      <trkpt lat="50.68643" lon="2.84033">
        <ele>68.4</ele>
        <time>2023-08-05T14:29:22Z</time>
      </trkpt>
      <trkpt lat="50.68642" lon="2.84036">
        <ele>68.4</ele>
        <time>2023-08-05T14:29:23Z</time>
      </trkpt>
      <trkpt lat="50.68639" lon="2.84037">
        <ele>68.4</ele>
        <time>2023-08-05T14:29:24Z</time>
      </trkpt>
      <trkpt lat="50.68635" lon="2.84034">
        <ele>68.4</ele>
        <time>2023-08-05T14:29:26Z</time>
      </trkpt>
      <trkpt lat="50.68633" lon="2.84027">
        <ele>68.4</ele>
        <time>2023-08-05T14:29:28Z</time>
      </trkpt>
      <trkpt lat="50.68633" lon="2.84023">
        <ele>68.6</ele>
        <time>2023-08-05T14:29:29Z</time>
      </trkpt>
      <trkpt lat="50.68635" lon="2.8402">
        <ele>68.6</ele>
        <time>2023-08-05T14:29:30Z</time>
      </trkpt>
      <trkpt lat="50.68642" lon="2.84013">
        <ele>68.6</ele>
        <time>2023-08-05T14:29:33Z</time>
      </trkpt>
      <trkpt lat="50.68644" lon="2.84011">
        <ele>68.6</ele>
        <time>2023-08-05T14:29:34Z</time>
      </trkpt>
      <trkpt lat="50.68646" lon="2.8401">
        <ele>68.6</ele>
        <time>2023-08-05T14:29:35Z</time>
      </trkpt>
      <trkpt lat="50.6865" lon="2.84006">
        <ele>68.6</ele>
        <time>2023-08-05T14:29:37Z</time>
      </trkpt>
      <trkpt lat="50.68651" lon="2.84005">
        <ele>68.6</ele>
        <time>2023-08-05T14:29:38Z</time>
      </trkpt>
      <trkpt lat="50.68653" lon="2.84005">
        <ele>68.6</ele>
        <time>2023-08-05T14:29:39Z</time>
      </trkpt>
      <trkpt lat="50.68655" lon="2.84005">
        <ele>68.6</ele>
        <time>2023-08-05T14:29:40Z</time>
      </trkpt>
      <trkpt lat="50.68657" lon="2.84007">
        <ele>68.6</ele>
        <time>2023-08-05T14:29:41Z</time>
      </trkpt>
      <trkpt lat="50.68659" lon="2.84009">
        <ele>68.6</ele>
        <time>2023-08-05T14:29:42Z</time>
      </trkpt>
      <trkpt lat="50.68662" lon="2.84014">
        <ele>68.6</ele>
        <time>2023-08-05T14:29:44Z</time>
      </trkpt>
      <trkpt lat="50.68664" lon="2.84017">
        <ele>68.6</ele>
        <time>2023-08-05T14:29:45Z</time>
      </trkpt>
      <trkpt lat="50.68666" lon="2.84021">
        <ele>68.8</ele>
        <time>2023-08-05T14:29:46Z</time>
      </trkpt>
      <trkpt lat="50.68676" lon="2.84039">
        <ele>68.8</ele>
        <time>2023-08-05T14:29:51Z</time>
      </trkpt>
      <trkpt lat="50.68691" lon="2.84062">
        <ele>68.4</ele>
        <time>2023-08-05T14:29:57Z</time>
      </trkpt>
      <trkpt lat="50.68696" lon="2.84081">
        <ele>68.4</ele>
        <time>2023-08-05T14:30:01Z</time>
      </trkpt>
      <trkpt lat="50.68698" lon="2.84085">
        <ele>68.4</ele>
        <time>2023-08-05T14:30:02Z</time>
      </trkpt>
      <trkpt lat="50.68704" lon="2.84089">
        <ele>68.4</ele>
        <time>2023-08-05T14:30:04Z</time>
      </trkpt>
      <trkpt lat="50.68707" lon="2.84092">
        <ele>68.4</ele>
        <time>2023-08-05T14:30:05Z</time>
      </trkpt>
      <trkpt lat="50.68709" lon="2.84095">
        <ele>68.4</ele>
        <time>2023-08-05T14:30:06Z</time>
      </trkpt>
      <trkpt lat="50.68712" lon="2.84098">
        <ele>68.4</ele>
        <time>2023-08-05T14:30:07Z</time>
      </trkpt>
      <trkpt lat="50.68715" lon="2.841">
        <ele>68.4</ele>
        <time>2023-08-05T14:30:08Z</time>
      </trkpt>
      <trkpt lat="50.68718" lon="2.84102">
        <ele>68.4</ele>
        <time>2023-08-05T14:30:09Z</time>
      </trkpt>
      <trkpt lat="50.68719" lon="2.84111">
        <ele>68.4</ele>
        <time>2023-08-05T14:30:11Z</time>
      </trkpt>
      <trkpt lat="50.6872" lon="2.84114">
        <ele>68.4</ele>
        <time>2023-08-05T14:30:12Z</time>
      </trkpt>
      <trkpt lat="50.6872" lon="2.84116">
        <ele>68.4</ele>
        <time>2023-08-05T14:30:13Z</time>
      </trkpt>
      <trkpt lat="50.68721" lon="2.84119">
        <ele>68.4</ele>
        <time>2023-08-05T14:30:14Z</time>
      </trkpt>
      <trkpt lat="50.68721" lon="2.84122">
        <ele>68.4</ele>
        <time>2023-08-05T14:30:15Z</time>
      </trkpt>
      <trkpt lat="50.68721" lon="2.84126">
        <ele>68.4</ele>
        <time>2023-08-05T14:30:16Z</time>
      </trkpt>
      <trkpt lat="50.68722" lon="2.84137">
        <ele>68.2</ele>
        <time>2023-08-05T14:30:19Z</time>
      </trkpt>
      <trkpt lat="50.68721" lon="2.84143">
        <ele>68.2</ele>
        <time>2023-08-05T14:30:20Z</time>
      </trkpt>
      <trkpt lat="50.68717" lon="2.8415">
        <ele>68</ele>
        <time>2023-08-05T14:30:22Z</time>
      </trkpt>
      <trkpt lat="50.68714" lon="2.84153">
        <ele>68</ele>
        <time>2023-08-05T14:30:23Z</time>
      </trkpt>
      <trkpt lat="50.687" lon="2.84175">
        <ele>67.8</ele>
        <time>2023-08-05T14:30:28Z</time>
      </trkpt>
      <trkpt lat="50.68673" lon="2.84208">
        <ele>67.6</ele>
        <time>2023-08-05T14:30:36Z</time>
      </trkpt>
      <trkpt lat="50.6866" lon="2.84223">
        <ele>67.6</ele>
        <time>2023-08-05T14:30:40Z</time>
      </trkpt>
      <trkpt lat="50.68658" lon="2.84226">
        <ele>67.6</ele>
        <time>2023-08-05T14:30:41Z</time>
      </trkpt>
      <trkpt lat="50.68646" lon="2.84241">
        <ele>67.6</ele>
        <time>2023-08-05T14:30:45Z</time>
      </trkpt>
      <trkpt lat="50.68643" lon="2.84244">
        <ele>67.6</ele>
        <time>2023-08-05T14:30:46Z</time>
      </trkpt>
      <trkpt lat="50.6864" lon="2.84248">
        <ele>67.6</ele>
        <time>2023-08-05T14:30:47Z</time>
      </trkpt>
      <trkpt lat="50.68637" lon="2.84253">
        <ele>67.6</ele>
        <time>2023-08-05T14:30:48Z</time>
      </trkpt>
      <trkpt lat="50.68631" lon="2.8426">
        <ele>67.4</ele>
        <time>2023-08-05T14:30:50Z</time>
      </trkpt>
      <trkpt lat="50.68611" lon="2.84273">
        <ele>67.4</ele>
        <time>2023-08-05T14:30:56Z</time>
      </trkpt>
      <trkpt lat="50.68608" lon="2.84274">
        <ele>67.4</ele>
        <time>2023-08-05T14:30:57Z</time>
      </trkpt>
      <trkpt lat="50.68606" lon="2.84275">
        <ele>67.4</ele>
        <time>2023-08-05T14:30:58Z</time>
      </trkpt>
      <trkpt lat="50.68605" lon="2.84277">
        <ele>67.4</ele>
        <time>2023-08-05T14:30:59Z</time>
      </trkpt>
      <trkpt lat="50.68603" lon="2.84278">
        <ele>67.4</ele>
        <time>2023-08-05T14:31:00Z</time>
      </trkpt>
      <trkpt lat="50.686" lon="2.84279">
        <ele>67.4</ele>
        <time>2023-08-05T14:31:01Z</time>
      </trkpt>
      <trkpt lat="50.6859" lon="2.84276">
        <ele>67.4</ele>
        <time>2023-08-05T14:31:04Z</time>
      </trkpt>
      <trkpt lat="50.68586" lon="2.84276">
        <ele>67.4</ele>
        <time>2023-08-05T14:31:05Z</time>
      </trkpt>
      <trkpt lat="50.68573" lon="2.84282">
        <ele>67.4</ele>
        <time>2023-08-05T14:31:09Z</time>
      </trkpt>
      <trkpt lat="50.6857" lon="2.84287">
        <ele>67.4</ele>
        <time>2023-08-05T14:31:10Z</time>
      </trkpt>
      <trkpt lat="50.68568" lon="2.84292">
        <ele>67.4</ele>
        <time>2023-08-05T14:31:11Z</time>
      </trkpt>
      <trkpt lat="50.68566" lon="2.84298">
        <ele>67.4</ele>
        <time>2023-08-05T14:31:12Z</time>
      </trkpt>
      <trkpt lat="50.68566" lon="2.84305">
        <ele>67.4</ele>
        <time>2023-08-05T14:31:13Z</time>
      </trkpt>
      <trkpt lat="50.68568" lon="2.84319">
        <ele>67.4</ele>
        <time>2023-08-05T14:31:15Z</time>
      </trkpt>
      <trkpt lat="50.68568" lon="2.84319">
        <ele>67.4</ele>
        <time>2023-08-05T14:31:16Z</time>
      </trkpt>
      <trkpt lat="50.68573" lon="2.84331">
        <ele>67.4</ele>
        <time>2023-08-05T14:31:17Z</time>
      </trkpt>
      <trkpt lat="50.68578" lon="2.84337">
        <ele>67.4</ele>
        <time>2023-08-05T14:31:18Z</time>
      </trkpt>
      <trkpt lat="50.68581" lon="2.8434">
        <ele>67.4</ele>
        <time>2023-08-05T14:31:19Z</time>
      </trkpt>
      <trkpt lat="50.68586" lon="2.84342">
        <ele>67.4</ele>
        <time>2023-08-05T14:31:20Z</time>
      </trkpt>
      <trkpt lat="50.68591" lon="2.84344">
        <ele>67.4</ele>
        <time>2023-08-05T14:31:21Z</time>
      </trkpt>
      <trkpt lat="50.68596" lon="2.84344">
        <ele>67.4</ele>
        <time>2023-08-05T14:31:22Z</time>
      </trkpt>
      <trkpt lat="50.68601" lon="2.84346">
        <ele>67.6</ele>
        <time>2023-08-05T14:31:23Z</time>
      </trkpt>
      <trkpt lat="50.68614" lon="2.84354">
        <ele>67.6</ele>
        <time>2023-08-05T14:31:26Z</time>
      </trkpt>
      <trkpt lat="50.68636" lon="2.84372">
        <ele>67.6</ele>
        <time>2023-08-05T14:31:31Z</time>
      </trkpt>
      <trkpt lat="50.6864" lon="2.84376">
        <ele>67.6</ele>
        <time>2023-08-05T14:31:32Z</time>
      </trkpt>
      <trkpt lat="50.68645" lon="2.84381">
        <ele>67.6</ele>
        <time>2023-08-05T14:31:33Z</time>
      </trkpt>
      <trkpt lat="50.68683" lon="2.84418">
        <ele>67.4</ele>
        <time>2023-08-05T14:31:42Z</time>
      </trkpt>
      <trkpt lat="50.68733" lon="2.84459">
        <ele>67.8</ele>
        <time>2023-08-05T14:31:53Z</time>
      </trkpt>
      <trkpt lat="50.68738" lon="2.84464">
        <ele>68</ele>
        <time>2023-08-05T14:31:54Z</time>
      </trkpt>
      <trkpt lat="50.68742" lon="2.84467">
        <ele>68</ele>
        <time>2023-08-05T14:31:55Z</time>
      </trkpt>
      <trkpt lat="50.68751" lon="2.84475">
        <ele>68</ele>
        <time>2023-08-05T14:31:57Z</time>
      </trkpt>
      <trkpt lat="50.68755" lon="2.84479">
        <ele>68.2</ele>
        <time>2023-08-05T14:31:58Z</time>
      </trkpt>
      <trkpt lat="50.68759" lon="2.84483">
        <ele>68.2</ele>
        <time>2023-08-05T14:31:59Z</time>
      </trkpt>
      <trkpt lat="50.68764" lon="2.84486">
        <ele>68.2</ele>
        <time>2023-08-05T14:32:00Z</time>
      </trkpt>
      <trkpt lat="50.68783" lon="2.84501">
        <ele>68.2</ele>
        <time>2023-08-05T14:32:04Z</time>
      </trkpt>
      <trkpt lat="50.68813" lon="2.84529">
        <ele>69</ele>
        <time>2023-08-05T14:32:11Z</time>
      </trkpt>
      <trkpt lat="50.68826" lon="2.8454">
        <ele>69.2</ele>
        <time>2023-08-05T14:32:14Z</time>
      </trkpt>
      <trkpt lat="50.68855" lon="2.84566">
        <ele>69.4</ele>
        <time>2023-08-05T14:32:21Z</time>
      </trkpt>
      <trkpt lat="50.68858" lon="2.84569">
        <ele>69.6</ele>
        <time>2023-08-05T14:32:22Z</time>
      </trkpt>
      <trkpt lat="50.68862" lon="2.84572">
        <ele>69.6</ele>
        <time>2023-08-05T14:32:23Z</time>
      </trkpt>
      <trkpt lat="50.68866" lon="2.84575">
        <ele>69.8</ele>
        <time>2023-08-05T14:32:24Z</time>
      </trkpt>
      <trkpt lat="50.68869" lon="2.84578">
        <ele>69.8</ele>
        <time>2023-08-05T14:32:25Z</time>
      </trkpt>
      <trkpt lat="50.68873" lon="2.84581">
        <ele>70</ele>
        <time>2023-08-05T14:32:26Z</time>
      </trkpt>
      <trkpt lat="50.68877" lon="2.84584">
        <ele>70</ele>
        <time>2023-08-05T14:32:27Z</time>
      </trkpt>
      <trkpt lat="50.68881" lon="2.84588">
        <ele>70.2</ele>
        <time>2023-08-05T14:32:28Z</time>
      </trkpt>
      <trkpt lat="50.68885" lon="2.84591">
        <ele>70.2</ele>
        <time>2023-08-05T14:32:29Z</time>
      </trkpt>
      <trkpt lat="50.68892" lon="2.84596">
        <ele>70.6</ele>
        <time>2023-08-05T14:32:31Z</time>
      </trkpt>
      <trkpt lat="50.68908" lon="2.84609">
        <ele>71.2</ele>
        <time>2023-08-05T14:32:35Z</time>
      </trkpt>
      <trkpt lat="50.68923" lon="2.84623">
        <ele>71.8</ele>
        <time>2023-08-05T14:32:39Z</time>
      </trkpt>
      <trkpt lat="50.68931" lon="2.84629">
        <ele>72.2</ele>
        <time>2023-08-05T14:32:41Z</time>
      </trkpt>
      <trkpt lat="50.68935" lon="2.84633">
        <ele>72.6</ele>
        <time>2023-08-05T14:32:42Z</time>
      </trkpt>
      <trkpt lat="50.68939" lon="2.84636">
        <ele>72.6</ele>
        <time>2023-08-05T14:32:43Z</time>
      </trkpt>
      <trkpt lat="50.68939" lon="2.84636">
        <ele>73</ele>
        <time>2023-08-05T14:32:44Z</time>
      </trkpt>
      <trkpt lat="50.68947" lon="2.84643">
        <ele>73.2</ele>
        <time>2023-08-05T14:32:45Z</time>
      </trkpt>
      <trkpt lat="50.68952" lon="2.84647">
        <ele>73.2</ele>
        <time>2023-08-05T14:32:46Z</time>
      </trkpt>
      <trkpt lat="50.68955" lon="2.8465">
        <ele>73.6</ele>
        <time>2023-08-05T14:32:47Z</time>
      </trkpt>
      <trkpt lat="50.68955" lon="2.8465">
        <ele>73.6</ele>
        <time>2023-08-05T14:32:48Z</time>
      </trkpt>
      <trkpt lat="50.68963" lon="2.84657">
        <ele>73.8</ele>
        <time>2023-08-05T14:32:49Z</time>
      </trkpt>
      <trkpt lat="50.68967" lon="2.84661">
        <ele>73.6</ele>
        <time>2023-08-05T14:32:50Z</time>
      </trkpt>
      <trkpt lat="50.68971" lon="2.84665">
        <ele>73.8</ele>
        <time>2023-08-05T14:32:51Z</time>
      </trkpt>
      <trkpt lat="50.68975" lon="2.84668">
        <ele>74</ele>
        <time>2023-08-05T14:32:52Z</time>
      </trkpt>
      <trkpt lat="50.6898" lon="2.84671">
        <ele>74</ele>
        <time>2023-08-05T14:32:53Z</time>
      </trkpt>
      <trkpt lat="50.68984" lon="2.84675">
        <ele>74.2</ele>
        <time>2023-08-05T14:32:54Z</time>
      </trkpt>
      <trkpt lat="50.68988" lon="2.84679">
        <ele>74.2</ele>
        <time>2023-08-05T14:32:55Z</time>
      </trkpt>
      <trkpt lat="50.68993" lon="2.84683">
        <ele>74.2</ele>
        <time>2023-08-05T14:32:56Z</time>
      </trkpt>
      <trkpt lat="50.68997" lon="2.84687">
        <ele>74.4</ele>
        <time>2023-08-05T14:32:57Z</time>
      </trkpt>
      <trkpt lat="50.69001" lon="2.8469">
        <ele>74.4</ele>
        <time>2023-08-05T14:32:58Z</time>
      </trkpt>
      <trkpt lat="50.69005" lon="2.84695">
        <ele>74.4</ele>
        <time>2023-08-05T14:32:59Z</time>
      </trkpt>
      <trkpt lat="50.6901" lon="2.84699">
        <ele>74.4</ele>
        <time>2023-08-05T14:33:00Z</time>
      </trkpt>
      <trkpt lat="50.69015" lon="2.84703">
        <ele>74.4</ele>
        <time>2023-08-05T14:33:01Z</time>
      </trkpt>
      <trkpt lat="50.6902" lon="2.84708">
        <ele>74.4</ele>
        <time>2023-08-05T14:33:02Z</time>
      </trkpt>
      <trkpt lat="50.69024" lon="2.84712">
        <ele>74.4</ele>
        <time>2023-08-05T14:33:03Z</time>
      </trkpt>
      <trkpt lat="50.69029" lon="2.84716">
        <ele>74.4</ele>
        <time>2023-08-05T14:33:04Z</time>
      </trkpt>
      <trkpt lat="50.69035" lon="2.84721">
        <ele>74.4</ele>
        <time>2023-08-05T14:33:05Z</time>
      </trkpt>
      <trkpt lat="50.69041" lon="2.84726">
        <ele>74.4</ele>
        <time>2023-08-05T14:33:06Z</time>
      </trkpt>
      <trkpt lat="50.69045" lon="2.8473">
        <ele>74.4</ele>
        <time>2023-08-05T14:33:07Z</time>
      </trkpt>
      <trkpt lat="50.69057" lon="2.84739">
        <ele>74.2</ele>
        <time>2023-08-05T14:33:09Z</time>
      </trkpt>
      <trkpt lat="50.69076" lon="2.84756">
        <ele>74.2</ele>
        <time>2023-08-05T14:33:12Z</time>
      </trkpt>
      <trkpt lat="50.6912" lon="2.84795">
        <ele>72.6</ele>
        <time>2023-08-05T14:33:19Z</time>
      </trkpt>
      <trkpt lat="50.69126" lon="2.84802">
        <ele>72.4</ele>
        <time>2023-08-05T14:33:20Z</time>
      </trkpt>
      <trkpt lat="50.69147" lon="2.84821">
        <ele>71.4</ele>
        <time>2023-08-05T14:33:23Z</time>
      </trkpt>
      <trkpt lat="50.69172" lon="2.84844">
        <ele>70.4</ele>
        <time>2023-08-05T14:33:27Z</time>
      </trkpt>
      <trkpt lat="50.69178" lon="2.84849">
        <ele>70</ele>
        <time>2023-08-05T14:33:28Z</time>
      </trkpt>
      <trkpt lat="50.69183" lon="2.84854">
        <ele>70</ele>
        <time>2023-08-05T14:33:29Z</time>
      </trkpt>
      <trkpt lat="50.69187" lon="2.84858">
        <ele>69.8</ele>
        <time>2023-08-05T14:33:30Z</time>
      </trkpt>
      <trkpt lat="50.69191" lon="2.84862">
        <ele>69.8</ele>
        <time>2023-08-05T14:33:31Z</time>
      </trkpt>
      <trkpt lat="50.69194" lon="2.84866">
        <ele>69.6</ele>
        <time>2023-08-05T14:33:32Z</time>
      </trkpt>
      <trkpt lat="50.69197" lon="2.8487">
        <ele>69.6</ele>
        <time>2023-08-05T14:33:33Z</time>
      </trkpt>
      <trkpt lat="50.692" lon="2.84874">
        <ele>69.6</ele>
        <time>2023-08-05T14:33:34Z</time>
      </trkpt>
      <trkpt lat="50.69203" lon="2.84879">
        <ele>69.4</ele>
        <time>2023-08-05T14:33:35Z</time>
      </trkpt>
      <trkpt lat="50.69208" lon="2.84889">
        <ele>69.4</ele>
        <time>2023-08-05T14:33:37Z</time>
      </trkpt>
      <trkpt lat="50.69212" lon="2.84901">
        <ele>69.2</ele>
        <time>2023-08-05T14:33:39Z</time>
      </trkpt>
      <trkpt lat="50.69213" lon="2.84915">
        <ele>69.2</ele>
        <time>2023-08-05T14:33:41Z</time>
      </trkpt>
      <trkpt lat="50.69214" lon="2.84922">
        <ele>69.2</ele>
        <time>2023-08-05T14:33:42Z</time>
      </trkpt>
      <trkpt lat="50.69212" lon="2.84937">
        <ele>69.2</ele>
        <time>2023-08-05T14:33:44Z</time>
      </trkpt>
      <trkpt lat="50.6921" lon="2.84943">
        <ele>69.2</ele>
        <time>2023-08-05T14:33:45Z</time>
      </trkpt>
      <trkpt lat="50.69208" lon="2.8495">
        <ele>69</ele>
        <time>2023-08-05T14:33:46Z</time>
      </trkpt>
      <trkpt lat="50.69205" lon="2.84956">
        <ele>69</ele>
        <time>2023-08-05T14:33:47Z</time>
      </trkpt>
      <trkpt lat="50.69204" lon="2.84961">
        <ele>69</ele>
        <time>2023-08-05T14:33:48Z</time>
      </trkpt>
      <trkpt lat="50.69202" lon="2.84968">
        <ele>69</ele>
        <time>2023-08-05T14:33:49Z</time>
      </trkpt>
      <trkpt lat="50.692" lon="2.84974">
        <ele>69</ele>
        <time>2023-08-05T14:33:50Z</time>
      </trkpt>
      <trkpt lat="50.69194" lon="2.8499">
        <ele>69</ele>
        <time>2023-08-05T14:33:53Z</time>
      </trkpt>
      <trkpt lat="50.69193" lon="2.84994">
        <ele>69</ele>
        <time>2023-08-05T14:33:54Z</time>
      </trkpt>
      <trkpt lat="50.69192" lon="2.84997">
        <ele>68.8</ele>
        <time>2023-08-05T14:33:55Z</time>
      </trkpt>
      <trkpt lat="50.69191" lon="2.85001">
        <ele>68.6</ele>
        <time>2023-08-05T14:33:56Z</time>
      </trkpt>
      <trkpt lat="50.69192" lon="2.85004">
        <ele>68.6</ele>
        <time>2023-08-05T14:33:57Z</time>
      </trkpt>
      <trkpt lat="50.69194" lon="2.85004">
        <ele>68.6</ele>
        <time>2023-08-05T14:33:58Z</time>
      </trkpt>
      <trkpt lat="50.69196" lon="2.85002">
        <ele>68.6</ele>
        <time>2023-08-05T14:33:59Z</time>
      </trkpt>
      <trkpt lat="50.69198" lon="2.84998">
        <ele>68.4</ele>
        <time>2023-08-05T14:34:00Z</time>
      </trkpt>
      <trkpt lat="50.692" lon="2.84994">
        <ele>68.4</ele>
        <time>2023-08-05T14:34:01Z</time>
      </trkpt>
      <trkpt lat="50.69204" lon="2.84987">
        <ele>68.2</ele>
        <time>2023-08-05T14:34:03Z</time>
      </trkpt>
      <trkpt lat="50.69206" lon="2.84986">
        <ele>68.2</ele>
        <time>2023-08-05T14:34:04Z</time>
      </trkpt>
      <trkpt lat="50.69209" lon="2.8499">
        <ele>68</ele>
        <time>2023-08-05T14:34:05Z</time>
      </trkpt>
      <trkpt lat="50.69214" lon="2.85018">
        <ele>67.8</ele>
        <time>2023-08-05T14:34:09Z</time>
      </trkpt>
      <trkpt lat="50.69217" lon="2.85033">
        <ele>67.8</ele>
        <time>2023-08-05T14:34:11Z</time>
      </trkpt>
      <trkpt lat="50.6922" lon="2.8504">
        <ele>67.6</ele>
        <time>2023-08-05T14:34:12Z</time>
      </trkpt>
      <trkpt lat="50.69222" lon="2.85047">
        <ele>67.6</ele>
        <time>2023-08-05T14:34:13Z</time>
      </trkpt>
      <trkpt lat="50.69224" lon="2.85054">
        <ele>67.6</ele>
        <time>2023-08-05T14:34:14Z</time>
      </trkpt>
      <trkpt lat="50.69231" lon="2.85073">
        <ele>67.4</ele>
        <time>2023-08-05T14:34:17Z</time>
      </trkpt>
      <trkpt lat="50.69244" lon="2.85105">
        <ele>67.4</ele>
        <time>2023-08-05T14:34:22Z</time>
      </trkpt>
      <trkpt lat="50.69267" lon="2.85168">
        <ele>67.4</ele>
        <time>2023-08-05T14:34:31Z</time>
      </trkpt>
      <trkpt lat="50.69291" lon="2.85245">
        <ele>67.4</ele>
        <time>2023-08-05T14:34:41Z</time>
      </trkpt>
      <trkpt lat="50.69298" lon="2.85268">
        <ele>67.4</ele>
        <time>2023-08-05T14:34:44Z</time>
      </trkpt>
      <trkpt lat="50.69313" lon="2.85321">
        <ele>67.2</ele>
        <time>2023-08-05T14:34:51Z</time>
      </trkpt>
      <trkpt lat="50.69316" lon="2.85329">
        <ele>67.2</ele>
        <time>2023-08-05T14:34:52Z</time>
      </trkpt>
      <trkpt lat="50.69322" lon="2.85343">
        <ele>67.4</ele>
        <time>2023-08-05T14:34:54Z</time>
      </trkpt>
      <trkpt lat="50.69325" lon="2.85349">
        <ele>67.4</ele>
        <time>2023-08-05T14:34:55Z</time>
      </trkpt>
      <trkpt lat="50.69338" lon="2.85375">
        <ele>67.6</ele>
        <time>2023-08-05T14:34:59Z</time>
      </trkpt>
      <trkpt lat="50.69342" lon="2.8538">
        <ele>67.8</ele>
        <time>2023-08-05T14:35:00Z</time>
      </trkpt>
      <trkpt lat="50.69346" lon="2.85386">
        <ele>67.8</ele>
        <time>2023-08-05T14:35:01Z</time>
      </trkpt>
      <trkpt lat="50.69353" lon="2.85395">
        <ele>68</ele>
        <time>2023-08-05T14:35:03Z</time>
      </trkpt>
      <trkpt lat="50.69357" lon="2.85399">
        <ele>67.8</ele>
        <time>2023-08-05T14:35:04Z</time>
      </trkpt>
      <trkpt lat="50.6936" lon="2.85401">
        <ele>68</ele>
        <time>2023-08-05T14:35:05Z</time>
      </trkpt>
      <trkpt lat="50.69364" lon="2.85404">
        <ele>68</ele>
        <time>2023-08-05T14:35:06Z</time>
      </trkpt>
      <trkpt lat="50.69368" lon="2.85405">
        <ele>68</ele>
        <time>2023-08-05T14:35:07Z</time>
      </trkpt>
      <trkpt lat="50.69371" lon="2.85406">
        <ele>68</ele>
        <time>2023-08-05T14:35:08Z</time>
      </trkpt>
      <trkpt lat="50.69374" lon="2.85408">
        <ele>68.2</ele>
        <time>2023-08-05T14:35:09Z</time>
      </trkpt>
      <trkpt lat="50.69378" lon="2.85409">
        <ele>68.2</ele>
        <time>2023-08-05T14:35:10Z</time>
      </trkpt>
      <trkpt lat="50.69381" lon="2.8541">
        <ele>68.2</ele>
        <time>2023-08-05T14:35:11Z</time>
      </trkpt>
      <trkpt lat="50.69384" lon="2.8541">
        <ele>68.4</ele>
        <time>2023-08-05T14:35:12Z</time>
      </trkpt>
      <trkpt lat="50.69387" lon="2.85409">
        <ele>68.4</ele>
        <time>2023-08-05T14:35:13Z</time>
      </trkpt>
      <trkpt lat="50.69392" lon="2.85405">
        <ele>68.4</ele>
        <time>2023-08-05T14:35:15Z</time>
      </trkpt>
      <trkpt lat="50.69393" lon="2.85402">
        <ele>68.4</ele>
        <time>2023-08-05T14:35:16Z</time>
      </trkpt>
      <trkpt lat="50.69392" lon="2.85398">
        <ele>68.4</ele>
        <time>2023-08-05T14:35:17Z</time>
      </trkpt>
      <trkpt lat="50.6939" lon="2.85396">
        <ele>68.6</ele>
        <time>2023-08-05T14:35:18Z</time>
      </trkpt>
      <trkpt lat="50.69387" lon="2.85395">
        <ele>68.6</ele>
        <time>2023-08-05T14:35:19Z</time>
      </trkpt>
      <trkpt lat="50.69383" lon="2.85395">
        <ele>68.6</ele>
        <time>2023-08-05T14:35:20Z</time>
      </trkpt>
      <trkpt lat="50.69375" lon="2.85396">
        <ele>68.6</ele>
        <time>2023-08-05T14:35:22Z</time>
      </trkpt>
      <trkpt lat="50.69358" lon="2.85387">
        <ele>68.6</ele>
        <time>2023-08-05T14:35:26Z</time>
      </trkpt>
      <trkpt lat="50.69354" lon="2.85383">
        <ele>68.6</ele>
        <time>2023-08-05T14:35:27Z</time>
      </trkpt>
      <trkpt lat="50.69339" lon="2.85363">
        <ele>68.4</ele>
        <time>2023-08-05T14:35:31Z</time>
      </trkpt>
      <trkpt lat="50.69331" lon="2.85351">
        <ele>68.4</ele>
        <time>2023-08-05T14:35:33Z</time>
      </trkpt>
      <trkpt lat="50.69322" lon="2.85331">
        <ele>68.2</ele>
        <time>2023-08-05T14:35:36Z</time>
      </trkpt>
      <trkpt lat="50.69315" lon="2.85309">
        <ele>68</ele>
        <time>2023-08-05T14:35:39Z</time>
      </trkpt>
      <trkpt lat="50.69293" lon="2.85237">
        <ele>67.8</ele>
        <time>2023-08-05T14:35:49Z</time>
      </trkpt>
      <trkpt lat="50.69276" lon="2.85182">
        <ele>67.8</ele>
        <time>2023-08-05T14:35:55Z</time>
      </trkpt>
      <trkpt lat="50.69274" lon="2.85174">
        <ele>67.6</ele>
        <time>2023-08-05T14:35:56Z</time>
      </trkpt>
      <trkpt lat="50.69271" lon="2.85167">
        <ele>67.6</ele>
        <time>2023-08-05T14:35:57Z</time>
      </trkpt>
      <trkpt lat="50.69268" lon="2.85159">
        <ele>67.6</ele>
        <time>2023-08-05T14:35:58Z</time>
      </trkpt>
      <trkpt lat="50.69266" lon="2.85152">
        <ele>67.6</ele>
        <time>2023-08-05T14:35:59Z</time>
      </trkpt>
      <trkpt lat="50.69263" lon="2.85144">
        <ele>67.6</ele>
        <time>2023-08-05T14:36:00Z</time>
      </trkpt>
      <trkpt lat="50.69261" lon="2.85136">
        <ele>67.6</ele>
        <time>2023-08-05T14:36:01Z</time>
      </trkpt>
      <trkpt lat="50.69258" lon="2.85129">
        <ele>67.6</ele>
        <time>2023-08-05T14:36:02Z</time>
      </trkpt>
      <trkpt lat="50.69237" lon="2.85079">
        <ele>67.8</ele>
        <time>2023-08-05T14:36:09Z</time>
      </trkpt>
      <trkpt lat="50.69217" lon="2.85023">
        <ele>67.8</ele>
        <time>2023-08-05T14:36:17Z</time>
      </trkpt>
      <trkpt lat="50.69215" lon="2.85016">
        <ele>67.8</ele>
        <time>2023-08-05T14:36:18Z</time>
      </trkpt>
      <trkpt lat="50.69213" lon="2.8501">
        <ele>67.8</ele>
        <time>2023-08-05T14:36:19Z</time>
      </trkpt>
      <trkpt lat="50.69211" lon="2.85005">
        <ele>67.8</ele>
        <time>2023-08-05T14:36:20Z</time>
      </trkpt>
      <trkpt lat="50.6921" lon="2.85001">
        <ele>67.8</ele>
        <time>2023-08-05T14:36:21Z</time>
      </trkpt>
      <trkpt lat="50.69209" lon="2.84997">
        <ele>67.8</ele>
        <time>2023-08-05T14:36:22Z</time>
      </trkpt>
      <trkpt lat="50.69209" lon="2.84994">
        <ele>67.8</ele>
        <time>2023-08-05T14:36:23Z</time>
      </trkpt>
      <trkpt lat="50.69208" lon="2.84993">
        <ele>68</ele>
        <time>2023-08-05T14:36:24Z</time>
      </trkpt>
      <trkpt lat="50.69208" lon="2.84991">
        <ele>68</ele>
        <time>2023-08-05T14:36:25Z</time>
      </trkpt>
      <trkpt lat="50.69208" lon="2.84989">
        <ele>68</ele>
        <time>2023-08-05T14:36:26Z</time>
      </trkpt>
      <trkpt lat="50.69208" lon="2.84987">
        <ele>68.2</ele>
        <time>2023-08-05T14:36:27Z</time>
      </trkpt>
      <trkpt lat="50.69209" lon="2.84984">
        <ele>68.2</ele>
        <time>2023-08-05T14:36:28Z</time>
      </trkpt>
      <trkpt lat="50.6921" lon="2.84982">
        <ele>68.2</ele>
        <time>2023-08-05T14:36:29Z</time>
      </trkpt>
      <trkpt lat="50.69214" lon="2.84973">
        <ele>68.4</ele>
        <time>2023-08-05T14:36:32Z</time>
      </trkpt>
      <trkpt lat="50.69214" lon="2.84973">
        <ele>68.6</ele>
        <time>2023-08-05T14:36:33Z</time>
      </trkpt>
      <trkpt lat="50.69216" lon="2.84968">
        <ele>68.8</ele>
        <time>2023-08-05T14:36:34Z</time>
      </trkpt>
      <trkpt lat="50.69225" lon="2.84951">
        <ele>69.2</ele>
        <time>2023-08-05T14:36:41Z</time>
      </trkpt>
      <trkpt lat="50.69227" lon="2.84946">
        <ele>69.2</ele>
        <time>2023-08-05T14:36:43Z</time>
      </trkpt>
      <trkpt lat="50.69226" lon="2.84945">
        <ele>69.2</ele>
        <time>2023-08-05T14:36:45Z</time>
      </trkpt>
      <trkpt lat="50.69225" lon="2.84946">
        <ele>69.4</ele>
        <time>2023-08-05T14:36:46Z</time>
      </trkpt>
      <trkpt lat="50.69224" lon="2.84947">
        <ele>69.4</ele>
        <time>2023-08-05T14:36:47Z</time>
      </trkpt>
      <trkpt lat="50.69223" lon="2.84949">
        <ele>69.4</ele>
        <time>2023-08-05T14:36:48Z</time>
      </trkpt>
      <trkpt lat="50.69221" lon="2.84955">
        <ele>69.8</ele>
        <time>2023-08-05T14:36:51Z</time>
      </trkpt>
      <trkpt lat="50.69208" lon="2.84983">
        <ele>69.6</ele>
        <time>2023-08-05T14:36:57Z</time>
      </trkpt>
      <trkpt lat="50.69208" lon="2.84983">
        <ele>69.6</ele>
        <time>2023-08-05T14:36:58Z</time>
      </trkpt>
      <trkpt lat="50.69208" lon="2.84986">
        <ele>69.4</ele>
        <time>2023-08-05T14:36:59Z</time>
      </trkpt>
      <trkpt lat="50.69207" lon="2.84989">
        <ele>69.4</ele>
        <time>2023-08-05T14:37:00Z</time>
      </trkpt>
      <trkpt lat="50.69205" lon="2.84992">
        <ele>69.4</ele>
        <time>2023-08-05T14:37:01Z</time>
      </trkpt>
      <trkpt lat="50.69202" lon="2.84995">
        <ele>69.2</ele>
        <time>2023-08-05T14:37:02Z</time>
      </trkpt>
      <trkpt lat="50.692" lon="2.84999">
        <ele>69.2</ele>
        <time>2023-08-05T14:37:03Z</time>
      </trkpt>
      <trkpt lat="50.69198" lon="2.85003">
        <ele>69</ele>
        <time>2023-08-05T14:37:04Z</time>
      </trkpt>
      <trkpt lat="50.69195" lon="2.85014">
        <ele>69</ele>
        <time>2023-08-05T14:37:06Z</time>
      </trkpt>
      <trkpt lat="50.69184" lon="2.85042">
        <ele>68.8</ele>
        <time>2023-08-05T14:37:11Z</time>
      </trkpt>
      <trkpt lat="50.69182" lon="2.85048">
        <ele>69</ele>
        <time>2023-08-05T14:37:12Z</time>
      </trkpt>
      <trkpt lat="50.69166" lon="2.85088">
        <ele>69</ele>
        <time>2023-08-05T14:37:19Z</time>
      </trkpt>
      <trkpt lat="50.69148" lon="2.85144">
        <ele>69</ele>
        <time>2023-08-05T14:37:28Z</time>
      </trkpt>
      <trkpt lat="50.69142" lon="2.85173">
        <ele>69</ele>
        <time>2023-08-05T14:37:33Z</time>
      </trkpt>
      <trkpt lat="50.69141" lon="2.85178">
        <ele>68.8</ele>
        <time>2023-08-05T14:37:34Z</time>
      </trkpt>
      <trkpt lat="50.69141" lon="2.85183">
        <ele>68.8</ele>
        <time>2023-08-05T14:37:35Z</time>
      </trkpt>
      <trkpt lat="50.69141" lon="2.85187">
        <ele>68.6</ele>
        <time>2023-08-05T14:37:36Z</time>
      </trkpt>
      <trkpt lat="50.6914" lon="2.8519">
        <ele>68.6</ele>
        <time>2023-08-05T14:37:37Z</time>
      </trkpt>
      <trkpt lat="50.6914" lon="2.85195">
        <ele>68.6</ele>
        <time>2023-08-05T14:37:38Z</time>
      </trkpt>
      <trkpt lat="50.6914" lon="2.852">
        <ele>68.6</ele>
        <time>2023-08-05T14:37:39Z</time>
      </trkpt>
      <trkpt lat="50.69139" lon="2.85208">
        <ele>68.6</ele>
        <time>2023-08-05T14:37:41Z</time>
      </trkpt>
      <trkpt lat="50.69138" lon="2.85211">
        <ele>68.4</ele>
        <time>2023-08-05T14:37:42Z</time>
      </trkpt>
      <trkpt lat="50.69137" lon="2.85214">
        <ele>68.4</ele>
        <time>2023-08-05T14:37:43Z</time>
      </trkpt>
      <trkpt lat="50.69136" lon="2.85217">
        <ele>68.4</ele>
        <time>2023-08-05T14:37:44Z</time>
      </trkpt>
      <trkpt lat="50.69136" lon="2.85221">
        <ele>68.4</ele>
        <time>2023-08-05T14:37:45Z</time>
      </trkpt>
      <trkpt lat="50.69135" lon="2.85224">
        <ele>68.4</ele>
        <time>2023-08-05T14:37:46Z</time>
      </trkpt>
      <trkpt lat="50.69135" lon="2.85228">
        <ele>68.4</ele>
        <time>2023-08-05T14:37:47Z</time>
      </trkpt>
      <trkpt lat="50.69135" lon="2.85231">
        <ele>68.4</ele>
        <time>2023-08-05T14:37:48Z</time>
      </trkpt>
      <trkpt lat="50.69134" lon="2.85233">
        <ele>68.4</ele>
        <time>2023-08-05T14:37:49Z</time>
      </trkpt>
      <trkpt lat="50.69134" lon="2.85236">
        <ele>68.4</ele>
        <time>2023-08-05T14:37:50Z</time>
      </trkpt>
      <trkpt lat="50.69134" lon="2.85239">
        <ele>68.2</ele>
        <time>2023-08-05T14:37:51Z</time>
      </trkpt>
      <trkpt lat="50.69133" lon="2.8524">
        <ele>68.2</ele>
        <time>2023-08-05T14:37:52Z</time>
      </trkpt>
      <trkpt lat="50.69132" lon="2.8524">
        <ele>68.2</ele>
        <time>2023-08-05T14:37:53Z</time>
      </trkpt>
      <trkpt lat="50.69132" lon="2.85238">
        <ele>68.2</ele>
        <time>2023-08-05T14:37:54Z</time>
      </trkpt>
      <trkpt lat="50.69132" lon="2.85235">
        <ele>68.2</ele>
        <time>2023-08-05T14:37:55Z</time>
      </trkpt>
      <trkpt lat="50.69134" lon="2.85232">
        <ele>68.2</ele>
        <time>2023-08-05T14:37:56Z</time>
      </trkpt>
      <trkpt lat="50.69138" lon="2.85207">
        <ele>68.2</ele>
        <time>2023-08-05T14:38:01Z</time>
      </trkpt>
      <trkpt lat="50.6914" lon="2.85191">
        <ele>68.2</ele>
        <time>2023-08-05T14:38:04Z</time>
      </trkpt>
      <trkpt lat="50.69144" lon="2.8517">
        <ele>68.2</ele>
        <time>2023-08-05T14:38:08Z</time>
      </trkpt>
      <trkpt lat="50.69157" lon="2.85117">
        <ele>68.6</ele>
        <time>2023-08-05T14:38:18Z</time>
      </trkpt>
      <trkpt lat="50.69176" lon="2.85065">
        <ele>68.8</ele>
        <time>2023-08-05T14:38:28Z</time>
      </trkpt>
      <trkpt lat="50.69194" lon="2.85018">
        <ele>69.2</ele>
        <time>2023-08-05T14:38:37Z</time>
      </trkpt>
      <trkpt lat="50.69197" lon="2.8501">
        <ele>69.2</ele>
        <time>2023-08-05T14:38:39Z</time>
      </trkpt>
      <trkpt lat="50.69198" lon="2.85007">
        <ele>69.2</ele>
        <time>2023-08-05T14:38:40Z</time>
      </trkpt>
      <trkpt lat="50.69201" lon="2.85004">
        <ele>69.4</ele>
        <time>2023-08-05T14:38:41Z</time>
      </trkpt>
      <trkpt lat="50.69203" lon="2.85002">
        <ele>69.4</ele>
        <time>2023-08-05T14:38:42Z</time>
      </trkpt>
      <trkpt lat="50.69204" lon="2.85001">
        <ele>69.4</ele>
        <time>2023-08-05T14:38:43Z</time>
      </trkpt>
      <trkpt lat="50.69206" lon="2.85002">
        <ele>69.4</ele>
        <time>2023-08-05T14:38:44Z</time>
      </trkpt>
      <trkpt lat="50.69207" lon="2.85005">
        <ele>69.4</ele>
        <time>2023-08-05T14:38:45Z</time>
      </trkpt>
      <trkpt lat="50.69215" lon="2.85031">
        <ele>69</ele>
        <time>2023-08-05T14:38:51Z</time>
      </trkpt>
      <trkpt lat="50.69222" lon="2.8505">
        <ele>68.6</ele>
        <time>2023-08-05T14:38:57Z</time>
      </trkpt>
      <trkpt lat="50.69224" lon="2.85053">
        <ele>68.6</ele>
        <time>2023-08-05T14:38:58Z</time>
      </trkpt>
      <trkpt lat="50.69225" lon="2.85054">
        <ele>68.6</ele>
        <time>2023-08-05T14:38:59Z</time>
      </trkpt>
      <trkpt lat="50.69226" lon="2.85054">
        <ele>68.4</ele>
        <time>2023-08-05T14:39:00Z</time>
      </trkpt>
      <trkpt lat="50.69228" lon="2.85053">
        <ele>68.4</ele>
        <time>2023-08-05T14:39:01Z</time>
      </trkpt>
      <trkpt lat="50.69229" lon="2.85051">
        <ele>68.4</ele>
        <time>2023-08-05T14:39:02Z</time>
      </trkpt>
      <trkpt lat="50.6923" lon="2.85049">
        <ele>68.4</ele>
        <time>2023-08-05T14:39:03Z</time>
      </trkpt>
      <trkpt lat="50.6923" lon="2.85048">
        <ele>68.4</ele>
        <time>2023-08-05T14:39:04Z</time>
      </trkpt>
      <trkpt lat="50.6923" lon="2.85047">
        <ele>68.4</ele>
        <time>2023-08-05T14:39:05Z</time>
      </trkpt>
      <trkpt lat="50.6923" lon="2.85047">
        <ele>68.4</ele>
        <time>2023-08-05T14:39:06Z</time>
      </trkpt>
      <trkpt lat="50.6923" lon="2.85047">
        <ele>68.4</ele>
        <time>2023-08-05T14:39:07Z</time>
      </trkpt>
      <trkpt lat="50.69232" lon="2.85056">
        <ele>68.8</ele>
        <time>2023-08-05T14:41:41Z</time>
      </trkpt>
      <trkpt lat="50.69233" lon="2.85059">
        <ele>68.8</ele>
        <time>2023-08-05T14:41:42Z</time>
      </trkpt>
      <trkpt lat="50.69237" lon="2.8507">
        <ele>68.4</ele>
        <time>2023-08-05T14:41:46Z</time>
      </trkpt>
      <trkpt lat="50.69236" lon="2.85076">
        <ele>68.4</ele>
        <time>2023-08-05T14:41:48Z</time>
      </trkpt>
      <trkpt lat="50.69235" lon="2.85083">
        <ele>68.2</ele>
        <time>2023-08-05T14:41:50Z</time>
      </trkpt>
      <trkpt lat="50.69236" lon="2.85087">
        <ele>68.2</ele>
        <time>2023-08-05T14:41:51Z</time>
      </trkpt>
      <trkpt lat="50.69241" lon="2.85097">
        <ele>68.2</ele>
        <time>2023-08-05T14:41:54Z</time>
      </trkpt>
      <trkpt lat="50.69243" lon="2.85102">
        <ele>68.2</ele>
        <time>2023-08-05T14:41:55Z</time>
      </trkpt>
      <trkpt lat="50.69246" lon="2.8511">
        <ele>68.2</ele>
        <time>2023-08-05T14:41:57Z</time>
      </trkpt>
      <trkpt lat="50.69255" lon="2.85129">
        <ele>68.4</ele>
        <time>2023-08-05T14:42:01Z</time>
      </trkpt>
      <trkpt lat="50.69257" lon="2.85134">
        <ele>68.4</ele>
        <time>2023-08-05T14:42:02Z</time>
      </trkpt>
      <trkpt lat="50.69259" lon="2.8514">
        <ele>68.4</ele>
        <time>2023-08-05T14:42:03Z</time>
      </trkpt>
      <trkpt lat="50.69274" lon="2.85189">
        <ele>68.6</ele>
        <time>2023-08-05T14:42:11Z</time>
      </trkpt>
      <trkpt lat="50.69296" lon="2.85262">
        <ele>68.4</ele>
        <time>2023-08-05T14:42:22Z</time>
      </trkpt>
      <trkpt lat="50.69316" lon="2.85328">
        <ele>68.4</ele>
        <time>2023-08-05T14:42:32Z</time>
      </trkpt>
      <trkpt lat="50.69344" lon="2.85379">
        <ele>68.8</ele>
        <time>2023-08-05T14:42:41Z</time>
      </trkpt>
      <trkpt lat="50.69355" lon="2.85393">
        <ele>68.8</ele>
        <time>2023-08-05T14:42:44Z</time>
      </trkpt>
      <trkpt lat="50.69358" lon="2.85396">
        <ele>68.8</ele>
        <time>2023-08-05T14:42:45Z</time>
      </trkpt>
      <trkpt lat="50.69362" lon="2.85399">
        <ele>68.8</ele>
        <time>2023-08-05T14:42:46Z</time>
      </trkpt>
      <trkpt lat="50.69366" lon="2.85401">
        <ele>68.8</ele>
        <time>2023-08-05T14:42:47Z</time>
      </trkpt>
      <trkpt lat="50.69375" lon="2.85404">
        <ele>69</ele>
        <time>2023-08-05T14:42:49Z</time>
      </trkpt>
      <trkpt lat="50.69379" lon="2.85404">
        <ele>69.2</ele>
        <time>2023-08-05T14:42:50Z</time>
      </trkpt>
      <trkpt lat="50.69383" lon="2.85404">
        <ele>69.2</ele>
        <time>2023-08-05T14:42:51Z</time>
      </trkpt>
      <trkpt lat="50.69388" lon="2.85402">
        <ele>69.4</ele>
        <time>2023-08-05T14:42:52Z</time>
      </trkpt>
      <trkpt lat="50.69409" lon="2.85393">
        <ele>69.6</ele>
        <time>2023-08-05T14:42:57Z</time>
      </trkpt>
      <trkpt lat="50.69423" lon="2.85389">
        <ele>69.8</ele>
        <time>2023-08-05T14:43:00Z</time>
      </trkpt>
      <trkpt lat="50.6948" lon="2.85373">
        <ele>69.8</ele>
        <time>2023-08-05T14:43:12Z</time>
      </trkpt>
      <trkpt lat="50.69513" lon="2.85367">
        <ele>70.2</ele>
        <time>2023-08-05T14:43:19Z</time>
      </trkpt>
      <trkpt lat="50.69527" lon="2.85365">
        <ele>70.2</ele>
        <time>2023-08-05T14:43:22Z</time>
      </trkpt>
      <trkpt lat="50.69541" lon="2.85366">
        <ele>70.2</ele>
        <time>2023-08-05T14:43:25Z</time>
      </trkpt>
      <trkpt lat="50.6955" lon="2.85368">
        <ele>70.2</ele>
        <time>2023-08-05T14:43:27Z</time>
      </trkpt>
      <trkpt lat="50.69559" lon="2.85373">
        <ele>70.2</ele>
        <time>2023-08-05T14:43:29Z</time>
      </trkpt>
      <trkpt lat="50.69564" lon="2.85375">
        <ele>70.2</ele>
        <time>2023-08-05T14:43:30Z</time>
      </trkpt>
      <trkpt lat="50.69568" lon="2.85378">
        <ele>70.2</ele>
        <time>2023-08-05T14:43:31Z</time>
      </trkpt>
      <trkpt lat="50.69573" lon="2.85381">
        <ele>70.2</ele>
        <time>2023-08-05T14:43:32Z</time>
      </trkpt>
      <trkpt lat="50.69578" lon="2.85385">
        <ele>70.4</ele>
        <time>2023-08-05T14:43:33Z</time>
      </trkpt>
      <trkpt lat="50.69586" lon="2.85393">
        <ele>70.4</ele>
        <time>2023-08-05T14:43:35Z</time>
      </trkpt>
      <trkpt lat="50.69625" lon="2.85439">
        <ele>70.4</ele>
        <time>2023-08-05T14:43:45Z</time>
      </trkpt>
      <trkpt lat="50.69653" lon="2.85472">
        <ele>70.6</ele>
        <time>2023-08-05T14:43:52Z</time>
      </trkpt>
      <trkpt lat="50.69687" lon="2.85514">
        <ele>70.8</ele>
        <time>2023-08-05T14:44:01Z</time>
      </trkpt>
      <trkpt lat="50.69706" lon="2.85538">
        <ele>70.8</ele>
        <time>2023-08-05T14:44:06Z</time>
      </trkpt>
      <trkpt lat="50.69714" lon="2.85548">
        <ele>70.8</ele>
        <time>2023-08-05T14:44:08Z</time>
      </trkpt>
      <trkpt lat="50.69722" lon="2.85556">
        <ele>70.8</ele>
        <time>2023-08-05T14:44:10Z</time>
      </trkpt>
      <trkpt lat="50.69738" lon="2.85577">
        <ele>70.8</ele>
        <time>2023-08-05T14:44:15Z</time>
      </trkpt>
      <trkpt lat="50.6974" lon="2.85579">
        <ele>70.8</ele>
        <time>2023-08-05T14:44:16Z</time>
      </trkpt>
      <trkpt lat="50.69742" lon="2.85582">
        <ele>71</ele>
        <time>2023-08-05T14:44:17Z</time>
      </trkpt>
      <trkpt lat="50.69744" lon="2.85584">
        <ele>71</ele>
        <time>2023-08-05T14:44:18Z</time>
      </trkpt>
      <trkpt lat="50.69746" lon="2.85585">
        <ele>71</ele>
        <time>2023-08-05T14:44:19Z</time>
      </trkpt>
      <trkpt lat="50.69747" lon="2.85586">
        <ele>71</ele>
        <time>2023-08-05T14:44:20Z</time>
      </trkpt>
      <trkpt lat="50.69748" lon="2.85588">
        <ele>71.2</ele>
        <time>2023-08-05T14:44:21Z</time>
      </trkpt>
      <trkpt lat="50.69749" lon="2.8559">
        <ele>71.2</ele>
        <time>2023-08-05T14:44:22Z</time>
      </trkpt>
      <trkpt lat="50.69749" lon="2.8559">
        <ele>71.2</ele>
        <time>2023-08-05T14:44:23Z</time>
      </trkpt>
      <trkpt lat="50.69752" lon="2.85593">
        <ele>71.2</ele>
        <time>2023-08-05T14:44:24Z</time>
      </trkpt>
      <trkpt lat="50.69762" lon="2.85605">
        <ele>71.2</ele>
        <time>2023-08-05T14:44:28Z</time>
      </trkpt>
      <trkpt lat="50.69769" lon="2.85612">
        <ele>71.2</ele>
        <time>2023-08-05T14:44:31Z</time>
      </trkpt>
      <trkpt lat="50.69771" lon="2.85614">
        <ele>71.2</ele>
        <time>2023-08-05T14:44:32Z</time>
      </trkpt>
      <trkpt lat="50.69772" lon="2.85617">
        <ele>71.2</ele>
        <time>2023-08-05T14:44:33Z</time>
      </trkpt>
      <trkpt lat="50.69772" lon="2.85621">
        <ele>71.2</ele>
        <time>2023-08-05T14:44:34Z</time>
      </trkpt>
      <trkpt lat="50.69772" lon="2.85625">
        <ele>71.2</ele>
        <time>2023-08-05T14:44:35Z</time>
      </trkpt>
      <trkpt lat="50.6977" lon="2.85634">
        <ele>71.4</ele>
        <time>2023-08-05T14:44:37Z</time>
      </trkpt>
      <trkpt lat="50.69769" lon="2.85639">
        <ele>71.4</ele>
        <time>2023-08-05T14:44:38Z</time>
      </trkpt>
      <trkpt lat="50.69763" lon="2.85653">
        <ele>71.8</ele>
        <time>2023-08-05T14:44:42Z</time>
      </trkpt>
      <trkpt lat="50.69751" lon="2.85681">
        <ele>71.8</ele>
        <time>2023-08-05T14:44:46Z</time>
      </trkpt>
      <trkpt lat="50.69749" lon="2.85687">
        <ele>71.8</ele>
        <time>2023-08-05T14:44:47Z</time>
      </trkpt>
      <trkpt lat="50.69745" lon="2.85699">
        <ele>71.8</ele>
        <time>2023-08-05T14:44:49Z</time>
      </trkpt>
      <trkpt lat="50.69725" lon="2.85747">
        <ele>72</ele>
        <time>2023-08-05T14:44:57Z</time>
      </trkpt>
      <trkpt lat="50.6972" lon="2.85761">
        <ele>72</ele>
        <time>2023-08-05T14:44:59Z</time>
      </trkpt>
      <trkpt lat="50.69712" lon="2.85786">
        <ele>72.2</ele>
        <time>2023-08-05T14:45:03Z</time>
      </trkpt>
      <trkpt lat="50.69705" lon="2.85805">
        <ele>72.2</ele>
        <time>2023-08-05T14:45:06Z</time>
      </trkpt>
      <trkpt lat="50.69698" lon="2.85824">
        <ele>72.2</ele>
        <time>2023-08-05T14:45:09Z</time>
      </trkpt>
      <trkpt lat="50.69696" lon="2.8583">
        <ele>72.2</ele>
        <time>2023-08-05T14:45:10Z</time>
      </trkpt>
      <trkpt lat="50.69694" lon="2.85836">
        <ele>72.2</ele>
        <time>2023-08-05T14:45:11Z</time>
      </trkpt>
      <trkpt lat="50.6969" lon="2.85842">
        <ele>72.2</ele>
        <time>2023-08-05T14:45:12Z</time>
      </trkpt>
      <trkpt lat="50.69672" lon="2.85886">
        <ele>72</ele>
        <time>2023-08-05T14:45:19Z</time>
      </trkpt>
      <trkpt lat="50.6967" lon="2.85891">
        <ele>72</ele>
        <time>2023-08-05T14:45:20Z</time>
      </trkpt>
      <trkpt lat="50.69668" lon="2.85896">
        <ele>72</ele>
        <time>2023-08-05T14:45:21Z</time>
      </trkpt>
      <trkpt lat="50.69664" lon="2.85905">
        <ele>71.8</ele>
        <time>2023-08-05T14:45:23Z</time>
      </trkpt>
      <trkpt lat="50.69662" lon="2.85909">
        <ele>71.8</ele>
        <time>2023-08-05T14:45:24Z</time>
      </trkpt>
      <trkpt lat="50.6966" lon="2.85914">
        <ele>71.8</ele>
        <time>2023-08-05T14:45:25Z</time>
      </trkpt>
      <trkpt lat="50.69648" lon="2.85949">
        <ele>71.6</ele>
        <time>2023-08-05T14:45:31Z</time>
      </trkpt>
      <trkpt lat="50.6963" lon="2.85997">
        <ele>71.6</ele>
        <time>2023-08-05T14:45:39Z</time>
      </trkpt>
      <trkpt lat="50.69626" lon="2.8601">
        <ele>71.6</ele>
        <time>2023-08-05T14:45:41Z</time>
      </trkpt>
      <trkpt lat="50.69613" lon="2.86042">
        <ele>72</ele>
        <time>2023-08-05T14:45:46Z</time>
      </trkpt>
      <trkpt lat="50.69588" lon="2.86108">
        <ele>72</ele>
        <time>2023-08-05T14:45:56Z</time>
      </trkpt>
      <trkpt lat="50.69583" lon="2.8612">
        <ele>72</ele>
        <time>2023-08-05T14:45:58Z</time>
      </trkpt>
      <trkpt lat="50.69578" lon="2.86133">
        <ele>71.8</ele>
        <time>2023-08-05T14:46:00Z</time>
      </trkpt>
      <trkpt lat="50.69576" lon="2.86139">
        <ele>71.8</ele>
        <time>2023-08-05T14:46:01Z</time>
      </trkpt>
      <trkpt lat="50.69574" lon="2.86146">
        <ele>71.8</ele>
        <time>2023-08-05T14:46:02Z</time>
      </trkpt>
      <trkpt lat="50.69571" lon="2.86153">
        <ele>72</ele>
        <time>2023-08-05T14:46:03Z</time>
      </trkpt>
      <trkpt lat="50.69569" lon="2.86159">
        <ele>72</ele>
        <time>2023-08-05T14:46:04Z</time>
      </trkpt>
      <trkpt lat="50.69566" lon="2.86165">
        <ele>72</ele>
        <time>2023-08-05T14:46:05Z</time>
      </trkpt>
      <trkpt lat="50.69537" lon="2.86238">
        <ele>72.6</ele>
        <time>2023-08-05T14:46:16Z</time>
      </trkpt>
      <trkpt lat="50.69532" lon="2.8625">
        <ele>72.8</ele>
        <time>2023-08-05T14:46:18Z</time>
      </trkpt>
      <trkpt lat="50.6953" lon="2.86256">
        <ele>72.8</ele>
        <time>2023-08-05T14:46:19Z</time>
      </trkpt>
      <trkpt lat="50.69528" lon="2.86262">
        <ele>73</ele>
        <time>2023-08-05T14:46:20Z</time>
      </trkpt>
      <trkpt lat="50.69521" lon="2.86281">
        <ele>73.2</ele>
        <time>2023-08-05T14:46:23Z</time>
      </trkpt>
      <trkpt lat="50.69519" lon="2.86287">
        <ele>73.6</ele>
        <time>2023-08-05T14:46:24Z</time>
      </trkpt>
      <trkpt lat="50.69516" lon="2.86293">
        <ele>73.8</ele>
        <time>2023-08-05T14:46:25Z</time>
      </trkpt>
      <trkpt lat="50.69514" lon="2.86299">
        <ele>73.8</ele>
        <time>2023-08-05T14:46:26Z</time>
      </trkpt>
      <trkpt lat="50.69504" lon="2.86325">
        <ele>74.2</ele>
        <time>2023-08-05T14:46:30Z</time>
      </trkpt>
      <trkpt lat="50.69496" lon="2.86345">
        <ele>74.4</ele>
        <time>2023-08-05T14:46:33Z</time>
      </trkpt>
      <trkpt lat="50.69471" lon="2.86413">
        <ele>74</ele>
        <time>2023-08-05T14:46:43Z</time>
      </trkpt>
      <trkpt lat="50.69458" lon="2.86448">
        <ele>74</ele>
        <time>2023-08-05T14:46:48Z</time>
      </trkpt>
      <trkpt lat="50.69451" lon="2.86468">
        <ele>74</ele>
        <time>2023-08-05T14:46:51Z</time>
      </trkpt>
      <trkpt lat="50.69424" lon="2.86533">
        <ele>74.2</ele>
        <time>2023-08-05T14:47:01Z</time>
      </trkpt>
      <trkpt lat="50.69422" lon="2.8654">
        <ele>74.2</ele>
        <time>2023-08-05T14:47:02Z</time>
      </trkpt>
      <trkpt lat="50.6942" lon="2.86546">
        <ele>74.2</ele>
        <time>2023-08-05T14:47:03Z</time>
      </trkpt>
      <trkpt lat="50.69418" lon="2.86553">
        <ele>74.4</ele>
        <time>2023-08-05T14:47:04Z</time>
      </trkpt>
      <trkpt lat="50.69416" lon="2.8656">
        <ele>74.4</ele>
        <time>2023-08-05T14:47:05Z</time>
      </trkpt>
      <trkpt lat="50.69413" lon="2.86567">
        <ele>74.4</ele>
        <time>2023-08-05T14:47:06Z</time>
      </trkpt>
      <trkpt lat="50.69403" lon="2.86594">
        <ele>74.4</ele>
        <time>2023-08-05T14:47:10Z</time>
      </trkpt>
      <trkpt lat="50.69375" lon="2.86668">
        <ele>74</ele>
        <time>2023-08-05T14:47:21Z</time>
      </trkpt>
      <trkpt lat="50.69373" lon="2.86675">
        <ele>74</ele>
        <time>2023-08-05T14:47:22Z</time>
      </trkpt>
      <trkpt lat="50.69344" lon="2.86751">
        <ele>73.8</ele>
        <time>2023-08-05T14:47:33Z</time>
      </trkpt>
      <trkpt lat="50.69342" lon="2.86757">
        <ele>73.8</ele>
        <time>2023-08-05T14:47:34Z</time>
      </trkpt>
      <trkpt lat="50.69336" lon="2.86771">
        <ele>73.6</ele>
        <time>2023-08-05T14:47:36Z</time>
      </trkpt>
      <trkpt lat="50.69334" lon="2.86778">
        <ele>73.6</ele>
        <time>2023-08-05T14:47:37Z</time>
      </trkpt>
      <trkpt lat="50.69331" lon="2.86784">
        <ele>73.6</ele>
        <time>2023-08-05T14:47:38Z</time>
      </trkpt>
      <trkpt lat="50.69329" lon="2.86791">
        <ele>73.6</ele>
        <time>2023-08-05T14:47:39Z</time>
      </trkpt>
      <trkpt lat="50.69324" lon="2.86804">
        <ele>73.4</ele>
        <time>2023-08-05T14:47:41Z</time>
      </trkpt>
      <trkpt lat="50.69321" lon="2.86809">
        <ele>73.4</ele>
        <time>2023-08-05T14:47:42Z</time>
      </trkpt>
      <trkpt lat="50.69315" lon="2.86818">
        <ele>73.2</ele>
        <time>2023-08-05T14:47:44Z</time>
      </trkpt>
      <trkpt lat="50.69312" lon="2.86823">
        <ele>73.4</ele>
        <time>2023-08-05T14:47:45Z</time>
      </trkpt>
      <trkpt lat="50.69309" lon="2.86827">
        <ele>73.4</ele>
        <time>2023-08-05T14:47:46Z</time>
      </trkpt>
      <trkpt lat="50.69306" lon="2.86831">
        <ele>73.4</ele>
        <time>2023-08-05T14:47:47Z</time>
      </trkpt>
      <trkpt lat="50.69303" lon="2.86834">
        <ele>73.4</ele>
        <time>2023-08-05T14:47:48Z</time>
      </trkpt>
      <trkpt lat="50.69296" lon="2.86838">
        <ele>73.4</ele>
        <time>2023-08-05T14:47:50Z</time>
      </trkpt>
      <trkpt lat="50.69292" lon="2.8684">
        <ele>73.4</ele>
        <time>2023-08-05T14:47:51Z</time>
      </trkpt>
      <trkpt lat="50.69288" lon="2.86841">
        <ele>73.4</ele>
        <time>2023-08-05T14:47:52Z</time>
      </trkpt>
      <trkpt lat="50.69278" lon="2.86837">
        <ele>73.4</ele>
        <time>2023-08-05T14:47:55Z</time>
      </trkpt>
      <trkpt lat="50.69275" lon="2.86833">
        <ele>73.4</ele>
        <time>2023-08-05T14:47:56Z</time>
      </trkpt>
      <trkpt lat="50.69273" lon="2.86828">
        <ele>73.4</ele>
        <time>2023-08-05T14:47:57Z</time>
      </trkpt>
      <trkpt lat="50.69268" lon="2.86818">
        <ele>73.4</ele>
        <time>2023-08-05T14:47:59Z</time>
      </trkpt>
      <trkpt lat="50.69266" lon="2.86812">
        <ele>73.4</ele>
        <time>2023-08-05T14:48:00Z</time>
      </trkpt>
      <trkpt lat="50.69245" lon="2.86768">
        <ele>73</ele>
        <time>2023-08-05T14:48:09Z</time>
      </trkpt>
      <trkpt lat="50.69225" lon="2.86747">
        <ele>72.6</ele>
        <time>2023-08-05T14:48:14Z</time>
      </trkpt>
      <trkpt lat="50.69215" lon="2.86742">
        <ele>72.6</ele>
        <time>2023-08-05T14:48:16Z</time>
      </trkpt>
      <trkpt lat="50.69205" lon="2.86738">
        <ele>72.4</ele>
        <time>2023-08-05T14:48:18Z</time>
      </trkpt>
      <trkpt lat="50.69194" lon="2.86736">
        <ele>72.2</ele>
        <time>2023-08-05T14:48:20Z</time>
      </trkpt>
      <trkpt lat="50.69183" lon="2.86736">
        <ele>71.8</ele>
        <time>2023-08-05T14:48:22Z</time>
      </trkpt>
      <trkpt lat="50.69163" lon="2.86734">
        <ele>71.4</ele>
        <time>2023-08-05T14:48:26Z</time>
      </trkpt>
      <trkpt lat="50.69153" lon="2.86728">
        <ele>71.2</ele>
        <time>2023-08-05T14:48:28Z</time>
      </trkpt>
      <trkpt lat="50.69144" lon="2.86721">
        <ele>71.2</ele>
        <time>2023-08-05T14:48:30Z</time>
      </trkpt>
      <trkpt lat="50.69127" lon="2.86702">
        <ele>71.2</ele>
        <time>2023-08-05T14:48:34Z</time>
      </trkpt>
      <trkpt lat="50.69118" lon="2.86693">
        <ele>71.2</ele>
        <time>2023-08-05T14:48:36Z</time>
      </trkpt>
      <trkpt lat="50.69089" lon="2.86662">
        <ele>71.4</ele>
        <time>2023-08-05T14:48:43Z</time>
      </trkpt>
      <trkpt lat="50.69077" lon="2.86649">
        <ele>71.4</ele>
        <time>2023-08-05T14:48:46Z</time>
      </trkpt>
      <trkpt lat="50.69073" lon="2.86645">
        <ele>71.4</ele>
        <time>2023-08-05T14:48:47Z</time>
      </trkpt>
      <trkpt lat="50.69069" lon="2.86641">
        <ele>71.4</ele>
        <time>2023-08-05T14:48:48Z</time>
      </trkpt>
      <trkpt lat="50.69062" lon="2.86633">
        <ele>71.2</ele>
        <time>2023-08-05T14:48:50Z</time>
      </trkpt>
      <trkpt lat="50.69059" lon="2.8663">
        <ele>71.2</ele>
        <time>2023-08-05T14:48:51Z</time>
      </trkpt>
      <trkpt lat="50.69056" lon="2.86628">
        <ele>71.4</ele>
        <time>2023-08-05T14:48:52Z</time>
      </trkpt>
      <trkpt lat="50.69053" lon="2.86626">
        <ele>71.4</ele>
        <time>2023-08-05T14:48:53Z</time>
      </trkpt>
      <trkpt lat="50.6905" lon="2.86624">
        <ele>71.4</ele>
        <time>2023-08-05T14:48:54Z</time>
      </trkpt>
      <trkpt lat="50.69047" lon="2.86622">
        <ele>71.4</ele>
        <time>2023-08-05T14:48:55Z</time>
      </trkpt>
      <trkpt lat="50.69045" lon="2.8662">
        <ele>71.4</ele>
        <time>2023-08-05T14:48:56Z</time>
      </trkpt>
      <trkpt lat="50.69042" lon="2.86617">
        <ele>71.4</ele>
        <time>2023-08-05T14:48:57Z</time>
      </trkpt>
      <trkpt lat="50.69023" lon="2.86594">
        <ele>71.4</ele>
        <time>2023-08-05T14:49:03Z</time>
      </trkpt>
      <trkpt lat="50.69007" lon="2.86578">
        <ele>71.4</ele>
        <time>2023-08-05T14:49:07Z</time>
      </trkpt>
      <trkpt lat="50.68994" lon="2.8657">
        <ele>71.4</ele>
        <time>2023-08-05T14:49:10Z</time>
      </trkpt>
      <trkpt lat="50.6899" lon="2.86566">
        <ele>71.4</ele>
        <time>2023-08-05T14:49:11Z</time>
      </trkpt>
      <trkpt lat="50.68982" lon="2.86559">
        <ele>71.4</ele>
        <time>2023-08-05T14:49:13Z</time>
      </trkpt>
      <trkpt lat="50.68978" lon="2.86556">
        <ele>71.6</ele>
        <time>2023-08-05T14:49:14Z</time>
      </trkpt>
      <trkpt lat="50.68974" lon="2.86555">
        <ele>71.6</ele>
        <time>2023-08-05T14:49:15Z</time>
      </trkpt>
      <trkpt lat="50.68965" lon="2.86555">
        <ele>71.6</ele>
        <time>2023-08-05T14:49:17Z</time>
      </trkpt>
      <trkpt lat="50.68961" lon="2.86555">
        <ele>71.6</ele>
        <time>2023-08-05T14:49:18Z</time>
      </trkpt>
      <trkpt lat="50.68956" lon="2.86555">
        <ele>71.8</ele>
        <time>2023-08-05T14:49:19Z</time>
      </trkpt>
      <trkpt lat="50.68952" lon="2.86555">
        <ele>71.8</ele>
        <time>2023-08-05T14:49:20Z</time>
      </trkpt>
      <trkpt lat="50.68948" lon="2.86554">
        <ele>71.8</ele>
        <time>2023-08-05T14:49:21Z</time>
      </trkpt>
      <trkpt lat="50.68944" lon="2.86554">
        <ele>71.8</ele>
        <time>2023-08-05T14:49:22Z</time>
      </trkpt>
      <trkpt lat="50.6891" lon="2.86551">
        <ele>72</ele>
        <time>2023-08-05T14:49:29Z</time>
      </trkpt>
      <trkpt lat="50.68878" lon="2.8655">
        <ele>72</ele>
        <time>2023-08-05T14:49:36Z</time>
      </trkpt>
      <trkpt lat="50.6884" lon="2.86549">
        <ele>72</ele>
        <time>2023-08-05T14:49:44Z</time>
      </trkpt>
      <trkpt lat="50.68836" lon="2.86549">
        <ele>72</ele>
        <time>2023-08-05T14:49:45Z</time>
      </trkpt>
      <trkpt lat="50.68809" lon="2.86556">
        <ele>72.4</ele>
        <time>2023-08-05T14:49:51Z</time>
      </trkpt>
      <trkpt lat="50.68805" lon="2.86558">
        <ele>72.4</ele>
        <time>2023-08-05T14:49:52Z</time>
      </trkpt>
      <trkpt lat="50.6878" lon="2.86574">
        <ele>72.6</ele>
        <time>2023-08-05T14:49:58Z</time>
      </trkpt>
      <trkpt lat="50.68772" lon="2.86581">
        <ele>72.6</ele>
        <time>2023-08-05T14:50:00Z</time>
      </trkpt>
      <trkpt lat="50.68744" lon="2.86617">
        <ele>72.8</ele>
        <time>2023-08-05T14:50:08Z</time>
      </trkpt>
      <trkpt lat="50.68713" lon="2.86661">
        <ele>73</ele>
        <time>2023-08-05T14:50:17Z</time>
      </trkpt>
      <trkpt lat="50.68681" lon="2.86709">
        <ele>73</ele>
        <time>2023-08-05T14:50:26Z</time>
      </trkpt>
      <trkpt lat="50.68644" lon="2.86765">
        <ele>72.8</ele>
        <time>2023-08-05T14:50:36Z</time>
      </trkpt>
      <trkpt lat="50.68631" lon="2.86785">
        <ele>72.8</ele>
        <time>2023-08-05T14:50:40Z</time>
      </trkpt>
      <trkpt lat="50.68628" lon="2.86789">
        <ele>72.8</ele>
        <time>2023-08-05T14:50:41Z</time>
      </trkpt>
      <trkpt lat="50.68626" lon="2.86792">
        <ele>72.8</ele>
        <time>2023-08-05T14:50:42Z</time>
      </trkpt>
      <trkpt lat="50.68624" lon="2.86795">
        <ele>72.8</ele>
        <time>2023-08-05T14:50:43Z</time>
      </trkpt>
      <trkpt lat="50.68622" lon="2.86798">
        <ele>72.8</ele>
        <time>2023-08-05T14:50:44Z</time>
      </trkpt>
      <trkpt lat="50.6862" lon="2.86801">
        <ele>72.8</ele>
        <time>2023-08-05T14:50:45Z</time>
      </trkpt>
      <trkpt lat="50.68619" lon="2.86803">
        <ele>72.8</ele>
        <time>2023-08-05T14:50:46Z</time>
      </trkpt>
      <trkpt lat="50.68617" lon="2.86806">
        <ele>72.8</ele>
        <time>2023-08-05T14:50:47Z</time>
      </trkpt>
      <trkpt lat="50.68616" lon="2.86808">
        <ele>73</ele>
        <time>2023-08-05T14:50:48Z</time>
      </trkpt>
      <trkpt lat="50.68614" lon="2.86811">
        <ele>73</ele>
        <time>2023-08-05T14:50:49Z</time>
      </trkpt>
      <trkpt lat="50.68612" lon="2.86813">
        <ele>73</ele>
        <time>2023-08-05T14:50:50Z</time>
      </trkpt>
      <trkpt lat="50.68609" lon="2.86817">
        <ele>73</ele>
        <time>2023-08-05T14:50:52Z</time>
      </trkpt>
      <trkpt lat="50.68605" lon="2.86823">
        <ele>73</ele>
        <time>2023-08-05T14:50:54Z</time>
      </trkpt>
      <trkpt lat="50.68586" lon="2.86847">
        <ele>73</ele>
        <time>2023-08-05T14:51:00Z</time>
      </trkpt>
      <trkpt lat="50.6857" lon="2.86862">
        <ele>72.6</ele>
        <time>2023-08-05T14:51:04Z</time>
      </trkpt>
      <trkpt lat="50.68566" lon="2.86866">
        <ele>72.6</ele>
        <time>2023-08-05T14:51:05Z</time>
      </trkpt>
      <trkpt lat="50.68562" lon="2.86869">
        <ele>72.6</ele>
        <time>2023-08-05T14:51:06Z</time>
      </trkpt>
      <trkpt lat="50.68519" lon="2.86908">
        <ele>72.6</ele>
        <time>2023-08-05T14:51:16Z</time>
      </trkpt>
      <trkpt lat="50.68485" lon="2.86938">
        <ele>72.8</ele>
        <time>2023-08-05T14:51:24Z</time>
      </trkpt>
      <trkpt lat="50.68481" lon="2.86942">
        <ele>72.8</ele>
        <time>2023-08-05T14:51:25Z</time>
      </trkpt>
      <trkpt lat="50.68465" lon="2.86957">
        <ele>73</ele>
        <time>2023-08-05T14:51:29Z</time>
      </trkpt>
      <trkpt lat="50.68461" lon="2.86961">
        <ele>73</ele>
        <time>2023-08-05T14:51:30Z</time>
      </trkpt>
      <trkpt lat="50.68457" lon="2.86964">
        <ele>73</ele>
        <time>2023-08-05T14:51:31Z</time>
      </trkpt>
      <trkpt lat="50.68454" lon="2.86967">
        <ele>73</ele>
        <time>2023-08-05T14:51:32Z</time>
      </trkpt>
      <trkpt lat="50.68451" lon="2.86969">
        <ele>73</ele>
        <time>2023-08-05T14:51:33Z</time>
      </trkpt>
      <trkpt lat="50.68439" lon="2.86979">
        <ele>73</ele>
        <time>2023-08-05T14:51:36Z</time>
      </trkpt>
      <trkpt lat="50.68435" lon="2.86982">
        <ele>73</ele>
        <time>2023-08-05T14:51:37Z</time>
      </trkpt>
      <trkpt lat="50.68431" lon="2.86985">
        <ele>73</ele>
        <time>2023-08-05T14:51:38Z</time>
      </trkpt>
      <trkpt lat="50.68427" lon="2.86989">
        <ele>73.2</ele>
        <time>2023-08-05T14:51:39Z</time>
      </trkpt>
      <trkpt lat="50.68423" lon="2.86992">
        <ele>73.2</ele>
        <time>2023-08-05T14:51:40Z</time>
      </trkpt>
      <trkpt lat="50.68419" lon="2.86996">
        <ele>73.2</ele>
        <time>2023-08-05T14:51:41Z</time>
      </trkpt>
      <trkpt lat="50.68415" lon="2.86999">
        <ele>73.2</ele>
        <time>2023-08-05T14:51:42Z</time>
      </trkpt>
      <trkpt lat="50.68412" lon="2.87002">
        <ele>73.2</ele>
        <time>2023-08-05T14:51:43Z</time>
      </trkpt>
      <trkpt lat="50.68409" lon="2.87006">
        <ele>73.2</ele>
        <time>2023-08-05T14:51:44Z</time>
      </trkpt>
      <trkpt lat="50.68407" lon="2.87009">
        <ele>73</ele>
        <time>2023-08-05T14:51:45Z</time>
      </trkpt>
      <trkpt lat="50.68404" lon="2.87011">
        <ele>73</ele>
        <time>2023-08-05T14:51:46Z</time>
      </trkpt>
      <trkpt lat="50.684" lon="2.87016">
        <ele>73</ele>
        <time>2023-08-05T14:51:48Z</time>
      </trkpt>
      <trkpt lat="50.68388" lon="2.87027">
        <ele>73</ele>
        <time>2023-08-05T14:51:52Z</time>
      </trkpt>
      <trkpt lat="50.68384" lon="2.8703">
        <ele>73</ele>
        <time>2023-08-05T14:51:53Z</time>
      </trkpt>
      <trkpt lat="50.68381" lon="2.87033">
        <ele>73</ele>
        <time>2023-08-05T14:51:54Z</time>
      </trkpt>
      <trkpt lat="50.68378" lon="2.87037">
        <ele>72.8</ele>
        <time>2023-08-05T14:51:55Z</time>
      </trkpt>
      <trkpt lat="50.68374" lon="2.8704">
        <ele>72.8</ele>
        <time>2023-08-05T14:51:56Z</time>
      </trkpt>
      <trkpt lat="50.68356" lon="2.87058">
        <ele>72.8</ele>
        <time>2023-08-05T14:52:01Z</time>
      </trkpt>
      <trkpt lat="50.68352" lon="2.87062">
        <ele>72.8</ele>
        <time>2023-08-05T14:52:02Z</time>
      </trkpt>
      <trkpt lat="50.68348" lon="2.87066">
        <ele>72.8</ele>
        <time>2023-08-05T14:52:03Z</time>
      </trkpt>
      <trkpt lat="50.68345" lon="2.87069">
        <ele>72.8</ele>
        <time>2023-08-05T14:52:04Z</time>
      </trkpt>
      <trkpt lat="50.68342" lon="2.87072">
        <ele>72.8</ele>
        <time>2023-08-05T14:52:05Z</time>
      </trkpt>
      <trkpt lat="50.68334" lon="2.8708">
        <ele>72.8</ele>
        <time>2023-08-05T14:52:07Z</time>
      </trkpt>
      <trkpt lat="50.68323" lon="2.87089">
        <ele>72.8</ele>
        <time>2023-08-05T14:52:10Z</time>
      </trkpt>
      <trkpt lat="50.68319" lon="2.87093">
        <ele>72.8</ele>
        <time>2023-08-05T14:52:11Z</time>
      </trkpt>
      <trkpt lat="50.68303" lon="2.87107">
        <ele>72.8</ele>
        <time>2023-08-05T14:52:15Z</time>
      </trkpt>
      <trkpt lat="50.68299" lon="2.87109">
        <ele>72.8</ele>
        <time>2023-08-05T14:52:16Z</time>
      </trkpt>
      <trkpt lat="50.68296" lon="2.87111">
        <ele>72.8</ele>
        <time>2023-08-05T14:52:17Z</time>
      </trkpt>
      <trkpt lat="50.68292" lon="2.87111">
        <ele>72.8</ele>
        <time>2023-08-05T14:52:18Z</time>
      </trkpt>
      <trkpt lat="50.68289" lon="2.8711">
        <ele>72.8</ele>
        <time>2023-08-05T14:52:19Z</time>
      </trkpt>
      <trkpt lat="50.68287" lon="2.87106">
        <ele>72.8</ele>
        <time>2023-08-05T14:52:20Z</time>
      </trkpt>
      <trkpt lat="50.68286" lon="2.87102">
        <ele>72.8</ele>
        <time>2023-08-05T14:52:21Z</time>
      </trkpt>
      <trkpt lat="50.68285" lon="2.87098">
        <ele>72.8</ele>
        <time>2023-08-05T14:52:22Z</time>
      </trkpt>
      <trkpt lat="50.68283" lon="2.87093">
        <ele>72.8</ele>
        <time>2023-08-05T14:52:23Z</time>
      </trkpt>
      <trkpt lat="50.68277" lon="2.87064">
        <ele>72.6</ele>
        <time>2023-08-05T14:52:29Z</time>
      </trkpt>
      <trkpt lat="50.68276" lon="2.87061">
        <ele>72.6</ele>
        <time>2023-08-05T14:52:30Z</time>
      </trkpt>
      <trkpt lat="50.68275" lon="2.87061">
        <ele>72.6</ele>
        <time>2023-08-05T14:52:31Z</time>
      </trkpt>
      <trkpt lat="50.68274" lon="2.87063">
        <ele>72.6</ele>
        <time>2023-08-05T14:52:32Z</time>
      </trkpt>
      <trkpt lat="50.68275" lon="2.87066">
        <ele>72.6</ele>
        <time>2023-08-05T14:52:33Z</time>
      </trkpt>
      <trkpt lat="50.68276" lon="2.8707">
        <ele>72.6</ele>
        <time>2023-08-05T14:52:34Z</time>
      </trkpt>
      <trkpt lat="50.68279" lon="2.87085">
        <ele>72.8</ele>
        <time>2023-08-05T14:52:37Z</time>
      </trkpt>
      <trkpt lat="50.68283" lon="2.8711">
        <ele>73</ele>
        <time>2023-08-05T14:52:41Z</time>
      </trkpt>
      <trkpt lat="50.68282" lon="2.87116">
        <ele>73</ele>
        <time>2023-08-05T14:52:42Z</time>
      </trkpt>
      <trkpt lat="50.68281" lon="2.87121">
        <ele>73</ele>
        <time>2023-08-05T14:52:43Z</time>
      </trkpt>
      <trkpt lat="50.68278" lon="2.87126">
        <ele>73</ele>
        <time>2023-08-05T14:52:44Z</time>
      </trkpt>
      <trkpt lat="50.68275" lon="2.87129">
        <ele>72.8</ele>
        <time>2023-08-05T14:52:45Z</time>
      </trkpt>
      <trkpt lat="50.68272" lon="2.87132">
        <ele>72.8</ele>
        <time>2023-08-05T14:52:46Z</time>
      </trkpt>
      <trkpt lat="50.68268" lon="2.87134">
        <ele>72.8</ele>
        <time>2023-08-05T14:52:47Z</time>
      </trkpt>
      <trkpt lat="50.68264" lon="2.87143">
        <ele>72.8</ele>
        <time>2023-08-05T14:52:49Z</time>
      </trkpt>
      <trkpt lat="50.6825" lon="2.87165">
        <ele>72.8</ele>
        <time>2023-08-05T14:52:54Z</time>
      </trkpt>
      <trkpt lat="50.6824" lon="2.87192">
        <ele>72.8</ele>
        <time>2023-08-05T14:52:59Z</time>
      </trkpt>
      <trkpt lat="50.68239" lon="2.87198">
        <ele>72.8</ele>
        <time>2023-08-05T14:53:00Z</time>
      </trkpt>
      <trkpt lat="50.68237" lon="2.87205">
        <ele>72.8</ele>
        <time>2023-08-05T14:53:01Z</time>
      </trkpt>
      <trkpt lat="50.68231" lon="2.87211">
        <ele>72.8</ele>
        <time>2023-08-05T14:53:03Z</time>
      </trkpt>
      <trkpt lat="50.68227" lon="2.87213">
        <ele>72.6</ele>
        <time>2023-08-05T14:53:04Z</time>
      </trkpt>
      <trkpt lat="50.68223" lon="2.87214">
        <ele>72.6</ele>
        <time>2023-08-05T14:53:05Z</time>
      </trkpt>
      <trkpt lat="50.6822" lon="2.87216">
        <ele>72.6</ele>
        <time>2023-08-05T14:53:06Z</time>
      </trkpt>
      <trkpt lat="50.68217" lon="2.87219">
        <ele>72.6</ele>
        <time>2023-08-05T14:53:07Z</time>
      </trkpt>
      <trkpt lat="50.68215" lon="2.87222">
        <ele>72.6</ele>
        <time>2023-08-05T14:53:08Z</time>
      </trkpt>
      <trkpt lat="50.68212" lon="2.87225">
        <ele>72.6</ele>
        <time>2023-08-05T14:53:09Z</time>
      </trkpt>
      <trkpt lat="50.6821" lon="2.8723">
        <ele>72.4</ele>
        <time>2023-08-05T14:53:10Z</time>
      </trkpt>
      <trkpt lat="50.68208" lon="2.87235">
        <ele>72.4</ele>
        <time>2023-08-05T14:53:11Z</time>
      </trkpt>
      <trkpt lat="50.68206" lon="2.87241">
        <ele>72.4</ele>
        <time>2023-08-05T14:53:12Z</time>
      </trkpt>
      <trkpt lat="50.68204" lon="2.87246">
        <ele>72.4</ele>
        <time>2023-08-05T14:53:13Z</time>
      </trkpt>
      <trkpt lat="50.68193" lon="2.87255">
        <ele>72.4</ele>
        <time>2023-08-05T14:53:16Z</time>
      </trkpt>
      <trkpt lat="50.68189" lon="2.87255">
        <ele>72.2</ele>
        <time>2023-08-05T14:53:17Z</time>
      </trkpt>
      <trkpt lat="50.68184" lon="2.87254">
        <ele>72.2</ele>
        <time>2023-08-05T14:53:18Z</time>
      </trkpt>
      <trkpt lat="50.68179" lon="2.87253">
        <ele>72</ele>
        <time>2023-08-05T14:53:19Z</time>
      </trkpt>
      <trkpt lat="50.68175" lon="2.87251">
        <ele>72</ele>
        <time>2023-08-05T14:53:20Z</time>
      </trkpt>
      <trkpt lat="50.6817" lon="2.8725">
        <ele>71.8</ele>
        <time>2023-08-05T14:53:21Z</time>
      </trkpt>
      <trkpt lat="50.68165" lon="2.87248">
        <ele>71.6</ele>
        <time>2023-08-05T14:53:22Z</time>
      </trkpt>
      <trkpt lat="50.68149" lon="2.87244">
        <ele>71.4</ele>
        <time>2023-08-05T14:53:25Z</time>
      </trkpt>
      <trkpt lat="50.68142" lon="2.87242">
        <ele>71</ele>
        <time>2023-08-05T14:53:26Z</time>
      </trkpt>
      <trkpt lat="50.68111" lon="2.87234">
        <ele>69.8</ele>
        <time>2023-08-05T14:53:31Z</time>
      </trkpt>
      <trkpt lat="50.68103" lon="2.87234">
        <ele>69.6</ele>
        <time>2023-08-05T14:53:32Z</time>
      </trkpt>
      <trkpt lat="50.68098" lon="2.87233">
        <ele>69.4</ele>
        <time>2023-08-05T14:53:33Z</time>
      </trkpt>
      <trkpt lat="50.68093" lon="2.87234">
        <ele>69.4</ele>
        <time>2023-08-05T14:53:34Z</time>
      </trkpt>
      <trkpt lat="50.68087" lon="2.87234">
        <ele>69.2</ele>
        <time>2023-08-05T14:53:35Z</time>
      </trkpt>
      <trkpt lat="50.68081" lon="2.87234">
        <ele>69.2</ele>
        <time>2023-08-05T14:53:36Z</time>
      </trkpt>
      <trkpt lat="50.68077" lon="2.87234">
        <ele>69.2</ele>
        <time>2023-08-05T14:53:37Z</time>
      </trkpt>
      <trkpt lat="50.68072" lon="2.87235">
        <ele>69</ele>
        <time>2023-08-05T14:53:38Z</time>
      </trkpt>
      <trkpt lat="50.68068" lon="2.87236">
        <ele>69</ele>
        <time>2023-08-05T14:53:39Z</time>
      </trkpt>
      <trkpt lat="50.68064" lon="2.87237">
        <ele>69</ele>
        <time>2023-08-05T14:53:40Z</time>
      </trkpt>
      <trkpt lat="50.6806" lon="2.87238">
        <ele>69</ele>
        <time>2023-08-05T14:53:41Z</time>
      </trkpt>
      <trkpt lat="50.68052" lon="2.8724">
        <ele>69.2</ele>
        <time>2023-08-05T14:53:43Z</time>
      </trkpt>
      <trkpt lat="50.68048" lon="2.87241">
        <ele>69.2</ele>
        <time>2023-08-05T14:53:44Z</time>
      </trkpt>
      <trkpt lat="50.68045" lon="2.87243">
        <ele>69.4</ele>
        <time>2023-08-05T14:53:45Z</time>
      </trkpt>
      <trkpt lat="50.68041" lon="2.87244">
        <ele>69.6</ele>
        <time>2023-08-05T14:53:46Z</time>
      </trkpt>
      <trkpt lat="50.68037" lon="2.87246">
        <ele>69.6</ele>
        <time>2023-08-05T14:53:47Z</time>
      </trkpt>
      <trkpt lat="50.68034" lon="2.87248">
        <ele>69.8</ele>
        <time>2023-08-05T14:53:48Z</time>
      </trkpt>
      <trkpt lat="50.6803" lon="2.8725">
        <ele>70</ele>
        <time>2023-08-05T14:53:49Z</time>
      </trkpt>
      <trkpt lat="50.68027" lon="2.87252">
        <ele>70.2</ele>
        <time>2023-08-05T14:53:50Z</time>
      </trkpt>
      <trkpt lat="50.68024" lon="2.87254">
        <ele>70.4</ele>
        <time>2023-08-05T14:53:51Z</time>
      </trkpt>
      <trkpt lat="50.6802" lon="2.87256">
        <ele>70.6</ele>
        <time>2023-08-05T14:53:52Z</time>
      </trkpt>
      <trkpt lat="50.68017" lon="2.87258">
        <ele>70.6</ele>
        <time>2023-08-05T14:53:53Z</time>
      </trkpt>
      <trkpt lat="50.68015" lon="2.8726">
        <ele>70.8</ele>
        <time>2023-08-05T14:53:54Z</time>
      </trkpt>
      <trkpt lat="50.68012" lon="2.87262">
        <ele>71</ele>
        <time>2023-08-05T14:53:55Z</time>
      </trkpt>
      <trkpt lat="50.68009" lon="2.87264">
        <ele>71.2</ele>
        <time>2023-08-05T14:53:56Z</time>
      </trkpt>
      <trkpt lat="50.68006" lon="2.87267">
        <ele>71.4</ele>
        <time>2023-08-05T14:53:57Z</time>
      </trkpt>
      <trkpt lat="50.68003" lon="2.8727">
        <ele>71.4</ele>
        <time>2023-08-05T14:53:58Z</time>
      </trkpt>
      <trkpt lat="50.68" lon="2.87272">
        <ele>71.6</ele>
        <time>2023-08-05T14:53:59Z</time>
      </trkpt>
      <trkpt lat="50.67998" lon="2.87274">
        <ele>71.8</ele>
        <time>2023-08-05T14:54:00Z</time>
      </trkpt>
      <trkpt lat="50.67994" lon="2.87277">
        <ele>72</ele>
        <time>2023-08-05T14:54:01Z</time>
      </trkpt>
      <trkpt lat="50.67991" lon="2.87279">
        <ele>72</ele>
        <time>2023-08-05T14:54:02Z</time>
      </trkpt>
      <trkpt lat="50.6798" lon="2.87288">
        <ele>72.6</ele>
        <time>2023-08-05T14:54:06Z</time>
      </trkpt>
      <trkpt lat="50.67975" lon="2.87293">
        <ele>72.8</ele>
        <time>2023-08-05T14:54:08Z</time>
      </trkpt>
      <trkpt lat="50.67972" lon="2.87295">
        <ele>72.8</ele>
        <time>2023-08-05T14:54:09Z</time>
      </trkpt>
      <trkpt lat="50.67968" lon="2.87295">
        <ele>73</ele>
        <time>2023-08-05T14:54:10Z</time>
      </trkpt>
      <trkpt lat="50.67965" lon="2.87294">
        <ele>73.2</ele>
        <time>2023-08-05T14:54:11Z</time>
      </trkpt>
      <trkpt lat="50.67962" lon="2.87293">
        <ele>73.4</ele>
        <time>2023-08-05T14:54:12Z</time>
      </trkpt>
      <trkpt lat="50.67959" lon="2.87291">
        <ele>73.4</ele>
        <time>2023-08-05T14:54:13Z</time>
      </trkpt>
      <trkpt lat="50.67956" lon="2.87291">
        <ele>73.6</ele>
        <time>2023-08-05T14:54:14Z</time>
      </trkpt>
      <trkpt lat="50.67953" lon="2.87291">
        <ele>73.6</ele>
        <time>2023-08-05T14:54:15Z</time>
      </trkpt>
      <trkpt lat="50.6795" lon="2.87292">
        <ele>73.6</ele>
        <time>2023-08-05T14:54:16Z</time>
      </trkpt>
      <trkpt lat="50.67946" lon="2.87295">
        <ele>73.8</ele>
        <time>2023-08-05T14:54:17Z</time>
      </trkpt>
      <trkpt lat="50.67944" lon="2.87297">
        <ele>73.8</ele>
        <time>2023-08-05T14:54:18Z</time>
      </trkpt>
      <trkpt lat="50.67941" lon="2.87301">
        <ele>73.8</ele>
        <time>2023-08-05T14:54:19Z</time>
      </trkpt>
      <trkpt lat="50.67939" lon="2.87305">
        <ele>73.8</ele>
        <time>2023-08-05T14:54:20Z</time>
      </trkpt>
      <trkpt lat="50.67937" lon="2.87311">
        <ele>73.8</ele>
        <time>2023-08-05T14:54:21Z</time>
      </trkpt>
      <trkpt lat="50.67935" lon="2.87317">
        <ele>74</ele>
        <time>2023-08-05T14:54:22Z</time>
      </trkpt>
      <trkpt lat="50.67934" lon="2.87321">
        <ele>74</ele>
        <time>2023-08-05T14:54:23Z</time>
      </trkpt>
      <trkpt lat="50.67934" lon="2.87321">
        <ele>74</ele>
        <time>2023-08-05T14:54:24Z</time>
      </trkpt>
      <trkpt lat="50.6793" lon="2.87331">
        <ele>74</ele>
        <time>2023-08-05T14:54:25Z</time>
      </trkpt>
      <trkpt lat="50.67927" lon="2.87335">
        <ele>74</ele>
        <time>2023-08-05T14:54:26Z</time>
      </trkpt>
      <trkpt lat="50.67924" lon="2.87339">
        <ele>74</ele>
        <time>2023-08-05T14:54:27Z</time>
      </trkpt>
      <trkpt lat="50.67921" lon="2.87342">
        <ele>74</ele>
        <time>2023-08-05T14:54:28Z</time>
      </trkpt>
      <trkpt lat="50.67917" lon="2.87344">
        <ele>74</ele>
        <time>2023-08-05T14:54:29Z</time>
      </trkpt>
      <trkpt lat="50.67913" lon="2.87347">
        <ele>74</ele>
        <time>2023-08-05T14:54:30Z</time>
      </trkpt>
      <trkpt lat="50.67909" lon="2.8735">
        <ele>74</ele>
        <time>2023-08-05T14:54:31Z</time>
      </trkpt>
      <trkpt lat="50.67884" lon="2.87369">
        <ele>73.8</ele>
        <time>2023-08-05T14:54:38Z</time>
      </trkpt>
      <trkpt lat="50.67874" lon="2.87379">
        <ele>73.8</ele>
        <time>2023-08-05T14:54:41Z</time>
      </trkpt>
      <trkpt lat="50.67856" lon="2.87396">
        <ele>73.8</ele>
        <time>2023-08-05T14:54:46Z</time>
      </trkpt>
      <trkpt lat="50.67853" lon="2.87399">
        <ele>73.8</ele>
        <time>2023-08-05T14:54:47Z</time>
      </trkpt>
      <trkpt lat="50.67847" lon="2.87416">
        <ele>74</ele>
        <time>2023-08-05T14:54:50Z</time>
      </trkpt>
      <trkpt lat="50.67845" lon="2.87423">
        <ele>73.8</ele>
        <time>2023-08-05T14:54:51Z</time>
      </trkpt>
      <trkpt lat="50.67845" lon="2.87429">
        <ele>73.8</ele>
        <time>2023-08-05T14:54:52Z</time>
      </trkpt>
      <trkpt lat="50.67844" lon="2.87436">
        <ele>73.8</ele>
        <time>2023-08-05T14:54:53Z</time>
      </trkpt>
      <trkpt lat="50.67842" lon="2.87455">
        <ele>73.8</ele>
        <time>2023-08-05T14:54:56Z</time>
      </trkpt>
      <trkpt lat="50.67839" lon="2.87487">
        <ele>73.8</ele>
        <time>2023-08-05T14:55:01Z</time>
      </trkpt>
      <trkpt lat="50.67839" lon="2.87493">
        <ele>73.8</ele>
        <time>2023-08-05T14:55:02Z</time>
      </trkpt>
      <trkpt lat="50.67838" lon="2.87513">
        <ele>73.8</ele>
        <time>2023-08-05T14:55:05Z</time>
      </trkpt>
      <trkpt lat="50.67832" lon="2.87568">
        <ele>74</ele>
        <time>2023-08-05T14:55:13Z</time>
      </trkpt>
      <trkpt lat="50.67823" lon="2.87656">
        <ele>73.8</ele>
        <time>2023-08-05T14:55:26Z</time>
      </trkpt>
      <trkpt lat="50.67823" lon="2.87664">
        <ele>73.8</ele>
        <time>2023-08-05T14:55:27Z</time>
      </trkpt>
      <trkpt lat="50.67817" lon="2.87718">
        <ele>73.8</ele>
        <time>2023-08-05T14:55:35Z</time>
      </trkpt>
      <trkpt lat="50.67811" lon="2.87776">
        <ele>73.8</ele>
        <time>2023-08-05T14:55:43Z</time>
      </trkpt>
      <trkpt lat="50.6781" lon="2.87781">
        <ele>73.8</ele>
        <time>2023-08-05T14:55:44Z</time>
      </trkpt>
      <trkpt lat="50.67806" lon="2.8781">
        <ele>73.6</ele>
        <time>2023-08-05T14:55:48Z</time>
      </trkpt>
      <trkpt lat="50.67805" lon="2.87816">
        <ele>73.6</ele>
        <time>2023-08-05T14:55:49Z</time>
      </trkpt>
      <trkpt lat="50.67804" lon="2.87823">
        <ele>73.8</ele>
        <time>2023-08-05T14:55:50Z</time>
      </trkpt>
      <trkpt lat="50.67802" lon="2.8785">
        <ele>73.8</ele>
        <time>2023-08-05T14:55:54Z</time>
      </trkpt>
      <trkpt lat="50.67801" lon="2.87871">
        <ele>73.8</ele>
        <time>2023-08-05T14:55:57Z</time>
      </trkpt>
      <trkpt lat="50.67796" lon="2.87922">
        <ele>74</ele>
        <time>2023-08-05T14:56:04Z</time>
      </trkpt>
      <trkpt lat="50.67789" lon="2.87996">
        <ele>74</ele>
        <time>2023-08-05T14:56:14Z</time>
      </trkpt>
      <trkpt lat="50.67782" lon="2.88056">
        <ele>73.8</ele>
        <time>2023-08-05T14:56:22Z</time>
      </trkpt>
      <trkpt lat="50.67781" lon="2.88062">
        <ele>74</ele>
        <time>2023-08-05T14:56:23Z</time>
      </trkpt>
      <trkpt lat="50.6778" lon="2.88101">
        <ele>74.2</ele>
        <time>2023-08-05T14:56:28Z</time>
      </trkpt>
      <trkpt lat="50.67771" lon="2.88187">
        <ele>74.2</ele>
        <time>2023-08-05T14:56:39Z</time>
      </trkpt>
      <trkpt lat="50.67763" lon="2.88262">
        <ele>74.2</ele>
        <time>2023-08-05T14:56:50Z</time>
      </trkpt>
      <trkpt lat="50.67761" lon="2.88286">
        <ele>74</ele>
        <time>2023-08-05T14:56:52Z</time>
      </trkpt>
      <trkpt lat="50.67754" lon="2.88355">
        <ele>74</ele>
        <time>2023-08-05T14:57:01Z</time>
      </trkpt>
      <trkpt lat="50.67746" lon="2.88423">
        <ele>73.6</ele>
        <time>2023-08-05T14:57:10Z</time>
      </trkpt>
      <trkpt lat="50.67745" lon="2.88431">
        <ele>73.6</ele>
        <time>2023-08-05T14:57:11Z</time>
      </trkpt>
      <trkpt lat="50.67745" lon="2.88439">
        <ele>73.6</ele>
        <time>2023-08-05T14:57:12Z</time>
      </trkpt>
      <trkpt lat="50.67745" lon="2.88446">
        <ele>73.6</ele>
        <time>2023-08-05T14:57:13Z</time>
      </trkpt>
      <trkpt lat="50.67744" lon="2.88462">
        <ele>73.6</ele>
        <time>2023-08-05T14:57:15Z</time>
      </trkpt>
      <trkpt lat="50.67742" lon="2.88485">
        <ele>74</ele>
        <time>2023-08-05T14:57:18Z</time>
      </trkpt>
      <trkpt lat="50.67735" lon="2.88554">
        <ele>74.2</ele>
        <time>2023-08-05T14:57:27Z</time>
      </trkpt>
      <trkpt lat="50.67732" lon="2.88585">
        <ele>74.4</ele>
        <time>2023-08-05T14:57:31Z</time>
      </trkpt>
      <trkpt lat="50.67731" lon="2.88592">
        <ele>74.4</ele>
        <time>2023-08-05T14:57:32Z</time>
      </trkpt>
      <trkpt lat="50.67731" lon="2.886">
        <ele>74.4</ele>
        <time>2023-08-05T14:57:33Z</time>
      </trkpt>
      <trkpt lat="50.6773" lon="2.88607">
        <ele>74.4</ele>
        <time>2023-08-05T14:57:34Z</time>
      </trkpt>
      <trkpt lat="50.67728" lon="2.88631">
        <ele>74.4</ele>
        <time>2023-08-05T14:57:37Z</time>
      </trkpt>
      <trkpt lat="50.67725" lon="2.88662">
        <ele>74.4</ele>
        <time>2023-08-05T14:57:41Z</time>
      </trkpt>
      <trkpt lat="50.67722" lon="2.88699">
        <ele>74.2</ele>
        <time>2023-08-05T14:57:46Z</time>
      </trkpt>
      <trkpt lat="50.67721" lon="2.88707">
        <ele>74.2</ele>
        <time>2023-08-05T14:57:47Z</time>
      </trkpt>
      <trkpt lat="50.67721" lon="2.88714">
        <ele>74.2</ele>
        <time>2023-08-05T14:57:48Z</time>
      </trkpt>
      <trkpt lat="50.67721" lon="2.88723">
        <ele>74.2</ele>
        <time>2023-08-05T14:57:49Z</time>
      </trkpt>
      <trkpt lat="50.67716" lon="2.88761">
        <ele>74.2</ele>
        <time>2023-08-05T14:57:54Z</time>
      </trkpt>
      <trkpt lat="50.67711" lon="2.88772">
        <ele>74.4</ele>
        <time>2023-08-05T14:57:56Z</time>
      </trkpt>
      <trkpt lat="50.67705" lon="2.88782">
        <ele>74.4</ele>
        <time>2023-08-05T14:57:58Z</time>
      </trkpt>
      <trkpt lat="50.67702" lon="2.88787">
        <ele>74.4</ele>
        <time>2023-08-05T14:57:59Z</time>
      </trkpt>
      <trkpt lat="50.67699" lon="2.88792">
        <ele>74.4</ele>
        <time>2023-08-05T14:58:00Z</time>
      </trkpt>
      <trkpt lat="50.67697" lon="2.88797">
        <ele>74.4</ele>
        <time>2023-08-05T14:58:01Z</time>
      </trkpt>
      <trkpt lat="50.67694" lon="2.88801">
        <ele>74.2</ele>
        <time>2023-08-05T14:58:02Z</time>
      </trkpt>
      <trkpt lat="50.6769" lon="2.88806">
        <ele>74.2</ele>
        <time>2023-08-05T14:58:03Z</time>
      </trkpt>
      <trkpt lat="50.67687" lon="2.88811">
        <ele>74.2</ele>
        <time>2023-08-05T14:58:04Z</time>
      </trkpt>
      <trkpt lat="50.67684" lon="2.88816">
        <ele>74.2</ele>
        <time>2023-08-05T14:58:05Z</time>
      </trkpt>
      <trkpt lat="50.67682" lon="2.88821">
        <ele>74.2</ele>
        <time>2023-08-05T14:58:06Z</time>
      </trkpt>
      <trkpt lat="50.67679" lon="2.88826">
        <ele>74.4</ele>
        <time>2023-08-05T14:58:07Z</time>
      </trkpt>
      <trkpt lat="50.67677" lon="2.88831">
        <ele>74.6</ele>
        <time>2023-08-05T14:58:08Z</time>
      </trkpt>
      <trkpt lat="50.67675" lon="2.88835">
        <ele>74.6</ele>
        <time>2023-08-05T14:58:09Z</time>
      </trkpt>
      <trkpt lat="50.67672" lon="2.8884">
        <ele>74.6</ele>
        <time>2023-08-05T14:58:10Z</time>
      </trkpt>
      <trkpt lat="50.67669" lon="2.88844">
        <ele>74.8</ele>
        <time>2023-08-05T14:58:11Z</time>
      </trkpt>
      <trkpt lat="50.67666" lon="2.88849">
        <ele>74.8</ele>
        <time>2023-08-05T14:58:12Z</time>
      </trkpt>
      <trkpt lat="50.67663" lon="2.88855">
        <ele>74.8</ele>
        <time>2023-08-05T14:58:13Z</time>
      </trkpt>
      <trkpt lat="50.67661" lon="2.8886">
        <ele>74.8</ele>
        <time>2023-08-05T14:58:14Z</time>
      </trkpt>
      <trkpt lat="50.67658" lon="2.88864">
        <ele>75</ele>
        <time>2023-08-05T14:58:15Z</time>
      </trkpt>
      <trkpt lat="50.67655" lon="2.88869">
        <ele>75</ele>
        <time>2023-08-05T14:58:16Z</time>
      </trkpt>
      <trkpt lat="50.67649" lon="2.88878">
        <ele>75</ele>
        <time>2023-08-05T14:58:18Z</time>
      </trkpt>
      <trkpt lat="50.67644" lon="2.88896">
        <ele>74.8</ele>
        <time>2023-08-05T14:58:21Z</time>
      </trkpt>
      <trkpt lat="50.67643" lon="2.88902">
        <ele>74.8</ele>
        <time>2023-08-05T14:58:22Z</time>
      </trkpt>
      <trkpt lat="50.6764" lon="2.88907">
        <ele>74.8</ele>
        <time>2023-08-05T14:58:23Z</time>
      </trkpt>
      <trkpt lat="50.67638" lon="2.88912">
        <ele>74.8</ele>
        <time>2023-08-05T14:58:24Z</time>
      </trkpt>
      <trkpt lat="50.67632" lon="2.88921">
        <ele>74.8</ele>
        <time>2023-08-05T14:58:26Z</time>
      </trkpt>
      <trkpt lat="50.67627" lon="2.88931">
        <ele>74.8</ele>
        <time>2023-08-05T14:58:28Z</time>
      </trkpt>
      <trkpt lat="50.67625" lon="2.88935">
        <ele>74.8</ele>
        <time>2023-08-05T14:58:29Z</time>
      </trkpt>
      <trkpt lat="50.67621" lon="2.88941">
        <ele>74.8</ele>
        <time>2023-08-05T14:58:30Z</time>
      </trkpt>
      <trkpt lat="50.67616" lon="2.8895">
        <ele>74.8</ele>
        <time>2023-08-05T14:58:32Z</time>
      </trkpt>
      <trkpt lat="50.676" lon="2.88974">
        <ele>74.8</ele>
        <time>2023-08-05T14:58:37Z</time>
      </trkpt>
      <trkpt lat="50.67573" lon="2.89018">
        <ele>74.6</ele>
        <time>2023-08-05T14:58:46Z</time>
      </trkpt>
      <trkpt lat="50.6757" lon="2.89023">
        <ele>74.6</ele>
        <time>2023-08-05T14:58:47Z</time>
      </trkpt>
      <trkpt lat="50.67567" lon="2.89027">
        <ele>74.6</ele>
        <time>2023-08-05T14:58:48Z</time>
      </trkpt>
      <trkpt lat="50.67563" lon="2.89032">
        <ele>74.6</ele>
        <time>2023-08-05T14:58:49Z</time>
      </trkpt>
      <trkpt lat="50.67536" lon="2.89075">
        <ele>75</ele>
        <time>2023-08-05T14:58:58Z</time>
      </trkpt>
      <trkpt lat="50.67533" lon="2.8908">
        <ele>75</ele>
        <time>2023-08-05T14:58:59Z</time>
      </trkpt>
      <trkpt lat="50.67524" lon="2.89095">
        <ele>75</ele>
        <time>2023-08-05T14:59:02Z</time>
      </trkpt>
      <trkpt lat="50.67521" lon="2.89099">
        <ele>75</ele>
        <time>2023-08-05T14:59:03Z</time>
      </trkpt>
      <trkpt lat="50.67517" lon="2.89104">
        <ele>75</ele>
        <time>2023-08-05T14:59:04Z</time>
      </trkpt>
      <trkpt lat="50.67514" lon="2.89109">
        <ele>75</ele>
        <time>2023-08-05T14:59:05Z</time>
      </trkpt>
      <trkpt lat="50.67511" lon="2.89114">
        <ele>75</ele>
        <time>2023-08-05T14:59:06Z</time>
      </trkpt>
      <trkpt lat="50.67498" lon="2.89134">
        <ele>75</ele>
        <time>2023-08-05T14:59:10Z</time>
      </trkpt>
      <trkpt lat="50.67495" lon="2.89138">
        <ele>75</ele>
        <time>2023-08-05T14:59:11Z</time>
      </trkpt>
      <trkpt lat="50.67488" lon="2.8915">
        <ele>75</ele>
        <time>2023-08-05T14:59:13Z</time>
      </trkpt>
      <trkpt lat="50.6748" lon="2.89166">
        <ele>75</ele>
        <time>2023-08-05T14:59:16Z</time>
      </trkpt>
      <trkpt lat="50.67461" lon="2.89193">
        <ele>75</ele>
        <time>2023-08-05T14:59:22Z</time>
      </trkpt>
      <trkpt lat="50.67457" lon="2.89198">
        <ele>75</ele>
        <time>2023-08-05T14:59:23Z</time>
      </trkpt>
      <trkpt lat="50.67453" lon="2.89202">
        <ele>75</ele>
        <time>2023-08-05T14:59:24Z</time>
      </trkpt>
      <trkpt lat="50.67439" lon="2.89226">
        <ele>75</ele>
        <time>2023-08-05T14:59:29Z</time>
      </trkpt>
      <trkpt lat="50.67428" lon="2.89246">
        <ele>74.8</ele>
        <time>2023-08-05T14:59:33Z</time>
      </trkpt>
      <trkpt lat="50.67425" lon="2.89251">
        <ele>74.8</ele>
        <time>2023-08-05T14:59:34Z</time>
      </trkpt>
      <trkpt lat="50.67421" lon="2.89256">
        <ele>74.8</ele>
        <time>2023-08-05T14:59:35Z</time>
      </trkpt>
      <trkpt lat="50.67418" lon="2.89261">
        <ele>74.8</ele>
        <time>2023-08-05T14:59:36Z</time>
      </trkpt>
      <trkpt lat="50.67416" lon="2.89265">
        <ele>74.8</ele>
        <time>2023-08-05T14:59:37Z</time>
      </trkpt>
      <trkpt lat="50.67412" lon="2.8927">
        <ele>74.8</ele>
        <time>2023-08-05T14:59:38Z</time>
      </trkpt>
      <trkpt lat="50.6741" lon="2.89275">
        <ele>74.8</ele>
        <time>2023-08-05T14:59:39Z</time>
      </trkpt>
      <trkpt lat="50.67389" lon="2.89306">
        <ele>74.6</ele>
        <time>2023-08-05T14:59:45Z</time>
      </trkpt>
      <trkpt lat="50.67361" lon="2.8935">
        <ele>74.8</ele>
        <time>2023-08-05T14:59:53Z</time>
      </trkpt>
      <trkpt lat="50.67351" lon="2.89364">
        <ele>74.8</ele>
        <time>2023-08-05T14:59:56Z</time>
      </trkpt>
      <trkpt lat="50.67346" lon="2.89374">
        <ele>74.8</ele>
        <time>2023-08-05T14:59:58Z</time>
      </trkpt>
      <trkpt lat="50.67343" lon="2.89378">
        <ele>74.8</ele>
        <time>2023-08-05T14:59:59Z</time>
      </trkpt>
      <trkpt lat="50.6734" lon="2.89383">
        <ele>74.8</ele>
        <time>2023-08-05T15:00:00Z</time>
      </trkpt>
      <trkpt lat="50.67337" lon="2.89389">
        <ele>74.8</ele>
        <time>2023-08-05T15:00:01Z</time>
      </trkpt>
      <trkpt lat="50.67333" lon="2.89394">
        <ele>74.8</ele>
        <time>2023-08-05T15:00:02Z</time>
      </trkpt>
      <trkpt lat="50.6733" lon="2.89399">
        <ele>74.8</ele>
        <time>2023-08-05T15:00:03Z</time>
      </trkpt>
      <trkpt lat="50.67316" lon="2.89423">
        <ele>74.8</ele>
        <time>2023-08-05T15:00:08Z</time>
      </trkpt>
      <trkpt lat="50.67307" lon="2.89441">
        <ele>74.8</ele>
        <time>2023-08-05T15:00:11Z</time>
      </trkpt>
      <trkpt lat="50.67299" lon="2.89467">
        <ele>74.6</ele>
        <time>2023-08-05T15:00:15Z</time>
      </trkpt>
      <trkpt lat="50.67286" lon="2.89524">
        <ele>74.6</ele>
        <time>2023-08-05T15:00:23Z</time>
      </trkpt>
      <trkpt lat="50.6727" lon="2.89588">
        <ele>74.8</ele>
        <time>2023-08-05T15:00:33Z</time>
      </trkpt>
      <trkpt lat="50.67252" lon="2.89668">
        <ele>74.8</ele>
        <time>2023-08-05T15:00:43Z</time>
      </trkpt>
      <trkpt lat="50.6725" lon="2.89674">
        <ele>74.8</ele>
        <time>2023-08-05T15:00:44Z</time>
      </trkpt>
      <trkpt lat="50.67248" lon="2.89682">
        <ele>74.8</ele>
        <time>2023-08-05T15:00:45Z</time>
      </trkpt>
      <trkpt lat="50.67248" lon="2.89682">
        <ele>74.8</ele>
        <time>2023-08-05T15:00:46Z</time>
      </trkpt>
      <trkpt lat="50.67247" lon="2.89687">
        <ele>74.8</ele>
        <time>2023-08-05T15:00:47Z</time>
      </trkpt>
      <trkpt lat="50.67246" lon="2.89693">
        <ele>74.8</ele>
        <time>2023-08-05T15:00:48Z</time>
      </trkpt>
      <trkpt lat="50.67244" lon="2.89699">
        <ele>74.8</ele>
        <time>2023-08-05T15:00:49Z</time>
      </trkpt>
      <trkpt lat="50.67241" lon="2.89709">
        <ele>74.8</ele>
        <time>2023-08-05T15:00:50Z</time>
      </trkpt>
      <trkpt lat="50.67239" lon="2.89714">
        <ele>74.8</ele>
        <time>2023-08-05T15:00:51Z</time>
      </trkpt>
      <trkpt lat="50.67239" lon="2.89714">
        <ele>74.8</ele>
        <time>2023-08-05T15:00:52Z</time>
      </trkpt>
      <trkpt lat="50.67238" lon="2.8972">
        <ele>74.8</ele>
        <time>2023-08-05T15:00:53Z</time>
      </trkpt>
      <trkpt lat="50.67228" lon="2.89747">
        <ele>74.8</ele>
        <time>2023-08-05T15:00:58Z</time>
      </trkpt>
      <trkpt lat="50.67223" lon="2.89756">
        <ele>74.8</ele>
        <time>2023-08-05T15:00:59Z</time>
      </trkpt>
      <trkpt lat="50.67222" lon="2.8976">
        <ele>74.8</ele>
        <time>2023-08-05T15:01:00Z</time>
      </trkpt>
      <trkpt lat="50.67222" lon="2.8976">
        <ele>74.6</ele>
        <time>2023-08-05T15:01:01Z</time>
      </trkpt>
      <trkpt lat="50.6722" lon="2.89764">
        <ele>74.6</ele>
        <time>2023-08-05T15:01:02Z</time>
      </trkpt>
      <trkpt lat="50.67219" lon="2.89767">
        <ele>74.6</ele>
        <time>2023-08-05T15:01:03Z</time>
      </trkpt>
      <trkpt lat="50.67216" lon="2.89775">
        <ele>74.6</ele>
        <time>2023-08-05T15:01:04Z</time>
      </trkpt>
      <trkpt lat="50.67215" lon="2.89778">
        <ele>74.8</ele>
        <time>2023-08-05T15:01:05Z</time>
      </trkpt>
      <trkpt lat="50.67214" lon="2.89785">
        <ele>74.8</ele>
        <time>2023-08-05T15:01:08Z</time>
      </trkpt>
      <trkpt lat="50.67212" lon="2.8979">
        <ele>74.8</ele>
        <time>2023-08-05T15:01:09Z</time>
      </trkpt>
      <trkpt lat="50.67211" lon="2.89791">
        <ele>74.8</ele>
        <time>2023-08-05T15:01:10Z</time>
      </trkpt>
      <trkpt lat="50.67211" lon="2.89792">
        <ele>74.8</ele>
        <time>2023-08-05T15:01:11Z</time>
      </trkpt>
      <trkpt lat="50.67211" lon="2.89792">
        <ele>74.8</ele>
        <time>2023-08-05T15:01:12Z</time>
      </trkpt>
      <trkpt lat="50.67211" lon="2.89792">
        <ele>75</ele>
        <time>2023-08-05T15:01:13Z</time>
      </trkpt>
      <trkpt lat="50.6721" lon="2.89802">
        <ele>77.2</ele>
        <time>2023-08-05T15:12:25Z</time>
      </trkpt>
      <trkpt lat="50.6721" lon="2.89805">
        <ele>77.2</ele>
        <time>2023-08-05T15:12:26Z</time>
      </trkpt>
      <trkpt lat="50.67209" lon="2.89809">
        <ele>77.2</ele>
        <time>2023-08-05T15:12:27Z</time>
      </trkpt>
      <trkpt lat="50.67205" lon="2.89823">
        <ele>77.4</ele>
        <time>2023-08-05T15:12:31Z</time>
      </trkpt>
      <trkpt lat="50.67198" lon="2.8984">
        <ele>77.4</ele>
        <time>2023-08-05T15:12:35Z</time>
      </trkpt>
      <trkpt lat="50.67196" lon="2.89845">
        <ele>77.4</ele>
        <time>2023-08-05T15:12:36Z</time>
      </trkpt>
      <trkpt lat="50.67194" lon="2.8985">
        <ele>77.4</ele>
        <time>2023-08-05T15:12:37Z</time>
      </trkpt>
      <trkpt lat="50.67192" lon="2.89857">
        <ele>77.4</ele>
        <time>2023-08-05T15:12:38Z</time>
      </trkpt>
      <trkpt lat="50.67184" lon="2.89877">
        <ele>77.4</ele>
        <time>2023-08-05T15:12:42Z</time>
      </trkpt>
      <trkpt lat="50.67183" lon="2.89883">
        <ele>77.4</ele>
        <time>2023-08-05T15:12:43Z</time>
      </trkpt>
      <trkpt lat="50.67166" lon="2.89921">
        <ele>77.6</ele>
        <time>2023-08-05T15:12:50Z</time>
      </trkpt>
      <trkpt lat="50.67146" lon="2.89964">
        <ele>77.8</ele>
        <time>2023-08-05T15:12:58Z</time>
      </trkpt>
      <trkpt lat="50.67136" lon="2.89986">
        <ele>78</ele>
        <time>2023-08-05T15:13:02Z</time>
      </trkpt>
      <trkpt lat="50.67121" lon="2.90027">
        <ele>78.2</ele>
        <time>2023-08-05T15:13:09Z</time>
      </trkpt>
      <trkpt lat="50.67102" lon="2.90092">
        <ele>78.6</ele>
        <time>2023-08-05T15:13:20Z</time>
      </trkpt>
      <trkpt lat="50.67091" lon="2.90137">
        <ele>78.8</ele>
        <time>2023-08-05T15:13:26Z</time>
      </trkpt>
      <trkpt lat="50.67089" lon="2.90144">
        <ele>78.8</ele>
        <time>2023-08-05T15:13:27Z</time>
      </trkpt>
      <trkpt lat="50.67084" lon="2.90163">
        <ele>79.2</ele>
        <time>2023-08-05T15:13:30Z</time>
      </trkpt>
      <trkpt lat="50.67067" lon="2.90224">
        <ele>78.6</ele>
        <time>2023-08-05T15:13:39Z</time>
      </trkpt>
      <trkpt lat="50.67052" lon="2.90294">
        <ele>78.6</ele>
        <time>2023-08-05T15:13:49Z</time>
      </trkpt>
      <trkpt lat="50.6705" lon="2.903">
        <ele>78.6</ele>
        <time>2023-08-05T15:13:50Z</time>
      </trkpt>
      <trkpt lat="50.67049" lon="2.90307">
        <ele>78.6</ele>
        <time>2023-08-05T15:13:51Z</time>
      </trkpt>
      <trkpt lat="50.67049" lon="2.90314">
        <ele>78.6</ele>
        <time>2023-08-05T15:13:52Z</time>
      </trkpt>
      <trkpt lat="50.67048" lon="2.90321">
        <ele>78.6</ele>
        <time>2023-08-05T15:13:54Z</time>
      </trkpt>
      <trkpt lat="50.67046" lon="2.90334">
        <ele>78.6</ele>
        <time>2023-08-05T15:13:55Z</time>
      </trkpt>
      <trkpt lat="50.67045" lon="2.90341">
        <ele>78.6</ele>
        <time>2023-08-05T15:13:56Z</time>
      </trkpt>
      <trkpt lat="50.6704" lon="2.9036">
        <ele>78.6</ele>
        <time>2023-08-05T15:13:59Z</time>
      </trkpt>
      <trkpt lat="50.67038" lon="2.90369">
        <ele>78.6</ele>
        <time>2023-08-05T15:14:01Z</time>
      </trkpt>
      <trkpt lat="50.67037" lon="2.90372">
        <ele>78.6</ele>
        <time>2023-08-05T15:14:02Z</time>
      </trkpt>
      <trkpt lat="50.67037" lon="2.90374">
        <ele>78.6</ele>
        <time>2023-08-05T15:14:03Z</time>
      </trkpt>
      <trkpt lat="50.67036" lon="2.90375">
        <ele>78.6</ele>
        <time>2023-08-05T15:14:04Z</time>
      </trkpt>
      <trkpt lat="50.67036" lon="2.90375">
        <ele>78.8</ele>
        <time>2023-08-05T15:14:05Z</time>
      </trkpt>
      <trkpt lat="50.67036" lon="2.90377">
        <ele>78.6</ele>
        <time>2023-08-05T15:14:30Z</time>
      </trkpt>
      <trkpt lat="50.67034" lon="2.90388">
        <ele>78.8</ele>
        <time>2023-08-05T15:14:34Z</time>
      </trkpt>
      <trkpt lat="50.67033" lon="2.90391">
        <ele>78.8</ele>
        <time>2023-08-05T15:14:35Z</time>
      </trkpt>
      <trkpt lat="50.67033" lon="2.90394">
        <ele>78.8</ele>
        <time>2023-08-05T15:14:36Z</time>
      </trkpt>
      <trkpt lat="50.67035" lon="2.90399">
        <ele>78.8</ele>
        <time>2023-08-05T15:14:38Z</time>
      </trkpt>
      <trkpt lat="50.67037" lon="2.90401">
        <ele>78.8</ele>
        <time>2023-08-05T15:14:39Z</time>
      </trkpt>
      <trkpt lat="50.67045" lon="2.90407">
        <ele>78.8</ele>
        <time>2023-08-05T15:14:42Z</time>
      </trkpt>
      <trkpt lat="50.67049" lon="2.9041">
        <ele>78.8</ele>
        <time>2023-08-05T15:14:43Z</time>
      </trkpt>
      <trkpt lat="50.67059" lon="2.90418">
        <ele>78.8</ele>
        <time>2023-08-05T15:14:47Z</time>
      </trkpt>
      <trkpt lat="50.67061" lon="2.9042">
        <ele>78.8</ele>
        <time>2023-08-05T15:14:48Z</time>
      </trkpt>
      <trkpt lat="50.67062" lon="2.90421">
        <ele>78.8</ele>
        <time>2023-08-05T15:14:49Z</time>
      </trkpt>
      <trkpt lat="50.67063" lon="2.90423">
        <ele>78.8</ele>
        <time>2023-08-05T15:14:50Z</time>
      </trkpt>
      <trkpt lat="50.67064" lon="2.90424">
        <ele>78.8</ele>
        <time>2023-08-05T15:14:51Z</time>
      </trkpt>
      <trkpt lat="50.67065" lon="2.90425">
        <ele>78.8</ele>
        <time>2023-08-05T15:14:52Z</time>
      </trkpt>
      <trkpt lat="50.67065" lon="2.90419">
        <ele>79</ele>
        <time>2023-08-05T15:14:55Z</time>
      </trkpt>
      <trkpt lat="50.67055" lon="2.90412">
        <ele>79</ele>
        <time>2023-08-05T15:14:59Z</time>
      </trkpt>
      <trkpt lat="50.67054" lon="2.9041">
        <ele>78.8</ele>
        <time>2023-08-05T15:15:00Z</time>
      </trkpt>
      <trkpt lat="50.67043" lon="2.90401">
        <ele>78.8</ele>
        <time>2023-08-05T15:15:05Z</time>
      </trkpt>
      <trkpt lat="50.67043" lon="2.90401">
        <ele>78.8</ele>
        <time>2023-08-05T15:15:06Z</time>
      </trkpt>
      <trkpt lat="50.67043" lon="2.90401">
        <ele>78.8</ele>
        <time>2023-08-05T15:15:07Z</time>
      </trkpt>
      <trkpt lat="50.67043" lon="2.90401">
        <ele>78.8</ele>
        <time>2023-08-05T15:15:08Z</time>
      </trkpt>
      <trkpt lat="50.67035" lon="2.904">
        <ele>78.6</ele>
        <time>2023-08-05T15:15:40Z</time>
      </trkpt>
      <trkpt lat="50.67032" lon="2.90401">
        <ele>78.6</ele>
        <time>2023-08-05T15:15:41Z</time>
      </trkpt>
      <trkpt lat="50.67021" lon="2.90412">
        <ele>78.8</ele>
        <time>2023-08-05T15:15:45Z</time>
      </trkpt>
      <trkpt lat="50.6702" lon="2.90416">
        <ele>79</ele>
        <time>2023-08-05T15:15:46Z</time>
      </trkpt>
      <trkpt lat="50.67019" lon="2.90421">
        <ele>79</ele>
        <time>2023-08-05T15:15:47Z</time>
      </trkpt>
      <trkpt lat="50.67017" lon="2.90426">
        <ele>79</ele>
        <time>2023-08-05T15:15:48Z</time>
      </trkpt>
      <trkpt lat="50.67016" lon="2.9043">
        <ele>79</ele>
        <time>2023-08-05T15:15:49Z</time>
      </trkpt>
      <trkpt lat="50.67012" lon="2.90446">
        <ele>79</ele>
        <time>2023-08-05T15:15:52Z</time>
      </trkpt>
      <trkpt lat="50.67" lon="2.90485">
        <ele>79.2</ele>
        <time>2023-08-05T15:16:00Z</time>
      </trkpt>
      <trkpt lat="50.66982" lon="2.90542">
        <ele>79.2</ele>
        <time>2023-08-05T15:16:09Z</time>
      </trkpt>
      <trkpt lat="50.66967" lon="2.90582">
        <ele>79.2</ele>
        <time>2023-08-05T15:16:16Z</time>
      </trkpt>
      <trkpt lat="50.66947" lon="2.90633">
        <ele>78.8</ele>
        <time>2023-08-05T15:16:25Z</time>
      </trkpt>
      <trkpt lat="50.66938" lon="2.90655">
        <ele>78.6</ele>
        <time>2023-08-05T15:16:29Z</time>
      </trkpt>
      <trkpt lat="50.66931" lon="2.9068">
        <ele>78.6</ele>
        <time>2023-08-05T15:16:33Z</time>
      </trkpt>
      <trkpt lat="50.66919" lon="2.90724">
        <ele>78.6</ele>
        <time>2023-08-05T15:16:40Z</time>
      </trkpt>
      <trkpt lat="50.66914" lon="2.90743">
        <ele>78.6</ele>
        <time>2023-08-05T15:16:43Z</time>
      </trkpt>
      <trkpt lat="50.669" lon="2.90799">
        <ele>78.6</ele>
        <time>2023-08-05T15:16:52Z</time>
      </trkpt>
      <trkpt lat="50.66898" lon="2.90805">
        <ele>78.6</ele>
        <time>2023-08-05T15:16:53Z</time>
      </trkpt>
      <trkpt lat="50.66896" lon="2.90812">
        <ele>78.8</ele>
        <time>2023-08-05T15:16:54Z</time>
      </trkpt>
      <trkpt lat="50.66895" lon="2.90818">
        <ele>78.8</ele>
        <time>2023-08-05T15:16:55Z</time>
      </trkpt>
      <trkpt lat="50.66887" lon="2.90848">
        <ele>79</ele>
        <time>2023-08-05T15:17:00Z</time>
      </trkpt>
      <trkpt lat="50.66882" lon="2.90868">
        <ele>79.2</ele>
        <time>2023-08-05T15:17:03Z</time>
      </trkpt>
      <trkpt lat="50.66869" lon="2.90921">
        <ele>79.2</ele>
        <time>2023-08-05T15:17:11Z</time>
      </trkpt>
      <trkpt lat="50.66865" lon="2.9094">
        <ele>79.2</ele>
        <time>2023-08-05T15:17:14Z</time>
      </trkpt>
      <trkpt lat="50.66863" lon="2.90946">
        <ele>79.2</ele>
        <time>2023-08-05T15:17:15Z</time>
      </trkpt>
      <trkpt lat="50.66862" lon="2.90952">
        <ele>79.2</ele>
        <time>2023-08-05T15:17:16Z</time>
      </trkpt>
      <trkpt lat="50.6686" lon="2.90959">
        <ele>79.2</ele>
        <time>2023-08-05T15:17:17Z</time>
      </trkpt>
      <trkpt lat="50.66857" lon="2.90977">
        <ele>79.2</ele>
        <time>2023-08-05T15:17:20Z</time>
      </trkpt>
      <trkpt lat="50.66855" lon="2.90984">
        <ele>79.2</ele>
        <time>2023-08-05T15:17:21Z</time>
      </trkpt>
      <trkpt lat="50.66852" lon="2.90997">
        <ele>79.2</ele>
        <time>2023-08-05T15:17:23Z</time>
      </trkpt>
      <trkpt lat="50.66842" lon="2.91035">
        <ele>79.6</ele>
        <time>2023-08-05T15:17:29Z</time>
      </trkpt>
      <trkpt lat="50.6684" lon="2.9104">
        <ele>79.8</ele>
        <time>2023-08-05T15:17:30Z</time>
      </trkpt>
      <trkpt lat="50.66834" lon="2.9105">
        <ele>80.2</ele>
        <time>2023-08-05T15:17:32Z</time>
      </trkpt>
      <trkpt lat="50.66831" lon="2.91055">
        <ele>80.2</ele>
        <time>2023-08-05T15:17:33Z</time>
      </trkpt>
      <trkpt lat="50.66823" lon="2.91071">
        <ele>80.4</ele>
        <time>2023-08-05T15:17:36Z</time>
      </trkpt>
      <trkpt lat="50.6682" lon="2.91075">
        <ele>80.6</ele>
        <time>2023-08-05T15:17:37Z</time>
      </trkpt>
      <trkpt lat="50.66817" lon="2.91078">
        <ele>80.6</ele>
        <time>2023-08-05T15:17:38Z</time>
      </trkpt>
      <trkpt lat="50.66813" lon="2.9108">
        <ele>80.6</ele>
        <time>2023-08-05T15:17:39Z</time>
      </trkpt>
      <trkpt lat="50.66809" lon="2.91082">
        <ele>80.6</ele>
        <time>2023-08-05T15:17:40Z</time>
      </trkpt>
      <trkpt lat="50.66805" lon="2.91081">
        <ele>80.8</ele>
        <time>2023-08-05T15:17:41Z</time>
      </trkpt>
      <trkpt lat="50.66802" lon="2.91079">
        <ele>80.8</ele>
        <time>2023-08-05T15:17:42Z</time>
      </trkpt>
      <trkpt lat="50.66798" lon="2.91076">
        <ele>80.8</ele>
        <time>2023-08-05T15:17:43Z</time>
      </trkpt>
      <trkpt lat="50.66795" lon="2.91072">
        <ele>80.8</ele>
        <time>2023-08-05T15:17:44Z</time>
      </trkpt>
      <trkpt lat="50.66791" lon="2.91068">
        <ele>80.8</ele>
        <time>2023-08-05T15:17:45Z</time>
      </trkpt>
      <trkpt lat="50.66788" lon="2.91064">
        <ele>80.8</ele>
        <time>2023-08-05T15:17:46Z</time>
      </trkpt>
      <trkpt lat="50.6677" lon="2.91044">
        <ele>80.2</ele>
        <time>2023-08-05T15:17:51Z</time>
      </trkpt>
      <trkpt lat="50.66757" lon="2.91029">
        <ele>80</ele>
        <time>2023-08-05T15:17:55Z</time>
      </trkpt>
      <trkpt lat="50.66754" lon="2.91025">
        <ele>80</ele>
        <time>2023-08-05T15:17:56Z</time>
      </trkpt>
      <trkpt lat="50.66751" lon="2.91022">
        <ele>79.8</ele>
        <time>2023-08-05T15:17:57Z</time>
      </trkpt>
      <trkpt lat="50.66748" lon="2.91018">
        <ele>79.8</ele>
        <time>2023-08-05T15:17:58Z</time>
      </trkpt>
      <trkpt lat="50.66744" lon="2.91015">
        <ele>79.8</ele>
        <time>2023-08-05T15:17:59Z</time>
      </trkpt>
      <trkpt lat="50.66732" lon="2.90999">
        <ele>79.8</ele>
        <time>2023-08-05T15:18:03Z</time>
      </trkpt>
      <trkpt lat="50.66714" lon="2.90978">
        <ele>80</ele>
        <time>2023-08-05T15:18:09Z</time>
      </trkpt>
      <trkpt lat="50.66711" lon="2.90975">
        <ele>80</ele>
        <time>2023-08-05T15:18:10Z</time>
      </trkpt>
      <trkpt lat="50.66708" lon="2.90971">
        <ele>80</ele>
        <time>2023-08-05T15:18:11Z</time>
      </trkpt>
      <trkpt lat="50.66705" lon="2.90968">
        <ele>80</ele>
        <time>2023-08-05T15:18:12Z</time>
      </trkpt>
      <trkpt lat="50.66702" lon="2.90964">
        <ele>80</ele>
        <time>2023-08-05T15:18:13Z</time>
      </trkpt>
      <trkpt lat="50.66699" lon="2.90961">
        <ele>80</ele>
        <time>2023-08-05T15:18:14Z</time>
      </trkpt>
      <trkpt lat="50.66681" lon="2.90938">
        <ele>80</ele>
        <time>2023-08-05T15:18:20Z</time>
      </trkpt>
      <trkpt lat="50.66657" lon="2.90907">
        <ele>80.2</ele>
        <time>2023-08-05T15:18:28Z</time>
      </trkpt>
      <trkpt lat="50.66629" lon="2.90872">
        <ele>80.4</ele>
        <time>2023-08-05T15:18:37Z</time>
      </trkpt>
      <trkpt lat="50.66602" lon="2.90838">
        <ele>80.2</ele>
        <time>2023-08-05T15:18:46Z</time>
      </trkpt>
      <trkpt lat="50.66572" lon="2.90797">
        <ele>79.6</ele>
        <time>2023-08-05T15:18:56Z</time>
      </trkpt>
      <trkpt lat="50.66546" lon="2.90759">
        <ele>79.8</ele>
        <time>2023-08-05T15:19:05Z</time>
      </trkpt>
      <trkpt lat="50.66543" lon="2.90755">
        <ele>79.8</ele>
        <time>2023-08-05T15:19:06Z</time>
      </trkpt>
      <trkpt lat="50.66541" lon="2.90751">
        <ele>79.8</ele>
        <time>2023-08-05T15:19:07Z</time>
      </trkpt>
      <trkpt lat="50.66517" lon="2.90718">
        <ele>79.8</ele>
        <time>2023-08-05T15:19:15Z</time>
      </trkpt>
      <trkpt lat="50.66493" lon="2.90678">
        <ele>79.6</ele>
        <time>2023-08-05T15:19:24Z</time>
      </trkpt>
      <trkpt lat="50.66475" lon="2.90649">
        <ele>79.6</ele>
        <time>2023-08-05T15:19:30Z</time>
      </trkpt>
      <trkpt lat="50.66461" lon="2.90624">
        <ele>79.6</ele>
        <time>2023-08-05T15:19:35Z</time>
      </trkpt>
      <trkpt lat="50.66429" lon="2.9057">
        <ele>79.6</ele>
        <time>2023-08-05T15:19:46Z</time>
      </trkpt>
      <trkpt lat="50.664" lon="2.90518">
        <ele>79.2</ele>
        <time>2023-08-05T15:19:56Z</time>
      </trkpt>
      <trkpt lat="50.66393" lon="2.90503">
        <ele>79.4</ele>
        <time>2023-08-05T15:19:59Z</time>
      </trkpt>
      <trkpt lat="50.6639" lon="2.90498">
        <ele>79.4</ele>
        <time>2023-08-05T15:20:00Z</time>
      </trkpt>
      <trkpt lat="50.66387" lon="2.90493">
        <ele>79.4</ele>
        <time>2023-08-05T15:20:01Z</time>
      </trkpt>
      <trkpt lat="50.66385" lon="2.90487">
        <ele>79.4</ele>
        <time>2023-08-05T15:20:02Z</time>
      </trkpt>
      <trkpt lat="50.66371" lon="2.90462">
        <ele>79.6</ele>
        <time>2023-08-05T15:20:07Z</time>
      </trkpt>
      <trkpt lat="50.66366" lon="2.90452">
        <ele>79.6</ele>
        <time>2023-08-05T15:20:09Z</time>
      </trkpt>
      <trkpt lat="50.66363" lon="2.90447">
        <ele>79.8</ele>
        <time>2023-08-05T15:20:10Z</time>
      </trkpt>
      <trkpt lat="50.66361" lon="2.90442">
        <ele>79.8</ele>
        <time>2023-08-05T15:20:11Z</time>
      </trkpt>
      <trkpt lat="50.66351" lon="2.90421">
        <ele>79.8</ele>
        <time>2023-08-05T15:20:15Z</time>
      </trkpt>
      <trkpt lat="50.66346" lon="2.9041">
        <ele>79.8</ele>
        <time>2023-08-05T15:20:17Z</time>
      </trkpt>
      <trkpt lat="50.6634" lon="2.904">
        <ele>79.8</ele>
        <time>2023-08-05T15:20:19Z</time>
      </trkpt>
      <trkpt lat="50.66328" lon="2.90375">
        <ele>79.8</ele>
        <time>2023-08-05T15:20:24Z</time>
      </trkpt>
      <trkpt lat="50.66326" lon="2.9037">
        <ele>79.8</ele>
        <time>2023-08-05T15:20:25Z</time>
      </trkpt>
      <trkpt lat="50.66324" lon="2.90365">
        <ele>80</ele>
        <time>2023-08-05T15:20:26Z</time>
      </trkpt>
      <trkpt lat="50.66321" lon="2.9036">
        <ele>80</ele>
        <time>2023-08-05T15:20:27Z</time>
      </trkpt>
      <trkpt lat="50.66316" lon="2.9035">
        <ele>80</ele>
        <time>2023-08-05T15:20:29Z</time>
      </trkpt>
      <trkpt lat="50.66306" lon="2.90329">
        <ele>80.2</ele>
        <time>2023-08-05T15:20:33Z</time>
      </trkpt>
      <trkpt lat="50.66304" lon="2.90324">
        <ele>80.4</ele>
        <time>2023-08-05T15:20:34Z</time>
      </trkpt>
      <trkpt lat="50.66302" lon="2.90319">
        <ele>80.4</ele>
        <time>2023-08-05T15:20:35Z</time>
      </trkpt>
      <trkpt lat="50.663" lon="2.90314">
        <ele>80.6</ele>
        <time>2023-08-05T15:20:36Z</time>
      </trkpt>
      <trkpt lat="50.66294" lon="2.90298">
        <ele>81</ele>
        <time>2023-08-05T15:20:39Z</time>
      </trkpt>
      <trkpt lat="50.66291" lon="2.90293">
        <ele>81</ele>
        <time>2023-08-05T15:20:40Z</time>
      </trkpt>
      <trkpt lat="50.66289" lon="2.90289">
        <ele>81.2</ele>
        <time>2023-08-05T15:20:41Z</time>
      </trkpt>
      <trkpt lat="50.66287" lon="2.90283">
        <ele>81.2</ele>
        <time>2023-08-05T15:20:42Z</time>
      </trkpt>
      <trkpt lat="50.66279" lon="2.90263">
        <ele>81.2</ele>
        <time>2023-08-05T15:20:46Z</time>
      </trkpt>
      <trkpt lat="50.66277" lon="2.90257">
        <ele>81.2</ele>
        <time>2023-08-05T15:20:47Z</time>
      </trkpt>
      <trkpt lat="50.66275" lon="2.90252">
        <ele>81.2</ele>
        <time>2023-08-05T15:20:48Z</time>
      </trkpt>
      <trkpt lat="50.66271" lon="2.90223">
        <ele>81.2</ele>
        <time>2023-08-05T15:20:53Z</time>
      </trkpt>
      <trkpt lat="50.66267" lon="2.90195">
        <ele>81.2</ele>
        <time>2023-08-05T15:20:58Z</time>
      </trkpt>
      <trkpt lat="50.66265" lon="2.90191">
        <ele>81.2</ele>
        <time>2023-08-05T15:20:59Z</time>
      </trkpt>
      <trkpt lat="50.66262" lon="2.90188">
        <ele>81.2</ele>
        <time>2023-08-05T15:21:00Z</time>
      </trkpt>
      <trkpt lat="50.66259" lon="2.90185">
        <ele>81.2</ele>
        <time>2023-08-05T15:21:01Z</time>
      </trkpt>
      <trkpt lat="50.66256" lon="2.90183">
        <ele>81.2</ele>
        <time>2023-08-05T15:21:02Z</time>
      </trkpt>
      <trkpt lat="50.66253" lon="2.9018">
        <ele>81.2</ele>
        <time>2023-08-05T15:21:03Z</time>
      </trkpt>
      <trkpt lat="50.6625" lon="2.90177">
        <ele>81</ele>
        <time>2023-08-05T15:21:04Z</time>
      </trkpt>
      <trkpt lat="50.66246" lon="2.90174">
        <ele>81</ele>
        <time>2023-08-05T15:21:05Z</time>
      </trkpt>
      <trkpt lat="50.66243" lon="2.90171">
        <ele>80.8</ele>
        <time>2023-08-05T15:21:06Z</time>
      </trkpt>
      <trkpt lat="50.66241" lon="2.90169">
        <ele>80.8</ele>
        <time>2023-08-05T15:21:07Z</time>
      </trkpt>
      <trkpt lat="50.66239" lon="2.90169">
        <ele>80.8</ele>
        <time>2023-08-05T15:21:08Z</time>
      </trkpt>
      <trkpt lat="50.66237" lon="2.90171">
        <ele>80.8</ele>
        <time>2023-08-05T15:21:09Z</time>
      </trkpt>
      <trkpt lat="50.66236" lon="2.90173">
        <ele>80.8</ele>
        <time>2023-08-05T15:21:10Z</time>
      </trkpt>
      <trkpt lat="50.66235" lon="2.90175">
        <ele>80.8</ele>
        <time>2023-08-05T15:21:11Z</time>
      </trkpt>
      <trkpt lat="50.66235" lon="2.90176">
        <ele>80.8</ele>
        <time>2023-08-05T15:21:12Z</time>
      </trkpt>
      <trkpt lat="50.66235" lon="2.90177">
        <ele>80.8</ele>
        <time>2023-08-05T15:21:13Z</time>
      </trkpt>
      <trkpt lat="50.66235" lon="2.90179">
        <ele>80.8</ele>
        <time>2023-08-05T15:21:14Z</time>
      </trkpt>
      <trkpt lat="50.66234" lon="2.9018">
        <ele>80.8</ele>
        <time>2023-08-05T15:21:15Z</time>
      </trkpt>
      <trkpt lat="50.66233" lon="2.90181">
        <ele>80.8</ele>
        <time>2023-08-05T15:21:16Z</time>
      </trkpt>
      <trkpt lat="50.66225" lon="2.90185">
        <ele>80.6</ele>
        <time>2023-08-05T15:21:19Z</time>
      </trkpt>
      <trkpt lat="50.66214" lon="2.90204">
        <ele>80.6</ele>
        <time>2023-08-05T15:21:24Z</time>
      </trkpt>
      <trkpt lat="50.66213" lon="2.90208">
        <ele>80.6</ele>
        <time>2023-08-05T15:21:25Z</time>
      </trkpt>
      <trkpt lat="50.66212" lon="2.90213">
        <ele>80.6</ele>
        <time>2023-08-05T15:21:26Z</time>
      </trkpt>
      <trkpt lat="50.66212" lon="2.90219">
        <ele>80.6</ele>
        <time>2023-08-05T15:21:27Z</time>
      </trkpt>
      <trkpt lat="50.66212" lon="2.90224">
        <ele>80.6</ele>
        <time>2023-08-05T15:21:28Z</time>
      </trkpt>
      <trkpt lat="50.66213" lon="2.90228">
        <ele>80.6</ele>
        <time>2023-08-05T15:21:29Z</time>
      </trkpt>
      <trkpt lat="50.66214" lon="2.90233">
        <ele>80.6</ele>
        <time>2023-08-05T15:21:30Z</time>
      </trkpt>
      <trkpt lat="50.66215" lon="2.90238">
        <ele>80.6</ele>
        <time>2023-08-05T15:21:31Z</time>
      </trkpt>
      <trkpt lat="50.66216" lon="2.90243">
        <ele>80.6</ele>
        <time>2023-08-05T15:21:32Z</time>
      </trkpt>
      <trkpt lat="50.66217" lon="2.90248">
        <ele>80.8</ele>
        <time>2023-08-05T15:21:33Z</time>
      </trkpt>
      <trkpt lat="50.66222" lon="2.90259">
        <ele>80.8</ele>
        <time>2023-08-05T15:21:36Z</time>
      </trkpt>
      <trkpt lat="50.66223" lon="2.90262">
        <ele>80.8</ele>
        <time>2023-08-05T15:21:37Z</time>
      </trkpt>
      <trkpt lat="50.66224" lon="2.90264">
        <ele>81</ele>
        <time>2023-08-05T15:21:38Z</time>
      </trkpt>
      <trkpt lat="50.66226" lon="2.90266">
        <ele>81</ele>
        <time>2023-08-05T15:21:39Z</time>
      </trkpt>
      <trkpt lat="50.66228" lon="2.90268">
        <ele>81</ele>
        <time>2023-08-05T15:21:40Z</time>
      </trkpt>
      <trkpt lat="50.66231" lon="2.9027">
        <ele>81</ele>
        <time>2023-08-05T15:21:41Z</time>
      </trkpt>
      <trkpt lat="50.66234" lon="2.90271">
        <ele>81</ele>
        <time>2023-08-05T15:21:42Z</time>
      </trkpt>
      <trkpt lat="50.66247" lon="2.90274">
        <ele>81.2</ele>
        <time>2023-08-05T15:21:47Z</time>
      </trkpt>
      <trkpt lat="50.66248" lon="2.90273">
        <ele>81.2</ele>
        <time>2023-08-05T15:21:48Z</time>
      </trkpt>
      <trkpt lat="50.6625" lon="2.90272">
        <ele>81</ele>
        <time>2023-08-05T15:21:49Z</time>
      </trkpt>
      <trkpt lat="50.66251" lon="2.90271">
        <ele>81</ele>
        <time>2023-08-05T15:21:50Z</time>
      </trkpt>
      <trkpt lat="50.66252" lon="2.90269">
        <ele>81</ele>
        <time>2023-08-05T15:21:51Z</time>
      </trkpt>
      <trkpt lat="50.66252" lon="2.90268">
        <ele>81</ele>
        <time>2023-08-05T15:21:52Z</time>
      </trkpt>
      <trkpt lat="50.66251" lon="2.90268">
        <ele>81</ele>
        <time>2023-08-05T15:21:53Z</time>
      </trkpt>
      <trkpt lat="50.66251" lon="2.90268">
        <ele>81</ele>
        <time>2023-08-05T15:21:54Z</time>
      </trkpt>
      <trkpt lat="50.66249" lon="2.90268">
        <ele>81</ele>
        <time>2023-08-05T15:21:55Z</time>
      </trkpt>
      <trkpt lat="50.66245" lon="2.9027">
        <ele>81.2</ele>
        <time>2023-08-05T15:21:57Z</time>
      </trkpt>
      <trkpt lat="50.66244" lon="2.90271">
        <ele>81.4</ele>
        <time>2023-08-05T15:21:58Z</time>
      </trkpt>
      <trkpt lat="50.66241" lon="2.90271">
        <ele>81.4</ele>
        <time>2023-08-05T15:21:59Z</time>
      </trkpt>
      <trkpt lat="50.66231" lon="2.90267">
        <ele>81.6</ele>
        <time>2023-08-05T15:22:04Z</time>
      </trkpt>
      <trkpt lat="50.6623" lon="2.90266">
        <ele>81.6</ele>
        <time>2023-08-05T15:22:05Z</time>
      </trkpt>
      <trkpt lat="50.6622" lon="2.90253">
        <ele>81.6</ele>
        <time>2023-08-05T15:22:11Z</time>
      </trkpt>
      <trkpt lat="50.66219" lon="2.90251">
        <ele>81.6</ele>
        <time>2023-08-05T15:22:12Z</time>
      </trkpt>
      <trkpt lat="50.66218" lon="2.90247">
        <ele>81.6</ele>
        <time>2023-08-05T15:22:13Z</time>
      </trkpt>
      <trkpt lat="50.66211" lon="2.90218">
        <ele>81.4</ele>
        <time>2023-08-05T15:22:21Z</time>
      </trkpt>
      <trkpt lat="50.66213" lon="2.90207">
        <ele>81.4</ele>
        <time>2023-08-05T15:22:24Z</time>
      </trkpt>
      <trkpt lat="50.66214" lon="2.90205">
        <ele>81.4</ele>
        <time>2023-08-05T15:22:25Z</time>
      </trkpt>
      <trkpt lat="50.66214" lon="2.90203">
        <ele>81.4</ele>
        <time>2023-08-05T15:22:26Z</time>
      </trkpt>
      <trkpt lat="50.66215" lon="2.90202">
        <ele>81.4</ele>
        <time>2023-08-05T15:22:27Z</time>
      </trkpt>
      <trkpt lat="50.66214" lon="2.90202">
        <ele>81.4</ele>
        <time>2023-08-05T15:22:28Z</time>
      </trkpt>
      <trkpt lat="50.66214" lon="2.90202">
        <ele>81.4</ele>
        <time>2023-08-05T15:22:29Z</time>
      </trkpt>
      <trkpt lat="50.66214" lon="2.90202">
        <ele>81.4</ele>
        <time>2023-08-05T15:22:30Z</time>
      </trkpt>
      <trkpt lat="50.66214" lon="2.90202">
        <ele>81.4</ele>
        <time>2023-08-05T15:22:31Z</time>
      </trkpt>
      <trkpt lat="50.66212" lon="2.90212">
        <ele>81.4</ele>
        <time>2023-08-05T15:23:03Z</time>
      </trkpt>
      <trkpt lat="50.66212" lon="2.90216">
        <ele>81.4</ele>
        <time>2023-08-05T15:23:04Z</time>
      </trkpt>
      <trkpt lat="50.66212" lon="2.9022">
        <ele>81.4</ele>
        <time>2023-08-05T15:23:05Z</time>
      </trkpt>
      <trkpt lat="50.6621" lon="2.90229">
        <ele>81.4</ele>
        <time>2023-08-05T15:23:07Z</time>
      </trkpt>
      <trkpt lat="50.66207" lon="2.90231">
        <ele>81.4</ele>
        <time>2023-08-05T15:23:08Z</time>
      </trkpt>
      <trkpt lat="50.66203" lon="2.90232">
        <ele>81.4</ele>
        <time>2023-08-05T15:23:09Z</time>
      </trkpt>
      <trkpt lat="50.66195" lon="2.9023">
        <ele>81.4</ele>
        <time>2023-08-05T15:23:11Z</time>
      </trkpt>
      <trkpt lat="50.66191" lon="2.90228">
        <ele>81.4</ele>
        <time>2023-08-05T15:23:12Z</time>
      </trkpt>
      <trkpt lat="50.66188" lon="2.90224">
        <ele>81.4</ele>
        <time>2023-08-05T15:23:13Z</time>
      </trkpt>
      <trkpt lat="50.66184" lon="2.9022">
        <ele>81.2</ele>
        <time>2023-08-05T15:23:14Z</time>
      </trkpt>
      <trkpt lat="50.66182" lon="2.90215">
        <ele>81.2</ele>
        <time>2023-08-05T15:23:15Z</time>
      </trkpt>
      <trkpt lat="50.66179" lon="2.90209">
        <ele>81.2</ele>
        <time>2023-08-05T15:23:16Z</time>
      </trkpt>
      <trkpt lat="50.66176" lon="2.90203">
        <ele>81</ele>
        <time>2023-08-05T15:23:17Z</time>
      </trkpt>
      <trkpt lat="50.66169" lon="2.90178">
        <ele>80.8</ele>
        <time>2023-08-05T15:23:21Z</time>
      </trkpt>
      <trkpt lat="50.66167" lon="2.90171">
        <ele>80.8</ele>
        <time>2023-08-05T15:23:22Z</time>
      </trkpt>
      <trkpt lat="50.66165" lon="2.90165">
        <ele>80.8</ele>
        <time>2023-08-05T15:23:23Z</time>
      </trkpt>
      <trkpt lat="50.66157" lon="2.90148">
        <ele>80.8</ele>
        <time>2023-08-05T15:23:26Z</time>
      </trkpt>
      <trkpt lat="50.66153" lon="2.90143">
        <ele>80.8</ele>
        <time>2023-08-05T15:23:27Z</time>
      </trkpt>
      <trkpt lat="50.66149" lon="2.9014">
        <ele>80.8</ele>
        <time>2023-08-05T15:23:28Z</time>
      </trkpt>
      <trkpt lat="50.66145" lon="2.90138">
        <ele>80.8</ele>
        <time>2023-08-05T15:23:29Z</time>
      </trkpt>
      <trkpt lat="50.66141" lon="2.90138">
        <ele>80.8</ele>
        <time>2023-08-05T15:23:30Z</time>
      </trkpt>
      <trkpt lat="50.66136" lon="2.90138">
        <ele>80.8</ele>
        <time>2023-08-05T15:23:31Z</time>
      </trkpt>
      <trkpt lat="50.66132" lon="2.9014">
        <ele>80.8</ele>
        <time>2023-08-05T15:23:32Z</time>
      </trkpt>
      <trkpt lat="50.66128" lon="2.90142">
        <ele>80.8</ele>
        <time>2023-08-05T15:23:33Z</time>
      </trkpt>
      <trkpt lat="50.66124" lon="2.90145">
        <ele>80.8</ele>
        <time>2023-08-05T15:23:34Z</time>
      </trkpt>
      <trkpt lat="50.66094" lon="2.90165">
        <ele>81.2</ele>
        <time>2023-08-05T15:23:41Z</time>
      </trkpt>
      <trkpt lat="50.66063" lon="2.90187">
        <ele>81.4</ele>
        <time>2023-08-05T15:23:48Z</time>
      </trkpt>
      <trkpt lat="50.66023" lon="2.90216">
        <ele>81.6</ele>
        <time>2023-08-05T15:23:56Z</time>
      </trkpt>
      <trkpt lat="50.65969" lon="2.90254">
        <ele>81.6</ele>
        <time>2023-08-05T15:24:06Z</time>
      </trkpt>
      <trkpt lat="50.65918" lon="2.90292">
        <ele>81.4</ele>
        <time>2023-08-05T15:24:15Z</time>
      </trkpt>
      <trkpt lat="50.65913" lon="2.90296">
        <ele>81.2</ele>
        <time>2023-08-05T15:24:16Z</time>
      </trkpt>
      <trkpt lat="50.65903" lon="2.90304">
        <ele>81.2</ele>
        <time>2023-08-05T15:24:18Z</time>
      </trkpt>
      <trkpt lat="50.65898" lon="2.90308">
        <ele>81.2</ele>
        <time>2023-08-05T15:24:19Z</time>
      </trkpt>
      <trkpt lat="50.65894" lon="2.90311">
        <ele>81.2</ele>
        <time>2023-08-05T15:24:20Z</time>
      </trkpt>
      <trkpt lat="50.6589" lon="2.90314">
        <ele>81.2</ele>
        <time>2023-08-05T15:24:21Z</time>
      </trkpt>
      <trkpt lat="50.65885" lon="2.90317">
        <ele>81.2</ele>
        <time>2023-08-05T15:24:22Z</time>
      </trkpt>
      <trkpt lat="50.65881" lon="2.9032">
        <ele>81.2</ele>
        <time>2023-08-05T15:24:23Z</time>
      </trkpt>
      <trkpt lat="50.65876" lon="2.90324">
        <ele>81.2</ele>
        <time>2023-08-05T15:24:24Z</time>
      </trkpt>
      <trkpt lat="50.65849" lon="2.90344">
        <ele>80.8</ele>
        <time>2023-08-05T15:24:30Z</time>
      </trkpt>
      <trkpt lat="50.65807" lon="2.90373">
        <ele>81</ele>
        <time>2023-08-05T15:24:39Z</time>
      </trkpt>
      <trkpt lat="50.6578" lon="2.90392">
        <ele>81.4</ele>
        <time>2023-08-05T15:24:45Z</time>
      </trkpt>
      <trkpt lat="50.65775" lon="2.90396">
        <ele>81.4</ele>
        <time>2023-08-05T15:24:46Z</time>
      </trkpt>
      <trkpt lat="50.6577" lon="2.90399">
        <ele>81.4</ele>
        <time>2023-08-05T15:24:47Z</time>
      </trkpt>
      <trkpt lat="50.65757" lon="2.90407">
        <ele>81.6</ele>
        <time>2023-08-05T15:24:50Z</time>
      </trkpt>
      <trkpt lat="50.65732" lon="2.90421">
        <ele>81.8</ele>
        <time>2023-08-05T15:24:56Z</time>
      </trkpt>
      <trkpt lat="50.65728" lon="2.90423">
        <ele>81.8</ele>
        <time>2023-08-05T15:24:57Z</time>
      </trkpt>
      <trkpt lat="50.65724" lon="2.90425">
        <ele>81.8</ele>
        <time>2023-08-05T15:24:58Z</time>
      </trkpt>
      <trkpt lat="50.65719" lon="2.90428">
        <ele>81.8</ele>
        <time>2023-08-05T15:24:59Z</time>
      </trkpt>
      <trkpt lat="50.65715" lon="2.90431">
        <ele>81.8</ele>
        <time>2023-08-05T15:25:00Z</time>
      </trkpt>
      <trkpt lat="50.65685" lon="2.90453">
        <ele>81.6</ele>
        <time>2023-08-05T15:25:07Z</time>
      </trkpt>
      <trkpt lat="50.65674" lon="2.90465">
        <ele>81.6</ele>
        <time>2023-08-05T15:25:10Z</time>
      </trkpt>
      <trkpt lat="50.65666" lon="2.90474">
        <ele>81.6</ele>
        <time>2023-08-05T15:25:12Z</time>
      </trkpt>
      <trkpt lat="50.65662" lon="2.90478">
        <ele>81.6</ele>
        <time>2023-08-05T15:25:13Z</time>
      </trkpt>
      <trkpt lat="50.65652" lon="2.90485">
        <ele>81.6</ele>
        <time>2023-08-05T15:25:15Z</time>
      </trkpt>
      <trkpt lat="50.65642" lon="2.90489">
        <ele>81.6</ele>
        <time>2023-08-05T15:25:17Z</time>
      </trkpt>
      <trkpt lat="50.65607" lon="2.90516">
        <ele>81.6</ele>
        <time>2023-08-05T15:25:24Z</time>
      </trkpt>
      <trkpt lat="50.65599" lon="2.90525">
        <ele>81.6</ele>
        <time>2023-08-05T15:25:26Z</time>
      </trkpt>
      <trkpt lat="50.65594" lon="2.9053">
        <ele>81.6</ele>
        <time>2023-08-05T15:25:27Z</time>
      </trkpt>
      <trkpt lat="50.65576" lon="2.90548">
        <ele>81.4</ele>
        <time>2023-08-05T15:25:31Z</time>
      </trkpt>
      <trkpt lat="50.65557" lon="2.90565">
        <ele>81.4</ele>
        <time>2023-08-05T15:25:35Z</time>
      </trkpt>
      <trkpt lat="50.65537" lon="2.90579">
        <ele>81.4</ele>
        <time>2023-08-05T15:25:39Z</time>
      </trkpt>
      <trkpt lat="50.65499" lon="2.90605">
        <ele>82</ele>
        <time>2023-08-05T15:25:47Z</time>
      </trkpt>
      <trkpt lat="50.65494" lon="2.90608">
        <ele>82</ele>
        <time>2023-08-05T15:25:48Z</time>
      </trkpt>
      <trkpt lat="50.65489" lon="2.90612">
        <ele>82</ele>
        <time>2023-08-05T15:25:49Z</time>
      </trkpt>
      <trkpt lat="50.65485" lon="2.90616">
        <ele>82.2</ele>
        <time>2023-08-05T15:25:50Z</time>
      </trkpt>
      <trkpt lat="50.6546" lon="2.90633">
        <ele>82.2</ele>
        <time>2023-08-05T15:25:55Z</time>
      </trkpt>
      <trkpt lat="50.65425" lon="2.90658">
        <ele>82</ele>
        <time>2023-08-05T15:26:02Z</time>
      </trkpt>
      <trkpt lat="50.6538" lon="2.90691">
        <ele>81.6</ele>
        <time>2023-08-05T15:26:11Z</time>
      </trkpt>
      <trkpt lat="50.6534" lon="2.9072">
        <ele>81.6</ele>
        <time>2023-08-05T15:26:19Z</time>
      </trkpt>
      <trkpt lat="50.65335" lon="2.90723">
        <ele>81.6</ele>
        <time>2023-08-05T15:26:20Z</time>
      </trkpt>
      <trkpt lat="50.65311" lon="2.90739">
        <ele>81.6</ele>
        <time>2023-08-05T15:26:25Z</time>
      </trkpt>
      <trkpt lat="50.65307" lon="2.90743">
        <ele>81.8</ele>
        <time>2023-08-05T15:26:26Z</time>
      </trkpt>
      <trkpt lat="50.65302" lon="2.90746">
        <ele>81.8</ele>
        <time>2023-08-05T15:26:27Z</time>
      </trkpt>
      <trkpt lat="50.65298" lon="2.9075">
        <ele>81.8</ele>
        <time>2023-08-05T15:26:28Z</time>
      </trkpt>
      <trkpt lat="50.65293" lon="2.90753">
        <ele>82</ele>
        <time>2023-08-05T15:26:29Z</time>
      </trkpt>
      <trkpt lat="50.65288" lon="2.90756">
        <ele>81.8</ele>
        <time>2023-08-05T15:26:30Z</time>
      </trkpt>
      <trkpt lat="50.65284" lon="2.90759">
        <ele>81.8</ele>
        <time>2023-08-05T15:26:31Z</time>
      </trkpt>
      <trkpt lat="50.65279" lon="2.90763">
        <ele>82</ele>
        <time>2023-08-05T15:26:32Z</time>
      </trkpt>
      <trkpt lat="50.65266" lon="2.90773">
        <ele>82.2</ele>
        <time>2023-08-05T15:26:35Z</time>
      </trkpt>
      <trkpt lat="50.65252" lon="2.90782">
        <ele>82.2</ele>
        <time>2023-08-05T15:26:38Z</time>
      </trkpt>
      <trkpt lat="50.65216" lon="2.90812">
        <ele>82</ele>
        <time>2023-08-05T15:26:46Z</time>
      </trkpt>
      <trkpt lat="50.65182" lon="2.90851">
        <ele>82.2</ele>
        <time>2023-08-05T15:26:54Z</time>
      </trkpt>
      <trkpt lat="50.6514" lon="2.90902">
        <ele>82</ele>
        <time>2023-08-05T15:27:04Z</time>
      </trkpt>
      <trkpt lat="50.65097" lon="2.9095">
        <ele>81.6</ele>
        <time>2023-08-05T15:27:14Z</time>
      </trkpt>
      <trkpt lat="50.65092" lon="2.90954">
        <ele>81.8</ele>
        <time>2023-08-05T15:27:15Z</time>
      </trkpt>
      <trkpt lat="50.65088" lon="2.90957">
        <ele>81.6</ele>
        <time>2023-08-05T15:27:16Z</time>
      </trkpt>
      <trkpt lat="50.65083" lon="2.90961">
        <ele>81.8</ele>
        <time>2023-08-05T15:27:17Z</time>
      </trkpt>
      <trkpt lat="50.65074" lon="2.90968">
        <ele>81.8</ele>
        <time>2023-08-05T15:27:19Z</time>
      </trkpt>
      <trkpt lat="50.65069" lon="2.90971">
        <ele>81.8</ele>
        <time>2023-08-05T15:27:20Z</time>
      </trkpt>
      <trkpt lat="50.6506" lon="2.90978">
        <ele>81.8</ele>
        <time>2023-08-05T15:27:22Z</time>
      </trkpt>
      <trkpt lat="50.65056" lon="2.90981">
        <ele>81.8</ele>
        <time>2023-08-05T15:27:23Z</time>
      </trkpt>
      <trkpt lat="50.65051" lon="2.90984">
        <ele>81.8</ele>
        <time>2023-08-05T15:27:24Z</time>
      </trkpt>
      <trkpt lat="50.64999" lon="2.91021">
        <ele>82.2</ele>
        <time>2023-08-05T15:27:35Z</time>
      </trkpt>
      <trkpt lat="50.64952" lon="2.91057">
        <ele>81.8</ele>
        <time>2023-08-05T15:27:45Z</time>
      </trkpt>
      <trkpt lat="50.64947" lon="2.9106">
        <ele>81.8</ele>
        <time>2023-08-05T15:27:46Z</time>
      </trkpt>
      <trkpt lat="50.64943" lon="2.91064">
        <ele>81.8</ele>
        <time>2023-08-05T15:27:47Z</time>
      </trkpt>
      <trkpt lat="50.64939" lon="2.91066">
        <ele>81.8</ele>
        <time>2023-08-05T15:27:48Z</time>
      </trkpt>
      <trkpt lat="50.64897" lon="2.91097">
        <ele>82</ele>
        <time>2023-08-05T15:27:57Z</time>
      </trkpt>
      <trkpt lat="50.64877" lon="2.9111">
        <ele>82</ele>
        <time>2023-08-05T15:28:01Z</time>
      </trkpt>
      <trkpt lat="50.64874" lon="2.91113">
        <ele>82</ele>
        <time>2023-08-05T15:28:02Z</time>
      </trkpt>
      <trkpt lat="50.64869" lon="2.91116">
        <ele>82</ele>
        <time>2023-08-05T15:28:03Z</time>
      </trkpt>
      <trkpt lat="50.64851" lon="2.91128">
        <ele>82</ele>
        <time>2023-08-05T15:28:07Z</time>
      </trkpt>
      <trkpt lat="50.64842" lon="2.91132">
        <ele>82</ele>
        <time>2023-08-05T15:28:09Z</time>
      </trkpt>
      <trkpt lat="50.64836" lon="2.91132">
        <ele>82</ele>
        <time>2023-08-05T15:28:10Z</time>
      </trkpt>
      <trkpt lat="50.64832" lon="2.9113">
        <ele>82</ele>
        <time>2023-08-05T15:28:11Z</time>
      </trkpt>
      <trkpt lat="50.64825" lon="2.9112">
        <ele>82</ele>
        <time>2023-08-05T15:28:13Z</time>
      </trkpt>
      <trkpt lat="50.64823" lon="2.91114">
        <ele>82</ele>
        <time>2023-08-05T15:28:14Z</time>
      </trkpt>
      <trkpt lat="50.64821" lon="2.91107">
        <ele>82</ele>
        <time>2023-08-05T15:28:15Z</time>
      </trkpt>
      <trkpt lat="50.64816" lon="2.91094">
        <ele>82</ele>
        <time>2023-08-05T15:28:17Z</time>
      </trkpt>
      <trkpt lat="50.64803" lon="2.91065">
        <ele>81.8</ele>
        <time>2023-08-05T15:28:21Z</time>
      </trkpt>
      <trkpt lat="50.64782" lon="2.91013">
        <ele>81.4</ele>
        <time>2023-08-05T15:28:28Z</time>
      </trkpt>
      <trkpt lat="50.64754" lon="2.9096">
        <ele>81.4</ele>
        <time>2023-08-05T15:28:36Z</time>
      </trkpt>
      <trkpt lat="50.6475" lon="2.90953">
        <ele>81.4</ele>
        <time>2023-08-05T15:28:37Z</time>
      </trkpt>
      <trkpt lat="50.64737" lon="2.90935">
        <ele>81.2</ele>
        <time>2023-08-05T15:28:40Z</time>
      </trkpt>
      <trkpt lat="50.64734" lon="2.90929">
        <ele>81</ele>
        <time>2023-08-05T15:28:41Z</time>
      </trkpt>
      <trkpt lat="50.6473" lon="2.90923">
        <ele>81</ele>
        <time>2023-08-05T15:28:42Z</time>
      </trkpt>
      <trkpt lat="50.64726" lon="2.90918">
        <ele>81</ele>
        <time>2023-08-05T15:28:43Z</time>
      </trkpt>
      <trkpt lat="50.64722" lon="2.90913">
        <ele>81</ele>
        <time>2023-08-05T15:28:44Z</time>
      </trkpt>
      <trkpt lat="50.64718" lon="2.90908">
        <ele>81</ele>
        <time>2023-08-05T15:28:45Z</time>
      </trkpt>
      <trkpt lat="50.64706" lon="2.90894">
        <ele>80.8</ele>
        <time>2023-08-05T15:28:48Z</time>
      </trkpt>
      <trkpt lat="50.64702" lon="2.9089">
        <ele>80.8</ele>
        <time>2023-08-05T15:28:49Z</time>
      </trkpt>
      <trkpt lat="50.64698" lon="2.90886">
        <ele>80.8</ele>
        <time>2023-08-05T15:28:50Z</time>
      </trkpt>
      <trkpt lat="50.64694" lon="2.90883">
        <ele>80.8</ele>
        <time>2023-08-05T15:28:51Z</time>
      </trkpt>
      <trkpt lat="50.6469" lon="2.90879">
        <ele>80.8</ele>
        <time>2023-08-05T15:28:52Z</time>
      </trkpt>
      <trkpt lat="50.64687" lon="2.90876">
        <ele>80.8</ele>
        <time>2023-08-05T15:28:53Z</time>
      </trkpt>
      <trkpt lat="50.64683" lon="2.90873">
        <ele>80.8</ele>
        <time>2023-08-05T15:28:54Z</time>
      </trkpt>
      <trkpt lat="50.6468" lon="2.90869">
        <ele>80.8</ele>
        <time>2023-08-05T15:28:55Z</time>
      </trkpt>
      <trkpt lat="50.64677" lon="2.90866">
        <ele>80.8</ele>
        <time>2023-08-05T15:28:56Z</time>
      </trkpt>
      <trkpt lat="50.64673" lon="2.90863">
        <ele>80.8</ele>
        <time>2023-08-05T15:28:57Z</time>
      </trkpt>
      <trkpt lat="50.64667" lon="2.90858">
        <ele>81</ele>
        <time>2023-08-05T15:28:59Z</time>
      </trkpt>
      <trkpt lat="50.64664" lon="2.90855">
        <ele>81</ele>
        <time>2023-08-05T15:29:00Z</time>
      </trkpt>
      <trkpt lat="50.64661" lon="2.90853">
        <ele>81.2</ele>
        <time>2023-08-05T15:29:01Z</time>
      </trkpt>
      <trkpt lat="50.64658" lon="2.90852">
        <ele>81.2</ele>
        <time>2023-08-05T15:29:02Z</time>
      </trkpt>
      <trkpt lat="50.64655" lon="2.9085">
        <ele>81.2</ele>
        <time>2023-08-05T15:29:03Z</time>
      </trkpt>
      <trkpt lat="50.64652" lon="2.90848">
        <ele>81.4</ele>
        <time>2023-08-05T15:29:04Z</time>
      </trkpt>
      <trkpt lat="50.64649" lon="2.90847">
        <ele>81.6</ele>
        <time>2023-08-05T15:29:05Z</time>
      </trkpt>
      <trkpt lat="50.64646" lon="2.90845">
        <ele>81.8</ele>
        <time>2023-08-05T15:29:06Z</time>
      </trkpt>
      <trkpt lat="50.64644" lon="2.90844">
        <ele>82</ele>
        <time>2023-08-05T15:29:07Z</time>
      </trkpt>
      <trkpt lat="50.64641" lon="2.90843">
        <ele>82.2</ele>
        <time>2023-08-05T15:29:08Z</time>
      </trkpt>
      <trkpt lat="50.64638" lon="2.90841">
        <ele>82.4</ele>
        <time>2023-08-05T15:29:09Z</time>
      </trkpt>
      <trkpt lat="50.64636" lon="2.90839">
        <ele>82.4</ele>
        <time>2023-08-05T15:29:10Z</time>
      </trkpt>
      <trkpt lat="50.64633" lon="2.90838">
        <ele>82.6</ele>
        <time>2023-08-05T15:29:11Z</time>
      </trkpt>
      <trkpt lat="50.64631" lon="2.90837">
        <ele>82.8</ele>
        <time>2023-08-05T15:29:12Z</time>
      </trkpt>
      <trkpt lat="50.64628" lon="2.90836">
        <ele>83</ele>
        <time>2023-08-05T15:29:13Z</time>
      </trkpt>
      <trkpt lat="50.64626" lon="2.90834">
        <ele>83.2</ele>
        <time>2023-08-05T15:29:14Z</time>
      </trkpt>
      <trkpt lat="50.64623" lon="2.90833">
        <ele>83.4</ele>
        <time>2023-08-05T15:29:15Z</time>
      </trkpt>
      <trkpt lat="50.6462" lon="2.90832">
        <ele>83.6</ele>
        <time>2023-08-05T15:29:16Z</time>
      </trkpt>
      <trkpt lat="50.64618" lon="2.90831">
        <ele>83.6</ele>
        <time>2023-08-05T15:29:17Z</time>
      </trkpt>
      <trkpt lat="50.64616" lon="2.90829">
        <ele>83.8</ele>
        <time>2023-08-05T15:29:18Z</time>
      </trkpt>
      <trkpt lat="50.64613" lon="2.90828">
        <ele>83.8</ele>
        <time>2023-08-05T15:29:19Z</time>
      </trkpt>
      <trkpt lat="50.64611" lon="2.90827">
        <ele>84</ele>
        <time>2023-08-05T15:29:20Z</time>
      </trkpt>
      <trkpt lat="50.64608" lon="2.90826">
        <ele>84.4</ele>
        <time>2023-08-05T15:29:21Z</time>
      </trkpt>
      <trkpt lat="50.64606" lon="2.90825">
        <ele>84.6</ele>
        <time>2023-08-05T15:29:22Z</time>
      </trkpt>
      <trkpt lat="50.64603" lon="2.90824">
        <ele>84.8</ele>
        <time>2023-08-05T15:29:23Z</time>
      </trkpt>
      <trkpt lat="50.64601" lon="2.90824">
        <ele>85</ele>
        <time>2023-08-05T15:29:24Z</time>
      </trkpt>
      <trkpt lat="50.64598" lon="2.90823">
        <ele>85.2</ele>
        <time>2023-08-05T15:29:25Z</time>
      </trkpt>
      <trkpt lat="50.64595" lon="2.90822">
        <ele>85.4</ele>
        <time>2023-08-05T15:29:26Z</time>
      </trkpt>
      <trkpt lat="50.64593" lon="2.90821">
        <ele>85.6</ele>
        <time>2023-08-05T15:29:27Z</time>
      </trkpt>
      <trkpt lat="50.6459" lon="2.9082">
        <ele>85.6</ele>
        <time>2023-08-05T15:29:28Z</time>
      </trkpt>
      <trkpt lat="50.64588" lon="2.9082">
        <ele>85.8</ele>
        <time>2023-08-05T15:29:29Z</time>
      </trkpt>
      <trkpt lat="50.64585" lon="2.90819">
        <ele>86</ele>
        <time>2023-08-05T15:29:30Z</time>
      </trkpt>
      <trkpt lat="50.64582" lon="2.90818">
        <ele>86.2</ele>
        <time>2023-08-05T15:29:31Z</time>
      </trkpt>
      <trkpt lat="50.6458" lon="2.90817">
        <ele>86.4</ele>
        <time>2023-08-05T15:29:32Z</time>
      </trkpt>
      <trkpt lat="50.64577" lon="2.90816">
        <ele>86.6</ele>
        <time>2023-08-05T15:29:33Z</time>
      </trkpt>
      <trkpt lat="50.64574" lon="2.90815">
        <ele>86.8</ele>
        <time>2023-08-05T15:29:34Z</time>
      </trkpt>
      <trkpt lat="50.64572" lon="2.90814">
        <ele>87</ele>
        <time>2023-08-05T15:29:35Z</time>
      </trkpt>
      <trkpt lat="50.64569" lon="2.90814">
        <ele>87.2</ele>
        <time>2023-08-05T15:29:36Z</time>
      </trkpt>
      <trkpt lat="50.64567" lon="2.90813">
        <ele>87.6</ele>
        <time>2023-08-05T15:29:37Z</time>
      </trkpt>
      <trkpt lat="50.64564" lon="2.90813">
        <ele>87.6</ele>
        <time>2023-08-05T15:29:38Z</time>
      </trkpt>
      <trkpt lat="50.64561" lon="2.90812">
        <ele>87.8</ele>
        <time>2023-08-05T15:29:39Z</time>
      </trkpt>
      <trkpt lat="50.64559" lon="2.90811">
        <ele>88</ele>
        <time>2023-08-05T15:29:40Z</time>
      </trkpt>
      <trkpt lat="50.64556" lon="2.9081">
        <ele>88</ele>
        <time>2023-08-05T15:29:41Z</time>
      </trkpt>
      <trkpt lat="50.64553" lon="2.9081">
        <ele>88.2</ele>
        <time>2023-08-05T15:29:42Z</time>
      </trkpt>
      <trkpt lat="50.64551" lon="2.90809">
        <ele>88.4</ele>
        <time>2023-08-05T15:29:43Z</time>
      </trkpt>
      <trkpt lat="50.64548" lon="2.90808">
        <ele>88.6</ele>
        <time>2023-08-05T15:29:44Z</time>
      </trkpt>
      <trkpt lat="50.64545" lon="2.90807">
        <ele>88.6</ele>
        <time>2023-08-05T15:29:45Z</time>
      </trkpt>
      <trkpt lat="50.64543" lon="2.90806">
        <ele>88.8</ele>
        <time>2023-08-05T15:29:46Z</time>
      </trkpt>
      <trkpt lat="50.6454" lon="2.90805">
        <ele>89</ele>
        <time>2023-08-05T15:29:47Z</time>
      </trkpt>
      <trkpt lat="50.64537" lon="2.90805">
        <ele>89</ele>
        <time>2023-08-05T15:29:48Z</time>
      </trkpt>
      <trkpt lat="50.64535" lon="2.90804">
        <ele>89</ele>
        <time>2023-08-05T15:29:49Z</time>
      </trkpt>
      <trkpt lat="50.64532" lon="2.90803">
        <ele>89.2</ele>
        <time>2023-08-05T15:29:50Z</time>
      </trkpt>
      <trkpt lat="50.64529" lon="2.90802">
        <ele>89.2</ele>
        <time>2023-08-05T15:29:51Z</time>
      </trkpt>
      <trkpt lat="50.64526" lon="2.90801">
        <ele>89.6</ele>
        <time>2023-08-05T15:29:52Z</time>
      </trkpt>
      <trkpt lat="50.64524" lon="2.908">
        <ele>89.8</ele>
        <time>2023-08-05T15:29:53Z</time>
      </trkpt>
      <trkpt lat="50.64521" lon="2.90799">
        <ele>90</ele>
        <time>2023-08-05T15:29:54Z</time>
      </trkpt>
      <trkpt lat="50.64518" lon="2.90798">
        <ele>90</ele>
        <time>2023-08-05T15:29:55Z</time>
      </trkpt>
      <trkpt lat="50.64515" lon="2.90797">
        <ele>90</ele>
        <time>2023-08-05T15:29:56Z</time>
      </trkpt>
      <trkpt lat="50.64513" lon="2.90796">
        <ele>90.2</ele>
        <time>2023-08-05T15:29:57Z</time>
      </trkpt>
      <trkpt lat="50.6451" lon="2.90795">
        <ele>90.4</ele>
        <time>2023-08-05T15:29:58Z</time>
      </trkpt>
      <trkpt lat="50.64507" lon="2.90794">
        <ele>90.4</ele>
        <time>2023-08-05T15:29:59Z</time>
      </trkpt>
      <trkpt lat="50.64504" lon="2.90793">
        <ele>90.4</ele>
        <time>2023-08-05T15:30:00Z</time>
      </trkpt>
      <trkpt lat="50.64501" lon="2.90792">
        <ele>90.6</ele>
        <time>2023-08-05T15:30:01Z</time>
      </trkpt>
      <trkpt lat="50.64498" lon="2.90791">
        <ele>90.6</ele>
        <time>2023-08-05T15:30:02Z</time>
      </trkpt>
      <trkpt lat="50.64495" lon="2.9079">
        <ele>90.6</ele>
        <time>2023-08-05T15:30:03Z</time>
      </trkpt>
      <trkpt lat="50.64492" lon="2.9079">
        <ele>90.6</ele>
        <time>2023-08-05T15:30:04Z</time>
      </trkpt>
      <trkpt lat="50.64488" lon="2.90788">
        <ele>90.8</ele>
        <time>2023-08-05T15:30:05Z</time>
      </trkpt>
      <trkpt lat="50.64485" lon="2.90787">
        <ele>91</ele>
        <time>2023-08-05T15:30:06Z</time>
      </trkpt>
      <trkpt lat="50.64482" lon="2.90786">
        <ele>91</ele>
        <time>2023-08-05T15:30:07Z</time>
      </trkpt>
      <trkpt lat="50.64479" lon="2.90785">
        <ele>91</ele>
        <time>2023-08-05T15:30:08Z</time>
      </trkpt>
      <trkpt lat="50.64475" lon="2.90784">
        <ele>91</ele>
        <time>2023-08-05T15:30:09Z</time>
      </trkpt>
      <trkpt lat="50.64472" lon="2.90783">
        <ele>91</ele>
        <time>2023-08-05T15:30:10Z</time>
      </trkpt>
      <trkpt lat="50.64469" lon="2.90782">
        <ele>91</ele>
        <time>2023-08-05T15:30:11Z</time>
      </trkpt>
      <trkpt lat="50.64465" lon="2.90781">
        <ele>91</ele>
        <time>2023-08-05T15:30:12Z</time>
      </trkpt>
      <trkpt lat="50.64462" lon="2.9078">
        <ele>91</ele>
        <time>2023-08-05T15:30:13Z</time>
      </trkpt>
      <trkpt lat="50.64458" lon="2.90778">
        <ele>91</ele>
        <time>2023-08-05T15:30:14Z</time>
      </trkpt>
      <trkpt lat="50.64422" lon="2.90767">
        <ele>90.6</ele>
        <time>2023-08-05T15:30:23Z</time>
      </trkpt>
      <trkpt lat="50.64392" lon="2.90757">
        <ele>90</ele>
        <time>2023-08-05T15:30:29Z</time>
      </trkpt>
      <trkpt lat="50.6437" lon="2.90747">
        <ele>88.8</ele>
        <time>2023-08-05T15:30:33Z</time>
      </trkpt>
      <trkpt lat="50.64363" lon="2.90744">
        <ele>88.6</ele>
        <time>2023-08-05T15:30:34Z</time>
      </trkpt>
      <trkpt lat="50.64351" lon="2.90736">
        <ele>87.8</ele>
        <time>2023-08-05T15:30:36Z</time>
      </trkpt>
      <trkpt lat="50.64333" lon="2.9072">
        <ele>87</ele>
        <time>2023-08-05T15:30:39Z</time>
      </trkpt>
      <trkpt lat="50.64322" lon="2.9071">
        <ele>85.8</ele>
        <time>2023-08-05T15:30:41Z</time>
      </trkpt>
      <trkpt lat="50.64318" lon="2.90707">
        <ele>85.6</ele>
        <time>2023-08-05T15:30:42Z</time>
      </trkpt>
      <trkpt lat="50.64314" lon="2.90705">
        <ele>85</ele>
        <time>2023-08-05T15:30:43Z</time>
      </trkpt>
      <trkpt lat="50.64313" lon="2.90704">
        <ele>84.8</ele>
        <time>2023-08-05T15:30:44Z</time>
      </trkpt>
      <trkpt lat="50.64314" lon="2.90705">
        <ele>84.2</ele>
        <time>2023-08-05T15:30:45Z</time>
      </trkpt>
      <trkpt lat="50.64315" lon="2.90709">
        <ele>84</ele>
        <time>2023-08-05T15:30:46Z</time>
      </trkpt>
      <trkpt lat="50.64316" lon="2.90713">
        <ele>83.6</ele>
        <time>2023-08-05T15:30:47Z</time>
      </trkpt>
      <trkpt lat="50.64316" lon="2.90723">
        <ele>83</ele>
        <time>2023-08-05T15:30:49Z</time>
      </trkpt>
      <trkpt lat="50.64314" lon="2.90734">
        <ele>82.8</ele>
        <time>2023-08-05T15:30:51Z</time>
      </trkpt>
      <trkpt lat="50.64312" lon="2.90741">
        <ele>82.8</ele>
        <time>2023-08-05T15:30:52Z</time>
      </trkpt>
      <trkpt lat="50.64311" lon="2.90747">
        <ele>82.8</ele>
        <time>2023-08-05T15:30:53Z</time>
      </trkpt>
      <trkpt lat="50.64309" lon="2.90754">
        <ele>82.6</ele>
        <time>2023-08-05T15:30:54Z</time>
      </trkpt>
      <trkpt lat="50.64293" lon="2.90808">
        <ele>82.2</ele>
        <time>2023-08-05T15:31:01Z</time>
      </trkpt>
      <trkpt lat="50.64291" lon="2.90816">
        <ele>82</ele>
        <time>2023-08-05T15:31:02Z</time>
      </trkpt>
      <trkpt lat="50.64272" lon="2.90885">
        <ele>81.2</ele>
        <time>2023-08-05T15:31:11Z</time>
      </trkpt>
      <trkpt lat="50.64265" lon="2.90914">
        <ele>81.2</ele>
        <time>2023-08-05T15:31:15Z</time>
      </trkpt>
      <trkpt lat="50.64263" lon="2.90921">
        <ele>81.2</ele>
        <time>2023-08-05T15:31:16Z</time>
      </trkpt>
      <trkpt lat="50.64261" lon="2.90929">
        <ele>81.2</ele>
        <time>2023-08-05T15:31:17Z</time>
      </trkpt>
      <trkpt lat="50.64259" lon="2.90936">
        <ele>81.2</ele>
        <time>2023-08-05T15:31:18Z</time>
      </trkpt>
      <trkpt lat="50.64255" lon="2.90951">
        <ele>81.2</ele>
        <time>2023-08-05T15:31:20Z</time>
      </trkpt>
      <trkpt lat="50.6424" lon="2.91004">
        <ele>81.2</ele>
        <time>2023-08-05T15:31:27Z</time>
      </trkpt>
      <trkpt lat="50.6423" lon="2.9104">
        <ele>81.4</ele>
        <time>2023-08-05T15:31:32Z</time>
      </trkpt>
      <trkpt lat="50.64227" lon="2.91047">
        <ele>81.4</ele>
        <time>2023-08-05T15:31:33Z</time>
      </trkpt>
      <trkpt lat="50.64225" lon="2.91054">
        <ele>81.4</ele>
        <time>2023-08-05T15:31:34Z</time>
      </trkpt>
      <trkpt lat="50.64222" lon="2.91061">
        <ele>81.2</ele>
        <time>2023-08-05T15:31:35Z</time>
      </trkpt>
      <trkpt lat="50.64219" lon="2.91067">
        <ele>81.4</ele>
        <time>2023-08-05T15:31:36Z</time>
      </trkpt>
      <trkpt lat="50.64216" lon="2.91074">
        <ele>81.4</ele>
        <time>2023-08-05T15:31:37Z</time>
      </trkpt>
      <trkpt lat="50.64198" lon="2.91113">
        <ele>81.2</ele>
        <time>2023-08-05T15:31:43Z</time>
      </trkpt>
      <trkpt lat="50.64169" lon="2.9117">
        <ele>81.6</ele>
        <time>2023-08-05T15:31:52Z</time>
      </trkpt>
      <trkpt lat="50.64166" lon="2.91176">
        <ele>81.6</ele>
        <time>2023-08-05T15:31:53Z</time>
      </trkpt>
      <trkpt lat="50.64154" lon="2.91202">
        <ele>81.6</ele>
        <time>2023-08-05T15:31:57Z</time>
      </trkpt>
      <trkpt lat="50.64123" lon="2.91269">
        <ele>81.8</ele>
        <time>2023-08-05T15:32:07Z</time>
      </trkpt>
      <trkpt lat="50.64117" lon="2.91282">
        <ele>81.8</ele>
        <time>2023-08-05T15:32:09Z</time>
      </trkpt>
      <trkpt lat="50.64106" lon="2.91307">
        <ele>82</ele>
        <time>2023-08-05T15:32:13Z</time>
      </trkpt>
      <trkpt lat="50.64102" lon="2.91313">
        <ele>82</ele>
        <time>2023-08-05T15:32:14Z</time>
      </trkpt>
      <trkpt lat="50.64099" lon="2.9132">
        <ele>82</ele>
        <time>2023-08-05T15:32:15Z</time>
      </trkpt>
      <trkpt lat="50.64083" lon="2.91353">
        <ele>82</ele>
        <time>2023-08-05T15:32:20Z</time>
      </trkpt>
      <trkpt lat="50.64077" lon="2.91366">
        <ele>82</ele>
        <time>2023-08-05T15:32:22Z</time>
      </trkpt>
      <trkpt lat="50.64065" lon="2.91391">
        <ele>82</ele>
        <time>2023-08-05T15:32:26Z</time>
      </trkpt>
      <trkpt lat="50.64061" lon="2.91398">
        <ele>81.8</ele>
        <time>2023-08-05T15:32:27Z</time>
      </trkpt>
      <trkpt lat="50.64058" lon="2.91404">
        <ele>81.8</ele>
        <time>2023-08-05T15:32:28Z</time>
      </trkpt>
      <trkpt lat="50.64055" lon="2.91411">
        <ele>82</ele>
        <time>2023-08-05T15:32:29Z</time>
      </trkpt>
      <trkpt lat="50.64049" lon="2.91424">
        <ele>81.8</ele>
        <time>2023-08-05T15:32:31Z</time>
      </trkpt>
      <trkpt lat="50.64046" lon="2.9143">
        <ele>81.8</ele>
        <time>2023-08-05T15:32:32Z</time>
      </trkpt>
      <trkpt lat="50.64044" lon="2.91435">
        <ele>81.8</ele>
        <time>2023-08-05T15:32:33Z</time>
      </trkpt>
      <trkpt lat="50.6404" lon="2.91442">
        <ele>81.8</ele>
        <time>2023-08-05T15:32:34Z</time>
      </trkpt>
      <trkpt lat="50.64034" lon="2.91456">
        <ele>81.8</ele>
        <time>2023-08-05T15:32:36Z</time>
      </trkpt>
      <trkpt lat="50.64014" lon="2.91495">
        <ele>81.8</ele>
        <time>2023-08-05T15:32:42Z</time>
      </trkpt>
      <trkpt lat="50.64002" lon="2.9152">
        <ele>81.8</ele>
        <time>2023-08-05T15:32:46Z</time>
      </trkpt>
      <trkpt lat="50.63999" lon="2.91527">
        <ele>81.8</ele>
        <time>2023-08-05T15:32:47Z</time>
      </trkpt>
      <trkpt lat="50.63978" lon="2.91572">
        <ele>81.8</ele>
        <time>2023-08-05T15:32:54Z</time>
      </trkpt>
      <trkpt lat="50.63965" lon="2.91605">
        <ele>81.8</ele>
        <time>2023-08-05T15:32:59Z</time>
      </trkpt>
      <trkpt lat="50.63963" lon="2.91612">
        <ele>82</ele>
        <time>2023-08-05T15:33:00Z</time>
      </trkpt>
      <trkpt lat="50.6396" lon="2.91618">
        <ele>82</ele>
        <time>2023-08-05T15:33:01Z</time>
      </trkpt>
      <trkpt lat="50.63958" lon="2.91625">
        <ele>82.2</ele>
        <time>2023-08-05T15:33:02Z</time>
      </trkpt>
      <trkpt lat="50.63947" lon="2.91661">
        <ele>82.6</ele>
        <time>2023-08-05T15:33:07Z</time>
      </trkpt>
      <trkpt lat="50.63942" lon="2.91682">
        <ele>82.8</ele>
        <time>2023-08-05T15:33:10Z</time>
      </trkpt>
      <trkpt lat="50.6394" lon="2.91689">
        <ele>83</ele>
        <time>2023-08-05T15:33:11Z</time>
      </trkpt>
      <trkpt lat="50.63939" lon="2.91696">
        <ele>83</ele>
        <time>2023-08-05T15:33:12Z</time>
      </trkpt>
      <trkpt lat="50.63935" lon="2.91716">
        <ele>83.6</ele>
        <time>2023-08-05T15:33:15Z</time>
      </trkpt>
      <trkpt lat="50.63933" lon="2.91723">
        <ele>83.6</ele>
        <time>2023-08-05T15:33:16Z</time>
      </trkpt>
      <trkpt lat="50.63932" lon="2.9173">
        <ele>83.6</ele>
        <time>2023-08-05T15:33:17Z</time>
      </trkpt>
      <trkpt lat="50.63931" lon="2.91737">
        <ele>83.6</ele>
        <time>2023-08-05T15:33:18Z</time>
      </trkpt>
      <trkpt lat="50.6393" lon="2.91744">
        <ele>83.8</ele>
        <time>2023-08-05T15:33:19Z</time>
      </trkpt>
      <trkpt lat="50.63929" lon="2.91751">
        <ele>83.8</ele>
        <time>2023-08-05T15:33:20Z</time>
      </trkpt>
      <trkpt lat="50.63928" lon="2.91758">
        <ele>83.8</ele>
        <time>2023-08-05T15:33:21Z</time>
      </trkpt>
      <trkpt lat="50.63916" lon="2.91822">
        <ele>83.8</ele>
        <time>2023-08-05T15:33:29Z</time>
      </trkpt>
      <trkpt lat="50.63904" lon="2.91886">
        <ele>83.8</ele>
        <time>2023-08-05T15:33:37Z</time>
      </trkpt>
      <trkpt lat="50.639" lon="2.9191">
        <ele>83.8</ele>
        <time>2023-08-05T15:33:40Z</time>
      </trkpt>
      <trkpt lat="50.63898" lon="2.91918">
        <ele>83.8</ele>
        <time>2023-08-05T15:33:41Z</time>
      </trkpt>
      <trkpt lat="50.63889" lon="2.91969">
        <ele>83.6</ele>
        <time>2023-08-05T15:33:47Z</time>
      </trkpt>
      <trkpt lat="50.63886" lon="2.91984">
        <ele>83.6</ele>
        <time>2023-08-05T15:33:49Z</time>
      </trkpt>
      <trkpt lat="50.63879" lon="2.92015">
        <ele>83.6</ele>
        <time>2023-08-05T15:33:53Z</time>
      </trkpt>
      <trkpt lat="50.63859" lon="2.92077">
        <ele>83.6</ele>
        <time>2023-08-05T15:34:01Z</time>
      </trkpt>
      <trkpt lat="50.63857" lon="2.92085">
        <ele>83.6</ele>
        <time>2023-08-05T15:34:02Z</time>
      </trkpt>
      <trkpt lat="50.63854" lon="2.92092">
        <ele>83.6</ele>
        <time>2023-08-05T15:34:03Z</time>
      </trkpt>
      <trkpt lat="50.6385" lon="2.92098">
        <ele>83.6</ele>
        <time>2023-08-05T15:34:04Z</time>
      </trkpt>
      <trkpt lat="50.63837" lon="2.92125">
        <ele>83.6</ele>
        <time>2023-08-05T15:34:08Z</time>
      </trkpt>
      <trkpt lat="50.63831" lon="2.92138">
        <ele>83.6</ele>
        <time>2023-08-05T15:34:10Z</time>
      </trkpt>
      <trkpt lat="50.63828" lon="2.92144">
        <ele>83.6</ele>
        <time>2023-08-05T15:34:11Z</time>
      </trkpt>
      <trkpt lat="50.63825" lon="2.9215">
        <ele>83.6</ele>
        <time>2023-08-05T15:34:12Z</time>
      </trkpt>
      <trkpt lat="50.63822" lon="2.92156">
        <ele>83.6</ele>
        <time>2023-08-05T15:34:13Z</time>
      </trkpt>
      <trkpt lat="50.63819" lon="2.92162">
        <ele>83.6</ele>
        <time>2023-08-05T15:34:14Z</time>
      </trkpt>
      <trkpt lat="50.63816" lon="2.92168">
        <ele>83.6</ele>
        <time>2023-08-05T15:34:15Z</time>
      </trkpt>
      <trkpt lat="50.63812" lon="2.92174">
        <ele>83.8</ele>
        <time>2023-08-05T15:34:16Z</time>
      </trkpt>
      <trkpt lat="50.6381" lon="2.92179">
        <ele>83.8</ele>
        <time>2023-08-05T15:34:17Z</time>
      </trkpt>
      <trkpt lat="50.63806" lon="2.92186">
        <ele>83.8</ele>
        <time>2023-08-05T15:34:18Z</time>
      </trkpt>
      <trkpt lat="50.63803" lon="2.92192">
        <ele>83.8</ele>
        <time>2023-08-05T15:34:19Z</time>
      </trkpt>
      <trkpt lat="50.63801" lon="2.92196">
        <ele>84</ele>
        <time>2023-08-05T15:34:20Z</time>
      </trkpt>
      <trkpt lat="50.63797" lon="2.92203">
        <ele>84</ele>
        <time>2023-08-05T15:34:21Z</time>
      </trkpt>
      <trkpt lat="50.63795" lon="2.92208">
        <ele>84</ele>
        <time>2023-08-05T15:34:22Z</time>
      </trkpt>
      <trkpt lat="50.63792" lon="2.92214">
        <ele>84.2</ele>
        <time>2023-08-05T15:34:23Z</time>
      </trkpt>
      <trkpt lat="50.63789" lon="2.92219">
        <ele>84.2</ele>
        <time>2023-08-05T15:34:24Z</time>
      </trkpt>
      <trkpt lat="50.63787" lon="2.92224">
        <ele>84.2</ele>
        <time>2023-08-05T15:34:25Z</time>
      </trkpt>
      <trkpt lat="50.63784" lon="2.9223">
        <ele>84.2</ele>
        <time>2023-08-05T15:34:26Z</time>
      </trkpt>
      <trkpt lat="50.63781" lon="2.92236">
        <ele>84.2</ele>
        <time>2023-08-05T15:34:27Z</time>
      </trkpt>
      <trkpt lat="50.63778" lon="2.92242">
        <ele>84.2</ele>
        <time>2023-08-05T15:34:28Z</time>
      </trkpt>
      <trkpt lat="50.63775" lon="2.92248">
        <ele>84.2</ele>
        <time>2023-08-05T15:34:29Z</time>
      </trkpt>
      <trkpt lat="50.63772" lon="2.92254">
        <ele>84.2</ele>
        <time>2023-08-05T15:34:30Z</time>
      </trkpt>
      <trkpt lat="50.63769" lon="2.9226">
        <ele>84</ele>
        <time>2023-08-05T15:34:31Z</time>
      </trkpt>
      <trkpt lat="50.63754" lon="2.9229">
        <ele>84</ele>
        <time>2023-08-05T15:34:36Z</time>
      </trkpt>
      <trkpt lat="50.63732" lon="2.92336">
        <ele>83.8</ele>
        <time>2023-08-05T15:34:44Z</time>
      </trkpt>
      <trkpt lat="50.63729" lon="2.9234">
        <ele>83.8</ele>
        <time>2023-08-05T15:34:45Z</time>
      </trkpt>
      <trkpt lat="50.63723" lon="2.92352">
        <ele>83.6</ele>
        <time>2023-08-05T15:34:47Z</time>
      </trkpt>
      <trkpt lat="50.6372" lon="2.92358">
        <ele>83.6</ele>
        <time>2023-08-05T15:34:48Z</time>
      </trkpt>
      <trkpt lat="50.63717" lon="2.92364">
        <ele>83.6</ele>
        <time>2023-08-05T15:34:49Z</time>
      </trkpt>
      <trkpt lat="50.63714" lon="2.92369">
        <ele>83.6</ele>
        <time>2023-08-05T15:34:50Z</time>
      </trkpt>
      <trkpt lat="50.63712" lon="2.92374">
        <ele>83.6</ele>
        <time>2023-08-05T15:34:51Z</time>
      </trkpt>
      <trkpt lat="50.63703" lon="2.9239">
        <ele>83.6</ele>
        <time>2023-08-05T15:34:54Z</time>
      </trkpt>
      <trkpt lat="50.63701" lon="2.92396">
        <ele>83.6</ele>
        <time>2023-08-05T15:34:55Z</time>
      </trkpt>
      <trkpt lat="50.63698" lon="2.92401">
        <ele>83.6</ele>
        <time>2023-08-05T15:34:56Z</time>
      </trkpt>
      <trkpt lat="50.63696" lon="2.92406">
        <ele>83.6</ele>
        <time>2023-08-05T15:34:57Z</time>
      </trkpt>
      <trkpt lat="50.63693" lon="2.9241">
        <ele>83.6</ele>
        <time>2023-08-05T15:34:58Z</time>
      </trkpt>
      <trkpt lat="50.63691" lon="2.92414">
        <ele>83.8</ele>
        <time>2023-08-05T15:34:59Z</time>
      </trkpt>
      <trkpt lat="50.63689" lon="2.92418">
        <ele>84</ele>
        <time>2023-08-05T15:35:00Z</time>
      </trkpt>
      <trkpt lat="50.63686" lon="2.92422">
        <ele>84</ele>
        <time>2023-08-05T15:35:01Z</time>
      </trkpt>
      <trkpt lat="50.63684" lon="2.92426">
        <ele>84</ele>
        <time>2023-08-05T15:35:02Z</time>
      </trkpt>
      <trkpt lat="50.63683" lon="2.92429">
        <ele>84.2</ele>
        <time>2023-08-05T15:35:03Z</time>
      </trkpt>
      <trkpt lat="50.63679" lon="2.92436">
        <ele>84.4</ele>
        <time>2023-08-05T15:35:05Z</time>
      </trkpt>
      <trkpt lat="50.63677" lon="2.9244">
        <ele>84.6</ele>
        <time>2023-08-05T15:35:06Z</time>
      </trkpt>
      <trkpt lat="50.63676" lon="2.92443">
        <ele>84.6</ele>
        <time>2023-08-05T15:35:07Z</time>
      </trkpt>
      <trkpt lat="50.63674" lon="2.92446">
        <ele>84.6</ele>
        <time>2023-08-05T15:35:08Z</time>
      </trkpt>
      <trkpt lat="50.63672" lon="2.92449">
        <ele>84.6</ele>
        <time>2023-08-05T15:35:09Z</time>
      </trkpt>
      <trkpt lat="50.63671" lon="2.92452">
        <ele>84.8</ele>
        <time>2023-08-05T15:35:10Z</time>
      </trkpt>
      <trkpt lat="50.6367" lon="2.92454">
        <ele>84.8</ele>
        <time>2023-08-05T15:35:11Z</time>
      </trkpt>
      <trkpt lat="50.63668" lon="2.92455">
        <ele>84.8</ele>
        <time>2023-08-05T15:35:12Z</time>
      </trkpt>
      <trkpt lat="50.63667" lon="2.92456">
        <ele>85</ele>
        <time>2023-08-05T15:35:13Z</time>
      </trkpt>
      <trkpt lat="50.63666" lon="2.92457">
        <ele>85</ele>
        <time>2023-08-05T15:35:14Z</time>
      </trkpt>
      <trkpt lat="50.63666" lon="2.92457">
        <ele>85</ele>
        <time>2023-08-05T15:35:15Z</time>
      </trkpt>
      <trkpt lat="50.63666" lon="2.92457">
        <ele>85</ele>
        <time>2023-08-05T15:35:16Z</time>
      </trkpt>
      <trkpt lat="50.63665" lon="2.92463">
        <ele>85.2</ele>
        <time>2023-08-05T15:36:31Z</time>
      </trkpt>
      <trkpt lat="50.63661" lon="2.92474">
        <ele>85.2</ele>
        <time>2023-08-05T15:36:34Z</time>
      </trkpt>
      <trkpt lat="50.6366" lon="2.92476">
        <ele>85.2</ele>
        <time>2023-08-05T15:36:35Z</time>
      </trkpt>
      <trkpt lat="50.63659" lon="2.92479">
        <ele>85.2</ele>
        <time>2023-08-05T15:36:36Z</time>
      </trkpt>
      <trkpt lat="50.63657" lon="2.92485">
        <ele>85.2</ele>
        <time>2023-08-05T15:36:38Z</time>
      </trkpt>
      <trkpt lat="50.63648" lon="2.92502">
        <ele>85.2</ele>
        <time>2023-08-05T15:36:43Z</time>
      </trkpt>
      <trkpt lat="50.63641" lon="2.92519">
        <ele>85</ele>
        <time>2023-08-05T15:36:47Z</time>
      </trkpt>
      <trkpt lat="50.63639" lon="2.92522">
        <ele>85</ele>
        <time>2023-08-05T15:36:48Z</time>
      </trkpt>
      <trkpt lat="50.63635" lon="2.92531">
        <ele>85.2</ele>
        <time>2023-08-05T15:36:50Z</time>
      </trkpt>
      <trkpt lat="50.63618" lon="2.92569">
        <ele>85.4</ele>
        <time>2023-08-05T15:36:58Z</time>
      </trkpt>
      <trkpt lat="50.63601" lon="2.92608">
        <ele>85.8</ele>
        <time>2023-08-05T15:37:06Z</time>
      </trkpt>
      <trkpt lat="50.63578" lon="2.92664">
        <ele>86</ele>
        <time>2023-08-05T15:37:17Z</time>
      </trkpt>
      <trkpt lat="50.6357" lon="2.92689">
        <ele>86.2</ele>
        <time>2023-08-05T15:37:22Z</time>
      </trkpt>
      <trkpt lat="50.63569" lon="2.92694">
        <ele>86.2</ele>
        <time>2023-08-05T15:37:23Z</time>
      </trkpt>
      <trkpt lat="50.63568" lon="2.927">
        <ele>86.2</ele>
        <time>2023-08-05T15:37:24Z</time>
      </trkpt>
      <trkpt lat="50.63568" lon="2.92705">
        <ele>86.2</ele>
        <time>2023-08-05T15:37:25Z</time>
      </trkpt>
      <trkpt lat="50.63567" lon="2.9271">
        <ele>86.2</ele>
        <time>2023-08-05T15:37:26Z</time>
      </trkpt>
      <trkpt lat="50.63566" lon="2.92715">
        <ele>86.2</ele>
        <time>2023-08-05T15:37:27Z</time>
      </trkpt>
      <trkpt lat="50.63566" lon="2.92721">
        <ele>86.2</ele>
        <time>2023-08-05T15:37:28Z</time>
      </trkpt>
      <trkpt lat="50.63563" lon="2.92754">
        <ele>86.6</ele>
        <time>2023-08-05T15:37:34Z</time>
      </trkpt>
      <trkpt lat="50.6356" lon="2.9278">
        <ele>87.4</ele>
        <time>2023-08-05T15:37:39Z</time>
      </trkpt>
      <trkpt lat="50.63559" lon="2.92786">
        <ele>87.4</ele>
        <time>2023-08-05T15:37:40Z</time>
      </trkpt>
      <trkpt lat="50.63558" lon="2.92791">
        <ele>87.6</ele>
        <time>2023-08-05T15:37:41Z</time>
      </trkpt>
      <trkpt lat="50.63558" lon="2.92796">
        <ele>87.8</ele>
        <time>2023-08-05T15:37:42Z</time>
      </trkpt>
      <trkpt lat="50.63552" lon="2.92849">
        <ele>88.4</ele>
        <time>2023-08-05T15:37:51Z</time>
      </trkpt>
      <trkpt lat="50.63551" lon="2.92855">
        <ele>88.6</ele>
        <time>2023-08-05T15:37:52Z</time>
      </trkpt>
      <trkpt lat="50.63544" lon="2.92898">
        <ele>89.2</ele>
        <time>2023-08-05T15:38:00Z</time>
      </trkpt>
      <trkpt lat="50.63542" lon="2.92902">
        <ele>89.4</ele>
        <time>2023-08-05T15:38:01Z</time>
      </trkpt>
      <trkpt lat="50.6354" lon="2.92904">
        <ele>89.4</ele>
        <time>2023-08-05T15:38:02Z</time>
      </trkpt>
      <trkpt lat="50.63536" lon="2.92905">
        <ele>89.4</ele>
        <time>2023-08-05T15:38:03Z</time>
      </trkpt>
      <trkpt lat="50.63529" lon="2.92906">
        <ele>89.8</ele>
        <time>2023-08-05T15:38:05Z</time>
      </trkpt>
      <trkpt lat="50.63526" lon="2.92907">
        <ele>89.8</ele>
        <time>2023-08-05T15:38:06Z</time>
      </trkpt>
      <trkpt lat="50.63522" lon="2.92908">
        <ele>89.8</ele>
        <time>2023-08-05T15:38:07Z</time>
      </trkpt>
      <trkpt lat="50.63511" lon="2.9291">
        <ele>90</ele>
        <time>2023-08-05T15:38:10Z</time>
      </trkpt>
      <trkpt lat="50.63486" lon="2.92908">
        <ele>90.4</ele>
        <time>2023-08-05T15:38:17Z</time>
      </trkpt>
      <trkpt lat="50.63476" lon="2.92902">
        <ele>90.6</ele>
        <time>2023-08-05T15:38:20Z</time>
      </trkpt>
      <trkpt lat="50.63459" lon="2.9289">
        <ele>91.2</ele>
        <time>2023-08-05T15:38:25Z</time>
      </trkpt>
      <trkpt lat="50.63452" lon="2.92884">
        <ele>91.6</ele>
        <time>2023-08-05T15:38:27Z</time>
      </trkpt>
      <trkpt lat="50.63426" lon="2.92862">
        <ele>92.2</ele>
        <time>2023-08-05T15:38:35Z</time>
      </trkpt>
      <trkpt lat="50.63399" lon="2.9284">
        <ele>92.4</ele>
        <time>2023-08-05T15:38:43Z</time>
      </trkpt>
      <trkpt lat="50.63388" lon="2.92834">
        <ele>92.6</ele>
        <time>2023-08-05T15:38:46Z</time>
      </trkpt>
      <trkpt lat="50.63368" lon="2.92827">
        <ele>93</ele>
        <time>2023-08-05T15:38:51Z</time>
      </trkpt>
      <trkpt lat="50.63345" lon="2.92817">
        <ele>92.8</ele>
        <time>2023-08-05T15:38:56Z</time>
      </trkpt>
      <trkpt lat="50.63339" lon="2.92814">
        <ele>92.6</ele>
        <time>2023-08-05T15:38:57Z</time>
      </trkpt>
      <trkpt lat="50.63303" lon="2.92802">
        <ele>92.2</ele>
        <time>2023-08-05T15:39:03Z</time>
      </trkpt>
      <trkpt lat="50.63297" lon="2.92799">
        <ele>92.2</ele>
        <time>2023-08-05T15:39:04Z</time>
      </trkpt>
      <trkpt lat="50.63269" lon="2.92782">
        <ele>91.6</ele>
        <time>2023-08-05T15:39:09Z</time>
      </trkpt>
      <trkpt lat="50.63241" lon="2.92763">
        <ele>90.4</ele>
        <time>2023-08-05T15:39:14Z</time>
      </trkpt>
      <trkpt lat="50.63235" lon="2.92759">
        <ele>90.2</ele>
        <time>2023-08-05T15:39:15Z</time>
      </trkpt>
      <trkpt lat="50.63231" lon="2.92756">
        <ele>89.8</ele>
        <time>2023-08-05T15:39:16Z</time>
      </trkpt>
      <trkpt lat="50.63226" lon="2.92753">
        <ele>89.8</ele>
        <time>2023-08-05T15:39:17Z</time>
      </trkpt>
      <trkpt lat="50.63221" lon="2.92748">
        <ele>89.6</ele>
        <time>2023-08-05T15:39:18Z</time>
      </trkpt>
      <trkpt lat="50.63216" lon="2.92745">
        <ele>89.6</ele>
        <time>2023-08-05T15:39:19Z</time>
      </trkpt>
      <trkpt lat="50.63212" lon="2.92742">
        <ele>89.6</ele>
        <time>2023-08-05T15:39:20Z</time>
      </trkpt>
      <trkpt lat="50.63207" lon="2.92738">
        <ele>89.4</ele>
        <time>2023-08-05T15:39:21Z</time>
      </trkpt>
      <trkpt lat="50.63203" lon="2.92734">
        <ele>89.4</ele>
        <time>2023-08-05T15:39:22Z</time>
      </trkpt>
      <trkpt lat="50.63198" lon="2.92731">
        <ele>89.4</ele>
        <time>2023-08-05T15:39:23Z</time>
      </trkpt>
      <trkpt lat="50.63156" lon="2.92704">
        <ele>88.2</ele>
        <time>2023-08-05T15:39:31Z</time>
      </trkpt>
      <trkpt lat="50.63151" lon="2.92701">
        <ele>88.2</ele>
        <time>2023-08-05T15:39:32Z</time>
      </trkpt>
      <trkpt lat="50.63146" lon="2.92698">
        <ele>88.2</ele>
        <time>2023-08-05T15:39:33Z</time>
      </trkpt>
      <trkpt lat="50.63117" lon="2.92677">
        <ele>87.4</ele>
        <time>2023-08-05T15:39:39Z</time>
      </trkpt>
      <trkpt lat="50.63113" lon="2.92674">
        <ele>87.4</ele>
        <time>2023-08-05T15:39:40Z</time>
      </trkpt>
      <trkpt lat="50.6309" lon="2.92657">
        <ele>87</ele>
        <time>2023-08-05T15:39:45Z</time>
      </trkpt>
      <trkpt lat="50.63085" lon="2.92654">
        <ele>87</ele>
        <time>2023-08-05T15:39:46Z</time>
      </trkpt>
      <trkpt lat="50.63071" lon="2.92644">
        <ele>87</ele>
        <time>2023-08-05T15:39:49Z</time>
      </trkpt>
      <trkpt lat="50.63067" lon="2.92641">
        <ele>86.8</ele>
        <time>2023-08-05T15:39:50Z</time>
      </trkpt>
      <trkpt lat="50.63042" lon="2.92621">
        <ele>86.8</ele>
        <time>2023-08-05T15:39:56Z</time>
      </trkpt>
      <trkpt lat="50.63038" lon="2.92618">
        <ele>86.8</ele>
        <time>2023-08-05T15:39:57Z</time>
      </trkpt>
      <trkpt lat="50.63034" lon="2.92615">
        <ele>86.8</ele>
        <time>2023-08-05T15:39:58Z</time>
      </trkpt>
      <trkpt lat="50.6303" lon="2.92612">
        <ele>86.8</ele>
        <time>2023-08-05T15:39:59Z</time>
      </trkpt>
      <trkpt lat="50.63026" lon="2.92608">
        <ele>86.8</ele>
        <time>2023-08-05T15:40:00Z</time>
      </trkpt>
      <trkpt lat="50.63019" lon="2.926">
        <ele>86.8</ele>
        <time>2023-08-05T15:40:02Z</time>
      </trkpt>
      <trkpt lat="50.63013" lon="2.9259">
        <ele>86.8</ele>
        <time>2023-08-05T15:40:04Z</time>
      </trkpt>
      <trkpt lat="50.63011" lon="2.92583">
        <ele>86.6</ele>
        <time>2023-08-05T15:40:05Z</time>
      </trkpt>
      <trkpt lat="50.63009" lon="2.92576">
        <ele>86.6</ele>
        <time>2023-08-05T15:40:06Z</time>
      </trkpt>
      <trkpt lat="50.63007" lon="2.9257">
        <ele>86.6</ele>
        <time>2023-08-05T15:40:07Z</time>
      </trkpt>
      <trkpt lat="50.63001" lon="2.92549">
        <ele>86.4</ele>
        <time>2023-08-05T15:40:10Z</time>
      </trkpt>
      <trkpt lat="50.62999" lon="2.92543">
        <ele>86.4</ele>
        <time>2023-08-05T15:40:11Z</time>
      </trkpt>
      <trkpt lat="50.62992" lon="2.92523">
        <ele>86.2</ele>
        <time>2023-08-05T15:40:14Z</time>
      </trkpt>
      <trkpt lat="50.62991" lon="2.92517">
        <ele>86.2</ele>
        <time>2023-08-05T15:40:15Z</time>
      </trkpt>
      <trkpt lat="50.62989" lon="2.92512">
        <ele>86.2</ele>
        <time>2023-08-05T15:40:16Z</time>
      </trkpt>
      <trkpt lat="50.62987" lon="2.92504">
        <ele>86.2</ele>
        <time>2023-08-05T15:40:17Z</time>
      </trkpt>
      <trkpt lat="50.62985" lon="2.925">
        <ele>86.2</ele>
        <time>2023-08-05T15:40:18Z</time>
      </trkpt>
      <trkpt lat="50.62983" lon="2.92493">
        <ele>86.2</ele>
        <time>2023-08-05T15:40:19Z</time>
      </trkpt>
      <trkpt lat="50.62981" lon="2.92487">
        <ele>86.2</ele>
        <time>2023-08-05T15:40:20Z</time>
      </trkpt>
      <trkpt lat="50.62979" lon="2.92481">
        <ele>86.4</ele>
        <time>2023-08-05T15:40:21Z</time>
      </trkpt>
      <trkpt lat="50.62956" lon="2.92411">
        <ele>86.4</ele>
        <time>2023-08-05T15:40:32Z</time>
      </trkpt>
      <trkpt lat="50.62953" lon="2.92406">
        <ele>86.4</ele>
        <time>2023-08-05T15:40:33Z</time>
      </trkpt>
      <trkpt lat="50.62928" lon="2.92375">
        <ele>86.8</ele>
        <time>2023-08-05T15:40:40Z</time>
      </trkpt>
      <trkpt lat="50.62924" lon="2.92371">
        <ele>86.8</ele>
        <time>2023-08-05T15:40:41Z</time>
      </trkpt>
      <trkpt lat="50.62911" lon="2.92357">
        <ele>87</ele>
        <time>2023-08-05T15:40:45Z</time>
      </trkpt>
      <trkpt lat="50.62907" lon="2.92354">
        <ele>87</ele>
        <time>2023-08-05T15:40:46Z</time>
      </trkpt>
      <trkpt lat="50.62904" lon="2.9235">
        <ele>87.2</ele>
        <time>2023-08-05T15:40:47Z</time>
      </trkpt>
      <trkpt lat="50.629" lon="2.92347">
        <ele>87.2</ele>
        <time>2023-08-05T15:40:48Z</time>
      </trkpt>
      <trkpt lat="50.629" lon="2.92347">
        <ele>87.4</ele>
        <time>2023-08-05T15:40:49Z</time>
      </trkpt>
      <trkpt lat="50.62894" lon="2.92339">
        <ele>87.4</ele>
        <time>2023-08-05T15:40:50Z</time>
      </trkpt>
      <trkpt lat="50.6289" lon="2.92335">
        <ele>87.4</ele>
        <time>2023-08-05T15:40:51Z</time>
      </trkpt>
      <trkpt lat="50.62859" lon="2.92301">
        <ele>88.2</ele>
        <time>2023-08-05T15:41:00Z</time>
      </trkpt>
      <trkpt lat="50.62822" lon="2.92259">
        <ele>88.2</ele>
        <time>2023-08-05T15:41:10Z</time>
      </trkpt>
      <trkpt lat="50.62819" lon="2.92254">
        <ele>88.2</ele>
        <time>2023-08-05T15:41:11Z</time>
      </trkpt>
      <trkpt lat="50.62816" lon="2.92248">
        <ele>88.2</ele>
        <time>2023-08-05T15:41:13Z</time>
      </trkpt>
      <trkpt lat="50.62813" lon="2.92242">
        <ele>88.2</ele>
        <time>2023-08-05T15:41:14Z</time>
      </trkpt>
      <trkpt lat="50.62808" lon="2.92228">
        <ele>88.2</ele>
        <time>2023-08-05T15:41:15Z</time>
      </trkpt>
      <trkpt lat="50.62805" lon="2.92222">
        <ele>88.2</ele>
        <time>2023-08-05T15:41:16Z</time>
      </trkpt>
      <trkpt lat="50.62802" lon="2.92216">
        <ele>88.2</ele>
        <time>2023-08-05T15:41:18Z</time>
      </trkpt>
      <trkpt lat="50.62774" lon="2.92175">
        <ele>88</ele>
        <time>2023-08-05T15:41:26Z</time>
      </trkpt>
      <trkpt lat="50.62767" lon="2.92164">
        <ele>88</ele>
        <time>2023-08-05T15:41:27Z</time>
      </trkpt>
      <trkpt lat="50.62764" lon="2.92159">
        <ele>88</ele>
        <time>2023-08-05T15:41:28Z</time>
      </trkpt>
      <trkpt lat="50.6276" lon="2.92154">
        <ele>88</ele>
        <time>2023-08-05T15:41:29Z</time>
      </trkpt>
      <trkpt lat="50.6273" lon="2.92113">
        <ele>88</ele>
        <time>2023-08-05T15:41:37Z</time>
      </trkpt>
      <trkpt lat="50.6269" lon="2.92062">
        <ele>87.6</ele>
        <time>2023-08-05T15:41:46Z</time>
      </trkpt>
      <trkpt lat="50.6267" lon="2.92036">
        <ele>87.2</ele>
        <time>2023-08-05T15:41:50Z</time>
      </trkpt>
      <trkpt lat="50.62662" lon="2.92018">
        <ele>87</ele>
        <time>2023-08-05T15:41:52Z</time>
      </trkpt>
      <trkpt lat="50.6266" lon="2.91997">
        <ele>86.4</ele>
        <time>2023-08-05T15:41:54Z</time>
      </trkpt>
      <trkpt lat="50.62661" lon="2.91988">
        <ele>86.2</ele>
        <time>2023-08-05T15:41:55Z</time>
      </trkpt>
      <trkpt lat="50.62664" lon="2.91979">
        <ele>86</ele>
        <time>2023-08-05T15:41:56Z</time>
      </trkpt>
      <trkpt lat="50.62667" lon="2.9197">
        <ele>86</ele>
        <time>2023-08-05T15:41:57Z</time>
      </trkpt>
      <trkpt lat="50.62667" lon="2.9197">
        <ele>85.8</ele>
        <time>2023-08-05T15:41:58Z</time>
      </trkpt>
      <trkpt lat="50.62673" lon="2.91954">
        <ele>85.6</ele>
        <time>2023-08-05T15:41:59Z</time>
      </trkpt>
      <trkpt lat="50.62676" lon="2.91946">
        <ele>85.4</ele>
        <time>2023-08-05T15:42:00Z</time>
      </trkpt>
      <trkpt lat="50.62679" lon="2.91938">
        <ele>85.4</ele>
        <time>2023-08-05T15:42:01Z</time>
      </trkpt>
      <trkpt lat="50.62683" lon="2.9193">
        <ele>85.2</ele>
        <time>2023-08-05T15:42:02Z</time>
      </trkpt>
      <trkpt lat="50.62686" lon="2.91922">
        <ele>85.2</ele>
        <time>2023-08-05T15:42:03Z</time>
      </trkpt>
      <trkpt lat="50.62689" lon="2.91914">
        <ele>85.2</ele>
        <time>2023-08-05T15:42:04Z</time>
      </trkpt>
      <trkpt lat="50.62701" lon="2.9189">
        <ele>85</ele>
        <time>2023-08-05T15:42:07Z</time>
      </trkpt>
      <trkpt lat="50.62706" lon="2.91884">
        <ele>85</ele>
        <time>2023-08-05T15:42:08Z</time>
      </trkpt>
      <trkpt lat="50.6271" lon="2.91879">
        <ele>85</ele>
        <time>2023-08-05T15:42:09Z</time>
      </trkpt>
      <trkpt lat="50.6272" lon="2.91868">
        <ele>84.8</ele>
        <time>2023-08-05T15:42:11Z</time>
      </trkpt>
      <trkpt lat="50.62724" lon="2.91861">
        <ele>84.8</ele>
        <time>2023-08-05T15:42:12Z</time>
      </trkpt>
      <trkpt lat="50.62726" lon="2.91853">
        <ele>84.8</ele>
        <time>2023-08-05T15:42:13Z</time>
      </trkpt>
      <trkpt lat="50.62728" lon="2.91844">
        <ele>84.6</ele>
        <time>2023-08-05T15:42:14Z</time>
      </trkpt>
      <trkpt lat="50.62728" lon="2.91835">
        <ele>84.6</ele>
        <time>2023-08-05T15:42:15Z</time>
      </trkpt>
      <trkpt lat="50.62727" lon="2.91826">
        <ele>84.6</ele>
        <time>2023-08-05T15:42:16Z</time>
      </trkpt>
      <trkpt lat="50.62724" lon="2.91818">
        <ele>84.6</ele>
        <time>2023-08-05T15:42:17Z</time>
      </trkpt>
      <trkpt lat="50.62721" lon="2.91811">
        <ele>84.6</ele>
        <time>2023-08-05T15:42:18Z</time>
      </trkpt>
      <trkpt lat="50.62718" lon="2.91804">
        <ele>84.4</ele>
        <time>2023-08-05T15:42:19Z</time>
      </trkpt>
      <trkpt lat="50.62715" lon="2.91799">
        <ele>84.4</ele>
        <time>2023-08-05T15:42:20Z</time>
      </trkpt>
      <trkpt lat="50.62708" lon="2.91787">
        <ele>84.4</ele>
        <time>2023-08-05T15:42:22Z</time>
      </trkpt>
      <trkpt lat="50.62704" lon="2.91781">
        <ele>84.2</ele>
        <time>2023-08-05T15:42:23Z</time>
      </trkpt>
      <trkpt lat="50.62693" lon="2.91765">
        <ele>84.2</ele>
        <time>2023-08-05T15:42:26Z</time>
      </trkpt>
      <trkpt lat="50.62689" lon="2.9176">
        <ele>84.2</ele>
        <time>2023-08-05T15:42:27Z</time>
      </trkpt>
      <trkpt lat="50.62686" lon="2.91754">
        <ele>84.2</ele>
        <time>2023-08-05T15:42:28Z</time>
      </trkpt>
      <trkpt lat="50.62686" lon="2.91754">
        <ele>84.2</ele>
        <time>2023-08-05T15:42:29Z</time>
      </trkpt>
      <trkpt lat="50.62679" lon="2.91743">
        <ele>84</ele>
        <time>2023-08-05T15:42:30Z</time>
      </trkpt>
      <trkpt lat="50.62676" lon="2.91738">
        <ele>84</ele>
        <time>2023-08-05T15:42:31Z</time>
      </trkpt>
      <trkpt lat="50.62672" lon="2.91733">
        <ele>84</ele>
        <time>2023-08-05T15:42:32Z</time>
      </trkpt>
      <trkpt lat="50.62669" lon="2.91728">
        <ele>84</ele>
        <time>2023-08-05T15:42:33Z</time>
      </trkpt>
      <trkpt lat="50.62669" lon="2.91728">
        <ele>83.8</ele>
        <time>2023-08-05T15:42:34Z</time>
      </trkpt>
      <trkpt lat="50.62637" lon="2.91679">
        <ele>83.8</ele>
        <time>2023-08-05T15:42:42Z</time>
      </trkpt>
      <trkpt lat="50.62621" lon="2.91658">
        <ele>84</ele>
        <time>2023-08-05T15:42:47Z</time>
      </trkpt>
      <trkpt lat="50.62617" lon="2.91655">
        <ele>84.2</ele>
        <time>2023-08-05T15:42:48Z</time>
      </trkpt>
      <trkpt lat="50.62617" lon="2.91655">
        <ele>84.2</ele>
        <time>2023-08-05T15:42:49Z</time>
      </trkpt>
      <trkpt lat="50.62609" lon="2.91651">
        <ele>84.2</ele>
        <time>2023-08-05T15:42:50Z</time>
      </trkpt>
      <trkpt lat="50.62604" lon="2.91651">
        <ele>84.4</ele>
        <time>2023-08-05T15:42:51Z</time>
      </trkpt>
      <trkpt lat="50.626" lon="2.91651">
        <ele>84.4</ele>
        <time>2023-08-05T15:42:52Z</time>
      </trkpt>
      <trkpt lat="50.62596" lon="2.91652">
        <ele>84.4</ele>
        <time>2023-08-05T15:42:53Z</time>
      </trkpt>
      <trkpt lat="50.62593" lon="2.91655">
        <ele>84.6</ele>
        <time>2023-08-05T15:42:54Z</time>
      </trkpt>
      <trkpt lat="50.62589" lon="2.91657">
        <ele>84.6</ele>
        <time>2023-08-05T15:42:55Z</time>
      </trkpt>
      <trkpt lat="50.62586" lon="2.9166">
        <ele>84.6</ele>
        <time>2023-08-05T15:42:56Z</time>
      </trkpt>
      <trkpt lat="50.62582" lon="2.91665">
        <ele>84.6</ele>
        <time>2023-08-05T15:42:57Z</time>
      </trkpt>
      <trkpt lat="50.62579" lon="2.91667">
        <ele>84.8</ele>
        <time>2023-08-05T15:42:58Z</time>
      </trkpt>
      <trkpt lat="50.62576" lon="2.91671">
        <ele>84.8</ele>
        <time>2023-08-05T15:42:59Z</time>
      </trkpt>
      <trkpt lat="50.62573" lon="2.91674">
        <ele>84.8</ele>
        <time>2023-08-05T15:43:00Z</time>
      </trkpt>
      <trkpt lat="50.6257" lon="2.91677">
        <ele>84.8</ele>
        <time>2023-08-05T15:43:01Z</time>
      </trkpt>
      <trkpt lat="50.62566" lon="2.9168">
        <ele>84.8</ele>
        <time>2023-08-05T15:43:02Z</time>
      </trkpt>
      <trkpt lat="50.62562" lon="2.91681">
        <ele>85</ele>
        <time>2023-08-05T15:43:03Z</time>
      </trkpt>
      <trkpt lat="50.62559" lon="2.91683">
        <ele>85</ele>
        <time>2023-08-05T15:43:04Z</time>
      </trkpt>
      <trkpt lat="50.62556" lon="2.91683">
        <ele>85</ele>
        <time>2023-08-05T15:43:05Z</time>
      </trkpt>
      <trkpt lat="50.62553" lon="2.91682">
        <ele>85.2</ele>
        <time>2023-08-05T15:43:06Z</time>
      </trkpt>
      <trkpt lat="50.6255" lon="2.91681">
        <ele>85.4</ele>
        <time>2023-08-05T15:43:07Z</time>
      </trkpt>
      <trkpt lat="50.62547" lon="2.91678">
        <ele>85.4</ele>
        <time>2023-08-05T15:43:08Z</time>
      </trkpt>
      <trkpt lat="50.62545" lon="2.91674">
        <ele>85.6</ele>
        <time>2023-08-05T15:43:09Z</time>
      </trkpt>
      <trkpt lat="50.62542" lon="2.9167">
        <ele>85.6</ele>
        <time>2023-08-05T15:43:10Z</time>
      </trkpt>
      <trkpt lat="50.6254" lon="2.91665">
        <ele>85.6</ele>
        <time>2023-08-05T15:43:11Z</time>
      </trkpt>
      <trkpt lat="50.62537" lon="2.9166">
        <ele>85.6</ele>
        <time>2023-08-05T15:43:12Z</time>
      </trkpt>
      <trkpt lat="50.62525" lon="2.91642">
        <ele>85.6</ele>
        <time>2023-08-05T15:43:16Z</time>
      </trkpt>
      <trkpt lat="50.62498" lon="2.91596">
        <ele>85.4</ele>
        <time>2023-08-05T15:43:25Z</time>
      </trkpt>
      <trkpt lat="50.62471" lon="2.91552">
        <ele>85.2</ele>
        <time>2023-08-05T15:43:34Z</time>
      </trkpt>
      <trkpt lat="50.62434" lon="2.91492">
        <ele>84.8</ele>
        <time>2023-08-05T15:43:43Z</time>
      </trkpt>
      <trkpt lat="50.62417" lon="2.91462">
        <ele>84.6</ele>
        <time>2023-08-05T15:43:48Z</time>
      </trkpt>
      <trkpt lat="50.62417" lon="2.91462">
        <ele>84.6</ele>
        <time>2023-08-05T15:43:49Z</time>
      </trkpt>
      <trkpt lat="50.6241" lon="2.9145">
        <ele>84.6</ele>
        <time>2023-08-05T15:43:50Z</time>
      </trkpt>
      <trkpt lat="50.62396" lon="2.91427">
        <ele>84.4</ele>
        <time>2023-08-05T15:43:55Z</time>
      </trkpt>
      <trkpt lat="50.6238" lon="2.91398">
        <ele>84.2</ele>
        <time>2023-08-05T15:44:00Z</time>
      </trkpt>
      <trkpt lat="50.62374" lon="2.91387">
        <ele>84.2</ele>
        <time>2023-08-05T15:44:02Z</time>
      </trkpt>
      <trkpt lat="50.62367" lon="2.91376">
        <ele>84.2</ele>
        <time>2023-08-05T15:44:03Z</time>
      </trkpt>
      <trkpt lat="50.62364" lon="2.9137">
        <ele>84.2</ele>
        <time>2023-08-05T15:44:04Z</time>
      </trkpt>
      <trkpt lat="50.62364" lon="2.9137">
        <ele>84.2</ele>
        <time>2023-08-05T15:44:05Z</time>
      </trkpt>
      <trkpt lat="50.62358" lon="2.9136">
        <ele>84.2</ele>
        <time>2023-08-05T15:44:06Z</time>
      </trkpt>
      <trkpt lat="50.62355" lon="2.91354">
        <ele>84.2</ele>
        <time>2023-08-05T15:44:07Z</time>
      </trkpt>
      <trkpt lat="50.62352" lon="2.91349">
        <ele>84.2</ele>
        <time>2023-08-05T15:44:08Z</time>
      </trkpt>
      <trkpt lat="50.62349" lon="2.91343">
        <ele>84.4</ele>
        <time>2023-08-05T15:44:09Z</time>
      </trkpt>
      <trkpt lat="50.62349" lon="2.91343">
        <ele>84.4</ele>
        <time>2023-08-05T15:44:10Z</time>
      </trkpt>
      <trkpt lat="50.62346" lon="2.91338">
        <ele>84.4</ele>
        <time>2023-08-05T15:44:11Z</time>
      </trkpt>
      <trkpt lat="50.6234" lon="2.91327">
        <ele>84.6</ele>
        <time>2023-08-05T15:44:12Z</time>
      </trkpt>
      <trkpt lat="50.62336" lon="2.91322">
        <ele>84.6</ele>
        <time>2023-08-05T15:44:13Z</time>
      </trkpt>
      <trkpt lat="50.62302" lon="2.91261">
        <ele>84.8</ele>
        <time>2023-08-05T15:44:25Z</time>
      </trkpt>
      <trkpt lat="50.62277" lon="2.91222">
        <ele>85</ele>
        <time>2023-08-05T15:44:33Z</time>
      </trkpt>
      <trkpt lat="50.62274" lon="2.91218">
        <ele>85</ele>
        <time>2023-08-05T15:44:34Z</time>
      </trkpt>
      <trkpt lat="50.6227" lon="2.91215">
        <ele>85</ele>
        <time>2023-08-05T15:44:35Z</time>
      </trkpt>
      <trkpt lat="50.62267" lon="2.91212">
        <ele>85</ele>
        <time>2023-08-05T15:44:36Z</time>
      </trkpt>
      <trkpt lat="50.62263" lon="2.91211">
        <ele>85</ele>
        <time>2023-08-05T15:44:37Z</time>
      </trkpt>
      <trkpt lat="50.6226" lon="2.91212">
        <ele>85.2</ele>
        <time>2023-08-05T15:44:38Z</time>
      </trkpt>
      <trkpt lat="50.62257" lon="2.91214">
        <ele>85.2</ele>
        <time>2023-08-05T15:44:39Z</time>
      </trkpt>
      <trkpt lat="50.62255" lon="2.91217">
        <ele>85.2</ele>
        <time>2023-08-05T15:44:40Z</time>
      </trkpt>
      <trkpt lat="50.62253" lon="2.9122">
        <ele>85.2</ele>
        <time>2023-08-05T15:44:41Z</time>
      </trkpt>
      <trkpt lat="50.62252" lon="2.91222">
        <ele>85.2</ele>
        <time>2023-08-05T15:44:42Z</time>
      </trkpt>
      <trkpt lat="50.62251" lon="2.91224">
        <ele>85.4</ele>
        <time>2023-08-05T15:44:43Z</time>
      </trkpt>
      <trkpt lat="50.62249" lon="2.91227">
        <ele>85.4</ele>
        <time>2023-08-05T15:44:44Z</time>
      </trkpt>
      <trkpt lat="50.62248" lon="2.91229">
        <ele>85.8</ele>
        <time>2023-08-05T15:44:45Z</time>
      </trkpt>
      <trkpt lat="50.62245" lon="2.91234">
        <ele>86.6</ele>
        <time>2023-08-05T15:44:47Z</time>
      </trkpt>
      <trkpt lat="50.62243" lon="2.91236">
        <ele>86.6</ele>
        <time>2023-08-05T15:44:48Z</time>
      </trkpt>
      <trkpt lat="50.62242" lon="2.91238">
        <ele>86.6</ele>
        <time>2023-08-05T15:44:49Z</time>
      </trkpt>
      <trkpt lat="50.6224" lon="2.91241">
        <ele>87</ele>
        <time>2023-08-05T15:44:50Z</time>
      </trkpt>
      <trkpt lat="50.62238" lon="2.91243">
        <ele>86.8</ele>
        <time>2023-08-05T15:44:51Z</time>
      </trkpt>
      <trkpt lat="50.6223" lon="2.91258">
        <ele>87.2</ele>
        <time>2023-08-05T15:44:57Z</time>
      </trkpt>
      <trkpt lat="50.62227" lon="2.91262">
        <ele>87.2</ele>
        <time>2023-08-05T15:44:59Z</time>
      </trkpt>
      <trkpt lat="50.62225" lon="2.91264">
        <ele>87.2</ele>
        <time>2023-08-05T15:45:00Z</time>
      </trkpt>
      <trkpt lat="50.62223" lon="2.91266">
        <ele>87.4</ele>
        <time>2023-08-05T15:45:01Z</time>
      </trkpt>
      <trkpt lat="50.62213" lon="2.91276">
        <ele>88.2</ele>
        <time>2023-08-05T15:45:06Z</time>
      </trkpt>
      <trkpt lat="50.62211" lon="2.91278">
        <ele>88.2</ele>
        <time>2023-08-05T15:45:07Z</time>
      </trkpt>
      <trkpt lat="50.62197" lon="2.9129">
        <ele>88.4</ele>
        <time>2023-08-05T15:45:14Z</time>
      </trkpt>
      <trkpt lat="50.62195" lon="2.91292">
        <ele>88.4</ele>
        <time>2023-08-05T15:45:15Z</time>
      </trkpt>
      <trkpt lat="50.62193" lon="2.91293">
        <ele>88.4</ele>
        <time>2023-08-05T15:45:16Z</time>
      </trkpt>
      <trkpt lat="50.62191" lon="2.91294">
        <ele>88.4</ele>
        <time>2023-08-05T15:45:17Z</time>
      </trkpt>
      <trkpt lat="50.6219" lon="2.91296">
        <ele>88.6</ele>
        <time>2023-08-05T15:45:18Z</time>
      </trkpt>
      <trkpt lat="50.62188" lon="2.91297">
        <ele>88.6</ele>
        <time>2023-08-05T15:45:19Z</time>
      </trkpt>
      <trkpt lat="50.62186" lon="2.91299">
        <ele>88.6</ele>
        <time>2023-08-05T15:45:20Z</time>
      </trkpt>
      <trkpt lat="50.62184" lon="2.913">
        <ele>88.8</ele>
        <time>2023-08-05T15:45:21Z</time>
      </trkpt>
      <trkpt lat="50.62182" lon="2.91301">
        <ele>88.8</ele>
        <time>2023-08-05T15:45:22Z</time>
      </trkpt>
      <trkpt lat="50.6218" lon="2.91303">
        <ele>88.8</ele>
        <time>2023-08-05T15:45:23Z</time>
      </trkpt>
      <trkpt lat="50.62178" lon="2.91304">
        <ele>89</ele>
        <time>2023-08-05T15:45:24Z</time>
      </trkpt>
      <trkpt lat="50.62176" lon="2.91306">
        <ele>89</ele>
        <time>2023-08-05T15:45:25Z</time>
      </trkpt>
      <trkpt lat="50.62171" lon="2.9131">
        <ele>89.2</ele>
        <time>2023-08-05T15:45:27Z</time>
      </trkpt>
      <trkpt lat="50.62164" lon="2.91315">
        <ele>89.8</ele>
        <time>2023-08-05T15:45:31Z</time>
      </trkpt>
      <trkpt lat="50.62158" lon="2.91319">
        <ele>90.4</ele>
        <time>2023-08-05T15:45:34Z</time>
      </trkpt>
      <trkpt lat="50.6215" lon="2.91324">
        <ele>90.6</ele>
        <time>2023-08-05T15:45:38Z</time>
      </trkpt>
      <trkpt lat="50.62128" lon="2.91338">
        <ele>91</ele>
        <time>2023-08-05T15:45:49Z</time>
      </trkpt>
      <trkpt lat="50.62107" lon="2.91349">
        <ele>91.4</ele>
        <time>2023-08-05T15:45:59Z</time>
      </trkpt>
      <trkpt lat="50.6209" lon="2.91358">
        <ele>92</ele>
        <time>2023-08-05T15:46:08Z</time>
      </trkpt>
      <trkpt lat="50.62086" lon="2.9136">
        <ele>92</ele>
        <time>2023-08-05T15:46:09Z</time>
      </trkpt>
      <trkpt lat="50.62065" lon="2.91368">
        <ele>92.4</ele>
        <time>2023-08-05T15:46:18Z</time>
      </trkpt>
      <trkpt lat="50.62035" lon="2.91378">
        <ele>92.8</ele>
        <time>2023-08-05T15:46:31Z</time>
      </trkpt>
      <trkpt lat="50.62028" lon="2.91381">
        <ele>93</ele>
        <time>2023-08-05T15:46:34Z</time>
      </trkpt>
      <trkpt lat="50.62025" lon="2.91382">
        <ele>93</ele>
        <time>2023-08-05T15:46:35Z</time>
      </trkpt>
      <trkpt lat="50.62019" lon="2.91384">
        <ele>93</ele>
        <time>2023-08-05T15:46:38Z</time>
      </trkpt>
      <trkpt lat="50.62009" lon="2.91387">
        <ele>93.2</ele>
        <time>2023-08-05T15:46:42Z</time>
      </trkpt>
      <trkpt lat="50.62007" lon="2.91388">
        <ele>93.2</ele>
        <time>2023-08-05T15:46:43Z</time>
      </trkpt>
      <trkpt lat="50.62005" lon="2.91389">
        <ele>93.2</ele>
        <time>2023-08-05T15:46:44Z</time>
      </trkpt>
      <trkpt lat="50.62003" lon="2.9139">
        <ele>93.4</ele>
        <time>2023-08-05T15:46:45Z</time>
      </trkpt>
      <trkpt lat="50.61988" lon="2.91395">
        <ele>93.4</ele>
        <time>2023-08-05T15:46:51Z</time>
      </trkpt>
      <trkpt lat="50.61979" lon="2.914">
        <ele>93.8</ele>
        <time>2023-08-05T15:46:55Z</time>
      </trkpt>
      <trkpt lat="50.61955" lon="2.91414">
        <ele>94.2</ele>
        <time>2023-08-05T15:47:05Z</time>
      </trkpt>
      <trkpt lat="50.6195" lon="2.91418">
        <ele>94.2</ele>
        <time>2023-08-05T15:47:07Z</time>
      </trkpt>
      <trkpt lat="50.61945" lon="2.91419">
        <ele>94.2</ele>
        <time>2023-08-05T15:47:09Z</time>
      </trkpt>
      <trkpt lat="50.61942" lon="2.91421">
        <ele>94.4</ele>
        <time>2023-08-05T15:47:10Z</time>
      </trkpt>
      <trkpt lat="50.61941" lon="2.91422">
        <ele>94.4</ele>
        <time>2023-08-05T15:47:11Z</time>
      </trkpt>
      <trkpt lat="50.61938" lon="2.91424">
        <ele>94.6</ele>
        <time>2023-08-05T15:47:12Z</time>
      </trkpt>
      <trkpt lat="50.61934" lon="2.91427">
        <ele>94.6</ele>
        <time>2023-08-05T15:47:14Z</time>
      </trkpt>
      <trkpt lat="50.61927" lon="2.91431">
        <ele>94.6</ele>
        <time>2023-08-05T15:47:17Z</time>
      </trkpt>
      <trkpt lat="50.61911" lon="2.9144">
        <ele>94.6</ele>
        <time>2023-08-05T15:47:24Z</time>
      </trkpt>
      <trkpt lat="50.61892" lon="2.91451">
        <ele>94.4</ele>
        <time>2023-08-05T15:47:32Z</time>
      </trkpt>
      <trkpt lat="50.6189" lon="2.91453">
        <ele>94.4</ele>
        <time>2023-08-05T15:47:33Z</time>
      </trkpt>
      <trkpt lat="50.61888" lon="2.91454">
        <ele>94.4</ele>
        <time>2023-08-05T15:47:34Z</time>
      </trkpt>
      <trkpt lat="50.61885" lon="2.91456">
        <ele>94.6</ele>
        <time>2023-08-05T15:47:35Z</time>
      </trkpt>
      <trkpt lat="50.61883" lon="2.91457">
        <ele>94.6</ele>
        <time>2023-08-05T15:47:36Z</time>
      </trkpt>
      <trkpt lat="50.61881" lon="2.91458">
        <ele>94.6</ele>
        <time>2023-08-05T15:47:37Z</time>
      </trkpt>
      <trkpt lat="50.61878" lon="2.9146">
        <ele>94.6</ele>
        <time>2023-08-05T15:47:38Z</time>
      </trkpt>
      <trkpt lat="50.61874" lon="2.91463">
        <ele>94.6</ele>
        <time>2023-08-05T15:47:40Z</time>
      </trkpt>
      <trkpt lat="50.61872" lon="2.91464">
        <ele>94.8</ele>
        <time>2023-08-05T15:47:41Z</time>
      </trkpt>
      <trkpt lat="50.61869" lon="2.91465">
        <ele>94.8</ele>
        <time>2023-08-05T15:47:42Z</time>
      </trkpt>
      <trkpt lat="50.61852" lon="2.91477">
        <ele>95</ele>
        <time>2023-08-05T15:47:50Z</time>
      </trkpt>
      <trkpt lat="50.6185" lon="2.91478">
        <ele>95.2</ele>
        <time>2023-08-05T15:47:51Z</time>
      </trkpt>
      <trkpt lat="50.61848" lon="2.9148">
        <ele>95.2</ele>
        <time>2023-08-05T15:47:52Z</time>
      </trkpt>
      <trkpt lat="50.61846" lon="2.91481">
        <ele>95.2</ele>
        <time>2023-08-05T15:47:53Z</time>
      </trkpt>
      <trkpt lat="50.61844" lon="2.91482">
        <ele>95.2</ele>
        <time>2023-08-05T15:47:54Z</time>
      </trkpt>
      <trkpt lat="50.61828" lon="2.91493">
        <ele>95.2</ele>
        <time>2023-08-05T15:48:01Z</time>
      </trkpt>
      <trkpt lat="50.61809" lon="2.91509">
        <ele>95.6</ele>
        <time>2023-08-05T15:48:09Z</time>
      </trkpt>
      <trkpt lat="50.61805" lon="2.91514">
        <ele>96</ele>
        <time>2023-08-05T15:48:11Z</time>
      </trkpt>
      <trkpt lat="50.61797" lon="2.91522">
        <ele>96.2</ele>
        <time>2023-08-05T15:48:15Z</time>
      </trkpt>
      <trkpt lat="50.61791" lon="2.91529">
        <ele>96.4</ele>
        <time>2023-08-05T15:48:18Z</time>
      </trkpt>
      <trkpt lat="50.61789" lon="2.9153">
        <ele>96.4</ele>
        <time>2023-08-05T15:48:19Z</time>
      </trkpt>
      <trkpt lat="50.61785" lon="2.91534">
        <ele>96.4</ele>
        <time>2023-08-05T15:48:21Z</time>
      </trkpt>
      <trkpt lat="50.61781" lon="2.91537">
        <ele>96.4</ele>
        <time>2023-08-05T15:48:23Z</time>
      </trkpt>
      <trkpt lat="50.61777" lon="2.91539">
        <ele>96.6</ele>
        <time>2023-08-05T15:48:25Z</time>
      </trkpt>
      <trkpt lat="50.61775" lon="2.9154">
        <ele>96.6</ele>
        <time>2023-08-05T15:48:26Z</time>
      </trkpt>
      <trkpt lat="50.61773" lon="2.91542">
        <ele>96.8</ele>
        <time>2023-08-05T15:48:27Z</time>
      </trkpt>
      <trkpt lat="50.61771" lon="2.91543">
        <ele>96.8</ele>
        <time>2023-08-05T15:48:28Z</time>
      </trkpt>
      <trkpt lat="50.61769" lon="2.91544">
        <ele>97</ele>
        <time>2023-08-05T15:48:29Z</time>
      </trkpt>
      <trkpt lat="50.61767" lon="2.91546">
        <ele>97</ele>
        <time>2023-08-05T15:48:30Z</time>
      </trkpt>
      <trkpt lat="50.61765" lon="2.91547">
        <ele>97</ele>
        <time>2023-08-05T15:48:31Z</time>
      </trkpt>
      <trkpt lat="50.61763" lon="2.91549">
        <ele>97.2</ele>
        <time>2023-08-05T15:48:32Z</time>
      </trkpt>
      <trkpt lat="50.61761" lon="2.9155">
        <ele>97.2</ele>
        <time>2023-08-05T15:48:33Z</time>
      </trkpt>
      <trkpt lat="50.61759" lon="2.91552">
        <ele>97.4</ele>
        <time>2023-08-05T15:48:34Z</time>
      </trkpt>
      <trkpt lat="50.6174" lon="2.91562">
        <ele>97.4</ele>
        <time>2023-08-05T15:48:44Z</time>
      </trkpt>
      <trkpt lat="50.61737" lon="2.91565">
        <ele>97.6</ele>
        <time>2023-08-05T15:48:46Z</time>
      </trkpt>
      <trkpt lat="50.61735" lon="2.91566">
        <ele>97.6</ele>
        <time>2023-08-05T15:48:47Z</time>
      </trkpt>
      <trkpt lat="50.61734" lon="2.91568">
        <ele>97.6</ele>
        <time>2023-08-05T15:48:48Z</time>
      </trkpt>
      <trkpt lat="50.61732" lon="2.9157">
        <ele>97.6</ele>
        <time>2023-08-05T15:48:49Z</time>
      </trkpt>
      <trkpt lat="50.61731" lon="2.91572">
        <ele>97.6</ele>
        <time>2023-08-05T15:48:50Z</time>
      </trkpt>
      <trkpt lat="50.6173" lon="2.91575">
        <ele>97.6</ele>
        <time>2023-08-05T15:48:51Z</time>
      </trkpt>
      <trkpt lat="50.61729" lon="2.91578">
        <ele>97.8</ele>
        <time>2023-08-05T15:48:52Z</time>
      </trkpt>
      <trkpt lat="50.61729" lon="2.91582">
        <ele>97.8</ele>
        <time>2023-08-05T15:48:53Z</time>
      </trkpt>
      <trkpt lat="50.61729" lon="2.91586">
        <ele>97.8</ele>
        <time>2023-08-05T15:48:54Z</time>
      </trkpt>
      <trkpt lat="50.61729" lon="2.9159">
        <ele>97.8</ele>
        <time>2023-08-05T15:48:55Z</time>
      </trkpt>
      <trkpt lat="50.6173" lon="2.91593">
        <ele>97.8</ele>
        <time>2023-08-05T15:48:56Z</time>
      </trkpt>
      <trkpt lat="50.6173" lon="2.91597">
        <ele>97.8</ele>
        <time>2023-08-05T15:48:57Z</time>
      </trkpt>
      <trkpt lat="50.61733" lon="2.91646">
        <ele>98.2</ele>
        <time>2023-08-05T15:49:07Z</time>
      </trkpt>
      <trkpt lat="50.61736" lon="2.917">
        <ele>98.2</ele>
        <time>2023-08-05T15:49:17Z</time>
      </trkpt>
      <trkpt lat="50.61738" lon="2.91754">
        <ele>98.2</ele>
        <time>2023-08-05T15:49:26Z</time>
      </trkpt>
      <trkpt lat="50.61741" lon="2.91799">
        <ele>98.6</ele>
        <time>2023-08-05T15:49:33Z</time>
      </trkpt>
      <trkpt lat="50.61743" lon="2.91831">
        <ele>98.8</ele>
        <time>2023-08-05T15:49:38Z</time>
      </trkpt>
      <trkpt lat="50.61744" lon="2.91846">
        <ele>99</ele>
        <time>2023-08-05T15:49:40Z</time>
      </trkpt>
      <trkpt lat="50.61749" lon="2.91927">
        <ele>99.6</ele>
        <time>2023-08-05T15:49:52Z</time>
      </trkpt>
      <trkpt lat="50.61751" lon="2.91966">
        <ele>99.8</ele>
        <time>2023-08-05T15:49:58Z</time>
      </trkpt>
      <trkpt lat="50.61751" lon="2.91973">
        <ele>99.8</ele>
        <time>2023-08-05T15:49:59Z</time>
      </trkpt>
      <trkpt lat="50.61752" lon="2.91978">
        <ele>99.8</ele>
        <time>2023-08-05T15:50:00Z</time>
      </trkpt>
      <trkpt lat="50.61752" lon="2.91985">
        <ele>99.8</ele>
        <time>2023-08-05T15:50:01Z</time>
      </trkpt>
      <trkpt lat="50.61753" lon="2.92031">
        <ele>100.2</ele>
        <time>2023-08-05T15:50:08Z</time>
      </trkpt>
      <trkpt lat="50.61754" lon="2.9205">
        <ele>100.6</ele>
        <time>2023-08-05T15:50:11Z</time>
      </trkpt>
      <trkpt lat="50.61756" lon="2.92135">
        <ele>101</ele>
        <time>2023-08-05T15:50:24Z</time>
      </trkpt>
      <trkpt lat="50.61757" lon="2.92163">
        <ele>101</ele>
        <time>2023-08-05T15:50:28Z</time>
      </trkpt>
      <trkpt lat="50.61757" lon="2.92169">
        <ele>101</ele>
        <time>2023-08-05T15:50:29Z</time>
      </trkpt>
      <trkpt lat="50.61757" lon="2.92184">
        <ele>101.2</ele>
        <time>2023-08-05T15:50:31Z</time>
      </trkpt>
      <trkpt lat="50.61758" lon="2.92191">
        <ele>101.2</ele>
        <time>2023-08-05T15:50:32Z</time>
      </trkpt>
      <trkpt lat="50.6176" lon="2.92257">
        <ele>101.6</ele>
        <time>2023-08-05T15:50:42Z</time>
      </trkpt>
      <trkpt lat="50.61762" lon="2.92311">
        <ele>101.8</ele>
        <time>2023-08-05T15:50:50Z</time>
      </trkpt>
      <trkpt lat="50.61762" lon="2.92324">
        <ele>102</ele>
        <time>2023-08-05T15:50:52Z</time>
      </trkpt>
      <trkpt lat="50.61763" lon="2.92336">
        <ele>102.2</ele>
        <time>2023-08-05T15:50:54Z</time>
      </trkpt>
      <trkpt lat="50.61763" lon="2.92344">
        <ele>102.2</ele>
        <time>2023-08-05T15:50:55Z</time>
      </trkpt>
      <trkpt lat="50.61764" lon="2.9235">
        <ele>102.2</ele>
        <time>2023-08-05T15:50:56Z</time>
      </trkpt>
      <trkpt lat="50.61765" lon="2.92357">
        <ele>102.2</ele>
        <time>2023-08-05T15:50:57Z</time>
      </trkpt>
      <trkpt lat="50.61766" lon="2.92368">
        <ele>102.2</ele>
        <time>2023-08-05T15:50:59Z</time>
      </trkpt>
      <trkpt lat="50.61767" lon="2.92376">
        <ele>102.4</ele>
        <time>2023-08-05T15:51:00Z</time>
      </trkpt>
      <trkpt lat="50.61768" lon="2.92382">
        <ele>102.4</ele>
        <time>2023-08-05T15:51:01Z</time>
      </trkpt>
      <trkpt lat="50.61769" lon="2.92395">
        <ele>102.4</ele>
        <time>2023-08-05T15:51:03Z</time>
      </trkpt>
      <trkpt lat="50.61784" lon="2.92461">
        <ele>102.8</ele>
        <time>2023-08-05T15:51:13Z</time>
      </trkpt>
      <trkpt lat="50.61802" lon="2.92511">
        <ele>103</ele>
        <time>2023-08-05T15:51:21Z</time>
      </trkpt>
      <trkpt lat="50.61822" lon="2.92555">
        <ele>102.8</ele>
        <time>2023-08-05T15:51:28Z</time>
      </trkpt>
      <trkpt lat="50.61833" lon="2.92577">
        <ele>102.8</ele>
        <time>2023-08-05T15:51:32Z</time>
      </trkpt>
      <trkpt lat="50.61834" lon="2.92583">
        <ele>102.8</ele>
        <time>2023-08-05T15:51:33Z</time>
      </trkpt>
      <trkpt lat="50.61835" lon="2.92589">
        <ele>102.8</ele>
        <time>2023-08-05T15:51:34Z</time>
      </trkpt>
      <trkpt lat="50.61834" lon="2.92595">
        <ele>102.8</ele>
        <time>2023-08-05T15:51:35Z</time>
      </trkpt>
      <trkpt lat="50.61832" lon="2.92601">
        <ele>102.6</ele>
        <time>2023-08-05T15:51:36Z</time>
      </trkpt>
      <trkpt lat="50.6183" lon="2.92604">
        <ele>102.6</ele>
        <time>2023-08-05T15:51:37Z</time>
      </trkpt>
      <trkpt lat="50.61826" lon="2.92609">
        <ele>102.6</ele>
        <time>2023-08-05T15:51:38Z</time>
      </trkpt>
      <trkpt lat="50.61823" lon="2.92612">
        <ele>102.6</ele>
        <time>2023-08-05T15:51:39Z</time>
      </trkpt>
      <trkpt lat="50.6182" lon="2.92616">
        <ele>102.6</ele>
        <time>2023-08-05T15:51:40Z</time>
      </trkpt>
      <trkpt lat="50.61817" lon="2.92619">
        <ele>102.6</ele>
        <time>2023-08-05T15:51:41Z</time>
      </trkpt>
      <trkpt lat="50.61814" lon="2.92622">
        <ele>102.6</ele>
        <time>2023-08-05T15:51:42Z</time>
      </trkpt>
      <trkpt lat="50.61811" lon="2.92626">
        <ele>102.6</ele>
        <time>2023-08-05T15:51:43Z</time>
      </trkpt>
      <trkpt lat="50.61811" lon="2.92626">
        <ele>102.8</ele>
        <time>2023-08-05T15:51:44Z</time>
      </trkpt>
      <trkpt lat="50.61803" lon="2.92632">
        <ele>102.8</ele>
        <time>2023-08-05T15:51:45Z</time>
      </trkpt>
      <trkpt lat="50.61774" lon="2.92649">
        <ele>103.2</ele>
        <time>2023-08-05T15:51:52Z</time>
      </trkpt>
      <trkpt lat="50.61759" lon="2.92659">
        <ele>103.4</ele>
        <time>2023-08-05T15:51:56Z</time>
      </trkpt>
      <trkpt lat="50.61744" lon="2.92672">
        <ele>103.6</ele>
        <time>2023-08-05T15:52:00Z</time>
      </trkpt>
      <trkpt lat="50.61708" lon="2.92697">
        <ele>104</ele>
        <time>2023-08-05T15:52:09Z</time>
      </trkpt>
      <trkpt lat="50.61671" lon="2.92718">
        <ele>104</ele>
        <time>2023-08-05T15:52:18Z</time>
      </trkpt>
      <trkpt lat="50.61667" lon="2.9272">
        <ele>104</ele>
        <time>2023-08-05T15:52:19Z</time>
      </trkpt>
      <trkpt lat="50.61663" lon="2.92721">
        <ele>104</ele>
        <time>2023-08-05T15:52:20Z</time>
      </trkpt>
      <trkpt lat="50.61659" lon="2.92723">
        <ele>104</ele>
        <time>2023-08-05T15:52:21Z</time>
      </trkpt>
      <trkpt lat="50.61626" lon="2.92741">
        <ele>103.8</ele>
        <time>2023-08-05T15:52:29Z</time>
      </trkpt>
      <trkpt lat="50.61589" lon="2.9277">
        <ele>103.6</ele>
        <time>2023-08-05T15:52:38Z</time>
      </trkpt>
      <trkpt lat="50.61548" lon="2.92796">
        <ele>103.6</ele>
        <time>2023-08-05T15:52:48Z</time>
      </trkpt>
      <trkpt lat="50.61541" lon="2.92802">
        <ele>103.6</ele>
        <time>2023-08-05T15:52:50Z</time>
      </trkpt>
      <trkpt lat="50.61537" lon="2.92805">
        <ele>103.6</ele>
        <time>2023-08-05T15:52:51Z</time>
      </trkpt>
      <trkpt lat="50.61534" lon="2.92808">
        <ele>103.6</ele>
        <time>2023-08-05T15:52:52Z</time>
      </trkpt>
      <trkpt lat="50.61531" lon="2.92811">
        <ele>103.6</ele>
        <time>2023-08-05T15:52:53Z</time>
      </trkpt>
      <trkpt lat="50.61527" lon="2.92815">
        <ele>103.6</ele>
        <time>2023-08-05T15:52:54Z</time>
      </trkpt>
      <trkpt lat="50.61522" lon="2.92819">
        <ele>103.6</ele>
        <time>2023-08-05T15:52:55Z</time>
      </trkpt>
      <trkpt lat="50.61519" lon="2.92823">
        <ele>103.6</ele>
        <time>2023-08-05T15:52:56Z</time>
      </trkpt>
      <trkpt lat="50.61504" lon="2.92839">
        <ele>103.4</ele>
        <time>2023-08-05T15:53:00Z</time>
      </trkpt>
      <trkpt lat="50.61472" lon="2.92875">
        <ele>103.2</ele>
        <time>2023-08-05T15:53:09Z</time>
      </trkpt>
      <trkpt lat="50.61466" lon="2.92882">
        <ele>103</ele>
        <time>2023-08-05T15:53:11Z</time>
      </trkpt>
      <trkpt lat="50.61462" lon="2.92885">
        <ele>103</ele>
        <time>2023-08-05T15:53:12Z</time>
      </trkpt>
      <trkpt lat="50.61459" lon="2.92889">
        <ele>103.2</ele>
        <time>2023-08-05T15:53:13Z</time>
      </trkpt>
      <trkpt lat="50.61455" lon="2.92894">
        <ele>103.2</ele>
        <time>2023-08-05T15:53:14Z</time>
      </trkpt>
      <trkpt lat="50.61452" lon="2.92897">
        <ele>103.2</ele>
        <time>2023-08-05T15:53:15Z</time>
      </trkpt>
      <trkpt lat="50.6145" lon="2.929">
        <ele>103.2</ele>
        <time>2023-08-05T15:53:16Z</time>
      </trkpt>
      <trkpt lat="50.61448" lon="2.92905">
        <ele>103.2</ele>
        <time>2023-08-05T15:53:17Z</time>
      </trkpt>
      <trkpt lat="50.61447" lon="2.92909">
        <ele>103.2</ele>
        <time>2023-08-05T15:53:18Z</time>
      </trkpt>
      <trkpt lat="50.61447" lon="2.92914">
        <ele>103.2</ele>
        <time>2023-08-05T15:53:19Z</time>
      </trkpt>
      <trkpt lat="50.61446" lon="2.92919">
        <ele>103.2</ele>
        <time>2023-08-05T15:53:20Z</time>
      </trkpt>
      <trkpt lat="50.61445" lon="2.92924">
        <ele>103.2</ele>
        <time>2023-08-05T15:53:21Z</time>
      </trkpt>
      <trkpt lat="50.61444" lon="2.92928">
        <ele>103.2</ele>
        <time>2023-08-05T15:53:22Z</time>
      </trkpt>
      <trkpt lat="50.61442" lon="2.92931">
        <ele>103.2</ele>
        <time>2023-08-05T15:53:23Z</time>
      </trkpt>
      <trkpt lat="50.61439" lon="2.92933">
        <ele>103.4</ele>
        <time>2023-08-05T15:53:24Z</time>
      </trkpt>
      <trkpt lat="50.61436" lon="2.92935">
        <ele>103.4</ele>
        <time>2023-08-05T15:53:25Z</time>
      </trkpt>
      <trkpt lat="50.61433" lon="2.92937">
        <ele>103.4</ele>
        <time>2023-08-05T15:53:26Z</time>
      </trkpt>
      <trkpt lat="50.6143" lon="2.92938">
        <ele>103.4</ele>
        <time>2023-08-05T15:53:27Z</time>
      </trkpt>
      <trkpt lat="50.61426" lon="2.9294">
        <ele>103.6</ele>
        <time>2023-08-05T15:53:28Z</time>
      </trkpt>
      <trkpt lat="50.61409" lon="2.92947">
        <ele>103.6</ele>
        <time>2023-08-05T15:53:33Z</time>
      </trkpt>
      <trkpt lat="50.61378" lon="2.92965">
        <ele>104</ele>
        <time>2023-08-05T15:53:41Z</time>
      </trkpt>
      <trkpt lat="50.61344" lon="2.92983">
        <ele>103.8</ele>
        <time>2023-08-05T15:53:49Z</time>
      </trkpt>
      <trkpt lat="50.61298" lon="2.9301">
        <ele>103</ele>
        <time>2023-08-05T15:53:59Z</time>
      </trkpt>
      <trkpt lat="50.61279" lon="2.93021">
        <ele>102.4</ele>
        <time>2023-08-05T15:54:04Z</time>
      </trkpt>
      <trkpt lat="50.61262" lon="2.93031">
        <ele>102.2</ele>
        <time>2023-08-05T15:54:07Z</time>
      </trkpt>
      <trkpt lat="50.61257" lon="2.93033">
        <ele>102</ele>
        <time>2023-08-05T15:54:08Z</time>
      </trkpt>
      <trkpt lat="50.61254" lon="2.93034">
        <ele>101.8</ele>
        <time>2023-08-05T15:54:09Z</time>
      </trkpt>
      <trkpt lat="50.6125" lon="2.93037">
        <ele>101.6</ele>
        <time>2023-08-05T15:54:10Z</time>
      </trkpt>
      <trkpt lat="50.61245" lon="2.93039">
        <ele>101.4</ele>
        <time>2023-08-05T15:54:11Z</time>
      </trkpt>
      <trkpt lat="50.61242" lon="2.93043">
        <ele>101.4</ele>
        <time>2023-08-05T15:54:12Z</time>
      </trkpt>
      <trkpt lat="50.6124" lon="2.93046">
        <ele>101.4</ele>
        <time>2023-08-05T15:54:13Z</time>
      </trkpt>
      <trkpt lat="50.61238" lon="2.93049">
        <ele>101.4</ele>
        <time>2023-08-05T15:54:14Z</time>
      </trkpt>
      <trkpt lat="50.61237" lon="2.93052">
        <ele>101.4</ele>
        <time>2023-08-05T15:54:15Z</time>
      </trkpt>
      <trkpt lat="50.61235" lon="2.93055">
        <ele>101.4</ele>
        <time>2023-08-05T15:54:16Z</time>
      </trkpt>
      <trkpt lat="50.61234" lon="2.93056">
        <ele>101.4</ele>
        <time>2023-08-05T15:54:17Z</time>
      </trkpt>
      <trkpt lat="50.61233" lon="2.93056">
        <ele>101.4</ele>
        <time>2023-08-05T15:54:18Z</time>
      </trkpt>
      <trkpt lat="50.61233" lon="2.93056">
        <ele>101.2</ele>
        <time>2023-08-05T15:54:19Z</time>
      </trkpt>
      <trkpt lat="50.6123" lon="2.93059">
        <ele>101</ele>
        <time>2023-08-05T15:56:56Z</time>
      </trkpt>
      <trkpt lat="50.61222" lon="2.93064">
        <ele>101.4</ele>
        <time>2023-08-05T15:57:00Z</time>
      </trkpt>
      <trkpt lat="50.61218" lon="2.93067">
        <ele>101.6</ele>
        <time>2023-08-05T15:57:02Z</time>
      </trkpt>
      <trkpt lat="50.612" lon="2.93076">
        <ele>101.8</ele>
        <time>2023-08-05T15:57:08Z</time>
      </trkpt>
      <trkpt lat="50.61197" lon="2.93078">
        <ele>101.8</ele>
        <time>2023-08-05T15:57:09Z</time>
      </trkpt>
      <trkpt lat="50.61171" lon="2.93094">
        <ele>101.8</ele>
        <time>2023-08-05T15:57:17Z</time>
      </trkpt>
      <trkpt lat="50.61155" lon="2.93103">
        <ele>101.6</ele>
        <time>2023-08-05T15:57:22Z</time>
      </trkpt>
      <trkpt lat="50.61152" lon="2.93105">
        <ele>101.6</ele>
        <time>2023-08-05T15:57:23Z</time>
      </trkpt>
      <trkpt lat="50.61148" lon="2.93107">
        <ele>101.6</ele>
        <time>2023-08-05T15:57:24Z</time>
      </trkpt>
      <trkpt lat="50.6111" lon="2.93129">
        <ele>101.8</ele>
        <time>2023-08-05T15:57:36Z</time>
      </trkpt>
      <trkpt lat="50.61101" lon="2.93135">
        <ele>102</ele>
        <time>2023-08-05T15:57:39Z</time>
      </trkpt>
      <trkpt lat="50.61097" lon="2.93137">
        <ele>102</ele>
        <time>2023-08-05T15:57:40Z</time>
      </trkpt>
      <trkpt lat="50.61095" lon="2.93139">
        <ele>101.8</ele>
        <time>2023-08-05T15:57:41Z</time>
      </trkpt>
      <trkpt lat="50.61091" lon="2.93141">
        <ele>101.8</ele>
        <time>2023-08-05T15:57:42Z</time>
      </trkpt>
      <trkpt lat="50.61087" lon="2.93143">
        <ele>102</ele>
        <time>2023-08-05T15:57:43Z</time>
      </trkpt>
      <trkpt lat="50.61052" lon="2.93164">
        <ele>101.6</ele>
        <time>2023-08-05T15:57:53Z</time>
      </trkpt>
      <trkpt lat="50.61026" lon="2.93179">
        <ele>101.4</ele>
        <time>2023-08-05T15:58:01Z</time>
      </trkpt>
      <trkpt lat="50.61017" lon="2.93184">
        <ele>101.4</ele>
        <time>2023-08-05T15:58:03Z</time>
      </trkpt>
      <trkpt lat="50.61013" lon="2.93186">
        <ele>101.2</ele>
        <time>2023-08-05T15:58:04Z</time>
      </trkpt>
      <trkpt lat="50.6101" lon="2.93188">
        <ele>101.2</ele>
        <time>2023-08-05T15:58:05Z</time>
      </trkpt>
      <trkpt lat="50.61008" lon="2.93189">
        <ele>101</ele>
        <time>2023-08-05T15:58:06Z</time>
      </trkpt>
      <trkpt lat="50.61006" lon="2.9319">
        <ele>101</ele>
        <time>2023-08-05T15:58:07Z</time>
      </trkpt>
      <trkpt lat="50.61003" lon="2.93192">
        <ele>101</ele>
        <time>2023-08-05T15:58:08Z</time>
      </trkpt>
      <trkpt lat="50.61001" lon="2.93194">
        <ele>101</ele>
        <time>2023-08-05T15:58:09Z</time>
      </trkpt>
      <trkpt lat="50.60998" lon="2.93194">
        <ele>100.8</ele>
        <time>2023-08-05T15:58:10Z</time>
      </trkpt>
      <trkpt lat="50.60996" lon="2.93194">
        <ele>100.8</ele>
        <time>2023-08-05T15:58:11Z</time>
      </trkpt>
      <trkpt lat="50.60993" lon="2.93195">
        <ele>100.8</ele>
        <time>2023-08-05T15:58:12Z</time>
      </trkpt>
      <trkpt lat="50.60984" lon="2.93202">
        <ele>100.6</ele>
        <time>2023-08-05T15:58:15Z</time>
      </trkpt>
      <trkpt lat="50.60981" lon="2.93203">
        <ele>100.8</ele>
        <time>2023-08-05T15:58:16Z</time>
      </trkpt>
      <trkpt lat="50.60963" lon="2.93216">
        <ele>100.6</ele>
        <time>2023-08-05T15:58:21Z</time>
      </trkpt>
      <trkpt lat="50.6095" lon="2.93223">
        <ele>100.4</ele>
        <time>2023-08-05T15:58:24Z</time>
      </trkpt>
      <trkpt lat="50.60942" lon="2.93226">
        <ele>100.4</ele>
        <time>2023-08-05T15:58:26Z</time>
      </trkpt>
      <trkpt lat="50.6091" lon="2.93245">
        <ele>100</ele>
        <time>2023-08-05T15:58:33Z</time>
      </trkpt>
      <trkpt lat="50.60893" lon="2.93256">
        <ele>99.6</ele>
        <time>2023-08-05T15:58:37Z</time>
      </trkpt>
      <trkpt lat="50.60884" lon="2.93259">
        <ele>99.6</ele>
        <time>2023-08-05T15:58:39Z</time>
      </trkpt>
      <trkpt lat="50.60871" lon="2.93263">
        <ele>99.4</ele>
        <time>2023-08-05T15:58:42Z</time>
      </trkpt>
      <trkpt lat="50.60867" lon="2.93265">
        <ele>99.2</ele>
        <time>2023-08-05T15:58:43Z</time>
      </trkpt>
      <trkpt lat="50.60863" lon="2.93267">
        <ele>99.2</ele>
        <time>2023-08-05T15:58:44Z</time>
      </trkpt>
      <trkpt lat="50.60831" lon="2.93286">
        <ele>99.2</ele>
        <time>2023-08-05T15:58:51Z</time>
      </trkpt>
      <trkpt lat="50.60797" lon="2.93307">
        <ele>99.2</ele>
        <time>2023-08-05T15:58:59Z</time>
      </trkpt>
      <trkpt lat="50.60793" lon="2.9331">
        <ele>99.2</ele>
        <time>2023-08-05T15:59:00Z</time>
      </trkpt>
      <trkpt lat="50.60789" lon="2.93312">
        <ele>99</ele>
        <time>2023-08-05T15:59:01Z</time>
      </trkpt>
      <trkpt lat="50.60785" lon="2.93314">
        <ele>99.2</ele>
        <time>2023-08-05T15:59:02Z</time>
      </trkpt>
      <trkpt lat="50.60782" lon="2.93314">
        <ele>99.4</ele>
        <time>2023-08-05T15:59:03Z</time>
      </trkpt>
      <trkpt lat="50.60778" lon="2.93315">
        <ele>99.2</ele>
        <time>2023-08-05T15:59:04Z</time>
      </trkpt>
      <trkpt lat="50.60774" lon="2.93316">
        <ele>99.2</ele>
        <time>2023-08-05T15:59:05Z</time>
      </trkpt>
      <trkpt lat="50.60769" lon="2.93319">
        <ele>99.2</ele>
        <time>2023-08-05T15:59:06Z</time>
      </trkpt>
      <trkpt lat="50.60765" lon="2.93322">
        <ele>99.2</ele>
        <time>2023-08-05T15:59:07Z</time>
      </trkpt>
      <trkpt lat="50.6076" lon="2.93324">
        <ele>99.2</ele>
        <time>2023-08-05T15:59:08Z</time>
      </trkpt>
      <trkpt lat="50.60755" lon="2.93327">
        <ele>99</ele>
        <time>2023-08-05T15:59:09Z</time>
      </trkpt>
      <trkpt lat="50.60733" lon="2.93341">
        <ele>98.6</ele>
        <time>2023-08-05T15:59:14Z</time>
      </trkpt>
      <trkpt lat="50.60729" lon="2.93343">
        <ele>98.4</ele>
        <time>2023-08-05T15:59:15Z</time>
      </trkpt>
      <trkpt lat="50.60724" lon="2.93345">
        <ele>98.4</ele>
        <time>2023-08-05T15:59:16Z</time>
      </trkpt>
      <trkpt lat="50.60714" lon="2.93351">
        <ele>98.4</ele>
        <time>2023-08-05T15:59:18Z</time>
      </trkpt>
      <trkpt lat="50.60704" lon="2.93357">
        <ele>98.2</ele>
        <time>2023-08-05T15:59:20Z</time>
      </trkpt>
      <trkpt lat="50.60698" lon="2.93361">
        <ele>98.2</ele>
        <time>2023-08-05T15:59:21Z</time>
      </trkpt>
      <trkpt lat="50.60693" lon="2.93363">
        <ele>98.2</ele>
        <time>2023-08-05T15:59:22Z</time>
      </trkpt>
      <trkpt lat="50.60685" lon="2.93368">
        <ele>98.2</ele>
        <time>2023-08-05T15:59:24Z</time>
      </trkpt>
      <trkpt lat="50.60673" lon="2.93374">
        <ele>98</ele>
        <time>2023-08-05T15:59:26Z</time>
      </trkpt>
      <trkpt lat="50.60663" lon="2.9338">
        <ele>98</ele>
        <time>2023-08-05T15:59:28Z</time>
      </trkpt>
      <trkpt lat="50.60659" lon="2.93382">
        <ele>97.8</ele>
        <time>2023-08-05T15:59:29Z</time>
      </trkpt>
      <trkpt lat="50.60653" lon="2.93385">
        <ele>97.8</ele>
        <time>2023-08-05T15:59:30Z</time>
      </trkpt>
      <trkpt lat="50.60617" lon="2.93407">
        <ele>98</ele>
        <time>2023-08-05T15:59:37Z</time>
      </trkpt>
      <trkpt lat="50.60611" lon="2.93412">
        <ele>98</ele>
        <time>2023-08-05T15:59:38Z</time>
      </trkpt>
      <trkpt lat="50.60595" lon="2.93421">
        <ele>98</ele>
        <time>2023-08-05T15:59:41Z</time>
      </trkpt>
      <trkpt lat="50.60591" lon="2.93423">
        <ele>98</ele>
        <time>2023-08-05T15:59:42Z</time>
      </trkpt>
      <trkpt lat="50.60586" lon="2.93426">
        <ele>98</ele>
        <time>2023-08-05T15:59:43Z</time>
      </trkpt>
      <trkpt lat="50.60581" lon="2.93429">
        <ele>98</ele>
        <time>2023-08-05T15:59:44Z</time>
      </trkpt>
      <trkpt lat="50.60578" lon="2.93431">
        <ele>98</ele>
        <time>2023-08-05T15:59:45Z</time>
      </trkpt>
      <trkpt lat="50.6057" lon="2.93435">
        <ele>98</ele>
        <time>2023-08-05T15:59:47Z</time>
      </trkpt>
      <trkpt lat="50.60559" lon="2.93441">
        <ele>97.8</ele>
        <time>2023-08-05T15:59:49Z</time>
      </trkpt>
      <trkpt lat="50.60554" lon="2.93444">
        <ele>97.8</ele>
        <time>2023-08-05T15:59:50Z</time>
      </trkpt>
      <trkpt lat="50.60549" lon="2.93446">
        <ele>97.6</ele>
        <time>2023-08-05T15:59:51Z</time>
      </trkpt>
      <trkpt lat="50.60545" lon="2.93448">
        <ele>97.6</ele>
        <time>2023-08-05T15:59:52Z</time>
      </trkpt>
      <trkpt lat="50.60541" lon="2.9345">
        <ele>97.6</ele>
        <time>2023-08-05T15:59:53Z</time>
      </trkpt>
      <trkpt lat="50.60536" lon="2.93452">
        <ele>97.4</ele>
        <time>2023-08-05T15:59:54Z</time>
      </trkpt>
      <trkpt lat="50.60512" lon="2.93466">
        <ele>97.2</ele>
        <time>2023-08-05T15:59:59Z</time>
      </trkpt>
      <trkpt lat="50.60507" lon="2.93468">
        <ele>97.2</ele>
        <time>2023-08-05T16:00:00Z</time>
      </trkpt>
      <trkpt lat="50.60494" lon="2.93476">
        <ele>97.2</ele>
        <time>2023-08-05T16:00:03Z</time>
      </trkpt>
      <trkpt lat="50.60477" lon="2.93486">
        <ele>97</ele>
        <time>2023-08-05T16:00:06Z</time>
      </trkpt>
      <trkpt lat="50.60471" lon="2.93489">
        <ele>97</ele>
        <time>2023-08-05T16:00:07Z</time>
      </trkpt>
      <trkpt lat="50.60452" lon="2.93502">
        <ele>97</ele>
        <time>2023-08-05T16:00:11Z</time>
      </trkpt>
      <trkpt lat="50.60446" lon="2.93505">
        <ele>96.8</ele>
        <time>2023-08-05T16:00:12Z</time>
      </trkpt>
      <trkpt lat="50.60442" lon="2.93508">
        <ele>96.8</ele>
        <time>2023-08-05T16:00:13Z</time>
      </trkpt>
      <trkpt lat="50.60437" lon="2.93512">
        <ele>96.8</ele>
        <time>2023-08-05T16:00:14Z</time>
      </trkpt>
      <trkpt lat="50.60432" lon="2.93514">
        <ele>96.6</ele>
        <time>2023-08-05T16:00:15Z</time>
      </trkpt>
      <trkpt lat="50.60427" lon="2.93517">
        <ele>96.6</ele>
        <time>2023-08-05T16:00:16Z</time>
      </trkpt>
      <trkpt lat="50.60422" lon="2.9352">
        <ele>96.6</ele>
        <time>2023-08-05T16:00:17Z</time>
      </trkpt>
      <trkpt lat="50.60418" lon="2.93523">
        <ele>96.6</ele>
        <time>2023-08-05T16:00:18Z</time>
      </trkpt>
      <trkpt lat="50.60414" lon="2.93526">
        <ele>96.6</ele>
        <time>2023-08-05T16:00:19Z</time>
      </trkpt>
      <trkpt lat="50.60405" lon="2.93531">
        <ele>96.4</ele>
        <time>2023-08-05T16:00:21Z</time>
      </trkpt>
      <trkpt lat="50.60397" lon="2.93537">
        <ele>96.4</ele>
        <time>2023-08-05T16:00:23Z</time>
      </trkpt>
      <trkpt lat="50.60391" lon="2.93541">
        <ele>96.4</ele>
        <time>2023-08-05T16:00:24Z</time>
      </trkpt>
      <trkpt lat="50.60388" lon="2.93542">
        <ele>96.2</ele>
        <time>2023-08-05T16:00:25Z</time>
      </trkpt>
      <trkpt lat="50.60383" lon="2.93543">
        <ele>96.2</ele>
        <time>2023-08-05T16:00:26Z</time>
      </trkpt>
      <trkpt lat="50.60372" lon="2.93549">
        <ele>96.2</ele>
        <time>2023-08-05T16:00:28Z</time>
      </trkpt>
      <trkpt lat="50.60366" lon="2.93553">
        <ele>96.2</ele>
        <time>2023-08-05T16:00:29Z</time>
      </trkpt>
      <trkpt lat="50.60342" lon="2.93566">
        <ele>95.8</ele>
        <time>2023-08-05T16:00:35Z</time>
      </trkpt>
      <trkpt lat="50.60332" lon="2.93573">
        <ele>95.8</ele>
        <time>2023-08-05T16:00:38Z</time>
      </trkpt>
      <trkpt lat="50.60329" lon="2.93574">
        <ele>96</ele>
        <time>2023-08-05T16:00:39Z</time>
      </trkpt>
      <trkpt lat="50.60327" lon="2.93573">
        <ele>96</ele>
        <time>2023-08-05T16:00:40Z</time>
      </trkpt>
      <trkpt lat="50.60324" lon="2.93573">
        <ele>96</ele>
        <time>2023-08-05T16:00:41Z</time>
      </trkpt>
      <trkpt lat="50.60321" lon="2.93573">
        <ele>96</ele>
        <time>2023-08-05T16:00:42Z</time>
      </trkpt>
      <trkpt lat="50.60318" lon="2.93574">
        <ele>96</ele>
        <time>2023-08-05T16:00:43Z</time>
      </trkpt>
      <trkpt lat="50.60316" lon="2.93577">
        <ele>96</ele>
        <time>2023-08-05T16:00:44Z</time>
      </trkpt>
      <trkpt lat="50.60313" lon="2.9358">
        <ele>96.2</ele>
        <time>2023-08-05T16:00:45Z</time>
      </trkpt>
      <trkpt lat="50.6031" lon="2.93582">
        <ele>96</ele>
        <time>2023-08-05T16:00:46Z</time>
      </trkpt>
      <trkpt lat="50.60306" lon="2.93585">
        <ele>96</ele>
        <time>2023-08-05T16:00:47Z</time>
      </trkpt>
      <trkpt lat="50.60302" lon="2.93587">
        <ele>96</ele>
        <time>2023-08-05T16:00:48Z</time>
      </trkpt>
      <trkpt lat="50.60299" lon="2.93588">
        <ele>96</ele>
        <time>2023-08-05T16:00:49Z</time>
      </trkpt>
      <trkpt lat="50.60296" lon="2.93591">
        <ele>96</ele>
        <time>2023-08-05T16:00:50Z</time>
      </trkpt>
      <trkpt lat="50.60292" lon="2.93593">
        <ele>96</ele>
        <time>2023-08-05T16:00:51Z</time>
      </trkpt>
      <trkpt lat="50.60286" lon="2.93599">
        <ele>96</ele>
        <time>2023-08-05T16:00:53Z</time>
      </trkpt>
      <trkpt lat="50.60284" lon="2.93601">
        <ele>95.8</ele>
        <time>2023-08-05T16:00:54Z</time>
      </trkpt>
      <trkpt lat="50.60279" lon="2.93604">
        <ele>95.6</ele>
        <time>2023-08-05T16:00:56Z</time>
      </trkpt>
      <trkpt lat="50.60274" lon="2.93605">
        <ele>95.6</ele>
        <time>2023-08-05T16:00:57Z</time>
      </trkpt>
      <trkpt lat="50.60271" lon="2.93606">
        <ele>95.6</ele>
        <time>2023-08-05T16:00:58Z</time>
      </trkpt>
      <trkpt lat="50.60258" lon="2.93614">
        <ele>95.6</ele>
        <time>2023-08-05T16:01:02Z</time>
      </trkpt>
      <trkpt lat="50.60255" lon="2.93616">
        <ele>95.6</ele>
        <time>2023-08-05T16:01:03Z</time>
      </trkpt>
      <trkpt lat="50.60252" lon="2.93618">
        <ele>95.6</ele>
        <time>2023-08-05T16:01:04Z</time>
      </trkpt>
      <trkpt lat="50.60249" lon="2.93619">
        <ele>95.6</ele>
        <time>2023-08-05T16:01:05Z</time>
      </trkpt>
      <trkpt lat="50.60236" lon="2.93626">
        <ele>95.8</ele>
        <time>2023-08-05T16:01:08Z</time>
      </trkpt>
      <trkpt lat="50.60219" lon="2.93637">
        <ele>96</ele>
        <time>2023-08-05T16:01:12Z</time>
      </trkpt>
      <trkpt lat="50.60211" lon="2.93645">
        <ele>96.4</ele>
        <time>2023-08-05T16:01:14Z</time>
      </trkpt>
      <trkpt lat="50.60198" lon="2.93652">
        <ele>96.4</ele>
        <time>2023-08-05T16:01:17Z</time>
      </trkpt>
      <trkpt lat="50.60189" lon="2.93659">
        <ele>96.2</ele>
        <time>2023-08-05T16:01:19Z</time>
      </trkpt>
      <trkpt lat="50.6018" lon="2.93666">
        <ele>96</ele>
        <time>2023-08-05T16:01:21Z</time>
      </trkpt>
      <trkpt lat="50.60168" lon="2.93671">
        <ele>95.8</ele>
        <time>2023-08-05T16:01:23Z</time>
      </trkpt>
      <trkpt lat="50.60159" lon="2.93674">
        <ele>95.4</ele>
        <time>2023-08-05T16:01:25Z</time>
      </trkpt>
      <trkpt lat="50.60153" lon="2.93676">
        <ele>95.2</ele>
        <time>2023-08-05T16:01:26Z</time>
      </trkpt>
      <trkpt lat="50.60143" lon="2.9368">
        <ele>94.8</ele>
        <time>2023-08-05T16:01:28Z</time>
      </trkpt>
      <trkpt lat="50.60126" lon="2.93686">
        <ele>94.2</ele>
        <time>2023-08-05T16:01:31Z</time>
      </trkpt>
      <trkpt lat="50.60122" lon="2.9369">
        <ele>94.2</ele>
        <time>2023-08-05T16:01:32Z</time>
      </trkpt>
      <trkpt lat="50.60112" lon="2.93696">
        <ele>93.8</ele>
        <time>2023-08-05T16:01:34Z</time>
      </trkpt>
      <trkpt lat="50.60108" lon="2.93699">
        <ele>93.6</ele>
        <time>2023-08-05T16:01:35Z</time>
      </trkpt>
      <trkpt lat="50.60094" lon="2.93706">
        <ele>93.6</ele>
        <time>2023-08-05T16:01:38Z</time>
      </trkpt>
      <trkpt lat="50.60084" lon="2.93711">
        <ele>93.4</ele>
        <time>2023-08-05T16:01:40Z</time>
      </trkpt>
      <trkpt lat="50.60074" lon="2.93718">
        <ele>93.4</ele>
        <time>2023-08-05T16:01:42Z</time>
      </trkpt>
      <trkpt lat="50.60063" lon="2.93723">
        <ele>93.4</ele>
        <time>2023-08-05T16:01:44Z</time>
      </trkpt>
      <trkpt lat="50.60058" lon="2.93725">
        <ele>93.2</ele>
        <time>2023-08-05T16:01:45Z</time>
      </trkpt>
      <trkpt lat="50.60047" lon="2.9373">
        <ele>93.2</ele>
        <time>2023-08-05T16:01:47Z</time>
      </trkpt>
      <trkpt lat="50.60038" lon="2.93738">
        <ele>93.2</ele>
        <time>2023-08-05T16:01:49Z</time>
      </trkpt>
      <trkpt lat="50.60029" lon="2.93745">
        <ele>93.2</ele>
        <time>2023-08-05T16:01:51Z</time>
      </trkpt>
      <trkpt lat="50.60024" lon="2.93747">
        <ele>93.2</ele>
        <time>2023-08-05T16:01:52Z</time>
      </trkpt>
      <trkpt lat="50.60019" lon="2.93749">
        <ele>93.2</ele>
        <time>2023-08-05T16:01:53Z</time>
      </trkpt>
      <trkpt lat="50.60015" lon="2.93751">
        <ele>93</ele>
        <time>2023-08-05T16:01:54Z</time>
      </trkpt>
      <trkpt lat="50.6001" lon="2.93754">
        <ele>92.8</ele>
        <time>2023-08-05T16:01:55Z</time>
      </trkpt>
      <trkpt lat="50.60007" lon="2.93756">
        <ele>92.6</ele>
        <time>2023-08-05T16:01:56Z</time>
      </trkpt>
      <trkpt lat="50.60004" lon="2.93758">
        <ele>92.8</ele>
        <time>2023-08-05T16:01:57Z</time>
      </trkpt>
      <trkpt lat="50.60002" lon="2.93759">
        <ele>92.6</ele>
        <time>2023-08-05T16:01:58Z</time>
      </trkpt>
      <trkpt lat="50.6" lon="2.93759">
        <ele>92.6</ele>
        <time>2023-08-05T16:01:59Z</time>
      </trkpt>
      <trkpt lat="50.59998" lon="2.93759">
        <ele>92.6</ele>
        <time>2023-08-05T16:02:00Z</time>
      </trkpt>
      <trkpt lat="50.59997" lon="2.93758">
        <ele>92.6</ele>
        <time>2023-08-05T16:02:01Z</time>
      </trkpt>
      <trkpt lat="50.59996" lon="2.93757">
        <ele>92.4</ele>
        <time>2023-08-05T16:02:02Z</time>
      </trkpt>
      <trkpt lat="50.59995" lon="2.93755">
        <ele>92.4</ele>
        <time>2023-08-05T16:02:03Z</time>
      </trkpt>
      <trkpt lat="50.59992" lon="2.93751">
        <ele>92.4</ele>
        <time>2023-08-05T16:02:04Z</time>
      </trkpt>
      <trkpt lat="50.5999" lon="2.93747">
        <ele>92.4</ele>
        <time>2023-08-05T16:02:05Z</time>
      </trkpt>
      <trkpt lat="50.59987" lon="2.93744">
        <ele>92.2</ele>
        <time>2023-08-05T16:02:06Z</time>
      </trkpt>
      <trkpt lat="50.59985" lon="2.93744">
        <ele>92</ele>
        <time>2023-08-05T16:02:07Z</time>
      </trkpt>
      <trkpt lat="50.59983" lon="2.93744">
        <ele>91.8</ele>
        <time>2023-08-05T16:02:08Z</time>
      </trkpt>
      <trkpt lat="50.5998" lon="2.93744">
        <ele>91.6</ele>
        <time>2023-08-05T16:02:09Z</time>
      </trkpt>
      <trkpt lat="50.59978" lon="2.93744">
        <ele>91.4</ele>
        <time>2023-08-05T16:02:10Z</time>
      </trkpt>
      <trkpt lat="50.59976" lon="2.93744">
        <ele>91.2</ele>
        <time>2023-08-05T16:02:11Z</time>
      </trkpt>
      <trkpt lat="50.59971" lon="2.9374">
        <ele>91</ele>
        <time>2023-08-05T16:02:13Z</time>
      </trkpt>
      <trkpt lat="50.59969" lon="2.93736">
        <ele>90.8</ele>
        <time>2023-08-05T16:02:14Z</time>
      </trkpt>
      <trkpt lat="50.59968" lon="2.93724">
        <ele>90.4</ele>
        <time>2023-08-05T16:02:17Z</time>
      </trkpt>
      <trkpt lat="50.59968" lon="2.93719">
        <ele>90.2</ele>
        <time>2023-08-05T16:02:18Z</time>
      </trkpt>
      <trkpt lat="50.59967" lon="2.93714">
        <ele>90.2</ele>
        <time>2023-08-05T16:02:19Z</time>
      </trkpt>
      <trkpt lat="50.59967" lon="2.93701">
        <ele>90</ele>
        <time>2023-08-05T16:02:22Z</time>
      </trkpt>
      <trkpt lat="50.59964" lon="2.93662">
        <ele>90.2</ele>
        <time>2023-08-05T16:02:29Z</time>
      </trkpt>
      <trkpt lat="50.59959" lon="2.93611">
        <ele>89.8</ele>
        <time>2023-08-05T16:02:38Z</time>
      </trkpt>
      <trkpt lat="50.59956" lon="2.93577">
        <ele>89.8</ele>
        <time>2023-08-05T16:02:44Z</time>
      </trkpt>
      <trkpt lat="50.59956" lon="2.93573">
        <ele>89.8</ele>
        <time>2023-08-05T16:02:45Z</time>
      </trkpt>
      <trkpt lat="50.59956" lon="2.93568">
        <ele>89.8</ele>
        <time>2023-08-05T16:02:46Z</time>
      </trkpt>
      <trkpt lat="50.59955" lon="2.93555">
        <ele>89.8</ele>
        <time>2023-08-05T16:02:48Z</time>
      </trkpt>
      <trkpt lat="50.59949" lon="2.93499">
        <ele>90.2</ele>
        <time>2023-08-05T16:02:58Z</time>
      </trkpt>
      <trkpt lat="50.59948" lon="2.93472">
        <ele>90.2</ele>
        <time>2023-08-05T16:03:03Z</time>
      </trkpt>
      <trkpt lat="50.59947" lon="2.93466">
        <ele>90</ele>
        <time>2023-08-05T16:03:04Z</time>
      </trkpt>
      <trkpt lat="50.59947" lon="2.93462">
        <ele>90</ele>
        <time>2023-08-05T16:03:05Z</time>
      </trkpt>
      <trkpt lat="50.59945" lon="2.9342">
        <ele>90</ele>
        <time>2023-08-05T16:03:12Z</time>
      </trkpt>
      <trkpt lat="50.59941" lon="2.93382">
        <ele>90.2</ele>
        <time>2023-08-05T16:03:19Z</time>
      </trkpt>
      <trkpt lat="50.59941" lon="2.93377">
        <ele>90</ele>
        <time>2023-08-05T16:03:20Z</time>
      </trkpt>
      <trkpt lat="50.5994" lon="2.93373">
        <ele>90</ele>
        <time>2023-08-05T16:03:21Z</time>
      </trkpt>
      <trkpt lat="50.5994" lon="2.93368">
        <ele>90.2</ele>
        <time>2023-08-05T16:03:22Z</time>
      </trkpt>
      <trkpt lat="50.5994" lon="2.93364">
        <ele>90.2</ele>
        <time>2023-08-05T16:03:23Z</time>
      </trkpt>
      <trkpt lat="50.59939" lon="2.93355">
        <ele>90.2</ele>
        <time>2023-08-05T16:03:25Z</time>
      </trkpt>
      <trkpt lat="50.59936" lon="2.93325">
        <ele>90.2</ele>
        <time>2023-08-05T16:03:31Z</time>
      </trkpt>
      <trkpt lat="50.59934" lon="2.93287">
        <ele>89.8</ele>
        <time>2023-08-05T16:03:38Z</time>
      </trkpt>
      <trkpt lat="50.59931" lon="2.93254">
        <ele>90.2</ele>
        <time>2023-08-05T16:03:44Z</time>
      </trkpt>
      <trkpt lat="50.59928" lon="2.93204">
        <ele>90.4</ele>
        <time>2023-08-05T16:03:53Z</time>
      </trkpt>
      <trkpt lat="50.59928" lon="2.932">
        <ele>90.4</ele>
        <time>2023-08-05T16:03:54Z</time>
      </trkpt>
      <trkpt lat="50.59928" lon="2.93195">
        <ele>90.4</ele>
        <time>2023-08-05T16:03:55Z</time>
      </trkpt>
      <trkpt lat="50.59928" lon="2.93189">
        <ele>90.2</ele>
        <time>2023-08-05T16:03:56Z</time>
      </trkpt>
      <trkpt lat="50.59928" lon="2.93179">
        <ele>90.4</ele>
        <time>2023-08-05T16:03:58Z</time>
      </trkpt>
      <trkpt lat="50.59928" lon="2.93173">
        <ele>90.4</ele>
        <time>2023-08-05T16:03:59Z</time>
      </trkpt>
      <trkpt lat="50.59927" lon="2.93161">
        <ele>90.4</ele>
        <time>2023-08-05T16:04:01Z</time>
      </trkpt>
      <trkpt lat="50.59927" lon="2.93155">
        <ele>90.4</ele>
        <time>2023-08-05T16:04:02Z</time>
      </trkpt>
      <trkpt lat="50.59926" lon="2.93151">
        <ele>90.4</ele>
        <time>2023-08-05T16:04:03Z</time>
      </trkpt>
      <trkpt lat="50.59926" lon="2.93146">
        <ele>90.4</ele>
        <time>2023-08-05T16:04:04Z</time>
      </trkpt>
      <trkpt lat="50.59925" lon="2.9314">
        <ele>90.4</ele>
        <time>2023-08-05T16:04:05Z</time>
      </trkpt>
      <trkpt lat="50.5992" lon="2.93127">
        <ele>90.6</ele>
        <time>2023-08-05T16:04:08Z</time>
      </trkpt>
      <trkpt lat="50.59917" lon="2.93124">
        <ele>90.6</ele>
        <time>2023-08-05T16:04:09Z</time>
      </trkpt>
      <trkpt lat="50.59915" lon="2.93119">
        <ele>90.8</ele>
        <time>2023-08-05T16:04:10Z</time>
      </trkpt>
      <trkpt lat="50.59913" lon="2.93115">
        <ele>90.8</ele>
        <time>2023-08-05T16:04:11Z</time>
      </trkpt>
      <trkpt lat="50.59909" lon="2.93108">
        <ele>90.8</ele>
        <time>2023-08-05T16:04:13Z</time>
      </trkpt>
      <trkpt lat="50.59896" lon="2.93089">
        <ele>91</ele>
        <time>2023-08-05T16:04:18Z</time>
      </trkpt>
      <trkpt lat="50.59889" lon="2.93076">
        <ele>91</ele>
        <time>2023-08-05T16:04:21Z</time>
      </trkpt>
      <trkpt lat="50.59877" lon="2.93056">
        <ele>91.4</ele>
        <time>2023-08-05T16:04:26Z</time>
      </trkpt>
      <trkpt lat="50.59875" lon="2.93053">
        <ele>91.4</ele>
        <time>2023-08-05T16:04:27Z</time>
      </trkpt>
      <trkpt lat="50.59872" lon="2.93049">
        <ele>91.4</ele>
        <time>2023-08-05T16:04:28Z</time>
      </trkpt>
      <trkpt lat="50.5987" lon="2.93045">
        <ele>91.4</ele>
        <time>2023-08-05T16:04:29Z</time>
      </trkpt>
      <trkpt lat="50.59867" lon="2.93041">
        <ele>91.4</ele>
        <time>2023-08-05T16:04:30Z</time>
      </trkpt>
      <trkpt lat="50.59856" lon="2.9302">
        <ele>91.6</ele>
        <time>2023-08-05T16:04:35Z</time>
      </trkpt>
      <trkpt lat="50.59849" lon="2.93007">
        <ele>92</ele>
        <time>2023-08-05T16:04:38Z</time>
      </trkpt>
      <trkpt lat="50.59826" lon="2.92968">
        <ele>92</ele>
        <time>2023-08-05T16:04:47Z</time>
      </trkpt>
      <trkpt lat="50.59808" lon="2.92937">
        <ele>92</ele>
        <time>2023-08-05T16:04:54Z</time>
      </trkpt>
      <trkpt lat="50.59805" lon="2.92933">
        <ele>92</ele>
        <time>2023-08-05T16:04:55Z</time>
      </trkpt>
      <trkpt lat="50.59803" lon="2.9293">
        <ele>92</ele>
        <time>2023-08-05T16:04:56Z</time>
      </trkpt>
      <trkpt lat="50.59798" lon="2.92921">
        <ele>92.2</ele>
        <time>2023-08-05T16:04:58Z</time>
      </trkpt>
      <trkpt lat="50.59796" lon="2.92917">
        <ele>92.2</ele>
        <time>2023-08-05T16:04:59Z</time>
      </trkpt>
      <trkpt lat="50.59794" lon="2.92915">
        <ele>92.4</ele>
        <time>2023-08-05T16:05:00Z</time>
      </trkpt>
      <trkpt lat="50.59792" lon="2.92911">
        <ele>92.6</ele>
        <time>2023-08-05T16:05:01Z</time>
      </trkpt>
      <trkpt lat="50.59789" lon="2.92906">
        <ele>92.8</ele>
        <time>2023-08-05T16:05:02Z</time>
      </trkpt>
      <trkpt lat="50.59786" lon="2.92901">
        <ele>93</ele>
        <time>2023-08-05T16:05:03Z</time>
      </trkpt>
      <trkpt lat="50.59784" lon="2.92898">
        <ele>93.2</ele>
        <time>2023-08-05T16:05:04Z</time>
      </trkpt>
      <trkpt lat="50.59782" lon="2.92894">
        <ele>93.4</ele>
        <time>2023-08-05T16:05:05Z</time>
      </trkpt>
      <trkpt lat="50.59779" lon="2.9289">
        <ele>93.6</ele>
        <time>2023-08-05T16:05:06Z</time>
      </trkpt>
      <trkpt lat="50.59777" lon="2.92886">
        <ele>93.6</ele>
        <time>2023-08-05T16:05:07Z</time>
      </trkpt>
      <trkpt lat="50.59772" lon="2.92878">
        <ele>93.8</ele>
        <time>2023-08-05T16:05:09Z</time>
      </trkpt>
      <trkpt lat="50.59756" lon="2.92849">
        <ele>94.2</ele>
        <time>2023-08-05T16:05:16Z</time>
      </trkpt>
      <trkpt lat="50.59738" lon="2.92818">
        <ele>94</ele>
        <time>2023-08-05T16:05:24Z</time>
      </trkpt>
      <trkpt lat="50.59735" lon="2.92814">
        <ele>94</ele>
        <time>2023-08-05T16:05:25Z</time>
      </trkpt>
      <trkpt lat="50.59733" lon="2.92809">
        <ele>94.2</ele>
        <time>2023-08-05T16:05:26Z</time>
      </trkpt>
      <trkpt lat="50.59728" lon="2.92801">
        <ele>94.2</ele>
        <time>2023-08-05T16:05:28Z</time>
      </trkpt>
      <trkpt lat="50.59712" lon="2.92773">
        <ele>94.4</ele>
        <time>2023-08-05T16:05:35Z</time>
      </trkpt>
      <trkpt lat="50.59691" lon="2.92738">
        <ele>95</ele>
        <time>2023-08-05T16:05:43Z</time>
      </trkpt>
      <trkpt lat="50.5968" lon="2.9272">
        <ele>95.2</ele>
        <time>2023-08-05T16:05:47Z</time>
      </trkpt>
      <trkpt lat="50.59675" lon="2.92712">
        <ele>95.2</ele>
        <time>2023-08-05T16:05:49Z</time>
      </trkpt>
      <trkpt lat="50.59664" lon="2.92694">
        <ele>95.2</ele>
        <time>2023-08-05T16:05:53Z</time>
      </trkpt>
      <trkpt lat="50.59643" lon="2.92656">
        <ele>95.6</ele>
        <time>2023-08-05T16:06:01Z</time>
      </trkpt>
      <trkpt lat="50.5964" lon="2.92652">
        <ele>95.6</ele>
        <time>2023-08-05T16:06:02Z</time>
      </trkpt>
      <trkpt lat="50.59638" lon="2.92649">
        <ele>95.6</ele>
        <time>2023-08-05T16:06:03Z</time>
      </trkpt>
      <trkpt lat="50.59636" lon="2.92645">
        <ele>95.8</ele>
        <time>2023-08-05T16:06:04Z</time>
      </trkpt>
      <trkpt lat="50.59632" lon="2.9264">
        <ele>95.8</ele>
        <time>2023-08-05T16:06:05Z</time>
      </trkpt>
      <trkpt lat="50.5963" lon="2.92636">
        <ele>95.8</ele>
        <time>2023-08-05T16:06:06Z</time>
      </trkpt>
      <trkpt lat="50.59628" lon="2.92632">
        <ele>95.8</ele>
        <time>2023-08-05T16:06:07Z</time>
      </trkpt>
      <trkpt lat="50.59626" lon="2.92628">
        <ele>95.8</ele>
        <time>2023-08-05T16:06:08Z</time>
      </trkpt>
      <trkpt lat="50.59623" lon="2.92624">
        <ele>95.8</ele>
        <time>2023-08-05T16:06:09Z</time>
      </trkpt>
      <trkpt lat="50.5962" lon="2.92619">
        <ele>95.6</ele>
        <time>2023-08-05T16:06:10Z</time>
      </trkpt>
      <trkpt lat="50.59618" lon="2.92615">
        <ele>95.4</ele>
        <time>2023-08-05T16:06:11Z</time>
      </trkpt>
      <trkpt lat="50.59616" lon="2.92612">
        <ele>95.2</ele>
        <time>2023-08-05T16:06:12Z</time>
      </trkpt>
      <trkpt lat="50.59614" lon="2.92608">
        <ele>95.2</ele>
        <time>2023-08-05T16:06:13Z</time>
      </trkpt>
      <trkpt lat="50.59606" lon="2.92595">
        <ele>95.2</ele>
        <time>2023-08-05T16:06:16Z</time>
      </trkpt>
      <trkpt lat="50.59604" lon="2.92592">
        <ele>95.2</ele>
        <time>2023-08-05T16:06:17Z</time>
      </trkpt>
      <trkpt lat="50.59601" lon="2.92587">
        <ele>95.2</ele>
        <time>2023-08-05T16:06:18Z</time>
      </trkpt>
      <trkpt lat="50.59599" lon="2.92584">
        <ele>95.4</ele>
        <time>2023-08-05T16:06:19Z</time>
      </trkpt>
      <trkpt lat="50.59597" lon="2.92581">
        <ele>95.4</ele>
        <time>2023-08-05T16:06:20Z</time>
      </trkpt>
      <trkpt lat="50.59595" lon="2.92578">
        <ele>95.4</ele>
        <time>2023-08-05T16:06:21Z</time>
      </trkpt>
      <trkpt lat="50.59592" lon="2.92575">
        <ele>95.4</ele>
        <time>2023-08-05T16:06:22Z</time>
      </trkpt>
      <trkpt lat="50.59591" lon="2.92572">
        <ele>95.4</ele>
        <time>2023-08-05T16:06:23Z</time>
      </trkpt>
      <trkpt lat="50.59588" lon="2.92568">
        <ele>95.4</ele>
        <time>2023-08-05T16:06:24Z</time>
      </trkpt>
      <trkpt lat="50.59587" lon="2.92565">
        <ele>95.4</ele>
        <time>2023-08-05T16:06:25Z</time>
      </trkpt>
      <trkpt lat="50.59586" lon="2.92562">
        <ele>95.4</ele>
        <time>2023-08-05T16:06:26Z</time>
      </trkpt>
      <trkpt lat="50.59585" lon="2.9256">
        <ele>95.4</ele>
        <time>2023-08-05T16:06:27Z</time>
      </trkpt>
      <trkpt lat="50.59584" lon="2.92558">
        <ele>95.2</ele>
        <time>2023-08-05T16:06:28Z</time>
      </trkpt>
      <trkpt lat="50.59584" lon="2.92558">
        <ele>95.2</ele>
        <time>2023-08-05T16:06:29Z</time>
      </trkpt>
      <trkpt lat="50.59584" lon="2.92558">
        <ele>95</ele>
        <time>2023-08-05T16:06:30Z</time>
      </trkpt>
      <trkpt lat="50.59583" lon="2.92558">
        <ele>95</ele>
        <time>2023-08-05T16:06:31Z</time>
      </trkpt>
      <trkpt lat="50.59582" lon="2.92557">
        <ele>95</ele>
        <time>2023-08-05T16:06:32Z</time>
      </trkpt>
      <trkpt lat="50.5958" lon="2.92555">
        <ele>95</ele>
        <time>2023-08-05T16:06:33Z</time>
      </trkpt>
      <trkpt lat="50.59578" lon="2.92554">
        <ele>94.8</ele>
        <time>2023-08-05T16:06:34Z</time>
      </trkpt>
      <trkpt lat="50.59572" lon="2.92557">
        <ele>94.8</ele>
        <time>2023-08-05T16:06:36Z</time>
      </trkpt>
      <trkpt lat="50.59569" lon="2.92559">
        <ele>94.8</ele>
        <time>2023-08-05T16:06:37Z</time>
      </trkpt>
      <trkpt lat="50.59565" lon="2.92562">
        <ele>94.8</ele>
        <time>2023-08-05T16:06:38Z</time>
      </trkpt>
      <trkpt lat="50.59561" lon="2.92565">
        <ele>94.8</ele>
        <time>2023-08-05T16:06:39Z</time>
      </trkpt>
      <trkpt lat="50.59558" lon="2.92568">
        <ele>94.8</ele>
        <time>2023-08-05T16:06:40Z</time>
      </trkpt>
      <trkpt lat="50.59551" lon="2.92573">
        <ele>94.8</ele>
        <time>2023-08-05T16:06:42Z</time>
      </trkpt>
      <trkpt lat="50.5954" lon="2.9258">
        <ele>94.8</ele>
        <time>2023-08-05T16:06:45Z</time>
      </trkpt>
      <trkpt lat="50.59513" lon="2.92594">
        <ele>95.2</ele>
        <time>2023-08-05T16:06:52Z</time>
      </trkpt>
      <trkpt lat="50.5946" lon="2.92618">
        <ele>96.2</ele>
        <time>2023-08-05T16:07:04Z</time>
      </trkpt>
      <trkpt lat="50.59452" lon="2.92621">
        <ele>96.2</ele>
        <time>2023-08-05T16:07:06Z</time>
      </trkpt>
      <trkpt lat="50.59434" lon="2.92629">
        <ele>96.4</ele>
        <time>2023-08-05T16:07:10Z</time>
      </trkpt>
      <trkpt lat="50.59431" lon="2.9263">
        <ele>96.4</ele>
        <time>2023-08-05T16:07:11Z</time>
      </trkpt>
      <trkpt lat="50.59426" lon="2.92632">
        <ele>96.4</ele>
        <time>2023-08-05T16:07:12Z</time>
      </trkpt>
      <trkpt lat="50.59421" lon="2.92634">
        <ele>96.4</ele>
        <time>2023-08-05T16:07:13Z</time>
      </trkpt>
      <trkpt lat="50.59417" lon="2.92636">
        <ele>96.4</ele>
        <time>2023-08-05T16:07:14Z</time>
      </trkpt>
      <trkpt lat="50.59371" lon="2.92654">
        <ele>96.8</ele>
        <time>2023-08-05T16:07:25Z</time>
      </trkpt>
      <trkpt lat="50.59362" lon="2.92658">
        <ele>97</ele>
        <time>2023-08-05T16:07:27Z</time>
      </trkpt>
      <trkpt lat="50.59345" lon="2.92664">
        <ele>97.2</ele>
        <time>2023-08-05T16:07:31Z</time>
      </trkpt>
      <trkpt lat="50.59329" lon="2.92672">
        <ele>97.4</ele>
        <time>2023-08-05T16:07:35Z</time>
      </trkpt>
      <trkpt lat="50.59325" lon="2.92674">
        <ele>97.4</ele>
        <time>2023-08-05T16:07:36Z</time>
      </trkpt>
      <trkpt lat="50.59321" lon="2.92675">
        <ele>97.4</ele>
        <time>2023-08-05T16:07:37Z</time>
      </trkpt>
      <trkpt lat="50.59317" lon="2.92677">
        <ele>97.4</ele>
        <time>2023-08-05T16:07:38Z</time>
      </trkpt>
      <trkpt lat="50.59313" lon="2.92679">
        <ele>97.4</ele>
        <time>2023-08-05T16:07:39Z</time>
      </trkpt>
      <trkpt lat="50.59309" lon="2.9268">
        <ele>97.6</ele>
        <time>2023-08-05T16:07:40Z</time>
      </trkpt>
      <trkpt lat="50.59297" lon="2.92683">
        <ele>97.8</ele>
        <time>2023-08-05T16:07:43Z</time>
      </trkpt>
      <trkpt lat="50.59285" lon="2.92687">
        <ele>98</ele>
        <time>2023-08-05T16:07:46Z</time>
      </trkpt>
      <trkpt lat="50.59273" lon="2.92691">
        <ele>98</ele>
        <time>2023-08-05T16:07:49Z</time>
      </trkpt>
      <trkpt lat="50.59268" lon="2.92692">
        <ele>98</ele>
        <time>2023-08-05T16:07:50Z</time>
      </trkpt>
      <trkpt lat="50.59248" lon="2.92698">
        <ele>98.2</ele>
        <time>2023-08-05T16:07:55Z</time>
      </trkpt>
      <trkpt lat="50.59239" lon="2.92699">
        <ele>98.2</ele>
        <time>2023-08-05T16:07:57Z</time>
      </trkpt>
      <trkpt lat="50.592" lon="2.92702">
        <ele>98.6</ele>
        <time>2023-08-05T16:08:06Z</time>
      </trkpt>
      <trkpt lat="50.5916" lon="2.92706">
        <ele>98.4</ele>
        <time>2023-08-05T16:08:15Z</time>
      </trkpt>
      <trkpt lat="50.59139" lon="2.92711">
        <ele>98</ele>
        <time>2023-08-05T16:08:20Z</time>
      </trkpt>
      <trkpt lat="50.59131" lon="2.92716">
        <ele>97.8</ele>
        <time>2023-08-05T16:08:22Z</time>
      </trkpt>
      <trkpt lat="50.59127" lon="2.92717">
        <ele>97.6</ele>
        <time>2023-08-05T16:08:23Z</time>
      </trkpt>
      <trkpt lat="50.59123" lon="2.92719">
        <ele>97.6</ele>
        <time>2023-08-05T16:08:24Z</time>
      </trkpt>
      <trkpt lat="50.5912" lon="2.92719">
        <ele>97.6</ele>
        <time>2023-08-05T16:08:25Z</time>
      </trkpt>
      <trkpt lat="50.59107" lon="2.92725">
        <ele>97.6</ele>
        <time>2023-08-05T16:08:28Z</time>
      </trkpt>
      <trkpt lat="50.59095" lon="2.92732">
        <ele>97.6</ele>
        <time>2023-08-05T16:08:31Z</time>
      </trkpt>
      <trkpt lat="50.59091" lon="2.92736">
        <ele>97.6</ele>
        <time>2023-08-05T16:08:32Z</time>
      </trkpt>
      <trkpt lat="50.59088" lon="2.9274">
        <ele>97.8</ele>
        <time>2023-08-05T16:08:33Z</time>
      </trkpt>
      <trkpt lat="50.59086" lon="2.92745">
        <ele>97.6</ele>
        <time>2023-08-05T16:08:34Z</time>
      </trkpt>
      <trkpt lat="50.59083" lon="2.92751">
        <ele>97.6</ele>
        <time>2023-08-05T16:08:35Z</time>
      </trkpt>
      <trkpt lat="50.5908" lon="2.92756">
        <ele>97.6</ele>
        <time>2023-08-05T16:08:36Z</time>
      </trkpt>
      <trkpt lat="50.59073" lon="2.92771">
        <ele>97.4</ele>
        <time>2023-08-05T16:08:39Z</time>
      </trkpt>
      <trkpt lat="50.59066" lon="2.92774">
        <ele>97.4</ele>
        <time>2023-08-05T16:08:41Z</time>
      </trkpt>
      <trkpt lat="50.59063" lon="2.92774">
        <ele>97.2</ele>
        <time>2023-08-05T16:08:42Z</time>
      </trkpt>
      <trkpt lat="50.59059" lon="2.92773">
        <ele>97</ele>
        <time>2023-08-05T16:08:43Z</time>
      </trkpt>
      <trkpt lat="50.59056" lon="2.92771">
        <ele>97.2</ele>
        <time>2023-08-05T16:08:44Z</time>
      </trkpt>
      <trkpt lat="50.59053" lon="2.9277">
        <ele>96.8</ele>
        <time>2023-08-05T16:08:45Z</time>
      </trkpt>
      <trkpt lat="50.59049" lon="2.92769">
        <ele>97</ele>
        <time>2023-08-05T16:08:46Z</time>
      </trkpt>
      <trkpt lat="50.59046" lon="2.92767">
        <ele>96.8</ele>
        <time>2023-08-05T16:08:47Z</time>
      </trkpt>
      <trkpt lat="50.59042" lon="2.92765">
        <ele>96.8</ele>
        <time>2023-08-05T16:08:48Z</time>
      </trkpt>
      <trkpt lat="50.59039" lon="2.92764">
        <ele>97</ele>
        <time>2023-08-05T16:08:49Z</time>
      </trkpt>
      <trkpt lat="50.59023" lon="2.92763">
        <ele>97</ele>
        <time>2023-08-05T16:08:53Z</time>
      </trkpt>
      <trkpt lat="50.59019" lon="2.92766">
        <ele>97</ele>
        <time>2023-08-05T16:08:54Z</time>
      </trkpt>
      <trkpt lat="50.59015" lon="2.92769">
        <ele>97</ele>
        <time>2023-08-05T16:08:55Z</time>
      </trkpt>
      <trkpt lat="50.5901" lon="2.92772">
        <ele>97.2</ele>
        <time>2023-08-05T16:08:56Z</time>
      </trkpt>
      <trkpt lat="50.59006" lon="2.92776">
        <ele>97.2</ele>
        <time>2023-08-05T16:08:57Z</time>
      </trkpt>
      <trkpt lat="50.58997" lon="2.92785">
        <ele>97.4</ele>
        <time>2023-08-05T16:08:59Z</time>
      </trkpt>
      <trkpt lat="50.58989" lon="2.9279">
        <ele>97.4</ele>
        <time>2023-08-05T16:09:01Z</time>
      </trkpt>
      <trkpt lat="50.58985" lon="2.92794">
        <ele>97.2</ele>
        <time>2023-08-05T16:09:02Z</time>
      </trkpt>
      <trkpt lat="50.58982" lon="2.92797">
        <ele>97</ele>
        <time>2023-08-05T16:09:03Z</time>
      </trkpt>
      <trkpt lat="50.58979" lon="2.92802">
        <ele>97</ele>
        <time>2023-08-05T16:09:04Z</time>
      </trkpt>
      <trkpt lat="50.58975" lon="2.92806">
        <ele>96.8</ele>
        <time>2023-08-05T16:09:05Z</time>
      </trkpt>
      <trkpt lat="50.58972" lon="2.92809">
        <ele>96.8</ele>
        <time>2023-08-05T16:09:06Z</time>
      </trkpt>
      <trkpt lat="50.58969" lon="2.92812">
        <ele>96.6</ele>
        <time>2023-08-05T16:09:07Z</time>
      </trkpt>
      <trkpt lat="50.58965" lon="2.92813">
        <ele>96.4</ele>
        <time>2023-08-05T16:09:08Z</time>
      </trkpt>
      <trkpt lat="50.58962" lon="2.92811">
        <ele>96.4</ele>
        <time>2023-08-05T16:09:09Z</time>
      </trkpt>
      <trkpt lat="50.5896" lon="2.92807">
        <ele>96.2</ele>
        <time>2023-08-05T16:09:10Z</time>
      </trkpt>
      <trkpt lat="50.58958" lon="2.92802">
        <ele>96.2</ele>
        <time>2023-08-05T16:09:11Z</time>
      </trkpt>
      <trkpt lat="50.58956" lon="2.92797">
        <ele>96</ele>
        <time>2023-08-05T16:09:12Z</time>
      </trkpt>
      <trkpt lat="50.58953" lon="2.92793">
        <ele>96</ele>
        <time>2023-08-05T16:09:13Z</time>
      </trkpt>
      <trkpt lat="50.58949" lon="2.92791">
        <ele>96</ele>
        <time>2023-08-05T16:09:14Z</time>
      </trkpt>
      <trkpt lat="50.58945" lon="2.92789">
        <ele>96</ele>
        <time>2023-08-05T16:09:15Z</time>
      </trkpt>
      <trkpt lat="50.58942" lon="2.92787">
        <ele>96</ele>
        <time>2023-08-05T16:09:16Z</time>
      </trkpt>
      <trkpt lat="50.58938" lon="2.92785">
        <ele>96</ele>
        <time>2023-08-05T16:09:17Z</time>
      </trkpt>
      <trkpt lat="50.58929" lon="2.92781">
        <ele>96</ele>
        <time>2023-08-05T16:09:19Z</time>
      </trkpt>
      <trkpt lat="50.5892" lon="2.92782">
        <ele>96.2</ele>
        <time>2023-08-05T16:09:21Z</time>
      </trkpt>
      <trkpt lat="50.58917" lon="2.92785">
        <ele>96.2</ele>
        <time>2023-08-05T16:09:22Z</time>
      </trkpt>
      <trkpt lat="50.58914" lon="2.92788">
        <ele>96.2</ele>
        <time>2023-08-05T16:09:23Z</time>
      </trkpt>
      <trkpt lat="50.58912" lon="2.92792">
        <ele>96.2</ele>
        <time>2023-08-05T16:09:24Z</time>
      </trkpt>
      <trkpt lat="50.58909" lon="2.92797">
        <ele>96.2</ele>
        <time>2023-08-05T16:09:25Z</time>
      </trkpt>
      <trkpt lat="50.58907" lon="2.92802">
        <ele>96.2</ele>
        <time>2023-08-05T16:09:26Z</time>
      </trkpt>
      <trkpt lat="50.58905" lon="2.92808">
        <ele>96.2</ele>
        <time>2023-08-05T16:09:27Z</time>
      </trkpt>
      <trkpt lat="50.58898" lon="2.92834">
        <ele>95.8</ele>
        <time>2023-08-05T16:09:31Z</time>
      </trkpt>
      <trkpt lat="50.58895" lon="2.92848">
        <ele>95.6</ele>
        <time>2023-08-05T16:09:33Z</time>
      </trkpt>
      <trkpt lat="50.58891" lon="2.92853">
        <ele>95.6</ele>
        <time>2023-08-05T16:09:34Z</time>
      </trkpt>
      <trkpt lat="50.58888" lon="2.92858">
        <ele>95.4</ele>
        <time>2023-08-05T16:09:35Z</time>
      </trkpt>
      <trkpt lat="50.58883" lon="2.92862">
        <ele>95.4</ele>
        <time>2023-08-05T16:09:36Z</time>
      </trkpt>
      <trkpt lat="50.58879" lon="2.92866">
        <ele>95.2</ele>
        <time>2023-08-05T16:09:37Z</time>
      </trkpt>
      <trkpt lat="50.58875" lon="2.92869">
        <ele>95.2</ele>
        <time>2023-08-05T16:09:38Z</time>
      </trkpt>
      <trkpt lat="50.58842" lon="2.92892">
        <ele>95</ele>
        <time>2023-08-05T16:09:45Z</time>
      </trkpt>
      <trkpt lat="50.58789" lon="2.92925">
        <ele>94.6</ele>
        <time>2023-08-05T16:09:55Z</time>
      </trkpt>
      <trkpt lat="50.58757" lon="2.92933">
        <ele>94.2</ele>
        <time>2023-08-05T16:10:01Z</time>
      </trkpt>
      <trkpt lat="50.58753" lon="2.92938">
        <ele>94.2</ele>
        <time>2023-08-05T16:10:02Z</time>
      </trkpt>
      <trkpt lat="50.58751" lon="2.92944">
        <ele>94.2</ele>
        <time>2023-08-05T16:10:03Z</time>
      </trkpt>
      <trkpt lat="50.5875" lon="2.92951">
        <ele>94.2</ele>
        <time>2023-08-05T16:10:04Z</time>
      </trkpt>
      <trkpt lat="50.5875" lon="2.92958">
        <ele>94.2</ele>
        <time>2023-08-05T16:10:05Z</time>
      </trkpt>
      <trkpt lat="50.5875" lon="2.92966">
        <ele>94</ele>
        <time>2023-08-05T16:10:06Z</time>
      </trkpt>
      <trkpt lat="50.58751" lon="2.92974">
        <ele>94</ele>
        <time>2023-08-05T16:10:07Z</time>
      </trkpt>
      <trkpt lat="50.58751" lon="2.92982">
        <ele>94</ele>
        <time>2023-08-05T16:10:08Z</time>
      </trkpt>
      <trkpt lat="50.58752" lon="2.92994">
        <ele>94</ele>
        <time>2023-08-05T16:10:10Z</time>
      </trkpt>
      <trkpt lat="50.58752" lon="2.92997">
        <ele>93.8</ele>
        <time>2023-08-05T16:10:11Z</time>
      </trkpt>
      <trkpt lat="50.58752" lon="2.92999">
        <ele>93.6</ele>
        <time>2023-08-05T16:10:12Z</time>
      </trkpt>
      <trkpt lat="50.58751" lon="2.93">
        <ele>93.6</ele>
        <time>2023-08-05T16:10:13Z</time>
      </trkpt>
      <trkpt lat="50.5875" lon="2.93">
        <ele>93.4</ele>
        <time>2023-08-05T16:10:14Z</time>
      </trkpt>
      <trkpt lat="50.58749" lon="2.93">
        <ele>93.4</ele>
        <time>2023-08-05T16:10:15Z</time>
      </trkpt>
      <trkpt lat="50.58748" lon="2.93001">
        <ele>93.4</ele>
        <time>2023-08-05T16:10:17Z</time>
      </trkpt>
      <trkpt lat="50.58748" lon="2.93001">
        <ele>93.4</ele>
        <time>2023-08-05T16:10:18Z</time>
      </trkpt>
      <trkpt lat="50.58748" lon="2.93001">
        <ele>93.2</ele>
        <time>2023-08-05T16:10:19Z</time>
      </trkpt>
    </trkseg>
  </trk>
</gpx>